<?xml version="1.0" encoding="UTF-8" standalone="no" ?>
<gpx xmlns="http://www.topografix.com/GPX/1/1" xmlns:xsi="http://www.w3.org/2001/XMLSchema-instance" xsi:schemaLocation="http://www.topografix.com/GPX/1/1 http://www.topografix.com/GPX/1/1/gpx.xsd" version="1.1" creator="VisuGPX - https://www.visugpx.com">
  <metadata>
    <name>Tour d'Europe: étape 095</name>
    <desc><![CDATA[Étape 095]]></desc>
  </metadata>
  <trk>
    <name><![CDATA[Tour d'Europe: étape 095]]></name>
    <trkseg>
      <trkpt lat="63.82748" lon="20.2575">
        <ele>46.764655</ele>
        <time>2020-10-01T08:10:27.695Z</time>
      </trkpt>
      <trkpt lat="63.82748" lon="20.25721">
        <ele>46.764655</ele>
        <time>2020-10-01T08:10:28.626Z</time>
      </trkpt>
      <trkpt lat="63.82754" lon="20.25687">
        <ele>46.764655</ele>
        <time>2020-10-01T08:10:29.602Z</time>
      </trkpt>
      <trkpt lat="63.82747" lon="20.25701">
        <ele>46.764655</ele>
        <time>2020-10-01T08:10:31.307Z</time>
      </trkpt>
      <trkpt lat="63.82736" lon="20.25687">
        <ele>46.764655</ele>
        <time>2020-10-01T08:15:55.228Z</time>
      </trkpt>
      <trkpt lat="63.82726" lon="20.25686">
        <ele>46.764655</ele>
        <time>2020-10-01T08:16:00.242Z</time>
      </trkpt>
      <trkpt lat="63.82709" lon="20.2568">
        <ele>46.764655</ele>
        <time>2020-10-01T08:16:10.235Z</time>
      </trkpt>
      <trkpt lat="63.827" lon="20.25675">
        <ele>46.764655</ele>
        <time>2020-10-01T08:16:15.292Z</time>
      </trkpt>
      <trkpt lat="63.827" lon="20.25631">
        <ele>47.909622</ele>
        <time>2020-10-01T08:17:08.278Z</time>
      </trkpt>
      <trkpt lat="63.82703" lon="20.25607">
        <ele>48.610553</ele>
        <time>2020-10-01T08:17:12.258Z</time>
      </trkpt>
      <trkpt lat="63.82706" lon="20.25583">
        <ele>49.324192</ele>
        <time>2020-10-01T08:17:16.241Z</time>
      </trkpt>
      <trkpt lat="63.82711" lon="20.25561">
        <ele>50.023534</ele>
        <time>2020-10-01T08:17:20.238Z</time>
      </trkpt>
      <trkpt lat="63.82713" lon="20.25539">
        <ele>50.647099</ele>
        <time>2020-10-01T08:17:23.264Z</time>
      </trkpt>
      <trkpt lat="63.82713" lon="20.25513">
        <ele>51.37673</ele>
        <time>2020-10-01T08:17:27.238Z</time>
      </trkpt>
      <trkpt lat="63.82715" lon="20.25492">
        <ele>51.99497</ele>
        <time>2020-10-01T08:17:30.260Z</time>
      </trkpt>
      <trkpt lat="63.82718" lon="20.25469">
        <ele>52.679335</ele>
        <time>2020-10-01T08:17:33.253Z</time>
      </trkpt>
      <trkpt lat="63.82723" lon="20.25449">
        <ele>53.348281</ele>
        <time>2020-10-01T08:17:36.242Z</time>
      </trkpt>
      <trkpt lat="63.82728" lon="20.25429">
        <ele>53.980617</ele>
        <time>2020-10-01T08:17:39.278Z</time>
      </trkpt>
      <trkpt lat="63.82732" lon="20.25401">
        <ele>54.808064</ele>
        <time>2020-10-01T08:17:42.260Z</time>
      </trkpt>
      <trkpt lat="63.82736" lon="20.25376">
        <ele>55.582114</ele>
        <time>2020-10-01T08:17:45.291Z</time>
      </trkpt>
      <trkpt lat="63.8274" lon="20.25355">
        <ele>56.206529</ele>
        <time>2020-10-01T08:17:48.241Z</time>
      </trkpt>
      <trkpt lat="63.82745" lon="20.25332">
        <ele>56.952166</ele>
        <time>2020-10-01T08:17:52.285Z</time>
      </trkpt>
      <trkpt lat="63.8275" lon="20.25311">
        <ele>57.611056</ele>
        <time>2020-10-01T08:17:55.284Z</time>
      </trkpt>
      <trkpt lat="63.82755" lon="20.25289">
        <ele>58.33539</ele>
        <time>2020-10-01T08:17:58.257Z</time>
      </trkpt>
      <trkpt lat="63.82759" lon="20.25264">
        <ele>58.536816</ele>
        <time>2020-10-01T08:18:01.260Z</time>
      </trkpt>
      <trkpt lat="63.82762" lon="20.25242">
        <ele>58.714352</ele>
        <time>2020-10-01T08:18:04.266Z</time>
      </trkpt>
      <trkpt lat="63.82767" lon="20.25221">
        <ele>58.891678</ele>
        <time>2020-10-01T08:18:07.240Z</time>
      </trkpt>
      <trkpt lat="63.82774" lon="20.25198">
        <ele>59.095698</ele>
        <time>2020-10-01T08:18:10.250Z</time>
      </trkpt>
      <trkpt lat="63.8278" lon="20.25175">
        <ele>59.304386</ele>
        <time>2020-10-01T08:18:13.276Z</time>
      </trkpt>
      <trkpt lat="63.82786" lon="20.25152">
        <ele>59.503937</ele>
        <time>2020-10-01T08:18:16.261Z</time>
      </trkpt>
      <trkpt lat="63.82786" lon="20.25128">
        <ele>59.681266</ele>
        <time>2020-10-01T08:18:19.244Z</time>
      </trkpt>
      <trkpt lat="63.82776" lon="20.25112">
        <ele>59.88185</ele>
        <time>2020-10-01T08:18:23.248Z</time>
      </trkpt>
      <trkpt lat="63.82768" lon="20.251">
        <ele>60.051536</ele>
        <time>2020-10-01T08:18:26.259Z</time>
      </trkpt>
      <trkpt lat="63.82756" lon="20.25092">
        <ele>60.257052</ele>
        <time>2020-10-01T08:18:30.263Z</time>
      </trkpt>
      <trkpt lat="63.82745" lon="20.25085">
        <ele>60.455415</ele>
        <time>2020-10-01T08:18:33.247Z</time>
      </trkpt>
      <trkpt lat="63.82737" lon="20.25076">
        <ele>60.611056</ele>
        <time>2020-10-01T08:18:35.340Z</time>
      </trkpt>
      <trkpt lat="63.82728" lon="20.2507">
        <ele>60.765517</ele>
        <time>2020-10-01T08:18:37.256Z</time>
      </trkpt>
      <trkpt lat="63.82718" lon="20.25059">
        <ele>60.959506</ele>
        <time>2020-10-01T08:18:40.242Z</time>
      </trkpt>
      <trkpt lat="63.82709" lon="20.25052">
        <ele>61.115098</ele>
        <time>2020-10-01T08:18:42.237Z</time>
      </trkpt>
      <trkpt lat="63.82699" lon="20.25047">
        <ele>61.287709</ele>
        <time>2020-10-01T08:18:44.264Z</time>
      </trkpt>
      <trkpt lat="63.8269" lon="20.25042">
        <ele>60.924288</ele>
        <time>2020-10-01T08:18:46.241Z</time>
      </trkpt>
      <trkpt lat="63.8268" lon="20.25037">
        <ele>59.580363</ele>
        <time>2020-10-01T08:18:48.265Z</time>
      </trkpt>
      <trkpt lat="63.8267" lon="20.2503">
        <ele>58.076845</ele>
        <time>2020-10-01T08:18:50.253Z</time>
      </trkpt>
      <trkpt lat="63.8266" lon="20.25024">
        <ele>56.530295</ele>
        <time>2020-10-01T08:18:52.244Z</time>
      </trkpt>
      <trkpt lat="63.82648" lon="20.25018">
        <ele>54.88468</ele>
        <time>2020-10-01T08:18:54.235Z</time>
      </trkpt>
      <trkpt lat="63.82637" lon="20.25009">
        <ele>53.185625</ele>
        <time>2020-10-01T08:18:56.262Z</time>
      </trkpt>
      <trkpt lat="63.82626" lon="20.25">
        <ele>51.540826</ele>
        <time>2020-10-01T08:18:58.237Z</time>
      </trkpt>
      <trkpt lat="63.82617" lon="20.24993">
        <ele>50.162723</ele>
        <time>2020-10-01T08:19:00.242Z</time>
      </trkpt>
      <trkpt lat="63.82608" lon="20.24987">
        <ele>48.851413</ele>
        <time>2020-10-01T08:19:02.263Z</time>
      </trkpt>
      <trkpt lat="63.82599" lon="20.24982">
        <ele>47.550111</ele>
        <time>2020-10-01T08:19:04.236Z</time>
      </trkpt>
      <trkpt lat="63.82587" lon="20.24974">
        <ele>45.837263</ele>
        <time>2020-10-01T08:19:07.282Z</time>
      </trkpt>
      <trkpt lat="63.82576" lon="20.24966">
        <ele>44.218491</ele>
        <time>2020-10-01T08:19:10.248Z</time>
      </trkpt>
      <trkpt lat="63.82564" lon="20.24958">
        <ele>42.459835</ele>
        <time>2020-10-01T08:19:13.245Z</time>
      </trkpt>
      <trkpt lat="63.82553" lon="20.2495">
        <ele>40.762733</ele>
        <time>2020-10-01T08:19:16.242Z</time>
      </trkpt>
      <trkpt lat="63.82542" lon="20.24941">
        <ele>39.056018</ele>
        <time>2020-10-01T08:19:19.247Z</time>
      </trkpt>
      <trkpt lat="63.82531" lon="20.24934">
        <ele>37.460488</ele>
        <time>2020-10-01T08:19:22.251Z</time>
      </trkpt>
      <trkpt lat="63.8252" lon="20.24926">
        <ele>35.957724</ele>
        <time>2020-10-01T08:19:25.241Z</time>
      </trkpt>
      <trkpt lat="63.82509" lon="20.24918">
        <ele>35.917486</ele>
        <time>2020-10-01T08:19:28.238Z</time>
      </trkpt>
      <trkpt lat="63.82498" lon="20.2491">
        <ele>35.877872</ele>
        <time>2020-10-01T08:19:31.257Z</time>
      </trkpt>
      <trkpt lat="63.82487" lon="20.24902">
        <ele>35.837206</ele>
        <time>2020-10-01T08:19:34.252Z</time>
      </trkpt>
      <trkpt lat="63.82477" lon="20.24894">
        <ele>35.799747</ele>
        <time>2020-10-01T08:19:37.248Z</time>
      </trkpt>
      <trkpt lat="63.82466" lon="20.24885">
        <ele>35.758209</ele>
        <time>2020-10-01T08:19:40.300Z</time>
      </trkpt>
      <trkpt lat="63.82456" lon="20.24878">
        <ele>35.71887</ele>
        <time>2020-10-01T08:19:43.264Z</time>
      </trkpt>
      <trkpt lat="63.82445" lon="20.24873">
        <ele>35.679011</ele>
        <time>2020-10-01T08:19:46.275Z</time>
      </trkpt>
      <trkpt lat="63.82434" lon="20.24866">
        <ele>35.638736</ele>
        <time>2020-10-01T08:19:49.263Z</time>
      </trkpt>
      <trkpt lat="63.82422" lon="20.24858">
        <ele>35.596777</ele>
        <time>2020-10-01T08:19:52.225Z</time>
      </trkpt>
      <trkpt lat="63.8241" lon="20.24851">
        <ele>35.551749</ele>
        <time>2020-10-01T08:19:55.275Z</time>
      </trkpt>
      <trkpt lat="63.82399" lon="20.24844">
        <ele>35.510243</ele>
        <time>2020-10-01T08:19:58.257Z</time>
      </trkpt>
      <trkpt lat="63.82387" lon="20.24833">
        <ele>35.465793</ele>
        <time>2020-10-01T08:20:01.246Z</time>
      </trkpt>
      <trkpt lat="63.82376" lon="20.24823">
        <ele>35.422386</ele>
        <time>2020-10-01T08:20:04.265Z</time>
      </trkpt>
      <trkpt lat="63.82364" lon="20.24813">
        <ele>35.378641</ele>
        <time>2020-10-01T08:20:07.284Z</time>
      </trkpt>
      <trkpt lat="63.82353" lon="20.24805">
        <ele>35.337161</ele>
        <time>2020-10-01T08:20:10.273Z</time>
      </trkpt>
      <trkpt lat="63.82341" lon="20.24799">
        <ele>35.708452</ele>
        <time>2020-10-01T08:20:13.250Z</time>
      </trkpt>
      <trkpt lat="63.8233" lon="20.24791">
        <ele>36.207747</ele>
        <time>2020-10-01T08:20:16.265Z</time>
      </trkpt>
      <trkpt lat="63.82319" lon="20.24782">
        <ele>36.750588</ele>
        <time>2020-10-01T08:20:19.254Z</time>
      </trkpt>
      <trkpt lat="63.82308" lon="20.2477">
        <ele>37.273926</ele>
        <time>2020-10-01T08:20:22.265Z</time>
      </trkpt>
      <trkpt lat="63.82299" lon="20.24761">
        <ele>37.733388</ele>
        <time>2020-10-01T08:20:25.261Z</time>
      </trkpt>
      <trkpt lat="63.82289" lon="20.24756">
        <ele>38.177299</ele>
        <time>2020-10-01T08:20:28.240Z</time>
      </trkpt>
      <trkpt lat="63.82278" lon="20.2475">
        <ele>38.669165</ele>
        <time>2020-10-01T08:20:32.257Z</time>
      </trkpt>
      <trkpt lat="63.8227" lon="20.24743">
        <ele>39.075212</ele>
        <time>2020-10-01T08:20:35.265Z</time>
      </trkpt>
      <trkpt lat="63.82259" lon="20.24737">
        <ele>39.564751</ele>
        <time>2020-10-01T08:20:39.249Z</time>
      </trkpt>
      <trkpt lat="63.8225" lon="20.24731">
        <ele>39.970171</ele>
        <time>2020-10-01T08:20:42.271Z</time>
      </trkpt>
      <trkpt lat="63.82242" lon="20.24721">
        <ele>40.413882</ele>
        <time>2020-10-01T08:20:45.267Z</time>
      </trkpt>
      <trkpt lat="63.82234" lon="20.24709">
        <ele>40.837831</ele>
        <time>2020-10-01T08:20:48.269Z</time>
      </trkpt>
      <trkpt lat="63.82224" lon="20.24697">
        <ele>41.330514</ele>
        <time>2020-10-01T08:20:52.274Z</time>
      </trkpt>
      <trkpt lat="63.82215" lon="20.24684">
        <ele>41.808996</ele>
        <time>2020-10-01T08:20:56.242Z</time>
      </trkpt>
      <trkpt lat="63.82207" lon="20.24671">
        <ele>42.24177</ele>
        <time>2020-10-01T08:20:59.278Z</time>
      </trkpt>
      <trkpt lat="63.822" lon="20.24656">
        <ele>42.677838</ele>
        <time>2020-10-01T08:21:02.281Z</time>
      </trkpt>
      <trkpt lat="63.82192" lon="20.24638">
        <ele>43.196776</ele>
        <time>2020-10-01T08:21:06.283Z</time>
      </trkpt>
      <trkpt lat="63.82185" lon="20.24621">
        <ele>43.353877</ele>
        <time>2020-10-01T08:21:09.260Z</time>
      </trkpt>
      <trkpt lat="63.82177" lon="20.24604">
        <ele>43.37135</ele>
        <time>2020-10-01T08:21:12.264Z</time>
      </trkpt>
      <trkpt lat="63.82169" lon="20.2459">
        <ele>43.388775</ele>
        <time>2020-10-01T08:21:15.262Z</time>
      </trkpt>
      <trkpt lat="63.82161" lon="20.24575">
        <ele>43.404712</ele>
        <time>2020-10-01T08:21:18.249Z</time>
      </trkpt>
      <trkpt lat="63.82155" lon="20.24561">
        <ele>43.419187</ele>
        <time>2020-10-01T08:21:21.245Z</time>
      </trkpt>
      <trkpt lat="63.82147" lon="20.24541">
        <ele>43.437705</ele>
        <time>2020-10-01T08:21:25.258Z</time>
      </trkpt>
      <trkpt lat="63.82144" lon="20.24522">
        <ele>43.452787</ele>
        <time>2020-10-01T08:21:29.255Z</time>
      </trkpt>
      <trkpt lat="63.82138" lon="20.24502">
        <ele>43.46957</ele>
        <time>2020-10-01T08:21:34.284Z</time>
      </trkpt>
      <trkpt lat="63.82129" lon="20.24506">
        <ele>43.484512</ele>
        <time>2020-10-01T08:21:37.262Z</time>
      </trkpt>
      <trkpt lat="63.8212" lon="20.24523">
        <ele>43.504007</ele>
        <time>2020-10-01T08:21:40.244Z</time>
      </trkpt>
      <trkpt lat="63.82114" lon="20.24543">
        <ele>43.520849</ele>
        <time>2020-10-01T08:21:43.260Z</time>
      </trkpt>
      <trkpt lat="63.82107" lon="20.24562">
        <ele>43.538096</ele>
        <time>2020-10-01T08:21:46.253Z</time>
      </trkpt>
      <trkpt lat="63.82101" lon="20.24584">
        <ele>43.556906</ele>
        <time>2020-10-01T08:21:49.265Z</time>
      </trkpt>
      <trkpt lat="63.82095" lon="20.24607">
        <ele>43.576458</ele>
        <time>2020-10-01T08:21:52.254Z</time>
      </trkpt>
      <trkpt lat="63.82088" lon="20.24629">
        <ele>43.595067</ele>
        <time>2020-10-01T08:21:55.294Z</time>
      </trkpt>
      <trkpt lat="63.82082" lon="20.24653">
        <ele>43.615189</ele>
        <time>2020-10-01T08:21:58.249Z</time>
      </trkpt>
      <trkpt lat="63.82076" lon="20.24677">
        <ele>43.634546</ele>
        <time>2020-10-01T08:22:01.288Z</time>
      </trkpt>
      <trkpt lat="63.82069" lon="20.24701">
        <ele>43.580016</ele>
        <time>2020-10-01T08:22:04.251Z</time>
      </trkpt>
      <trkpt lat="63.82063" lon="20.24722">
        <ele>43.529715</ele>
        <time>2020-10-01T08:22:07.238Z</time>
      </trkpt>
      <trkpt lat="63.82059" lon="20.24741">
        <ele>43.489392</ele>
        <time>2020-10-01T08:22:10.234Z</time>
      </trkpt>
      <trkpt lat="63.82054" lon="20.24759">
        <ele>43.447326</ele>
        <time>2020-10-01T08:22:13.236Z</time>
      </trkpt>
      <trkpt lat="63.82049" lon="20.24777">
        <ele>43.407034</ele>
        <time>2020-10-01T08:22:16.271Z</time>
      </trkpt>
      <trkpt lat="63.82042" lon="20.24797">
        <ele>43.358503</ele>
        <time>2020-10-01T08:22:20.247Z</time>
      </trkpt>
      <trkpt lat="63.82033" lon="20.24806">
        <ele>43.316292</ele>
        <time>2020-10-01T08:22:24.268Z</time>
      </trkpt>
      <trkpt lat="63.82042" lon="20.24797">
        <ele>43.275593</ele>
        <time>2020-10-01T08:22:34.245Z</time>
      </trkpt>
      <trkpt lat="63.82046" lon="20.24779">
        <ele>43.235211</ele>
        <time>2020-10-01T08:22:37.253Z</time>
      </trkpt>
      <trkpt lat="63.82053" lon="20.24756">
        <ele>43.183349</ele>
        <time>2020-10-01T08:22:41.226Z</time>
      </trkpt>
      <trkpt lat="63.82057" lon="20.24738">
        <ele>43.143293</ele>
        <time>2020-10-01T08:22:44.244Z</time>
      </trkpt>
      <trkpt lat="63.82063" lon="20.24719">
        <ele>43.09936</ele>
        <time>2020-10-01T08:22:47.228Z</time>
      </trkpt>
      <trkpt lat="63.82068" lon="20.24701">
        <ele>43.057618</ele>
        <time>2020-10-01T08:22:50.239Z</time>
      </trkpt>
      <trkpt lat="63.82074" lon="20.24684">
        <ele>43.015513</ele>
        <time>2020-10-01T08:22:54.262Z</time>
      </trkpt>
      <trkpt lat="63.82081" lon="20.24666">
        <ele>42.96754</ele>
        <time>2020-10-01T08:22:59.229Z</time>
      </trkpt>
      <trkpt lat="63.82087" lon="20.24647">
        <ele>42.922797</ele>
        <time>2020-10-01T08:23:02.245Z</time>
      </trkpt>
      <trkpt lat="63.82094" lon="20.24625">
        <ele>42.872496</ele>
        <time>2020-10-01T08:23:05.233Z</time>
      </trkpt>
      <trkpt lat="63.82101" lon="20.24604">
        <ele>42.83056</ele>
        <time>2020-10-01T08:23:08.237Z</time>
      </trkpt>
      <trkpt lat="63.82109" lon="20.2458">
        <ele>42.797133</ele>
        <time>2020-10-01T08:23:11.240Z</time>
      </trkpt>
      <trkpt lat="63.82116" lon="20.24556">
        <ele>42.763211</ele>
        <time>2020-10-01T08:23:14.269Z</time>
      </trkpt>
      <trkpt lat="63.82122" lon="20.24533">
        <ele>42.732148</ele>
        <time>2020-10-01T08:23:17.231Z</time>
      </trkpt>
      <trkpt lat="63.82123" lon="20.2451">
        <ele>42.704773</ele>
        <time>2020-10-01T08:23:20.225Z</time>
      </trkpt>
      <trkpt lat="63.82114" lon="20.24488">
        <ele>42.670615</ele>
        <time>2020-10-01T08:23:23.268Z</time>
      </trkpt>
      <trkpt lat="63.82105" lon="20.24469">
        <ele>42.637676</ele>
        <time>2020-10-01T08:23:26.241Z</time>
      </trkpt>
      <trkpt lat="63.82097" lon="20.2445">
        <ele>42.607187</ele>
        <time>2020-10-01T08:23:29.237Z</time>
      </trkpt>
      <trkpt lat="63.82088" lon="20.24433">
        <ele>42.578113</ele>
        <time>2020-10-01T08:23:32.236Z</time>
      </trkpt>
      <trkpt lat="63.8208" lon="20.24416">
        <ele>42.548279</ele>
        <time>2020-10-01T08:23:35.239Z</time>
      </trkpt>
      <trkpt lat="63.82071" lon="20.24399">
        <ele>42.518539</ele>
        <time>2020-10-01T08:23:38.226Z</time>
      </trkpt>
      <trkpt lat="63.82064" lon="20.24378">
        <ele>42.487726</ele>
        <time>2020-10-01T08:23:41.232Z</time>
      </trkpt>
      <trkpt lat="63.82057" lon="20.24352">
        <ele>42.45352</ele>
        <time>2020-10-01T08:23:44.245Z</time>
      </trkpt>
      <trkpt lat="63.82052" lon="20.24326">
        <ele>42.42006</ele>
        <time>2020-10-01T08:23:47.228Z</time>
      </trkpt>
      <trkpt lat="63.82046" lon="20.24301">
        <ele>42.38746</ele>
        <time>2020-10-01T08:23:50.241Z</time>
      </trkpt>
      <trkpt lat="63.8204" lon="20.24274">
        <ele>42.464901</ele>
        <time>2020-10-01T08:23:53.234Z</time>
      </trkpt>
      <trkpt lat="63.82033" lon="20.24249">
        <ele>42.588638</ele>
        <time>2020-10-01T08:23:56.267Z</time>
      </trkpt>
      <trkpt lat="63.82027" lon="20.24221">
        <ele>42.716459</ele>
        <time>2020-10-01T08:23:59.257Z</time>
      </trkpt>
      <trkpt lat="63.82021" lon="20.24194">
        <ele>42.841904</ele>
        <time>2020-10-01T08:24:02.241Z</time>
      </trkpt>
      <trkpt lat="63.82017" lon="20.24176">
        <ele>42.927708</ele>
        <time>2020-10-01T08:24:04.229Z</time>
      </trkpt>
      <trkpt lat="63.82013" lon="20.24157">
        <ele>43.01505</ele>
        <time>2020-10-01T08:24:06.245Z</time>
      </trkpt>
      <trkpt lat="63.82009" lon="20.24138">
        <ele>43.103683</ele>
        <time>2020-10-01T08:24:08.265Z</time>
      </trkpt>
      <trkpt lat="63.82004" lon="20.24119">
        <ele>43.193732</ele>
        <time>2020-10-01T08:24:10.239Z</time>
      </trkpt>
      <trkpt lat="63.81998" lon="20.24093">
        <ele>43.314392</ele>
        <time>2020-10-01T08:24:13.236Z</time>
      </trkpt>
      <trkpt lat="63.81993" lon="20.24068">
        <ele>43.430117</ele>
        <time>2020-10-01T08:24:16.279Z</time>
      </trkpt>
      <trkpt lat="63.81988" lon="20.24046">
        <ele>43.535306</ele>
        <time>2020-10-01T08:24:19.238Z</time>
      </trkpt>
      <trkpt lat="63.81983" lon="20.24022">
        <ele>43.643184</ele>
        <time>2020-10-01T08:24:22.237Z</time>
      </trkpt>
      <trkpt lat="63.81977" lon="20.23998">
        <ele>43.758251</ele>
        <time>2020-10-01T08:24:25.268Z</time>
      </trkpt>
      <trkpt lat="63.8197" lon="20.23972">
        <ele>43.884342</ele>
        <time>2020-10-01T08:24:28.238Z</time>
      </trkpt>
      <trkpt lat="63.81964" lon="20.23946">
        <ele>44.006055</ele>
        <time>2020-10-01T08:24:31.228Z</time>
      </trkpt>
      <trkpt lat="63.81959" lon="20.23918">
        <ele>44.293948</ele>
        <time>2020-10-01T08:24:34.235Z</time>
      </trkpt>
      <trkpt lat="63.81954" lon="20.23892">
        <ele>44.756379</ele>
        <time>2020-10-01T08:24:37.258Z</time>
      </trkpt>
      <trkpt lat="63.8195" lon="20.23868">
        <ele>45.172151</ele>
        <time>2020-10-01T08:24:40.232Z</time>
      </trkpt>
      <trkpt lat="63.81946" lon="20.23848">
        <ele>45.520411</ele>
        <time>2020-10-01T08:24:43.260Z</time>
      </trkpt>
      <trkpt lat="63.81942" lon="20.23826">
        <ele>45.890839</ele>
        <time>2020-10-01T08:24:46.247Z</time>
      </trkpt>
      <trkpt lat="63.81938" lon="20.23806">
        <ele>46.249706</ele>
        <time>2020-10-01T08:24:49.226Z</time>
      </trkpt>
      <trkpt lat="63.81933" lon="20.23785">
        <ele>46.631694</ele>
        <time>2020-10-01T08:24:52.249Z</time>
      </trkpt>
      <trkpt lat="63.81927" lon="20.23764">
        <ele>47.032018</ele>
        <time>2020-10-01T08:24:55.233Z</time>
      </trkpt>
      <trkpt lat="63.8192" lon="20.23741">
        <ele>47.472176</ele>
        <time>2020-10-01T08:24:58.243Z</time>
      </trkpt>
      <trkpt lat="63.81913" lon="20.23718">
        <ele>47.913056</ele>
        <time>2020-10-01T08:25:01.257Z</time>
      </trkpt>
      <trkpt lat="63.81905" lon="20.23696">
        <ele>48.369028</ele>
        <time>2020-10-01T08:25:04.238Z</time>
      </trkpt>
      <trkpt lat="63.81897" lon="20.23673">
        <ele>48.849477</ele>
        <time>2020-10-01T08:25:07.258Z</time>
      </trkpt>
      <trkpt lat="63.81891" lon="20.23657">
        <ele>49.192474</ele>
        <time>2020-10-01T08:25:09.252Z</time>
      </trkpt>
      <trkpt lat="63.81884" lon="20.23643">
        <ele>49.524419</ele>
        <time>2020-10-01T08:25:11.236Z</time>
      </trkpt>
      <trkpt lat="63.81874" lon="20.23625">
        <ele>49.979883</ele>
        <time>2020-10-01T08:25:14.254Z</time>
      </trkpt>
      <trkpt lat="63.81868" lon="20.23609">
        <ele>50.308478</ele>
        <time>2020-10-01T08:25:16.250Z</time>
      </trkpt>
      <trkpt lat="63.81863" lon="20.23591">
        <ele>50.579862</ele>
        <time>2020-10-01T08:25:18.243Z</time>
      </trkpt>
      <trkpt lat="63.81856" lon="20.23573">
        <ele>50.505448</ele>
        <time>2020-10-01T08:25:20.245Z</time>
      </trkpt>
      <trkpt lat="63.81848" lon="20.2355">
        <ele>50.408488</ele>
        <time>2020-10-01T08:25:23.288Z</time>
      </trkpt>
      <trkpt lat="63.81839" lon="20.2353">
        <ele>50.316063</ele>
        <time>2020-10-01T08:25:26.265Z</time>
      </trkpt>
      <trkpt lat="63.81831" lon="20.23509">
        <ele>50.225213</ele>
        <time>2020-10-01T08:25:29.277Z</time>
      </trkpt>
      <trkpt lat="63.81822" lon="20.23487">
        <ele>50.130241</ele>
        <time>2020-10-01T08:25:32.255Z</time>
      </trkpt>
      <trkpt lat="63.81817" lon="20.23469">
        <ele>50.057144</ele>
        <time>2020-10-01T08:25:34.237Z</time>
      </trkpt>
      <trkpt lat="63.8181" lon="20.23454">
        <ele>49.98574</ele>
        <time>2020-10-01T08:25:36.263Z</time>
      </trkpt>
      <trkpt lat="63.81799" lon="20.23437">
        <ele>49.889871</ele>
        <time>2020-10-01T08:25:39.265Z</time>
      </trkpt>
      <trkpt lat="63.81791" lon="20.23416">
        <ele>49.798079</ele>
        <time>2020-10-01T08:25:42.229Z</time>
      </trkpt>
      <trkpt lat="63.81785" lon="20.234">
        <ele>49.730301</ele>
        <time>2020-10-01T08:25:44.228Z</time>
      </trkpt>
      <trkpt lat="63.81777" lon="20.23377">
        <ele>49.634529</ele>
        <time>2020-10-01T08:25:47.261Z</time>
      </trkpt>
      <trkpt lat="63.81768" lon="20.23357">
        <ele>49.544861</ele>
        <time>2020-10-01T08:25:50.261Z</time>
      </trkpt>
      <trkpt lat="63.8176" lon="20.23334">
        <ele>49.447865</ele>
        <time>2020-10-01T08:25:53.232Z</time>
      </trkpt>
      <trkpt lat="63.81755" lon="20.23316">
        <ele>49.37917</ele>
        <time>2020-10-01T08:25:55.247Z</time>
      </trkpt>
      <trkpt lat="63.8175" lon="20.23297">
        <ele>49.306105</ele>
        <time>2020-10-01T08:25:57.250Z</time>
      </trkpt>
      <trkpt lat="63.81746" lon="20.23277">
        <ele>49.108216</ele>
        <time>2020-10-01T08:25:59.265Z</time>
      </trkpt>
      <trkpt lat="63.81743" lon="20.23256">
        <ele>48.745206</ele>
        <time>2020-10-01T08:26:01.260Z</time>
      </trkpt>
      <trkpt lat="63.8174" lon="20.23236">
        <ele>48.40192</ele>
        <time>2020-10-01T08:26:03.291Z</time>
      </trkpt>
      <trkpt lat="63.81735" lon="20.23216">
        <ele>48.052975</ele>
        <time>2020-10-01T08:26:05.230Z</time>
      </trkpt>
      <trkpt lat="63.81732" lon="20.23195">
        <ele>47.687671</ele>
        <time>2020-10-01T08:26:07.229Z</time>
      </trkpt>
      <trkpt lat="63.81729" lon="20.23173">
        <ele>47.304799</ele>
        <time>2020-10-01T08:26:09.234Z</time>
      </trkpt>
      <trkpt lat="63.81725" lon="20.2315">
        <ele>46.918001</ele>
        <time>2020-10-01T08:26:11.257Z</time>
      </trkpt>
      <trkpt lat="63.81723" lon="20.23126">
        <ele>46.515805</ele>
        <time>2020-10-01T08:26:13.293Z</time>
      </trkpt>
      <trkpt lat="63.8172" lon="20.23102">
        <ele>46.12787</ele>
        <time>2020-10-01T08:26:15.238Z</time>
      </trkpt>
      <trkpt lat="63.81717" lon="20.23077">
        <ele>45.71063</ele>
        <time>2020-10-01T08:26:17.233Z</time>
      </trkpt>
      <trkpt lat="63.81714" lon="20.23049">
        <ele>45.238647</ele>
        <time>2020-10-01T08:26:19.233Z</time>
      </trkpt>
      <trkpt lat="63.8171" lon="20.23019">
        <ele>44.737815</ele>
        <time>2020-10-01T08:26:21.250Z</time>
      </trkpt>
      <trkpt lat="63.81707" lon="20.22988">
        <ele>44.226101</ele>
        <time>2020-10-01T08:26:23.245Z</time>
      </trkpt>
      <trkpt lat="63.81704" lon="20.22957">
        <ele>43.711848</ele>
        <time>2020-10-01T08:26:25.238Z</time>
      </trkpt>
      <trkpt lat="63.817" lon="20.22926">
        <ele>43.189757</ele>
        <time>2020-10-01T08:26:27.306Z</time>
      </trkpt>
      <trkpt lat="63.81695" lon="20.22893">
        <ele>42.613574</ele>
        <time>2020-10-01T08:26:29.244Z</time>
      </trkpt>
      <trkpt lat="63.81691" lon="20.22859">
        <ele>42.017479</ele>
        <time>2020-10-01T08:26:31.226Z</time>
      </trkpt>
      <trkpt lat="63.81687" lon="20.22826">
        <ele>41.457738</ele>
        <time>2020-10-01T08:26:33.285Z</time>
      </trkpt>
      <trkpt lat="63.81685" lon="20.22796">
        <ele>40.934904</ele>
        <time>2020-10-01T08:26:35.265Z</time>
      </trkpt>
      <trkpt lat="63.81683" lon="20.22765">
        <ele>40.415337</ele>
        <time>2020-10-01T08:26:37.240Z</time>
      </trkpt>
      <trkpt lat="63.81681" lon="20.22735">
        <ele>39.908146</ele>
        <time>2020-10-01T08:26:39.260Z</time>
      </trkpt>
      <trkpt lat="63.81679" lon="20.22707">
        <ele>39.434774</ele>
        <time>2020-10-01T08:26:41.241Z</time>
      </trkpt>
      <trkpt lat="63.81678" lon="20.22679">
        <ele>38.965984</ele>
        <time>2020-10-01T08:26:43.264Z</time>
      </trkpt>
      <trkpt lat="63.81677" lon="20.22653">
        <ele>38.510919</ele>
        <time>2020-10-01T08:26:45.245Z</time>
      </trkpt>
      <trkpt lat="63.81674" lon="20.22628">
        <ele>38.08718</ele>
        <time>2020-10-01T08:26:47.262Z</time>
      </trkpt>
      <trkpt lat="63.81671" lon="20.22605">
        <ele>37.689057</ele>
        <time>2020-10-01T08:26:49.260Z</time>
      </trkpt>
      <trkpt lat="63.81669" lon="20.22581">
        <ele>37.273445</ele>
        <time>2020-10-01T08:26:51.250Z</time>
      </trkpt>
      <trkpt lat="63.81667" lon="20.22557">
        <ele>36.862628</ele>
        <time>2020-10-01T08:26:53.234Z</time>
      </trkpt>
      <trkpt lat="63.81665" lon="20.22535">
        <ele>36.480172</ele>
        <time>2020-10-01T08:26:55.225Z</time>
      </trkpt>
      <trkpt lat="63.81663" lon="20.22513">
        <ele>36.106713</ele>
        <time>2020-10-01T08:26:57.294Z</time>
      </trkpt>
      <trkpt lat="63.8166" lon="20.22491">
        <ele>35.782546</ele>
        <time>2020-10-01T08:26:59.250Z</time>
      </trkpt>
      <trkpt lat="63.81657" lon="20.22469">
        <ele>35.60383</ele>
        <time>2020-10-01T08:27:01.273Z</time>
      </trkpt>
      <trkpt lat="63.81654" lon="20.22447">
        <ele>35.424663</ele>
        <time>2020-10-01T08:27:03.231Z</time>
      </trkpt>
      <trkpt lat="63.8165" lon="20.22425">
        <ele>35.237804</ele>
        <time>2020-10-01T08:27:05.254Z</time>
      </trkpt>
      <trkpt lat="63.81645" lon="20.22403">
        <ele>35.051187</ele>
        <time>2020-10-01T08:27:07.234Z</time>
      </trkpt>
      <trkpt lat="63.8164" lon="20.22381">
        <ele>34.864334</ele>
        <time>2020-10-01T08:27:09.226Z</time>
      </trkpt>
      <trkpt lat="63.81637" lon="20.2236">
        <ele>34.690709</ele>
        <time>2020-10-01T08:27:11.245Z</time>
      </trkpt>
      <trkpt lat="63.81633" lon="20.22339">
        <ele>34.510202</ele>
        <time>2020-10-01T08:27:13.237Z</time>
      </trkpt>
      <trkpt lat="63.81629" lon="20.22318">
        <ele>34.333218</ele>
        <time>2020-10-01T08:27:15.241Z</time>
      </trkpt>
      <trkpt lat="63.81625" lon="20.22296">
        <ele>34.154107</ele>
        <time>2020-10-01T08:27:17.246Z</time>
      </trkpt>
      <trkpt lat="63.8162" lon="20.22276">
        <ele>33.97848</ele>
        <time>2020-10-01T08:27:19.244Z</time>
      </trkpt>
      <trkpt lat="63.81616" lon="20.22258">
        <ele>33.821557</ele>
        <time>2020-10-01T08:27:21.227Z</time>
      </trkpt>
      <trkpt lat="63.81612" lon="20.22238">
        <ele>33.651516</ele>
        <time>2020-10-01T08:27:23.258Z</time>
      </trkpt>
      <trkpt lat="63.81609" lon="20.22216">
        <ele>33.47971</ele>
        <time>2020-10-01T08:27:25.256Z</time>
      </trkpt>
      <trkpt lat="63.81606" lon="20.22195">
        <ele>33.308149</ele>
        <time>2020-10-01T08:27:27.258Z</time>
      </trkpt>
      <trkpt lat="63.81603" lon="20.22175">
        <ele>33.141868</ele>
        <time>2020-10-01T08:27:29.266Z</time>
      </trkpt>
      <trkpt lat="63.81599" lon="20.22153">
        <ele>32.963201</ele>
        <time>2020-10-01T08:27:31.252Z</time>
      </trkpt>
      <trkpt lat="63.81595" lon="20.22132">
        <ele>32.781279</ele>
        <time>2020-10-01T08:27:33.249Z</time>
      </trkpt>
      <trkpt lat="63.8159" lon="20.22114">
        <ele>32.78567</ele>
        <time>2020-10-01T08:27:35.280Z</time>
      </trkpt>
      <trkpt lat="63.81584" lon="20.22097">
        <ele>32.983827</ele>
        <time>2020-10-01T08:27:37.250Z</time>
      </trkpt>
      <trkpt lat="63.81577" lon="20.22081">
        <ele>33.184594</ele>
        <time>2020-10-01T08:27:39.262Z</time>
      </trkpt>
      <trkpt lat="63.81571" lon="20.22064">
        <ele>33.382752</ele>
        <time>2020-10-01T08:27:41.237Z</time>
      </trkpt>
      <trkpt lat="63.81566" lon="20.22048">
        <ele>33.572082</ele>
        <time>2020-10-01T08:27:43.241Z</time>
      </trkpt>
      <trkpt lat="63.81557" lon="20.22025">
        <ele>33.857534</ele>
        <time>2020-10-01T08:27:46.266Z</time>
      </trkpt>
      <trkpt lat="63.81547" lon="20.22007">
        <ele>34.122059</ele>
        <time>2020-10-01T08:27:49.255Z</time>
      </trkpt>
      <trkpt lat="63.81538" lon="20.21985">
        <ele>34.409478</ele>
        <time>2020-10-01T08:27:52.254Z</time>
      </trkpt>
      <trkpt lat="63.81532" lon="20.21968">
        <ele>34.605243</ele>
        <time>2020-10-01T08:27:54.264Z</time>
      </trkpt>
      <trkpt lat="63.81526" lon="20.21951">
        <ele>34.803556</ele>
        <time>2020-10-01T08:27:56.319Z</time>
      </trkpt>
      <trkpt lat="63.8152" lon="20.21933">
        <ele>35.016857</ele>
        <time>2020-10-01T08:27:58.240Z</time>
      </trkpt>
      <trkpt lat="63.81513" lon="20.21915">
        <ele>35.238415</ele>
        <time>2020-10-01T08:28:00.234Z</time>
      </trkpt>
      <trkpt lat="63.81506" lon="20.21896">
        <ele>35.462259</ele>
        <time>2020-10-01T08:28:02.234Z</time>
      </trkpt>
      <trkpt lat="63.81499" lon="20.21878">
        <ele>35.686634</ele>
        <time>2020-10-01T08:28:04.235Z</time>
      </trkpt>
      <trkpt lat="63.81492" lon="20.2186">
        <ele>35.906798</ele>
        <time>2020-10-01T08:28:06.233Z</time>
      </trkpt>
      <trkpt lat="63.81486" lon="20.21843">
        <ele>36.115844</ele>
        <time>2020-10-01T08:28:08.242Z</time>
      </trkpt>
      <trkpt lat="63.81479" lon="20.21824">
        <ele>36.333493</ele>
        <time>2020-10-01T08:28:10.245Z</time>
      </trkpt>
      <trkpt lat="63.81473" lon="20.21806">
        <ele>36.488903</ele>
        <time>2020-10-01T08:28:12.237Z</time>
      </trkpt>
      <trkpt lat="63.81467" lon="20.21789">
        <ele>36.545299</ele>
        <time>2020-10-01T08:28:14.284Z</time>
      </trkpt>
      <trkpt lat="63.8146" lon="20.21771">
        <ele>36.604534</ele>
        <time>2020-10-01T08:28:16.255Z</time>
      </trkpt>
      <trkpt lat="63.81454" lon="20.21752">
        <ele>36.663609</ele>
        <time>2020-10-01T08:28:18.293Z</time>
      </trkpt>
      <trkpt lat="63.81447" lon="20.21734">
        <ele>36.723039</ele>
        <time>2020-10-01T08:28:20.240Z</time>
      </trkpt>
      <trkpt lat="63.81441" lon="20.21717">
        <ele>36.776798</ele>
        <time>2020-10-01T08:28:22.244Z</time>
      </trkpt>
      <trkpt lat="63.81434" lon="20.217">
        <ele>36.833552</ele>
        <time>2020-10-01T08:28:24.227Z</time>
      </trkpt>
      <trkpt lat="63.81428" lon="20.21684">
        <ele>36.887682</ele>
        <time>2020-10-01T08:28:26.245Z</time>
      </trkpt>
      <trkpt lat="63.81419" lon="20.21661">
        <ele>36.96395</ele>
        <time>2020-10-01T08:28:29.258Z</time>
      </trkpt>
      <trkpt lat="63.81413" lon="20.21643">
        <ele>37.02119</ele>
        <time>2020-10-01T08:28:31.247Z</time>
      </trkpt>
      <trkpt lat="63.81407" lon="20.21624">
        <ele>37.079915</ele>
        <time>2020-10-01T08:28:33.240Z</time>
      </trkpt>
      <trkpt lat="63.81401" lon="20.21607">
        <ele>37.134536</ele>
        <time>2020-10-01T08:28:35.232Z</time>
      </trkpt>
      <trkpt lat="63.81395" lon="20.2159">
        <ele>37.186845</ele>
        <time>2020-10-01T08:28:37.244Z</time>
      </trkpt>
      <trkpt lat="63.81389" lon="20.21574">
        <ele>37.242112</ele>
        <time>2020-10-01T08:28:39.236Z</time>
      </trkpt>
      <trkpt lat="63.81383" lon="20.21558">
        <ele>37.293996</ele>
        <time>2020-10-01T08:28:41.258Z</time>
      </trkpt>
      <trkpt lat="63.81375" lon="20.21536">
        <ele>37.364536</ele>
        <time>2020-10-01T08:28:44.289Z</time>
      </trkpt>
      <trkpt lat="63.81367" lon="20.21513">
        <ele>37.437894</ele>
        <time>2020-10-01T08:28:47.248Z</time>
      </trkpt>
      <trkpt lat="63.81361" lon="20.21497">
        <ele>37.466638</ele>
        <time>2020-10-01T08:28:49.246Z</time>
      </trkpt>
      <trkpt lat="63.81355" lon="20.21479">
        <ele>37.232852</ele>
        <time>2020-10-01T08:28:51.236Z</time>
      </trkpt>
      <trkpt lat="63.81348" lon="20.21462">
        <ele>36.988115</ele>
        <time>2020-10-01T08:28:53.236Z</time>
      </trkpt>
      <trkpt lat="63.81341" lon="20.21444">
        <ele>36.733085</ele>
        <time>2020-10-01T08:28:55.268Z</time>
      </trkpt>
      <trkpt lat="63.81334" lon="20.21426">
        <ele>36.489909</ele>
        <time>2020-10-01T08:28:57.277Z</time>
      </trkpt>
      <trkpt lat="63.81328" lon="20.2141">
        <ele>36.258624</ele>
        <time>2020-10-01T08:28:59.229Z</time>
      </trkpt>
      <trkpt lat="63.81321" lon="20.21393">
        <ele>36.01785</ele>
        <time>2020-10-01T08:29:01.266Z</time>
      </trkpt>
      <trkpt lat="63.81314" lon="20.21375">
        <ele>35.763338</ele>
        <time>2020-10-01T08:29:03.239Z</time>
      </trkpt>
      <trkpt lat="63.81307" lon="20.21357">
        <ele>35.504348</ele>
        <time>2020-10-01T08:29:05.247Z</time>
      </trkpt>
      <trkpt lat="63.813" lon="20.21338">
        <ele>35.23973</ele>
        <time>2020-10-01T08:29:07.244Z</time>
      </trkpt>
      <trkpt lat="63.81293" lon="20.21321">
        <ele>35.000516</ele>
        <time>2020-10-01T08:29:09.260Z</time>
      </trkpt>
      <trkpt lat="63.81287" lon="20.21304">
        <ele>34.773133</ele>
        <time>2020-10-01T08:29:11.252Z</time>
      </trkpt>
      <trkpt lat="63.8128" lon="20.2128">
        <ele>34.470113</ele>
        <time>2020-10-01T08:29:14.256Z</time>
      </trkpt>
      <trkpt lat="63.81276" lon="20.21252">
        <ele>34.158313</ele>
        <time>2020-10-01T08:29:17.290Z</time>
      </trkpt>
      <trkpt lat="63.81274" lon="20.21232">
        <ele>33.94211</ele>
        <time>2020-10-01T08:29:19.276Z</time>
      </trkpt>
      <trkpt lat="63.8127" lon="20.21213">
        <ele>33.718654</ele>
        <time>2020-10-01T08:29:21.245Z</time>
      </trkpt>
      <trkpt lat="63.81266" lon="20.21184">
        <ele>33.398894</ele>
        <time>2020-10-01T08:29:24.252Z</time>
      </trkpt>
      <trkpt lat="63.81261" lon="20.21156">
        <ele>33.165011</ele>
        <time>2020-10-01T08:29:27.264Z</time>
      </trkpt>
      <trkpt lat="63.81256" lon="20.2113">
        <ele>33.117528</ele>
        <time>2020-10-01T08:29:30.242Z</time>
      </trkpt>
      <trkpt lat="63.8125" lon="20.21104">
        <ele>33.068499</ele>
        <time>2020-10-01T08:29:33.244Z</time>
      </trkpt>
      <trkpt lat="63.81244" lon="20.21077">
        <ele>33.017367</ele>
        <time>2020-10-01T08:29:36.249Z</time>
      </trkpt>
      <trkpt lat="63.81239" lon="20.21059">
        <ele>32.982476</ele>
        <time>2020-10-01T08:29:38.240Z</time>
      </trkpt>
      <trkpt lat="63.81233" lon="20.21033">
        <ele>32.932703</ele>
        <time>2020-10-01T08:29:41.261Z</time>
      </trkpt>
      <trkpt lat="63.81227" lon="20.21008">
        <ele>32.883979</ele>
        <time>2020-10-01T08:29:44.249Z</time>
      </trkpt>
      <trkpt lat="63.81219" lon="20.20986">
        <ele>32.838391</ele>
        <time>2020-10-01T08:29:47.257Z</time>
      </trkpt>
      <trkpt lat="63.81211" lon="20.20966">
        <ele>32.792685</ele>
        <time>2020-10-01T08:29:50.256Z</time>
      </trkpt>
      <trkpt lat="63.81202" lon="20.20947">
        <ele>32.745741</ele>
        <time>2020-10-01T08:29:53.275Z</time>
      </trkpt>
      <trkpt lat="63.81192" lon="20.20932">
        <ele>32.70102</ele>
        <time>2020-10-01T08:29:56.244Z</time>
      </trkpt>
      <trkpt lat="63.81182" lon="20.2092">
        <ele>32.655763</ele>
        <time>2020-10-01T08:29:59.262Z</time>
      </trkpt>
      <trkpt lat="63.81172" lon="20.20909">
        <ele>32.613808</ele>
        <time>2020-10-01T08:30:02.250Z</time>
      </trkpt>
      <trkpt lat="63.81162" lon="20.20899">
        <ele>32.573379</ele>
        <time>2020-10-01T08:30:05.262Z</time>
      </trkpt>
      <trkpt lat="63.81152" lon="20.20882">
        <ele>32.526153</ele>
        <time>2020-10-01T08:30:08.258Z</time>
      </trkpt>
      <trkpt lat="63.81141" lon="20.20875">
        <ele>32.489201</ele>
        <time>2020-10-01T08:30:11.246Z</time>
      </trkpt>
      <trkpt lat="63.81128" lon="20.20865">
        <ele>32.460592</ele>
        <time>2020-10-01T08:30:14.243Z</time>
      </trkpt>
      <trkpt lat="63.81122" lon="20.20849">
        <ele>32.440208</ele>
        <time>2020-10-01T08:30:16.260Z</time>
      </trkpt>
      <trkpt lat="63.81118" lon="20.2083">
        <ele>32.420063</ele>
        <time>2020-10-01T08:30:18.237Z</time>
      </trkpt>
      <trkpt lat="63.81112" lon="20.20809">
        <ele>32.396936</ele>
        <time>2020-10-01T08:30:21.247Z</time>
      </trkpt>
      <trkpt lat="63.81107" lon="20.20792">
        <ele>32.376651</ele>
        <time>2020-10-01T08:30:24.288Z</time>
      </trkpt>
      <trkpt lat="63.81101" lon="20.20769">
        <ele>32.351561</ele>
        <time>2020-10-01T08:30:27.259Z</time>
      </trkpt>
      <trkpt lat="63.81096" lon="20.20751">
        <ele>32.332383</ele>
        <time>2020-10-01T08:30:29.256Z</time>
      </trkpt>
      <trkpt lat="63.81089" lon="20.20726">
        <ele>32.304193</ele>
        <time>2020-10-01T08:30:32.264Z</time>
      </trkpt>
      <trkpt lat="63.81083" lon="20.20701">
        <ele>32.277287</ele>
        <time>2020-10-01T08:30:35.244Z</time>
      </trkpt>
      <trkpt lat="63.81077" lon="20.20677">
        <ele>32.251095</ele>
        <time>2020-10-01T08:30:38.239Z</time>
      </trkpt>
      <trkpt lat="63.81073" lon="20.20658">
        <ele>32.231731</ele>
        <time>2020-10-01T08:30:40.262Z</time>
      </trkpt>
      <trkpt lat="63.81068" lon="20.20632">
        <ele>32.20487</ele>
        <time>2020-10-01T08:30:43.247Z</time>
      </trkpt>
      <trkpt lat="63.81064" lon="20.20606">
        <ele>32.178716</ele>
        <time>2020-10-01T08:30:46.254Z</time>
      </trkpt>
      <trkpt lat="63.81061" lon="20.20581">
        <ele>32.1539</ele>
        <time>2020-10-01T08:30:49.247Z</time>
      </trkpt>
      <trkpt lat="63.81058" lon="20.20555">
        <ele>32.129421</ele>
        <time>2020-10-01T08:30:52.255Z</time>
      </trkpt>
      <trkpt lat="63.81057" lon="20.20533">
        <ele>32.225825</ele>
        <time>2020-10-01T08:30:55.236Z</time>
      </trkpt>
      <trkpt lat="63.81055" lon="20.20512">
        <ele>32.622473</ele>
        <time>2020-10-01T08:30:58.237Z</time>
      </trkpt>
      <trkpt lat="63.8105" lon="20.20494">
        <ele>33.011413</ele>
        <time>2020-10-01T08:31:01.243Z</time>
      </trkpt>
      <trkpt lat="63.81041" lon="20.20486">
        <ele>33.414724</ele>
        <time>2020-10-01T08:31:04.242Z</time>
      </trkpt>
      <trkpt lat="63.81031" lon="20.20492">
        <ele>33.852023</ele>
        <time>2020-10-01T08:31:07.290Z</time>
      </trkpt>
      <trkpt lat="63.81021" lon="20.20497">
        <ele>34.254009</ele>
        <time>2020-10-01T08:31:10.266Z</time>
      </trkpt>
      <trkpt lat="63.81012" lon="20.20499">
        <ele>34.641431</ele>
        <time>2020-10-01T08:31:13.257Z</time>
      </trkpt>
      <trkpt lat="63.81002" lon="20.205">
        <ele>35.052014</ele>
        <time>2020-10-01T08:31:16.286Z</time>
      </trkpt>
      <trkpt lat="63.80992" lon="20.205">
        <ele>35.458269</ele>
        <time>2020-10-01T08:31:19.264Z</time>
      </trkpt>
      <trkpt lat="63.8098" lon="20.20494">
        <ele>35.976962</ele>
        <time>2020-10-01T08:31:23.249Z</time>
      </trkpt>
      <trkpt lat="63.8097" lon="20.20482">
        <ele>36.445529</ele>
        <time>2020-10-01T08:31:26.237Z</time>
      </trkpt>
      <trkpt lat="63.80961" lon="20.20467">
        <ele>36.904226</ele>
        <time>2020-10-01T08:31:29.237Z</time>
      </trkpt>
      <trkpt lat="63.80953" lon="20.20455">
        <ele>37.313351</ele>
        <time>2020-10-01T08:31:32.237Z</time>
      </trkpt>
      <trkpt lat="63.80945" lon="20.20442">
        <ele>37.710447</ele>
        <time>2020-10-01T08:31:35.231Z</time>
      </trkpt>
      <trkpt lat="63.80936" lon="20.20428">
        <ele>38.146238</ele>
        <time>2020-10-01T08:31:38.247Z</time>
      </trkpt>
      <trkpt lat="63.80929" lon="20.20414">
        <ele>38.561989</ele>
        <time>2020-10-01T08:31:41.238Z</time>
      </trkpt>
      <trkpt lat="63.8092" lon="20.20401">
        <ele>38.985413</ele>
        <time>2020-10-01T08:31:44.244Z</time>
      </trkpt>
      <trkpt lat="63.80912" lon="20.20386">
        <ele>39.429785</ele>
        <time>2020-10-01T08:31:47.268Z</time>
      </trkpt>
      <trkpt lat="63.80903" lon="20.20373">
        <ele>39.853635</ele>
        <time>2020-10-01T08:31:50.250Z</time>
      </trkpt>
      <trkpt lat="63.80896" lon="20.20361">
        <ele>40.237862</ele>
        <time>2020-10-01T08:31:53.257Z</time>
      </trkpt>
      <trkpt lat="63.80887" lon="20.2035">
        <ele>40.636941</ele>
        <time>2020-10-01T08:31:57.255Z</time>
      </trkpt>
      <trkpt lat="63.80879" lon="20.20339">
        <ele>41.036021</ele>
        <time>2020-10-01T08:32:01.321Z</time>
      </trkpt>
      <trkpt lat="63.80871" lon="20.20324">
        <ele>41.437708</ele>
        <time>2020-10-01T08:32:05.243Z</time>
      </trkpt>
      <trkpt lat="63.80864" lon="20.20311">
        <ele>41.820729</ele>
        <time>2020-10-01T08:32:09.233Z</time>
      </trkpt>
      <trkpt lat="63.80855" lon="20.20293">
        <ele>42.298496</ele>
        <time>2020-10-01T08:32:13.275Z</time>
      </trkpt>
      <trkpt lat="63.80848" lon="20.20279">
        <ele>42.682674</ele>
        <time>2020-10-01T08:32:17.250Z</time>
      </trkpt>
      <trkpt lat="63.80839" lon="20.20268">
        <ele>43.106684</ele>
        <time>2020-10-01T08:32:21.246Z</time>
      </trkpt>
      <trkpt lat="63.80829" lon="20.20257">
        <ele>43.536518</ele>
        <time>2020-10-01T08:32:25.268Z</time>
      </trkpt>
      <trkpt lat="63.8082" lon="20.20248">
        <ele>43.955625</ele>
        <time>2020-10-01T08:32:29.242Z</time>
      </trkpt>
      <trkpt lat="63.80811" lon="20.20239">
        <ele>44.346409</ele>
        <time>2020-10-01T08:32:33.248Z</time>
      </trkpt>
      <trkpt lat="63.80803" lon="20.20225">
        <ele>44.763784</ele>
        <time>2020-10-01T08:32:37.261Z</time>
      </trkpt>
      <trkpt lat="63.80795" lon="20.20213">
        <ele>45.178379</ele>
        <time>2020-10-01T08:32:41.257Z</time>
      </trkpt>
      <trkpt lat="63.80787" lon="20.20198">
        <ele>45.597234</ele>
        <time>2020-10-01T08:32:45.300Z</time>
      </trkpt>
      <trkpt lat="63.80778" lon="20.20184">
        <ele>46.035257</ele>
        <time>2020-10-01T08:32:49.262Z</time>
      </trkpt>
      <trkpt lat="63.80769" lon="20.20173">
        <ele>46.469554</ele>
        <time>2020-10-01T08:32:53.266Z</time>
      </trkpt>
      <trkpt lat="63.80758" lon="20.20163">
        <ele>46.91941</ele>
        <time>2020-10-01T08:32:57.250Z</time>
      </trkpt>
      <trkpt lat="63.80748" lon="20.20148">
        <ele>46.944178</ele>
        <time>2020-10-01T08:33:01.272Z</time>
      </trkpt>
      <trkpt lat="63.80737" lon="20.20137">
        <ele>46.967496</ele>
        <time>2020-10-01T08:33:04.253Z</time>
      </trkpt>
      <trkpt lat="63.80726" lon="20.20129">
        <ele>46.992314</ele>
        <time>2020-10-01T08:33:07.248Z</time>
      </trkpt>
      <trkpt lat="63.80715" lon="20.20127">
        <ele>47.014518</ele>
        <time>2020-10-01T08:33:10.246Z</time>
      </trkpt>
      <trkpt lat="63.80704" lon="20.20124">
        <ele>47.036465</ele>
        <time>2020-10-01T08:33:13.270Z</time>
      </trkpt>
      <trkpt lat="63.80693" lon="20.20119">
        <ele>47.058122</ele>
        <time>2020-10-01T08:33:16.261Z</time>
      </trkpt>
      <trkpt lat="63.80682" lon="20.20113">
        <ele>47.081982</ele>
        <time>2020-10-01T08:33:19.239Z</time>
      </trkpt>
      <trkpt lat="63.80671" lon="20.20106">
        <ele>47.105083</ele>
        <time>2020-10-01T08:33:22.268Z</time>
      </trkpt>
      <trkpt lat="63.80659" lon="20.20101">
        <ele>47.128569</ele>
        <time>2020-10-01T08:33:25.239Z</time>
      </trkpt>
      <trkpt lat="63.80648" lon="20.20095">
        <ele>47.152</ele>
        <time>2020-10-01T08:33:28.259Z</time>
      </trkpt>
      <trkpt lat="63.80639" lon="20.20094">
        <ele>47.170373</ele>
        <time>2020-10-01T08:33:30.250Z</time>
      </trkpt>
      <trkpt lat="63.80629" lon="20.20093">
        <ele>47.190538</ele>
        <time>2020-10-01T08:33:32.264Z</time>
      </trkpt>
      <trkpt lat="63.80619" lon="20.2009">
        <ele>47.209641</ele>
        <time>2020-10-01T08:33:34.288Z</time>
      </trkpt>
      <trkpt lat="63.8061" lon="20.20087">
        <ele>47.228303</ele>
        <time>2020-10-01T08:33:36.242Z</time>
      </trkpt>
      <trkpt lat="63.80601" lon="20.20083">
        <ele>47.247542</ele>
        <time>2020-10-01T08:33:38.260Z</time>
      </trkpt>
      <trkpt lat="63.80592" lon="20.20079">
        <ele>47.266418</ele>
        <time>2020-10-01T08:33:40.250Z</time>
      </trkpt>
      <trkpt lat="63.80582" lon="20.20076">
        <ele>47.201481</ele>
        <time>2020-10-01T08:33:42.250Z</time>
      </trkpt>
      <trkpt lat="63.80573" lon="20.20072">
        <ele>46.812687</ele>
        <time>2020-10-01T08:33:44.250Z</time>
      </trkpt>
      <trkpt lat="63.80564" lon="20.20067">
        <ele>46.431005</ele>
        <time>2020-10-01T08:33:46.252Z</time>
      </trkpt>
      <trkpt lat="63.80556" lon="20.20063">
        <ele>46.049323</ele>
        <time>2020-10-01T08:33:48.253Z</time>
      </trkpt>
      <trkpt lat="63.80547" lon="20.20059">
        <ele>45.673233</ele>
        <time>2020-10-01T08:33:50.245Z</time>
      </trkpt>
      <trkpt lat="63.80537" lon="20.20056">
        <ele>45.275081</ele>
        <time>2020-10-01T08:33:52.245Z</time>
      </trkpt>
      <trkpt lat="63.80528" lon="20.20053">
        <ele>44.873027</ele>
        <time>2020-10-01T08:33:54.238Z</time>
      </trkpt>
      <trkpt lat="63.80518" lon="20.20051">
        <ele>44.468681</ele>
        <time>2020-10-01T08:33:56.261Z</time>
      </trkpt>
      <trkpt lat="63.80509" lon="20.2005">
        <ele>44.061233</ele>
        <time>2020-10-01T08:33:58.250Z</time>
      </trkpt>
      <trkpt lat="63.80499" lon="20.20049">
        <ele>43.662162</ele>
        <time>2020-10-01T08:34:00.260Z</time>
      </trkpt>
      <trkpt lat="63.8049" lon="20.20049">
        <ele>43.28468</ele>
        <time>2020-10-01T08:34:02.286Z</time>
      </trkpt>
      <trkpt lat="63.80481" lon="20.20048">
        <ele>42.894506</ele>
        <time>2020-10-01T08:34:04.289Z</time>
      </trkpt>
      <trkpt lat="63.80472" lon="20.20047">
        <ele>42.512184</ele>
        <time>2020-10-01T08:34:06.268Z</time>
      </trkpt>
      <trkpt lat="63.80463" lon="20.20048">
        <ele>42.13022</ele>
        <time>2020-10-01T08:34:08.244Z</time>
      </trkpt>
      <trkpt lat="63.80449" lon="20.20052">
        <ele>41.572128</ele>
        <time>2020-10-01T08:34:11.256Z</time>
      </trkpt>
      <trkpt lat="63.80436" lon="20.20055">
        <ele>41.006985</ele>
        <time>2020-10-01T08:34:14.249Z</time>
      </trkpt>
      <trkpt lat="63.80427" lon="20.20059">
        <ele>40.615081</ele>
        <time>2020-10-01T08:34:16.246Z</time>
      </trkpt>
      <trkpt lat="63.80418" lon="20.20062">
        <ele>40.233261</ele>
        <time>2020-10-01T08:34:18.245Z</time>
      </trkpt>
      <trkpt lat="63.80409" lon="20.20066">
        <ele>39.848222</ele>
        <time>2020-10-01T08:34:20.232Z</time>
      </trkpt>
      <trkpt lat="63.80399" lon="20.20068">
        <ele>39.710498</ele>
        <time>2020-10-01T08:34:22.255Z</time>
      </trkpt>
      <trkpt lat="63.8039" lon="20.2007">
        <ele>39.672376</ele>
        <time>2020-10-01T08:34:24.296Z</time>
      </trkpt>
      <trkpt lat="63.8038" lon="20.20071">
        <ele>39.63396</ele>
        <time>2020-10-01T08:34:26.255Z</time>
      </trkpt>
      <trkpt lat="63.80367" lon="20.20075">
        <ele>39.58006</ele>
        <time>2020-10-01T08:34:29.243Z</time>
      </trkpt>
      <trkpt lat="63.80355" lon="20.20079">
        <ele>39.530678</ele>
        <time>2020-10-01T08:34:32.264Z</time>
      </trkpt>
      <trkpt lat="63.80343" lon="20.20084">
        <ele>39.482392</ele>
        <time>2020-10-01T08:34:35.285Z</time>
      </trkpt>
      <trkpt lat="63.80331" lon="20.20088">
        <ele>39.43309</ele>
        <time>2020-10-01T08:34:38.256Z</time>
      </trkpt>
      <trkpt lat="63.80319" lon="20.20092">
        <ele>39.385471</ele>
        <time>2020-10-01T08:34:41.280Z</time>
      </trkpt>
      <trkpt lat="63.80306" lon="20.20096">
        <ele>39.335155</ele>
        <time>2020-10-01T08:34:44.248Z</time>
      </trkpt>
      <trkpt lat="63.80294" lon="20.20101">
        <ele>39.283687</ele>
        <time>2020-10-01T08:34:47.285Z</time>
      </trkpt>
      <trkpt lat="63.80281" lon="20.20105">
        <ele>39.232035</ele>
        <time>2020-10-01T08:34:50.254Z</time>
      </trkpt>
      <trkpt lat="63.80268" lon="20.20111">
        <ele>39.179235</ele>
        <time>2020-10-01T08:34:53.230Z</time>
      </trkpt>
      <trkpt lat="63.80255" lon="20.20115">
        <ele>39.127033</ele>
        <time>2020-10-01T08:34:56.259Z</time>
      </trkpt>
      <trkpt lat="63.80242" lon="20.2012">
        <ele>39.075676</ele>
        <time>2020-10-01T08:34:59.246Z</time>
      </trkpt>
      <trkpt lat="63.8023" lon="20.20125">
        <ele>39.023662</ele>
        <time>2020-10-01T08:35:02.248Z</time>
      </trkpt>
      <trkpt lat="63.80217" lon="20.2013">
        <ele>39.708709</ele>
        <time>2020-10-01T08:35:05.269Z</time>
      </trkpt>
      <trkpt lat="63.80204" lon="20.20134">
        <ele>40.492157</ele>
        <time>2020-10-01T08:35:08.277Z</time>
      </trkpt>
      <trkpt lat="63.80191" lon="20.20138">
        <ele>41.274108</ele>
        <time>2020-10-01T08:35:11.248Z</time>
      </trkpt>
      <trkpt lat="63.80182" lon="20.20142">
        <ele>41.802862</ele>
        <time>2020-10-01T08:35:13.243Z</time>
      </trkpt>
      <trkpt lat="63.80169" lon="20.20146">
        <ele>42.578601</ele>
        <time>2020-10-01T08:35:16.304Z</time>
      </trkpt>
      <trkpt lat="63.80156" lon="20.20151">
        <ele>43.329609</ele>
        <time>2020-10-01T08:35:19.278Z</time>
      </trkpt>
      <trkpt lat="63.80145" lon="20.20158">
        <ele>44.040107</ele>
        <time>2020-10-01T08:35:22.273Z</time>
      </trkpt>
      <trkpt lat="63.80133" lon="20.20166">
        <ele>44.729953</ele>
        <time>2020-10-01T08:35:25.269Z</time>
      </trkpt>
      <trkpt lat="63.80123" lon="20.2017">
        <ele>45.36536</ele>
        <time>2020-10-01T08:35:28.255Z</time>
      </trkpt>
      <trkpt lat="63.80111" lon="20.20172">
        <ele>46.054113</ele>
        <time>2020-10-01T08:35:32.251Z</time>
      </trkpt>
      <trkpt lat="63.801" lon="20.20173">
        <ele>46.704869</ele>
        <time>2020-10-01T08:35:35.260Z</time>
      </trkpt>
      <trkpt lat="63.8009" lon="20.20177">
        <ele>47.34611</ele>
        <time>2020-10-01T08:35:38.274Z</time>
      </trkpt>
      <trkpt lat="63.8008" lon="20.20181">
        <ele>47.939404</ele>
        <time>2020-10-01T08:35:41.261Z</time>
      </trkpt>
      <trkpt lat="63.8007" lon="20.20183">
        <ele>48.516657</ele>
        <time>2020-10-01T08:35:44.237Z</time>
      </trkpt>
      <trkpt lat="63.80059" lon="20.20187">
        <ele>49.186684</ele>
        <time>2020-10-01T08:35:48.268Z</time>
      </trkpt>
      <trkpt lat="63.80047" lon="20.20191">
        <ele>49.727374</ele>
        <time>2020-10-01T08:35:52.264Z</time>
      </trkpt>
      <trkpt lat="63.80037" lon="20.20197">
        <ele>49.940393</ele>
        <time>2020-10-01T08:35:56.237Z</time>
      </trkpt>
      <trkpt lat="63.80026" lon="20.20205">
        <ele>50.177285</ele>
        <time>2020-10-01T08:36:00.282Z</time>
      </trkpt>
      <trkpt lat="63.80017" lon="20.2021">
        <ele>50.360307</ele>
        <time>2020-10-01T08:36:03.241Z</time>
      </trkpt>
      <trkpt lat="63.80009" lon="20.20216">
        <ele>50.540787</ele>
        <time>2020-10-01T08:36:06.239Z</time>
      </trkpt>
      <trkpt lat="63.79999" lon="20.20223">
        <ele>50.743454</ele>
        <time>2020-10-01T08:36:09.259Z</time>
      </trkpt>
      <trkpt lat="63.7999" lon="20.2023">
        <ele>50.930513</ele>
        <time>2020-10-01T08:36:12.262Z</time>
      </trkpt>
      <trkpt lat="63.79982" lon="20.20238">
        <ele>51.11112</ele>
        <time>2020-10-01T08:36:15.237Z</time>
      </trkpt>
      <trkpt lat="63.79974" lon="20.20248">
        <ele>51.293903</ele>
        <time>2020-10-01T08:36:18.262Z</time>
      </trkpt>
      <trkpt lat="63.79964" lon="20.2026">
        <ele>51.530473</ele>
        <time>2020-10-01T08:36:22.288Z</time>
      </trkpt>
      <trkpt lat="63.79955" lon="20.20269">
        <ele>51.713684</ele>
        <time>2020-10-01T08:36:25.304Z</time>
      </trkpt>
      <trkpt lat="63.79947" lon="20.20279">
        <ele>51.907502</ele>
        <time>2020-10-01T08:36:28.262Z</time>
      </trkpt>
      <trkpt lat="63.79938" lon="20.20288">
        <ele>52.105018</ele>
        <time>2020-10-01T08:36:31.242Z</time>
      </trkpt>
      <trkpt lat="63.79929" lon="20.20296">
        <ele>52.303693</ele>
        <time>2020-10-01T08:36:34.294Z</time>
      </trkpt>
      <trkpt lat="63.7992" lon="20.20306">
        <ele>52.503385</ele>
        <time>2020-10-01T08:36:37.259Z</time>
      </trkpt>
      <trkpt lat="63.7991" lon="20.20316">
        <ele>52.713016</ele>
        <time>2020-10-01T08:36:40.253Z</time>
      </trkpt>
      <trkpt lat="63.79901" lon="20.20326">
        <ele>52.922618</ele>
        <time>2020-10-01T08:36:43.252Z</time>
      </trkpt>
      <trkpt lat="63.7989" lon="20.20336">
        <ele>53.155021</ele>
        <time>2020-10-01T08:36:46.240Z</time>
      </trkpt>
      <trkpt lat="63.7988" lon="20.20347">
        <ele>53.252269</ele>
        <time>2020-10-01T08:36:49.252Z</time>
      </trkpt>
      <trkpt lat="63.79869" lon="20.20358">
        <ele>53.201325</ele>
        <time>2020-10-01T08:36:52.249Z</time>
      </trkpt>
      <trkpt lat="63.79859" lon="20.20368">
        <ele>53.149143</ele>
        <time>2020-10-01T08:36:55.245Z</time>
      </trkpt>
      <trkpt lat="63.79848" lon="20.20377">
        <ele>53.098049</ele>
        <time>2020-10-01T08:36:58.253Z</time>
      </trkpt>
      <trkpt lat="63.79836" lon="20.20385">
        <ele>53.043816</ele>
        <time>2020-10-01T08:37:01.265Z</time>
      </trkpt>
      <trkpt lat="63.79825" lon="20.20393">
        <ele>52.98982</ele>
        <time>2020-10-01T08:37:04.256Z</time>
      </trkpt>
      <trkpt lat="63.79812" lon="20.20402">
        <ele>52.931069</ele>
        <time>2020-10-01T08:37:07.250Z</time>
      </trkpt>
      <trkpt lat="63.79803" lon="20.20409">
        <ele>52.888547</ele>
        <time>2020-10-01T08:37:09.254Z</time>
      </trkpt>
      <trkpt lat="63.79795" lon="20.20415">
        <ele>52.847429</ele>
        <time>2020-10-01T08:37:11.281Z</time>
      </trkpt>
      <trkpt lat="63.79786" lon="20.20422">
        <ele>52.807187</ele>
        <time>2020-10-01T08:37:13.265Z</time>
      </trkpt>
      <trkpt lat="63.79777" lon="20.20428">
        <ele>52.764162</ele>
        <time>2020-10-01T08:37:15.250Z</time>
      </trkpt>
      <trkpt lat="63.79767" lon="20.20434">
        <ele>52.716182</ele>
        <time>2020-10-01T08:37:17.241Z</time>
      </trkpt>
      <trkpt lat="63.79756" lon="20.20441">
        <ele>52.667313</ele>
        <time>2020-10-01T08:37:19.253Z</time>
      </trkpt>
      <trkpt lat="63.79746" lon="20.20448">
        <ele>52.617539</ele>
        <time>2020-10-01T08:37:21.246Z</time>
      </trkpt>
      <trkpt lat="63.79735" lon="20.20454">
        <ele>52.567192</ele>
        <time>2020-10-01T08:37:23.259Z</time>
      </trkpt>
      <trkpt lat="63.79724" lon="20.2046">
        <ele>52.518636</ele>
        <time>2020-10-01T08:37:25.241Z</time>
      </trkpt>
      <trkpt lat="63.79714" lon="20.20466">
        <ele>52.472747</ele>
        <time>2020-10-01T08:37:27.254Z</time>
      </trkpt>
      <trkpt lat="63.79704" lon="20.20473">
        <ele>52.36164</ele>
        <time>2020-10-01T08:37:29.247Z</time>
      </trkpt>
      <trkpt lat="63.79694" lon="20.20479">
        <ele>52.255608</ele>
        <time>2020-10-01T08:37:31.297Z</time>
      </trkpt>
      <trkpt lat="63.79685" lon="20.20485">
        <ele>52.150278</ele>
        <time>2020-10-01T08:37:33.255Z</time>
      </trkpt>
      <trkpt lat="63.79675" lon="20.20491">
        <ele>52.043105</ele>
        <time>2020-10-01T08:37:35.269Z</time>
      </trkpt>
      <trkpt lat="63.79665" lon="20.20497">
        <ele>51.941008</ele>
        <time>2020-10-01T08:37:37.244Z</time>
      </trkpt>
      <trkpt lat="63.79656" lon="20.20503">
        <ele>51.841065</ele>
        <time>2020-10-01T08:37:39.285Z</time>
      </trkpt>
      <trkpt lat="63.79647" lon="20.20508">
        <ele>51.744371</ele>
        <time>2020-10-01T08:37:41.264Z</time>
      </trkpt>
      <trkpt lat="63.79635" lon="20.20514">
        <ele>51.607471</ele>
        <time>2020-10-01T08:37:44.255Z</time>
      </trkpt>
      <trkpt lat="63.79622" lon="20.20517">
        <ele>51.473824</ele>
        <time>2020-10-01T08:37:47.256Z</time>
      </trkpt>
      <trkpt lat="63.7961" lon="20.20521">
        <ele>51.346895</ele>
        <time>2020-10-01T08:37:50.265Z</time>
      </trkpt>
      <trkpt lat="63.79598" lon="20.20525">
        <ele>51.211555</ele>
        <time>2020-10-01T08:37:53.260Z</time>
      </trkpt>
      <trkpt lat="63.79588" lon="20.20528">
        <ele>51.113952</ele>
        <time>2020-10-01T08:37:55.262Z</time>
      </trkpt>
      <trkpt lat="63.79579" lon="20.2053">
        <ele>51.0112</ele>
        <time>2020-10-01T08:37:57.238Z</time>
      </trkpt>
      <trkpt lat="63.79566" lon="20.2053">
        <ele>50.875142</ele>
        <time>2020-10-01T08:38:00.250Z</time>
      </trkpt>
      <trkpt lat="63.79555" lon="20.20531">
        <ele>50.757035</ele>
        <time>2020-10-01T08:38:03.282Z</time>
      </trkpt>
      <trkpt lat="63.79544" lon="20.2053">
        <ele>50.648414</ele>
        <time>2020-10-01T08:38:06.274Z</time>
      </trkpt>
      <trkpt lat="63.79533" lon="20.20529">
        <ele>50.665472</ele>
        <time>2020-10-01T08:38:09.245Z</time>
      </trkpt>
      <trkpt lat="63.79521" lon="20.20529">
        <ele>50.911528</ele>
        <time>2020-10-01T08:38:12.254Z</time>
      </trkpt>
      <trkpt lat="63.7951" lon="20.20529">
        <ele>51.146978</ele>
        <time>2020-10-01T08:38:15.254Z</time>
      </trkpt>
      <trkpt lat="63.795" lon="20.20529">
        <ele>51.359147</ele>
        <time>2020-10-01T08:38:18.288Z</time>
      </trkpt>
      <trkpt lat="63.79491" lon="20.20528">
        <ele>51.556851</ele>
        <time>2020-10-01T08:38:21.256Z</time>
      </trkpt>
      <trkpt lat="63.79481" lon="20.20526">
        <ele>51.762862</ele>
        <time>2020-10-01T08:38:24.303Z</time>
      </trkpt>
      <trkpt lat="63.79472" lon="20.20526">
        <ele>51.958046</ele>
        <time>2020-10-01T08:38:27.258Z</time>
      </trkpt>
      <trkpt lat="63.79462" lon="20.20525">
        <ele>52.16416</ele>
        <time>2020-10-01T08:38:30.241Z</time>
      </trkpt>
      <trkpt lat="63.79452" lon="20.20524">
        <ele>52.378417</ele>
        <time>2020-10-01T08:38:33.241Z</time>
      </trkpt>
      <trkpt lat="63.79441" lon="20.20525">
        <ele>52.607505</ele>
        <time>2020-10-01T08:38:36.282Z</time>
      </trkpt>
      <trkpt lat="63.79432" lon="20.20524">
        <ele>52.811275</ele>
        <time>2020-10-01T08:38:39.277Z</time>
      </trkpt>
      <trkpt lat="63.79422" lon="20.20523">
        <ele>53.015045</ele>
        <time>2020-10-01T08:38:42.242Z</time>
      </trkpt>
      <trkpt lat="63.79412" lon="20.20522">
        <ele>53.229578</ele>
        <time>2020-10-01T08:38:45.248Z</time>
      </trkpt>
      <trkpt lat="63.79401" lon="20.20521">
        <ele>53.456592</ele>
        <time>2020-10-01T08:38:48.260Z</time>
      </trkpt>
      <trkpt lat="63.79392" lon="20.20523">
        <ele>53.65255</ele>
        <time>2020-10-01T08:38:51.251Z</time>
      </trkpt>
      <trkpt lat="63.79383" lon="20.20524">
        <ele>53.843733</ele>
        <time>2020-10-01T08:38:54.264Z</time>
      </trkpt>
      <trkpt lat="63.79374" lon="20.20522">
        <ele>54.037667</ele>
        <time>2020-10-01T08:38:57.263Z</time>
      </trkpt>
      <trkpt lat="63.79364" lon="20.20523">
        <ele>54.247681</ele>
        <time>2020-10-01T08:39:00.256Z</time>
      </trkpt>
      <trkpt lat="63.79354" lon="20.20523">
        <ele>54.419227</ele>
        <time>2020-10-01T08:39:03.312Z</time>
      </trkpt>
      <trkpt lat="63.79344" lon="20.20521">
        <ele>54.517038</ele>
        <time>2020-10-01T08:39:06.294Z</time>
      </trkpt>
      <trkpt lat="63.79334" lon="20.20517">
        <ele>54.619089</ele>
        <time>2020-10-01T08:39:09.278Z</time>
      </trkpt>
      <trkpt lat="63.79322" lon="20.20514">
        <ele>54.731748</ele>
        <time>2020-10-01T08:39:12.266Z</time>
      </trkpt>
      <trkpt lat="63.79311" lon="20.2051">
        <ele>54.835765</ele>
        <time>2020-10-01T08:39:15.265Z</time>
      </trkpt>
      <trkpt lat="63.79301" lon="20.20506">
        <ele>54.934085</ele>
        <time>2020-10-01T08:39:18.262Z</time>
      </trkpt>
      <trkpt lat="63.79291" lon="20.20501">
        <ele>55.03935</ele>
        <time>2020-10-01T08:39:21.242Z</time>
      </trkpt>
      <trkpt lat="63.79279" lon="20.20493">
        <ele>55.152831</ele>
        <time>2020-10-01T08:39:24.268Z</time>
      </trkpt>
      <trkpt lat="63.79268" lon="20.20484">
        <ele>55.266959</ele>
        <time>2020-10-01T08:39:27.276Z</time>
      </trkpt>
      <trkpt lat="63.79257" lon="20.20476">
        <ele>55.384073</ele>
        <time>2020-10-01T08:39:30.245Z</time>
      </trkpt>
      <trkpt lat="63.79246" lon="20.20467">
        <ele>55.49562</ele>
        <time>2020-10-01T08:39:33.269Z</time>
      </trkpt>
      <trkpt lat="63.79234" lon="20.20455">
        <ele>55.615061</ele>
        <time>2020-10-01T08:39:36.245Z</time>
      </trkpt>
      <trkpt lat="63.79223" lon="20.20443">
        <ele>55.740153</ele>
        <time>2020-10-01T08:39:39.241Z</time>
      </trkpt>
      <trkpt lat="63.79211" lon="20.2043">
        <ele>55.869956</ele>
        <time>2020-10-01T08:39:42.281Z</time>
      </trkpt>
      <trkpt lat="63.79202" lon="20.2042">
        <ele>55.959819</ele>
        <time>2020-10-01T08:39:44.252Z</time>
      </trkpt>
      <trkpt lat="63.79194" lon="20.20408">
        <ele>56.054393</ele>
        <time>2020-10-01T08:39:46.246Z</time>
      </trkpt>
      <trkpt lat="63.79185" lon="20.20395">
        <ele>56.007737</ele>
        <time>2020-10-01T08:39:48.239Z</time>
      </trkpt>
      <trkpt lat="63.79176" lon="20.20381">
        <ele>55.650599</ele>
        <time>2020-10-01T08:39:50.258Z</time>
      </trkpt>
      <trkpt lat="63.79167" lon="20.20367">
        <ele>55.285934</ele>
        <time>2020-10-01T08:39:52.262Z</time>
      </trkpt>
      <trkpt lat="63.79156" lon="20.20351">
        <ele>54.889082</ele>
        <time>2020-10-01T08:39:54.276Z</time>
      </trkpt>
      <trkpt lat="63.79146" lon="20.20336">
        <ele>54.4852</ele>
        <time>2020-10-01T08:39:56.251Z</time>
      </trkpt>
      <trkpt lat="63.79135" lon="20.20323">
        <ele>54.080177</ele>
        <time>2020-10-01T08:39:58.277Z</time>
      </trkpt>
      <trkpt lat="63.79124" lon="20.20309">
        <ele>53.682153</ele>
        <time>2020-10-01T08:40:00.281Z</time>
      </trkpt>
      <trkpt lat="63.79113" lon="20.20297">
        <ele>53.3094</ele>
        <time>2020-10-01T08:40:02.266Z</time>
      </trkpt>
      <trkpt lat="63.79103" lon="20.20287">
        <ele>52.943281</ele>
        <time>2020-10-01T08:40:04.281Z</time>
      </trkpt>
      <trkpt lat="63.79092" lon="20.20277">
        <ele>52.564244</ele>
        <time>2020-10-01T08:40:06.264Z</time>
      </trkpt>
      <trkpt lat="63.7908" lon="20.20268">
        <ele>52.167631</ele>
        <time>2020-10-01T08:40:08.293Z</time>
      </trkpt>
      <trkpt lat="63.79069" lon="20.20259">
        <ele>51.787835</ele>
        <time>2020-10-01T08:40:10.235Z</time>
      </trkpt>
      <trkpt lat="63.79058" lon="20.20251">
        <ele>51.419743</ele>
        <time>2020-10-01T08:40:12.264Z</time>
      </trkpt>
      <trkpt lat="63.79048" lon="20.20241">
        <ele>51.054747</ele>
        <time>2020-10-01T08:40:14.258Z</time>
      </trkpt>
      <trkpt lat="63.79038" lon="20.20233">
        <ele>50.721749</ele>
        <time>2020-10-01T08:40:16.244Z</time>
      </trkpt>
      <trkpt lat="63.79029" lon="20.20224">
        <ele>50.41281</ele>
        <time>2020-10-01T08:40:18.249Z</time>
      </trkpt>
      <trkpt lat="63.79021" lon="20.20216">
        <ele>50.248969</ele>
        <time>2020-10-01T08:40:20.254Z</time>
      </trkpt>
      <trkpt lat="63.7901" lon="20.20202">
        <ele>50.078305</ele>
        <time>2020-10-01T08:40:23.262Z</time>
      </trkpt>
      <trkpt lat="63.79002" lon="20.20192">
        <ele>49.95948</ele>
        <time>2020-10-01T08:40:25.717Z</time>
      </trkpt>
      <trkpt lat="63.7899" lon="20.2018">
        <ele>49.785092</ele>
        <time>2020-10-01T08:40:28.273Z</time>
      </trkpt>
      <trkpt lat="63.78981" lon="20.20173">
        <ele>49.659251</ele>
        <time>2020-10-01T08:40:30.256Z</time>
      </trkpt>
      <trkpt lat="63.78971" lon="20.20165">
        <ele>49.528703</ele>
        <time>2020-10-01T08:40:32.275Z</time>
      </trkpt>
      <trkpt lat="63.78962" lon="20.20158">
        <ele>49.399792</ele>
        <time>2020-10-01T08:40:34.269Z</time>
      </trkpt>
      <trkpt lat="63.78953" lon="20.20152">
        <ele>49.268181</ele>
        <time>2020-10-01T08:40:36.254Z</time>
      </trkpt>
      <trkpt lat="63.78942" lon="20.20145">
        <ele>49.12991</ele>
        <time>2020-10-01T08:40:38.241Z</time>
      </trkpt>
      <trkpt lat="63.78933" lon="20.20139">
        <ele>48.998902</ele>
        <time>2020-10-01T08:40:40.258Z</time>
      </trkpt>
      <trkpt lat="63.78923" lon="20.20132">
        <ele>48.867548</ele>
        <time>2020-10-01T08:40:42.259Z</time>
      </trkpt>
      <trkpt lat="63.78915" lon="20.20125">
        <ele>48.746209</ele>
        <time>2020-10-01T08:40:44.262Z</time>
      </trkpt>
      <trkpt lat="63.78906" lon="20.20119">
        <ele>48.623446</ele>
        <time>2020-10-01T08:40:46.257Z</time>
      </trkpt>
      <trkpt lat="63.78893" lon="20.20109">
        <ele>48.444059</ele>
        <time>2020-10-01T08:40:49.241Z</time>
      </trkpt>
      <trkpt lat="63.78884" lon="20.20102">
        <ele>48.3203</ele>
        <time>2020-10-01T08:40:51.274Z</time>
      </trkpt>
      <trkpt lat="63.78875" lon="20.20095">
        <ele>48.194674</ele>
        <time>2020-10-01T08:40:53.242Z</time>
      </trkpt>
      <trkpt lat="63.78864" lon="20.20088">
        <ele>48.048941</ele>
        <time>2020-10-01T08:40:55.249Z</time>
      </trkpt>
      <trkpt lat="63.78854" lon="20.20081">
        <ele>48.012697</ele>
        <time>2020-10-01T08:40:57.246Z</time>
      </trkpt>
      <trkpt lat="63.78845" lon="20.20074">
        <ele>48.120995</ele>
        <time>2020-10-01T08:40:59.253Z</time>
      </trkpt>
      <trkpt lat="63.78835" lon="20.20067">
        <ele>48.235415</ele>
        <time>2020-10-01T08:41:01.258Z</time>
      </trkpt>
      <trkpt lat="63.78825" lon="20.20061">
        <ele>48.350543</ele>
        <time>2020-10-01T08:41:03.241Z</time>
      </trkpt>
      <trkpt lat="63.78815" lon="20.20055">
        <ele>48.461981</ele>
        <time>2020-10-01T08:41:05.258Z</time>
      </trkpt>
      <trkpt lat="63.78806" lon="20.20048">
        <ele>48.573149</ele>
        <time>2020-10-01T08:41:07.294Z</time>
      </trkpt>
      <trkpt lat="63.78796" lon="20.20041">
        <ele>48.685481</ele>
        <time>2020-10-01T08:41:09.262Z</time>
      </trkpt>
      <trkpt lat="63.78786" lon="20.20033">
        <ele>48.796046</ele>
        <time>2020-10-01T08:41:11.277Z</time>
      </trkpt>
      <trkpt lat="63.78777" lon="20.20026">
        <ele>48.908296</ele>
        <time>2020-10-01T08:41:13.258Z</time>
      </trkpt>
      <trkpt lat="63.78767" lon="20.20018">
        <ele>49.026152</ele>
        <time>2020-10-01T08:41:15.276Z</time>
      </trkpt>
      <trkpt lat="63.78756" lon="20.20011">
        <ele>49.143858</ele>
        <time>2020-10-01T08:41:17.253Z</time>
      </trkpt>
      <trkpt lat="63.78746" lon="20.20004">
        <ele>49.259248</ele>
        <time>2020-10-01T08:41:19.301Z</time>
      </trkpt>
      <trkpt lat="63.78736" lon="20.19998">
        <ele>49.375061</ele>
        <time>2020-10-01T08:41:21.255Z</time>
      </trkpt>
      <trkpt lat="63.78726" lon="20.19992">
        <ele>49.486376</ele>
        <time>2020-10-01T08:41:23.237Z</time>
      </trkpt>
      <trkpt lat="63.78717" lon="20.19987">
        <ele>49.5952</ele>
        <time>2020-10-01T08:41:25.266Z</time>
      </trkpt>
      <trkpt lat="63.78706" lon="20.19982">
        <ele>49.710206</ele>
        <time>2020-10-01T08:41:27.249Z</time>
      </trkpt>
      <trkpt lat="63.78697" lon="20.19975">
        <ele>49.818651</ele>
        <time>2020-10-01T08:41:29.299Z</time>
      </trkpt>
      <trkpt lat="63.78687" lon="20.19967">
        <ele>49.933071</ele>
        <time>2020-10-01T08:41:31.260Z</time>
      </trkpt>
      <trkpt lat="63.78677" lon="20.19961">
        <ele>50.015181</ele>
        <time>2020-10-01T08:41:33.260Z</time>
      </trkpt>
      <trkpt lat="63.78667" lon="20.19956">
        <ele>50.092329</ele>
        <time>2020-10-01T08:41:35.245Z</time>
      </trkpt>
      <trkpt lat="63.78656" lon="20.1995">
        <ele>50.171381</ele>
        <time>2020-10-01T08:41:37.242Z</time>
      </trkpt>
      <trkpt lat="63.78646" lon="20.19944">
        <ele>50.250112</ele>
        <time>2020-10-01T08:41:39.248Z</time>
      </trkpt>
      <trkpt lat="63.78636" lon="20.19938">
        <ele>50.32219</ele>
        <time>2020-10-01T08:41:41.254Z</time>
      </trkpt>
      <trkpt lat="63.78627" lon="20.19932">
        <ele>50.392748</ele>
        <time>2020-10-01T08:41:43.250Z</time>
      </trkpt>
      <trkpt lat="63.78614" lon="20.19924">
        <ele>50.494071</ele>
        <time>2020-10-01T08:41:46.249Z</time>
      </trkpt>
      <trkpt lat="63.78603" lon="20.19918">
        <ele>50.57423</ele>
        <time>2020-10-01T08:41:48.254Z</time>
      </trkpt>
      <trkpt lat="63.78592" lon="20.19913">
        <ele>50.656897</ele>
        <time>2020-10-01T08:41:50.285Z</time>
      </trkpt>
      <trkpt lat="63.78581" lon="20.19907">
        <ele>50.742713</ele>
        <time>2020-10-01T08:41:52.241Z</time>
      </trkpt>
      <trkpt lat="63.7857" lon="20.19901">
        <ele>50.827239</ele>
        <time>2020-10-01T08:41:54.238Z</time>
      </trkpt>
      <trkpt lat="63.78558" lon="20.19895">
        <ele>50.912068</ele>
        <time>2020-10-01T08:41:56.277Z</time>
      </trkpt>
      <trkpt lat="63.78547" lon="20.19889">
        <ele>50.996106</ele>
        <time>2020-10-01T08:41:58.280Z</time>
      </trkpt>
      <trkpt lat="63.78536" lon="20.19882">
        <ele>51.079923</ele>
        <time>2020-10-01T08:42:00.246Z</time>
      </trkpt>
      <trkpt lat="63.78526" lon="20.19875">
        <ele>51.157991</ele>
        <time>2020-10-01T08:42:02.256Z</time>
      </trkpt>
      <trkpt lat="63.78516" lon="20.19868">
        <ele>51.233725</ele>
        <time>2020-10-01T08:42:04.320Z</time>
      </trkpt>
      <trkpt lat="63.78503" lon="20.19858">
        <ele>51.127237</ele>
        <time>2020-10-01T08:42:07.261Z</time>
      </trkpt>
      <trkpt lat="63.78494" lon="20.1985">
        <ele>50.975501</ele>
        <time>2020-10-01T08:42:09.237Z</time>
      </trkpt>
      <trkpt lat="63.78483" lon="20.19841">
        <ele>50.812756</ele>
        <time>2020-10-01T08:42:11.267Z</time>
      </trkpt>
      <trkpt lat="63.78473" lon="20.19831">
        <ele>50.654436</ele>
        <time>2020-10-01T08:42:13.240Z</time>
      </trkpt>
      <trkpt lat="63.78463" lon="20.19821">
        <ele>50.493729</ele>
        <time>2020-10-01T08:42:15.257Z</time>
      </trkpt>
      <trkpt lat="63.78455" lon="20.19811">
        <ele>50.350644</ele>
        <time>2020-10-01T08:42:17.257Z</time>
      </trkpt>
      <trkpt lat="63.78446" lon="20.19801">
        <ele>50.202049</ele>
        <time>2020-10-01T08:42:19.240Z</time>
      </trkpt>
      <trkpt lat="63.78437" lon="20.19792">
        <ele>50.05712</ele>
        <time>2020-10-01T08:42:21.235Z</time>
      </trkpt>
      <trkpt lat="63.78428" lon="20.19783">
        <ele>49.919945</ele>
        <time>2020-10-01T08:42:23.257Z</time>
      </trkpt>
      <trkpt lat="63.7842" lon="20.19774">
        <ele>49.784314</ele>
        <time>2020-10-01T08:42:25.274Z</time>
      </trkpt>
      <trkpt lat="63.78408" lon="20.1976">
        <ele>49.59366</ele>
        <time>2020-10-01T08:42:28.280Z</time>
      </trkpt>
      <trkpt lat="63.78399" lon="20.19745">
        <ele>49.420253</ele>
        <time>2020-10-01T08:42:31.242Z</time>
      </trkpt>
      <trkpt lat="63.78389" lon="20.1973">
        <ele>49.246633</ele>
        <time>2020-10-01T08:42:34.245Z</time>
      </trkpt>
      <trkpt lat="63.78379" lon="20.19716">
        <ele>49.077249</ele>
        <time>2020-10-01T08:42:37.264Z</time>
      </trkpt>
      <trkpt lat="63.7837" lon="20.19702">
        <ele>48.916983</ele>
        <time>2020-10-01T08:42:40.261Z</time>
      </trkpt>
      <trkpt lat="63.78362" lon="20.19686">
        <ele>48.764841</ele>
        <time>2020-10-01T08:42:43.247Z</time>
      </trkpt>
      <trkpt lat="63.78356" lon="20.19669">
        <ele>48.634653</ele>
        <time>2020-10-01T08:42:46.237Z</time>
      </trkpt>
      <trkpt lat="63.78349" lon="20.19652">
        <ele>49.167684</ele>
        <time>2020-10-01T08:42:49.268Z</time>
      </trkpt>
      <trkpt lat="63.78342" lon="20.19634">
        <ele>49.7192</ele>
        <time>2020-10-01T08:42:52.249Z</time>
      </trkpt>
      <trkpt lat="63.78335" lon="20.19618">
        <ele>50.220039</ele>
        <time>2020-10-01T08:42:55.256Z</time>
      </trkpt>
      <trkpt lat="63.78327" lon="20.196">
        <ele>50.825034</ele>
        <time>2020-10-01T08:42:59.313Z</time>
      </trkpt>
      <trkpt lat="63.7832" lon="20.19585">
        <ele>51.300154</ele>
        <time>2020-10-01T08:43:02.239Z</time>
      </trkpt>
      <trkpt lat="63.78312" lon="20.19569">
        <ele>51.838977</ele>
        <time>2020-10-01T08:43:05.258Z</time>
      </trkpt>
      <trkpt lat="63.78304" lon="20.19551">
        <ele>52.415544</ele>
        <time>2020-10-01T08:43:08.247Z</time>
      </trkpt>
      <trkpt lat="63.78296" lon="20.19534">
        <ele>52.979524</ele>
        <time>2020-10-01T08:43:11.248Z</time>
      </trkpt>
      <trkpt lat="63.78288" lon="20.19518">
        <ele>53.519864</ele>
        <time>2020-10-01T08:43:14.252Z</time>
      </trkpt>
      <trkpt lat="63.78281" lon="20.195">
        <ele>54.052726</ele>
        <time>2020-10-01T08:43:17.248Z</time>
      </trkpt>
      <trkpt lat="63.78274" lon="20.19483">
        <ele>54.609719</ele>
        <time>2020-10-01T08:43:20.270Z</time>
      </trkpt>
      <trkpt lat="63.78266" lon="20.19464">
        <ele>55.197541</ele>
        <time>2020-10-01T08:43:23.275Z</time>
      </trkpt>
      <trkpt lat="63.78258" lon="20.19446">
        <ele>55.786713</ele>
        <time>2020-10-01T08:43:26.274Z</time>
      </trkpt>
      <trkpt lat="63.78249" lon="20.19428">
        <ele>56.384879</ele>
        <time>2020-10-01T08:43:29.252Z</time>
      </trkpt>
      <trkpt lat="63.78242" lon="20.19415">
        <ele>56.846122</ele>
        <time>2020-10-01T08:43:31.282Z</time>
      </trkpt>
      <trkpt lat="63.78232" lon="20.19397">
        <ele>57.502701</ele>
        <time>2020-10-01T08:43:34.300Z</time>
      </trkpt>
      <trkpt lat="63.78224" lon="20.19379">
        <ele>57.809489</ele>
        <time>2020-10-01T08:43:37.247Z</time>
      </trkpt>
      <trkpt lat="63.78215" lon="20.19362">
        <ele>57.731761</ele>
        <time>2020-10-01T08:43:40.244Z</time>
      </trkpt>
      <trkpt lat="63.78205" lon="20.19346">
        <ele>57.647204</ele>
        <time>2020-10-01T08:43:43.258Z</time>
      </trkpt>
      <trkpt lat="63.78196" lon="20.19332">
        <ele>57.570424</ele>
        <time>2020-10-01T08:43:46.256Z</time>
      </trkpt>
      <trkpt lat="63.78187" lon="20.19319">
        <ele>57.495666</ele>
        <time>2020-10-01T08:43:49.247Z</time>
      </trkpt>
      <trkpt lat="63.78178" lon="20.19316">
        <ele>57.433349</ele>
        <time>2020-10-01T08:43:51.255Z</time>
      </trkpt>
      <trkpt lat="63.78169" lon="20.19317">
        <ele>57.368526</ele>
        <time>2020-10-01T08:43:53.286Z</time>
      </trkpt>
      <trkpt lat="63.78159" lon="20.19333">
        <ele>57.28155</ele>
        <time>2020-10-01T08:43:56.279Z</time>
      </trkpt>
      <trkpt lat="63.78151" lon="20.19352">
        <ele>57.199713</ele>
        <time>2020-10-01T08:43:59.286Z</time>
      </trkpt>
      <trkpt lat="63.78143" lon="20.19374">
        <ele>57.115057</ele>
        <time>2020-10-01T08:44:02.277Z</time>
      </trkpt>
      <trkpt lat="63.78136" lon="20.19396">
        <ele>57.031005</ele>
        <time>2020-10-01T08:44:05.269Z</time>
      </trkpt>
      <trkpt lat="63.78129" lon="20.19417">
        <ele>56.949594</ele>
        <time>2020-10-01T08:44:08.277Z</time>
      </trkpt>
      <trkpt lat="63.78122" lon="20.1944">
        <ele>56.864077</ele>
        <time>2020-10-01T08:44:11.261Z</time>
      </trkpt>
      <trkpt lat="63.78112" lon="20.19457">
        <ele>56.775706</ele>
        <time>2020-10-01T08:44:14.255Z</time>
      </trkpt>
      <trkpt lat="63.78103" lon="20.19461">
        <ele>56.711963</ele>
        <time>2020-10-01T08:44:16.246Z</time>
      </trkpt>
      <trkpt lat="63.78089" lon="20.19459">
        <ele>56.616293</ele>
        <time>2020-10-01T08:44:19.261Z</time>
      </trkpt>
      <trkpt lat="63.78078" lon="20.19459">
        <ele>56.26096</ele>
        <time>2020-10-01T08:44:21.273Z</time>
      </trkpt>
      <trkpt lat="63.78065" lon="20.1946">
        <ele>55.745352</ele>
        <time>2020-10-01T08:44:23.270Z</time>
      </trkpt>
      <trkpt lat="63.78052" lon="20.19462">
        <ele>55.216607</ele>
        <time>2020-10-01T08:44:25.265Z</time>
      </trkpt>
      <trkpt lat="63.78041" lon="20.19465">
        <ele>54.768371</ele>
        <time>2020-10-01T08:44:27.258Z</time>
      </trkpt>
      <trkpt lat="63.78031" lon="20.19466">
        <ele>54.37271</ele>
        <time>2020-10-01T08:44:29.261Z</time>
      </trkpt>
      <trkpt lat="63.78021" lon="20.19468">
        <ele>53.961137</ele>
        <time>2020-10-01T08:44:31.270Z</time>
      </trkpt>
      <trkpt lat="63.7801" lon="20.19471">
        <ele>53.51528</ele>
        <time>2020-10-01T08:44:33.261Z</time>
      </trkpt>
      <trkpt lat="63.77999" lon="20.19475">
        <ele>53.087656</ele>
        <time>2020-10-01T08:44:35.255Z</time>
      </trkpt>
      <trkpt lat="63.77989" lon="20.19478">
        <ele>52.684707</ele>
        <time>2020-10-01T08:44:37.276Z</time>
      </trkpt>
      <trkpt lat="63.77979" lon="20.1948">
        <ele>52.289045</ele>
        <time>2020-10-01T08:44:39.251Z</time>
      </trkpt>
      <trkpt lat="63.77969" lon="20.19481">
        <ele>51.878337</ele>
        <time>2020-10-01T08:44:41.278Z</time>
      </trkpt>
      <trkpt lat="63.77959" lon="20.19483">
        <ele>51.477476</ele>
        <time>2020-10-01T08:44:43.251Z</time>
      </trkpt>
      <trkpt lat="63.77949" lon="20.19485">
        <ele>51.077171</ele>
        <time>2020-10-01T08:44:45.257Z</time>
      </trkpt>
      <trkpt lat="63.7794" lon="20.19487">
        <ele>50.677352</ele>
        <time>2020-10-01T08:44:47.264Z</time>
      </trkpt>
      <trkpt lat="63.77929" lon="20.19489">
        <ele>50.269362</ele>
        <time>2020-10-01T08:44:49.257Z</time>
      </trkpt>
      <trkpt lat="63.7792" lon="20.19492">
        <ele>49.871641</ele>
        <time>2020-10-01T08:44:51.282Z</time>
      </trkpt>
      <trkpt lat="63.7791" lon="20.19496">
        <ele>49.491659</ele>
        <time>2020-10-01T08:44:53.246Z</time>
      </trkpt>
      <trkpt lat="63.77901" lon="20.195">
        <ele>49.288311</ele>
        <time>2020-10-01T08:44:55.260Z</time>
      </trkpt>
      <trkpt lat="63.77892" lon="20.19504">
        <ele>49.184445</ele>
        <time>2020-10-01T08:44:57.316Z</time>
      </trkpt>
      <trkpt lat="63.77883" lon="20.19508">
        <ele>49.086598</ele>
        <time>2020-10-01T08:44:59.249Z</time>
      </trkpt>
      <trkpt lat="63.77874" lon="20.19512">
        <ele>48.98895</ele>
        <time>2020-10-01T08:45:01.262Z</time>
      </trkpt>
      <trkpt lat="63.77865" lon="20.19517">
        <ele>48.886444</ele>
        <time>2020-10-01T08:45:03.240Z</time>
      </trkpt>
      <trkpt lat="63.77856" lon="20.19522">
        <ele>48.789232</ele>
        <time>2020-10-01T08:45:05.269Z</time>
      </trkpt>
      <trkpt lat="63.77843" lon="20.1953">
        <ele>48.644111</ele>
        <time>2020-10-01T08:45:08.258Z</time>
      </trkpt>
      <trkpt lat="63.77835" lon="20.19535">
        <ele>48.545936</ele>
        <time>2020-10-01T08:45:10.249Z</time>
      </trkpt>
      <trkpt lat="63.77826" lon="20.19541">
        <ele>48.448267</ele>
        <time>2020-10-01T08:45:12.260Z</time>
      </trkpt>
      <trkpt lat="63.77817" lon="20.19547">
        <ele>48.348239</ele>
        <time>2020-10-01T08:45:14.255Z</time>
      </trkpt>
      <trkpt lat="63.77805" lon="20.19556">
        <ele>48.208925</ele>
        <time>2020-10-01T08:45:17.267Z</time>
      </trkpt>
      <trkpt lat="63.77793" lon="20.19563">
        <ele>48.077518</ele>
        <time>2020-10-01T08:45:20.267Z</time>
      </trkpt>
      <trkpt lat="63.77782" lon="20.19571">
        <ele>47.950016</ele>
        <time>2020-10-01T08:45:23.246Z</time>
      </trkpt>
      <trkpt lat="63.77772" lon="20.19582">
        <ele>47.824213</ele>
        <time>2020-10-01T08:45:26.255Z</time>
      </trkpt>
      <trkpt lat="63.77761" lon="20.19594">
        <ele>47.694694</ele>
        <time>2020-10-01T08:45:29.257Z</time>
      </trkpt>
      <trkpt lat="63.7775" lon="20.19603">
        <ele>47.570796</ele>
        <time>2020-10-01T08:45:32.248Z</time>
      </trkpt>
      <trkpt lat="63.7774" lon="20.19613">
        <ele>47.452172</ele>
        <time>2020-10-01T08:45:35.247Z</time>
      </trkpt>
      <trkpt lat="63.77731" lon="20.19624">
        <ele>47.567891</ele>
        <time>2020-10-01T08:45:38.233Z</time>
      </trkpt>
      <trkpt lat="63.77721" lon="20.19635">
        <ele>47.915011</ele>
        <time>2020-10-01T08:45:41.258Z</time>
      </trkpt>
      <trkpt lat="63.7771" lon="20.19647">
        <ele>48.265489</ele>
        <time>2020-10-01T08:45:44.250Z</time>
      </trkpt>
      <trkpt lat="63.77701" lon="20.1966">
        <ele>48.615862</ele>
        <time>2020-10-01T08:45:47.261Z</time>
      </trkpt>
      <trkpt lat="63.7769" lon="20.19674">
        <ele>48.977722</ele>
        <time>2020-10-01T08:45:50.268Z</time>
      </trkpt>
      <trkpt lat="63.7768" lon="20.19687">
        <ele>49.338617</ele>
        <time>2020-10-01T08:45:53.254Z</time>
      </trkpt>
      <trkpt lat="63.7767" lon="20.197">
        <ele>49.683642</ele>
        <time>2020-10-01T08:45:56.249Z</time>
      </trkpt>
      <trkpt lat="63.7766" lon="20.19713">
        <ele>50.03206</ele>
        <time>2020-10-01T08:45:59.250Z</time>
      </trkpt>
      <trkpt lat="63.77651" lon="20.19725">
        <ele>50.352724</ele>
        <time>2020-10-01T08:46:02.283Z</time>
      </trkpt>
      <trkpt lat="63.77643" lon="20.19738">
        <ele>50.670743</ele>
        <time>2020-10-01T08:46:05.241Z</time>
      </trkpt>
      <trkpt lat="63.77634" lon="20.19752">
        <ele>50.983346</ele>
        <time>2020-10-01T08:46:08.269Z</time>
      </trkpt>
      <trkpt lat="63.77626" lon="20.19765">
        <ele>51.303617</ele>
        <time>2020-10-01T08:46:11.254Z</time>
      </trkpt>
      <trkpt lat="63.77616" lon="20.19778">
        <ele>51.632988</ele>
        <time>2020-10-01T08:46:14.249Z</time>
      </trkpt>
      <trkpt lat="63.77606" lon="20.19793">
        <ele>51.995562</ele>
        <time>2020-10-01T08:46:17.247Z</time>
      </trkpt>
      <trkpt lat="63.77596" lon="20.19808">
        <ele>52.372746</ele>
        <time>2020-10-01T08:46:20.254Z</time>
      </trkpt>
      <trkpt lat="63.77586" lon="20.19824">
        <ele>52.737187</ele>
        <time>2020-10-01T08:46:23.266Z</time>
      </trkpt>
      <trkpt lat="63.77577" lon="20.19839">
        <ele>52.887987</ele>
        <time>2020-10-01T08:46:26.284Z</time>
      </trkpt>
      <trkpt lat="63.77568" lon="20.19852">
        <ele>52.912042</ele>
        <time>2020-10-01T08:46:29.266Z</time>
      </trkpt>
      <trkpt lat="63.77559" lon="20.19863">
        <ele>52.935829</ele>
        <time>2020-10-01T08:46:32.264Z</time>
      </trkpt>
      <trkpt lat="63.7755" lon="20.19872">
        <ele>52.957824</ele>
        <time>2020-10-01T08:46:35.242Z</time>
      </trkpt>
      <trkpt lat="63.77541" lon="20.19878">
        <ele>52.979098</ele>
        <time>2020-10-01T08:46:38.263Z</time>
      </trkpt>
      <trkpt lat="63.77531" lon="20.19884">
        <ele>53.000442</ele>
        <time>2020-10-01T08:46:41.257Z</time>
      </trkpt>
      <trkpt lat="63.77521" lon="20.19892">
        <ele>53.024667</ele>
        <time>2020-10-01T08:46:44.238Z</time>
      </trkpt>
      <trkpt lat="63.7751" lon="20.199">
        <ele>53.051046</ele>
        <time>2020-10-01T08:46:47.254Z</time>
      </trkpt>
      <trkpt lat="63.77498" lon="20.19907">
        <ele>53.07794</ele>
        <time>2020-10-01T08:46:50.240Z</time>
      </trkpt>
      <trkpt lat="63.77486" lon="20.19914">
        <ele>53.106517</ele>
        <time>2020-10-01T08:46:53.251Z</time>
      </trkpt>
      <trkpt lat="63.77477" lon="20.19921">
        <ele>53.127618</ele>
        <time>2020-10-01T08:46:55.258Z</time>
      </trkpt>
      <trkpt lat="63.77467" lon="20.19929">
        <ele>53.150195</ele>
        <time>2020-10-01T08:46:57.249Z</time>
      </trkpt>
      <trkpt lat="63.77458" lon="20.19936">
        <ele>53.171115</ele>
        <time>2020-10-01T08:46:59.250Z</time>
      </trkpt>
      <trkpt lat="63.77449" lon="20.19942">
        <ele>53.193974</ele>
        <time>2020-10-01T08:47:01.290Z</time>
      </trkpt>
      <trkpt lat="63.77439" lon="20.1995">
        <ele>53.217145</ele>
        <time>2020-10-01T08:47:03.240Z</time>
      </trkpt>
      <trkpt lat="63.77429" lon="20.19957">
        <ele>53.240853</ele>
        <time>2020-10-01T08:47:05.264Z</time>
      </trkpt>
      <trkpt lat="63.77419" lon="20.19963">
        <ele>53.264023</ele>
        <time>2020-10-01T08:47:07.259Z</time>
      </trkpt>
      <trkpt lat="63.77408" lon="20.19968">
        <ele>53.107336</ele>
        <time>2020-10-01T08:47:09.261Z</time>
      </trkpt>
      <trkpt lat="63.77397" lon="20.19975">
        <ele>52.773109</ele>
        <time>2020-10-01T08:47:11.252Z</time>
      </trkpt>
      <trkpt lat="63.77386" lon="20.19985">
        <ele>52.43871</ele>
        <time>2020-10-01T08:47:13.257Z</time>
      </trkpt>
      <trkpt lat="63.77375" lon="20.19996">
        <ele>52.096083</ele>
        <time>2020-10-01T08:47:15.246Z</time>
      </trkpt>
      <trkpt lat="63.77364" lon="20.20007">
        <ele>51.766183</ele>
        <time>2020-10-01T08:47:17.267Z</time>
      </trkpt>
      <trkpt lat="63.77354" lon="20.20017">
        <ele>51.455733</ele>
        <time>2020-10-01T08:47:19.261Z</time>
      </trkpt>
      <trkpt lat="63.77344" lon="20.20028">
        <ele>51.152327</ele>
        <time>2020-10-01T08:47:21.264Z</time>
      </trkpt>
      <trkpt lat="63.77335" lon="20.20037">
        <ele>50.864892</ele>
        <time>2020-10-01T08:47:23.273Z</time>
      </trkpt>
      <trkpt lat="63.77325" lon="20.20045">
        <ele>50.569438</ele>
        <time>2020-10-01T08:47:25.284Z</time>
      </trkpt>
      <trkpt lat="63.77314" lon="20.20058">
        <ele>50.232044</ele>
        <time>2020-10-01T08:47:27.261Z</time>
      </trkpt>
      <trkpt lat="63.77304" lon="20.20072">
        <ele>49.895679</ele>
        <time>2020-10-01T08:47:29.291Z</time>
      </trkpt>
      <trkpt lat="63.77295" lon="20.20087">
        <ele>49.581497</ele>
        <time>2020-10-01T08:47:31.250Z</time>
      </trkpt>
      <trkpt lat="63.77285" lon="20.20099">
        <ele>49.278391</ele>
        <time>2020-10-01T08:47:33.263Z</time>
      </trkpt>
      <trkpt lat="63.77277" lon="20.20111">
        <ele>48.991365</ele>
        <time>2020-10-01T08:47:35.275Z</time>
      </trkpt>
      <trkpt lat="63.77268" lon="20.20123">
        <ele>48.714261</ele>
        <time>2020-10-01T08:47:37.260Z</time>
      </trkpt>
      <trkpt lat="63.77262" lon="20.20138">
        <ele>48.446226</ele>
        <time>2020-10-01T08:47:39.300Z</time>
      </trkpt>
      <trkpt lat="63.77256" lon="20.20156">
        <ele>48.230517</ele>
        <time>2020-10-01T08:47:41.239Z</time>
      </trkpt>
      <trkpt lat="63.77254" lon="20.20177">
        <ele>48.257508</ele>
        <time>2020-10-01T08:47:43.284Z</time>
      </trkpt>
      <trkpt lat="63.77253" lon="20.20198">
        <ele>48.283175</ele>
        <time>2020-10-01T08:47:45.255Z</time>
      </trkpt>
      <trkpt lat="63.77251" lon="20.20221">
        <ele>48.311333</ele>
        <time>2020-10-01T08:47:47.293Z</time>
      </trkpt>
      <trkpt lat="63.77249" lon="20.20243">
        <ele>48.339363</ele>
        <time>2020-10-01T08:47:49.319Z</time>
      </trkpt>
      <trkpt lat="63.77247" lon="20.20263">
        <ele>48.365005</ele>
        <time>2020-10-01T08:47:51.277Z</time>
      </trkpt>
      <trkpt lat="63.77245" lon="20.20284">
        <ele>48.391368</ele>
        <time>2020-10-01T08:47:53.282Z</time>
      </trkpt>
      <trkpt lat="63.77243" lon="20.20307">
        <ele>48.420599</ele>
        <time>2020-10-01T08:47:55.260Z</time>
      </trkpt>
      <trkpt lat="63.77237" lon="20.20327">
        <ele>48.449082</ele>
        <time>2020-10-01T08:47:57.300Z</time>
      </trkpt>
      <trkpt lat="63.77227" lon="20.20341">
        <ele>48.481452</ele>
        <time>2020-10-01T08:47:59.247Z</time>
      </trkpt>
      <trkpt lat="63.77217" lon="20.20348">
        <ele>48.511607</ele>
        <time>2020-10-01T08:48:01.258Z</time>
      </trkpt>
      <trkpt lat="63.77208" lon="20.20351">
        <ele>48.537039</ele>
        <time>2020-10-01T08:48:03.268Z</time>
      </trkpt>
      <trkpt lat="63.77196" lon="20.20356">
        <ele>48.57066</ele>
        <time>2020-10-01T08:48:06.264Z</time>
      </trkpt>
      <trkpt lat="63.77184" lon="20.2036">
        <ele>48.605379</ele>
        <time>2020-10-01T08:48:09.272Z</time>
      </trkpt>
      <trkpt lat="63.77171" lon="20.20364">
        <ele>48.641832</ele>
        <time>2020-10-01T08:48:12.263Z</time>
      </trkpt>
      <trkpt lat="63.77161" lon="20.20366">
        <ele>48.668643</ele>
        <time>2020-10-01T08:48:14.238Z</time>
      </trkpt>
      <trkpt lat="63.77151" lon="20.2037">
        <ele>48.69591</ele>
        <time>2020-10-01T08:48:16.249Z</time>
      </trkpt>
      <trkpt lat="63.77142" lon="20.20372">
        <ele>48.722721</ele>
        <time>2020-10-01T08:48:18.273Z</time>
      </trkpt>
      <trkpt lat="63.77132" lon="20.20375">
        <ele>48.720257</ele>
        <time>2020-10-01T08:48:20.238Z</time>
      </trkpt>
      <trkpt lat="63.77122" lon="20.20378">
        <ele>48.714253</ele>
        <time>2020-10-01T08:48:22.261Z</time>
      </trkpt>
      <trkpt lat="63.77113" lon="20.20382">
        <ele>48.708616</ele>
        <time>2020-10-01T08:48:24.287Z</time>
      </trkpt>
      <trkpt lat="63.77104" lon="20.20385">
        <ele>48.702987</ele>
        <time>2020-10-01T08:48:26.247Z</time>
      </trkpt>
      <trkpt lat="63.77095" lon="20.20388">
        <ele>48.697498</ele>
        <time>2020-10-01T08:48:28.249Z</time>
      </trkpt>
      <trkpt lat="63.77082" lon="20.20394">
        <ele>48.689576</ele>
        <time>2020-10-01T08:48:31.261Z</time>
      </trkpt>
      <trkpt lat="63.77072" lon="20.20398">
        <ele>48.683553</ele>
        <time>2020-10-01T08:48:33.272Z</time>
      </trkpt>
      <trkpt lat="63.77062" lon="20.20403">
        <ele>48.677358</ele>
        <time>2020-10-01T08:48:35.236Z</time>
      </trkpt>
      <trkpt lat="63.77053" lon="20.20407">
        <ele>48.671636</ele>
        <time>2020-10-01T08:48:37.289Z</time>
      </trkpt>
      <trkpt lat="63.77043" lon="20.20412">
        <ele>48.665964</ele>
        <time>2020-10-01T08:48:39.280Z</time>
      </trkpt>
      <trkpt lat="63.77034" lon="20.20415">
        <ele>48.660207</ele>
        <time>2020-10-01T08:48:41.245Z</time>
      </trkpt>
      <trkpt lat="63.77025" lon="20.20419">
        <ele>48.654491</ele>
        <time>2020-10-01T08:48:43.249Z</time>
      </trkpt>
      <trkpt lat="63.77015" lon="20.20424">
        <ele>48.648737</ele>
        <time>2020-10-01T08:48:45.249Z</time>
      </trkpt>
      <trkpt lat="63.77006" lon="20.20429">
        <ele>48.642806</ele>
        <time>2020-10-01T08:48:47.258Z</time>
      </trkpt>
      <trkpt lat="63.76996" lon="20.20433">
        <ele>48.636892</ele>
        <time>2020-10-01T08:48:49.283Z</time>
      </trkpt>
      <trkpt lat="63.76987" lon="20.20437">
        <ele>48.631052</ele>
        <time>2020-10-01T08:48:51.245Z</time>
      </trkpt>
      <trkpt lat="63.76977" lon="20.2044">
        <ele>48.625308</ele>
        <time>2020-10-01T08:48:53.238Z</time>
      </trkpt>
      <trkpt lat="63.76968" lon="20.20445">
        <ele>48.619458</ele>
        <time>2020-10-01T08:48:55.265Z</time>
      </trkpt>
      <trkpt lat="63.76958" lon="20.20449">
        <ele>48.589173</ele>
        <time>2020-10-01T08:48:57.297Z</time>
      </trkpt>
      <trkpt lat="63.76949" lon="20.20453">
        <ele>48.542605</ele>
        <time>2020-10-01T08:48:59.241Z</time>
      </trkpt>
      <trkpt lat="63.7694" lon="20.20458">
        <ele>48.496388</ele>
        <time>2020-10-01T08:49:01.240Z</time>
      </trkpt>
      <trkpt lat="63.76931" lon="20.20463">
        <ele>48.448748</ele>
        <time>2020-10-01T08:49:03.261Z</time>
      </trkpt>
      <trkpt lat="63.76921" lon="20.20468">
        <ele>48.400403</ele>
        <time>2020-10-01T08:49:05.249Z</time>
      </trkpt>
      <trkpt lat="63.76912" lon="20.20473">
        <ele>48.352336</ele>
        <time>2020-10-01T08:49:07.283Z</time>
      </trkpt>
      <trkpt lat="63.76902" lon="20.20479">
        <ele>48.303626</ele>
        <time>2020-10-01T08:49:09.260Z</time>
      </trkpt>
      <trkpt lat="63.76893" lon="20.20484">
        <ele>48.258178</ele>
        <time>2020-10-01T08:49:11.254Z</time>
      </trkpt>
      <trkpt lat="63.76884" lon="20.20489">
        <ele>48.212248</ele>
        <time>2020-10-01T08:49:13.265Z</time>
      </trkpt>
      <trkpt lat="63.76876" lon="20.20494">
        <ele>48.166584</ele>
        <time>2020-10-01T08:49:15.275Z</time>
      </trkpt>
      <trkpt lat="63.76866" lon="20.205">
        <ele>48.119615</ele>
        <time>2020-10-01T08:49:17.239Z</time>
      </trkpt>
      <trkpt lat="63.76857" lon="20.20505">
        <ele>48.072564</ele>
        <time>2020-10-01T08:49:19.265Z</time>
      </trkpt>
      <trkpt lat="63.76848" lon="20.2051">
        <ele>48.02498</ele>
        <time>2020-10-01T08:49:21.250Z</time>
      </trkpt>
      <trkpt lat="63.76839" lon="20.20515">
        <ele>47.978356</ele>
        <time>2020-10-01T08:49:23.247Z</time>
      </trkpt>
      <trkpt lat="63.76826" lon="20.20521">
        <ele>47.912967</ele>
        <time>2020-10-01T08:49:26.242Z</time>
      </trkpt>
      <trkpt lat="63.76813" lon="20.20529">
        <ele>47.846826</ele>
        <time>2020-10-01T08:49:29.259Z</time>
      </trkpt>
      <trkpt lat="63.76804" lon="20.20535">
        <ele>47.802173</ele>
        <time>2020-10-01T08:49:31.258Z</time>
      </trkpt>
      <trkpt lat="63.76796" lon="20.2054">
        <ele>47.756632</ele>
        <time>2020-10-01T08:49:33.254Z</time>
      </trkpt>
      <trkpt lat="63.76783" lon="20.20549">
        <ele>47.756333</ele>
        <time>2020-10-01T08:49:36.268Z</time>
      </trkpt>
      <trkpt lat="63.76771" lon="20.20557">
        <ele>47.818387</ele>
        <time>2020-10-01T08:49:39.246Z</time>
      </trkpt>
      <trkpt lat="63.76758" lon="20.20567">
        <ele>47.886124</ele>
        <time>2020-10-01T08:49:42.253Z</time>
      </trkpt>
      <trkpt lat="63.76749" lon="20.20574">
        <ele>47.931925</ele>
        <time>2020-10-01T08:49:44.257Z</time>
      </trkpt>
      <trkpt lat="63.7674" lon="20.2058">
        <ele>47.977295</ele>
        <time>2020-10-01T08:49:46.274Z</time>
      </trkpt>
      <trkpt lat="63.76732" lon="20.20586">
        <ele>48.022686</ele>
        <time>2020-10-01T08:49:48.248Z</time>
      </trkpt>
      <trkpt lat="63.76722" lon="20.20592">
        <ele>48.069299</ele>
        <time>2020-10-01T08:49:50.281Z</time>
      </trkpt>
      <trkpt lat="63.76714" lon="20.20598">
        <ele>48.11384</ele>
        <time>2020-10-01T08:49:52.297Z</time>
      </trkpt>
      <trkpt lat="63.76705" lon="20.20603">
        <ele>48.15952</ele>
        <time>2020-10-01T08:49:54.266Z</time>
      </trkpt>
      <trkpt lat="63.76692" lon="20.20611">
        <ele>48.225299</ele>
        <time>2020-10-01T08:49:57.266Z</time>
      </trkpt>
      <trkpt lat="63.76683" lon="20.20617">
        <ele>48.270968</ele>
        <time>2020-10-01T08:49:59.245Z</time>
      </trkpt>
      <trkpt lat="63.76674" lon="20.20624">
        <ele>48.318841</ele>
        <time>2020-10-01T08:50:01.266Z</time>
      </trkpt>
      <trkpt lat="63.76664" lon="20.2063">
        <ele>48.366399</ele>
        <time>2020-10-01T08:50:03.247Z</time>
      </trkpt>
      <trkpt lat="63.76655" lon="20.20636">
        <ele>48.415207</ele>
        <time>2020-10-01T08:50:05.280Z</time>
      </trkpt>
      <trkpt lat="63.76646" lon="20.20643">
        <ele>48.462006</ele>
        <time>2020-10-01T08:50:07.249Z</time>
      </trkpt>
      <trkpt lat="63.76637" lon="20.20649">
        <ele>48.509152</ele>
        <time>2020-10-01T08:50:09.270Z</time>
      </trkpt>
      <trkpt lat="63.76628" lon="20.20655">
        <ele>48.555587</ele>
        <time>2020-10-01T08:50:11.265Z</time>
      </trkpt>
      <trkpt lat="63.76618" lon="20.2066">
        <ele>48.603085</ele>
        <time>2020-10-01T08:50:13.265Z</time>
      </trkpt>
      <trkpt lat="63.76609" lon="20.20667">
        <ele>48.626834</ele>
        <time>2020-10-01T08:50:15.266Z</time>
      </trkpt>
      <trkpt lat="63.766" lon="20.20673">
        <ele>48.645696</ele>
        <time>2020-10-01T08:50:17.269Z</time>
      </trkpt>
      <trkpt lat="63.76588" lon="20.20682">
        <ele>48.67262</ele>
        <time>2020-10-01T08:50:20.282Z</time>
      </trkpt>
      <trkpt lat="63.76576" lon="20.20691">
        <ele>48.698779</ele>
        <time>2020-10-01T08:50:23.253Z</time>
      </trkpt>
      <trkpt lat="63.76565" lon="20.20697">
        <ele>48.723826</ele>
        <time>2020-10-01T08:50:26.278Z</time>
      </trkpt>
      <trkpt lat="63.76552" lon="20.20705">
        <ele>48.750624</ele>
        <time>2020-10-01T08:50:29.295Z</time>
      </trkpt>
      <trkpt lat="63.76544" lon="20.2071">
        <ele>48.769618</ele>
        <time>2020-10-01T08:50:31.267Z</time>
      </trkpt>
      <trkpt lat="63.76531" lon="20.20718">
        <ele>48.796896</ele>
        <time>2020-10-01T08:50:34.247Z</time>
      </trkpt>
      <trkpt lat="63.76519" lon="20.20726">
        <ele>48.823502</ele>
        <time>2020-10-01T08:50:37.247Z</time>
      </trkpt>
      <trkpt lat="63.76507" lon="20.20734">
        <ele>48.850325</ele>
        <time>2020-10-01T08:50:40.264Z</time>
      </trkpt>
      <trkpt lat="63.76498" lon="20.2074">
        <ele>48.869471</ele>
        <time>2020-10-01T08:50:42.257Z</time>
      </trkpt>
      <trkpt lat="63.76485" lon="20.20748">
        <ele>48.897028</ele>
        <time>2020-10-01T08:50:45.256Z</time>
      </trkpt>
      <trkpt lat="63.76473" lon="20.20755">
        <ele>48.923159</ele>
        <time>2020-10-01T08:50:48.270Z</time>
      </trkpt>
      <trkpt lat="63.76461" lon="20.20763">
        <ele>48.949004</ele>
        <time>2020-10-01T08:50:51.278Z</time>
      </trkpt>
      <trkpt lat="63.76449" lon="20.20772">
        <ele>48.975104</ele>
        <time>2020-10-01T08:50:54.238Z</time>
      </trkpt>
      <trkpt lat="63.76438" lon="20.20779">
        <ele>49.012306</ele>
        <time>2020-10-01T08:50:57.253Z</time>
      </trkpt>
      <trkpt lat="63.76427" lon="20.20783">
        <ele>49.057861</ele>
        <time>2020-10-01T08:51:00.248Z</time>
      </trkpt>
      <trkpt lat="63.76415" lon="20.20791">
        <ele>49.108226</ele>
        <time>2020-10-01T08:51:03.270Z</time>
      </trkpt>
      <trkpt lat="63.76403" lon="20.208">
        <ele>49.159553</ele>
        <time>2020-10-01T08:51:06.259Z</time>
      </trkpt>
      <trkpt lat="63.76391" lon="20.20808">
        <ele>49.210258</ele>
        <time>2020-10-01T08:51:09.263Z</time>
      </trkpt>
      <trkpt lat="63.76379" lon="20.20817">
        <ele>49.261256</ele>
        <time>2020-10-01T08:51:12.238Z</time>
      </trkpt>
      <trkpt lat="63.76367" lon="20.20825">
        <ele>49.31221</ele>
        <time>2020-10-01T08:51:15.258Z</time>
      </trkpt>
      <trkpt lat="63.76354" lon="20.20832">
        <ele>49.366428</ele>
        <time>2020-10-01T08:51:18.258Z</time>
      </trkpt>
      <trkpt lat="63.76344" lon="20.20836">
        <ele>49.40422</ele>
        <time>2020-10-01T08:51:20.243Z</time>
      </trkpt>
      <trkpt lat="63.76335" lon="20.20839">
        <ele>49.442939</ele>
        <time>2020-10-01T08:51:22.276Z</time>
      </trkpt>
      <trkpt lat="63.76326" lon="20.20842">
        <ele>49.479807</ele>
        <time>2020-10-01T08:51:24.257Z</time>
      </trkpt>
      <trkpt lat="63.76317" lon="20.20847">
        <ele>49.516914</ele>
        <time>2020-10-01T08:51:26.269Z</time>
      </trkpt>
      <trkpt lat="63.76308" lon="20.2085">
        <ele>49.553186</ele>
        <time>2020-10-01T08:51:28.267Z</time>
      </trkpt>
      <trkpt lat="63.76298" lon="20.20852">
        <ele>49.592076</ele>
        <time>2020-10-01T08:51:30.283Z</time>
      </trkpt>
      <trkpt lat="63.76289" lon="20.20854">
        <ele>49.63228</ele>
        <time>2020-10-01T08:51:32.247Z</time>
      </trkpt>
      <trkpt lat="63.76279" lon="20.20857">
        <ele>49.670481</ele>
        <time>2020-10-01T08:51:34.249Z</time>
      </trkpt>
      <trkpt lat="63.7627" lon="20.2086">
        <ele>49.708854</ele>
        <time>2020-10-01T08:51:36.242Z</time>
      </trkpt>
      <trkpt lat="63.7626" lon="20.20865">
        <ele>49.65445</ele>
        <time>2020-10-01T08:51:38.272Z</time>
      </trkpt>
      <trkpt lat="63.76251" lon="20.20869">
        <ele>49.594832</ele>
        <time>2020-10-01T08:51:40.246Z</time>
      </trkpt>
      <trkpt lat="63.76242" lon="20.20874">
        <ele>49.536495</ele>
        <time>2020-10-01T08:51:42.261Z</time>
      </trkpt>
      <trkpt lat="63.76233" lon="20.20879">
        <ele>49.477233</ele>
        <time>2020-10-01T08:51:44.252Z</time>
      </trkpt>
      <trkpt lat="63.76219" lon="20.20886">
        <ele>49.391434</ele>
        <time>2020-10-01T08:51:47.240Z</time>
      </trkpt>
      <trkpt lat="63.7621" lon="20.20891">
        <ele>49.33015</ele>
        <time>2020-10-01T08:51:49.257Z</time>
      </trkpt>
      <trkpt lat="63.76201" lon="20.20898">
        <ele>49.270785</ele>
        <time>2020-10-01T08:51:51.265Z</time>
      </trkpt>
      <trkpt lat="63.76191" lon="20.20905">
        <ele>49.210317</ele>
        <time>2020-10-01T08:51:53.257Z</time>
      </trkpt>
      <trkpt lat="63.76183" lon="20.20913">
        <ele>49.152245</ele>
        <time>2020-10-01T08:51:55.270Z</time>
      </trkpt>
      <trkpt lat="63.76174" lon="20.20919">
        <ele>49.093982</ele>
        <time>2020-10-01T08:51:57.260Z</time>
      </trkpt>
      <trkpt lat="63.76165" lon="20.20925">
        <ele>49.03468</ele>
        <time>2020-10-01T08:51:59.272Z</time>
      </trkpt>
      <trkpt lat="63.76155" lon="20.20933">
        <ele>48.971355</ele>
        <time>2020-10-01T08:52:01.250Z</time>
      </trkpt>
      <trkpt lat="63.76146" lon="20.20942">
        <ele>48.907283</ele>
        <time>2020-10-01T08:52:03.251Z</time>
      </trkpt>
      <trkpt lat="63.76137" lon="20.20952">
        <ele>48.844579</ele>
        <time>2020-10-01T08:52:05.244Z</time>
      </trkpt>
      <trkpt lat="63.76128" lon="20.20961">
        <ele>48.78142</ele>
        <time>2020-10-01T08:52:07.239Z</time>
      </trkpt>
      <trkpt lat="63.76119" lon="20.20968">
        <ele>48.720693</ele>
        <time>2020-10-01T08:52:09.266Z</time>
      </trkpt>
      <trkpt lat="63.76109" lon="20.20968">
        <ele>48.659381</ele>
        <time>2020-10-01T08:52:11.259Z</time>
      </trkpt>
      <trkpt lat="63.76099" lon="20.20959">
        <ele>48.594259</ele>
        <time>2020-10-01T08:52:13.267Z</time>
      </trkpt>
      <trkpt lat="63.76092" lon="20.20941">
        <ele>48.812623</ele>
        <time>2020-10-01T08:52:15.263Z</time>
      </trkpt>
      <trkpt lat="63.76085" lon="20.20924">
        <ele>49.051031</ele>
        <time>2020-10-01T08:52:17.241Z</time>
      </trkpt>
      <trkpt lat="63.76075" lon="20.20906">
        <ele>49.365591</ele>
        <time>2020-10-01T08:52:20.240Z</time>
      </trkpt>
      <trkpt lat="63.76065" lon="20.20898">
        <ele>49.60011</ele>
        <time>2020-10-01T08:52:22.256Z</time>
      </trkpt>
      <trkpt lat="63.76055" lon="20.20891">
        <ele>49.848272</ele>
        <time>2020-10-01T08:52:24.254Z</time>
      </trkpt>
      <trkpt lat="63.76046" lon="20.20884">
        <ele>50.083253</ele>
        <time>2020-10-01T08:52:26.241Z</time>
      </trkpt>
      <trkpt lat="63.76036" lon="20.20878">
        <ele>50.317991</ele>
        <time>2020-10-01T08:52:28.258Z</time>
      </trkpt>
      <trkpt lat="63.76027" lon="20.20873">
        <ele>50.549665</ele>
        <time>2020-10-01T08:52:30.252Z</time>
      </trkpt>
      <trkpt lat="63.76018" lon="20.20869">
        <ele>50.77289</ele>
        <time>2020-10-01T08:52:32.266Z</time>
      </trkpt>
      <trkpt lat="63.76008" lon="20.20866">
        <ele>50.991104</ele>
        <time>2020-10-01T08:52:34.278Z</time>
      </trkpt>
      <trkpt lat="63.75999" lon="20.20862">
        <ele>51.219347</ele>
        <time>2020-10-01T08:52:36.253Z</time>
      </trkpt>
      <trkpt lat="63.75989" lon="20.20858">
        <ele>51.448947</ele>
        <time>2020-10-01T08:52:38.246Z</time>
      </trkpt>
      <trkpt lat="63.7598" lon="20.20854">
        <ele>51.684731</ele>
        <time>2020-10-01T08:52:40.243Z</time>
      </trkpt>
      <trkpt lat="63.7597" lon="20.2085">
        <ele>51.917471</ele>
        <time>2020-10-01T08:52:42.294Z</time>
      </trkpt>
      <trkpt lat="63.75961" lon="20.20845">
        <ele>52.135379</ele>
        <time>2020-10-01T08:52:44.309Z</time>
      </trkpt>
      <trkpt lat="63.75952" lon="20.2084">
        <ele>52.366086</ele>
        <time>2020-10-01T08:52:46.306Z</time>
      </trkpt>
      <trkpt lat="63.75943" lon="20.20835">
        <ele>52.584264</ele>
        <time>2020-10-01T08:52:48.261Z</time>
      </trkpt>
      <trkpt lat="63.75933" lon="20.20829">
        <ele>52.812679</ele>
        <time>2020-10-01T08:52:50.261Z</time>
      </trkpt>
      <trkpt lat="63.75924" lon="20.20824">
        <ele>52.764474</ele>
        <time>2020-10-01T08:52:52.264Z</time>
      </trkpt>
      <trkpt lat="63.75915" lon="20.20819">
        <ele>52.667221</ele>
        <time>2020-10-01T08:52:54.252Z</time>
      </trkpt>
      <trkpt lat="63.75906" lon="20.20815">
        <ele>52.568839</ele>
        <time>2020-10-01T08:52:56.273Z</time>
      </trkpt>
      <trkpt lat="63.75896" lon="20.20812">
        <ele>52.466741</ele>
        <time>2020-10-01T08:52:58.242Z</time>
      </trkpt>
      <trkpt lat="63.75886" lon="20.20808">
        <ele>52.362107</ele>
        <time>2020-10-01T08:53:00.246Z</time>
      </trkpt>
      <trkpt lat="63.75876" lon="20.20804">
        <ele>52.257801</ele>
        <time>2020-10-01T08:53:02.262Z</time>
      </trkpt>
      <trkpt lat="63.75867" lon="20.208">
        <ele>52.158479</ele>
        <time>2020-10-01T08:53:04.273Z</time>
      </trkpt>
      <trkpt lat="63.75857" lon="20.20796">
        <ele>52.054532</ele>
        <time>2020-10-01T08:53:06.251Z</time>
      </trkpt>
      <trkpt lat="63.75847" lon="20.20792">
        <ele>51.947865</ele>
        <time>2020-10-01T08:53:08.246Z</time>
      </trkpt>
      <trkpt lat="63.75837" lon="20.20788">
        <ele>51.8444</ele>
        <time>2020-10-01T08:53:10.243Z</time>
      </trkpt>
      <trkpt lat="63.75826" lon="20.20784">
        <ele>51.737808</ele>
        <time>2020-10-01T08:53:12.282Z</time>
      </trkpt>
      <trkpt lat="63.75817" lon="20.20781">
        <ele>51.634342</ele>
        <time>2020-10-01T08:53:14.265Z</time>
      </trkpt>
      <trkpt lat="63.75807" lon="20.20777">
        <ele>51.532245</ele>
        <time>2020-10-01T08:53:16.281Z</time>
      </trkpt>
      <trkpt lat="63.75797" lon="20.20774">
        <ele>51.435247</ele>
        <time>2020-10-01T08:53:18.254Z</time>
      </trkpt>
      <trkpt lat="63.75788" lon="20.20771">
        <ele>51.339268</ele>
        <time>2020-10-01T08:53:20.277Z</time>
      </trkpt>
      <trkpt lat="63.75779" lon="20.20768">
        <ele>51.242129</ele>
        <time>2020-10-01T08:53:22.303Z</time>
      </trkpt>
      <trkpt lat="63.7577" lon="20.20764">
        <ele>51.144042</ele>
        <time>2020-10-01T08:53:24.253Z</time>
      </trkpt>
      <trkpt lat="63.7576" lon="20.20761">
        <ele>51.045737</ele>
        <time>2020-10-01T08:53:26.270Z</time>
      </trkpt>
      <trkpt lat="63.75751" lon="20.20757">
        <ele>50.887339</ele>
        <time>2020-10-01T08:53:28.265Z</time>
      </trkpt>
      <trkpt lat="63.75742" lon="20.20754">
        <ele>50.642377</ele>
        <time>2020-10-01T08:53:30.275Z</time>
      </trkpt>
      <trkpt lat="63.75732" lon="20.20751">
        <ele>50.396536</ele>
        <time>2020-10-01T08:53:32.238Z</time>
      </trkpt>
      <trkpt lat="63.75723" lon="20.20748">
        <ele>50.154155</ele>
        <time>2020-10-01T08:53:34.300Z</time>
      </trkpt>
      <trkpt lat="63.75714" lon="20.20745">
        <ele>49.914677</ele>
        <time>2020-10-01T08:53:36.245Z</time>
      </trkpt>
      <trkpt lat="63.75704" lon="20.20741">
        <ele>49.660929</ele>
        <time>2020-10-01T08:53:38.247Z</time>
      </trkpt>
      <trkpt lat="63.75695" lon="20.20737">
        <ele>49.400397</ele>
        <time>2020-10-01T08:53:40.241Z</time>
      </trkpt>
      <trkpt lat="63.75685" lon="20.20733">
        <ele>49.153756</ele>
        <time>2020-10-01T08:53:42.260Z</time>
      </trkpt>
      <trkpt lat="63.75676" lon="20.20729">
        <ele>48.908551</ele>
        <time>2020-10-01T08:53:44.239Z</time>
      </trkpt>
      <trkpt lat="63.75663" lon="20.20723">
        <ele>48.55578</ele>
        <time>2020-10-01T08:53:47.280Z</time>
      </trkpt>
      <trkpt lat="63.75653" lon="20.20718">
        <ele>48.294552</ele>
        <time>2020-10-01T08:53:49.265Z</time>
      </trkpt>
      <trkpt lat="63.75643" lon="20.20714">
        <ele>48.031896</ele>
        <time>2020-10-01T08:53:51.273Z</time>
      </trkpt>
      <trkpt lat="63.75633" lon="20.20709">
        <ele>47.76301</ele>
        <time>2020-10-01T08:53:53.261Z</time>
      </trkpt>
      <trkpt lat="63.75622" lon="20.20703">
        <ele>47.477509</ele>
        <time>2020-10-01T08:53:55.258Z</time>
      </trkpt>
      <trkpt lat="63.75613" lon="20.20697">
        <ele>47.212765</ele>
        <time>2020-10-01T08:53:57.253Z</time>
      </trkpt>
      <trkpt lat="63.75603" lon="20.20691">
        <ele>46.944271</ele>
        <time>2020-10-01T08:53:59.265Z</time>
      </trkpt>
      <trkpt lat="63.75593" lon="20.20686">
        <ele>46.680956</ele>
        <time>2020-10-01T08:54:01.293Z</time>
      </trkpt>
      <trkpt lat="63.75583" lon="20.20683">
        <ele>46.417265</ele>
        <time>2020-10-01T08:54:03.254Z</time>
      </trkpt>
      <trkpt lat="63.75573" lon="20.2068">
        <ele>46.208807</ele>
        <time>2020-10-01T08:54:05.249Z</time>
      </trkpt>
      <trkpt lat="63.75562" lon="20.20676">
        <ele>46.018739</ele>
        <time>2020-10-01T08:54:07.316Z</time>
      </trkpt>
      <trkpt lat="63.75551" lon="20.20671">
        <ele>45.817586</ele>
        <time>2020-10-01T08:54:09.277Z</time>
      </trkpt>
      <trkpt lat="63.7554" lon="20.20665">
        <ele>45.619426</ele>
        <time>2020-10-01T08:54:11.245Z</time>
      </trkpt>
      <trkpt lat="63.75529" lon="20.2066">
        <ele>45.431172</ele>
        <time>2020-10-01T08:54:13.270Z</time>
      </trkpt>
      <trkpt lat="63.75519" lon="20.20655">
        <ele>45.261146</ele>
        <time>2020-10-01T08:54:15.250Z</time>
      </trkpt>
      <trkpt lat="63.7551" lon="20.20651">
        <ele>45.0952</ele>
        <time>2020-10-01T08:54:17.268Z</time>
      </trkpt>
      <trkpt lat="63.75501" lon="20.20648">
        <ele>44.939681</ele>
        <time>2020-10-01T08:54:19.256Z</time>
      </trkpt>
      <trkpt lat="63.75492" lon="20.20643">
        <ele>44.782975</ele>
        <time>2020-10-01T08:54:21.243Z</time>
      </trkpt>
      <trkpt lat="63.75483" lon="20.20639">
        <ele>44.620738</ele>
        <time>2020-10-01T08:54:23.250Z</time>
      </trkpt>
      <trkpt lat="63.75473" lon="20.20634">
        <ele>44.45762</ele>
        <time>2020-10-01T08:54:25.270Z</time>
      </trkpt>
      <trkpt lat="63.75465" lon="20.20628">
        <ele>44.303024</ele>
        <time>2020-10-01T08:54:27.308Z</time>
      </trkpt>
      <trkpt lat="63.75452" lon="20.2062">
        <ele>44.078057</ele>
        <time>2020-10-01T08:54:30.265Z</time>
      </trkpt>
      <trkpt lat="63.7544" lon="20.20612">
        <ele>43.857069</ele>
        <time>2020-10-01T08:54:33.240Z</time>
      </trkpt>
      <trkpt lat="63.75427" lon="20.20605">
        <ele>43.634616</ele>
        <time>2020-10-01T08:54:36.262Z</time>
      </trkpt>
      <trkpt lat="63.75415" lon="20.20597">
        <ele>43.419634</ele>
        <time>2020-10-01T08:54:39.261Z</time>
      </trkpt>
      <trkpt lat="63.75404" lon="20.20589">
        <ele>43.210657</ele>
        <time>2020-10-01T08:54:42.265Z</time>
      </trkpt>
      <trkpt lat="63.75392" lon="20.20583">
        <ele>43.76339</ele>
        <time>2020-10-01T08:54:45.252Z</time>
      </trkpt>
      <trkpt lat="63.7538" lon="20.20575">
        <ele>44.340488</ele>
        <time>2020-10-01T08:54:48.267Z</time>
      </trkpt>
      <trkpt lat="63.75368" lon="20.20567">
        <ele>44.914907</ele>
        <time>2020-10-01T08:54:51.279Z</time>
      </trkpt>
      <trkpt lat="63.75356" lon="20.2056">
        <ele>45.50961</ele>
        <time>2020-10-01T08:54:54.258Z</time>
      </trkpt>
      <trkpt lat="63.75343" lon="20.20552">
        <ele>46.104592</ele>
        <time>2020-10-01T08:54:57.261Z</time>
      </trkpt>
      <trkpt lat="63.75332" lon="20.20544">
        <ele>46.677815</ele>
        <time>2020-10-01T08:55:00.253Z</time>
      </trkpt>
      <trkpt lat="63.7532" lon="20.20534">
        <ele>47.235157</ele>
        <time>2020-10-01T08:55:03.268Z</time>
      </trkpt>
      <trkpt lat="63.7531" lon="20.20525">
        <ele>47.762747</ele>
        <time>2020-10-01T08:55:06.240Z</time>
      </trkpt>
      <trkpt lat="63.75298" lon="20.20519">
        <ele>48.323855</ele>
        <time>2020-10-01T08:55:09.245Z</time>
      </trkpt>
      <trkpt lat="63.75287" lon="20.20513">
        <ele>48.850873</ele>
        <time>2020-10-01T08:55:12.252Z</time>
      </trkpt>
      <trkpt lat="63.75277" lon="20.20505">
        <ele>49.334779</ele>
        <time>2020-10-01T08:55:15.244Z</time>
      </trkpt>
      <trkpt lat="63.75267" lon="20.20498">
        <ele>49.825026</ele>
        <time>2020-10-01T08:55:18.267Z</time>
      </trkpt>
      <trkpt lat="63.75257" lon="20.20491">
        <ele>50.308306</ele>
        <time>2020-10-01T08:55:21.242Z</time>
      </trkpt>
      <trkpt lat="63.75248" lon="20.20484">
        <ele>50.774023</ele>
        <time>2020-10-01T08:55:24.273Z</time>
      </trkpt>
      <trkpt lat="63.75238" lon="20.20478">
        <ele>51.243068</ele>
        <time>2020-10-01T08:55:27.283Z</time>
      </trkpt>
      <trkpt lat="63.75228" lon="20.20471">
        <ele>51.754264</ele>
        <time>2020-10-01T08:55:30.278Z</time>
      </trkpt>
      <trkpt lat="63.75217" lon="20.20466">
        <ele>52.355955</ele>
        <time>2020-10-01T08:55:33.246Z</time>
      </trkpt>
      <trkpt lat="63.75207" lon="20.2046">
        <ele>52.949825</ele>
        <time>2020-10-01T08:55:36.274Z</time>
      </trkpt>
      <trkpt lat="63.75197" lon="20.20452">
        <ele>53.533067</ele>
        <time>2020-10-01T08:55:39.256Z</time>
      </trkpt>
      <trkpt lat="63.75186" lon="20.20444">
        <ele>54.148835</ele>
        <time>2020-10-01T08:55:42.261Z</time>
      </trkpt>
      <trkpt lat="63.75176" lon="20.20437">
        <ele>54.750209</ele>
        <time>2020-10-01T08:55:45.280Z</time>
      </trkpt>
      <trkpt lat="63.75167" lon="20.20428">
        <ele>55.312313</ele>
        <time>2020-10-01T08:55:48.302Z</time>
      </trkpt>
      <trkpt lat="63.75157" lon="20.2042">
        <ele>55.862902</ele>
        <time>2020-10-01T08:55:51.303Z</time>
      </trkpt>
      <trkpt lat="63.75147" lon="20.20411">
        <ele>56.471098</ele>
        <time>2020-10-01T08:55:54.278Z</time>
      </trkpt>
      <trkpt lat="63.75136" lon="20.204">
        <ele>57.131487</ele>
        <time>2020-10-01T08:55:57.298Z</time>
      </trkpt>
      <trkpt lat="63.75126" lon="20.20387">
        <ele>57.782287</ele>
        <time>2020-10-01T08:56:00.262Z</time>
      </trkpt>
      <trkpt lat="63.75115" lon="20.20375">
        <ele>58.423645</ele>
        <time>2020-10-01T08:56:03.288Z</time>
      </trkpt>
      <trkpt lat="63.75105" lon="20.20363">
        <ele>59.066558</ele>
        <time>2020-10-01T08:56:06.247Z</time>
      </trkpt>
      <trkpt lat="63.75095" lon="20.20349">
        <ele>59.708053</ele>
        <time>2020-10-01T08:56:09.273Z</time>
      </trkpt>
      <trkpt lat="63.75086" lon="20.20336">
        <ele>60.309856</ele>
        <time>2020-10-01T08:56:12.287Z</time>
      </trkpt>
      <trkpt lat="63.75076" lon="20.20323">
        <ele>60.943794</ele>
        <time>2020-10-01T08:56:15.261Z</time>
      </trkpt>
      <trkpt lat="63.75067" lon="20.2031">
        <ele>61.509274</ele>
        <time>2020-10-01T08:56:18.282Z</time>
      </trkpt>
      <trkpt lat="63.75059" lon="20.20297">
        <ele>61.840998</ele>
        <time>2020-10-01T08:56:21.268Z</time>
      </trkpt>
      <trkpt lat="63.7505" lon="20.20284">
        <ele>62.191605</ele>
        <time>2020-10-01T08:56:24.256Z</time>
      </trkpt>
      <trkpt lat="63.75041" lon="20.2027">
        <ele>62.570787</ele>
        <time>2020-10-01T08:56:27.254Z</time>
      </trkpt>
      <trkpt lat="63.75032" lon="20.20256">
        <ele>62.925777</ele>
        <time>2020-10-01T08:56:30.281Z</time>
      </trkpt>
      <trkpt lat="63.75023" lon="20.20242">
        <ele>63.290357</ele>
        <time>2020-10-01T08:56:33.259Z</time>
      </trkpt>
      <trkpt lat="63.75013" lon="20.20228">
        <ele>63.67358</ele>
        <time>2020-10-01T08:56:36.280Z</time>
      </trkpt>
      <trkpt lat="63.75002" lon="20.20213">
        <ele>64.094954</ele>
        <time>2020-10-01T08:56:39.247Z</time>
      </trkpt>
      <trkpt lat="63.74991" lon="20.20198">
        <ele>64.520278</ele>
        <time>2020-10-01T08:56:42.283Z</time>
      </trkpt>
      <trkpt lat="63.7498" lon="20.20183">
        <ele>64.959396</ele>
        <time>2020-10-01T08:56:45.268Z</time>
      </trkpt>
      <trkpt lat="63.74968" lon="20.20168">
        <ele>65.401367</ele>
        <time>2020-10-01T08:56:48.276Z</time>
      </trkpt>
      <trkpt lat="63.74957" lon="20.20153">
        <ele>65.836143</ele>
        <time>2020-10-01T08:56:51.250Z</time>
      </trkpt>
      <trkpt lat="63.74949" lon="20.20143">
        <ele>66.140357</ele>
        <time>2020-10-01T08:56:53.252Z</time>
      </trkpt>
      <trkpt lat="63.74941" lon="20.20132">
        <ele>66.446751</ele>
        <time>2020-10-01T08:56:55.239Z</time>
      </trkpt>
      <trkpt lat="63.74929" lon="20.20118">
        <ele>66.883682</ele>
        <time>2020-10-01T08:56:58.252Z</time>
      </trkpt>
      <trkpt lat="63.74921" lon="20.20109">
        <ele>67.186895</ele>
        <time>2020-10-01T08:57:00.280Z</time>
      </trkpt>
      <trkpt lat="63.74912" lon="20.20101">
        <ele>67.403418</ele>
        <time>2020-10-01T08:57:02.245Z</time>
      </trkpt>
      <trkpt lat="63.74903" lon="20.20094">
        <ele>66.941683</ele>
        <time>2020-10-01T08:57:04.247Z</time>
      </trkpt>
      <trkpt lat="63.74894" lon="20.20087">
        <ele>66.475649</ele>
        <time>2020-10-01T08:57:06.257Z</time>
      </trkpt>
      <trkpt lat="63.74885" lon="20.20081">
        <ele>66.014163</ele>
        <time>2020-10-01T08:57:08.256Z</time>
      </trkpt>
      <trkpt lat="63.74875" lon="20.20073">
        <ele>65.524007</ele>
        <time>2020-10-01T08:57:10.249Z</time>
      </trkpt>
      <trkpt lat="63.74866" lon="20.20066">
        <ele>65.056673</ele>
        <time>2020-10-01T08:57:12.245Z</time>
      </trkpt>
      <trkpt lat="63.74857" lon="20.20058">
        <ele>64.600597</ele>
        <time>2020-10-01T08:57:14.255Z</time>
      </trkpt>
      <trkpt lat="63.74848" lon="20.2005">
        <ele>64.138866</ele>
        <time>2020-10-01T08:57:16.276Z</time>
      </trkpt>
      <trkpt lat="63.74839" lon="20.20043">
        <ele>63.693456</ele>
        <time>2020-10-01T08:57:18.276Z</time>
      </trkpt>
      <trkpt lat="63.7483" lon="20.20035">
        <ele>63.239218</ele>
        <time>2020-10-01T08:57:20.261Z</time>
      </trkpt>
      <trkpt lat="63.74821" lon="20.20027">
        <ele>62.78423</ele>
        <time>2020-10-01T08:57:22.265Z</time>
      </trkpt>
      <trkpt lat="63.74812" lon="20.20021">
        <ele>62.31551</ele>
        <time>2020-10-01T08:57:24.253Z</time>
      </trkpt>
      <trkpt lat="63.74803" lon="20.20015">
        <ele>61.847394</ele>
        <time>2020-10-01T08:57:26.244Z</time>
      </trkpt>
      <trkpt lat="63.74793" lon="20.20009">
        <ele>61.375289</ele>
        <time>2020-10-01T08:57:28.252Z</time>
      </trkpt>
      <trkpt lat="63.74784" lon="20.20002">
        <ele>60.926741</ele>
        <time>2020-10-01T08:57:30.253Z</time>
      </trkpt>
      <trkpt lat="63.74775" lon="20.19995">
        <ele>60.458744</ele>
        <time>2020-10-01T08:57:32.254Z</time>
      </trkpt>
      <trkpt lat="63.74766" lon="20.19988">
        <ele>60.017833</ele>
        <time>2020-10-01T08:57:34.260Z</time>
      </trkpt>
      <trkpt lat="63.74753" lon="20.19977">
        <ele>59.372909</ele>
        <time>2020-10-01T08:57:37.261Z</time>
      </trkpt>
      <trkpt lat="63.74741" lon="20.19969">
        <ele>58.895152</ele>
        <time>2020-10-01T08:57:40.259Z</time>
      </trkpt>
      <trkpt lat="63.74728" lon="20.19959">
        <ele>59.044653</ele>
        <time>2020-10-01T08:57:43.264Z</time>
      </trkpt>
      <trkpt lat="63.74717" lon="20.1995">
        <ele>59.179463</ele>
        <time>2020-10-01T08:57:46.263Z</time>
      </trkpt>
      <trkpt lat="63.74708" lon="20.19943">
        <ele>59.279683</ele>
        <time>2020-10-01T08:57:48.262Z</time>
      </trkpt>
      <trkpt lat="63.74696" lon="20.19932">
        <ele>59.423633</ele>
        <time>2020-10-01T08:57:51.283Z</time>
      </trkpt>
      <trkpt lat="63.74684" lon="20.19923">
        <ele>59.563138</ele>
        <time>2020-10-01T08:57:54.267Z</time>
      </trkpt>
      <trkpt lat="63.74673" lon="20.19914">
        <ele>59.700213</ele>
        <time>2020-10-01T08:57:57.258Z</time>
      </trkpt>
      <trkpt lat="63.74661" lon="20.19905">
        <ele>59.836711</ele>
        <time>2020-10-01T08:58:00.278Z</time>
      </trkpt>
      <trkpt lat="63.74649" lon="20.19895">
        <ele>59.976651</ele>
        <time>2020-10-01T08:58:03.292Z</time>
      </trkpt>
      <trkpt lat="63.74637" lon="20.19884">
        <ele>60.119386</ele>
        <time>2020-10-01T08:58:06.260Z</time>
      </trkpt>
      <trkpt lat="63.74626" lon="20.19872">
        <ele>60.263631</ele>
        <time>2020-10-01T08:58:09.270Z</time>
      </trkpt>
      <trkpt lat="63.74614" lon="20.19858">
        <ele>60.40966</ele>
        <time>2020-10-01T08:58:12.256Z</time>
      </trkpt>
      <trkpt lat="63.74602" lon="20.19844">
        <ele>60.558964</ele>
        <time>2020-10-01T08:58:15.247Z</time>
      </trkpt>
      <trkpt lat="63.74592" lon="20.1983">
        <ele>60.690359</ele>
        <time>2020-10-01T08:58:18.280Z</time>
      </trkpt>
      <trkpt lat="63.74583" lon="20.19818">
        <ele>60.807098</ele>
        <time>2020-10-01T08:58:21.272Z</time>
      </trkpt>
      <trkpt lat="63.74575" lon="20.19806">
        <ele>61.136119</ele>
        <time>2020-10-01T08:58:24.294Z</time>
      </trkpt>
      <trkpt lat="63.74567" lon="20.19794">
        <ele>61.686353</ele>
        <time>2020-10-01T08:58:27.263Z</time>
      </trkpt>
      <trkpt lat="63.74559" lon="20.19782">
        <ele>62.237862</ele>
        <time>2020-10-01T08:58:30.272Z</time>
      </trkpt>
      <trkpt lat="63.7455" lon="20.19771">
        <ele>62.809052</ele>
        <time>2020-10-01T08:58:33.258Z</time>
      </trkpt>
      <trkpt lat="63.74542" lon="20.19761">
        <ele>63.3803</ele>
        <time>2020-10-01T08:58:36.248Z</time>
      </trkpt>
      <trkpt lat="63.74534" lon="20.19751">
        <ele>63.908956</ele>
        <time>2020-10-01T08:58:39.268Z</time>
      </trkpt>
      <trkpt lat="63.74524" lon="20.19742">
        <ele>64.511568</ele>
        <time>2020-10-01T08:58:43.265Z</time>
      </trkpt>
      <trkpt lat="63.74516" lon="20.19732">
        <ele>65.051813</ele>
        <time>2020-10-01T08:58:47.267Z</time>
      </trkpt>
      <trkpt lat="63.7449" lon="20.19721">
        <ele>66.580193</ele>
        <time>2020-10-01T09:03:37.262Z</time>
      </trkpt>
      <trkpt lat="63.74471" lon="20.19715">
        <ele>67.69253</ele>
        <time>2020-10-01T09:03:46.249Z</time>
      </trkpt>
      <trkpt lat="63.74453" lon="20.19709">
        <ele>68.753249</ele>
        <time>2020-10-01T09:03:54.263Z</time>
      </trkpt>
      <trkpt lat="63.74434" lon="20.19707">
        <ele>69.897975</ele>
        <time>2020-10-01T09:04:05.240Z</time>
      </trkpt>
      <trkpt lat="63.74405" lon="20.19702">
        <ele>71.380182</ele>
        <time>2020-10-01T09:04:16.257Z</time>
      </trkpt>
      <trkpt lat="63.74396" lon="20.19702">
        <ele>71.440336</ele>
        <time>2020-10-01T09:04:20.249Z</time>
      </trkpt>
      <trkpt lat="63.74386" lon="20.19702">
        <ele>71.504487</ele>
        <time>2020-10-01T09:04:25.282Z</time>
      </trkpt>
      <trkpt lat="63.74377" lon="20.19701">
        <ele>71.565972</ele>
        <time>2020-10-01T09:04:30.273Z</time>
      </trkpt>
      <trkpt lat="63.74367" lon="20.197">
        <ele>71.636189</ele>
        <time>2020-10-01T09:04:36.263Z</time>
      </trkpt>
      <trkpt lat="63.74356" lon="20.19699">
        <ele>71.708514</ele>
        <time>2020-10-01T09:04:41.238Z</time>
      </trkpt>
      <trkpt lat="63.74346" lon="20.19697">
        <ele>71.775486</ele>
        <time>2020-10-01T09:04:46.244Z</time>
      </trkpt>
      <trkpt lat="63.74336" lon="20.19696">
        <ele>71.840478</ele>
        <time>2020-10-01T09:04:51.258Z</time>
      </trkpt>
      <trkpt lat="63.74326" lon="20.19693">
        <ele>71.907266</ele>
        <time>2020-10-01T09:04:56.307Z</time>
      </trkpt>
      <trkpt lat="63.74316" lon="20.19686">
        <ele>71.979779</ele>
        <time>2020-10-01T09:05:01.265Z</time>
      </trkpt>
      <trkpt lat="63.74306" lon="20.19677">
        <ele>72.053052</ele>
        <time>2020-10-01T09:05:06.261Z</time>
      </trkpt>
      <trkpt lat="63.74296" lon="20.19669">
        <ele>72.123302</ele>
        <time>2020-10-01T09:05:10.324Z</time>
      </trkpt>
      <trkpt lat="63.74286" lon="20.19661">
        <ele>72.193898</ele>
        <time>2020-10-01T09:05:14.283Z</time>
      </trkpt>
      <trkpt lat="63.74275" lon="20.1965">
        <ele>72.273425</ele>
        <time>2020-10-01T09:05:18.293Z</time>
      </trkpt>
      <trkpt lat="63.74267" lon="20.1964">
        <ele>72.335929</ele>
        <time>2020-10-01T09:05:21.271Z</time>
      </trkpt>
      <trkpt lat="63.74257" lon="20.19632">
        <ele>72.402637</ele>
        <time>2020-10-01T09:05:24.248Z</time>
      </trkpt>
      <trkpt lat="63.74246" lon="20.19623">
        <ele>72.484787</ele>
        <time>2020-10-01T09:05:27.268Z</time>
      </trkpt>
      <trkpt lat="63.74235" lon="20.19611">
        <ele>72.536088</ele>
        <time>2020-10-01T09:05:30.254Z</time>
      </trkpt>
      <trkpt lat="63.74225" lon="20.19598">
        <ele>72.233219</ele>
        <time>2020-10-01T09:05:33.245Z</time>
      </trkpt>
      <trkpt lat="63.74215" lon="20.19588">
        <ele>71.964381</ele>
        <time>2020-10-01T09:05:36.265Z</time>
      </trkpt>
      <trkpt lat="63.74206" lon="20.19577">
        <ele>71.718683</ele>
        <time>2020-10-01T09:05:39.250Z</time>
      </trkpt>
      <trkpt lat="63.74198" lon="20.19567">
        <ele>71.486088</ele>
        <time>2020-10-01T09:05:42.285Z</time>
      </trkpt>
      <trkpt lat="63.7419" lon="20.19557">
        <ele>71.24175</ele>
        <time>2020-10-01T09:05:45.249Z</time>
      </trkpt>
      <trkpt lat="63.74181" lon="20.19548">
        <ele>70.998066</ele>
        <time>2020-10-01T09:05:48.306Z</time>
      </trkpt>
      <trkpt lat="63.74172" lon="20.1954">
        <ele>70.752953</ele>
        <time>2020-10-01T09:05:51.262Z</time>
      </trkpt>
      <trkpt lat="63.74163" lon="20.19531">
        <ele>70.513856</ele>
        <time>2020-10-01T09:05:54.265Z</time>
      </trkpt>
      <trkpt lat="63.74154" lon="20.1952">
        <ele>70.264237</ele>
        <time>2020-10-01T09:05:57.263Z</time>
      </trkpt>
      <trkpt lat="63.74145" lon="20.1951">
        <ele>70.010676</ele>
        <time>2020-10-01T09:06:00.303Z</time>
      </trkpt>
      <trkpt lat="63.74136" lon="20.19499">
        <ele>69.763793</ele>
        <time>2020-10-01T09:06:03.262Z</time>
      </trkpt>
      <trkpt lat="63.74128" lon="20.1949">
        <ele>69.514963</ele>
        <time>2020-10-01T09:06:06.259Z</time>
      </trkpt>
      <trkpt lat="63.74119" lon="20.19478">
        <ele>69.268153</ele>
        <time>2020-10-01T09:06:09.241Z</time>
      </trkpt>
      <trkpt lat="63.74111" lon="20.19467">
        <ele>69.020057</ele>
        <time>2020-10-01T09:06:12.281Z</time>
      </trkpt>
      <trkpt lat="63.74103" lon="20.19455">
        <ele>68.787049</ele>
        <time>2020-10-01T09:06:15.311Z</time>
      </trkpt>
      <trkpt lat="63.74094" lon="20.1944">
        <ele>68.502543</ele>
        <time>2020-10-01T09:06:19.245Z</time>
      </trkpt>
      <trkpt lat="63.74084" lon="20.19427">
        <ele>68.23055</ele>
        <time>2020-10-01T09:06:23.251Z</time>
      </trkpt>
      <trkpt lat="63.74076" lon="20.19413">
        <ele>68.24467</ele>
        <time>2020-10-01T09:06:27.276Z</time>
      </trkpt>
      <trkpt lat="63.74068" lon="20.19399">
        <ele>68.824114</ele>
        <time>2020-10-01T09:06:31.253Z</time>
      </trkpt>
      <trkpt lat="63.7406" lon="20.19386">
        <ele>69.429794</ele>
        <time>2020-10-01T09:06:36.303Z</time>
      </trkpt>
      <trkpt lat="63.74052" lon="20.19375">
        <ele>69.97722</ele>
        <time>2020-10-01T09:06:40.270Z</time>
      </trkpt>
      <trkpt lat="63.74044" lon="20.19362">
        <ele>70.520373</ele>
        <time>2020-10-01T09:06:44.247Z</time>
      </trkpt>
      <trkpt lat="63.74037" lon="20.19348">
        <ele>71.089748</ele>
        <time>2020-10-01T09:06:48.246Z</time>
      </trkpt>
      <trkpt lat="63.7403" lon="20.19334">
        <ele>71.637297</ele>
        <time>2020-10-01T09:06:52.260Z</time>
      </trkpt>
      <trkpt lat="63.74023" lon="20.19321">
        <ele>72.167761</ele>
        <time>2020-10-01T09:06:56.287Z</time>
      </trkpt>
      <trkpt lat="63.74016" lon="20.19305">
        <ele>72.761706</ele>
        <time>2020-10-01T09:07:01.253Z</time>
      </trkpt>
      <trkpt lat="63.74007" lon="20.19289">
        <ele>73.401068</ele>
        <time>2020-10-01T09:07:06.279Z</time>
      </trkpt>
      <trkpt lat="63.74001" lon="20.19272">
        <ele>74.001131</ele>
        <time>2020-10-01T09:07:11.267Z</time>
      </trkpt>
      <trkpt lat="63.73994" lon="20.19253">
        <ele>74.629186</ele>
        <time>2020-10-01T09:07:16.268Z</time>
      </trkpt>
      <trkpt lat="63.73988" lon="20.19236">
        <ele>75.194584</ele>
        <time>2020-10-01T09:07:21.258Z</time>
      </trkpt>
      <trkpt lat="63.73982" lon="20.19215">
        <ele>75.84991</ele>
        <time>2020-10-01T09:07:26.290Z</time>
      </trkpt>
      <trkpt lat="63.73977" lon="20.19193">
        <ele>76.480143</ele>
        <time>2020-10-01T09:07:31.287Z</time>
      </trkpt>
      <trkpt lat="63.73972" lon="20.19175">
        <ele>77.057542</ele>
        <time>2020-10-01T09:07:35.258Z</time>
      </trkpt>
      <trkpt lat="63.73967" lon="20.19156">
        <ele>77.62709</ele>
        <time>2020-10-01T09:07:39.254Z</time>
      </trkpt>
      <trkpt lat="63.73961" lon="20.19135">
        <ele>78.266156</ele>
        <time>2020-10-01T09:07:43.269Z</time>
      </trkpt>
      <trkpt lat="63.73954" lon="20.19114">
        <ele>78.876822</ele>
        <time>2020-10-01T09:07:47.278Z</time>
      </trkpt>
      <trkpt lat="63.73947" lon="20.19093">
        <ele>79.417677</ele>
        <time>2020-10-01T09:07:51.260Z</time>
      </trkpt>
      <trkpt lat="63.73942" lon="20.19072">
        <ele>79.926892</ele>
        <time>2020-10-01T09:07:55.248Z</time>
      </trkpt>
      <trkpt lat="63.73936" lon="20.19052">
        <ele>80.418166</ele>
        <time>2020-10-01T09:07:59.249Z</time>
      </trkpt>
      <trkpt lat="63.73929" lon="20.19031">
        <ele>80.952897</ele>
        <time>2020-10-01T09:08:03.318Z</time>
      </trkpt>
      <trkpt lat="63.73924" lon="20.19008">
        <ele>81.490646</ele>
        <time>2020-10-01T09:08:07.258Z</time>
      </trkpt>
      <trkpt lat="63.73917" lon="20.18988">
        <ele>82.004933</ele>
        <time>2020-10-01T09:08:11.271Z</time>
      </trkpt>
      <trkpt lat="63.7391" lon="20.18967">
        <ele>82.563068</ele>
        <time>2020-10-01T09:08:15.304Z</time>
      </trkpt>
      <trkpt lat="63.73901" lon="20.18948">
        <ele>83.12494</ele>
        <time>2020-10-01T09:08:19.260Z</time>
      </trkpt>
      <trkpt lat="63.73895" lon="20.18932">
        <ele>83.567731</ele>
        <time>2020-10-01T09:08:22.272Z</time>
      </trkpt>
      <trkpt lat="63.73889" lon="20.18917">
        <ele>84.014213</ele>
        <time>2020-10-01T09:08:25.274Z</time>
      </trkpt>
      <trkpt lat="63.73881" lon="20.18901">
        <ele>84.513077</ele>
        <time>2020-10-01T09:08:28.252Z</time>
      </trkpt>
      <trkpt lat="63.73873" lon="20.18885">
        <ele>85.01247</ele>
        <time>2020-10-01T09:08:31.271Z</time>
      </trkpt>
      <trkpt lat="63.73865" lon="20.18869">
        <ele>85.502189</ele>
        <time>2020-10-01T09:08:34.280Z</time>
      </trkpt>
      <trkpt lat="63.73858" lon="20.18854">
        <ele>85.959138</ele>
        <time>2020-10-01T09:08:37.298Z</time>
      </trkpt>
      <trkpt lat="63.73849" lon="20.18841">
        <ele>86.46005</ele>
        <time>2020-10-01T09:08:40.257Z</time>
      </trkpt>
      <trkpt lat="63.73841" lon="20.18827">
        <ele>86.941792</ele>
        <time>2020-10-01T09:08:43.272Z</time>
      </trkpt>
      <trkpt lat="63.73832" lon="20.18812">
        <ele>86.787909</ele>
        <time>2020-10-01T09:08:46.283Z</time>
      </trkpt>
      <trkpt lat="63.73822" lon="20.18799">
        <ele>86.451197</ele>
        <time>2020-10-01T09:08:49.254Z</time>
      </trkpt>
      <trkpt lat="63.73814" lon="20.18787">
        <ele>86.158782</ele>
        <time>2020-10-01T09:08:52.265Z</time>
      </trkpt>
      <trkpt lat="63.73805" lon="20.18776">
        <ele>85.859874</ele>
        <time>2020-10-01T09:08:55.268Z</time>
      </trkpt>
      <trkpt lat="63.73797" lon="20.18763">
        <ele>85.556726</ele>
        <time>2020-10-01T09:08:58.272Z</time>
      </trkpt>
      <trkpt lat="63.73788" lon="20.1875">
        <ele>85.241334</ele>
        <time>2020-10-01T09:09:01.269Z</time>
      </trkpt>
      <trkpt lat="63.73779" lon="20.18738">
        <ele>84.929891</ele>
        <time>2020-10-01T09:09:04.249Z</time>
      </trkpt>
      <trkpt lat="63.7377" lon="20.18726">
        <ele>84.607693</ele>
        <time>2020-10-01T09:09:07.278Z</time>
      </trkpt>
      <trkpt lat="63.73761" lon="20.18716">
        <ele>84.314014</ele>
        <time>2020-10-01T09:09:10.290Z</time>
      </trkpt>
      <trkpt lat="63.73752" lon="20.18704">
        <ele>83.987907</ele>
        <time>2020-10-01T09:09:13.255Z</time>
      </trkpt>
      <trkpt lat="63.73742" lon="20.18692">
        <ele>83.667674</ele>
        <time>2020-10-01T09:09:16.266Z</time>
      </trkpt>
      <trkpt lat="63.73733" lon="20.18681">
        <ele>83.357186</ele>
        <time>2020-10-01T09:09:19.275Z</time>
      </trkpt>
      <trkpt lat="63.73724" lon="20.18669">
        <ele>83.043473</ele>
        <time>2020-10-01T09:09:22.285Z</time>
      </trkpt>
      <trkpt lat="63.73715" lon="20.18657">
        <ele>82.723175</ele>
        <time>2020-10-01T09:09:25.261Z</time>
      </trkpt>
      <trkpt lat="63.73706" lon="20.18645">
        <ele>82.415981</ele>
        <time>2020-10-01T09:09:28.269Z</time>
      </trkpt>
      <trkpt lat="63.73697" lon="20.18634">
        <ele>82.116557</ele>
        <time>2020-10-01T09:09:31.266Z</time>
      </trkpt>
      <trkpt lat="63.73689" lon="20.18622">
        <ele>81.816249</ele>
        <time>2020-10-01T09:09:34.261Z</time>
      </trkpt>
      <trkpt lat="63.73681" lon="20.18609">
        <ele>81.599062</ele>
        <time>2020-10-01T09:09:37.294Z</time>
      </trkpt>
      <trkpt lat="63.73671" lon="20.18599">
        <ele>81.472446</ele>
        <time>2020-10-01T09:09:40.267Z</time>
      </trkpt>
      <trkpt lat="63.73663" lon="20.18586">
        <ele>81.347411</ele>
        <time>2020-10-01T09:09:43.266Z</time>
      </trkpt>
      <trkpt lat="63.73655" lon="20.18572">
        <ele>81.226033</ele>
        <time>2020-10-01T09:09:46.282Z</time>
      </trkpt>
      <trkpt lat="63.73647" lon="20.1856">
        <ele>81.108181</ele>
        <time>2020-10-01T09:09:49.256Z</time>
      </trkpt>
      <trkpt lat="63.73639" lon="20.18547">
        <ele>80.993556</ele>
        <time>2020-10-01T09:09:52.293Z</time>
      </trkpt>
      <trkpt lat="63.73632" lon="20.18534">
        <ele>80.884008</ele>
        <time>2020-10-01T09:09:55.258Z</time>
      </trkpt>
      <trkpt lat="63.73625" lon="20.18521">
        <ele>80.769591</ele>
        <time>2020-10-01T09:09:58.251Z</time>
      </trkpt>
      <trkpt lat="63.73618" lon="20.18506">
        <ele>80.65343</ele>
        <time>2020-10-01T09:10:01.284Z</time>
      </trkpt>
      <trkpt lat="63.73611" lon="20.1849">
        <ele>80.529305</ele>
        <time>2020-10-01T09:10:04.262Z</time>
      </trkpt>
      <trkpt lat="63.73604" lon="20.18475">
        <ele>80.413144</ele>
        <time>2020-10-01T09:10:07.268Z</time>
      </trkpt>
      <trkpt lat="63.73597" lon="20.18461">
        <ele>80.299123</ele>
        <time>2020-10-01T09:10:10.283Z</time>
      </trkpt>
      <trkpt lat="63.7359" lon="20.18448">
        <ele>80.187429</ele>
        <time>2020-10-01T09:10:13.263Z</time>
      </trkpt>
      <trkpt lat="63.73582" lon="20.18434">
        <ele>80.073237</ele>
        <time>2020-10-01T09:10:16.252Z</time>
      </trkpt>
      <trkpt lat="63.73576" lon="20.18417">
        <ele>79.954781</ele>
        <time>2020-10-01T09:10:19.323Z</time>
      </trkpt>
      <trkpt lat="63.73569" lon="20.18399">
        <ele>79.826684</ele>
        <time>2020-10-01T09:10:22.265Z</time>
      </trkpt>
      <trkpt lat="63.73561" lon="20.18384">
        <ele>79.698798</ele>
        <time>2020-10-01T09:10:25.325Z</time>
      </trkpt>
      <trkpt lat="63.73553" lon="20.18367">
        <ele>79.569287</ele>
        <time>2020-10-01T09:10:28.284Z</time>
      </trkpt>
      <trkpt lat="63.73545" lon="20.18347">
        <ele>79.42982</ele>
        <time>2020-10-01T09:10:31.252Z</time>
      </trkpt>
      <trkpt lat="63.73537" lon="20.18326">
        <ele>79.302583</ele>
        <time>2020-10-01T09:10:34.248Z</time>
      </trkpt>
      <trkpt lat="63.73527" lon="20.18306">
        <ele>79.170972</ele>
        <time>2020-10-01T09:10:37.258Z</time>
      </trkpt>
      <trkpt lat="63.7352" lon="20.18293">
        <ele>79.076013</ele>
        <time>2020-10-01T09:10:39.299Z</time>
      </trkpt>
      <trkpt lat="63.73511" lon="20.18281">
        <ele>78.974184</ele>
        <time>2020-10-01T09:10:41.271Z</time>
      </trkpt>
      <trkpt lat="63.73502" lon="20.1827">
        <ele>78.870455</ele>
        <time>2020-10-01T09:10:43.269Z</time>
      </trkpt>
      <trkpt lat="63.73493" lon="20.18259">
        <ele>78.764615</ele>
        <time>2020-10-01T09:10:45.287Z</time>
      </trkpt>
      <trkpt lat="63.73483" lon="20.18249">
        <ele>78.656827</ele>
        <time>2020-10-01T09:10:47.251Z</time>
      </trkpt>
      <trkpt lat="63.73473" lon="20.18241">
        <ele>78.550443</ele>
        <time>2020-10-01T09:10:49.251Z</time>
      </trkpt>
      <trkpt lat="63.73462" lon="20.18233">
        <ele>78.438663</ele>
        <time>2020-10-01T09:10:51.276Z</time>
      </trkpt>
      <trkpt lat="63.73452" lon="20.18225">
        <ele>78.331693</ele>
        <time>2020-10-01T09:10:53.249Z</time>
      </trkpt>
      <trkpt lat="63.73443" lon="20.18218">
        <ele>78.232936</ele>
        <time>2020-10-01T09:10:55.270Z</time>
      </trkpt>
      <trkpt lat="63.73433" lon="20.18212">
        <ele>78.130038</ele>
        <time>2020-10-01T09:10:57.268Z</time>
      </trkpt>
      <trkpt lat="63.73424" lon="20.18206">
        <ele>78.030165</ele>
        <time>2020-10-01T09:10:59.274Z</time>
      </trkpt>
      <trkpt lat="63.73414" lon="20.18199">
        <ele>77.931634</ele>
        <time>2020-10-01T09:11:01.243Z</time>
      </trkpt>
      <trkpt lat="63.73405" lon="20.18193">
        <ele>77.831632</ele>
        <time>2020-10-01T09:11:03.265Z</time>
      </trkpt>
      <trkpt lat="63.73395" lon="20.18186">
        <ele>77.726161</ele>
        <time>2020-10-01T09:11:05.289Z</time>
      </trkpt>
      <trkpt lat="63.73385" lon="20.18179">
        <ele>77.643166</ele>
        <time>2020-10-01T09:11:07.312Z</time>
      </trkpt>
      <trkpt lat="63.73375" lon="20.18173">
        <ele>77.60366</ele>
        <time>2020-10-01T09:11:09.265Z</time>
      </trkpt>
      <trkpt lat="63.73366" lon="20.18167">
        <ele>77.566367</ele>
        <time>2020-10-01T09:11:11.280Z</time>
      </trkpt>
      <trkpt lat="63.73357" lon="20.18159">
        <ele>77.529306</ele>
        <time>2020-10-01T09:11:13.257Z</time>
      </trkpt>
      <trkpt lat="63.73349" lon="20.18151">
        <ele>77.493161</ele>
        <time>2020-10-01T09:11:15.270Z</time>
      </trkpt>
      <trkpt lat="63.73337" lon="20.18142">
        <ele>77.443405</ele>
        <time>2020-10-01T09:11:18.297Z</time>
      </trkpt>
      <trkpt lat="63.73325" lon="20.1813">
        <ele>77.391971</ele>
        <time>2020-10-01T09:11:21.305Z</time>
      </trkpt>
      <trkpt lat="63.73316" lon="20.18122">
        <ele>77.355523</ele>
        <time>2020-10-01T09:11:23.266Z</time>
      </trkpt>
      <trkpt lat="63.73307" lon="20.18117">
        <ele>77.318963</ele>
        <time>2020-10-01T09:11:25.261Z</time>
      </trkpt>
      <trkpt lat="63.73299" lon="20.18109">
        <ele>77.282255</ele>
        <time>2020-10-01T09:11:27.278Z</time>
      </trkpt>
      <trkpt lat="63.7329" lon="20.181">
        <ele>77.244412</ele>
        <time>2020-10-01T09:11:29.256Z</time>
      </trkpt>
      <trkpt lat="63.73281" lon="20.18092">
        <ele>77.205743</ele>
        <time>2020-10-01T09:11:31.254Z</time>
      </trkpt>
      <trkpt lat="63.73272" lon="20.18083">
        <ele>77.167977</ele>
        <time>2020-10-01T09:11:33.262Z</time>
      </trkpt>
      <trkpt lat="63.73263" lon="20.18074">
        <ele>77.129706</ele>
        <time>2020-10-01T09:11:35.249Z</time>
      </trkpt>
      <trkpt lat="63.73254" lon="20.18065">
        <ele>77.090409</ele>
        <time>2020-10-01T09:11:37.253Z</time>
      </trkpt>
      <trkpt lat="63.73245" lon="20.18057">
        <ele>77.0523</ele>
        <time>2020-10-01T09:11:39.269Z</time>
      </trkpt>
      <trkpt lat="63.73236" lon="20.18049">
        <ele>77.01296</ele>
        <time>2020-10-01T09:11:41.258Z</time>
      </trkpt>
      <trkpt lat="63.73227" lon="20.1804">
        <ele>76.974323</ele>
        <time>2020-10-01T09:11:43.275Z</time>
      </trkpt>
      <trkpt lat="63.73217" lon="20.18034">
        <ele>77.042191</ele>
        <time>2020-10-01T09:11:45.248Z</time>
      </trkpt>
      <trkpt lat="63.73207" lon="20.18027">
        <ele>77.29076</ele>
        <time>2020-10-01T09:11:47.259Z</time>
      </trkpt>
      <trkpt lat="63.73197" lon="20.1802">
        <ele>77.546923</ele>
        <time>2020-10-01T09:11:49.273Z</time>
      </trkpt>
      <trkpt lat="63.73188" lon="20.18014">
        <ele>77.793132</ele>
        <time>2020-10-01T09:11:51.250Z</time>
      </trkpt>
      <trkpt lat="63.73178" lon="20.18007">
        <ele>78.040608</ele>
        <time>2020-10-01T09:11:53.244Z</time>
      </trkpt>
      <trkpt lat="63.73168" lon="20.18001">
        <ele>78.309675</ele>
        <time>2020-10-01T09:11:55.248Z</time>
      </trkpt>
      <trkpt lat="63.73157" lon="20.17995">
        <ele>78.585132</ele>
        <time>2020-10-01T09:11:57.258Z</time>
      </trkpt>
      <trkpt lat="63.73146" lon="20.17988">
        <ele>78.852933</ele>
        <time>2020-10-01T09:11:59.249Z</time>
      </trkpt>
      <trkpt lat="63.73136" lon="20.17983">
        <ele>79.123104</ele>
        <time>2020-10-01T09:12:01.272Z</time>
      </trkpt>
      <trkpt lat="63.73125" lon="20.17978">
        <ele>79.386621</ele>
        <time>2020-10-01T09:12:03.285Z</time>
      </trkpt>
      <trkpt lat="63.73115" lon="20.17973">
        <ele>79.648171</ele>
        <time>2020-10-01T09:12:05.248Z</time>
      </trkpt>
      <trkpt lat="63.73104" lon="20.17968">
        <ele>79.904459</ele>
        <time>2020-10-01T09:12:07.286Z</time>
      </trkpt>
      <trkpt lat="63.73095" lon="20.17963">
        <ele>80.146316</ele>
        <time>2020-10-01T09:12:09.289Z</time>
      </trkpt>
      <trkpt lat="63.73085" lon="20.17959">
        <ele>80.382451</ele>
        <time>2020-10-01T09:12:11.247Z</time>
      </trkpt>
      <trkpt lat="63.73076" lon="20.17955">
        <ele>80.626508</ele>
        <time>2020-10-01T09:12:13.285Z</time>
      </trkpt>
      <trkpt lat="63.73066" lon="20.17952">
        <ele>80.875768</ele>
        <time>2020-10-01T09:12:15.282Z</time>
      </trkpt>
      <trkpt lat="63.73056" lon="20.17949">
        <ele>81.124057</ele>
        <time>2020-10-01T09:12:17.279Z</time>
      </trkpt>
      <trkpt lat="63.73046" lon="20.17944">
        <ele>81.362173</ele>
        <time>2020-10-01T09:12:19.274Z</time>
      </trkpt>
      <trkpt lat="63.73037" lon="20.17939">
        <ele>81.293491</ele>
        <time>2020-10-01T09:12:21.242Z</time>
      </trkpt>
      <trkpt lat="63.73027" lon="20.17936">
        <ele>81.207155</ele>
        <time>2020-10-01T09:12:23.280Z</time>
      </trkpt>
      <trkpt lat="63.73017" lon="20.17932">
        <ele>81.121661</ele>
        <time>2020-10-01T09:12:25.267Z</time>
      </trkpt>
      <trkpt lat="63.73007" lon="20.17929">
        <ele>81.039532</ele>
        <time>2020-10-01T09:12:27.289Z</time>
      </trkpt>
      <trkpt lat="63.72998" lon="20.17924">
        <ele>80.961101</ele>
        <time>2020-10-01T09:12:29.292Z</time>
      </trkpt>
      <trkpt lat="63.72989" lon="20.17921">
        <ele>80.879875</ele>
        <time>2020-10-01T09:12:31.254Z</time>
      </trkpt>
      <trkpt lat="63.72979" lon="20.17917">
        <ele>80.795099</ele>
        <time>2020-10-01T09:12:33.272Z</time>
      </trkpt>
      <trkpt lat="63.72969" lon="20.17913">
        <ele>80.706491</ele>
        <time>2020-10-01T09:12:35.267Z</time>
      </trkpt>
      <trkpt lat="63.72958" lon="20.17909">
        <ele>80.615704</ele>
        <time>2020-10-01T09:12:37.271Z</time>
      </trkpt>
      <trkpt lat="63.72948" lon="20.17905">
        <ele>80.524422</ele>
        <time>2020-10-01T09:12:39.280Z</time>
      </trkpt>
      <trkpt lat="63.72937" lon="20.179">
        <ele>80.431412</ele>
        <time>2020-10-01T09:12:41.255Z</time>
      </trkpt>
      <trkpt lat="63.72927" lon="20.17896">
        <ele>80.344691</ele>
        <time>2020-10-01T09:12:43.285Z</time>
      </trkpt>
      <trkpt lat="63.72917" lon="20.17893">
        <ele>80.257628</ele>
        <time>2020-10-01T09:12:45.287Z</time>
      </trkpt>
      <trkpt lat="63.72907" lon="20.17888">
        <ele>80.174111</ele>
        <time>2020-10-01T09:12:47.257Z</time>
      </trkpt>
      <trkpt lat="63.72898" lon="20.17883">
        <ele>80.091322</ele>
        <time>2020-10-01T09:12:49.334Z</time>
      </trkpt>
      <trkpt lat="63.72888" lon="20.17879">
        <ele>80.004669</ele>
        <time>2020-10-01T09:12:51.260Z</time>
      </trkpt>
      <trkpt lat="63.72878" lon="20.17875">
        <ele>79.920667</ele>
        <time>2020-10-01T09:12:53.248Z</time>
      </trkpt>
      <trkpt lat="63.72868" lon="20.1787">
        <ele>79.82193</ele>
        <time>2020-10-01T09:12:55.260Z</time>
      </trkpt>
      <trkpt lat="63.72858" lon="20.17866">
        <ele>79.586882</ele>
        <time>2020-10-01T09:12:57.271Z</time>
      </trkpt>
      <trkpt lat="63.72847" lon="20.1786">
        <ele>79.341863</ele>
        <time>2020-10-01T09:12:59.270Z</time>
      </trkpt>
      <trkpt lat="63.72836" lon="20.17856">
        <ele>79.096006</ele>
        <time>2020-10-01T09:13:01.284Z</time>
      </trkpt>
      <trkpt lat="63.72826" lon="20.17851">
        <ele>78.861335</ele>
        <time>2020-10-01T09:13:03.272Z</time>
      </trkpt>
      <trkpt lat="63.72816" lon="20.17847">
        <ele>78.632872</ele>
        <time>2020-10-01T09:13:05.269Z</time>
      </trkpt>
      <trkpt lat="63.72805" lon="20.17842">
        <ele>78.391417</ele>
        <time>2020-10-01T09:13:07.287Z</time>
      </trkpt>
      <trkpt lat="63.72795" lon="20.17836">
        <ele>78.155457</ele>
        <time>2020-10-01T09:13:09.252Z</time>
      </trkpt>
      <trkpt lat="63.72785" lon="20.1783">
        <ele>77.925469</ele>
        <time>2020-10-01T09:13:11.279Z</time>
      </trkpt>
      <trkpt lat="63.72776" lon="20.17824">
        <ele>77.700059</ele>
        <time>2020-10-01T09:13:13.268Z</time>
      </trkpt>
      <trkpt lat="63.72766" lon="20.17819">
        <ele>77.477968</ele>
        <time>2020-10-01T09:13:15.268Z</time>
      </trkpt>
      <trkpt lat="63.72757" lon="20.17815">
        <ele>77.26565</ele>
        <time>2020-10-01T09:13:17.273Z</time>
      </trkpt>
      <trkpt lat="63.72748" lon="20.17811">
        <ele>77.057315</ele>
        <time>2020-10-01T09:13:19.283Z</time>
      </trkpt>
      <trkpt lat="63.72738" lon="20.17806">
        <ele>76.842835</ele>
        <time>2020-10-01T09:13:21.262Z</time>
      </trkpt>
      <trkpt lat="63.72729" lon="20.17801">
        <ele>76.623542</ele>
        <time>2020-10-01T09:13:23.256Z</time>
      </trkpt>
      <trkpt lat="63.7272" lon="20.17796">
        <ele>76.420157</ele>
        <time>2020-10-01T09:13:25.274Z</time>
      </trkpt>
      <trkpt lat="63.72709" lon="20.17787">
        <ele>76.152898</ele>
        <time>2020-10-01T09:13:28.273Z</time>
      </trkpt>
      <trkpt lat="63.72698" lon="20.17781">
        <ele>75.915094</ele>
        <time>2020-10-01T09:13:32.294Z</time>
      </trkpt>
      <trkpt lat="63.72685" lon="20.17782">
        <ele>75.947227</ele>
        <time>2020-10-01T09:18:02.266Z</time>
      </trkpt>
      <trkpt lat="63.72675" lon="20.17778">
        <ele>76.106295</ele>
        <time>2020-10-01T09:18:06.264Z</time>
      </trkpt>
      <trkpt lat="63.72664" lon="20.17773">
        <ele>76.285817</ele>
        <time>2020-10-01T09:18:10.245Z</time>
      </trkpt>
      <trkpt lat="63.72654" lon="20.17768">
        <ele>76.448298</ele>
        <time>2020-10-01T09:18:13.270Z</time>
      </trkpt>
      <trkpt lat="63.72642" lon="20.17761">
        <ele>76.640256</ele>
        <time>2020-10-01T09:18:16.261Z</time>
      </trkpt>
      <trkpt lat="63.72629" lon="20.17753">
        <ele>76.842924</ele>
        <time>2020-10-01T09:18:19.273Z</time>
      </trkpt>
      <trkpt lat="63.7262" lon="20.17747">
        <ele>76.997648</ele>
        <time>2020-10-01T09:18:21.254Z</time>
      </trkpt>
      <trkpt lat="63.72611" lon="20.17739">
        <ele>77.142365</ele>
        <time>2020-10-01T09:18:23.268Z</time>
      </trkpt>
      <trkpt lat="63.726" lon="20.17726">
        <ele>77.336915</ele>
        <time>2020-10-01T09:18:26.272Z</time>
      </trkpt>
      <trkpt lat="63.72592" lon="20.17716">
        <ele>77.478584</ele>
        <time>2020-10-01T09:18:28.259Z</time>
      </trkpt>
      <trkpt lat="63.72584" lon="20.17706">
        <ele>77.620924</ele>
        <time>2020-10-01T09:18:30.272Z</time>
      </trkpt>
      <trkpt lat="63.72576" lon="20.17694">
        <ele>77.765001</ele>
        <time>2020-10-01T09:18:32.271Z</time>
      </trkpt>
      <trkpt lat="63.72566" lon="20.17677">
        <ele>77.969437</ele>
        <time>2020-10-01T09:18:35.306Z</time>
      </trkpt>
      <trkpt lat="63.72558" lon="20.17664">
        <ele>78.114143</ele>
        <time>2020-10-01T09:18:37.258Z</time>
      </trkpt>
      <trkpt lat="63.72551" lon="20.17649">
        <ele>78.259711</ele>
        <time>2020-10-01T09:18:39.265Z</time>
      </trkpt>
      <trkpt lat="63.72544" lon="20.17635">
        <ele>78.41058</ele>
        <time>2020-10-01T09:18:41.256Z</time>
      </trkpt>
      <trkpt lat="63.72537" lon="20.17621">
        <ele>78.560997</ele>
        <time>2020-10-01T09:18:43.265Z</time>
      </trkpt>
      <trkpt lat="63.72529" lon="20.17607">
        <ele>78.570645</ele>
        <time>2020-10-01T09:18:45.284Z</time>
      </trkpt>
      <trkpt lat="63.72522" lon="20.17595">
        <ele>78.509794</ele>
        <time>2020-10-01T09:18:47.264Z</time>
      </trkpt>
      <trkpt lat="63.72512" lon="20.17576">
        <ele>78.422138</ele>
        <time>2020-10-01T09:18:50.290Z</time>
      </trkpt>
      <trkpt lat="63.72505" lon="20.17563">
        <ele>78.361548</ele>
        <time>2020-10-01T09:18:52.277Z</time>
      </trkpt>
      <trkpt lat="63.72498" lon="20.17548">
        <ele>78.296484</ele>
        <time>2020-10-01T09:18:54.258Z</time>
      </trkpt>
      <trkpt lat="63.7249" lon="20.17532">
        <ele>78.226948</ele>
        <time>2020-10-01T09:18:56.259Z</time>
      </trkpt>
      <trkpt lat="63.72483" lon="20.17514">
        <ele>78.156263</ele>
        <time>2020-10-01T09:18:58.250Z</time>
      </trkpt>
      <trkpt lat="63.72476" lon="20.17496">
        <ele>78.084078</ele>
        <time>2020-10-01T09:19:00.280Z</time>
      </trkpt>
      <trkpt lat="63.72469" lon="20.17479">
        <ele>78.014499</ele>
        <time>2020-10-01T09:19:02.268Z</time>
      </trkpt>
      <trkpt lat="63.72462" lon="20.17462">
        <ele>77.944061</ele>
        <time>2020-10-01T09:19:04.264Z</time>
      </trkpt>
      <trkpt lat="63.72455" lon="20.17445">
        <ele>77.875862</ele>
        <time>2020-10-01T09:19:06.257Z</time>
      </trkpt>
      <trkpt lat="63.72448" lon="20.17429">
        <ele>77.808389</ele>
        <time>2020-10-01T09:19:08.273Z</time>
      </trkpt>
      <trkpt lat="63.72441" lon="20.17411">
        <ele>77.737313</ele>
        <time>2020-10-01T09:19:10.268Z</time>
      </trkpt>
      <trkpt lat="63.72434" lon="20.17393">
        <ele>77.666895</ele>
        <time>2020-10-01T09:19:12.254Z</time>
      </trkpt>
      <trkpt lat="63.72426" lon="20.17377">
        <ele>77.597694</ele>
        <time>2020-10-01T09:19:14.249Z</time>
      </trkpt>
      <trkpt lat="63.7242" lon="20.17361">
        <ele>77.533003</ele>
        <time>2020-10-01T09:19:16.255Z</time>
      </trkpt>
      <trkpt lat="63.72413" lon="20.17345">
        <ele>77.464779</ele>
        <time>2020-10-01T09:19:18.258Z</time>
      </trkpt>
      <trkpt lat="63.72406" lon="20.17328">
        <ele>77.363635</ele>
        <time>2020-10-01T09:19:20.276Z</time>
      </trkpt>
      <trkpt lat="63.72399" lon="20.1731">
        <ele>77.071452</ele>
        <time>2020-10-01T09:19:22.322Z</time>
      </trkpt>
      <trkpt lat="63.72392" lon="20.17294">
        <ele>76.769952</ele>
        <time>2020-10-01T09:19:24.250Z</time>
      </trkpt>
      <trkpt lat="63.72384" lon="20.17277">
        <ele>76.476546</ele>
        <time>2020-10-01T09:19:26.252Z</time>
      </trkpt>
      <trkpt lat="63.72378" lon="20.17261">
        <ele>76.193521</ele>
        <time>2020-10-01T09:19:28.264Z</time>
      </trkpt>
      <trkpt lat="63.7237" lon="20.17246">
        <ele>75.913514</ele>
        <time>2020-10-01T09:19:30.268Z</time>
      </trkpt>
      <trkpt lat="63.72363" lon="20.17231">
        <ele>75.622384</ele>
        <time>2020-10-01T09:19:32.258Z</time>
      </trkpt>
      <trkpt lat="63.72354" lon="20.17217">
        <ele>75.318064</ele>
        <time>2020-10-01T09:19:34.254Z</time>
      </trkpt>
      <trkpt lat="63.72346" lon="20.17203">
        <ele>75.016041</ele>
        <time>2020-10-01T09:19:36.315Z</time>
      </trkpt>
      <trkpt lat="63.72338" lon="20.1719">
        <ele>74.737708</ele>
        <time>2020-10-01T09:19:38.268Z</time>
      </trkpt>
      <trkpt lat="63.7233" lon="20.17177">
        <ele>74.465502</ele>
        <time>2020-10-01T09:19:40.284Z</time>
      </trkpt>
      <trkpt lat="63.72323" lon="20.17165">
        <ele>74.206296</ele>
        <time>2020-10-01T09:19:42.262Z</time>
      </trkpt>
      <trkpt lat="63.72313" lon="20.17147">
        <ele>73.843103</ele>
        <time>2020-10-01T09:19:45.291Z</time>
      </trkpt>
      <trkpt lat="63.72303" lon="20.17132">
        <ele>73.490115</ele>
        <time>2020-10-01T09:19:48.286Z</time>
      </trkpt>
      <trkpt lat="63.72293" lon="20.17119">
        <ele>73.160665</ele>
        <time>2020-10-01T09:19:51.301Z</time>
      </trkpt>
      <trkpt lat="63.72284" lon="20.17107">
        <ele>72.858747</ele>
        <time>2020-10-01T09:19:54.266Z</time>
      </trkpt>
      <trkpt lat="63.72275" lon="20.17096">
        <ele>72.563084</ele>
        <time>2020-10-01T09:19:57.289Z</time>
      </trkpt>
      <trkpt lat="63.72265" lon="20.17087">
        <ele>72.267908</ele>
        <time>2020-10-01T09:20:00.259Z</time>
      </trkpt>
      <trkpt lat="63.72256" lon="20.17078">
        <ele>72.227982</ele>
        <time>2020-10-01T09:20:03.294Z</time>
      </trkpt>
      <trkpt lat="63.72248" lon="20.17069">
        <ele>72.212112</ele>
        <time>2020-10-01T09:20:06.254Z</time>
      </trkpt>
      <trkpt lat="63.72238" lon="20.1706">
        <ele>72.194907</ele>
        <time>2020-10-01T09:20:09.308Z</time>
      </trkpt>
      <trkpt lat="63.72228" lon="20.1705">
        <ele>72.177348</ele>
        <time>2020-10-01T09:20:12.302Z</time>
      </trkpt>
      <trkpt lat="63.72219" lon="20.17039">
        <ele>72.159957</ele>
        <time>2020-10-01T09:20:15.289Z</time>
      </trkpt>
      <trkpt lat="63.7221" lon="20.17031">
        <ele>72.143115</ele>
        <time>2020-10-01T09:20:18.282Z</time>
      </trkpt>
      <trkpt lat="63.722" lon="20.17023">
        <ele>72.125554</ele>
        <time>2020-10-01T09:20:21.259Z</time>
      </trkpt>
      <trkpt lat="63.72189" lon="20.17014">
        <ele>72.106538</ele>
        <time>2020-10-01T09:20:24.256Z</time>
      </trkpt>
      <trkpt lat="63.72178" lon="20.17006">
        <ele>72.087858</ele>
        <time>2020-10-01T09:20:27.289Z</time>
      </trkpt>
      <trkpt lat="63.72167" lon="20.17">
        <ele>72.069127</ele>
        <time>2020-10-01T09:20:30.278Z</time>
      </trkpt>
      <trkpt lat="63.72155" lon="20.16994">
        <ele>72.048809</ele>
        <time>2020-10-01T09:20:33.282Z</time>
      </trkpt>
      <trkpt lat="63.72146" lon="20.16988">
        <ele>72.033894</ele>
        <time>2020-10-01T09:20:35.278Z</time>
      </trkpt>
      <trkpt lat="63.72137" lon="20.16983">
        <ele>72.017783</ele>
        <time>2020-10-01T09:20:37.265Z</time>
      </trkpt>
      <trkpt lat="63.72127" lon="20.16977">
        <ele>72.000337</ele>
        <time>2020-10-01T09:20:39.263Z</time>
      </trkpt>
      <trkpt lat="63.72116" lon="20.1697">
        <ele>71.981855</ele>
        <time>2020-10-01T09:20:41.287Z</time>
      </trkpt>
      <trkpt lat="63.72104" lon="20.16964">
        <ele>71.961911</ele>
        <time>2020-10-01T09:20:43.297Z</time>
      </trkpt>
      <trkpt lat="63.72092" lon="20.16957">
        <ele>71.899584</ele>
        <time>2020-10-01T09:20:45.264Z</time>
      </trkpt>
      <trkpt lat="63.7208" lon="20.16951">
        <ele>71.64085</ele>
        <time>2020-10-01T09:20:47.254Z</time>
      </trkpt>
      <trkpt lat="63.72067" lon="20.16944">
        <ele>71.370445</ele>
        <time>2020-10-01T09:20:49.302Z</time>
      </trkpt>
      <trkpt lat="63.72053" lon="20.16936">
        <ele>71.078925</ele>
        <time>2020-10-01T09:20:51.270Z</time>
      </trkpt>
      <trkpt lat="63.72038" lon="20.16926">
        <ele>70.760782</ele>
        <time>2020-10-01T09:20:53.256Z</time>
      </trkpt>
      <trkpt lat="63.72022" lon="20.16915">
        <ele>70.430631</ele>
        <time>2020-10-01T09:20:55.248Z</time>
      </trkpt>
      <trkpt lat="63.72006" lon="20.16901">
        <ele>70.09251</ele>
        <time>2020-10-01T09:20:57.262Z</time>
      </trkpt>
      <trkpt lat="63.71991" lon="20.16887">
        <ele>69.749508</ele>
        <time>2020-10-01T09:20:59.245Z</time>
      </trkpt>
      <trkpt lat="63.71975" lon="20.16871">
        <ele>69.408173</ele>
        <time>2020-10-01T09:21:01.254Z</time>
      </trkpt>
      <trkpt lat="63.7196" lon="20.16855">
        <ele>69.070074</ele>
        <time>2020-10-01T09:21:03.268Z</time>
      </trkpt>
      <trkpt lat="63.71945" lon="20.1684">
        <ele>68.739032</ele>
        <time>2020-10-01T09:21:05.284Z</time>
      </trkpt>
      <trkpt lat="63.71931" lon="20.16824">
        <ele>68.413124</ele>
        <time>2020-10-01T09:21:07.266Z</time>
      </trkpt>
      <trkpt lat="63.71916" lon="20.16811">
        <ele>68.035792</ele>
        <time>2020-10-01T09:21:09.277Z</time>
      </trkpt>
      <trkpt lat="63.71903" lon="20.16797">
        <ele>67.6575</ele>
        <time>2020-10-01T09:21:11.258Z</time>
      </trkpt>
      <trkpt lat="63.71891" lon="20.16784">
        <ele>67.302619</ele>
        <time>2020-10-01T09:21:13.260Z</time>
      </trkpt>
      <trkpt lat="63.71879" lon="20.16772">
        <ele>66.960117</ele>
        <time>2020-10-01T09:21:15.276Z</time>
      </trkpt>
      <trkpt lat="63.71867" lon="20.16763">
        <ele>66.627668</ele>
        <time>2020-10-01T09:21:17.296Z</time>
      </trkpt>
      <trkpt lat="63.71855" lon="20.16757">
        <ele>66.298641</ele>
        <time>2020-10-01T09:21:19.272Z</time>
      </trkpt>
      <trkpt lat="63.71843" lon="20.16757">
        <ele>65.984054</ele>
        <time>2020-10-01T09:21:21.275Z</time>
      </trkpt>
      <trkpt lat="63.71831" lon="20.1676">
        <ele>65.674473</ele>
        <time>2020-10-01T09:21:23.267Z</time>
      </trkpt>
      <trkpt lat="63.71819" lon="20.16767">
        <ele>65.364657</ele>
        <time>2020-10-01T09:21:25.253Z</time>
      </trkpt>
      <trkpt lat="63.71809" lon="20.16776">
        <ele>65.062597</ele>
        <time>2020-10-01T09:21:27.267Z</time>
      </trkpt>
      <trkpt lat="63.71798" lon="20.16785">
        <ele>64.757602</ele>
        <time>2020-10-01T09:21:29.246Z</time>
      </trkpt>
      <trkpt lat="63.71787" lon="20.16796">
        <ele>64.45622</ele>
        <time>2020-10-01T09:21:31.259Z</time>
      </trkpt>
      <trkpt lat="63.71777" lon="20.16807">
        <ele>64.161374</ele>
        <time>2020-10-01T09:21:33.290Z</time>
      </trkpt>
      <trkpt lat="63.71767" lon="20.16818">
        <ele>63.860442</ele>
        <time>2020-10-01T09:21:35.307Z</time>
      </trkpt>
      <trkpt lat="63.71757" lon="20.16829">
        <ele>63.618836</ele>
        <time>2020-10-01T09:21:37.288Z</time>
      </trkpt>
      <trkpt lat="63.71747" lon="20.16838">
        <ele>63.798879</ele>
        <time>2020-10-01T09:21:39.267Z</time>
      </trkpt>
      <trkpt lat="63.71738" lon="20.16847">
        <ele>63.976332</ele>
        <time>2020-10-01T09:21:41.258Z</time>
      </trkpt>
      <trkpt lat="63.71729" lon="20.16855">
        <ele>64.15983</ele>
        <time>2020-10-01T09:21:43.313Z</time>
      </trkpt>
      <trkpt lat="63.71719" lon="20.16864">
        <ele>64.353386</ele>
        <time>2020-10-01T09:21:45.255Z</time>
      </trkpt>
      <trkpt lat="63.71708" lon="20.1687">
        <ele>64.554303</ele>
        <time>2020-10-01T09:21:47.279Z</time>
      </trkpt>
      <trkpt lat="63.71696" lon="20.16874">
        <ele>64.767044</ele>
        <time>2020-10-01T09:21:49.273Z</time>
      </trkpt>
      <trkpt lat="63.71684" lon="20.16879">
        <ele>64.992449</ele>
        <time>2020-10-01T09:21:51.256Z</time>
      </trkpt>
      <trkpt lat="63.71672" lon="20.16881">
        <ele>65.206735</ele>
        <time>2020-10-01T09:21:53.270Z</time>
      </trkpt>
      <trkpt lat="63.71661" lon="20.1688">
        <ele>65.397145</ele>
        <time>2020-10-01T09:21:55.276Z</time>
      </trkpt>
      <trkpt lat="63.71651" lon="20.1688">
        <ele>65.591145</ele>
        <time>2020-10-01T09:21:57.276Z</time>
      </trkpt>
      <trkpt lat="63.7164" lon="20.16879">
        <ele>65.786923</ele>
        <time>2020-10-01T09:21:59.257Z</time>
      </trkpt>
      <trkpt lat="63.71629" lon="20.16878">
        <ele>65.981027</ele>
        <time>2020-10-01T09:22:01.261Z</time>
      </trkpt>
      <trkpt lat="63.71618" lon="20.16876">
        <ele>66.181054</ele>
        <time>2020-10-01T09:22:03.278Z</time>
      </trkpt>
      <trkpt lat="63.71607" lon="20.16872">
        <ele>66.375321</ele>
        <time>2020-10-01T09:22:05.275Z</time>
      </trkpt>
      <trkpt lat="63.71596" lon="20.16868">
        <ele>66.579331</ele>
        <time>2020-10-01T09:22:07.321Z</time>
      </trkpt>
      <trkpt lat="63.71585" lon="20.16861">
        <ele>66.786286</ele>
        <time>2020-10-01T09:22:09.267Z</time>
      </trkpt>
      <trkpt lat="63.71574" lon="20.16852">
        <ele>66.997369</ele>
        <time>2020-10-01T09:22:11.255Z</time>
      </trkpt>
      <trkpt lat="63.71562" lon="20.16839">
        <ele>67.217543</ele>
        <time>2020-10-01T09:22:13.292Z</time>
      </trkpt>
      <trkpt lat="63.71552" lon="20.16824">
        <ele>67.44426</ele>
        <time>2020-10-01T09:22:15.264Z</time>
      </trkpt>
      <trkpt lat="63.71542" lon="20.16807">
        <ele>67.662864</ele>
        <time>2020-10-01T09:22:17.283Z</time>
      </trkpt>
      <trkpt lat="63.71533" lon="20.1679">
        <ele>67.867277</ele>
        <time>2020-10-01T09:22:19.278Z</time>
      </trkpt>
      <trkpt lat="63.71525" lon="20.16772">
        <ele>68.067951</ele>
        <time>2020-10-01T09:22:21.264Z</time>
      </trkpt>
      <trkpt lat="63.71516" lon="20.16757">
        <ele>68.264464</ele>
        <time>2020-10-01T09:22:23.260Z</time>
      </trkpt>
      <trkpt lat="63.71507" lon="20.16742">
        <ele>68.454954</ele>
        <time>2020-10-01T09:22:25.257Z</time>
      </trkpt>
      <trkpt lat="63.71498" lon="20.16727">
        <ele>68.651653</ele>
        <time>2020-10-01T09:22:27.299Z</time>
      </trkpt>
      <trkpt lat="63.71489" lon="20.16714">
        <ele>68.849779</ele>
        <time>2020-10-01T09:22:29.265Z</time>
      </trkpt>
      <trkpt lat="63.71478" lon="20.16702">
        <ele>69.053153</ele>
        <time>2020-10-01T09:22:31.269Z</time>
      </trkpt>
      <trkpt lat="63.71468" lon="20.16692">
        <ele>69.24954</ele>
        <time>2020-10-01T09:22:33.288Z</time>
      </trkpt>
      <trkpt lat="63.71458" lon="20.16685">
        <ele>69.440327</ele>
        <time>2020-10-01T09:22:35.267Z</time>
      </trkpt>
      <trkpt lat="63.71446" lon="20.16678">
        <ele>69.653383</ele>
        <time>2020-10-01T09:22:37.263Z</time>
      </trkpt>
      <trkpt lat="63.71435" lon="20.16674">
        <ele>69.854181</ele>
        <time>2020-10-01T09:22:39.289Z</time>
      </trkpt>
      <trkpt lat="63.71425" lon="20.16671">
        <ele>69.975428</ele>
        <time>2020-10-01T09:22:41.252Z</time>
      </trkpt>
      <trkpt lat="63.71414" lon="20.16669">
        <ele>69.82425</ele>
        <time>2020-10-01T09:22:43.294Z</time>
      </trkpt>
      <trkpt lat="63.71404" lon="20.16666">
        <ele>69.672335</ele>
        <time>2020-10-01T09:22:45.262Z</time>
      </trkpt>
      <trkpt lat="63.71393" lon="20.16664">
        <ele>69.523348</ele>
        <time>2020-10-01T09:22:47.256Z</time>
      </trkpt>
      <trkpt lat="63.71383" lon="20.1666">
        <ele>69.374036</ele>
        <time>2020-10-01T09:22:49.271Z</time>
      </trkpt>
      <trkpt lat="63.71372" lon="20.16656">
        <ele>69.215343</ele>
        <time>2020-10-01T09:22:51.260Z</time>
      </trkpt>
      <trkpt lat="63.71361" lon="20.16651">
        <ele>69.056888</ele>
        <time>2020-10-01T09:22:53.259Z</time>
      </trkpt>
      <trkpt lat="63.7135" lon="20.16644">
        <ele>68.888939</ele>
        <time>2020-10-01T09:22:55.259Z</time>
      </trkpt>
      <trkpt lat="63.71339" lon="20.16636">
        <ele>68.72727</ele>
        <time>2020-10-01T09:22:57.309Z</time>
      </trkpt>
      <trkpt lat="63.71329" lon="20.16627">
        <ele>68.569768</ele>
        <time>2020-10-01T09:22:59.280Z</time>
      </trkpt>
      <trkpt lat="63.71319" lon="20.16616">
        <ele>68.407734</ele>
        <time>2020-10-01T09:23:01.257Z</time>
      </trkpt>
      <trkpt lat="63.71309" lon="20.16605">
        <ele>68.247428</ele>
        <time>2020-10-01T09:23:03.268Z</time>
      </trkpt>
      <trkpt lat="63.71299" lon="20.16594">
        <ele>68.09026</ele>
        <time>2020-10-01T09:23:05.302Z</time>
      </trkpt>
      <trkpt lat="63.7129" lon="20.16584">
        <ele>67.937072</ele>
        <time>2020-10-01T09:23:07.262Z</time>
      </trkpt>
      <trkpt lat="63.7128" lon="20.16572">
        <ele>67.784798</ele>
        <time>2020-10-01T09:23:09.277Z</time>
      </trkpt>
      <trkpt lat="63.71271" lon="20.1656">
        <ele>67.627523</ele>
        <time>2020-10-01T09:23:11.263Z</time>
      </trkpt>
      <trkpt lat="63.71261" lon="20.16548">
        <ele>67.470857</ele>
        <time>2020-10-01T09:23:13.258Z</time>
      </trkpt>
      <trkpt lat="63.71252" lon="20.16537">
        <ele>67.358272</ele>
        <time>2020-10-01T09:23:15.290Z</time>
      </trkpt>
      <trkpt lat="63.71242" lon="20.16526">
        <ele>67.262664</ele>
        <time>2020-10-01T09:23:17.330Z</time>
      </trkpt>
      <trkpt lat="63.71232" lon="20.16514">
        <ele>67.162294</ele>
        <time>2020-10-01T09:23:19.269Z</time>
      </trkpt>
      <trkpt lat="63.71222" lon="20.16503">
        <ele>67.067528</ele>
        <time>2020-10-01T09:23:21.266Z</time>
      </trkpt>
      <trkpt lat="63.71213" lon="20.16491">
        <ele>66.978108</ele>
        <time>2020-10-01T09:23:23.297Z</time>
      </trkpt>
      <trkpt lat="63.71204" lon="20.1648">
        <ele>66.885358</ele>
        <time>2020-10-01T09:23:25.264Z</time>
      </trkpt>
      <trkpt lat="63.71194" lon="20.16469">
        <ele>66.793807</ele>
        <time>2020-10-01T09:23:27.265Z</time>
      </trkpt>
      <trkpt lat="63.71186" lon="20.16458">
        <ele>66.704949</ele>
        <time>2020-10-01T09:23:29.276Z</time>
      </trkpt>
      <trkpt lat="63.71177" lon="20.16448">
        <ele>66.620945</ele>
        <time>2020-10-01T09:23:31.296Z</time>
      </trkpt>
      <trkpt lat="63.71168" lon="20.16437">
        <ele>66.535132</ele>
        <time>2020-10-01T09:23:33.287Z</time>
      </trkpt>
      <trkpt lat="63.7116" lon="20.16427">
        <ele>66.451979</ele>
        <time>2020-10-01T09:23:35.282Z</time>
      </trkpt>
      <trkpt lat="63.71152" lon="20.16416">
        <ele>66.368249</ele>
        <time>2020-10-01T09:23:37.247Z</time>
      </trkpt>
      <trkpt lat="63.71143" lon="20.16405">
        <ele>66.281298</ele>
        <time>2020-10-01T09:23:39.252Z</time>
      </trkpt>
      <trkpt lat="63.71134" lon="20.16393">
        <ele>66.189019</ele>
        <time>2020-10-01T09:23:41.282Z</time>
      </trkpt>
      <trkpt lat="63.71123" lon="20.1638">
        <ele>66.083062</ele>
        <time>2020-10-01T09:23:43.318Z</time>
      </trkpt>
      <trkpt lat="63.71112" lon="20.16368">
        <ele>65.976454</ele>
        <time>2020-10-01T09:23:45.270Z</time>
      </trkpt>
      <trkpt lat="63.71101" lon="20.16356">
        <ele>65.870706</ele>
        <time>2020-10-01T09:23:47.257Z</time>
      </trkpt>
      <trkpt lat="63.71091" lon="20.16344">
        <ele>65.861774</ele>
        <time>2020-10-01T09:23:49.252Z</time>
      </trkpt>
      <trkpt lat="63.71081" lon="20.16333">
        <ele>65.873228</ele>
        <time>2020-10-01T09:23:51.255Z</time>
      </trkpt>
      <trkpt lat="63.71072" lon="20.16322">
        <ele>65.884093</ele>
        <time>2020-10-01T09:23:53.270Z</time>
      </trkpt>
      <trkpt lat="63.71063" lon="20.16312">
        <ele>65.894418</ele>
        <time>2020-10-01T09:23:55.246Z</time>
      </trkpt>
      <trkpt lat="63.71055" lon="20.16301">
        <ele>65.90426</ele>
        <time>2020-10-01T09:23:57.261Z</time>
      </trkpt>
      <trkpt lat="63.71047" lon="20.16291">
        <ele>65.914036</ele>
        <time>2020-10-01T09:23:59.260Z</time>
      </trkpt>
      <trkpt lat="63.71039" lon="20.16281">
        <ele>65.923991</ele>
        <time>2020-10-01T09:24:01.309Z</time>
      </trkpt>
      <trkpt lat="63.71031" lon="20.1627">
        <ele>65.934015</ele>
        <time>2020-10-01T09:24:03.257Z</time>
      </trkpt>
      <trkpt lat="63.71022" lon="20.1626">
        <ele>65.944361</ele>
        <time>2020-10-01T09:24:05.310Z</time>
      </trkpt>
      <trkpt lat="63.71013" lon="20.16249">
        <ele>65.954961</ele>
        <time>2020-10-01T09:24:07.274Z</time>
      </trkpt>
      <trkpt lat="63.71005" lon="20.16238">
        <ele>65.965422</ele>
        <time>2020-10-01T09:24:09.280Z</time>
      </trkpt>
      <trkpt lat="63.70996" lon="20.16227">
        <ele>65.976069</ele>
        <time>2020-10-01T09:24:11.274Z</time>
      </trkpt>
      <trkpt lat="63.70987" lon="20.16217">
        <ele>65.986371</ele>
        <time>2020-10-01T09:24:13.293Z</time>
      </trkpt>
      <trkpt lat="63.70978" lon="20.16207">
        <ele>65.997018</ele>
        <time>2020-10-01T09:24:15.261Z</time>
      </trkpt>
      <trkpt lat="63.70969" lon="20.16196">
        <ele>66.007853</ele>
        <time>2020-10-01T09:24:17.301Z</time>
      </trkpt>
      <trkpt lat="63.70959" lon="20.16185">
        <ele>66.019389</ele>
        <time>2020-10-01T09:24:19.260Z</time>
      </trkpt>
      <trkpt lat="63.70949" lon="20.16173">
        <ele>66.031782</ele>
        <time>2020-10-01T09:24:21.278Z</time>
      </trkpt>
      <trkpt lat="63.70938" lon="20.1616">
        <ele>65.979839</ele>
        <time>2020-10-01T09:24:23.284Z</time>
      </trkpt>
      <trkpt lat="63.70927" lon="20.16147">
        <ele>65.68825</ele>
        <time>2020-10-01T09:24:25.273Z</time>
      </trkpt>
      <trkpt lat="63.70916" lon="20.16133">
        <ele>65.381174</ele>
        <time>2020-10-01T09:24:27.301Z</time>
      </trkpt>
      <trkpt lat="63.70904" lon="20.16119">
        <ele>65.066837</ele>
        <time>2020-10-01T09:24:29.264Z</time>
      </trkpt>
      <trkpt lat="63.70892" lon="20.16104">
        <ele>64.741323</ele>
        <time>2020-10-01T09:24:31.298Z</time>
      </trkpt>
      <trkpt lat="63.7088" lon="20.16089">
        <ele>64.421007</ele>
        <time>2020-10-01T09:24:33.288Z</time>
      </trkpt>
      <trkpt lat="63.70868" lon="20.16075">
        <ele>64.1057</ele>
        <time>2020-10-01T09:24:35.267Z</time>
      </trkpt>
      <trkpt lat="63.70857" lon="20.1606">
        <ele>63.786924</ele>
        <time>2020-10-01T09:24:37.303Z</time>
      </trkpt>
      <trkpt lat="63.70846" lon="20.16047">
        <ele>63.501588</ele>
        <time>2020-10-01T09:24:39.253Z</time>
      </trkpt>
      <trkpt lat="63.70836" lon="20.16034">
        <ele>63.228115</ele>
        <time>2020-10-01T09:24:41.256Z</time>
      </trkpt>
      <trkpt lat="63.70826" lon="20.16022">
        <ele>62.944756</ele>
        <time>2020-10-01T09:24:43.278Z</time>
      </trkpt>
      <trkpt lat="63.70815" lon="20.1601">
        <ele>62.668012</ele>
        <time>2020-10-01T09:24:45.263Z</time>
      </trkpt>
      <trkpt lat="63.70805" lon="20.15996">
        <ele>62.39133</ele>
        <time>2020-10-01T09:24:47.290Z</time>
      </trkpt>
      <trkpt lat="63.70795" lon="20.15983">
        <ele>62.121475</ele>
        <time>2020-10-01T09:24:49.257Z</time>
      </trkpt>
      <trkpt lat="63.70786" lon="20.15969">
        <ele>61.851397</ele>
        <time>2020-10-01T09:24:51.293Z</time>
      </trkpt>
      <trkpt lat="63.70776" lon="20.15953">
        <ele>61.588153</ele>
        <time>2020-10-01T09:24:53.275Z</time>
      </trkpt>
      <trkpt lat="63.70767" lon="20.15937">
        <ele>61.328008</ele>
        <time>2020-10-01T09:24:55.267Z</time>
      </trkpt>
      <trkpt lat="63.70757" lon="20.15918">
        <ele>61.050499</ele>
        <time>2020-10-01T09:24:57.259Z</time>
      </trkpt>
      <trkpt lat="63.70747" lon="20.15901">
        <ele>60.766751</ele>
        <time>2020-10-01T09:24:59.268Z</time>
      </trkpt>
      <trkpt lat="63.70736" lon="20.15881">
        <ele>60.454223</ele>
        <time>2020-10-01T09:25:01.309Z</time>
      </trkpt>
      <trkpt lat="63.70726" lon="20.1586">
        <ele>60.143264</ele>
        <time>2020-10-01T09:25:03.266Z</time>
      </trkpt>
      <trkpt lat="63.70716" lon="20.15839">
        <ele>59.852179</ele>
        <time>2020-10-01T09:25:05.301Z</time>
      </trkpt>
      <trkpt lat="63.70707" lon="20.15821">
        <ele>59.582222</ele>
        <time>2020-10-01T09:25:07.268Z</time>
      </trkpt>
      <trkpt lat="63.70699" lon="20.15805">
        <ele>59.348293</ele>
        <time>2020-10-01T09:25:09.273Z</time>
      </trkpt>
      <trkpt lat="63.70692" lon="20.15789">
        <ele>59.12886</ele>
        <time>2020-10-01T09:25:11.288Z</time>
      </trkpt>
      <trkpt lat="63.70686" lon="20.15773">
        <ele>58.917699</ele>
        <time>2020-10-01T09:25:13.251Z</time>
      </trkpt>
      <trkpt lat="63.70676" lon="20.15751">
        <ele>58.622142</ele>
        <time>2020-10-01T09:25:16.297Z</time>
      </trkpt>
      <trkpt lat="63.70668" lon="20.15731">
        <ele>58.343256</ele>
        <time>2020-10-01T09:25:19.300Z</time>
      </trkpt>
      <trkpt lat="63.7066" lon="20.15712">
        <ele>58.094141</ele>
        <time>2020-10-01T09:25:22.307Z</time>
      </trkpt>
      <trkpt lat="63.70653" lon="20.15695">
        <ele>57.862378</ele>
        <time>2020-10-01T09:25:25.308Z</time>
      </trkpt>
      <trkpt lat="63.70645" lon="20.15677">
        <ele>58.359904</ele>
        <time>2020-10-01T09:25:28.250Z</time>
      </trkpt>
      <trkpt lat="63.70638" lon="20.15659">
        <ele>59.043879</ele>
        <time>2020-10-01T09:25:31.259Z</time>
      </trkpt>
      <trkpt lat="63.70631" lon="20.15642">
        <ele>59.706959</ele>
        <time>2020-10-01T09:25:34.270Z</time>
      </trkpt>
      <trkpt lat="63.70623" lon="20.15626">
        <ele>60.361926</ele>
        <time>2020-10-01T09:25:37.287Z</time>
      </trkpt>
      <trkpt lat="63.70616" lon="20.1561">
        <ele>61.006674</ele>
        <time>2020-10-01T09:25:40.248Z</time>
      </trkpt>
      <trkpt lat="63.7061" lon="20.15593">
        <ele>61.598233</ele>
        <time>2020-10-01T09:25:43.265Z</time>
      </trkpt>
      <trkpt lat="63.70604" lon="20.15577">
        <ele>62.231691</ele>
        <time>2020-10-01T09:25:46.262Z</time>
      </trkpt>
      <trkpt lat="63.70595" lon="20.15557">
        <ele>63.00138</ele>
        <time>2020-10-01T09:25:49.299Z</time>
      </trkpt>
      <trkpt lat="63.70588" lon="20.15538">
        <ele>63.725465</ele>
        <time>2020-10-01T09:25:52.295Z</time>
      </trkpt>
      <trkpt lat="63.70581" lon="20.1552">
        <ele>64.386333</ele>
        <time>2020-10-01T09:25:55.247Z</time>
      </trkpt>
      <trkpt lat="63.70573" lon="20.15503">
        <ele>65.06015</ele>
        <time>2020-10-01T09:25:58.259Z</time>
      </trkpt>
      <trkpt lat="63.70566" lon="20.15487">
        <ele>65.73757</ele>
        <time>2020-10-01T09:26:01.280Z</time>
      </trkpt>
      <trkpt lat="63.70557" lon="20.15472">
        <ele>66.393535</ele>
        <time>2020-10-01T09:26:04.264Z</time>
      </trkpt>
      <trkpt lat="63.7055" lon="20.15459">
        <ele>67.000628</ele>
        <time>2020-10-01T09:26:07.293Z</time>
      </trkpt>
      <trkpt lat="63.7054" lon="20.15444">
        <ele>67.74651</ele>
        <time>2020-10-01T09:26:11.274Z</time>
      </trkpt>
      <trkpt lat="63.70531" lon="20.15429">
        <ele>68.46873</ele>
        <time>2020-10-01T09:26:15.268Z</time>
      </trkpt>
      <trkpt lat="63.70523" lon="20.15417">
        <ele>69.064216</ele>
        <time>2020-10-01T09:26:18.306Z</time>
      </trkpt>
      <trkpt lat="63.70515" lon="20.15406">
        <ele>69.265915</ele>
        <time>2020-10-01T09:26:21.283Z</time>
      </trkpt>
      <trkpt lat="63.70505" lon="20.15395">
        <ele>69.322082</ele>
        <time>2020-10-01T09:26:24.260Z</time>
      </trkpt>
      <trkpt lat="63.70495" lon="20.15385">
        <ele>69.376486</ele>
        <time>2020-10-01T09:26:27.264Z</time>
      </trkpt>
      <trkpt lat="63.70486" lon="20.15376">
        <ele>69.428478</ele>
        <time>2020-10-01T09:26:30.295Z</time>
      </trkpt>
      <trkpt lat="63.70476" lon="20.15368">
        <ele>69.479157</ele>
        <time>2020-10-01T09:26:33.273Z</time>
      </trkpt>
      <trkpt lat="63.70466" lon="20.1536">
        <ele>69.532249</ele>
        <time>2020-10-01T09:26:36.267Z</time>
      </trkpt>
      <trkpt lat="63.70457" lon="20.15353">
        <ele>69.58361</ele>
        <time>2020-10-01T09:26:39.268Z</time>
      </trkpt>
      <trkpt lat="63.70447" lon="20.15347">
        <ele>69.635354</ele>
        <time>2020-10-01T09:26:42.259Z</time>
      </trkpt>
      <trkpt lat="63.70437" lon="20.15338">
        <ele>69.688338</ele>
        <time>2020-10-01T09:26:45.249Z</time>
      </trkpt>
      <trkpt lat="63.70427" lon="20.15327">
        <ele>69.74545</ele>
        <time>2020-10-01T09:26:48.261Z</time>
      </trkpt>
      <trkpt lat="63.70417" lon="20.15314">
        <ele>69.804371</ele>
        <time>2020-10-01T09:26:51.268Z</time>
      </trkpt>
      <trkpt lat="63.70409" lon="20.15298">
        <ele>69.860604</ele>
        <time>2020-10-01T09:26:54.287Z</time>
      </trkpt>
      <trkpt lat="63.70401" lon="20.15281">
        <ele>69.914582</ele>
        <time>2020-10-01T09:26:57.261Z</time>
      </trkpt>
      <trkpt lat="63.70393" lon="20.15263">
        <ele>69.971408</ele>
        <time>2020-10-01T09:27:00.260Z</time>
      </trkpt>
      <trkpt lat="63.70385" lon="20.15245">
        <ele>70.03073</ele>
        <time>2020-10-01T09:27:03.255Z</time>
      </trkpt>
      <trkpt lat="63.70377" lon="20.15228">
        <ele>70.08613</ele>
        <time>2020-10-01T09:27:06.251Z</time>
      </trkpt>
      <trkpt lat="63.70369" lon="20.15215">
        <ele>70.134109</ele>
        <time>2020-10-01T09:27:09.292Z</time>
      </trkpt>
      <trkpt lat="63.70361" lon="20.15201">
        <ele>70.265075</ele>
        <time>2020-10-01T09:27:12.260Z</time>
      </trkpt>
      <trkpt lat="63.70352" lon="20.15188">
        <ele>70.42725</ele>
        <time>2020-10-01T09:27:15.278Z</time>
      </trkpt>
      <trkpt lat="63.70343" lon="20.15176">
        <ele>70.57897</ele>
        <time>2020-10-01T09:27:18.283Z</time>
      </trkpt>
      <trkpt lat="63.70335" lon="20.15166">
        <ele>70.722068</ele>
        <time>2020-10-01T09:27:21.298Z</time>
      </trkpt>
      <trkpt lat="63.70326" lon="20.15155">
        <ele>70.868673</ele>
        <time>2020-10-01T09:27:24.270Z</time>
      </trkpt>
      <trkpt lat="63.70317" lon="20.15142">
        <ele>71.019934</ele>
        <time>2020-10-01T09:27:27.286Z</time>
      </trkpt>
      <trkpt lat="63.70309" lon="20.1513">
        <ele>71.162757</ele>
        <time>2020-10-01T09:27:30.258Z</time>
      </trkpt>
      <trkpt lat="63.703" lon="20.15118">
        <ele>71.318279</ele>
        <time>2020-10-01T09:27:33.286Z</time>
      </trkpt>
      <trkpt lat="63.7029" lon="20.15106">
        <ele>71.484974</ele>
        <time>2020-10-01T09:27:36.264Z</time>
      </trkpt>
      <trkpt lat="63.7028" lon="20.15095">
        <ele>71.649738</ele>
        <time>2020-10-01T09:27:39.257Z</time>
      </trkpt>
      <trkpt lat="63.7027" lon="20.15084">
        <ele>71.806416</ele>
        <time>2020-10-01T09:27:42.263Z</time>
      </trkpt>
      <trkpt lat="63.70261" lon="20.15076">
        <ele>71.951732</ele>
        <time>2020-10-01T09:27:45.270Z</time>
      </trkpt>
      <trkpt lat="63.70251" lon="20.15069">
        <ele>72.105684</ele>
        <time>2020-10-01T09:27:48.247Z</time>
      </trkpt>
      <trkpt lat="63.70241" lon="20.15063">
        <ele>72.259548</ele>
        <time>2020-10-01T09:27:51.259Z</time>
      </trkpt>
      <trkpt lat="63.70231" lon="20.15055">
        <ele>72.40514</ele>
        <time>2020-10-01T09:27:54.268Z</time>
      </trkpt>
      <trkpt lat="63.70221" lon="20.15048">
        <ele>72.568464</ele>
        <time>2020-10-01T09:27:57.290Z</time>
      </trkpt>
      <trkpt lat="63.70211" lon="20.15036">
        <ele>72.731178</ele>
        <time>2020-10-01T09:28:00.272Z</time>
      </trkpt>
      <trkpt lat="63.70201" lon="20.15027">
        <ele>72.905971</ele>
        <time>2020-10-01T09:28:03.256Z</time>
      </trkpt>
      <trkpt lat="63.70191" lon="20.15016">
        <ele>73.098224</ele>
        <time>2020-10-01T09:28:06.274Z</time>
      </trkpt>
      <trkpt lat="63.70181" lon="20.15003">
        <ele>73.292912</ele>
        <time>2020-10-01T09:28:09.267Z</time>
      </trkpt>
      <trkpt lat="63.70171" lon="20.1499">
        <ele>73.480187</ele>
        <time>2020-10-01T09:28:12.275Z</time>
      </trkpt>
      <trkpt lat="63.70162" lon="20.14979">
        <ele>73.652696</ele>
        <time>2020-10-01T09:28:15.273Z</time>
      </trkpt>
      <trkpt lat="63.70153" lon="20.14969">
        <ele>73.82746</ele>
        <time>2020-10-01T09:28:18.252Z</time>
      </trkpt>
      <trkpt lat="63.70143" lon="20.14962">
        <ele>74.000961</ele>
        <time>2020-10-01T09:28:21.256Z</time>
      </trkpt>
      <trkpt lat="63.70133" lon="20.14955">
        <ele>74.179033</ele>
        <time>2020-10-01T09:28:24.309Z</time>
      </trkpt>
      <trkpt lat="63.70123" lon="20.14948">
        <ele>74.358057</ele>
        <time>2020-10-01T09:28:27.286Z</time>
      </trkpt>
      <trkpt lat="63.70114" lon="20.14945">
        <ele>74.51777</ele>
        <time>2020-10-01T09:28:30.310Z</time>
      </trkpt>
      <trkpt lat="63.70104" lon="20.14945">
        <ele>74.685725</ele>
        <time>2020-10-01T09:28:33.272Z</time>
      </trkpt>
      <trkpt lat="63.70093" lon="20.14946">
        <ele>74.875806</ele>
        <time>2020-10-01T09:28:36.278Z</time>
      </trkpt>
      <trkpt lat="63.70081" lon="20.14949">
        <ele>75.077434</ele>
        <time>2020-10-01T09:28:39.267Z</time>
      </trkpt>
      <trkpt lat="63.70068" lon="20.14952">
        <ele>75.296085</ele>
        <time>2020-10-01T09:28:42.249Z</time>
      </trkpt>
      <trkpt lat="63.70059" lon="20.14955">
        <ele>75.449745</ele>
        <time>2020-10-01T09:28:44.250Z</time>
      </trkpt>
      <trkpt lat="63.7005" lon="20.14956">
        <ele>75.606043</ele>
        <time>2020-10-01T09:28:46.302Z</time>
      </trkpt>
      <trkpt lat="63.7004" lon="20.14955">
        <ele>75.77061</ele>
        <time>2020-10-01T09:28:48.259Z</time>
      </trkpt>
      <trkpt lat="63.70031" lon="20.14955">
        <ele>75.668593</ele>
        <time>2020-10-01T09:28:50.306Z</time>
      </trkpt>
      <trkpt lat="63.70018" lon="20.1495">
        <ele>75.2796</ele>
        <time>2020-10-01T09:28:53.261Z</time>
      </trkpt>
      <trkpt lat="63.70009" lon="20.14945">
        <ele>75.00769</ele>
        <time>2020-10-01T09:28:55.269Z</time>
      </trkpt>
      <trkpt lat="63.7" lon="20.1494">
        <ele>74.732915</ele>
        <time>2020-10-01T09:28:57.304Z</time>
      </trkpt>
      <trkpt lat="63.69991" lon="20.14934">
        <ele>74.452882</ele>
        <time>2020-10-01T09:28:59.252Z</time>
      </trkpt>
      <trkpt lat="63.69981" lon="20.14926">
        <ele>74.146523</ele>
        <time>2020-10-01T09:29:01.257Z</time>
      </trkpt>
      <trkpt lat="63.69971" lon="20.14916">
        <ele>73.813192</ele>
        <time>2020-10-01T09:29:03.269Z</time>
      </trkpt>
      <trkpt lat="63.69961" lon="20.14906">
        <ele>73.486831</ele>
        <time>2020-10-01T09:29:05.273Z</time>
      </trkpt>
      <trkpt lat="63.69951" lon="20.14896">
        <ele>73.163857</ele>
        <time>2020-10-01T09:29:07.284Z</time>
      </trkpt>
      <trkpt lat="63.69942" lon="20.14883">
        <ele>72.84557</ele>
        <time>2020-10-01T09:29:09.280Z</time>
      </trkpt>
      <trkpt lat="63.69933" lon="20.14872">
        <ele>72.54349</ele>
        <time>2020-10-01T09:29:11.287Z</time>
      </trkpt>
      <trkpt lat="63.69924" lon="20.14859">
        <ele>72.229765</ele>
        <time>2020-10-01T09:29:13.273Z</time>
      </trkpt>
      <trkpt lat="63.69914" lon="20.14845">
        <ele>71.886024</ele>
        <time>2020-10-01T09:29:15.283Z</time>
      </trkpt>
      <trkpt lat="63.69904" lon="20.14831">
        <ele>71.525836</ele>
        <time>2020-10-01T09:29:17.267Z</time>
      </trkpt>
      <trkpt lat="63.69892" lon="20.14817">
        <ele>71.142021</ele>
        <time>2020-10-01T09:29:19.265Z</time>
      </trkpt>
      <trkpt lat="63.69881" lon="20.14801">
        <ele>70.747851</ele>
        <time>2020-10-01T09:29:21.263Z</time>
      </trkpt>
      <trkpt lat="63.69869" lon="20.14785">
        <ele>70.436291</ele>
        <time>2020-10-01T09:29:23.283Z</time>
      </trkpt>
      <trkpt lat="63.69858" lon="20.14769">
        <ele>70.25893</ele>
        <time>2020-10-01T09:29:25.263Z</time>
      </trkpt>
      <trkpt lat="63.69848" lon="20.14754">
        <ele>70.091028</ele>
        <time>2020-10-01T09:29:27.272Z</time>
      </trkpt>
      <trkpt lat="63.69839" lon="20.14738">
        <ele>69.931664</ele>
        <time>2020-10-01T09:29:29.286Z</time>
      </trkpt>
      <trkpt lat="63.69828" lon="20.14723">
        <ele>69.765226</ele>
        <time>2020-10-01T09:29:31.269Z</time>
      </trkpt>
      <trkpt lat="63.69818" lon="20.14707">
        <ele>69.593923</ele>
        <time>2020-10-01T09:29:33.290Z</time>
      </trkpt>
      <trkpt lat="63.69808" lon="20.1469">
        <ele>69.420513</ele>
        <time>2020-10-01T09:29:35.251Z</time>
      </trkpt>
      <trkpt lat="63.69798" lon="20.14674">
        <ele>69.252472</ele>
        <time>2020-10-01T09:29:37.257Z</time>
      </trkpt>
      <trkpt lat="63.69788" lon="20.14657">
        <ele>69.087754</ele>
        <time>2020-10-01T09:29:39.276Z</time>
      </trkpt>
      <trkpt lat="63.69778" lon="20.14639">
        <ele>68.916712</ele>
        <time>2020-10-01T09:29:41.260Z</time>
      </trkpt>
      <trkpt lat="63.6977" lon="20.14622">
        <ele>68.760849</ele>
        <time>2020-10-01T09:29:43.252Z</time>
      </trkpt>
      <trkpt lat="63.69761" lon="20.14607">
        <ele>68.617691</ele>
        <time>2020-10-01T09:29:45.268Z</time>
      </trkpt>
      <trkpt lat="63.69753" lon="20.14593">
        <ele>68.480486</ele>
        <time>2020-10-01T09:29:47.263Z</time>
      </trkpt>
      <trkpt lat="63.69747" lon="20.14579">
        <ele>68.35277</ele>
        <time>2020-10-01T09:29:49.278Z</time>
      </trkpt>
      <trkpt lat="63.6974" lon="20.14564">
        <ele>68.224232</ele>
        <time>2020-10-01T09:29:51.259Z</time>
      </trkpt>
      <trkpt lat="63.69731" lon="20.14543">
        <ele>68.093671</ele>
        <time>2020-10-01T09:29:54.253Z</time>
      </trkpt>
      <trkpt lat="63.69725" lon="20.14527">
        <ele>68.244831</ele>
        <time>2020-10-01T09:29:56.262Z</time>
      </trkpt>
      <trkpt lat="63.69716" lon="20.14505">
        <ele>68.456613</ele>
        <time>2020-10-01T09:29:59.272Z</time>
      </trkpt>
      <trkpt lat="63.6971" lon="20.1449">
        <ele>68.601433</ele>
        <time>2020-10-01T09:30:01.342Z</time>
      </trkpt>
      <trkpt lat="63.69702" lon="20.14466">
        <ele>68.816376</ele>
        <time>2020-10-01T09:30:04.267Z</time>
      </trkpt>
      <trkpt lat="63.69695" lon="20.1444">
        <ele>69.030769</ele>
        <time>2020-10-01T09:30:07.274Z</time>
      </trkpt>
      <trkpt lat="63.69691" lon="20.14422">
        <ele>69.178009</ele>
        <time>2020-10-01T09:30:09.261Z</time>
      </trkpt>
      <trkpt lat="63.69686" lon="20.14404">
        <ele>69.329565</ele>
        <time>2020-10-01T09:30:11.268Z</time>
      </trkpt>
      <trkpt lat="63.6968" lon="20.14385">
        <ele>69.496592</ele>
        <time>2020-10-01T09:30:13.280Z</time>
      </trkpt>
      <trkpt lat="63.69674" lon="20.14364">
        <ele>69.675868</ele>
        <time>2020-10-01T09:30:15.303Z</time>
      </trkpt>
      <trkpt lat="63.69667" lon="20.14344">
        <ele>69.848594</ele>
        <time>2020-10-01T09:30:17.278Z</time>
      </trkpt>
      <trkpt lat="63.69662" lon="20.14325">
        <ele>70.012443</ele>
        <time>2020-10-01T09:30:19.268Z</time>
      </trkpt>
      <trkpt lat="63.69657" lon="20.14305">
        <ele>70.174879</ele>
        <time>2020-10-01T09:30:21.262Z</time>
      </trkpt>
      <trkpt lat="63.69652" lon="20.14285">
        <ele>70.342258</ele>
        <time>2020-10-01T09:30:23.257Z</time>
      </trkpt>
      <trkpt lat="63.69647" lon="20.14267">
        <ele>70.498924</ele>
        <time>2020-10-01T09:30:25.293Z</time>
      </trkpt>
      <trkpt lat="63.69641" lon="20.14248">
        <ele>70.657596</ele>
        <time>2020-10-01T09:30:27.280Z</time>
      </trkpt>
      <trkpt lat="63.69635" lon="20.1423">
        <ele>70.818355</ele>
        <time>2020-10-01T09:30:29.280Z</time>
      </trkpt>
      <trkpt lat="63.69629" lon="20.14213">
        <ele>70.975616</ele>
        <time>2020-10-01T09:30:31.262Z</time>
      </trkpt>
      <trkpt lat="63.69623" lon="20.14196">
        <ele>70.881109</ele>
        <time>2020-10-01T09:30:33.274Z</time>
      </trkpt>
      <trkpt lat="63.69617" lon="20.14182">
        <ele>70.789411</ele>
        <time>2020-10-01T09:30:35.275Z</time>
      </trkpt>
      <trkpt lat="63.69609" lon="20.14169">
        <ele>70.690868</ele>
        <time>2020-10-01T09:30:37.276Z</time>
      </trkpt>
      <trkpt lat="63.696" lon="20.14158">
        <ele>70.592013</ele>
        <time>2020-10-01T09:30:39.270Z</time>
      </trkpt>
      <trkpt lat="63.69592" lon="20.14149">
        <ele>70.495853</ele>
        <time>2020-10-01T09:30:41.266Z</time>
      </trkpt>
      <trkpt lat="63.69583" lon="20.14142">
        <ele>70.403054</ele>
        <time>2020-10-01T09:30:43.294Z</time>
      </trkpt>
      <trkpt lat="63.69574" lon="20.14135">
        <ele>70.310334</ele>
        <time>2020-10-01T09:30:45.254Z</time>
      </trkpt>
      <trkpt lat="63.69565" lon="20.14128">
        <ele>70.218556</ele>
        <time>2020-10-01T09:30:47.261Z</time>
      </trkpt>
      <trkpt lat="63.69557" lon="20.1412">
        <ele>70.127926</ele>
        <time>2020-10-01T09:30:49.270Z</time>
      </trkpt>
      <trkpt lat="63.69549" lon="20.14112">
        <ele>70.036376</ele>
        <time>2020-10-01T09:30:51.257Z</time>
      </trkpt>
      <trkpt lat="63.69536" lon="20.14102">
        <ele>69.904403</ele>
        <time>2020-10-01T09:30:54.260Z</time>
      </trkpt>
      <trkpt lat="63.69524" lon="20.14091">
        <ele>69.776667</ele>
        <time>2020-10-01T09:30:57.260Z</time>
      </trkpt>
      <trkpt lat="63.69513" lon="20.1408">
        <ele>69.646926</ele>
        <time>2020-10-01T09:31:00.280Z</time>
      </trkpt>
      <trkpt lat="63.69501" lon="20.14069">
        <ele>69.518044</ele>
        <time>2020-10-01T09:31:03.260Z</time>
      </trkpt>
      <trkpt lat="63.6949" lon="20.14059">
        <ele>69.403822</ele>
        <time>2020-10-01T09:31:06.302Z</time>
      </trkpt>
      <trkpt lat="63.6948" lon="20.14052">
        <ele>69.297931</ele>
        <time>2020-10-01T09:31:09.264Z</time>
      </trkpt>
      <trkpt lat="63.6947" lon="20.14043">
        <ele>69.192987</ele>
        <time>2020-10-01T09:31:12.290Z</time>
      </trkpt>
      <trkpt lat="63.69459" lon="20.14035">
        <ele>69.198052</ele>
        <time>2020-10-01T09:31:15.299Z</time>
      </trkpt>
      <trkpt lat="63.69446" lon="20.14025">
        <ele>69.233618</ele>
        <time>2020-10-01T09:31:18.273Z</time>
      </trkpt>
      <trkpt lat="63.69437" lon="20.14018">
        <ele>69.258303</ele>
        <time>2020-10-01T09:31:20.282Z</time>
      </trkpt>
      <trkpt lat="63.69428" lon="20.1401">
        <ele>69.28182</ele>
        <time>2020-10-01T09:31:22.327Z</time>
      </trkpt>
      <trkpt lat="63.69416" lon="20.14001">
        <ele>69.315494</ele>
        <time>2020-10-01T09:31:25.289Z</time>
      </trkpt>
      <trkpt lat="63.69404" lon="20.13992">
        <ele>69.34834</ele>
        <time>2020-10-01T09:31:28.265Z</time>
      </trkpt>
      <trkpt lat="63.69391" lon="20.13982">
        <ele>69.382216</ele>
        <time>2020-10-01T09:31:31.257Z</time>
      </trkpt>
      <trkpt lat="63.69379" lon="20.1397">
        <ele>69.415596</ele>
        <time>2020-10-01T09:31:34.268Z</time>
      </trkpt>
      <trkpt lat="63.69368" lon="20.13958">
        <ele>69.448967</ele>
        <time>2020-10-01T09:31:37.265Z</time>
      </trkpt>
      <trkpt lat="63.69356" lon="20.13946">
        <ele>69.482107</ele>
        <time>2020-10-01T09:31:40.288Z</time>
      </trkpt>
      <trkpt lat="63.69345" lon="20.13935">
        <ele>69.513795</ele>
        <time>2020-10-01T09:31:43.268Z</time>
      </trkpt>
      <trkpt lat="63.69334" lon="20.13925">
        <ele>69.543233</ele>
        <time>2020-10-01T09:31:46.283Z</time>
      </trkpt>
      <trkpt lat="63.69323" lon="20.13918">
        <ele>69.57217</ele>
        <time>2020-10-01T09:31:49.285Z</time>
      </trkpt>
      <trkpt lat="63.69314" lon="20.13914">
        <ele>69.595207</ele>
        <time>2020-10-01T09:31:51.321Z</time>
      </trkpt>
      <trkpt lat="63.69305" lon="20.1391">
        <ele>69.619923</ele>
        <time>2020-10-01T09:31:53.256Z</time>
      </trkpt>
      <trkpt lat="63.69295" lon="20.13908">
        <ele>69.562341</ele>
        <time>2020-10-01T09:31:55.305Z</time>
      </trkpt>
      <trkpt lat="63.69286" lon="20.13907">
        <ele>69.381331</ele>
        <time>2020-10-01T09:31:57.298Z</time>
      </trkpt>
      <trkpt lat="63.69277" lon="20.13908">
        <ele>69.200215</ele>
        <time>2020-10-01T09:31:59.265Z</time>
      </trkpt>
      <trkpt lat="63.69268" lon="20.1391">
        <ele>69.024377</ele>
        <time>2020-10-01T09:32:01.268Z</time>
      </trkpt>
      <trkpt lat="63.69259" lon="20.13912">
        <ele>68.846601</ele>
        <time>2020-10-01T09:32:03.254Z</time>
      </trkpt>
      <trkpt lat="63.69249" lon="20.13914">
        <ele>68.651385</ele>
        <time>2020-10-01T09:32:05.279Z</time>
      </trkpt>
      <trkpt lat="63.69239" lon="20.13915">
        <ele>68.45679</ele>
        <time>2020-10-01T09:32:07.265Z</time>
      </trkpt>
      <trkpt lat="63.69229" lon="20.13916">
        <ele>68.265918</ele>
        <time>2020-10-01T09:32:09.282Z</time>
      </trkpt>
      <trkpt lat="63.69219" lon="20.13915">
        <ele>68.075001</ele>
        <time>2020-10-01T09:32:11.265Z</time>
      </trkpt>
      <trkpt lat="63.6921" lon="20.13913">
        <ele>67.887379</ele>
        <time>2020-10-01T09:32:13.285Z</time>
      </trkpt>
      <trkpt lat="63.692" lon="20.13909">
        <ele>67.690656</ele>
        <time>2020-10-01T09:32:15.286Z</time>
      </trkpt>
      <trkpt lat="63.69189" lon="20.13905">
        <ele>67.487348</ele>
        <time>2020-10-01T09:32:17.270Z</time>
      </trkpt>
      <trkpt lat="63.69179" lon="20.13902">
        <ele>67.29036</ele>
        <time>2020-10-01T09:32:19.264Z</time>
      </trkpt>
      <trkpt lat="63.6917" lon="20.13898">
        <ele>67.104281</ele>
        <time>2020-10-01T09:32:21.284Z</time>
      </trkpt>
      <trkpt lat="63.69157" lon="20.13893">
        <ele>66.848306</ele>
        <time>2020-10-01T09:32:24.293Z</time>
      </trkpt>
      <trkpt lat="63.69144" lon="20.13887">
        <ele>66.590524</ele>
        <time>2020-10-01T09:32:27.273Z</time>
      </trkpt>
      <trkpt lat="63.69131" lon="20.13882">
        <ele>66.33178</ele>
        <time>2020-10-01T09:32:30.252Z</time>
      </trkpt>
      <trkpt lat="63.69122" lon="20.13879">
        <ele>66.150568</ele>
        <time>2020-10-01T09:32:32.275Z</time>
      </trkpt>
      <trkpt lat="63.69112" lon="20.13876">
        <ele>66.127805</ele>
        <time>2020-10-01T09:32:34.284Z</time>
      </trkpt>
      <trkpt lat="63.69103" lon="20.13873">
        <ele>66.119421</ele>
        <time>2020-10-01T09:32:36.266Z</time>
      </trkpt>
      <trkpt lat="63.69093" lon="20.13869">
        <ele>66.110804</ele>
        <time>2020-10-01T09:32:38.268Z</time>
      </trkpt>
      <trkpt lat="63.69083" lon="20.13866">
        <ele>66.102094</ele>
        <time>2020-10-01T09:32:40.269Z</time>
      </trkpt>
      <trkpt lat="63.69073" lon="20.13863">
        <ele>66.093644</ele>
        <time>2020-10-01T09:32:42.273Z</time>
      </trkpt>
      <trkpt lat="63.69064" lon="20.13862">
        <ele>66.085403</ele>
        <time>2020-10-01T09:32:44.294Z</time>
      </trkpt>
      <trkpt lat="63.69051" lon="20.1386">
        <ele>66.074108</ele>
        <time>2020-10-01T09:32:47.279Z</time>
      </trkpt>
      <trkpt lat="63.69037" lon="20.13858">
        <ele>66.062197</ele>
        <time>2020-10-01T09:32:50.280Z</time>
      </trkpt>
      <trkpt lat="63.69024" lon="20.13857">
        <ele>66.050744</ele>
        <time>2020-10-01T09:32:53.280Z</time>
      </trkpt>
      <trkpt lat="63.69015" lon="20.13857">
        <ele>66.042441</ele>
        <time>2020-10-01T09:32:55.247Z</time>
      </trkpt>
      <trkpt lat="63.69005" lon="20.13856">
        <ele>66.03369</ele>
        <time>2020-10-01T09:32:57.302Z</time>
      </trkpt>
      <trkpt lat="63.68995" lon="20.13855">
        <ele>66.025122</ele>
        <time>2020-10-01T09:32:59.271Z</time>
      </trkpt>
      <trkpt lat="63.68985" lon="20.13854">
        <ele>66.016374</ele>
        <time>2020-10-01T09:33:01.286Z</time>
      </trkpt>
      <trkpt lat="63.68975" lon="20.13854">
        <ele>66.007984</ele>
        <time>2020-10-01T09:33:03.270Z</time>
      </trkpt>
      <trkpt lat="63.68966" lon="20.13853">
        <ele>65.999417</ele>
        <time>2020-10-01T09:33:05.254Z</time>
      </trkpt>
      <trkpt lat="63.68952" lon="20.13853">
        <ele>65.987356</ele>
        <time>2020-10-01T09:33:08.278Z</time>
      </trkpt>
      <trkpt lat="63.68942" lon="20.13853">
        <ele>65.978529</ele>
        <time>2020-10-01T09:33:10.284Z</time>
      </trkpt>
      <trkpt lat="63.68932" lon="20.13852">
        <ele>66.054484</ele>
        <time>2020-10-01T09:33:12.278Z</time>
      </trkpt>
      <trkpt lat="63.6892" lon="20.13849">
        <ele>66.16047</ele>
        <time>2020-10-01T09:33:15.265Z</time>
      </trkpt>
      <trkpt lat="63.68909" lon="20.13843">
        <ele>66.256229</ele>
        <time>2020-10-01T09:33:18.285Z</time>
      </trkpt>
      <trkpt lat="63.68898" lon="20.13832">
        <ele>66.354654</ele>
        <time>2020-10-01T09:33:21.243Z</time>
      </trkpt>
      <trkpt lat="63.68888" lon="20.1382">
        <ele>66.452004</ele>
        <time>2020-10-01T09:33:24.293Z</time>
      </trkpt>
      <trkpt lat="63.68877" lon="20.13806">
        <ele>66.553514</ele>
        <time>2020-10-01T09:33:27.287Z</time>
      </trkpt>
      <trkpt lat="63.68867" lon="20.13791">
        <ele>66.6593</ele>
        <time>2020-10-01T09:33:30.266Z</time>
      </trkpt>
      <trkpt lat="63.68856" lon="20.13777">
        <ele>66.765214</ele>
        <time>2020-10-01T09:33:33.258Z</time>
      </trkpt>
      <trkpt lat="63.68846" lon="20.13763">
        <ele>66.864573</ele>
        <time>2020-10-01T09:33:36.291Z</time>
      </trkpt>
      <trkpt lat="63.68835" lon="20.1375">
        <ele>66.969401</ele>
        <time>2020-10-01T09:33:39.300Z</time>
      </trkpt>
      <trkpt lat="63.68824" lon="20.13737">
        <ele>67.066318</ele>
        <time>2020-10-01T09:33:42.327Z</time>
      </trkpt>
      <trkpt lat="63.68813" lon="20.13726">
        <ele>67.170687</ele>
        <time>2020-10-01T09:33:45.263Z</time>
      </trkpt>
      <trkpt lat="63.68802" lon="20.13716">
        <ele>67.272942</ele>
        <time>2020-10-01T09:33:48.285Z</time>
      </trkpt>
      <trkpt lat="63.6879" lon="20.13708">
        <ele>67.377929</ele>
        <time>2020-10-01T09:33:51.278Z</time>
      </trkpt>
      <trkpt lat="63.68777" lon="20.13699">
        <ele>67.480248</ele>
        <time>2020-10-01T09:33:54.269Z</time>
      </trkpt>
      <trkpt lat="63.68767" lon="20.13695">
        <ele>67.374014</ele>
        <time>2020-10-01T09:33:56.264Z</time>
      </trkpt>
      <trkpt lat="63.68757" lon="20.1369">
        <ele>67.263881</ele>
        <time>2020-10-01T09:33:58.279Z</time>
      </trkpt>
      <trkpt lat="63.68747" lon="20.13687">
        <ele>67.153581</ele>
        <time>2020-10-01T09:34:00.269Z</time>
      </trkpt>
      <trkpt lat="63.68737" lon="20.13684">
        <ele>67.048179</ele>
        <time>2020-10-01T09:34:02.251Z</time>
      </trkpt>
      <trkpt lat="63.68728" lon="20.13682">
        <ele>66.949159</ele>
        <time>2020-10-01T09:34:04.317Z</time>
      </trkpt>
      <trkpt lat="63.68718" lon="20.13681">
        <ele>66.843167</ele>
        <time>2020-10-01T09:34:06.261Z</time>
      </trkpt>
      <trkpt lat="63.68707" lon="20.13681">
        <ele>66.731908</ele>
        <time>2020-10-01T09:34:08.295Z</time>
      </trkpt>
      <trkpt lat="63.68696" lon="20.13682">
        <ele>66.610868</ele>
        <time>2020-10-01T09:34:10.250Z</time>
      </trkpt>
      <trkpt lat="63.68684" lon="20.13685">
        <ele>66.480968</ele>
        <time>2020-10-01T09:34:12.251Z</time>
      </trkpt>
      <trkpt lat="63.68671" lon="20.13687">
        <ele>66.344507</ele>
        <time>2020-10-01T09:34:14.262Z</time>
      </trkpt>
      <trkpt lat="63.68658" lon="20.13688">
        <ele>66.199995</ele>
        <time>2020-10-01T09:34:16.273Z</time>
      </trkpt>
      <trkpt lat="63.68644" lon="20.13688">
        <ele>66.054505</ele>
        <time>2020-10-01T09:34:18.269Z</time>
      </trkpt>
      <trkpt lat="63.68631" lon="20.13687">
        <ele>65.914186</ele>
        <time>2020-10-01T09:34:20.250Z</time>
      </trkpt>
      <trkpt lat="63.68619" lon="20.13684">
        <ele>65.786039</ele>
        <time>2020-10-01T09:34:22.258Z</time>
      </trkpt>
      <trkpt lat="63.68608" lon="20.13679">
        <ele>65.66198</ele>
        <time>2020-10-01T09:34:24.296Z</time>
      </trkpt>
      <trkpt lat="63.68597" lon="20.13673">
        <ele>65.504286</ele>
        <time>2020-10-01T09:34:26.303Z</time>
      </trkpt>
      <trkpt lat="63.68585" lon="20.13667">
        <ele>65.103978</ele>
        <time>2020-10-01T09:34:28.277Z</time>
      </trkpt>
      <trkpt lat="63.68574" lon="20.13659">
        <ele>64.701362</ele>
        <time>2020-10-01T09:34:30.267Z</time>
      </trkpt>
      <trkpt lat="63.68563" lon="20.1365">
        <ele>64.305122</ele>
        <time>2020-10-01T09:34:32.258Z</time>
      </trkpt>
      <trkpt lat="63.68552" lon="20.13639">
        <ele>63.907022</ele>
        <time>2020-10-01T09:34:34.268Z</time>
      </trkpt>
      <trkpt lat="63.68542" lon="20.13628">
        <ele>63.522951</ele>
        <time>2020-10-01T09:34:36.267Z</time>
      </trkpt>
      <trkpt lat="63.68531" lon="20.13617">
        <ele>63.144039</ele>
        <time>2020-10-01T09:34:38.251Z</time>
      </trkpt>
      <trkpt lat="63.68521" lon="20.13605">
        <ele>62.761467</ele>
        <time>2020-10-01T09:34:40.275Z</time>
      </trkpt>
      <trkpt lat="63.68511" lon="20.13594">
        <ele>62.377395</ele>
        <time>2020-10-01T09:34:42.287Z</time>
      </trkpt>
      <trkpt lat="63.68501" lon="20.13584">
        <ele>62.001839</ele>
        <time>2020-10-01T09:34:44.253Z</time>
      </trkpt>
      <trkpt lat="63.6849" lon="20.13576">
        <ele>61.614299</ele>
        <time>2020-10-01T09:34:46.282Z</time>
      </trkpt>
      <trkpt lat="63.68477" lon="20.13572">
        <ele>61.200745</ele>
        <time>2020-10-01T09:34:48.257Z</time>
      </trkpt>
      <trkpt lat="63.68465" lon="20.13569">
        <ele>60.777122</ele>
        <time>2020-10-01T09:34:50.276Z</time>
      </trkpt>
      <trkpt lat="63.68452" lon="20.13569">
        <ele>60.341691</ele>
        <time>2020-10-01T09:34:52.280Z</time>
      </trkpt>
      <trkpt lat="63.68439" lon="20.13571">
        <ele>59.898168</ele>
        <time>2020-10-01T09:34:54.295Z</time>
      </trkpt>
      <trkpt lat="63.68426" lon="20.13577">
        <ele>59.470151</ele>
        <time>2020-10-01T09:34:56.259Z</time>
      </trkpt>
      <trkpt lat="63.68413" lon="20.13586">
        <ele>59.103882</ele>
        <time>2020-10-01T09:34:58.269Z</time>
      </trkpt>
      <trkpt lat="63.68401" lon="20.13597">
        <ele>58.73299</ele>
        <time>2020-10-01T09:35:00.298Z</time>
      </trkpt>
      <trkpt lat="63.68388" lon="20.13606">
        <ele>58.354033</ele>
        <time>2020-10-01T09:35:02.257Z</time>
      </trkpt>
      <trkpt lat="63.68375" lon="20.13612">
        <ele>57.965124</ele>
        <time>2020-10-01T09:35:04.265Z</time>
      </trkpt>
      <trkpt lat="63.68361" lon="20.13615">
        <ele>57.57864</ele>
        <time>2020-10-01T09:35:06.274Z</time>
      </trkpt>
      <trkpt lat="63.68348" lon="20.13616">
        <ele>57.194222</ele>
        <time>2020-10-01T09:35:08.258Z</time>
      </trkpt>
      <trkpt lat="63.68334" lon="20.13613">
        <ele>56.814381</ele>
        <time>2020-10-01T09:35:10.312Z</time>
      </trkpt>
      <trkpt lat="63.68321" lon="20.13609">
        <ele>56.443366</ele>
        <time>2020-10-01T09:35:12.256Z</time>
      </trkpt>
      <trkpt lat="63.68309" lon="20.13602">
        <ele>56.096697</ele>
        <time>2020-10-01T09:35:14.278Z</time>
      </trkpt>
      <trkpt lat="63.68298" lon="20.13595">
        <ele>55.771528</ele>
        <time>2020-10-01T09:35:16.305Z</time>
      </trkpt>
      <trkpt lat="63.68288" lon="20.13586">
        <ele>55.444781</ele>
        <time>2020-10-01T09:35:18.269Z</time>
      </trkpt>
      <trkpt lat="63.68277" lon="20.13578">
        <ele>55.142631</ele>
        <time>2020-10-01T09:35:20.266Z</time>
      </trkpt>
      <trkpt lat="63.68268" lon="20.1357">
        <ele>54.863489</ele>
        <time>2020-10-01T09:35:22.288Z</time>
      </trkpt>
      <trkpt lat="63.68259" lon="20.13561">
        <ele>54.581526</ele>
        <time>2020-10-01T09:35:24.261Z</time>
      </trkpt>
      <trkpt lat="63.6825" lon="20.13553">
        <ele>54.612065</ele>
        <time>2020-10-01T09:35:26.290Z</time>
      </trkpt>
      <trkpt lat="63.68241" lon="20.13545">
        <ele>54.900641</ele>
        <time>2020-10-01T09:35:28.258Z</time>
      </trkpt>
      <trkpt lat="63.68232" lon="20.13537">
        <ele>55.190994</ele>
        <time>2020-10-01T09:35:30.284Z</time>
      </trkpt>
      <trkpt lat="63.68223" lon="20.1353">
        <ele>55.471946</ele>
        <time>2020-10-01T09:35:32.283Z</time>
      </trkpt>
      <trkpt lat="63.68211" lon="20.13518">
        <ele>55.863076</ele>
        <time>2020-10-01T09:35:35.263Z</time>
      </trkpt>
      <trkpt lat="63.68199" lon="20.13507">
        <ele>56.250707</ele>
        <time>2020-10-01T09:35:38.273Z</time>
      </trkpt>
      <trkpt lat="63.68188" lon="20.13496">
        <ele>56.610186</ele>
        <time>2020-10-01T09:35:41.280Z</time>
      </trkpt>
      <trkpt lat="63.68176" lon="20.13486">
        <ele>56.996783</ele>
        <time>2020-10-01T09:35:44.309Z</time>
      </trkpt>
      <trkpt lat="63.68164" lon="20.13475">
        <ele>57.388189</ele>
        <time>2020-10-01T09:35:47.264Z</time>
      </trkpt>
      <trkpt lat="63.68152" lon="20.13465">
        <ele>57.763569</ele>
        <time>2020-10-01T09:35:50.279Z</time>
      </trkpt>
      <trkpt lat="63.68141" lon="20.13454">
        <ele>58.13582</ele>
        <time>2020-10-01T09:35:53.261Z</time>
      </trkpt>
      <trkpt lat="63.68129" lon="20.13443">
        <ele>58.522468</ele>
        <time>2020-10-01T09:35:56.265Z</time>
      </trkpt>
      <trkpt lat="63.68117" lon="20.13432">
        <ele>58.902147</ele>
        <time>2020-10-01T09:35:59.262Z</time>
      </trkpt>
      <trkpt lat="63.68107" lon="20.13419">
        <ele>59.257789</ele>
        <time>2020-10-01T09:36:02.264Z</time>
      </trkpt>
      <trkpt lat="63.68098" lon="20.13405">
        <ele>59.583431</ele>
        <time>2020-10-01T09:36:05.264Z</time>
      </trkpt>
      <trkpt lat="63.68089" lon="20.13391">
        <ele>59.892479</ele>
        <time>2020-10-01T09:36:08.269Z</time>
      </trkpt>
      <trkpt lat="63.6808" lon="20.13378">
        <ele>60.106329</ele>
        <time>2020-10-01T09:36:11.270Z</time>
      </trkpt>
      <trkpt lat="63.68073" lon="20.13361">
        <ele>60.315017</ele>
        <time>2020-10-01T09:36:14.294Z</time>
      </trkpt>
      <trkpt lat="63.68065" lon="20.13345">
        <ele>60.535955</ele>
        <time>2020-10-01T09:36:17.256Z</time>
      </trkpt>
      <trkpt lat="63.68057" lon="20.13328">
        <ele>60.762984</ele>
        <time>2020-10-01T09:36:20.277Z</time>
      </trkpt>
      <trkpt lat="63.68048" lon="20.1331">
        <ele>61.005371</ele>
        <time>2020-10-01T09:36:23.287Z</time>
      </trkpt>
      <trkpt lat="63.6804" lon="20.13289">
        <ele>61.251834</ele>
        <time>2020-10-01T09:36:26.279Z</time>
      </trkpt>
      <trkpt lat="63.68033" lon="20.13265">
        <ele>61.524772</ele>
        <time>2020-10-01T09:36:29.302Z</time>
      </trkpt>
      <trkpt lat="63.68027" lon="20.13247">
        <ele>61.73162</ele>
        <time>2020-10-01T09:36:31.270Z</time>
      </trkpt>
      <trkpt lat="63.6802" lon="20.13227">
        <ele>61.957331</ele>
        <time>2020-10-01T09:36:33.258Z</time>
      </trkpt>
      <trkpt lat="63.68013" lon="20.13208">
        <ele>62.186811</ele>
        <time>2020-10-01T09:36:35.265Z</time>
      </trkpt>
      <trkpt lat="63.68005" lon="20.1319">
        <ele>62.410772</ele>
        <time>2020-10-01T09:36:37.293Z</time>
      </trkpt>
      <trkpt lat="63.67998" lon="20.13175">
        <ele>62.617779</ele>
        <time>2020-10-01T09:36:39.267Z</time>
      </trkpt>
      <trkpt lat="63.6799" lon="20.13162">
        <ele>62.81735</ele>
        <time>2020-10-01T09:36:41.279Z</time>
      </trkpt>
      <trkpt lat="63.67981" lon="20.13151">
        <ele>63.019962</ele>
        <time>2020-10-01T09:36:43.290Z</time>
      </trkpt>
      <trkpt lat="63.67971" lon="20.13143">
        <ele>63.246335</ele>
        <time>2020-10-01T09:36:45.262Z</time>
      </trkpt>
      <trkpt lat="63.67962" lon="20.13138">
        <ele>63.441407</ele>
        <time>2020-10-01T09:36:47.294Z</time>
      </trkpt>
      <trkpt lat="63.67952" lon="20.13134">
        <ele>63.413424</ele>
        <time>2020-10-01T09:36:49.268Z</time>
      </trkpt>
      <trkpt lat="63.67939" lon="20.13131">
        <ele>63.090052</ele>
        <time>2020-10-01T09:36:52.264Z</time>
      </trkpt>
      <trkpt lat="63.67928" lon="20.13128">
        <ele>62.799686</ele>
        <time>2020-10-01T09:36:55.301Z</time>
      </trkpt>
      <trkpt lat="63.67917" lon="20.13126">
        <ele>62.534537</ele>
        <time>2020-10-01T09:36:58.301Z</time>
      </trkpt>
      <trkpt lat="63.67907" lon="20.13126">
        <ele>62.277693</ele>
        <time>2020-10-01T09:37:01.259Z</time>
      </trkpt>
      <trkpt lat="63.67896" lon="20.13126">
        <ele>62.015862</ele>
        <time>2020-10-01T09:37:04.254Z</time>
      </trkpt>
      <trkpt lat="63.67887" lon="20.13125">
        <ele>61.790983</ele>
        <time>2020-10-01T09:37:07.267Z</time>
      </trkpt>
      <trkpt lat="63.67878" lon="20.13125">
        <ele>61.544113</ele>
        <time>2020-10-01T09:37:10.269Z</time>
      </trkpt>
      <trkpt lat="63.67868" lon="20.13124">
        <ele>61.304669</ele>
        <time>2020-10-01T09:37:13.264Z</time>
      </trkpt>
      <trkpt lat="63.67858" lon="20.13123">
        <ele>61.055117</ele>
        <time>2020-10-01T09:37:16.246Z</time>
      </trkpt>
      <trkpt lat="63.67846" lon="20.13119">
        <ele>60.753108</ele>
        <time>2020-10-01T09:37:19.256Z</time>
      </trkpt>
      <trkpt lat="63.67836" lon="20.13115">
        <ele>60.496393</ele>
        <time>2020-10-01T09:37:21.253Z</time>
      </trkpt>
      <trkpt lat="63.67825" lon="20.13108">
        <ele>60.217961</ele>
        <time>2020-10-01T09:37:23.265Z</time>
      </trkpt>
      <trkpt lat="63.67815" lon="20.131">
        <ele>59.949396</ele>
        <time>2020-10-01T09:37:25.265Z</time>
      </trkpt>
      <trkpt lat="63.67805" lon="20.13093">
        <ele>59.69134</ele>
        <time>2020-10-01T09:37:27.266Z</time>
      </trkpt>
      <trkpt lat="63.67795" lon="20.13086">
        <ele>59.421023</ele>
        <time>2020-10-01T09:37:29.261Z</time>
      </trkpt>
      <trkpt lat="63.67785" lon="20.13079">
        <ele>59.162313</ele>
        <time>2020-10-01T09:37:31.304Z</time>
      </trkpt>
      <trkpt lat="63.67775" lon="20.13073">
        <ele>58.845968</ele>
        <time>2020-10-01T09:37:33.268Z</time>
      </trkpt>
      <trkpt lat="63.67766" lon="20.13068">
        <ele>58.496544</ele>
        <time>2020-10-01T09:37:35.256Z</time>
      </trkpt>
      <trkpt lat="63.67757" lon="20.13062">
        <ele>58.154212</ele>
        <time>2020-10-01T09:37:37.270Z</time>
      </trkpt>
      <trkpt lat="63.67748" lon="20.13058">
        <ele>57.813839</ele>
        <time>2020-10-01T09:37:39.258Z</time>
      </trkpt>
      <trkpt lat="63.67738" lon="20.13055">
        <ele>57.455022</ele>
        <time>2020-10-01T09:37:41.248Z</time>
      </trkpt>
      <trkpt lat="63.67728" lon="20.13053">
        <ele>57.089471</ele>
        <time>2020-10-01T09:37:43.255Z</time>
      </trkpt>
      <trkpt lat="63.67719" lon="20.13052">
        <ele>56.747727</ele>
        <time>2020-10-01T09:37:45.264Z</time>
      </trkpt>
      <trkpt lat="63.67709" lon="20.13052">
        <ele>56.380599</ele>
        <time>2020-10-01T09:37:47.308Z</time>
      </trkpt>
      <trkpt lat="63.67698" lon="20.13053">
        <ele>55.987687</ele>
        <time>2020-10-01T09:37:49.264Z</time>
      </trkpt>
      <trkpt lat="63.67686" lon="20.13051">
        <ele>55.528289</ele>
        <time>2020-10-01T09:37:51.276Z</time>
      </trkpt>
      <trkpt lat="63.67672" lon="20.13047">
        <ele>55.005705</ele>
        <time>2020-10-01T09:37:53.259Z</time>
      </trkpt>
      <trkpt lat="63.67657" lon="20.13038">
        <ele>54.444607</ele>
        <time>2020-10-01T09:37:55.252Z</time>
      </trkpt>
      <trkpt lat="63.67643" lon="20.13025">
        <ele>53.897016</ele>
        <time>2020-10-01T09:37:57.275Z</time>
      </trkpt>
      <trkpt lat="63.67631" lon="20.13007">
        <ele>53.355126</ele>
        <time>2020-10-01T09:37:59.253Z</time>
      </trkpt>
      <trkpt lat="63.6762" lon="20.12987">
        <ele>52.836374</ele>
        <time>2020-10-01T09:38:01.244Z</time>
      </trkpt>
      <trkpt lat="63.67609" lon="20.12968">
        <ele>52.427415</ele>
        <time>2020-10-01T09:38:03.270Z</time>
      </trkpt>
      <trkpt lat="63.67598" lon="20.12952">
        <ele>52.344545</ele>
        <time>2020-10-01T09:38:05.264Z</time>
      </trkpt>
      <trkpt lat="63.67588" lon="20.12937">
        <ele>52.265717</ele>
        <time>2020-10-01T09:38:07.256Z</time>
      </trkpt>
      <trkpt lat="63.67577" lon="20.12926">
        <ele>52.192098</ele>
        <time>2020-10-01T09:38:09.256Z</time>
      </trkpt>
      <trkpt lat="63.67567" lon="20.12916">
        <ele>52.122144</ele>
        <time>2020-10-01T09:38:11.259Z</time>
      </trkpt>
      <trkpt lat="63.67559" lon="20.12907">
        <ele>52.059894</ele>
        <time>2020-10-01T09:38:13.276Z</time>
      </trkpt>
      <trkpt lat="63.6755" lon="20.12898">
        <ele>51.999519</ele>
        <time>2020-10-01T09:38:15.297Z</time>
      </trkpt>
      <trkpt lat="63.67542" lon="20.1289">
        <ele>51.941923</ele>
        <time>2020-10-01T09:38:17.255Z</time>
      </trkpt>
      <trkpt lat="63.67534" lon="20.12882">
        <ele>51.88435</ele>
        <time>2020-10-01T09:38:19.283Z</time>
      </trkpt>
      <trkpt lat="63.67525" lon="20.12876">
        <ele>51.825625</ele>
        <time>2020-10-01T09:38:21.273Z</time>
      </trkpt>
      <trkpt lat="63.67512" lon="20.12872">
        <ele>51.744796</ele>
        <time>2020-10-01T09:38:24.280Z</time>
      </trkpt>
      <trkpt lat="63.67503" lon="20.12867">
        <ele>51.684802</ele>
        <time>2020-10-01T09:38:26.255Z</time>
      </trkpt>
      <trkpt lat="63.67495" lon="20.12855">
        <ele>51.623998</ele>
        <time>2020-10-01T09:38:28.252Z</time>
      </trkpt>
      <trkpt lat="63.67491" lon="20.12837">
        <ele>51.56336</ele>
        <time>2020-10-01T09:38:30.280Z</time>
      </trkpt>
      <trkpt lat="63.67485" lon="20.1281">
        <ele>51.479206</ele>
        <time>2020-10-01T09:38:33.260Z</time>
      </trkpt>
      <trkpt lat="63.67479" lon="20.12785">
        <ele>51.397594</ele>
        <time>2020-10-01T09:38:36.268Z</time>
      </trkpt>
      <trkpt lat="63.67473" lon="20.12761">
        <ele>51.319188</ele>
        <time>2020-10-01T09:38:39.262Z</time>
      </trkpt>
      <trkpt lat="63.67466" lon="20.12738">
        <ele>51.53553</ele>
        <time>2020-10-01T09:38:42.267Z</time>
      </trkpt>
      <trkpt lat="63.6746" lon="20.12713">
        <ele>51.939298</ele>
        <time>2020-10-01T09:38:45.304Z</time>
      </trkpt>
      <trkpt lat="63.67455" lon="20.12695">
        <ele>52.237587</ele>
        <time>2020-10-01T09:38:47.325Z</time>
      </trkpt>
      <trkpt lat="63.6745" lon="20.12676">
        <ele>52.530461</ele>
        <time>2020-10-01T09:38:49.296Z</time>
      </trkpt>
      <trkpt lat="63.67446" lon="20.12657">
        <ele>52.831188</ele>
        <time>2020-10-01T09:38:51.268Z</time>
      </trkpt>
      <trkpt lat="63.6744" lon="20.12639">
        <ele>53.133948</ele>
        <time>2020-10-01T09:38:53.285Z</time>
      </trkpt>
      <trkpt lat="63.67435" lon="20.12619">
        <ele>53.454048</ele>
        <time>2020-10-01T09:38:55.271Z</time>
      </trkpt>
      <trkpt lat="63.6743" lon="20.12598">
        <ele>53.791653</ele>
        <time>2020-10-01T09:38:57.268Z</time>
      </trkpt>
      <trkpt lat="63.67425" lon="20.12575">
        <ele>54.143401</ele>
        <time>2020-10-01T09:38:59.306Z</time>
      </trkpt>
      <trkpt lat="63.6742" lon="20.12551">
        <ele>54.501005</ele>
        <time>2020-10-01T09:39:01.263Z</time>
      </trkpt>
      <trkpt lat="63.67416" lon="20.12528">
        <ele>54.85861</ele>
        <time>2020-10-01T09:39:03.261Z</time>
      </trkpt>
      <trkpt lat="63.67411" lon="20.12505">
        <ele>55.209981</ele>
        <time>2020-10-01T09:39:05.280Z</time>
      </trkpt>
      <trkpt lat="63.67406" lon="20.1248">
        <ele>55.576456</ele>
        <time>2020-10-01T09:39:07.252Z</time>
      </trkpt>
      <trkpt lat="63.67401" lon="20.12457">
        <ele>55.933012</ele>
        <time>2020-10-01T09:39:09.280Z</time>
      </trkpt>
      <trkpt lat="63.67396" lon="20.12435">
        <ele>56.274233</ele>
        <time>2020-10-01T09:39:11.268Z</time>
      </trkpt>
      <trkpt lat="63.67392" lon="20.12412">
        <ele>56.624258</ele>
        <time>2020-10-01T09:39:13.264Z</time>
      </trkpt>
      <trkpt lat="63.67388" lon="20.12385">
        <ele>56.77315</ele>
        <time>2020-10-01T09:39:15.269Z</time>
      </trkpt>
      <trkpt lat="63.67384" lon="20.12357">
        <ele>56.313704</ele>
        <time>2020-10-01T09:39:17.278Z</time>
      </trkpt>
      <trkpt lat="63.6738" lon="20.12327">
        <ele>55.824373</ele>
        <time>2020-10-01T09:39:19.277Z</time>
      </trkpt>
      <trkpt lat="63.67376" lon="20.12295">
        <ele>55.295416</ele>
        <time>2020-10-01T09:39:21.266Z</time>
      </trkpt>
      <trkpt lat="63.67372" lon="20.12259">
        <ele>54.714369</ele>
        <time>2020-10-01T09:39:23.271Z</time>
      </trkpt>
      <trkpt lat="63.67368" lon="20.1222">
        <ele>54.102908</ele>
        <time>2020-10-01T09:39:25.280Z</time>
      </trkpt>
      <trkpt lat="63.67365" lon="20.12182">
        <ele>53.50008</ele>
        <time>2020-10-01T09:39:27.269Z</time>
      </trkpt>
      <trkpt lat="63.67363" lon="20.12144">
        <ele>52.893135</ele>
        <time>2020-10-01T09:39:29.260Z</time>
      </trkpt>
      <trkpt lat="63.6736" lon="20.12105">
        <ele>52.28103</ele>
        <time>2020-10-01T09:39:31.297Z</time>
      </trkpt>
      <trkpt lat="63.67358" lon="20.12067">
        <ele>51.673288</ele>
        <time>2020-10-01T09:39:33.270Z</time>
      </trkpt>
      <trkpt lat="63.67357" lon="20.12028">
        <ele>51.075064</ele>
        <time>2020-10-01T09:39:35.266Z</time>
      </trkpt>
      <trkpt lat="63.67356" lon="20.11991">
        <ele>50.45478</ele>
        <time>2020-10-01T09:39:37.278Z</time>
      </trkpt>
      <trkpt lat="63.67356" lon="20.11953">
        <ele>49.487858</ele>
        <time>2020-10-01T09:39:39.273Z</time>
      </trkpt>
      <trkpt lat="63.67357" lon="20.11932">
        <ele>48.966348</ele>
        <time>2020-10-01T09:39:40.273Z</time>
      </trkpt>
      <trkpt lat="63.67357" lon="20.11911">
        <ele>48.429738</ele>
        <time>2020-10-01T09:39:41.285Z</time>
      </trkpt>
      <trkpt lat="63.67357" lon="20.1189">
        <ele>47.908228</ele>
        <time>2020-10-01T09:39:42.256Z</time>
      </trkpt>
      <trkpt lat="63.67359" lon="20.11853">
        <ele>46.968156</ele>
        <time>2020-10-01T09:39:44.269Z</time>
      </trkpt>
      <trkpt lat="63.67361" lon="20.11818">
        <ele>46.07527</ele>
        <time>2020-10-01T09:39:46.265Z</time>
      </trkpt>
      <trkpt lat="63.67362" lon="20.11784">
        <ele>45.215105</ele>
        <time>2020-10-01T09:39:48.255Z</time>
      </trkpt>
      <trkpt lat="63.67362" lon="20.11751">
        <ele>44.390753</ele>
        <time>2020-10-01T09:39:50.265Z</time>
      </trkpt>
      <trkpt lat="63.67363" lon="20.11722">
        <ele>43.659446</ele>
        <time>2020-10-01T09:39:52.257Z</time>
      </trkpt>
      <trkpt lat="63.67365" lon="20.1169">
        <ele>42.849685</ele>
        <time>2020-10-01T09:39:54.266Z</time>
      </trkpt>
      <trkpt lat="63.67368" lon="20.11658">
        <ele>42.016872</ele>
        <time>2020-10-01T09:39:56.260Z</time>
      </trkpt>
      <trkpt lat="63.6737" lon="20.11626">
        <ele>41.21561</ele>
        <time>2020-10-01T09:39:58.276Z</time>
      </trkpt>
      <trkpt lat="63.67371" lon="20.11598">
        <ele>40.498999</ele>
        <time>2020-10-01T09:40:00.281Z</time>
      </trkpt>
      <trkpt lat="63.67373" lon="20.11572">
        <ele>40.389284</ele>
        <time>2020-10-01T09:40:02.265Z</time>
      </trkpt>
      <trkpt lat="63.67375" lon="20.11547">
        <ele>40.445954</ele>
        <time>2020-10-01T09:40:04.303Z</time>
      </trkpt>
      <trkpt lat="63.67377" lon="20.11521">
        <ele>40.504492</ele>
        <time>2020-10-01T09:40:06.277Z</time>
      </trkpt>
      <trkpt lat="63.67379" lon="20.11495">
        <ele>40.561857</ele>
        <time>2020-10-01T09:40:08.264Z</time>
      </trkpt>
      <trkpt lat="63.67381" lon="20.11471">
        <ele>40.616391</ele>
        <time>2020-10-01T09:40:10.271Z</time>
      </trkpt>
      <trkpt lat="63.67382" lon="20.11449">
        <ele>40.664929</ele>
        <time>2020-10-01T09:40:12.286Z</time>
      </trkpt>
      <trkpt lat="63.67383" lon="20.11428">
        <ele>40.711071</ele>
        <time>2020-10-01T09:40:14.262Z</time>
      </trkpt>
      <trkpt lat="63.67384" lon="20.11406">
        <ele>40.760561</ele>
        <time>2020-10-01T09:40:16.260Z</time>
      </trkpt>
      <trkpt lat="63.67386" lon="20.11383">
        <ele>40.813137</ele>
        <time>2020-10-01T09:40:18.298Z</time>
      </trkpt>
      <trkpt lat="63.67388" lon="20.11359">
        <ele>40.8668</ele>
        <time>2020-10-01T09:40:20.263Z</time>
      </trkpt>
      <trkpt lat="63.6739" lon="20.11335">
        <ele>40.919204</ele>
        <time>2020-10-01T09:40:22.264Z</time>
      </trkpt>
      <trkpt lat="63.67391" lon="20.11313">
        <ele>40.969418</ele>
        <time>2020-10-01T09:40:24.293Z</time>
      </trkpt>
      <trkpt lat="63.67393" lon="20.11292">
        <ele>41.016292</ele>
        <time>2020-10-01T09:40:26.288Z</time>
      </trkpt>
      <trkpt lat="63.67396" lon="20.11264">
        <ele>41.080599</ele>
        <time>2020-10-01T09:40:29.277Z</time>
      </trkpt>
      <trkpt lat="63.67398" lon="20.1124">
        <ele>41.134557</ele>
        <time>2020-10-01T09:40:32.283Z</time>
      </trkpt>
      <trkpt lat="63.67401" lon="20.11219">
        <ele>41.182398</ele>
        <time>2020-10-01T09:40:35.274Z</time>
      </trkpt>
      <trkpt lat="63.67405" lon="20.11194">
        <ele>41.240552</ele>
        <time>2020-10-01T09:40:39.298Z</time>
      </trkpt>
      <trkpt lat="63.67408" lon="20.11174">
        <ele>42.298328</ele>
        <time>2020-10-01T09:40:43.266Z</time>
      </trkpt>
      <trkpt lat="63.67411" lon="20.11151">
        <ele>43.539187</ele>
        <time>2020-10-01T09:40:48.260Z</time>
      </trkpt>
      <trkpt lat="63.67417" lon="20.11133">
        <ele>44.71103</ele>
        <time>2020-10-01T09:40:53.277Z</time>
      </trkpt>
      <trkpt lat="63.67422" lon="20.11114">
        <ele>45.84307</ele>
        <time>2020-10-01T09:40:58.264Z</time>
      </trkpt>
      <trkpt lat="63.67428" lon="20.11095">
        <ele>47.002911</ele>
        <time>2020-10-01T09:41:03.274Z</time>
      </trkpt>
      <trkpt lat="63.67434" lon="20.11075">
        <ele>48.24412</ele>
        <time>2020-10-01T09:41:08.273Z</time>
      </trkpt>
      <trkpt lat="63.67439" lon="20.11054">
        <ele>49.471619</ele>
        <time>2020-10-01T09:41:13.263Z</time>
      </trkpt>
      <trkpt lat="63.67444" lon="20.11036">
        <ele>50.544622</ele>
        <time>2020-10-01T09:41:19.267Z</time>
      </trkpt>
      <trkpt lat="63.6745" lon="20.11016">
        <ele>51.747733</ele>
        <time>2020-10-01T09:41:26.297Z</time>
      </trkpt>
      <trkpt lat="63.67455" lon="20.10999">
        <ele>52.801671</ele>
        <time>2020-10-01T09:41:32.323Z</time>
      </trkpt>
      <trkpt lat="63.67459" lon="20.10981">
        <ele>53.837949</ele>
        <time>2020-10-01T09:41:38.270Z</time>
      </trkpt>
      <trkpt lat="63.67464" lon="20.10964">
        <ele>54.885028</ele>
        <time>2020-10-01T09:41:44.285Z</time>
      </trkpt>
      <trkpt lat="63.67469" lon="20.10945">
        <ele>56.00419</ele>
        <time>2020-10-01T09:41:50.250Z</time>
      </trkpt>
      <trkpt lat="63.67474" lon="20.10925">
        <ele>57.212077</ele>
        <time>2020-10-01T09:41:56.263Z</time>
      </trkpt>
      <trkpt lat="63.67479" lon="20.10907">
        <ele>58.279074</ele>
        <time>2020-10-01T09:42:01.283Z</time>
      </trkpt>
      <trkpt lat="63.67484" lon="20.10888">
        <ele>59.400625</ele>
        <time>2020-10-01T09:42:07.268Z</time>
      </trkpt>
      <trkpt lat="63.67489" lon="20.1087">
        <ele>60.48231</ele>
        <time>2020-10-01T09:42:13.281Z</time>
      </trkpt>
      <trkpt lat="63.67495" lon="20.10849">
        <ele>61.716124</ele>
        <time>2020-10-01T09:42:19.268Z</time>
      </trkpt>
      <trkpt lat="63.67501" lon="20.10834">
        <ele>61.656296</ele>
        <time>2020-10-01T09:42:24.303Z</time>
      </trkpt>
      <trkpt lat="63.67506" lon="20.10818">
        <ele>61.30632</ele>
        <time>2020-10-01T09:42:30.257Z</time>
      </trkpt>
      <trkpt lat="63.67512" lon="20.10799">
        <ele>60.914151</ele>
        <time>2020-10-01T09:42:36.279Z</time>
      </trkpt>
      <trkpt lat="63.67517" lon="20.10778">
        <ele>60.53124</ele>
        <time>2020-10-01T09:42:42.266Z</time>
      </trkpt>
      <trkpt lat="63.67522" lon="20.10757">
        <ele>60.121344</ele>
        <time>2020-10-01T09:42:48.267Z</time>
      </trkpt>
      <trkpt lat="63.67527" lon="20.10738">
        <ele>59.746904</ele>
        <time>2020-10-01T09:42:53.318Z</time>
      </trkpt>
      <trkpt lat="63.67532" lon="20.10718">
        <ele>59.371522</ele>
        <time>2020-10-01T09:42:58.269Z</time>
      </trkpt>
      <trkpt lat="63.67536" lon="20.10697">
        <ele>58.979766</ele>
        <time>2020-10-01T09:43:04.268Z</time>
      </trkpt>
      <trkpt lat="63.6754" lon="20.10675">
        <ele>58.573751</ele>
        <time>2020-10-01T09:43:09.305Z</time>
      </trkpt>
      <trkpt lat="63.67542" lon="20.10654">
        <ele>58.207516</ele>
        <time>2020-10-01T09:43:13.268Z</time>
      </trkpt>
      <trkpt lat="63.67545" lon="20.10631">
        <ele>57.801201</ele>
        <time>2020-10-01T09:43:17.296Z</time>
      </trkpt>
      <trkpt lat="63.67547" lon="20.10606">
        <ele>57.384214</ele>
        <time>2020-10-01T09:43:21.303Z</time>
      </trkpt>
      <trkpt lat="63.67549" lon="20.10586">
        <ele>57.033664</ele>
        <time>2020-10-01T09:43:24.300Z</time>
      </trkpt>
      <trkpt lat="63.6755" lon="20.10564">
        <ele>56.657182</ele>
        <time>2020-10-01T09:43:27.255Z</time>
      </trkpt>
      <trkpt lat="63.67552" lon="20.1054">
        <ele>56.244195</ele>
        <time>2020-10-01T09:43:30.309Z</time>
      </trkpt>
      <trkpt lat="63.67552" lon="20.10511">
        <ele>55.759242</ele>
        <time>2020-10-01T09:43:33.259Z</time>
      </trkpt>
      <trkpt lat="63.67552" lon="20.10489">
        <ele>55.387361</ele>
        <time>2020-10-01T09:43:35.267Z</time>
      </trkpt>
      <trkpt lat="63.67551" lon="20.10466">
        <ele>55.20635</ele>
        <time>2020-10-01T09:43:37.265Z</time>
      </trkpt>
      <trkpt lat="63.67549" lon="20.10444">
        <ele>55.763882</ele>
        <time>2020-10-01T09:43:39.265Z</time>
      </trkpt>
      <trkpt lat="63.67547" lon="20.1042">
        <ele>56.347375</ele>
        <time>2020-10-01T09:43:41.274Z</time>
      </trkpt>
      <trkpt lat="63.67543" lon="20.10399">
        <ele>56.904954</ele>
        <time>2020-10-01T09:43:43.256Z</time>
      </trkpt>
      <trkpt lat="63.67539" lon="20.10379">
        <ele>57.434226</ele>
        <time>2020-10-01T09:43:45.259Z</time>
      </trkpt>
      <trkpt lat="63.67535" lon="20.10359">
        <ele>57.981709</ele>
        <time>2020-10-01T09:43:47.275Z</time>
      </trkpt>
      <trkpt lat="63.6753" lon="20.1034">
        <ele>58.508396</ele>
        <time>2020-10-01T09:43:49.275Z</time>
      </trkpt>
      <trkpt lat="63.67525" lon="20.10322">
        <ele>59.028436</ele>
        <time>2020-10-01T09:43:51.313Z</time>
      </trkpt>
      <trkpt lat="63.6752" lon="20.10305">
        <ele>59.533976</ele>
        <time>2020-10-01T09:43:53.257Z</time>
      </trkpt>
      <trkpt lat="63.67514" lon="20.1028">
        <ele>60.205794</ele>
        <time>2020-10-01T09:43:56.250Z</time>
      </trkpt>
      <trkpt lat="63.67509" lon="20.10258">
        <ele>60.799698</ele>
        <time>2020-10-01T09:43:59.280Z</time>
      </trkpt>
      <trkpt lat="63.67505" lon="20.10238">
        <ele>61.347786</ele>
        <time>2020-10-01T09:44:02.290Z</time>
      </trkpt>
      <trkpt lat="63.67501" lon="20.10219">
        <ele>61.850378</ele>
        <time>2020-10-01T09:44:05.270Z</time>
      </trkpt>
      <trkpt lat="63.67497" lon="20.10197">
        <ele>62.441926</ele>
        <time>2020-10-01T09:44:09.270Z</time>
      </trkpt>
      <trkpt lat="63.67491" lon="20.10175">
        <ele>63.06738</ele>
        <time>2020-10-01T09:44:13.273Z</time>
      </trkpt>
      <trkpt lat="63.67485" lon="20.10152">
        <ele>63.732594</ele>
        <time>2020-10-01T09:44:17.281Z</time>
      </trkpt>
      <trkpt lat="63.6748" lon="20.10133">
        <ele>64.25069</ele>
        <time>2020-10-01T09:44:20.256Z</time>
      </trkpt>
      <trkpt lat="63.67476" lon="20.10115">
        <ele>64.761387</ele>
        <time>2020-10-01T09:44:23.266Z</time>
      </trkpt>
      <trkpt lat="63.6747" lon="20.10094">
        <ele>64.6888</ele>
        <time>2020-10-01T09:44:26.252Z</time>
      </trkpt>
      <trkpt lat="63.67465" lon="20.10072">
        <ele>64.249656</ele>
        <time>2020-10-01T09:44:29.262Z</time>
      </trkpt>
      <trkpt lat="63.6746" lon="20.10048">
        <ele>63.802709</ele>
        <time>2020-10-01T09:44:32.282Z</time>
      </trkpt>
      <trkpt lat="63.67457" lon="20.10024">
        <ele>63.38669</ele>
        <time>2020-10-01T09:44:35.313Z</time>
      </trkpt>
      <trkpt lat="63.67455" lon="20.09998">
        <ele>62.925167</ele>
        <time>2020-10-01T09:44:38.308Z</time>
      </trkpt>
      <trkpt lat="63.67453" lon="20.09968">
        <ele>62.421795</ele>
        <time>2020-10-01T09:44:41.260Z</time>
      </trkpt>
      <trkpt lat="63.67451" lon="20.0994">
        <ele>61.93815</ele>
        <time>2020-10-01T09:44:44.272Z</time>
      </trkpt>
      <trkpt lat="63.67449" lon="20.09913">
        <ele>61.461121</ele>
        <time>2020-10-01T09:44:47.289Z</time>
      </trkpt>
      <trkpt lat="63.67447" lon="20.09883">
        <ele>60.955525</ele>
        <time>2020-10-01T09:44:50.278Z</time>
      </trkpt>
      <trkpt lat="63.67445" lon="20.09856">
        <ele>60.478913</ele>
        <time>2020-10-01T09:44:53.257Z</time>
      </trkpt>
      <trkpt lat="63.67445" lon="20.09832">
        <ele>60.071763</ele>
        <time>2020-10-01T09:44:56.305Z</time>
      </trkpt>
      <trkpt lat="63.67447" lon="20.09811">
        <ele>59.715066</ele>
        <time>2020-10-01T09:44:59.284Z</time>
      </trkpt>
      <trkpt lat="63.67452" lon="20.09788">
        <ele>59.263925</ele>
        <time>2020-10-01T09:45:03.297Z</time>
      </trkpt>
      <trkpt lat="63.67457" lon="20.09769">
        <ele>58.893677</ele>
        <time>2020-10-01T09:45:06.259Z</time>
      </trkpt>
      <trkpt lat="63.67462" lon="20.09748">
        <ele>58.498116</ele>
        <time>2020-10-01T09:45:09.295Z</time>
      </trkpt>
      <trkpt lat="63.67468" lon="20.09728">
        <ele>58.080743</ele>
        <time>2020-10-01T09:45:12.285Z</time>
      </trkpt>
      <trkpt lat="63.67474" lon="20.09709">
        <ele>58.064673</ele>
        <time>2020-10-01T09:45:15.276Z</time>
      </trkpt>
      <trkpt lat="63.6748" lon="20.09687">
        <ele>58.087739</ele>
        <time>2020-10-01T09:45:18.297Z</time>
      </trkpt>
      <trkpt lat="63.67486" lon="20.09662">
        <ele>58.113897</ele>
        <time>2020-10-01T09:45:21.313Z</time>
      </trkpt>
      <trkpt lat="63.67491" lon="20.09634">
        <ele>58.141773</ele>
        <time>2020-10-01T09:45:24.268Z</time>
      </trkpt>
      <trkpt lat="63.67494" lon="20.09613">
        <ele>58.162537</ele>
        <time>2020-10-01T09:45:26.269Z</time>
      </trkpt>
      <trkpt lat="63.67497" lon="20.0959">
        <ele>58.184108</ele>
        <time>2020-10-01T09:45:28.260Z</time>
      </trkpt>
      <trkpt lat="63.67499" lon="20.09567">
        <ele>58.205768</ele>
        <time>2020-10-01T09:45:30.312Z</time>
      </trkpt>
      <trkpt lat="63.67501" lon="20.09543">
        <ele>58.227917</ele>
        <time>2020-10-01T09:45:32.259Z</time>
      </trkpt>
      <trkpt lat="63.67503" lon="20.09518">
        <ele>58.251377</ele>
        <time>2020-10-01T09:45:34.267Z</time>
      </trkpt>
      <trkpt lat="63.67504" lon="20.09493">
        <ele>58.274655</ele>
        <time>2020-10-01T09:45:36.299Z</time>
      </trkpt>
      <trkpt lat="63.67505" lon="20.09469">
        <ele>58.296953</ele>
        <time>2020-10-01T09:45:38.255Z</time>
      </trkpt>
      <trkpt lat="63.67507" lon="20.09446">
        <ele>58.318222</ele>
        <time>2020-10-01T09:45:40.261Z</time>
      </trkpt>
      <trkpt lat="63.67509" lon="20.09423">
        <ele>58.339311</ele>
        <time>2020-10-01T09:45:42.279Z</time>
      </trkpt>
      <trkpt lat="63.67511" lon="20.09401">
        <ele>58.360614</ele>
        <time>2020-10-01T09:45:44.265Z</time>
      </trkpt>
      <trkpt lat="63.67514" lon="20.09379">
        <ele>58.381117</ele>
        <time>2020-10-01T09:45:46.255Z</time>
      </trkpt>
      <trkpt lat="63.67517" lon="20.09358">
        <ele>58.401968</ele>
        <time>2020-10-01T09:45:48.268Z</time>
      </trkpt>
      <trkpt lat="63.67521" lon="20.0933">
        <ele>58.393504</ele>
        <time>2020-10-01T09:45:51.254Z</time>
      </trkpt>
      <trkpt lat="63.67526" lon="20.09307">
        <ele>58.343614</ele>
        <time>2020-10-01T09:45:54.270Z</time>
      </trkpt>
      <trkpt lat="63.67531" lon="20.09284">
        <ele>58.293103</ele>
        <time>2020-10-01T09:45:57.264Z</time>
      </trkpt>
      <trkpt lat="63.67537" lon="20.09259">
        <ele>58.239541</ele>
        <time>2020-10-01T09:46:00.260Z</time>
      </trkpt>
      <trkpt lat="63.67543" lon="20.09235">
        <ele>58.184185</ele>
        <time>2020-10-01T09:46:03.285Z</time>
      </trkpt>
      <trkpt lat="63.6755" lon="20.0921">
        <ele>58.127055</ele>
        <time>2020-10-01T09:46:06.298Z</time>
      </trkpt>
      <trkpt lat="63.67558" lon="20.09185">
        <ele>58.068717</ele>
        <time>2020-10-01T09:46:09.275Z</time>
      </trkpt>
      <trkpt lat="63.67563" lon="20.09167">
        <ele>58.025217</ele>
        <time>2020-10-01T09:46:11.287Z</time>
      </trkpt>
      <trkpt lat="63.6757" lon="20.09149">
        <ele>57.980784</ele>
        <time>2020-10-01T09:46:13.258Z</time>
      </trkpt>
      <trkpt lat="63.67576" lon="20.0913">
        <ele>57.936351</ele>
        <time>2020-10-01T09:46:15.277Z</time>
      </trkpt>
      <trkpt lat="63.67582" lon="20.09112">
        <ele>57.891387</ele>
        <time>2020-10-01T09:46:17.304Z</time>
      </trkpt>
      <trkpt lat="63.67588" lon="20.09094">
        <ele>57.847418</ele>
        <time>2020-10-01T09:46:19.259Z</time>
      </trkpt>
      <trkpt lat="63.67594" lon="20.09075">
        <ele>57.802977</ele>
        <time>2020-10-01T09:46:21.299Z</time>
      </trkpt>
      <trkpt lat="63.67599" lon="20.09054">
        <ele>57.757399</ele>
        <time>2020-10-01T09:46:23.262Z</time>
      </trkpt>
      <trkpt lat="63.67602" lon="20.09031">
        <ele>57.710613</ele>
        <time>2020-10-01T09:46:25.278Z</time>
      </trkpt>
      <trkpt lat="63.67603" lon="20.09008">
        <ele>57.664457</ele>
        <time>2020-10-01T09:46:27.264Z</time>
      </trkpt>
      <trkpt lat="63.67602" lon="20.08983">
        <ele>57.715535</ele>
        <time>2020-10-01T09:46:29.286Z</time>
      </trkpt>
      <trkpt lat="63.676" lon="20.08959">
        <ele>58.033015</ele>
        <time>2020-10-01T09:46:31.266Z</time>
      </trkpt>
      <trkpt lat="63.67597" lon="20.08935">
        <ele>58.361</ele>
        <time>2020-10-01T09:46:33.277Z</time>
      </trkpt>
      <trkpt lat="63.67593" lon="20.0891">
        <ele>58.688347</ele>
        <time>2020-10-01T09:46:35.289Z</time>
      </trkpt>
      <trkpt lat="63.67589" lon="20.08886">
        <ele>59.011789</ele>
        <time>2020-10-01T09:46:37.268Z</time>
      </trkpt>
      <trkpt lat="63.67586" lon="20.08864">
        <ele>59.306403</ele>
        <time>2020-10-01T09:46:39.262Z</time>
      </trkpt>
      <trkpt lat="63.67583" lon="20.08843">
        <ele>59.593534</ele>
        <time>2020-10-01T09:46:41.278Z</time>
      </trkpt>
      <trkpt lat="63.67581" lon="20.08823">
        <ele>59.860001</ele>
        <time>2020-10-01T09:46:43.302Z</time>
      </trkpt>
      <trkpt lat="63.67579" lon="20.08802">
        <ele>60.135684</ele>
        <time>2020-10-01T09:46:45.263Z</time>
      </trkpt>
      <trkpt lat="63.67578" lon="20.08778">
        <ele>60.4338</ele>
        <time>2020-10-01T09:46:47.298Z</time>
      </trkpt>
      <trkpt lat="63.67578" lon="20.08756">
        <ele>60.723076</ele>
        <time>2020-10-01T09:46:49.286Z</time>
      </trkpt>
      <trkpt lat="63.6758" lon="20.08735">
        <ele>60.996359</ele>
        <time>2020-10-01T09:46:51.276Z</time>
      </trkpt>
      <trkpt lat="63.67584" lon="20.08716">
        <ele>61.265027</ele>
        <time>2020-10-01T09:46:53.264Z</time>
      </trkpt>
      <trkpt lat="63.67592" lon="20.08691">
        <ele>61.641666</ele>
        <time>2020-10-01T09:46:56.254Z</time>
      </trkpt>
      <trkpt lat="63.676" lon="20.08673">
        <ele>61.979386</ele>
        <time>2020-10-01T09:46:59.254Z</time>
      </trkpt>
      <trkpt lat="63.67609" lon="20.08658">
        <ele>62.304914</ele>
        <time>2020-10-01T09:47:02.278Z</time>
      </trkpt>
      <trkpt lat="63.67619" lon="20.08646">
        <ele>62.629316</ele>
        <time>2020-10-01T09:47:05.256Z</time>
      </trkpt>
      <trkpt lat="63.67628" lon="20.08631">
        <ele>62.914108</ele>
        <time>2020-10-01T09:47:08.264Z</time>
      </trkpt>
      <trkpt lat="63.67637" lon="20.08614">
        <ele>63.179263</ele>
        <time>2020-10-01T09:47:11.274Z</time>
      </trkpt>
      <trkpt lat="63.67646" lon="20.08595">
        <ele>63.453639</ele>
        <time>2020-10-01T09:47:14.282Z</time>
      </trkpt>
      <trkpt lat="63.67655" lon="20.08576">
        <ele>63.720511</ele>
        <time>2020-10-01T09:47:17.310Z</time>
      </trkpt>
      <trkpt lat="63.67665" lon="20.08555">
        <ele>64.009969</ele>
        <time>2020-10-01T09:47:20.301Z</time>
      </trkpt>
      <trkpt lat="63.67673" lon="20.08536">
        <ele>64.270496</ele>
        <time>2020-10-01T09:47:23.284Z</time>
      </trkpt>
      <trkpt lat="63.67679" lon="20.08517">
        <ele>64.496447</ele>
        <time>2020-10-01T09:47:26.287Z</time>
      </trkpt>
      <trkpt lat="63.67685" lon="20.08501">
        <ele>64.697999</ele>
        <time>2020-10-01T09:47:29.258Z</time>
      </trkpt>
      <trkpt lat="63.67692" lon="20.0848">
        <ele>64.955263</ele>
        <time>2020-10-01T09:47:33.260Z</time>
      </trkpt>
      <trkpt lat="63.67695" lon="20.0846">
        <ele>65.170164</ele>
        <time>2020-10-01T09:47:36.277Z</time>
      </trkpt>
      <trkpt lat="63.67697" lon="20.08437">
        <ele>65.391804</ele>
        <time>2020-10-01T09:47:39.266Z</time>
      </trkpt>
      <trkpt lat="63.67698" lon="20.08413">
        <ele>65.62613</ele>
        <time>2020-10-01T09:47:42.256Z</time>
      </trkpt>
      <trkpt lat="63.67697" lon="20.08385">
        <ele>65.90245</ele>
        <time>2020-10-01T09:47:45.294Z</time>
      </trkpt>
      <trkpt lat="63.67697" lon="20.08355">
        <ele>66.196019</ele>
        <time>2020-10-01T09:47:48.261Z</time>
      </trkpt>
      <trkpt lat="63.67698" lon="20.08334">
        <ele>66.39736</ele>
        <time>2020-10-01T09:47:50.265Z</time>
      </trkpt>
      <trkpt lat="63.67697" lon="20.08314">
        <ele>66.597401</ele>
        <time>2020-10-01T09:47:52.290Z</time>
      </trkpt>
      <trkpt lat="63.67696" lon="20.08283">
        <ele>66.795997</ele>
        <time>2020-10-01T09:47:55.258Z</time>
      </trkpt>
      <trkpt lat="63.67696" lon="20.08263">
        <ele>66.839926</ele>
        <time>2020-10-01T09:47:57.277Z</time>
      </trkpt>
      <trkpt lat="63.67696" lon="20.08241">
        <ele>66.886017</ele>
        <time>2020-10-01T09:47:59.270Z</time>
      </trkpt>
      <trkpt lat="63.67696" lon="20.08217">
        <ele>66.935921</ele>
        <time>2020-10-01T09:48:01.269Z</time>
      </trkpt>
      <trkpt lat="63.67697" lon="20.08193">
        <ele>66.988565</ele>
        <time>2020-10-01T09:48:03.307Z</time>
      </trkpt>
      <trkpt lat="63.677" lon="20.08167">
        <ele>67.044604</ele>
        <time>2020-10-01T09:48:05.271Z</time>
      </trkpt>
      <trkpt lat="63.67703" lon="20.08141">
        <ele>67.101304</ele>
        <time>2020-10-01T09:48:07.274Z</time>
      </trkpt>
      <trkpt lat="63.67707" lon="20.08116">
        <ele>67.157657</ele>
        <time>2020-10-01T09:48:09.251Z</time>
      </trkpt>
      <trkpt lat="63.67712" lon="20.0809">
        <ele>67.216689</ele>
        <time>2020-10-01T09:48:11.279Z</time>
      </trkpt>
      <trkpt lat="63.67716" lon="20.08065">
        <ele>67.272418</ele>
        <time>2020-10-01T09:48:13.280Z</time>
      </trkpt>
      <trkpt lat="63.67719" lon="20.08042">
        <ele>67.323378</ele>
        <time>2020-10-01T09:48:15.276Z</time>
      </trkpt>
      <trkpt lat="63.67721" lon="20.08017">
        <ele>67.377146</ele>
        <time>2020-10-01T09:48:17.292Z</time>
      </trkpt>
      <trkpt lat="63.67723" lon="20.07989">
        <ele>67.43857</ele>
        <time>2020-10-01T09:48:19.294Z</time>
      </trkpt>
      <trkpt lat="63.67724" lon="20.07956">
        <ele>67.508072</ele>
        <time>2020-10-01T09:48:21.286Z</time>
      </trkpt>
      <trkpt lat="63.67724" lon="20.07921">
        <ele>67.581432</ele>
        <time>2020-10-01T09:48:23.271Z</time>
      </trkpt>
      <trkpt lat="63.67724" lon="20.07885">
        <ele>67.506177</ele>
        <time>2020-10-01T09:48:25.261Z</time>
      </trkpt>
      <trkpt lat="63.67725" lon="20.07852">
        <ele>67.24197</ele>
        <time>2020-10-01T09:48:27.286Z</time>
      </trkpt>
      <trkpt lat="63.67727" lon="20.07822">
        <ele>66.995206</ele>
        <time>2020-10-01T09:48:29.266Z</time>
      </trkpt>
      <trkpt lat="63.67729" lon="20.07789">
        <ele>66.725767</ele>
        <time>2020-10-01T09:48:31.256Z</time>
      </trkpt>
      <trkpt lat="63.67733" lon="20.07752">
        <ele>66.424292</ele>
        <time>2020-10-01T09:48:33.265Z</time>
      </trkpt>
      <trkpt lat="63.67739" lon="20.07715">
        <ele>66.115477</ele>
        <time>2020-10-01T09:48:35.299Z</time>
      </trkpt>
      <trkpt lat="63.67742" lon="20.07696">
        <ele>65.950622</ele>
        <time>2020-10-01T09:48:36.247Z</time>
      </trkpt>
      <trkpt lat="63.67744" lon="20.07676">
        <ele>65.780438</ele>
        <time>2020-10-01T09:48:37.274Z</time>
      </trkpt>
      <trkpt lat="63.67748" lon="20.07655">
        <ele>65.604555</ele>
        <time>2020-10-01T09:48:38.303Z</time>
      </trkpt>
      <trkpt lat="63.6775" lon="20.07634">
        <ele>65.432623</ele>
        <time>2020-10-01T09:48:39.286Z</time>
      </trkpt>
      <trkpt lat="63.67753" lon="20.07615">
        <ele>65.266808</ele>
        <time>2020-10-01T09:48:40.266Z</time>
      </trkpt>
      <trkpt lat="63.67756" lon="20.07595">
        <ele>65.103833</ele>
        <time>2020-10-01T09:48:41.280Z</time>
      </trkpt>
      <trkpt lat="63.67761" lon="20.07558">
        <ele>64.792728</ele>
        <time>2020-10-01T09:48:43.269Z</time>
      </trkpt>
      <trkpt lat="63.67764" lon="20.0752">
        <ele>64.481576</ele>
        <time>2020-10-01T09:48:45.261Z</time>
      </trkpt>
      <trkpt lat="63.67765" lon="20.0748">
        <ele>63.688059</ele>
        <time>2020-10-01T09:48:47.270Z</time>
      </trkpt>
      <trkpt lat="63.67765" lon="20.0746">
        <ele>63.176128</ele>
        <time>2020-10-01T09:48:48.249Z</time>
      </trkpt>
      <trkpt lat="63.67762" lon="20.07422">
        <ele>62.203889</ele>
        <time>2020-10-01T09:48:50.265Z</time>
      </trkpt>
      <trkpt lat="63.67757" lon="20.07382">
        <ele>61.160022</ele>
        <time>2020-10-01T09:48:52.278Z</time>
      </trkpt>
      <trkpt lat="63.67755" lon="20.07362">
        <ele>60.62239</ele>
        <time>2020-10-01T09:48:53.285Z</time>
      </trkpt>
      <trkpt lat="63.67752" lon="20.07342">
        <ele>60.094487</ele>
        <time>2020-10-01T09:48:54.267Z</time>
      </trkpt>
      <trkpt lat="63.67749" lon="20.07321">
        <ele>59.548746</ele>
        <time>2020-10-01T09:48:55.284Z</time>
      </trkpt>
      <trkpt lat="63.67747" lon="20.07299">
        <ele>58.984724</ele>
        <time>2020-10-01T09:48:56.310Z</time>
      </trkpt>
      <trkpt lat="63.67745" lon="20.07277">
        <ele>58.410603</ele>
        <time>2020-10-01T09:48:57.260Z</time>
      </trkpt>
      <trkpt lat="63.67744" lon="20.07253">
        <ele>57.809543</ele>
        <time>2020-10-01T09:48:58.268Z</time>
      </trkpt>
      <trkpt lat="63.67743" lon="20.0723">
        <ele>57.206531</ele>
        <time>2020-10-01T09:48:59.288Z</time>
      </trkpt>
      <trkpt lat="63.67742" lon="20.07206">
        <ele>56.602725</ele>
        <time>2020-10-01T09:49:00.259Z</time>
      </trkpt>
      <trkpt lat="63.67742" lon="20.07182">
        <ele>56.00199</ele>
        <time>2020-10-01T09:49:01.273Z</time>
      </trkpt>
      <trkpt lat="63.67742" lon="20.07159">
        <ele>55.411793</ele>
        <time>2020-10-01T09:49:02.263Z</time>
      </trkpt>
      <trkpt lat="63.67742" lon="20.07135">
        <ele>54.806185</ele>
        <time>2020-10-01T09:49:03.278Z</time>
      </trkpt>
      <trkpt lat="63.67743" lon="20.07111">
        <ele>54.199849</ele>
        <time>2020-10-01T09:49:04.285Z</time>
      </trkpt>
      <trkpt lat="63.67743" lon="20.07087">
        <ele>53.05903</ele>
        <time>2020-10-01T09:49:05.274Z</time>
      </trkpt>
      <trkpt lat="63.67744" lon="20.07063">
        <ele>51.879169</ele>
        <time>2020-10-01T09:49:06.268Z</time>
      </trkpt>
      <trkpt lat="63.67746" lon="20.0704">
        <ele>50.701227</ele>
        <time>2020-10-01T09:49:07.277Z</time>
      </trkpt>
      <trkpt lat="63.67749" lon="20.07018">
        <ele>49.551774</ele>
        <time>2020-10-01T09:49:08.298Z</time>
      </trkpt>
      <trkpt lat="63.67751" lon="20.06996">
        <ele>48.410048</ele>
        <time>2020-10-01T09:49:09.285Z</time>
      </trkpt>
      <trkpt lat="63.67754" lon="20.06975">
        <ele>47.292654</ele>
        <time>2020-10-01T09:49:10.286Z</time>
      </trkpt>
      <trkpt lat="63.67756" lon="20.06954">
        <ele>46.199557</ele>
        <time>2020-10-01T09:49:11.281Z</time>
      </trkpt>
      <trkpt lat="63.6776" lon="20.06933">
        <ele>45.115458</ele>
        <time>2020-10-01T09:49:12.274Z</time>
      </trkpt>
      <trkpt lat="63.67763" lon="20.06913">
        <ele>44.011132</ele>
        <time>2020-10-01T09:49:13.282Z</time>
      </trkpt>
      <trkpt lat="63.67767" lon="20.06892">
        <ele>42.866571</ele>
        <time>2020-10-01T09:49:14.259Z</time>
      </trkpt>
      <trkpt lat="63.67771" lon="20.06871">
        <ele>41.722011</ele>
        <time>2020-10-01T09:49:15.289Z</time>
      </trkpt>
      <trkpt lat="63.67775" lon="20.0685">
        <ele>40.568172</ele>
        <time>2020-10-01T09:49:16.265Z</time>
      </trkpt>
      <trkpt lat="63.67778" lon="20.06828">
        <ele>39.397898</ele>
        <time>2020-10-01T09:49:17.258Z</time>
      </trkpt>
      <trkpt lat="63.67782" lon="20.06806">
        <ele>38.232353</ele>
        <time>2020-10-01T09:49:18.285Z</time>
      </trkpt>
      <trkpt lat="63.67785" lon="20.06785">
        <ele>37.090411</ele>
        <time>2020-10-01T09:49:19.281Z</time>
      </trkpt>
      <trkpt lat="63.67789" lon="20.06764">
        <ele>35.979849</ele>
        <time>2020-10-01T09:49:20.257Z</time>
      </trkpt>
      <trkpt lat="63.67792" lon="20.06744">
        <ele>34.901506</ele>
        <time>2020-10-01T09:49:21.269Z</time>
      </trkpt>
      <trkpt lat="63.67795" lon="20.06725">
        <ele>33.883743</ele>
        <time>2020-10-01T09:49:22.276Z</time>
      </trkpt>
      <trkpt lat="63.67801" lon="20.06687">
        <ele>33.203971</ele>
        <time>2020-10-01T09:49:24.267Z</time>
      </trkpt>
      <trkpt lat="63.67806" lon="20.06654">
        <ele>32.70007</ele>
        <time>2020-10-01T09:49:26.272Z</time>
      </trkpt>
      <trkpt lat="63.67812" lon="20.06624">
        <ele>32.236571</ele>
        <time>2020-10-01T09:49:28.266Z</time>
      </trkpt>
      <trkpt lat="63.67816" lon="20.06594">
        <ele>31.794656</ele>
        <time>2020-10-01T09:49:30.296Z</time>
      </trkpt>
      <trkpt lat="63.67821" lon="20.06565">
        <ele>31.364714</ele>
        <time>2020-10-01T09:49:32.294Z</time>
      </trkpt>
      <trkpt lat="63.67826" lon="20.06539">
        <ele>30.969473</ele>
        <time>2020-10-01T09:49:34.288Z</time>
      </trkpt>
      <trkpt lat="63.6783" lon="20.06514">
        <ele>30.58844</ele>
        <time>2020-10-01T09:49:36.259Z</time>
      </trkpt>
      <trkpt lat="63.67835" lon="20.06491">
        <ele>30.225351</ele>
        <time>2020-10-01T09:49:38.277Z</time>
      </trkpt>
      <trkpt lat="63.67841" lon="20.0647">
        <ele>29.877444</ele>
        <time>2020-10-01T09:49:40.297Z</time>
      </trkpt>
      <trkpt lat="63.67846" lon="20.06448">
        <ele>29.534778</ele>
        <time>2020-10-01T09:49:42.285Z</time>
      </trkpt>
      <trkpt lat="63.67852" lon="20.06424">
        <ele>29.135472</ele>
        <time>2020-10-01T09:49:44.276Z</time>
      </trkpt>
      <trkpt lat="63.67858" lon="20.064">
        <ele>28.749098</ele>
        <time>2020-10-01T09:49:46.289Z</time>
      </trkpt>
      <trkpt lat="63.67863" lon="20.06378">
        <ele>28.401194</ele>
        <time>2020-10-01T09:49:48.260Z</time>
      </trkpt>
      <trkpt lat="63.6787" lon="20.06357">
        <ele>28.047041</ele>
        <time>2020-10-01T09:49:50.271Z</time>
      </trkpt>
      <trkpt lat="63.67876" lon="20.06337">
        <ele>28.094039</ele>
        <time>2020-10-01T09:49:52.261Z</time>
      </trkpt>
      <trkpt lat="63.67882" lon="20.06316">
        <ele>28.207728</ele>
        <time>2020-10-01T09:49:54.311Z</time>
      </trkpt>
      <trkpt lat="63.67889" lon="20.06294">
        <ele>28.326702</ele>
        <time>2020-10-01T09:49:56.267Z</time>
      </trkpt>
      <trkpt lat="63.67895" lon="20.06274">
        <ele>28.437582</ele>
        <time>2020-10-01T09:49:58.265Z</time>
      </trkpt>
      <trkpt lat="63.67901" lon="20.06255">
        <ele>28.546029</ele>
        <time>2020-10-01T09:50:00.276Z</time>
      </trkpt>
      <trkpt lat="63.67907" lon="20.06235">
        <ele>28.654641</ele>
        <time>2020-10-01T09:50:02.287Z</time>
      </trkpt>
      <trkpt lat="63.67913" lon="20.06214">
        <ele>28.763255</ele>
        <time>2020-10-01T09:50:04.268Z</time>
      </trkpt>
      <trkpt lat="63.67919" lon="20.06194">
        <ele>28.869472</ele>
        <time>2020-10-01T09:50:06.279Z</time>
      </trkpt>
      <trkpt lat="63.67924" lon="20.06175">
        <ele>28.970782</ele>
        <time>2020-10-01T09:50:08.278Z</time>
      </trkpt>
      <trkpt lat="63.6793" lon="20.06156">
        <ele>29.077133</ele>
        <time>2020-10-01T09:50:10.268Z</time>
      </trkpt>
      <trkpt lat="63.67936" lon="20.06136">
        <ele>29.18632</ele>
        <time>2020-10-01T09:50:12.283Z</time>
      </trkpt>
      <trkpt lat="63.67941" lon="20.06116">
        <ele>29.290625</ele>
        <time>2020-10-01T09:50:14.267Z</time>
      </trkpt>
      <trkpt lat="63.67947" lon="20.06096">
        <ele>29.400173</ele>
        <time>2020-10-01T09:50:16.290Z</time>
      </trkpt>
      <trkpt lat="63.67953" lon="20.06078">
        <ele>29.497885</ele>
        <time>2020-10-01T09:50:18.279Z</time>
      </trkpt>
      <trkpt lat="63.67958" lon="20.0606">
        <ele>29.597506</ele>
        <time>2020-10-01T09:50:20.299Z</time>
      </trkpt>
      <trkpt lat="63.67964" lon="20.06039">
        <ele>29.705741</ele>
        <time>2020-10-01T09:50:22.257Z</time>
      </trkpt>
      <trkpt lat="63.6797" lon="20.06017">
        <ele>29.826185</ele>
        <time>2020-10-01T09:50:24.261Z</time>
      </trkpt>
      <trkpt lat="63.67976" lon="20.05994">
        <ele>29.751841</ele>
        <time>2020-10-01T09:50:26.305Z</time>
      </trkpt>
      <trkpt lat="63.67982" lon="20.05973">
        <ele>29.678981</ele>
        <time>2020-10-01T09:50:28.264Z</time>
      </trkpt>
      <trkpt lat="63.67987" lon="20.05952">
        <ele>29.608284</ele>
        <time>2020-10-01T09:50:30.283Z</time>
      </trkpt>
      <trkpt lat="63.67991" lon="20.05931">
        <ele>29.541196</ele>
        <time>2020-10-01T09:50:32.301Z</time>
      </trkpt>
      <trkpt lat="63.67995" lon="20.05909">
        <ele>29.473297</ele>
        <time>2020-10-01T09:50:34.268Z</time>
      </trkpt>
      <trkpt lat="63.67998" lon="20.05887">
        <ele>29.405082</ele>
        <time>2020-10-01T09:50:36.262Z</time>
      </trkpt>
      <trkpt lat="63.68" lon="20.05865">
        <ele>29.338009</ele>
        <time>2020-10-01T09:50:38.267Z</time>
      </trkpt>
      <trkpt lat="63.68002" lon="20.05842">
        <ele>29.270517</ele>
        <time>2020-10-01T09:50:40.263Z</time>
      </trkpt>
      <trkpt lat="63.68004" lon="20.05819">
        <ele>29.201843</ele>
        <time>2020-10-01T09:50:42.264Z</time>
      </trkpt>
      <trkpt lat="63.68006" lon="20.05797">
        <ele>29.135476</ele>
        <time>2020-10-01T09:50:44.261Z</time>
      </trkpt>
      <trkpt lat="63.68008" lon="20.05775">
        <ele>29.069168</ele>
        <time>2020-10-01T09:50:46.319Z</time>
      </trkpt>
      <trkpt lat="63.6801" lon="20.05754">
        <ele>29.005681</ele>
        <time>2020-10-01T09:50:48.261Z</time>
      </trkpt>
      <trkpt lat="63.68011" lon="20.05732">
        <ele>28.941576</ele>
        <time>2020-10-01T09:50:50.255Z</time>
      </trkpt>
      <trkpt lat="63.68013" lon="20.0571">
        <ele>28.875807</ele>
        <time>2020-10-01T09:50:52.289Z</time>
      </trkpt>
      <trkpt lat="63.68015" lon="20.05689">
        <ele>28.811324</ele>
        <time>2020-10-01T09:50:54.279Z</time>
      </trkpt>
      <trkpt lat="63.68017" lon="20.05667">
        <ele>28.746974</ele>
        <time>2020-10-01T09:50:56.280Z</time>
      </trkpt>
      <trkpt lat="63.6802" lon="20.05646">
        <ele>28.681483</ele>
        <time>2020-10-01T09:50:58.265Z</time>
      </trkpt>
      <trkpt lat="63.68022" lon="20.05625">
        <ele>28.761927</ele>
        <time>2020-10-01T09:51:00.257Z</time>
      </trkpt>
      <trkpt lat="63.68024" lon="20.05604">
        <ele>29.1718</ele>
        <time>2020-10-01T09:51:02.285Z</time>
      </trkpt>
      <trkpt lat="63.68025" lon="20.05582">
        <ele>29.592125</ele>
        <time>2020-10-01T09:51:04.264Z</time>
      </trkpt>
      <trkpt lat="63.68028" lon="20.05562">
        <ele>29.990005</ele>
        <time>2020-10-01T09:51:06.271Z</time>
      </trkpt>
      <trkpt lat="63.6803" lon="20.05541">
        <ele>30.388751</ele>
        <time>2020-10-01T09:51:08.260Z</time>
      </trkpt>
      <trkpt lat="63.68031" lon="20.05521">
        <ele>30.784773</ele>
        <time>2020-10-01T09:51:10.281Z</time>
      </trkpt>
      <trkpt lat="63.68033" lon="20.05501">
        <ele>31.174241</ele>
        <time>2020-10-01T09:51:12.266Z</time>
      </trkpt>
      <trkpt lat="63.68036" lon="20.05481">
        <ele>31.56371</ele>
        <time>2020-10-01T09:51:14.258Z</time>
      </trkpt>
      <trkpt lat="63.68038" lon="20.05461">
        <ele>31.952206</ele>
        <time>2020-10-01T09:51:16.269Z</time>
      </trkpt>
      <trkpt lat="63.6804" lon="20.05433">
        <ele>32.492279</ele>
        <time>2020-10-01T09:51:19.288Z</time>
      </trkpt>
      <trkpt lat="63.68042" lon="20.05407">
        <ele>33.008268</ele>
        <time>2020-10-01T09:51:22.274Z</time>
      </trkpt>
      <trkpt lat="63.68045" lon="20.0538">
        <ele>33.523236</ele>
        <time>2020-10-01T09:51:25.281Z</time>
      </trkpt>
      <trkpt lat="63.68048" lon="20.05353">
        <ele>34.059028</ele>
        <time>2020-10-01T09:51:28.272Z</time>
      </trkpt>
      <trkpt lat="63.68051" lon="20.05333">
        <ele>34.450367</ele>
        <time>2020-10-01T09:51:30.297Z</time>
      </trkpt>
      <trkpt lat="63.68054" lon="20.05313">
        <ele>34.866812</ele>
        <time>2020-10-01T09:51:32.254Z</time>
      </trkpt>
      <trkpt lat="63.68056" lon="20.05291">
        <ele>35.288772</ele>
        <time>2020-10-01T09:51:34.284Z</time>
      </trkpt>
      <trkpt lat="63.68058" lon="20.05269">
        <ele>35.723331</ele>
        <time>2020-10-01T09:51:36.283Z</time>
      </trkpt>
      <trkpt lat="63.6806" lon="20.05244">
        <ele>36.195762</ele>
        <time>2020-10-01T09:51:38.258Z</time>
      </trkpt>
      <trkpt lat="63.68063" lon="20.05217">
        <ele>36.480642</ele>
        <time>2020-10-01T09:51:40.262Z</time>
      </trkpt>
      <trkpt lat="63.68066" lon="20.05191">
        <ele>36.655114</ele>
        <time>2020-10-01T09:51:42.289Z</time>
      </trkpt>
      <trkpt lat="63.68068" lon="20.05166">
        <ele>36.817294</ele>
        <time>2020-10-01T09:51:44.289Z</time>
      </trkpt>
      <trkpt lat="63.68072" lon="20.0514">
        <ele>36.991537</ele>
        <time>2020-10-01T09:51:46.265Z</time>
      </trkpt>
      <trkpt lat="63.68074" lon="20.05117">
        <ele>37.141969</ele>
        <time>2020-10-01T09:51:48.308Z</time>
      </trkpt>
      <trkpt lat="63.68077" lon="20.05094">
        <ele>37.290006</ele>
        <time>2020-10-01T09:51:50.268Z</time>
      </trkpt>
      <trkpt lat="63.68081" lon="20.05072">
        <ele>37.440108</ele>
        <time>2020-10-01T09:51:52.267Z</time>
      </trkpt>
      <trkpt lat="63.68084" lon="20.0505">
        <ele>37.587884</ele>
        <time>2020-10-01T09:51:54.277Z</time>
      </trkpt>
      <trkpt lat="63.68087" lon="20.0503">
        <ele>37.72404</ele>
        <time>2020-10-01T09:51:56.265Z</time>
      </trkpt>
      <trkpt lat="63.68092" lon="20.05002">
        <ele>37.908945</ele>
        <time>2020-10-01T09:51:59.282Z</time>
      </trkpt>
      <trkpt lat="63.68096" lon="20.04978">
        <ele>38.075295</ele>
        <time>2020-10-01T09:52:02.311Z</time>
      </trkpt>
      <trkpt lat="63.681" lon="20.04954">
        <ele>38.242543</ele>
        <time>2020-10-01T09:52:05.271Z</time>
      </trkpt>
      <trkpt lat="63.68105" lon="20.04928">
        <ele>38.422591</ele>
        <time>2020-10-01T09:52:08.318Z</time>
      </trkpt>
      <trkpt lat="63.68109" lon="20.04905">
        <ele>38.576644</ele>
        <time>2020-10-01T09:52:11.257Z</time>
      </trkpt>
      <trkpt lat="63.68113" lon="20.04885">
        <ele>38.713897</ele>
        <time>2020-10-01T09:52:14.300Z</time>
      </trkpt>
      <trkpt lat="63.68116" lon="20.0486">
        <ele>38.878778</ele>
        <time>2020-10-01T09:52:18.274Z</time>
      </trkpt>
      <trkpt lat="63.68119" lon="20.04841">
        <ele>39.061112</ele>
        <time>2020-10-01T09:52:21.280Z</time>
      </trkpt>
      <trkpt lat="63.68123" lon="20.04815">
        <ele>39.365056</ele>
        <time>2020-10-01T09:52:25.281Z</time>
      </trkpt>
      <trkpt lat="63.68126" lon="20.04795">
        <ele>39.606093</ele>
        <time>2020-10-01T09:52:28.284Z</time>
      </trkpt>
      <trkpt lat="63.68129" lon="20.04772">
        <ele>39.879874</ele>
        <time>2020-10-01T09:52:32.266Z</time>
      </trkpt>
      <trkpt lat="63.68132" lon="20.04748">
        <ele>40.154837</ele>
        <time>2020-10-01T09:52:36.265Z</time>
      </trkpt>
      <trkpt lat="63.68136" lon="20.04725">
        <ele>40.431882</ele>
        <time>2020-10-01T09:52:40.306Z</time>
      </trkpt>
      <trkpt lat="63.68139" lon="20.04702">
        <ele>40.704064</ele>
        <time>2020-10-01T09:52:44.287Z</time>
      </trkpt>
      <trkpt lat="63.68141" lon="20.04679">
        <ele>40.969638</ele>
        <time>2020-10-01T09:52:48.293Z</time>
      </trkpt>
      <trkpt lat="63.68143" lon="20.04655">
        <ele>41.24073</ele>
        <time>2020-10-01T09:52:52.259Z</time>
      </trkpt>
      <trkpt lat="63.68146" lon="20.04631">
        <ele>41.519591</ele>
        <time>2020-10-01T09:52:56.288Z</time>
      </trkpt>
      <trkpt lat="63.68149" lon="20.04609">
        <ele>41.781628</ele>
        <time>2020-10-01T09:53:00.264Z</time>
      </trkpt>
      <trkpt lat="63.68151" lon="20.04583">
        <ele>42.084378</ele>
        <time>2020-10-01T09:53:04.265Z</time>
      </trkpt>
      <trkpt lat="63.68153" lon="20.04561">
        <ele>42.333781</ele>
        <time>2020-10-01T09:53:07.290Z</time>
      </trkpt>
      <trkpt lat="63.68154" lon="20.04538">
        <ele>42.588728</ele>
        <time>2020-10-01T09:53:10.274Z</time>
      </trkpt>
      <trkpt lat="63.68156" lon="20.04516">
        <ele>42.840581</ele>
        <time>2020-10-01T09:53:13.266Z</time>
      </trkpt>
      <trkpt lat="63.68158" lon="20.04496">
        <ele>43.076444</ele>
        <time>2020-10-01T09:53:16.283Z</time>
      </trkpt>
      <trkpt lat="63.6816" lon="20.04474">
        <ele>43.326954</ele>
        <time>2020-10-01T09:53:19.261Z</time>
      </trkpt>
      <trkpt lat="63.68161" lon="20.0445">
        <ele>43.388146</ele>
        <time>2020-10-01T09:53:22.264Z</time>
      </trkpt>
      <trkpt lat="63.68163" lon="20.04422">
        <ele>43.046228</ele>
        <time>2020-10-01T09:53:25.262Z</time>
      </trkpt>
      <trkpt lat="63.68164" lon="20.04402">
        <ele>42.798585</ele>
        <time>2020-10-01T09:53:27.293Z</time>
      </trkpt>
      <trkpt lat="63.68165" lon="20.04381">
        <ele>42.541252</ele>
        <time>2020-10-01T09:53:29.258Z</time>
      </trkpt>
      <trkpt lat="63.68167" lon="20.04357">
        <ele>42.251151</ele>
        <time>2020-10-01T09:53:31.258Z</time>
      </trkpt>
      <trkpt lat="63.68168" lon="20.04331">
        <ele>41.919694</ele>
        <time>2020-10-01T09:53:33.268Z</time>
      </trkpt>
      <trkpt lat="63.68171" lon="20.04302">
        <ele>41.567231</ele>
        <time>2020-10-01T09:53:35.291Z</time>
      </trkpt>
      <trkpt lat="63.68171" lon="20.04272">
        <ele>41.202768</ele>
        <time>2020-10-01T09:53:37.271Z</time>
      </trkpt>
      <trkpt lat="63.68171" lon="20.04244">
        <ele>40.862662</ele>
        <time>2020-10-01T09:53:39.283Z</time>
      </trkpt>
      <trkpt lat="63.6817" lon="20.04218">
        <ele>40.545775</ele>
        <time>2020-10-01T09:53:41.270Z</time>
      </trkpt>
      <trkpt lat="63.6817" lon="20.04193">
        <ele>40.234893</ele>
        <time>2020-10-01T09:53:43.288Z</time>
      </trkpt>
      <trkpt lat="63.68169" lon="20.04169">
        <ele>39.94668</ele>
        <time>2020-10-01T09:53:45.267Z</time>
      </trkpt>
      <trkpt lat="63.68168" lon="20.04147">
        <ele>39.672878</ele>
        <time>2020-10-01T09:53:47.280Z</time>
      </trkpt>
      <trkpt lat="63.68168" lon="20.04123">
        <ele>39.38035</ele>
        <time>2020-10-01T09:53:49.257Z</time>
      </trkpt>
      <trkpt lat="63.68167" lon="20.04099">
        <ele>39.0937</ele>
        <time>2020-10-01T09:53:51.268Z</time>
      </trkpt>
      <trkpt lat="63.68167" lon="20.04077">
        <ele>38.821778</ele>
        <time>2020-10-01T09:53:53.287Z</time>
      </trkpt>
      <trkpt lat="63.68166" lon="20.04057">
        <ele>38.573091</ele>
        <time>2020-10-01T09:53:55.289Z</time>
      </trkpt>
      <trkpt lat="63.68165" lon="20.04028">
        <ele>38.319803</ele>
        <time>2020-10-01T09:53:58.268Z</time>
      </trkpt>
      <trkpt lat="63.68164" lon="20.04002">
        <ele>38.094096</ele>
        <time>2020-10-01T09:54:01.301Z</time>
      </trkpt>
      <trkpt lat="63.68162" lon="20.03977">
        <ele>37.881381</ele>
        <time>2020-10-01T09:54:04.286Z</time>
      </trkpt>
      <trkpt lat="63.68161" lon="20.03952">
        <ele>37.665755</ele>
        <time>2020-10-01T09:54:07.274Z</time>
      </trkpt>
      <trkpt lat="63.6816" lon="20.03926">
        <ele>37.444061</ele>
        <time>2020-10-01T09:54:10.262Z</time>
      </trkpt>
      <trkpt lat="63.68159" lon="20.03897">
        <ele>37.196012</ele>
        <time>2020-10-01T09:54:13.286Z</time>
      </trkpt>
      <trkpt lat="63.68159" lon="20.03877">
        <ele>37.017456</ele>
        <time>2020-10-01T09:54:15.275Z</time>
      </trkpt>
      <trkpt lat="63.68158" lon="20.03855">
        <ele>36.830221</ele>
        <time>2020-10-01T09:54:17.266Z</time>
      </trkpt>
      <trkpt lat="63.68157" lon="20.03831">
        <ele>36.627052</ele>
        <time>2020-10-01T09:54:19.265Z</time>
      </trkpt>
      <trkpt lat="63.68157" lon="20.03804">
        <ele>36.39556</ele>
        <time>2020-10-01T09:54:21.274Z</time>
      </trkpt>
      <trkpt lat="63.68156" lon="20.03775">
        <ele>36.142255</ele>
        <time>2020-10-01T09:54:23.265Z</time>
      </trkpt>
      <trkpt lat="63.68155" lon="20.03746">
        <ele>35.892609</ele>
        <time>2020-10-01T09:54:25.266Z</time>
      </trkpt>
      <trkpt lat="63.68155" lon="20.03716">
        <ele>35.637924</ele>
        <time>2020-10-01T09:54:27.304Z</time>
      </trkpt>
      <trkpt lat="63.68154" lon="20.03685">
        <ele>35.371799</ele>
        <time>2020-10-01T09:54:29.277Z</time>
      </trkpt>
      <trkpt lat="63.68153" lon="20.03655">
        <ele>35.112912</ele>
        <time>2020-10-01T09:54:31.274Z</time>
      </trkpt>
      <trkpt lat="63.68152" lon="20.03627">
        <ele>35.256419</ele>
        <time>2020-10-01T09:54:33.280Z</time>
      </trkpt>
      <trkpt lat="63.68152" lon="20.03601">
        <ele>35.453224</ele>
        <time>2020-10-01T09:54:35.279Z</time>
      </trkpt>
      <trkpt lat="63.68151" lon="20.03578">
        <ele>35.628808</ele>
        <time>2020-10-01T09:54:37.279Z</time>
      </trkpt>
      <trkpt lat="63.6815" lon="20.03557">
        <ele>35.79214</ele>
        <time>2020-10-01T09:54:39.317Z</time>
      </trkpt>
      <trkpt lat="63.68148" lon="20.03535">
        <ele>35.962166</ele>
        <time>2020-10-01T09:54:41.269Z</time>
      </trkpt>
      <trkpt lat="63.68145" lon="20.03512">
        <ele>36.141696</ele>
        <time>2020-10-01T09:54:43.285Z</time>
      </trkpt>
      <trkpt lat="63.68143" lon="20.03489">
        <ele>36.320489</ele>
        <time>2020-10-01T09:54:45.274Z</time>
      </trkpt>
      <trkpt lat="63.68141" lon="20.03466">
        <ele>36.496183</ele>
        <time>2020-10-01T09:54:47.279Z</time>
      </trkpt>
      <trkpt lat="63.68138" lon="20.03442">
        <ele>36.681229</ele>
        <time>2020-10-01T09:54:49.290Z</time>
      </trkpt>
      <trkpt lat="63.68134" lon="20.03419">
        <ele>36.869088</ele>
        <time>2020-10-01T09:54:51.299Z</time>
      </trkpt>
      <trkpt lat="63.6813" lon="20.03395">
        <ele>37.063625</ele>
        <time>2020-10-01T09:54:53.261Z</time>
      </trkpt>
      <trkpt lat="63.68125" lon="20.03373">
        <ele>37.25242</ele>
        <time>2020-10-01T09:54:55.298Z</time>
      </trkpt>
      <trkpt lat="63.68119" lon="20.03353">
        <ele>37.438926</ele>
        <time>2020-10-01T09:54:57.289Z</time>
      </trkpt>
      <trkpt lat="63.68113" lon="20.03334">
        <ele>37.617441</ele>
        <time>2020-10-01T09:54:59.272Z</time>
      </trkpt>
      <trkpt lat="63.68107" lon="20.03315">
        <ele>37.791117</ele>
        <time>2020-10-01T09:55:01.315Z</time>
      </trkpt>
      <trkpt lat="63.681" lon="20.03298">
        <ele>37.963798</ele>
        <time>2020-10-01T09:55:03.270Z</time>
      </trkpt>
      <trkpt lat="63.68093" lon="20.03282">
        <ele>38.133708</ele>
        <time>2020-10-01T09:55:05.321Z</time>
      </trkpt>
      <trkpt lat="63.68085" lon="20.03266">
        <ele>38.3288</ele>
        <time>2020-10-01T09:55:07.260Z</time>
      </trkpt>
      <trkpt lat="63.68078" lon="20.03249">
        <ele>38.526754</ele>
        <time>2020-10-01T09:55:09.318Z</time>
      </trkpt>
      <trkpt lat="63.6807" lon="20.03234">
        <ele>38.71987</ele>
        <time>2020-10-01T09:55:11.278Z</time>
      </trkpt>
      <trkpt lat="63.68063" lon="20.03217">
        <ele>38.921095</ele>
        <time>2020-10-01T09:55:13.280Z</time>
      </trkpt>
      <trkpt lat="63.68056" lon="20.03202">
        <ele>39.112205</ele>
        <time>2020-10-01T09:55:15.283Z</time>
      </trkpt>
      <trkpt lat="63.68048" lon="20.03186">
        <ele>39.305238</ele>
        <time>2020-10-01T09:55:17.275Z</time>
      </trkpt>
      <trkpt lat="63.68041" lon="20.03168">
        <ele>39.509246</ele>
        <time>2020-10-01T09:55:19.310Z</time>
      </trkpt>
      <trkpt lat="63.68034" lon="20.03149">
        <ele>39.710766</ele>
        <time>2020-10-01T09:55:21.260Z</time>
      </trkpt>
      <trkpt lat="63.68027" lon="20.03132">
        <ele>39.907246</ele>
        <time>2020-10-01T09:55:23.271Z</time>
      </trkpt>
      <trkpt lat="63.6802" lon="20.03116">
        <ele>40.096899</ele>
        <time>2020-10-01T09:55:25.272Z</time>
      </trkpt>
      <trkpt lat="63.68013" lon="20.03101">
        <ele>40.27959</ele>
        <time>2020-10-01T09:55:27.290Z</time>
      </trkpt>
      <trkpt lat="63.68007" lon="20.03086">
        <ele>40.457432</ele>
        <time>2020-10-01T09:55:29.265Z</time>
      </trkpt>
      <trkpt lat="63.68001" lon="20.03071">
        <ele>40.631922</ele>
        <time>2020-10-01T09:55:31.269Z</time>
      </trkpt>
      <trkpt lat="63.67995" lon="20.03055">
        <ele>40.810209</ele>
        <time>2020-10-01T09:55:33.292Z</time>
      </trkpt>
      <trkpt lat="63.67989" lon="20.03038">
        <ele>40.988733</ele>
        <time>2020-10-01T09:55:35.270Z</time>
      </trkpt>
      <trkpt lat="63.67983" lon="20.03021">
        <ele>41.171079</ele>
        <time>2020-10-01T09:55:37.273Z</time>
      </trkpt>
      <trkpt lat="63.67977" lon="20.03003">
        <ele>41.350508</ele>
        <time>2020-10-01T09:55:39.267Z</time>
      </trkpt>
      <trkpt lat="63.67972" lon="20.02985">
        <ele>41.534477</ele>
        <time>2020-10-01T09:55:41.257Z</time>
      </trkpt>
      <trkpt lat="63.67967" lon="20.02966">
        <ele>41.316976</ele>
        <time>2020-10-01T09:55:43.261Z</time>
      </trkpt>
      <trkpt lat="63.67963" lon="20.02947">
        <ele>41.034095</ele>
        <time>2020-10-01T09:55:45.260Z</time>
      </trkpt>
      <trkpt lat="63.67958" lon="20.02928">
        <ele>40.751403</ele>
        <time>2020-10-01T09:55:47.278Z</time>
      </trkpt>
      <trkpt lat="63.67954" lon="20.02907">
        <ele>40.448581</ele>
        <time>2020-10-01T09:55:49.278Z</time>
      </trkpt>
      <trkpt lat="63.67951" lon="20.02885">
        <ele>40.14177</ele>
        <time>2020-10-01T09:55:51.280Z</time>
      </trkpt>
      <trkpt lat="63.67949" lon="20.02864">
        <ele>39.851161</ele>
        <time>2020-10-01T09:55:53.262Z</time>
      </trkpt>
      <trkpt lat="63.67948" lon="20.02842">
        <ele>39.557329</ele>
        <time>2020-10-01T09:55:55.312Z</time>
      </trkpt>
      <trkpt lat="63.67947" lon="20.02819">
        <ele>39.257388</ele>
        <time>2020-10-01T09:55:57.278Z</time>
      </trkpt>
      <trkpt lat="63.67947" lon="20.02797">
        <ele>38.965674</ele>
        <time>2020-10-01T09:55:59.272Z</time>
      </trkpt>
      <trkpt lat="63.67946" lon="20.02775">
        <ele>38.670645</ele>
        <time>2020-10-01T09:56:01.269Z</time>
      </trkpt>
      <trkpt lat="63.67945" lon="20.02752">
        <ele>38.37645</ele>
        <time>2020-10-01T09:56:03.281Z</time>
      </trkpt>
      <trkpt lat="63.67945" lon="20.0273">
        <ele>38.08251</ele>
        <time>2020-10-01T09:56:05.288Z</time>
      </trkpt>
      <trkpt lat="63.67944" lon="20.02709">
        <ele>37.802136</ele>
        <time>2020-10-01T09:56:07.281Z</time>
      </trkpt>
      <trkpt lat="63.67943" lon="20.02688">
        <ele>37.523707</ele>
        <time>2020-10-01T09:56:09.306Z</time>
      </trkpt>
      <trkpt lat="63.67942" lon="20.02667">
        <ele>37.240711</ele>
        <time>2020-10-01T09:56:11.269Z</time>
      </trkpt>
      <trkpt lat="63.6794" lon="20.02646">
        <ele>36.970441</ele>
        <time>2020-10-01T09:56:13.286Z</time>
      </trkpt>
      <trkpt lat="63.67939" lon="20.02618">
        <ele>36.595755</ele>
        <time>2020-10-01T09:56:16.288Z</time>
      </trkpt>
      <trkpt lat="63.67938" lon="20.02591">
        <ele>36.23767</ele>
        <time>2020-10-01T09:56:19.279Z</time>
      </trkpt>
      <trkpt lat="63.67936" lon="20.02565">
        <ele>36.87578</ele>
        <time>2020-10-01T09:56:23.258Z</time>
      </trkpt>
      <trkpt lat="63.67936" lon="20.02545">
        <ele>37.442296</ele>
        <time>2020-10-01T09:56:27.291Z</time>
      </trkpt>
      <trkpt lat="63.67935" lon="20.02523">
        <ele>38.041422</ele>
        <time>2020-10-01T09:56:32.265Z</time>
      </trkpt>
      <trkpt lat="63.67935" lon="20.02501">
        <ele>38.657919</ele>
        <time>2020-10-01T09:56:38.261Z</time>
      </trkpt>
      <trkpt lat="63.67936" lon="20.0248">
        <ele>39.240444</ele>
        <time>2020-10-01T09:56:43.266Z</time>
      </trkpt>
      <trkpt lat="63.67937" lon="20.0246">
        <ele>39.810253</ele>
        <time>2020-10-01T09:56:48.276Z</time>
      </trkpt>
      <trkpt lat="63.67936" lon="20.02438">
        <ele>40.427227</ele>
        <time>2020-10-01T09:56:54.276Z</time>
      </trkpt>
      <trkpt lat="63.67939" lon="20.02417">
        <ele>41.031023</ele>
        <time>2020-10-01T09:56:59.276Z</time>
      </trkpt>
      <trkpt lat="63.6794" lon="20.02395">
        <ele>41.624496</ele>
        <time>2020-10-01T09:57:06.256Z</time>
      </trkpt>
      <trkpt lat="63.67943" lon="20.02375">
        <ele>42.23272</ele>
        <time>2020-10-01T09:57:12.274Z</time>
      </trkpt>
      <trkpt lat="63.67947" lon="20.02356">
        <ele>42.798887</ele>
        <time>2020-10-01T09:57:17.253Z</time>
      </trkpt>
      <trkpt lat="63.67952" lon="20.02335">
        <ele>43.459086</ele>
        <time>2020-10-01T09:57:22.271Z</time>
      </trkpt>
      <trkpt lat="63.67956" lon="20.02317">
        <ele>44.043241</ele>
        <time>2020-10-01T09:57:26.296Z</time>
      </trkpt>
      <trkpt lat="63.67962" lon="20.02298">
        <ele>44.675999</ele>
        <time>2020-10-01T09:57:30.306Z</time>
      </trkpt>
      <trkpt lat="63.67967" lon="20.02281">
        <ele>45.248105</ele>
        <time>2020-10-01T09:57:34.254Z</time>
      </trkpt>
      <trkpt lat="63.67974" lon="20.02265">
        <ele>45.836168</ele>
        <time>2020-10-01T09:57:38.283Z</time>
      </trkpt>
      <trkpt lat="63.6798" lon="20.02249">
        <ele>46.459503</ele>
        <time>2020-10-01T09:57:42.268Z</time>
      </trkpt>
      <trkpt lat="63.67988" lon="20.02231">
        <ele>47.141126</ele>
        <time>2020-10-01T09:57:46.260Z</time>
      </trkpt>
      <trkpt lat="63.67995" lon="20.02214">
        <ele>47.35545</ele>
        <time>2020-10-01T09:57:50.284Z</time>
      </trkpt>
      <trkpt lat="63.68002" lon="20.022">
        <ele>47.127703</ele>
        <time>2020-10-01T09:57:54.294Z</time>
      </trkpt>
      <trkpt lat="63.68009" lon="20.02184">
        <ele>46.87886</ele>
        <time>2020-10-01T09:57:58.289Z</time>
      </trkpt>
      <trkpt lat="63.68016" lon="20.02166">
        <ele>46.628424</ele>
        <time>2020-10-01T09:58:02.258Z</time>
      </trkpt>
      <trkpt lat="63.68024" lon="20.02147">
        <ele>46.349149</ele>
        <time>2020-10-01T09:58:06.308Z</time>
      </trkpt>
      <trkpt lat="63.68031" lon="20.02133">
        <ele>46.132767</ele>
        <time>2020-10-01T09:58:09.325Z</time>
      </trkpt>
      <trkpt lat="63.68037" lon="20.02119">
        <ele>45.91493</ele>
        <time>2020-10-01T09:58:12.262Z</time>
      </trkpt>
      <trkpt lat="63.68045" lon="20.02103">
        <ele>45.673656</ele>
        <time>2020-10-01T09:58:15.257Z</time>
      </trkpt>
      <trkpt lat="63.68052" lon="20.02085">
        <ele>45.412911</ele>
        <time>2020-10-01T09:58:18.286Z</time>
      </trkpt>
      <trkpt lat="63.6806" lon="20.02067">
        <ele>45.140024</ele>
        <time>2020-10-01T09:58:21.298Z</time>
      </trkpt>
      <trkpt lat="63.68068" lon="20.02043">
        <ele>44.821471</ele>
        <time>2020-10-01T09:58:24.265Z</time>
      </trkpt>
      <trkpt lat="63.68074" lon="20.02025">
        <ele>44.579078</ele>
        <time>2020-10-01T09:58:26.273Z</time>
      </trkpt>
      <trkpt lat="63.68081" lon="20.02004">
        <ele>44.310574</ele>
        <time>2020-10-01T09:58:28.275Z</time>
      </trkpt>
      <trkpt lat="63.68086" lon="20.01981">
        <ele>44.035947</ele>
        <time>2020-10-01T09:58:30.285Z</time>
      </trkpt>
      <trkpt lat="63.68092" lon="20.01957">
        <ele>43.744151</ele>
        <time>2020-10-01T09:58:32.277Z</time>
      </trkpt>
      <trkpt lat="63.68097" lon="20.01935">
        <ele>43.475522</ele>
        <time>2020-10-01T09:58:34.283Z</time>
      </trkpt>
      <trkpt lat="63.68101" lon="20.01911">
        <ele>43.203791</ele>
        <time>2020-10-01T09:58:36.276Z</time>
      </trkpt>
      <trkpt lat="63.68103" lon="20.01881">
        <ele>43.055401</ele>
        <time>2020-10-01T09:58:38.253Z</time>
      </trkpt>
      <trkpt lat="63.68103" lon="20.01847">
        <ele>42.915094</ele>
        <time>2020-10-01T09:58:40.306Z</time>
      </trkpt>
      <trkpt lat="63.68101" lon="20.01812">
        <ele>42.772534</ele>
        <time>2020-10-01T09:58:42.255Z</time>
      </trkpt>
      <trkpt lat="63.68098" lon="20.0178">
        <ele>42.636369</ele>
        <time>2020-10-01T09:58:44.269Z</time>
      </trkpt>
      <trkpt lat="63.68095" lon="20.0175">
        <ele>42.511799</ele>
        <time>2020-10-01T09:58:46.298Z</time>
      </trkpt>
      <trkpt lat="63.68091" lon="20.01722">
        <ele>42.390513</ele>
        <time>2020-10-01T09:58:48.306Z</time>
      </trkpt>
      <trkpt lat="63.68087" lon="20.01696">
        <ele>42.279571</ele>
        <time>2020-10-01T09:58:50.274Z</time>
      </trkpt>
      <trkpt lat="63.68084" lon="20.01672">
        <ele>42.173408</ele>
        <time>2020-10-01T09:58:52.277Z</time>
      </trkpt>
      <trkpt lat="63.6808" lon="20.01647">
        <ele>42.066168</ele>
        <time>2020-10-01T09:58:54.265Z</time>
      </trkpt>
      <trkpt lat="63.68076" lon="20.01622">
        <ele>41.958541</ele>
        <time>2020-10-01T09:58:56.267Z</time>
      </trkpt>
      <trkpt lat="63.68072" lon="20.01596">
        <ele>41.8443</ele>
        <time>2020-10-01T09:58:58.273Z</time>
      </trkpt>
      <trkpt lat="63.68069" lon="20.01566">
        <ele>41.721143</ele>
        <time>2020-10-01T09:59:00.269Z</time>
      </trkpt>
      <trkpt lat="63.68066" lon="20.01537">
        <ele>41.595794</ele>
        <time>2020-10-01T09:59:02.268Z</time>
      </trkpt>
      <trkpt lat="63.68064" lon="20.01507">
        <ele>41.526906</ele>
        <time>2020-10-01T09:59:04.267Z</time>
      </trkpt>
      <trkpt lat="63.68064" lon="20.01477">
        <ele>41.654908</ele>
        <time>2020-10-01T09:59:06.300Z</time>
      </trkpt>
      <trkpt lat="63.68064" lon="20.01442">
        <ele>41.806026</ele>
        <time>2020-10-01T09:59:08.262Z</time>
      </trkpt>
      <trkpt lat="63.68064" lon="20.01406">
        <ele>41.959276</ele>
        <time>2020-10-01T09:59:10.280Z</time>
      </trkpt>
      <trkpt lat="63.68063" lon="20.01373">
        <ele>42.101482</ele>
        <time>2020-10-01T09:59:12.256Z</time>
      </trkpt>
      <trkpt lat="63.68062" lon="20.01343">
        <ele>42.230141</ele>
        <time>2020-10-01T09:59:14.299Z</time>
      </trkpt>
      <trkpt lat="63.68061" lon="20.01313">
        <ele>42.356141</ele>
        <time>2020-10-01T09:59:16.264Z</time>
      </trkpt>
      <trkpt lat="63.6806" lon="20.01286">
        <ele>42.472253</ele>
        <time>2020-10-01T09:59:18.266Z</time>
      </trkpt>
      <trkpt lat="63.6806" lon="20.0126">
        <ele>42.583681</ele>
        <time>2020-10-01T09:59:20.289Z</time>
      </trkpt>
      <trkpt lat="63.68058" lon="20.01237">
        <ele>42.684187</ele>
        <time>2020-10-01T09:59:22.273Z</time>
      </trkpt>
      <trkpt lat="63.68056" lon="20.01212">
        <ele>42.791318</ele>
        <time>2020-10-01T09:59:25.275Z</time>
      </trkpt>
      <trkpt lat="63.68055" lon="20.01187">
        <ele>42.896812</ele>
        <time>2020-10-01T09:59:28.282Z</time>
      </trkpt>
      <trkpt lat="63.68055" lon="20.01161">
        <ele>43.008377</ele>
        <time>2020-10-01T09:59:31.277Z</time>
      </trkpt>
      <trkpt lat="63.68054" lon="20.01137">
        <ele>43.110217</ele>
        <time>2020-10-01T09:59:34.330Z</time>
      </trkpt>
      <trkpt lat="63.68054" lon="20.01114">
        <ele>43.211806</ele>
        <time>2020-10-01T09:59:37.292Z</time>
      </trkpt>
      <trkpt lat="63.68054" lon="20.01089">
        <ele>43.135442</ele>
        <time>2020-10-01T09:59:40.301Z</time>
      </trkpt>
      <trkpt lat="63.68054" lon="20.01064">
        <ele>43.017698</ele>
        <time>2020-10-01T09:59:44.281Z</time>
      </trkpt>
      <trkpt lat="63.68054" lon="20.01043">
        <ele>42.922391</ele>
        <time>2020-10-01T09:59:47.261Z</time>
      </trkpt>
      <trkpt lat="63.68054" lon="20.01021">
        <ele>42.818726</ele>
        <time>2020-10-01T09:59:50.285Z</time>
      </trkpt>
      <trkpt lat="63.68054" lon="20.00994">
        <ele>42.693587</ele>
        <time>2020-10-01T09:59:53.296Z</time>
      </trkpt>
      <trkpt lat="63.68054" lon="20.00963">
        <ele>42.5493</ele>
        <time>2020-10-01T09:59:56.268Z</time>
      </trkpt>
      <trkpt lat="63.68054" lon="20.00939">
        <ele>42.437697</ele>
        <time>2020-10-01T09:59:58.272Z</time>
      </trkpt>
      <trkpt lat="63.68055" lon="20.00917">
        <ele>42.333845</ele>
        <time>2020-10-01T10:00:00.265Z</time>
      </trkpt>
      <trkpt lat="63.68056" lon="20.00893">
        <ele>42.219093</ele>
        <time>2020-10-01T10:00:02.294Z</time>
      </trkpt>
      <trkpt lat="63.68057" lon="20.00867">
        <ele>42.095838</ele>
        <time>2020-10-01T10:00:04.271Z</time>
      </trkpt>
      <trkpt lat="63.68057" lon="20.00841">
        <ele>41.974897</ele>
        <time>2020-10-01T10:00:06.264Z</time>
      </trkpt>
      <trkpt lat="63.68057" lon="20.00816">
        <ele>41.861353</ele>
        <time>2020-10-01T10:00:08.294Z</time>
      </trkpt>
      <trkpt lat="63.68054" lon="20.00794">
        <ele>41.752626</ele>
        <time>2020-10-01T10:00:10.248Z</time>
      </trkpt>
      <trkpt lat="63.68054" lon="20.00771">
        <ele>41.645226</ele>
        <time>2020-10-01T10:00:13.351Z</time>
      </trkpt>
      <trkpt lat="63.68054" lon="20.00744">
        <ele>41.520549</ele>
        <time>2020-10-01T10:00:17.278Z</time>
      </trkpt>
      <trkpt lat="63.68055" lon="20.00724">
        <ele>41.425289</ele>
        <time>2020-10-01T10:00:21.280Z</time>
      </trkpt>
      <trkpt lat="63.68051" lon="20.00742">
        <ele>41.336774</ele>
        <time>2020-10-01T10:00:30.262Z</time>
      </trkpt>
      <trkpt lat="63.68051" lon="20.00769">
        <ele>41.35001</ele>
        <time>2020-10-01T10:00:35.263Z</time>
      </trkpt>
      <trkpt lat="63.68047" lon="20.00788">
        <ele>41.360597</ele>
        <time>2020-10-01T10:00:38.278Z</time>
      </trkpt>
      <trkpt lat="63.68036" lon="20.00793">
        <ele>41.373614</ele>
        <time>2020-10-01T10:00:41.263Z</time>
      </trkpt>
      <trkpt lat="63.68025" lon="20.00797">
        <ele>41.38622</ele>
        <time>2020-10-01T10:00:44.260Z</time>
      </trkpt>
      <trkpt lat="63.68014" lon="20.00804">
        <ele>41.399167</ele>
        <time>2020-10-01T10:00:47.266Z</time>
      </trkpt>
      <trkpt lat="63.68002" lon="20.00813">
        <ele>41.413517</ele>
        <time>2020-10-01T10:00:50.257Z</time>
      </trkpt>
      <trkpt lat="63.67989" lon="20.00821">
        <ele>41.428248</ele>
        <time>2020-10-01T10:00:53.274Z</time>
      </trkpt>
      <trkpt lat="63.67977" lon="20.00828">
        <ele>41.442694</ele>
        <time>2020-10-01T10:00:56.262Z</time>
      </trkpt>
      <trkpt lat="63.67964" lon="20.00834">
        <ele>41.457428</ele>
        <time>2020-10-01T10:00:59.288Z</time>
      </trkpt>
      <trkpt lat="63.67951" lon="20.00839">
        <ele>41.472522</ele>
        <time>2020-10-01T10:01:02.301Z</time>
      </trkpt>
      <trkpt lat="63.67942" lon="20.00841">
        <ele>41.482693</ele>
        <time>2020-10-01T10:01:04.288Z</time>
      </trkpt>
      <trkpt lat="63.6793" lon="20.00839">
        <ele>41.49703</ele>
        <time>2020-10-01T10:01:07.278Z</time>
      </trkpt>
      <trkpt lat="63.6792" lon="20.00835">
        <ele>41.507783</ele>
        <time>2020-10-01T10:01:09.278Z</time>
      </trkpt>
      <trkpt lat="63.6791" lon="20.0083">
        <ele>41.519573</ele>
        <time>2020-10-01T10:01:11.316Z</time>
      </trkpt>
      <trkpt lat="63.679" lon="20.00823">
        <ele>41.531302</ele>
        <time>2020-10-01T10:01:13.268Z</time>
      </trkpt>
      <trkpt lat="63.6789" lon="20.00814">
        <ele>41.524541</ele>
        <time>2020-10-01T10:01:15.277Z</time>
      </trkpt>
      <trkpt lat="63.67881" lon="20.00806">
        <ele>41.460451</ele>
        <time>2020-10-01T10:01:17.270Z</time>
      </trkpt>
      <trkpt lat="63.67871" lon="20.00797">
        <ele>41.397354</ele>
        <time>2020-10-01T10:01:19.310Z</time>
      </trkpt>
      <trkpt lat="63.67862" lon="20.00786">
        <ele>41.333725</ele>
        <time>2020-10-01T10:01:21.282Z</time>
      </trkpt>
      <trkpt lat="63.67853" lon="20.00771">
        <ele>41.267513</ele>
        <time>2020-10-01T10:01:23.330Z</time>
      </trkpt>
      <trkpt lat="63.67844" lon="20.00755">
        <ele>41.198684</ele>
        <time>2020-10-01T10:01:25.281Z</time>
      </trkpt>
      <trkpt lat="63.67836" lon="20.00736">
        <ele>41.128326</ele>
        <time>2020-10-01T10:01:27.288Z</time>
      </trkpt>
      <trkpt lat="63.67828" lon="20.00715">
        <ele>41.052739</ele>
        <time>2020-10-01T10:01:29.300Z</time>
      </trkpt>
      <trkpt lat="63.67821" lon="20.00694">
        <ele>40.982055</ele>
        <time>2020-10-01T10:01:31.280Z</time>
      </trkpt>
      <trkpt lat="63.67814" lon="20.00674">
        <ele>40.914126</ele>
        <time>2020-10-01T10:01:33.262Z</time>
      </trkpt>
      <trkpt lat="63.67809" lon="20.00653">
        <ele>40.851405</ele>
        <time>2020-10-01T10:01:35.268Z</time>
      </trkpt>
      <trkpt lat="63.67803" lon="20.00635">
        <ele>40.787851</ele>
        <time>2020-10-01T10:01:37.261Z</time>
      </trkpt>
      <trkpt lat="63.67796" lon="20.00615">
        <ele>40.721085</ele>
        <time>2020-10-01T10:01:39.268Z</time>
      </trkpt>
      <trkpt lat="63.67791" lon="20.00594">
        <ele>40.654861</ele>
        <time>2020-10-01T10:01:41.281Z</time>
      </trkpt>
      <trkpt lat="63.67785" lon="20.00574">
        <ele>40.594097</ele>
        <time>2020-10-01T10:01:43.256Z</time>
      </trkpt>
      <trkpt lat="63.67779" lon="20.00549">
        <ele>40.517771</ele>
        <time>2020-10-01T10:01:46.277Z</time>
      </trkpt>
      <trkpt lat="63.67775" lon="20.00531">
        <ele>40.462646</ele>
        <time>2020-10-01T10:01:48.302Z</time>
      </trkpt>
      <trkpt lat="63.67771" lon="20.00512">
        <ele>39.992731</ele>
        <time>2020-10-01T10:01:50.293Z</time>
      </trkpt>
      <trkpt lat="63.67766" lon="20.00495">
        <ele>39.426382</ele>
        <time>2020-10-01T10:01:52.267Z</time>
      </trkpt>
      <trkpt lat="63.67762" lon="20.00476">
        <ele>38.851061</ele>
        <time>2020-10-01T10:01:54.278Z</time>
      </trkpt>
      <trkpt lat="63.67757" lon="20.00457">
        <ele>38.247456</ele>
        <time>2020-10-01T10:01:56.297Z</time>
      </trkpt>
      <trkpt lat="63.67752" lon="20.00437">
        <ele>37.599698</ele>
        <time>2020-10-01T10:01:58.306Z</time>
      </trkpt>
      <trkpt lat="63.67747" lon="20.00419">
        <ele>36.998042</ele>
        <time>2020-10-01T10:02:00.281Z</time>
      </trkpt>
      <trkpt lat="63.6774" lon="20.00395">
        <ele>36.208587</ele>
        <time>2020-10-01T10:02:03.270Z</time>
      </trkpt>
      <trkpt lat="63.67733" lon="20.00376">
        <ele>35.535501</ele>
        <time>2020-10-01T10:02:06.269Z</time>
      </trkpt>
      <trkpt lat="63.67727" lon="20.00356">
        <ele>34.866159</ele>
        <time>2020-10-01T10:02:09.308Z</time>
      </trkpt>
      <trkpt lat="63.67721" lon="20.00335">
        <ele>34.169518</ele>
        <time>2020-10-01T10:02:12.278Z</time>
      </trkpt>
      <trkpt lat="63.67716" lon="20.00316">
        <ele>33.569678</ele>
        <time>2020-10-01T10:02:15.280Z</time>
      </trkpt>
      <trkpt lat="63.67712" lon="20.00298">
        <ele>33.009687</ele>
        <time>2020-10-01T10:02:18.318Z</time>
      </trkpt>
      <trkpt lat="63.67707" lon="20.00281">
        <ele>32.429723</ele>
        <time>2020-10-01T10:02:21.268Z</time>
      </trkpt>
      <trkpt lat="63.67702" lon="20.00263">
        <ele>31.828129</ele>
        <time>2020-10-01T10:02:24.302Z</time>
      </trkpt>
      <trkpt lat="63.67695" lon="20.00245">
        <ele>31.208064</ele>
        <time>2020-10-01T10:02:27.289Z</time>
      </trkpt>
      <trkpt lat="63.67689" lon="20.00231">
        <ele>30.640523</ele>
        <time>2020-10-01T10:02:30.278Z</time>
      </trkpt>
      <trkpt lat="63.6768" lon="20.00216">
        <ele>29.983397</ele>
        <time>2020-10-01T10:02:34.314Z</time>
      </trkpt>
      <trkpt lat="63.67671" lon="20.00203">
        <ele>29.275661</ele>
        <time>2020-10-01T10:02:38.284Z</time>
      </trkpt>
      <trkpt lat="63.67661" lon="20.00194">
        <ele>29.745109</ele>
        <time>2020-10-01T10:02:42.276Z</time>
      </trkpt>
      <trkpt lat="63.6765" lon="20.00186">
        <ele>30.334187</ele>
        <time>2020-10-01T10:02:46.302Z</time>
      </trkpt>
      <trkpt lat="63.67641" lon="20.00181">
        <ele>30.807759</ele>
        <time>2020-10-01T10:02:49.275Z</time>
      </trkpt>
      <trkpt lat="63.67632" lon="20.00173">
        <ele>31.282199</ele>
        <time>2020-10-01T10:02:52.291Z</time>
      </trkpt>
      <trkpt lat="63.67624" lon="20.00166">
        <ele>31.749422</ele>
        <time>2020-10-01T10:02:55.277Z</time>
      </trkpt>
      <trkpt lat="63.67615" lon="20.0016">
        <ele>32.249705</ele>
        <time>2020-10-01T10:02:58.273Z</time>
      </trkpt>
      <trkpt lat="63.67605" lon="20.00156">
        <ele>32.743194</ele>
        <time>2020-10-01T10:03:01.270Z</time>
      </trkpt>
      <trkpt lat="63.67596" lon="20.00151">
        <ele>33.23847</ele>
        <time>2020-10-01T10:03:04.290Z</time>
      </trkpt>
      <trkpt lat="63.67587" lon="20.00145">
        <ele>33.731089</ele>
        <time>2020-10-01T10:03:07.280Z</time>
      </trkpt>
      <trkpt lat="63.67576" lon="20.00139">
        <ele>34.315634</ele>
        <time>2020-10-01T10:03:10.274Z</time>
      </trkpt>
      <trkpt lat="63.67564" lon="20.00132">
        <ele>34.930637</ele>
        <time>2020-10-01T10:03:13.280Z</time>
      </trkpt>
      <trkpt lat="63.67554" lon="20.00126">
        <ele>35.480484</ele>
        <time>2020-10-01T10:03:16.272Z</time>
      </trkpt>
      <trkpt lat="63.67543" lon="20.00118">
        <ele>36.047841</ele>
        <time>2020-10-01T10:03:19.267Z</time>
      </trkpt>
      <trkpt lat="63.67533" lon="20.0011">
        <ele>36.631054</ele>
        <time>2020-10-01T10:03:22.270Z</time>
      </trkpt>
      <trkpt lat="63.67522" lon="20.001">
        <ele>37.236022</ele>
        <time>2020-10-01T10:03:25.290Z</time>
      </trkpt>
      <trkpt lat="63.6751" lon="20.00087">
        <ele>37.905866</ele>
        <time>2020-10-01T10:03:28.289Z</time>
      </trkpt>
      <trkpt lat="63.675" lon="20.00072">
        <ele>38.475369</ele>
        <time>2020-10-01T10:03:31.274Z</time>
      </trkpt>
      <trkpt lat="63.6749" lon="20.00054">
        <ele>38.037258</ele>
        <time>2020-10-01T10:03:34.275Z</time>
      </trkpt>
      <trkpt lat="63.67482" lon="20.00031">
        <ele>37.546744</ele>
        <time>2020-10-01T10:03:37.267Z</time>
      </trkpt>
      <trkpt lat="63.67476" lon="20.00013">
        <ele>37.194018</ele>
        <time>2020-10-01T10:03:39.279Z</time>
      </trkpt>
      <trkpt lat="63.6747" lon="19.99995">
        <ele>36.844385</ele>
        <time>2020-10-01T10:03:41.264Z</time>
      </trkpt>
      <trkpt lat="63.67465" lon="19.99978">
        <ele>36.502397</ele>
        <time>2020-10-01T10:03:43.298Z</time>
      </trkpt>
      <trkpt lat="63.67459" lon="19.9996">
        <ele>36.146598</ele>
        <time>2020-10-01T10:03:45.282Z</time>
      </trkpt>
      <trkpt lat="63.67454" lon="19.99943">
        <ele>35.806736</ele>
        <time>2020-10-01T10:03:47.277Z</time>
      </trkpt>
      <trkpt lat="63.67445" lon="19.99921">
        <ele>35.341447</ele>
        <time>2020-10-01T10:03:50.285Z</time>
      </trkpt>
      <trkpt lat="63.67436" lon="19.99909">
        <ele>34.952517</ele>
        <time>2020-10-01T10:03:53.281Z</time>
      </trkpt>
      <trkpt lat="63.67423" lon="19.99921">
        <ele>34.459614</ele>
        <time>2020-10-01T10:03:56.302Z</time>
      </trkpt>
      <trkpt lat="63.67416" lon="19.99938">
        <ele>34.080344</ele>
        <time>2020-10-01T10:03:58.306Z</time>
      </trkpt>
      <trkpt lat="63.67409" lon="19.99957">
        <ele>33.681002</ele>
        <time>2020-10-01T10:04:00.261Z</time>
      </trkpt>
      <trkpt lat="63.67401" lon="19.99976">
        <ele>33.254924</ele>
        <time>2020-10-01T10:04:02.261Z</time>
      </trkpt>
      <trkpt lat="63.67391" lon="19.99998">
        <ele>32.767784</ele>
        <time>2020-10-01T10:04:04.304Z</time>
      </trkpt>
      <trkpt lat="63.67381" lon="20.0002">
        <ele>32.267993</ele>
        <time>2020-10-01T10:04:06.284Z</time>
      </trkpt>
      <trkpt lat="63.67372" lon="20.0004">
        <ele>32.137488</ele>
        <time>2020-10-01T10:04:08.279Z</time>
      </trkpt>
      <trkpt lat="63.67362" lon="20.00057">
        <ele>32.407173</ele>
        <time>2020-10-01T10:04:10.275Z</time>
      </trkpt>
      <trkpt lat="63.67353" lon="20.00074">
        <ele>32.663573</ele>
        <time>2020-10-01T10:04:12.284Z</time>
      </trkpt>
      <trkpt lat="63.67344" lon="20.00089">
        <ele>32.908237</ele>
        <time>2020-10-01T10:04:14.266Z</time>
      </trkpt>
      <trkpt lat="63.67335" lon="20.00102">
        <ele>33.131978</ele>
        <time>2020-10-01T10:04:16.291Z</time>
      </trkpt>
      <trkpt lat="63.67328" lon="20.00113">
        <ele>33.33667</ele>
        <time>2020-10-01T10:04:18.287Z</time>
      </trkpt>
      <trkpt lat="63.67317" lon="20.00127">
        <ele>33.599634</ele>
        <time>2020-10-01T10:04:21.281Z</time>
      </trkpt>
      <trkpt lat="63.67309" lon="20.00138">
        <ele>33.801021</ele>
        <time>2020-10-01T10:04:24.274Z</time>
      </trkpt>
      <trkpt lat="63.673" lon="20.00149">
        <ele>34.03146</ele>
        <time>2020-10-01T10:04:28.284Z</time>
      </trkpt>
      <trkpt lat="63.67292" lon="20.0016">
        <ele>34.236729</ele>
        <time>2020-10-01T10:04:32.271Z</time>
      </trkpt>
      <trkpt lat="63.67284" lon="20.00169">
        <ele>34.440036</ele>
        <time>2020-10-01T10:04:36.283Z</time>
      </trkpt>
      <trkpt lat="63.67276" lon="20.00178">
        <ele>34.635892</ele>
        <time>2020-10-01T10:04:40.273Z</time>
      </trkpt>
      <trkpt lat="63.67266" lon="20.00186">
        <ele>34.857042</ele>
        <time>2020-10-01T10:04:45.283Z</time>
      </trkpt>
      <trkpt lat="63.67258" lon="20.00197">
        <ele>35.062513</ele>
        <time>2020-10-01T10:04:50.298Z</time>
      </trkpt>
      <trkpt lat="63.67248" lon="20.00207">
        <ele>35.299483</ele>
        <time>2020-10-01T10:04:55.288Z</time>
      </trkpt>
      <trkpt lat="63.6724" lon="20.00215">
        <ele>35.502018</ele>
        <time>2020-10-01T10:04:59.276Z</time>
      </trkpt>
      <trkpt lat="63.67232" lon="20.00226">
        <ele>35.705786</ele>
        <time>2020-10-01T10:05:03.288Z</time>
      </trkpt>
      <trkpt lat="63.67223" lon="20.00234">
        <ele>35.919544</ele>
        <time>2020-10-01T10:05:07.265Z</time>
      </trkpt>
      <trkpt lat="63.67213" lon="20.00245">
        <ele>36.314117</ele>
        <time>2020-10-01T10:05:11.299Z</time>
      </trkpt>
      <trkpt lat="63.67204" lon="20.00252">
        <ele>36.667814</ele>
        <time>2020-10-01T10:05:14.293Z</time>
      </trkpt>
      <trkpt lat="63.67194" lon="20.00259">
        <ele>37.037404</ele>
        <time>2020-10-01T10:05:17.309Z</time>
      </trkpt>
      <trkpt lat="63.67184" lon="20.00264">
        <ele>37.419795</ele>
        <time>2020-10-01T10:05:20.270Z</time>
      </trkpt>
      <trkpt lat="63.67173" lon="20.00265">
        <ele>37.823624</ele>
        <time>2020-10-01T10:05:23.286Z</time>
      </trkpt>
      <trkpt lat="63.67161" lon="20.00265">
        <ele>38.263759</ele>
        <time>2020-10-01T10:05:26.269Z</time>
      </trkpt>
      <trkpt lat="63.67149" lon="20.00259">
        <ele>38.729482</ele>
        <time>2020-10-01T10:05:29.264Z</time>
      </trkpt>
      <trkpt lat="63.6714" lon="20.00252">
        <ele>39.073484</ele>
        <time>2020-10-01T10:05:31.255Z</time>
      </trkpt>
      <trkpt lat="63.67128" lon="20.00239">
        <ele>39.577229</ele>
        <time>2020-10-01T10:05:34.275Z</time>
      </trkpt>
      <trkpt lat="63.67119" lon="20.00229">
        <ele>39.926611</ele>
        <time>2020-10-01T10:05:36.289Z</time>
      </trkpt>
      <trkpt lat="63.67111" lon="20.00221">
        <ele>40.281942</ele>
        <time>2020-10-01T10:05:38.258Z</time>
      </trkpt>
      <trkpt lat="63.67102" lon="20.00212">
        <ele>40.626568</ele>
        <time>2020-10-01T10:05:40.287Z</time>
      </trkpt>
      <trkpt lat="63.67094" lon="20.00202">
        <ele>40.968067</ele>
        <time>2020-10-01T10:05:42.280Z</time>
      </trkpt>
      <trkpt lat="63.67086" lon="20.00192">
        <ele>41.311267</ele>
        <time>2020-10-01T10:05:44.278Z</time>
      </trkpt>
      <trkpt lat="63.67078" lon="20.00183">
        <ele>41.651143</ele>
        <time>2020-10-01T10:05:46.284Z</time>
      </trkpt>
      <trkpt lat="63.67069" lon="20.00173">
        <ele>42.003439</ele>
        <time>2020-10-01T10:05:48.262Z</time>
      </trkpt>
      <trkpt lat="63.6706" lon="20.00163">
        <ele>42.376678</ele>
        <time>2020-10-01T10:05:50.289Z</time>
      </trkpt>
      <trkpt lat="63.67051" lon="20.00153">
        <ele>42.669259</ele>
        <time>2020-10-01T10:05:52.289Z</time>
      </trkpt>
      <trkpt lat="63.67042" lon="20.00142">
        <ele>42.837048</ele>
        <time>2020-10-01T10:05:54.282Z</time>
      </trkpt>
      <trkpt lat="63.67032" lon="20.00132">
        <ele>43.007738</ele>
        <time>2020-10-01T10:05:56.292Z</time>
      </trkpt>
      <trkpt lat="63.67023" lon="20.00121">
        <ele>43.176493</ele>
        <time>2020-10-01T10:05:58.277Z</time>
      </trkpt>
      <trkpt lat="63.67013" lon="20.00111">
        <ele>43.347014</ele>
        <time>2020-10-01T10:06:00.265Z</time>
      </trkpt>
      <trkpt lat="63.67005" lon="20.001">
        <ele>43.50231</ele>
        <time>2020-10-01T10:06:02.293Z</time>
      </trkpt>
      <trkpt lat="63.66996" lon="20.0009">
        <ele>43.66147</ele>
        <time>2020-10-01T10:06:04.275Z</time>
      </trkpt>
      <trkpt lat="63.66987" lon="20.00079">
        <ele>43.825173</ele>
        <time>2020-10-01T10:06:06.274Z</time>
      </trkpt>
      <trkpt lat="63.66978" lon="20.00069">
        <ele>43.990793</ele>
        <time>2020-10-01T10:06:08.283Z</time>
      </trkpt>
      <trkpt lat="63.66969" lon="20.00061">
        <ele>44.142928</ele>
        <time>2020-10-01T10:06:10.281Z</time>
      </trkpt>
      <trkpt lat="63.6696" lon="20.00054">
        <ele>44.294732</ele>
        <time>2020-10-01T10:06:12.275Z</time>
      </trkpt>
      <trkpt lat="63.66951" lon="20.00044">
        <ele>44.466828</ele>
        <time>2020-10-01T10:06:14.286Z</time>
      </trkpt>
      <trkpt lat="63.66941" lon="20.00034">
        <ele>44.646035</ele>
        <time>2020-10-01T10:06:16.325Z</time>
      </trkpt>
      <trkpt lat="63.66931" lon="20.00025">
        <ele>44.815572</ele>
        <time>2020-10-01T10:06:18.262Z</time>
      </trkpt>
      <trkpt lat="63.66921" lon="20.00016">
        <ele>44.983342</ele>
        <time>2020-10-01T10:06:20.272Z</time>
      </trkpt>
      <trkpt lat="63.66912" lon="20.00007">
        <ele>45.145435</ele>
        <time>2020-10-01T10:06:22.273Z</time>
      </trkpt>
      <trkpt lat="63.66903" lon="19.99998">
        <ele>45.303985</ele>
        <time>2020-10-01T10:06:24.290Z</time>
      </trkpt>
      <trkpt lat="63.66894" lon="19.9999">
        <ele>45.455579</ele>
        <time>2020-10-01T10:06:26.289Z</time>
      </trkpt>
      <trkpt lat="63.66886" lon="19.99983">
        <ele>45.32766</ele>
        <time>2020-10-01T10:06:28.269Z</time>
      </trkpt>
      <trkpt lat="63.66877" lon="19.99975">
        <ele>45.060943</ele>
        <time>2020-10-01T10:06:30.276Z</time>
      </trkpt>
      <trkpt lat="63.66865" lon="19.99963">
        <ele>44.674107</ele>
        <time>2020-10-01T10:06:33.273Z</time>
      </trkpt>
      <trkpt lat="63.66857" lon="19.99955">
        <ele>44.400457</ele>
        <time>2020-10-01T10:06:35.279Z</time>
      </trkpt>
      <trkpt lat="63.66848" lon="19.99946">
        <ele>44.126956</ele>
        <time>2020-10-01T10:06:37.268Z</time>
      </trkpt>
      <trkpt lat="63.6684" lon="19.99937">
        <ele>43.853249</ele>
        <time>2020-10-01T10:06:39.274Z</time>
      </trkpt>
      <trkpt lat="63.66832" lon="19.99927">
        <ele>43.577917</ele>
        <time>2020-10-01T10:06:41.297Z</time>
      </trkpt>
      <trkpt lat="63.66824" lon="19.99918">
        <ele>43.308193</ele>
        <time>2020-10-01T10:06:43.303Z</time>
      </trkpt>
      <trkpt lat="63.66815" lon="19.99909">
        <ele>43.034133</ele>
        <time>2020-10-01T10:06:45.278Z</time>
      </trkpt>
      <trkpt lat="63.66807" lon="19.999">
        <ele>42.760651</ele>
        <time>2020-10-01T10:06:47.294Z</time>
      </trkpt>
      <trkpt lat="63.66798" lon="19.99891">
        <ele>42.486354</ele>
        <time>2020-10-01T10:06:49.295Z</time>
      </trkpt>
      <trkpt lat="63.6679" lon="19.99881">
        <ele>42.205204</ele>
        <time>2020-10-01T10:06:51.269Z</time>
      </trkpt>
      <trkpt lat="63.66782" lon="19.99871">
        <ele>41.929857</ele>
        <time>2020-10-01T10:06:53.273Z</time>
      </trkpt>
      <trkpt lat="63.66774" lon="19.99861">
        <ele>41.662183</ele>
        <time>2020-10-01T10:06:55.268Z</time>
      </trkpt>
      <trkpt lat="63.66765" lon="19.99853">
        <ele>41.3887</ele>
        <time>2020-10-01T10:06:57.268Z</time>
      </trkpt>
      <trkpt lat="63.66757" lon="19.99845">
        <ele>41.119245</ele>
        <time>2020-10-01T10:06:59.269Z</time>
      </trkpt>
      <trkpt lat="63.66748" lon="19.99838">
        <ele>40.842331</ele>
        <time>2020-10-01T10:07:01.278Z</time>
      </trkpt>
      <trkpt lat="63.66738" lon="19.99834">
        <ele>40.550767</ele>
        <time>2020-10-01T10:07:03.265Z</time>
      </trkpt>
      <trkpt lat="63.66728" lon="19.9983">
        <ele>40.25752</ele>
        <time>2020-10-01T10:07:05.307Z</time>
      </trkpt>
      <trkpt lat="63.66719" lon="19.99828">
        <ele>40.064973</ele>
        <time>2020-10-01T10:07:07.276Z</time>
      </trkpt>
      <trkpt lat="63.66708" lon="19.99829">
        <ele>39.886519</ele>
        <time>2020-10-01T10:07:09.267Z</time>
      </trkpt>
      <trkpt lat="63.66698" lon="19.99833">
        <ele>39.708364</ele>
        <time>2020-10-01T10:07:11.282Z</time>
      </trkpt>
      <trkpt lat="63.66688" lon="19.99837">
        <ele>39.525744</ele>
        <time>2020-10-01T10:07:13.300Z</time>
      </trkpt>
      <trkpt lat="63.66677" lon="19.99842">
        <ele>39.341011</ele>
        <time>2020-10-01T10:07:15.284Z</time>
      </trkpt>
      <trkpt lat="63.66667" lon="19.99846">
        <ele>39.16125</ele>
        <time>2020-10-01T10:07:17.280Z</time>
      </trkpt>
      <trkpt lat="63.66657" lon="19.99851">
        <ele>38.986437</ele>
        <time>2020-10-01T10:07:19.272Z</time>
      </trkpt>
      <trkpt lat="63.66648" lon="19.99854">
        <ele>38.821646</ele>
        <time>2020-10-01T10:07:21.262Z</time>
      </trkpt>
      <trkpt lat="63.66638" lon="19.99857">
        <ele>38.652468</ele>
        <time>2020-10-01T10:07:23.275Z</time>
      </trkpt>
      <trkpt lat="63.66628" lon="19.99862">
        <ele>38.473639</ele>
        <time>2020-10-01T10:07:25.265Z</time>
      </trkpt>
      <trkpt lat="63.66618" lon="19.99863">
        <ele>38.298433</ele>
        <time>2020-10-01T10:07:27.284Z</time>
      </trkpt>
      <trkpt lat="63.66608" lon="19.99862">
        <ele>38.130187</ele>
        <time>2020-10-01T10:07:29.270Z</time>
      </trkpt>
      <trkpt lat="63.66599" lon="19.99858">
        <ele>37.966852</ele>
        <time>2020-10-01T10:07:31.280Z</time>
      </trkpt>
      <trkpt lat="63.66586" lon="19.99852">
        <ele>37.746829</ele>
        <time>2020-10-01T10:07:34.283Z</time>
      </trkpt>
      <trkpt lat="63.66576" lon="19.99843">
        <ele>37.54805</ele>
        <time>2020-10-01T10:07:37.284Z</time>
      </trkpt>
      <trkpt lat="63.66566" lon="19.99831">
        <ele>37.356315</ele>
        <time>2020-10-01T10:07:40.284Z</time>
      </trkpt>
      <trkpt lat="63.66556" lon="19.9982">
        <ele>37.16956</ele>
        <time>2020-10-01T10:07:43.279Z</time>
      </trkpt>
      <trkpt lat="63.66546" lon="19.99811">
        <ele>37.365245</ele>
        <time>2020-10-01T10:07:46.273Z</time>
      </trkpt>
      <trkpt lat="63.66535" lon="19.99802">
        <ele>37.867079</ele>
        <time>2020-10-01T10:07:49.263Z</time>
      </trkpt>
      <trkpt lat="63.66524" lon="19.99795">
        <ele>38.363314</ele>
        <time>2020-10-01T10:07:52.303Z</time>
      </trkpt>
      <trkpt lat="63.66512" lon="19.99787">
        <ele>38.878917</ele>
        <time>2020-10-01T10:07:55.286Z</time>
      </trkpt>
      <trkpt lat="63.66501" lon="19.99778">
        <ele>39.385682</ele>
        <time>2020-10-01T10:07:58.276Z</time>
      </trkpt>
      <trkpt lat="63.66489" lon="19.99767">
        <ele>39.904468</ele>
        <time>2020-10-01T10:08:01.276Z</time>
      </trkpt>
      <trkpt lat="63.66477" lon="19.99756">
        <ele>40.44488</ele>
        <time>2020-10-01T10:08:04.269Z</time>
      </trkpt>
      <trkpt lat="63.66469" lon="19.9975">
        <ele>40.823036</ele>
        <time>2020-10-01T10:08:06.286Z</time>
      </trkpt>
      <trkpt lat="63.66456" lon="19.99742">
        <ele>41.379281</ele>
        <time>2020-10-01T10:08:09.261Z</time>
      </trkpt>
      <trkpt lat="63.66445" lon="19.99731">
        <ele>41.906575</ele>
        <time>2020-10-01T10:08:12.294Z</time>
      </trkpt>
      <trkpt lat="63.66433" lon="19.9972">
        <ele>42.425842</ele>
        <time>2020-10-01T10:08:15.279Z</time>
      </trkpt>
      <trkpt lat="63.66422" lon="19.9971">
        <ele>42.946452</ele>
        <time>2020-10-01T10:08:18.273Z</time>
      </trkpt>
      <trkpt lat="63.6641" lon="19.99698">
        <ele>43.493371</ele>
        <time>2020-10-01T10:08:21.281Z</time>
      </trkpt>
      <trkpt lat="63.66401" lon="19.9969">
        <ele>43.873983</ele>
        <time>2020-10-01T10:08:23.268Z</time>
      </trkpt>
      <trkpt lat="63.66393" lon="19.99684">
        <ele>44.253321</ele>
        <time>2020-10-01T10:08:25.313Z</time>
      </trkpt>
      <trkpt lat="63.66385" lon="19.99676">
        <ele>44.635081</ele>
        <time>2020-10-01T10:08:27.268Z</time>
      </trkpt>
      <trkpt lat="63.66376" lon="19.99668">
        <ele>44.593816</ele>
        <time>2020-10-01T10:08:29.284Z</time>
      </trkpt>
      <trkpt lat="63.66367" lon="19.99661">
        <ele>44.506664</ele>
        <time>2020-10-01T10:08:31.321Z</time>
      </trkpt>
      <trkpt lat="63.66358" lon="19.99654">
        <ele>44.421464</ele>
        <time>2020-10-01T10:08:33.303Z</time>
      </trkpt>
      <trkpt lat="63.66348" lon="19.99648">
        <ele>44.332601</ele>
        <time>2020-10-01T10:08:35.281Z</time>
      </trkpt>
      <trkpt lat="63.66339" lon="19.99638">
        <ele>44.240436</ele>
        <time>2020-10-01T10:08:37.290Z</time>
      </trkpt>
      <trkpt lat="63.6633" lon="19.99629">
        <ele>44.156909</ele>
        <time>2020-10-01T10:08:39.283Z</time>
      </trkpt>
      <trkpt lat="63.66322" lon="19.99619">
        <ele>44.069115</ele>
        <time>2020-10-01T10:08:41.289Z</time>
      </trkpt>
      <trkpt lat="63.66313" lon="19.99609">
        <ele>43.981268</ele>
        <time>2020-10-01T10:08:43.310Z</time>
      </trkpt>
      <trkpt lat="63.66304" lon="19.99598">
        <ele>43.892444</ele>
        <time>2020-10-01T10:08:45.260Z</time>
      </trkpt>
      <trkpt lat="63.66296" lon="19.99588">
        <ele>43.805629</ele>
        <time>2020-10-01T10:08:47.257Z</time>
      </trkpt>
      <trkpt lat="63.66288" lon="19.99579">
        <ele>43.724956</ele>
        <time>2020-10-01T10:08:49.335Z</time>
      </trkpt>
      <trkpt lat="63.66276" lon="19.99567">
        <ele>43.609252</ele>
        <time>2020-10-01T10:08:52.341Z</time>
      </trkpt>
      <trkpt lat="63.66263" lon="19.99559">
        <ele>43.489754</ele>
        <time>2020-10-01T10:08:55.261Z</time>
      </trkpt>
      <trkpt lat="63.66254" lon="19.99556">
        <ele>43.408715</ele>
        <time>2020-10-01T10:08:57.263Z</time>
      </trkpt>
      <trkpt lat="63.66245" lon="19.99553">
        <ele>43.325711</ele>
        <time>2020-10-01T10:08:59.257Z</time>
      </trkpt>
      <trkpt lat="63.66235" lon="19.99552">
        <ele>43.241254</ele>
        <time>2020-10-01T10:09:01.275Z</time>
      </trkpt>
      <trkpt lat="63.66226" lon="19.9955">
        <ele>43.155009</ele>
        <time>2020-10-01T10:09:03.266Z</time>
      </trkpt>
      <trkpt lat="63.66216" lon="19.9955">
        <ele>43.064481</ele>
        <time>2020-10-01T10:09:05.259Z</time>
      </trkpt>
      <trkpt lat="63.66206" lon="19.99551">
        <ele>42.861757</ele>
        <time>2020-10-01T10:09:07.275Z</time>
      </trkpt>
      <trkpt lat="63.66197" lon="19.99552">
        <ele>42.667757</ele>
        <time>2020-10-01T10:09:09.287Z</time>
      </trkpt>
      <trkpt lat="63.66184" lon="19.99553">
        <ele>42.398269</ele>
        <time>2020-10-01T10:09:12.270Z</time>
      </trkpt>
      <trkpt lat="63.66171" lon="19.99552">
        <ele>42.133014</ele>
        <time>2020-10-01T10:09:15.270Z</time>
      </trkpt>
      <trkpt lat="63.66158" lon="19.99552">
        <ele>41.86572</ele>
        <time>2020-10-01T10:09:18.273Z</time>
      </trkpt>
      <trkpt lat="63.66149" lon="19.99553">
        <ele>41.667459</ele>
        <time>2020-10-01T10:09:20.267Z</time>
      </trkpt>
      <trkpt lat="63.6614" lon="19.99553">
        <ele>41.475907</ele>
        <time>2020-10-01T10:09:22.302Z</time>
      </trkpt>
      <trkpt lat="63.66127" lon="19.99554">
        <ele>41.198091</ele>
        <time>2020-10-01T10:09:25.336Z</time>
      </trkpt>
      <trkpt lat="63.66116" lon="19.99554">
        <ele>40.981289</ele>
        <time>2020-10-01T10:09:27.277Z</time>
      </trkpt>
      <trkpt lat="63.66106" lon="19.99554">
        <ele>40.760239</ele>
        <time>2020-10-01T10:09:29.267Z</time>
      </trkpt>
      <trkpt lat="63.66096" lon="19.99554">
        <ele>40.551887</ele>
        <time>2020-10-01T10:09:31.270Z</time>
      </trkpt>
      <trkpt lat="63.66086" lon="19.99554">
        <ele>40.345631</ele>
        <time>2020-10-01T10:09:33.278Z</time>
      </trkpt>
      <trkpt lat="63.66077" lon="19.99554">
        <ele>40.154059</ele>
        <time>2020-10-01T10:09:35.273Z</time>
      </trkpt>
      <trkpt lat="63.66068" lon="19.99555">
        <ele>39.960329</ele>
        <time>2020-10-01T10:09:37.279Z</time>
      </trkpt>
      <trkpt lat="63.66055" lon="19.99554">
        <ele>39.695021</ele>
        <time>2020-10-01T10:09:40.282Z</time>
      </trkpt>
      <trkpt lat="63.66043" lon="19.99552">
        <ele>39.433452</ele>
        <time>2020-10-01T10:09:43.293Z</time>
      </trkpt>
      <trkpt lat="63.66031" lon="19.99552">
        <ele>39.223638</ele>
        <time>2020-10-01T10:09:46.313Z</time>
      </trkpt>
      <trkpt lat="63.66019" lon="19.9955">
        <ele>39.099882</ele>
        <time>2020-10-01T10:09:49.267Z</time>
      </trkpt>
      <trkpt lat="63.66006" lon="19.99547">
        <ele>38.972951</ele>
        <time>2020-10-01T10:09:52.281Z</time>
      </trkpt>
      <trkpt lat="63.65993" lon="19.99547">
        <ele>38.834014</ele>
        <time>2020-10-01T10:09:55.289Z</time>
      </trkpt>
      <trkpt lat="63.65984" lon="19.99545">
        <ele>38.740375</ele>
        <time>2020-10-01T10:09:57.301Z</time>
      </trkpt>
      <trkpt lat="63.65971" lon="19.99544">
        <ele>38.602352</ele>
        <time>2020-10-01T10:10:00.300Z</time>
      </trkpt>
      <trkpt lat="63.65961" lon="19.99544">
        <ele>38.504892</ele>
        <time>2020-10-01T10:10:02.297Z</time>
      </trkpt>
      <trkpt lat="63.65952" lon="19.99546">
        <ele>38.404846</ele>
        <time>2020-10-01T10:10:04.319Z</time>
      </trkpt>
      <trkpt lat="63.65942" lon="19.99547">
        <ele>38.299985</ele>
        <time>2020-10-01T10:10:06.289Z</time>
      </trkpt>
      <trkpt lat="63.65932" lon="19.99548">
        <ele>38.197338</ele>
        <time>2020-10-01T10:10:08.282Z</time>
      </trkpt>
      <trkpt lat="63.65922" lon="19.9955">
        <ele>38.096306</ele>
        <time>2020-10-01T10:10:10.275Z</time>
      </trkpt>
      <trkpt lat="63.65913" lon="19.99551">
        <ele>38.000671</ele>
        <time>2020-10-01T10:10:12.317Z</time>
      </trkpt>
      <trkpt lat="63.65904" lon="19.99554">
        <ele>37.904595</ele>
        <time>2020-10-01T10:10:14.288Z</time>
      </trkpt>
      <trkpt lat="63.65894" lon="19.99553">
        <ele>37.80609</ele>
        <time>2020-10-01T10:10:16.268Z</time>
      </trkpt>
      <trkpt lat="63.65884" lon="19.99553">
        <ele>37.705517</ele>
        <time>2020-10-01T10:10:18.268Z</time>
      </trkpt>
      <trkpt lat="63.65872" lon="19.99553">
        <ele>37.571763</ele>
        <time>2020-10-01T10:10:21.306Z</time>
      </trkpt>
      <trkpt lat="63.65862" lon="19.99554">
        <ele>37.47741</ele>
        <time>2020-10-01T10:10:23.301Z</time>
      </trkpt>
      <trkpt lat="63.65853" lon="19.99554">
        <ele>37.450173</ele>
        <time>2020-10-01T10:10:25.265Z</time>
      </trkpt>
      <trkpt lat="63.65841" lon="19.99555">
        <ele>37.667269</ele>
        <time>2020-10-01T10:10:28.288Z</time>
      </trkpt>
      <trkpt lat="63.65827" lon="19.99553">
        <ele>37.889787</ele>
        <time>2020-10-01T10:10:31.321Z</time>
      </trkpt>
      <trkpt lat="63.65818" lon="19.99552">
        <ele>38.044328</ele>
        <time>2020-10-01T10:10:33.304Z</time>
      </trkpt>
      <trkpt lat="63.65809" lon="19.99551">
        <ele>38.202341</ele>
        <time>2020-10-01T10:10:35.288Z</time>
      </trkpt>
      <trkpt lat="63.65796" lon="19.99548">
        <ele>38.422262</ele>
        <time>2020-10-01T10:10:38.266Z</time>
      </trkpt>
      <trkpt lat="63.65785" lon="19.99543">
        <ele>38.621998</ele>
        <time>2020-10-01T10:10:41.266Z</time>
      </trkpt>
      <trkpt lat="63.65773" lon="19.99536">
        <ele>38.819504</ele>
        <time>2020-10-01T10:10:44.301Z</time>
      </trkpt>
      <trkpt lat="63.65762" lon="19.99524">
        <ele>39.02822</ele>
        <time>2020-10-01T10:10:47.277Z</time>
      </trkpt>
      <trkpt lat="63.6575" lon="19.99511">
        <ele>39.25281</ele>
        <time>2020-10-01T10:10:50.281Z</time>
      </trkpt>
      <trkpt lat="63.65742" lon="19.995">
        <ele>39.419765</ele>
        <time>2020-10-01T10:10:52.265Z</time>
      </trkpt>
      <trkpt lat="63.65733" lon="19.99488">
        <ele>39.588922</ele>
        <time>2020-10-01T10:10:54.276Z</time>
      </trkpt>
      <trkpt lat="63.65726" lon="19.99473">
        <ele>39.756988</ele>
        <time>2020-10-01T10:10:56.300Z</time>
      </trkpt>
      <trkpt lat="63.65719" lon="19.99458">
        <ele>39.920275</ele>
        <time>2020-10-01T10:10:58.280Z</time>
      </trkpt>
      <trkpt lat="63.65712" lon="19.99444">
        <ele>40.073189</ele>
        <time>2020-10-01T10:11:00.272Z</time>
      </trkpt>
      <trkpt lat="63.65703" lon="19.99422">
        <ele>40.30058</ele>
        <time>2020-10-01T10:11:03.278Z</time>
      </trkpt>
      <trkpt lat="63.65694" lon="19.994">
        <ele>40.425716</ele>
        <time>2020-10-01T10:11:06.258Z</time>
      </trkpt>
      <trkpt lat="63.65688" lon="19.99384">
        <ele>40.347996</ele>
        <time>2020-10-01T10:11:08.308Z</time>
      </trkpt>
      <trkpt lat="63.6568" lon="19.9937">
        <ele>40.269399</ele>
        <time>2020-10-01T10:11:10.269Z</time>
      </trkpt>
      <trkpt lat="63.65673" lon="19.99356">
        <ele>40.190986</ele>
        <time>2020-10-01T10:11:12.270Z</time>
      </trkpt>
      <trkpt lat="63.65665" lon="19.99343">
        <ele>40.115382</ele>
        <time>2020-10-01T10:11:14.272Z</time>
      </trkpt>
      <trkpt lat="63.65658" lon="19.99331">
        <ele>40.039579</ele>
        <time>2020-10-01T10:11:16.269Z</time>
      </trkpt>
      <trkpt lat="63.6565" lon="19.99318">
        <ele>39.96222</ele>
        <time>2020-10-01T10:11:18.263Z</time>
      </trkpt>
      <trkpt lat="63.65642" lon="19.99308">
        <ele>39.887882</ele>
        <time>2020-10-01T10:11:20.304Z</time>
      </trkpt>
      <trkpt lat="63.65631" lon="19.99293">
        <ele>39.778996</ele>
        <time>2020-10-01T10:11:23.260Z</time>
      </trkpt>
      <trkpt lat="63.65623" lon="19.99283">
        <ele>39.705005</ele>
        <time>2020-10-01T10:11:25.295Z</time>
      </trkpt>
      <trkpt lat="63.65615" lon="19.99274">
        <ele>39.631047</ele>
        <time>2020-10-01T10:11:27.277Z</time>
      </trkpt>
      <trkpt lat="63.65607" lon="19.99264">
        <ele>39.556709</ele>
        <time>2020-10-01T10:11:29.268Z</time>
      </trkpt>
      <trkpt lat="63.65599" lon="19.99254">
        <ele>39.48184</ele>
        <time>2020-10-01T10:11:31.276Z</time>
      </trkpt>
      <trkpt lat="63.65587" lon="19.99238">
        <ele>39.373588</ele>
        <time>2020-10-01T10:11:34.317Z</time>
      </trkpt>
      <trkpt lat="63.65579" lon="19.99228">
        <ele>39.299604</ele>
        <time>2020-10-01T10:11:36.270Z</time>
      </trkpt>
      <trkpt lat="63.65572" lon="19.99216">
        <ele>39.226354</ele>
        <time>2020-10-01T10:11:38.284Z</time>
      </trkpt>
      <trkpt lat="63.65564" lon="19.99204">
        <ele>39.149659</ele>
        <time>2020-10-01T10:11:40.267Z</time>
      </trkpt>
      <trkpt lat="63.65557" lon="19.99191">
        <ele>39.071261</ele>
        <time>2020-10-01T10:11:42.273Z</time>
      </trkpt>
      <trkpt lat="63.65549" lon="19.99177">
        <ele>38.997497</ele>
        <time>2020-10-01T10:11:44.286Z</time>
      </trkpt>
      <trkpt lat="63.65542" lon="19.99164">
        <ele>39.004098</ele>
        <time>2020-10-01T10:11:46.281Z</time>
      </trkpt>
      <trkpt lat="63.65535" lon="19.99152">
        <ele>39.010679</ele>
        <time>2020-10-01T10:11:48.263Z</time>
      </trkpt>
      <trkpt lat="63.65528" lon="19.99137">
        <ele>39.017629</ele>
        <time>2020-10-01T10:11:50.280Z</time>
      </trkpt>
      <trkpt lat="63.65521" lon="19.99124">
        <ele>39.024246</ele>
        <time>2020-10-01T10:11:52.299Z</time>
      </trkpt>
      <trkpt lat="63.65514" lon="19.99109">
        <ele>39.030833</ele>
        <time>2020-10-01T10:11:54.295Z</time>
      </trkpt>
      <trkpt lat="63.65507" lon="19.99096">
        <ele>39.037478</ele>
        <time>2020-10-01T10:11:56.284Z</time>
      </trkpt>
      <trkpt lat="63.65498" lon="19.99077">
        <ele>39.046756</ele>
        <time>2020-10-01T10:11:59.290Z</time>
      </trkpt>
      <trkpt lat="63.65488" lon="19.9906">
        <ele>39.055711</ele>
        <time>2020-10-01T10:12:02.324Z</time>
      </trkpt>
      <trkpt lat="63.65478" lon="19.99043">
        <ele>39.064936</ele>
        <time>2020-10-01T10:12:05.245Z</time>
      </trkpt>
      <trkpt lat="63.65468" lon="19.99024">
        <ele>39.07427</ele>
        <time>2020-10-01T10:12:08.268Z</time>
      </trkpt>
      <trkpt lat="63.65457" lon="19.99005">
        <ele>39.084046</ele>
        <time>2020-10-01T10:12:11.267Z</time>
      </trkpt>
      <trkpt lat="63.6545" lon="19.98992">
        <ele>39.090671</ele>
        <time>2020-10-01T10:12:13.264Z</time>
      </trkpt>
      <trkpt lat="63.65443" lon="19.9898">
        <ele>39.097174</ele>
        <time>2020-10-01T10:12:15.279Z</time>
      </trkpt>
      <trkpt lat="63.65435" lon="19.98969">
        <ele>39.103675</ele>
        <time>2020-10-01T10:12:17.268Z</time>
      </trkpt>
      <trkpt lat="63.65424" lon="19.98955">
        <ele>39.113077</ele>
        <time>2020-10-01T10:12:20.269Z</time>
      </trkpt>
      <trkpt lat="63.65416" lon="19.98944">
        <ele>39.119689</ele>
        <time>2020-10-01T10:12:22.291Z</time>
      </trkpt>
      <trkpt lat="63.65405" lon="19.98929">
        <ele>39.148566</ele>
        <time>2020-10-01T10:12:25.285Z</time>
      </trkpt>
      <trkpt lat="63.65393" lon="19.98915">
        <ele>39.257074</ele>
        <time>2020-10-01T10:12:28.274Z</time>
      </trkpt>
      <trkpt lat="63.65384" lon="19.98908">
        <ele>39.332828</ele>
        <time>2020-10-01T10:12:30.274Z</time>
      </trkpt>
      <trkpt lat="63.65375" lon="19.98902">
        <ele>39.409209</ele>
        <time>2020-10-01T10:12:32.283Z</time>
      </trkpt>
      <trkpt lat="63.65365" lon="19.989">
        <ele>39.484326</ele>
        <time>2020-10-01T10:12:34.293Z</time>
      </trkpt>
      <trkpt lat="63.65356" lon="19.98898">
        <ele>39.560029</ele>
        <time>2020-10-01T10:12:36.329Z</time>
      </trkpt>
      <trkpt lat="63.65346" lon="19.98897">
        <ele>39.638684</ele>
        <time>2020-10-01T10:12:38.268Z</time>
      </trkpt>
      <trkpt lat="63.65337" lon="19.98897">
        <ele>39.715728</ele>
        <time>2020-10-01T10:12:40.286Z</time>
      </trkpt>
      <trkpt lat="63.65323" lon="19.98896">
        <ele>39.82333</ele>
        <time>2020-10-01T10:12:43.273Z</time>
      </trkpt>
      <trkpt lat="63.65314" lon="19.98897">
        <ele>39.900387</ele>
        <time>2020-10-01T10:12:45.279Z</time>
      </trkpt>
      <trkpt lat="63.65304" lon="19.98897">
        <ele>39.97749</ele>
        <time>2020-10-01T10:12:47.264Z</time>
      </trkpt>
      <trkpt lat="63.65295" lon="19.98898">
        <ele>40.050518</ele>
        <time>2020-10-01T10:12:49.281Z</time>
      </trkpt>
      <trkpt lat="63.65286" lon="19.98897">
        <ele>40.125155</ele>
        <time>2020-10-01T10:12:51.305Z</time>
      </trkpt>
      <trkpt lat="63.65276" lon="19.98898">
        <ele>40.199798</ele>
        <time>2020-10-01T10:12:53.275Z</time>
      </trkpt>
      <trkpt lat="63.65267" lon="19.98899">
        <ele>40.274593</ele>
        <time>2020-10-01T10:12:55.264Z</time>
      </trkpt>
      <trkpt lat="63.65257" lon="19.989">
        <ele>40.352531</ele>
        <time>2020-10-01T10:12:57.283Z</time>
      </trkpt>
      <trkpt lat="63.65248" lon="19.98901">
        <ele>40.428016</ele>
        <time>2020-10-01T10:12:59.267Z</time>
      </trkpt>
      <trkpt lat="63.65238" lon="19.98902">
        <ele>40.506794</ele>
        <time>2020-10-01T10:13:01.289Z</time>
      </trkpt>
      <trkpt lat="63.65228" lon="19.98903">
        <ele>40.647278</ele>
        <time>2020-10-01T10:13:03.281Z</time>
      </trkpt>
      <trkpt lat="63.65218" lon="19.98904">
        <ele>41.02214</ele>
        <time>2020-10-01T10:13:05.291Z</time>
      </trkpt>
      <trkpt lat="63.65207" lon="19.98904">
        <ele>41.39325</ele>
        <time>2020-10-01T10:13:07.283Z</time>
      </trkpt>
      <trkpt lat="63.65197" lon="19.98905">
        <ele>41.771549</ele>
        <time>2020-10-01T10:13:09.257Z</time>
      </trkpt>
      <trkpt lat="63.65186" lon="19.98906">
        <ele>42.153805</ele>
        <time>2020-10-01T10:13:11.278Z</time>
      </trkpt>
      <trkpt lat="63.65176" lon="19.98906">
        <ele>42.499999</ele>
        <time>2020-10-01T10:13:13.277Z</time>
      </trkpt>
      <trkpt lat="63.65166" lon="19.98905">
        <ele>42.857031</ele>
        <time>2020-10-01T10:13:15.258Z</time>
      </trkpt>
      <trkpt lat="63.65157" lon="19.98902">
        <ele>43.191216</ele>
        <time>2020-10-01T10:13:17.268Z</time>
      </trkpt>
      <trkpt lat="63.65144" lon="19.98895">
        <ele>43.666181</ele>
        <time>2020-10-01T10:13:20.266Z</time>
      </trkpt>
      <trkpt lat="63.65134" lon="19.98885">
        <ele>44.061833</ele>
        <time>2020-10-01T10:13:23.304Z</time>
      </trkpt>
      <trkpt lat="63.65125" lon="19.98876">
        <ele>44.388463</ele>
        <time>2020-10-01T10:13:26.261Z</time>
      </trkpt>
      <trkpt lat="63.65117" lon="19.98862">
        <ele>44.775759</ele>
        <time>2020-10-01T10:13:30.295Z</time>
      </trkpt>
      <trkpt lat="63.65109" lon="19.98847">
        <ele>45.127405</ele>
        <time>2020-10-01T10:13:34.282Z</time>
      </trkpt>
      <trkpt lat="63.65103" lon="19.98833">
        <ele>45.453947</ele>
        <time>2020-10-01T10:13:38.283Z</time>
      </trkpt>
      <trkpt lat="63.65096" lon="19.98815">
        <ele>45.819464</ele>
        <time>2020-10-01T10:13:43.296Z</time>
      </trkpt>
      <trkpt lat="63.6509" lon="19.98796">
        <ele>46.20129</ele>
        <time>2020-10-01T10:13:48.274Z</time>
      </trkpt>
      <trkpt lat="63.65084" lon="19.98777">
        <ele>46.563877</ele>
        <time>2020-10-01T10:13:53.274Z</time>
      </trkpt>
      <trkpt lat="63.65077" lon="19.98762">
        <ele>46.92506</ele>
        <time>2020-10-01T10:13:58.273Z</time>
      </trkpt>
      <trkpt lat="63.65069" lon="19.98747">
        <ele>47.162218</ele>
        <time>2020-10-01T10:14:03.278Z</time>
      </trkpt>
      <trkpt lat="63.65062" lon="19.98731">
        <ele>47.387429</ele>
        <time>2020-10-01T10:14:08.287Z</time>
      </trkpt>
      <trkpt lat="63.65054" lon="19.98719">
        <ele>47.587971</ele>
        <time>2020-10-01T10:14:12.321Z</time>
      </trkpt>
      <trkpt lat="63.65045" lon="19.98707">
        <ele>47.83164</ele>
        <time>2020-10-01T10:14:16.270Z</time>
      </trkpt>
      <trkpt lat="63.65035" lon="19.98699">
        <ele>48.061736</ele>
        <time>2020-10-01T10:14:20.270Z</time>
      </trkpt>
      <trkpt lat="63.65024" lon="19.98696">
        <ele>48.306331</ele>
        <time>2020-10-01T10:14:24.259Z</time>
      </trkpt>
      <trkpt lat="63.65012" lon="19.98695">
        <ele>48.559865</ele>
        <time>2020-10-01T10:14:28.302Z</time>
      </trkpt>
      <trkpt lat="63.65001" lon="19.98694">
        <ele>48.796045</ele>
        <time>2020-10-01T10:14:32.264Z</time>
      </trkpt>
      <trkpt lat="63.64989" lon="19.98696">
        <ele>49.063205</ele>
        <time>2020-10-01T10:14:36.280Z</time>
      </trkpt>
      <trkpt lat="63.64979" lon="19.98698">
        <ele>49.288973</ele>
        <time>2020-10-01T10:14:39.290Z</time>
      </trkpt>
      <trkpt lat="63.64968" lon="19.987">
        <ele>49.526255</ele>
        <time>2020-10-01T10:14:42.307Z</time>
      </trkpt>
      <trkpt lat="63.64958" lon="19.987">
        <ele>49.751279</ele>
        <time>2020-10-01T10:14:45.318Z</time>
      </trkpt>
      <trkpt lat="63.64947" lon="19.98699">
        <ele>49.983094</ele>
        <time>2020-10-01T10:14:48.269Z</time>
      </trkpt>
      <trkpt lat="63.64936" lon="19.98695">
        <ele>50.228669</ele>
        <time>2020-10-01T10:14:51.290Z</time>
      </trkpt>
      <trkpt lat="63.64925" lon="19.98688">
        <ele>50.475243</ele>
        <time>2020-10-01T10:14:54.270Z</time>
      </trkpt>
      <trkpt lat="63.64914" lon="19.9868">
        <ele>50.735804</ele>
        <time>2020-10-01T10:14:57.296Z</time>
      </trkpt>
      <trkpt lat="63.64902" lon="19.9867">
        <ele>50.97792</ele>
        <time>2020-10-01T10:15:00.270Z</time>
      </trkpt>
      <trkpt lat="63.64892" lon="19.98658">
        <ele>51.168179</ele>
        <time>2020-10-01T10:15:03.295Z</time>
      </trkpt>
      <trkpt lat="63.64882" lon="19.98643">
        <ele>51.355593</ele>
        <time>2020-10-01T10:15:06.286Z</time>
      </trkpt>
      <trkpt lat="63.64873" lon="19.98628">
        <ele>51.523063</ele>
        <time>2020-10-01T10:15:09.265Z</time>
      </trkpt>
      <trkpt lat="63.64866" lon="19.98613">
        <ele>51.684206</ele>
        <time>2020-10-01T10:15:12.301Z</time>
      </trkpt>
      <trkpt lat="63.64858" lon="19.98598">
        <ele>51.842516</ele>
        <time>2020-10-01T10:15:15.262Z</time>
      </trkpt>
      <trkpt lat="63.64851" lon="19.98583">
        <ele>52.00481</ele>
        <time>2020-10-01T10:15:18.309Z</time>
      </trkpt>
      <trkpt lat="63.64843" lon="19.98566">
        <ele>52.171116</ele>
        <time>2020-10-01T10:15:21.274Z</time>
      </trkpt>
      <trkpt lat="63.64835" lon="19.98552">
        <ele>52.328499</ele>
        <time>2020-10-01T10:15:24.312Z</time>
      </trkpt>
      <trkpt lat="63.64828" lon="19.98537">
        <ele>52.488727</ele>
        <time>2020-10-01T10:15:27.291Z</time>
      </trkpt>
      <trkpt lat="63.6482" lon="19.9852">
        <ele>52.649851</ele>
        <time>2020-10-01T10:15:30.280Z</time>
      </trkpt>
      <trkpt lat="63.64814" lon="19.98504">
        <ele>52.804951</ele>
        <time>2020-10-01T10:15:33.284Z</time>
      </trkpt>
      <trkpt lat="63.64809" lon="19.98487">
        <ele>52.948458</ele>
        <time>2020-10-01T10:15:36.267Z</time>
      </trkpt>
      <trkpt lat="63.64804" lon="19.98468">
        <ele>53.100221</ele>
        <time>2020-10-01T10:15:39.327Z</time>
      </trkpt>
      <trkpt lat="63.64799" lon="19.98449">
        <ele>53.254189</ele>
        <time>2020-10-01T10:15:42.263Z</time>
      </trkpt>
      <trkpt lat="63.64794" lon="19.9843">
        <ele>53.408589</ele>
        <time>2020-10-01T10:15:45.322Z</time>
      </trkpt>
      <trkpt lat="63.6479" lon="19.98411">
        <ele>53.56172</ele>
        <time>2020-10-01T10:15:48.288Z</time>
      </trkpt>
      <trkpt lat="63.64786" lon="19.98391">
        <ele>53.710305</ele>
        <time>2020-10-01T10:15:51.275Z</time>
      </trkpt>
      <trkpt lat="63.6478" lon="19.98368">
        <ele>53.564009</ele>
        <time>2020-10-01T10:15:55.277Z</time>
      </trkpt>
      <trkpt lat="63.64776" lon="19.9835">
        <ele>53.360417</ele>
        <time>2020-10-01T10:15:58.274Z</time>
      </trkpt>
      <trkpt lat="63.64771" lon="19.98329">
        <ele>53.129927</ele>
        <time>2020-10-01T10:16:01.265Z</time>
      </trkpt>
      <trkpt lat="63.64765" lon="19.98305">
        <ele>52.855409</ele>
        <time>2020-10-01T10:16:04.323Z</time>
      </trkpt>
      <trkpt lat="63.64759" lon="19.98288">
        <ele>52.644128</ele>
        <time>2020-10-01T10:16:06.276Z</time>
      </trkpt>
      <trkpt lat="63.64752" lon="19.98271">
        <ele>52.418632</ele>
        <time>2020-10-01T10:16:08.287Z</time>
      </trkpt>
      <trkpt lat="63.64744" lon="19.98253">
        <ele>52.155073</ele>
        <time>2020-10-01T10:16:10.262Z</time>
      </trkpt>
      <trkpt lat="63.64733" lon="19.98236">
        <ele>51.864541</ele>
        <time>2020-10-01T10:16:12.313Z</time>
      </trkpt>
      <trkpt lat="63.64722" lon="19.9822">
        <ele>51.568557</ele>
        <time>2020-10-01T10:16:14.277Z</time>
      </trkpt>
      <trkpt lat="63.6471" lon="19.98207">
        <ele>51.28611</ele>
        <time>2020-10-01T10:16:16.269Z</time>
      </trkpt>
      <trkpt lat="63.647" lon="19.98194">
        <ele>51.02402</ele>
        <time>2020-10-01T10:16:18.272Z</time>
      </trkpt>
      <trkpt lat="63.6469" lon="19.98181">
        <ele>50.773042</ele>
        <time>2020-10-01T10:16:20.285Z</time>
      </trkpt>
      <trkpt lat="63.64681" lon="19.98168">
        <ele>50.522339</ele>
        <time>2020-10-01T10:16:22.305Z</time>
      </trkpt>
      <trkpt lat="63.64672" lon="19.98153">
        <ele>50.288571</ele>
        <time>2020-10-01T10:16:24.271Z</time>
      </trkpt>
      <trkpt lat="63.64665" lon="19.98138">
        <ele>50.064617</ele>
        <time>2020-10-01T10:16:26.277Z</time>
      </trkpt>
      <trkpt lat="63.64657" lon="19.98123">
        <ele>49.84056</ele>
        <time>2020-10-01T10:16:28.282Z</time>
      </trkpt>
      <trkpt lat="63.64649" lon="19.98109">
        <ele>49.448579</ele>
        <time>2020-10-01T10:16:30.258Z</time>
      </trkpt>
      <trkpt lat="63.64641" lon="19.98096">
        <ele>48.977178</ele>
        <time>2020-10-01T10:16:32.275Z</time>
      </trkpt>
      <trkpt lat="63.64633" lon="19.98082">
        <ele>48.530274</ele>
        <time>2020-10-01T10:16:34.266Z</time>
      </trkpt>
      <trkpt lat="63.64625" lon="19.98067">
        <ele>48.048848</ele>
        <time>2020-10-01T10:16:36.266Z</time>
      </trkpt>
      <trkpt lat="63.64616" lon="19.98053">
        <ele>47.549468</ele>
        <time>2020-10-01T10:16:38.277Z</time>
      </trkpt>
      <trkpt lat="63.64608" lon="19.98037">
        <ele>47.067645</ele>
        <time>2020-10-01T10:16:40.290Z</time>
      </trkpt>
      <trkpt lat="63.646" lon="19.98021">
        <ele>46.58668</ele>
        <time>2020-10-01T10:16:42.268Z</time>
      </trkpt>
      <trkpt lat="63.64593" lon="19.98004">
        <ele>46.110953</ele>
        <time>2020-10-01T10:16:44.263Z</time>
      </trkpt>
      <trkpt lat="63.64586" lon="19.97987">
        <ele>45.641469</ele>
        <time>2020-10-01T10:16:46.283Z</time>
      </trkpt>
      <trkpt lat="63.64581" lon="19.9797">
        <ele>45.206086</ele>
        <time>2020-10-01T10:16:48.283Z</time>
      </trkpt>
      <trkpt lat="63.64575" lon="19.97951">
        <ele>44.727583</ele>
        <time>2020-10-01T10:16:50.306Z</time>
      </trkpt>
      <trkpt lat="63.64569" lon="19.97928">
        <ele>44.200806</ele>
        <time>2020-10-01T10:16:52.275Z</time>
      </trkpt>
      <trkpt lat="63.64564" lon="19.97906">
        <ele>43.690006</ele>
        <time>2020-10-01T10:16:54.297Z</time>
      </trkpt>
      <trkpt lat="63.6456" lon="19.97884">
        <ele>43.200069</ele>
        <time>2020-10-01T10:16:56.266Z</time>
      </trkpt>
      <trkpt lat="63.64556" lon="19.97863">
        <ele>42.745527</ele>
        <time>2020-10-01T10:16:58.292Z</time>
      </trkpt>
      <trkpt lat="63.6455" lon="19.97837">
        <ele>42.137999</ele>
        <time>2020-10-01T10:17:01.325Z</time>
      </trkpt>
      <trkpt lat="63.64547" lon="19.97818">
        <ele>41.726298</ele>
        <time>2020-10-01T10:17:03.266Z</time>
      </trkpt>
      <trkpt lat="63.64542" lon="19.978">
        <ele>41.708335</ele>
        <time>2020-10-01T10:17:05.286Z</time>
      </trkpt>
      <trkpt lat="63.64535" lon="19.97776">
        <ele>42.31903</ele>
        <time>2020-10-01T10:17:08.289Z</time>
      </trkpt>
      <trkpt lat="63.64527" lon="19.97752">
        <ele>42.933226</ele>
        <time>2020-10-01T10:17:11.305Z</time>
      </trkpt>
      <trkpt lat="63.64518" lon="19.97731">
        <ele>43.52376</ele>
        <time>2020-10-01T10:17:14.291Z</time>
      </trkpt>
      <trkpt lat="63.64511" lon="19.9771">
        <ele>44.074168</ele>
        <time>2020-10-01T10:17:17.310Z</time>
      </trkpt>
      <trkpt lat="63.64504" lon="19.97691">
        <ele>44.590619</ele>
        <time>2020-10-01T10:17:21.298Z</time>
      </trkpt>
      <trkpt lat="63.64498" lon="19.97676">
        <ele>45.008005</ele>
        <time>2020-10-01T10:17:26.282Z</time>
      </trkpt>
      <trkpt lat="63.64491" lon="19.9766">
        <ele>45.462408</ele>
        <time>2020-10-01T10:17:31.281Z</time>
      </trkpt>
      <trkpt lat="63.64485" lon="19.9764">
        <ele>45.955432</ele>
        <time>2020-10-01T10:17:36.290Z</time>
      </trkpt>
      <trkpt lat="63.6448" lon="19.97621">
        <ele>46.420767</ele>
        <time>2020-10-01T10:17:41.269Z</time>
      </trkpt>
      <trkpt lat="63.64473" lon="19.97602">
        <ele>46.918162</ele>
        <time>2020-10-01T10:17:46.269Z</time>
      </trkpt>
      <trkpt lat="63.64468" lon="19.97583">
        <ele>47.394692</ele>
        <time>2020-10-01T10:17:51.295Z</time>
      </trkpt>
      <trkpt lat="63.64462" lon="19.97563">
        <ele>47.890159</ele>
        <time>2020-10-01T10:17:56.320Z</time>
      </trkpt>
      <trkpt lat="63.64456" lon="19.97544">
        <ele>48.364961</ele>
        <time>2020-10-01T10:18:01.272Z</time>
      </trkpt>
      <trkpt lat="63.64451" lon="19.97525">
        <ele>48.831162</ele>
        <time>2020-10-01T10:18:06.264Z</time>
      </trkpt>
      <trkpt lat="63.64445" lon="19.97508">
        <ele>49.264251</ele>
        <time>2020-10-01T10:18:10.291Z</time>
      </trkpt>
      <trkpt lat="63.64437" lon="19.97489">
        <ele>49.8276</ele>
        <time>2020-10-01T10:18:14.270Z</time>
      </trkpt>
      <trkpt lat="63.64428" lon="19.97476">
        <ele>49.801991</ele>
        <time>2020-10-01T10:18:17.279Z</time>
      </trkpt>
      <trkpt lat="63.64418" lon="19.97463">
        <ele>49.697881</ele>
        <time>2020-10-01T10:18:20.338Z</time>
      </trkpt>
      <trkpt lat="63.6441" lon="19.97453">
        <ele>49.613604</ele>
        <time>2020-10-01T10:18:22.262Z</time>
      </trkpt>
      <trkpt lat="63.64401" lon="19.97443">
        <ele>49.528064</ele>
        <time>2020-10-01T10:18:24.258Z</time>
      </trkpt>
      <trkpt lat="63.64393" lon="19.97431">
        <ele>49.4379</ele>
        <time>2020-10-01T10:18:26.305Z</time>
      </trkpt>
      <trkpt lat="63.64383" lon="19.97418">
        <ele>49.339516</ele>
        <time>2020-10-01T10:18:28.282Z</time>
      </trkpt>
      <trkpt lat="63.64372" lon="19.97405">
        <ele>49.228256</ele>
        <time>2020-10-01T10:18:30.282Z</time>
      </trkpt>
      <trkpt lat="63.6436" lon="19.97391">
        <ele>49.109617</ele>
        <time>2020-10-01T10:18:32.275Z</time>
      </trkpt>
      <trkpt lat="63.64348" lon="19.97376">
        <ele>48.984738</ele>
        <time>2020-10-01T10:18:34.282Z</time>
      </trkpt>
      <trkpt lat="63.64334" lon="19.9736">
        <ele>48.847855</ele>
        <time>2020-10-01T10:18:36.281Z</time>
      </trkpt>
      <trkpt lat="63.6432" lon="19.97342">
        <ele>48.704857</ele>
        <time>2020-10-01T10:18:38.269Z</time>
      </trkpt>
      <trkpt lat="63.64308" lon="19.9732">
        <ele>48.565357</ele>
        <time>2020-10-01T10:18:40.268Z</time>
      </trkpt>
      <trkpt lat="63.64298" lon="19.97297">
        <ele>48.440445</ele>
        <time>2020-10-01T10:18:42.286Z</time>
      </trkpt>
      <trkpt lat="63.6429" lon="19.97278">
        <ele>48.333638</ele>
        <time>2020-10-01T10:18:44.272Z</time>
      </trkpt>
      <trkpt lat="63.64282" lon="19.97257">
        <ele>48.153089</ele>
        <time>2020-10-01T10:18:46.280Z</time>
      </trkpt>
      <trkpt lat="63.64275" lon="19.97233">
        <ele>47.88119</ele>
        <time>2020-10-01T10:18:48.280Z</time>
      </trkpt>
      <trkpt lat="63.64271" lon="19.97207">
        <ele>47.623804</ele>
        <time>2020-10-01T10:18:50.275Z</time>
      </trkpt>
      <trkpt lat="63.64268" lon="19.97182">
        <ele>47.380029</ele>
        <time>2020-10-01T10:18:52.272Z</time>
      </trkpt>
      <trkpt lat="63.64267" lon="19.97157">
        <ele>47.146506</ele>
        <time>2020-10-01T10:18:54.259Z</time>
      </trkpt>
      <trkpt lat="63.64265" lon="19.97131">
        <ele>46.897887</ele>
        <time>2020-10-01T10:18:56.262Z</time>
      </trkpt>
      <trkpt lat="63.64264" lon="19.97107">
        <ele>46.670772</ele>
        <time>2020-10-01T10:18:58.310Z</time>
      </trkpt>
      <trkpt lat="63.64262" lon="19.97084">
        <ele>46.447234</ele>
        <time>2020-10-01T10:19:00.275Z</time>
      </trkpt>
      <trkpt lat="63.64258" lon="19.97061">
        <ele>46.215926</ele>
        <time>2020-10-01T10:19:02.288Z</time>
      </trkpt>
      <trkpt lat="63.64254" lon="19.97037">
        <ele>45.97596</ele>
        <time>2020-10-01T10:19:04.270Z</time>
      </trkpt>
      <trkpt lat="63.64249" lon="19.97015">
        <ele>45.745446</ele>
        <time>2020-10-01T10:19:06.283Z</time>
      </trkpt>
      <trkpt lat="63.64245" lon="19.96994">
        <ele>45.526083</ele>
        <time>2020-10-01T10:19:08.300Z</time>
      </trkpt>
      <trkpt lat="63.6424" lon="19.96974">
        <ele>45.31176</ele>
        <time>2020-10-01T10:19:10.258Z</time>
      </trkpt>
      <trkpt lat="63.64236" lon="19.96954">
        <ele>45.106344</ele>
        <time>2020-10-01T10:19:12.267Z</time>
      </trkpt>
      <trkpt lat="63.64232" lon="19.96935">
        <ele>44.907752</ele>
        <time>2020-10-01T10:19:14.283Z</time>
      </trkpt>
      <trkpt lat="63.64226" lon="19.96908">
        <ele>44.624541</ele>
        <time>2020-10-01T10:19:17.258Z</time>
      </trkpt>
      <trkpt lat="63.64222" lon="19.9689">
        <ele>44.507314</ele>
        <time>2020-10-01T10:19:19.289Z</time>
      </trkpt>
      <trkpt lat="63.64216" lon="19.96867">
        <ele>44.729912</ele>
        <time>2020-10-01T10:19:22.293Z</time>
      </trkpt>
      <trkpt lat="63.64211" lon="19.9685">
        <ele>44.910561</ele>
        <time>2020-10-01T10:19:25.271Z</time>
      </trkpt>
      <trkpt lat="63.64204" lon="19.96829">
        <ele>45.124307</ele>
        <time>2020-10-01T10:19:29.277Z</time>
      </trkpt>
      <trkpt lat="63.64198" lon="19.96809">
        <ele>45.338241</ele>
        <time>2020-10-01T10:19:33.300Z</time>
      </trkpt>
      <trkpt lat="63.64191" lon="19.96787">
        <ele>45.560814</ele>
        <time>2020-10-01T10:19:37.264Z</time>
      </trkpt>
      <trkpt lat="63.64185" lon="19.96769">
        <ele>45.74632</ele>
        <time>2020-10-01T10:19:40.298Z</time>
      </trkpt>
      <trkpt lat="63.6418" lon="19.96751">
        <ele>45.928655</ele>
        <time>2020-10-01T10:19:43.300Z</time>
      </trkpt>
      <trkpt lat="63.64174" lon="19.96732">
        <ele>46.129716</ele>
        <time>2020-10-01T10:19:46.269Z</time>
      </trkpt>
      <trkpt lat="63.64168" lon="19.96712">
        <ele>46.331574</ele>
        <time>2020-10-01T10:19:49.257Z</time>
      </trkpt>
      <trkpt lat="63.64163" lon="19.9669">
        <ele>46.539236</ele>
        <time>2020-10-01T10:19:52.285Z</time>
      </trkpt>
      <trkpt lat="63.64157" lon="19.96668">
        <ele>46.757488</ele>
        <time>2020-10-01T10:19:55.289Z</time>
      </trkpt>
      <trkpt lat="63.64152" lon="19.96645">
        <ele>46.972491</ele>
        <time>2020-10-01T10:19:58.269Z</time>
      </trkpt>
      <trkpt lat="63.64147" lon="19.96618">
        <ele>47.224495</ele>
        <time>2020-10-01T10:20:01.264Z</time>
      </trkpt>
      <trkpt lat="63.64143" lon="19.96596">
        <ele>47.423596</ele>
        <time>2020-10-01T10:20:03.299Z</time>
      </trkpt>
      <trkpt lat="63.64139" lon="19.96571">
        <ele>47.644691</ele>
        <time>2020-10-01T10:20:05.266Z</time>
      </trkpt>
      <trkpt lat="63.64135" lon="19.96544">
        <ele>47.888743</ele>
        <time>2020-10-01T10:20:07.293Z</time>
      </trkpt>
      <trkpt lat="63.6413" lon="19.96517">
        <ele>47.731117</ele>
        <time>2020-10-01T10:20:09.280Z</time>
      </trkpt>
      <trkpt lat="63.64126" lon="19.9649">
        <ele>47.565122</ele>
        <time>2020-10-01T10:20:11.320Z</time>
      </trkpt>
      <trkpt lat="63.64123" lon="19.96463">
        <ele>47.395962</ele>
        <time>2020-10-01T10:20:13.265Z</time>
      </trkpt>
      <trkpt lat="63.6412" lon="19.96437">
        <ele>47.231662</ele>
        <time>2020-10-01T10:20:15.276Z</time>
      </trkpt>
      <trkpt lat="63.64117" lon="19.96411">
        <ele>47.072579</ele>
        <time>2020-10-01T10:20:17.270Z</time>
      </trkpt>
      <trkpt lat="63.64114" lon="19.96385">
        <ele>46.914457</ele>
        <time>2020-10-01T10:20:19.320Z</time>
      </trkpt>
      <trkpt lat="63.64113" lon="19.9636">
        <ele>46.760796</ele>
        <time>2020-10-01T10:20:21.276Z</time>
      </trkpt>
      <trkpt lat="63.64112" lon="19.96335">
        <ele>46.610526</ele>
        <time>2020-10-01T10:20:23.279Z</time>
      </trkpt>
      <trkpt lat="63.64111" lon="19.9631">
        <ele>46.463459</ele>
        <time>2020-10-01T10:20:25.270Z</time>
      </trkpt>
      <trkpt lat="63.64111" lon="19.96286">
        <ele>46.319158</ele>
        <time>2020-10-01T10:20:27.275Z</time>
      </trkpt>
      <trkpt lat="63.64111" lon="19.96263">
        <ele>46.18144</ele>
        <time>2020-10-01T10:20:29.272Z</time>
      </trkpt>
      <trkpt lat="63.64112" lon="19.96242">
        <ele>46.052475</ele>
        <time>2020-10-01T10:20:31.284Z</time>
      </trkpt>
      <trkpt lat="63.64113" lon="19.96213">
        <ele>45.88096</ele>
        <time>2020-10-01T10:20:34.283Z</time>
      </trkpt>
      <trkpt lat="63.64115" lon="19.96189">
        <ele>45.732798</ele>
        <time>2020-10-01T10:20:37.280Z</time>
      </trkpt>
      <trkpt lat="63.64118" lon="19.96166">
        <ele>45.590135</ele>
        <time>2020-10-01T10:20:41.282Z</time>
      </trkpt>
      <trkpt lat="63.6412" lon="19.96144">
        <ele>45.473575</ele>
        <time>2020-10-01T10:20:46.278Z</time>
      </trkpt>
      <trkpt lat="63.64122" lon="19.96122">
        <ele>45.472907</ele>
        <time>2020-10-01T10:20:52.265Z</time>
      </trkpt>
      <trkpt lat="63.64125" lon="19.96098">
        <ele>45.472155</ele>
        <time>2020-10-01T10:20:57.291Z</time>
      </trkpt>
      <trkpt lat="63.64127" lon="19.96078">
        <ele>45.47154</ele>
        <time>2020-10-01T10:21:01.269Z</time>
      </trkpt>
      <trkpt lat="63.64129" lon="19.96056">
        <ele>45.470882</ele>
        <time>2020-10-01T10:21:05.268Z</time>
      </trkpt>
      <trkpt lat="63.64132" lon="19.96033">
        <ele>45.470144</ele>
        <time>2020-10-01T10:21:09.254Z</time>
      </trkpt>
      <trkpt lat="63.64135" lon="19.96011">
        <ele>45.469471</ele>
        <time>2020-10-01T10:21:12.308Z</time>
      </trkpt>
      <trkpt lat="63.64137" lon="19.95989">
        <ele>45.46879</ele>
        <time>2020-10-01T10:21:15.271Z</time>
      </trkpt>
      <trkpt lat="63.64138" lon="19.95967">
        <ele>45.468126</ele>
        <time>2020-10-01T10:21:18.267Z</time>
      </trkpt>
      <trkpt lat="63.64138" lon="19.95945">
        <ele>45.467469</ele>
        <time>2020-10-01T10:21:21.268Z</time>
      </trkpt>
      <trkpt lat="63.64138" lon="19.95921">
        <ele>45.466769</ele>
        <time>2020-10-01T10:21:24.308Z</time>
      </trkpt>
      <trkpt lat="63.64137" lon="19.95899">
        <ele>45.466107</ele>
        <time>2020-10-01T10:21:27.281Z</time>
      </trkpt>
      <trkpt lat="63.64134" lon="19.95878">
        <ele>45.465445</ele>
        <time>2020-10-01T10:21:30.284Z</time>
      </trkpt>
      <trkpt lat="63.64131" lon="19.95856">
        <ele>45.464767</ele>
        <time>2020-10-01T10:21:33.277Z</time>
      </trkpt>
      <trkpt lat="63.64128" lon="19.95836">
        <ele>45.464109</ele>
        <time>2020-10-01T10:21:36.287Z</time>
      </trkpt>
      <trkpt lat="63.64123" lon="19.95816">
        <ele>45.46344</ele>
        <time>2020-10-01T10:21:39.277Z</time>
      </trkpt>
      <trkpt lat="63.64118" lon="19.95796">
        <ele>45.462768</ele>
        <time>2020-10-01T10:21:42.270Z</time>
      </trkpt>
      <trkpt lat="63.64114" lon="19.95776">
        <ele>45.462091</ele>
        <time>2020-10-01T10:21:45.317Z</time>
      </trkpt>
      <trkpt lat="63.64107" lon="19.95755">
        <ele>45.450702</ele>
        <time>2020-10-01T10:21:48.278Z</time>
      </trkpt>
      <trkpt lat="63.641" lon="19.95735">
        <ele>45.410227</ele>
        <time>2020-10-01T10:21:51.261Z</time>
      </trkpt>
      <trkpt lat="63.64091" lon="19.95717">
        <ele>45.368794</ele>
        <time>2020-10-01T10:21:54.289Z</time>
      </trkpt>
      <trkpt lat="63.64083" lon="19.95698">
        <ele>45.327862</ele>
        <time>2020-10-01T10:21:57.281Z</time>
      </trkpt>
      <trkpt lat="63.64075" lon="19.95678">
        <ele>45.28624</ele>
        <time>2020-10-01T10:22:00.277Z</time>
      </trkpt>
      <trkpt lat="63.64066" lon="19.95659">
        <ele>45.244115</ele>
        <time>2020-10-01T10:22:03.274Z</time>
      </trkpt>
      <trkpt lat="63.64057" lon="19.95639">
        <ele>45.201637</ele>
        <time>2020-10-01T10:22:06.273Z</time>
      </trkpt>
      <trkpt lat="63.64049" lon="19.9562">
        <ele>45.15935</ele>
        <time>2020-10-01T10:22:09.281Z</time>
      </trkpt>
      <trkpt lat="63.6404" lon="19.956">
        <ele>45.117483</ele>
        <time>2020-10-01T10:22:12.302Z</time>
      </trkpt>
      <trkpt lat="63.64032" lon="19.95581">
        <ele>45.076886</ele>
        <time>2020-10-01T10:22:15.277Z</time>
      </trkpt>
      <trkpt lat="63.64024" lon="19.95559">
        <ele>45.034</ele>
        <time>2020-10-01T10:22:18.264Z</time>
      </trkpt>
      <trkpt lat="63.64016" lon="19.95536">
        <ele>44.988621</ele>
        <time>2020-10-01T10:22:21.313Z</time>
      </trkpt>
      <trkpt lat="63.64011" lon="19.95519">
        <ele>44.956681</ele>
        <time>2020-10-01T10:22:23.292Z</time>
      </trkpt>
      <trkpt lat="63.64007" lon="19.95501">
        <ele>44.925454</ele>
        <time>2020-10-01T10:22:25.278Z</time>
      </trkpt>
      <trkpt lat="63.64003" lon="19.95482">
        <ele>44.893525</ele>
        <time>2020-10-01T10:22:27.271Z</time>
      </trkpt>
      <trkpt lat="63.63999" lon="19.95463">
        <ele>44.861295</ele>
        <time>2020-10-01T10:22:29.302Z</time>
      </trkpt>
      <trkpt lat="63.63995" lon="19.95434">
        <ele>45.032969</ele>
        <time>2020-10-01T10:22:32.282Z</time>
      </trkpt>
      <trkpt lat="63.63993" lon="19.95414">
        <ele>45.279951</ele>
        <time>2020-10-01T10:22:34.275Z</time>
      </trkpt>
      <trkpt lat="63.63992" lon="19.95393">
        <ele>45.526911</ele>
        <time>2020-10-01T10:22:36.275Z</time>
      </trkpt>
      <trkpt lat="63.63991" lon="19.95364">
        <ele>45.878086</ele>
        <time>2020-10-01T10:22:39.325Z</time>
      </trkpt>
      <trkpt lat="63.63992" lon="19.95335">
        <ele>46.225774</ele>
        <time>2020-10-01T10:22:42.288Z</time>
      </trkpt>
      <trkpt lat="63.63993" lon="19.95307">
        <ele>46.55976</ele>
        <time>2020-10-01T10:22:45.289Z</time>
      </trkpt>
      <trkpt lat="63.63995" lon="19.95282">
        <ele>46.868935</ele>
        <time>2020-10-01T10:22:48.262Z</time>
      </trkpt>
      <trkpt lat="63.63998" lon="19.95257">
        <ele>47.178994</ele>
        <time>2020-10-01T10:22:51.280Z</time>
      </trkpt>
      <trkpt lat="63.64002" lon="19.95235">
        <ele>47.457206</ele>
        <time>2020-10-01T10:22:54.274Z</time>
      </trkpt>
      <trkpt lat="63.64006" lon="19.95214">
        <ele>47.742779</ele>
        <time>2020-10-01T10:22:57.289Z</time>
      </trkpt>
      <trkpt lat="63.64011" lon="19.95194">
        <ele>48.020857</ele>
        <time>2020-10-01T10:23:00.281Z</time>
      </trkpt>
      <trkpt lat="63.64018" lon="19.95177">
        <ele>48.290673</ele>
        <time>2020-10-01T10:23:03.268Z</time>
      </trkpt>
      <trkpt lat="63.64025" lon="19.9516">
        <ele>48.56955</ele>
        <time>2020-10-01T10:23:06.302Z</time>
      </trkpt>
      <trkpt lat="63.64033" lon="19.95144">
        <ele>48.868868</ele>
        <time>2020-10-01T10:23:10.312Z</time>
      </trkpt>
      <trkpt lat="63.64042" lon="19.95127">
        <ele>49.171711</ele>
        <time>2020-10-01T10:23:14.277Z</time>
      </trkpt>
      <trkpt lat="63.64048" lon="19.95113">
        <ele>49.418263</ele>
        <time>2020-10-01T10:23:17.282Z</time>
      </trkpt>
      <trkpt lat="63.64057" lon="19.95096">
        <ele>49.738613</ele>
        <time>2020-10-01T10:23:21.276Z</time>
      </trkpt>
      <trkpt lat="63.64066" lon="19.9508">
        <ele>50.212195</ele>
        <time>2020-10-01T10:23:25.267Z</time>
      </trkpt>
      <trkpt lat="63.64074" lon="19.95063">
        <ele>50.681733</ele>
        <time>2020-10-01T10:23:29.301Z</time>
      </trkpt>
      <trkpt lat="63.64082" lon="19.95046">
        <ele>51.133636</ele>
        <time>2020-10-01T10:23:33.273Z</time>
      </trkpt>
      <trkpt lat="63.6409" lon="19.95029">
        <ele>51.58175</ele>
        <time>2020-10-01T10:23:37.282Z</time>
      </trkpt>
      <trkpt lat="63.64097" lon="19.95013">
        <ele>51.981638</ele>
        <time>2020-10-01T10:23:41.272Z</time>
      </trkpt>
      <trkpt lat="63.64103" lon="19.94999">
        <ele>52.36297</ele>
        <time>2020-10-01T10:23:45.303Z</time>
      </trkpt>
      <trkpt lat="63.6411" lon="19.94983">
        <ele>52.758436</ele>
        <time>2020-10-01T10:23:49.283Z</time>
      </trkpt>
      <trkpt lat="63.64116" lon="19.94963">
        <ele>53.204333</ele>
        <time>2020-10-01T10:23:54.283Z</time>
      </trkpt>
      <trkpt lat="63.64122" lon="19.94947">
        <ele>53.585347</ele>
        <time>2020-10-01T10:23:58.268Z</time>
      </trkpt>
      <trkpt lat="63.64127" lon="19.9493">
        <ele>53.962106</ele>
        <time>2020-10-01T10:24:02.259Z</time>
      </trkpt>
      <trkpt lat="63.64132" lon="19.94909">
        <ele>54.40202</ele>
        <time>2020-10-01T10:24:07.298Z</time>
      </trkpt>
      <trkpt lat="63.64135" lon="19.94889">
        <ele>54.783517</ele>
        <time>2020-10-01T10:24:11.271Z</time>
      </trkpt>
      <trkpt lat="63.64138" lon="19.94869">
        <ele>55.174866</ele>
        <time>2020-10-01T10:24:15.285Z</time>
      </trkpt>
      <trkpt lat="63.64141" lon="19.94848">
        <ele>55.579115</ele>
        <time>2020-10-01T10:24:19.301Z</time>
      </trkpt>
      <trkpt lat="63.64142" lon="19.94825">
        <ele>56.006698</ele>
        <time>2020-10-01T10:24:23.297Z</time>
      </trkpt>
      <trkpt lat="63.64144" lon="19.94798">
        <ele>56.498984</ele>
        <time>2020-10-01T10:24:27.313Z</time>
      </trkpt>
      <trkpt lat="63.64145" lon="19.94775">
        <ele>56.921648</ele>
        <time>2020-10-01T10:24:30.310Z</time>
      </trkpt>
      <trkpt lat="63.64147" lon="19.94749">
        <ele>57.042648</ele>
        <time>2020-10-01T10:24:33.276Z</time>
      </trkpt>
      <trkpt lat="63.64148" lon="19.94722">
        <ele>56.83489</ele>
        <time>2020-10-01T10:24:36.284Z</time>
      </trkpt>
      <trkpt lat="63.64151" lon="19.94693">
        <ele>56.623172</ele>
        <time>2020-10-01T10:24:39.285Z</time>
      </trkpt>
      <trkpt lat="63.64154" lon="19.94665">
        <ele>56.407837</ele>
        <time>2020-10-01T10:24:42.284Z</time>
      </trkpt>
      <trkpt lat="63.64158" lon="19.94644">
        <ele>56.241346</ele>
        <time>2020-10-01T10:24:44.279Z</time>
      </trkpt>
      <trkpt lat="63.64162" lon="19.9462">
        <ele>56.055659</ele>
        <time>2020-10-01T10:24:46.300Z</time>
      </trkpt>
      <trkpt lat="63.64166" lon="19.94593">
        <ele>55.841336</ele>
        <time>2020-10-01T10:24:48.297Z</time>
      </trkpt>
      <trkpt lat="63.64171" lon="19.94563">
        <ele>55.604115</ele>
        <time>2020-10-01T10:24:50.265Z</time>
      </trkpt>
      <trkpt lat="63.64173" lon="19.94524">
        <ele>55.317352</ele>
        <time>2020-10-01T10:24:52.301Z</time>
      </trkpt>
      <trkpt lat="63.64174" lon="19.94503">
        <ele>55.160416</ele>
        <time>2020-10-01T10:24:53.297Z</time>
      </trkpt>
      <trkpt lat="63.64175" lon="19.94481">
        <ele>54.99822</ele>
        <time>2020-10-01T10:24:54.283Z</time>
      </trkpt>
      <trkpt lat="63.64174" lon="19.9446">
        <ele>54.840488</ele>
        <time>2020-10-01T10:24:55.271Z</time>
      </trkpt>
      <trkpt lat="63.64174" lon="19.94439">
        <ele>54.684859</ele>
        <time>2020-10-01T10:24:56.282Z</time>
      </trkpt>
      <trkpt lat="63.64174" lon="19.94417">
        <ele>54.526346</ele>
        <time>2020-10-01T10:24:57.274Z</time>
      </trkpt>
      <trkpt lat="63.64173" lon="19.94395">
        <ele>54.367097</ele>
        <time>2020-10-01T10:24:58.268Z</time>
      </trkpt>
      <trkpt lat="63.64173" lon="19.94375">
        <ele>54.213739</ele>
        <time>2020-10-01T10:24:59.276Z</time>
      </trkpt>
      <trkpt lat="63.64173" lon="19.94354">
        <ele>53.914909</ele>
        <time>2020-10-01T10:25:00.277Z</time>
      </trkpt>
      <trkpt lat="63.64172" lon="19.94317">
        <ele>53.209435</ele>
        <time>2020-10-01T10:25:02.308Z</time>
      </trkpt>
      <trkpt lat="63.6417" lon="19.94282">
        <ele>52.548249</ele>
        <time>2020-10-01T10:25:04.307Z</time>
      </trkpt>
      <trkpt lat="63.64167" lon="19.94252">
        <ele>51.956352</ele>
        <time>2020-10-01T10:25:06.284Z</time>
      </trkpt>
      <trkpt lat="63.64164" lon="19.94226">
        <ele>51.448627</ele>
        <time>2020-10-01T10:25:08.299Z</time>
      </trkpt>
      <trkpt lat="63.64161" lon="19.94204">
        <ele>51.0182</ele>
        <time>2020-10-01T10:25:10.287Z</time>
      </trkpt>
      <trkpt lat="63.64157" lon="19.94184">
        <ele>50.596911</ele>
        <time>2020-10-01T10:25:12.259Z</time>
      </trkpt>
      <trkpt lat="63.64153" lon="19.94163">
        <ele>50.155013</ele>
        <time>2020-10-01T10:25:14.287Z</time>
      </trkpt>
      <trkpt lat="63.64148" lon="19.94141">
        <ele>49.700524</ele>
        <time>2020-10-01T10:25:16.290Z</time>
      </trkpt>
      <trkpt lat="63.64142" lon="19.9412">
        <ele>49.238248</ele>
        <time>2020-10-01T10:25:18.286Z</time>
      </trkpt>
      <trkpt lat="63.64135" lon="19.94101">
        <ele>48.771446</ele>
        <time>2020-10-01T10:25:20.275Z</time>
      </trkpt>
      <trkpt lat="63.64128" lon="19.94082">
        <ele>48.31369</ele>
        <time>2020-10-01T10:25:22.285Z</time>
      </trkpt>
      <trkpt lat="63.64121" lon="19.94064">
        <ele>47.86457</ele>
        <time>2020-10-01T10:25:24.270Z</time>
      </trkpt>
      <trkpt lat="63.64114" lon="19.94047">
        <ele>47.420859</ele>
        <time>2020-10-01T10:25:26.271Z</time>
      </trkpt>
      <trkpt lat="63.64107" lon="19.94031">
        <ele>46.990023</ele>
        <time>2020-10-01T10:25:28.299Z</time>
      </trkpt>
      <trkpt lat="63.64101" lon="19.94014">
        <ele>46.579073</ele>
        <time>2020-10-01T10:25:30.283Z</time>
      </trkpt>
      <trkpt lat="63.64094" lon="19.93998">
        <ele>46.593625</ele>
        <time>2020-10-01T10:25:32.294Z</time>
      </trkpt>
      <trkpt lat="63.64088" lon="19.93982">
        <ele>46.697818</ele>
        <time>2020-10-01T10:25:34.293Z</time>
      </trkpt>
      <trkpt lat="63.64082" lon="19.93965">
        <ele>46.799619</ele>
        <time>2020-10-01T10:25:36.294Z</time>
      </trkpt>
      <trkpt lat="63.64076" lon="19.93948">
        <ele>46.899528</ele>
        <time>2020-10-01T10:25:38.287Z</time>
      </trkpt>
      <trkpt lat="63.64071" lon="19.9393">
        <ele>47.004156</ele>
        <time>2020-10-01T10:25:40.262Z</time>
      </trkpt>
      <trkpt lat="63.64066" lon="19.9391">
        <ele>47.11019</ele>
        <time>2020-10-01T10:25:42.285Z</time>
      </trkpt>
      <trkpt lat="63.64062" lon="19.9389">
        <ele>47.215265</ele>
        <time>2020-10-01T10:25:44.266Z</time>
      </trkpt>
      <trkpt lat="63.64057" lon="19.93868">
        <ele>47.325851</ele>
        <time>2020-10-01T10:25:46.299Z</time>
      </trkpt>
      <trkpt lat="63.64054" lon="19.93845">
        <ele>47.439605</ele>
        <time>2020-10-01T10:25:48.298Z</time>
      </trkpt>
      <trkpt lat="63.64053" lon="19.93821">
        <ele>47.554016</ele>
        <time>2020-10-01T10:25:50.280Z</time>
      </trkpt>
      <trkpt lat="63.64052" lon="19.93798">
        <ele>47.661403</ele>
        <time>2020-10-01T10:25:52.314Z</time>
      </trkpt>
      <trkpt lat="63.64051" lon="19.93777">
        <ele>47.764297</ele>
        <time>2020-10-01T10:25:54.266Z</time>
      </trkpt>
      <trkpt lat="63.6405" lon="19.93755">
        <ele>47.867272</ele>
        <time>2020-10-01T10:25:56.280Z</time>
      </trkpt>
      <trkpt lat="63.6405" lon="19.93733">
        <ele>47.968288</ele>
        <time>2020-10-01T10:25:58.268Z</time>
      </trkpt>
      <trkpt lat="63.64048" lon="19.93712">
        <ele>48.071699</ele>
        <time>2020-10-01T10:26:00.285Z</time>
      </trkpt>
      <trkpt lat="63.64047" lon="19.9369">
        <ele>48.176946</ele>
        <time>2020-10-01T10:26:02.271Z</time>
      </trkpt>
      <trkpt lat="63.64045" lon="19.93668">
        <ele>48.280817</ele>
        <time>2020-10-01T10:26:04.266Z</time>
      </trkpt>
      <trkpt lat="63.64042" lon="19.93645">
        <ele>48.392959</ele>
        <time>2020-10-01T10:26:06.288Z</time>
      </trkpt>
      <trkpt lat="63.6404" lon="19.93618">
        <ele>48.204355</ele>
        <time>2020-10-01T10:26:08.275Z</time>
      </trkpt>
      <trkpt lat="63.64037" lon="19.9359">
        <ele>47.917823</ele>
        <time>2020-10-01T10:26:10.299Z</time>
      </trkpt>
      <trkpt lat="63.64033" lon="19.93559">
        <ele>47.614617</ele>
        <time>2020-10-01T10:26:12.293Z</time>
      </trkpt>
      <trkpt lat="63.64029" lon="19.93529">
        <ele>47.306241</ele>
        <time>2020-10-01T10:26:14.307Z</time>
      </trkpt>
      <trkpt lat="63.64025" lon="19.93499">
        <ele>46.994106</ele>
        <time>2020-10-01T10:26:16.288Z</time>
      </trkpt>
      <trkpt lat="63.64019" lon="19.93469">
        <ele>46.678591</ele>
        <time>2020-10-01T10:26:18.274Z</time>
      </trkpt>
      <trkpt lat="63.64011" lon="19.93441">
        <ele>46.358717</ele>
        <time>2020-10-01T10:26:20.280Z</time>
      </trkpt>
      <trkpt lat="63.64002" lon="19.93413">
        <ele>46.021976</ele>
        <time>2020-10-01T10:26:22.282Z</time>
      </trkpt>
      <trkpt lat="63.6399" lon="19.93385">
        <ele>45.649928</ele>
        <time>2020-10-01T10:26:24.298Z</time>
      </trkpt>
      <trkpt lat="63.63983" lon="19.93371">
        <ele>45.448401</ele>
        <time>2020-10-01T10:26:25.305Z</time>
      </trkpt>
      <trkpt lat="63.63976" lon="19.93358">
        <ele>45.241642</ele>
        <time>2020-10-01T10:26:26.308Z</time>
      </trkpt>
      <trkpt lat="63.63968" lon="19.93345">
        <ele>45.030897</ele>
        <time>2020-10-01T10:26:27.296Z</time>
      </trkpt>
      <trkpt lat="63.6396" lon="19.93331">
        <ele>44.815387</ele>
        <time>2020-10-01T10:26:28.266Z</time>
      </trkpt>
      <trkpt lat="63.63953" lon="19.93315">
        <ele>44.58593</ele>
        <time>2020-10-01T10:26:29.271Z</time>
      </trkpt>
      <trkpt lat="63.63946" lon="19.93296">
        <ele>44.247646</ele>
        <time>2020-10-01T10:26:30.293Z</time>
      </trkpt>
      <trkpt lat="63.6394" lon="19.93275">
        <ele>43.828902</ele>
        <time>2020-10-01T10:26:31.270Z</time>
      </trkpt>
      <trkpt lat="63.63936" lon="19.93251">
        <ele>43.403623</ele>
        <time>2020-10-01T10:26:32.291Z</time>
      </trkpt>
      <trkpt lat="63.63935" lon="19.93225">
        <ele>42.962049</ele>
        <time>2020-10-01T10:26:33.281Z</time>
      </trkpt>
      <trkpt lat="63.63935" lon="19.93198">
        <ele>42.523425</ele>
        <time>2020-10-01T10:26:34.279Z</time>
      </trkpt>
      <trkpt lat="63.63937" lon="19.93174">
        <ele>42.108034</ele>
        <time>2020-10-01T10:26:35.269Z</time>
      </trkpt>
      <trkpt lat="63.6394" lon="19.93152">
        <ele>41.728129</ele>
        <time>2020-10-01T10:26:36.284Z</time>
      </trkpt>
      <trkpt lat="63.63941" lon="19.9313">
        <ele>41.359087</ele>
        <time>2020-10-01T10:26:37.283Z</time>
      </trkpt>
      <trkpt lat="63.63943" lon="19.93108">
        <ele>40.99285</ele>
        <time>2020-10-01T10:26:38.272Z</time>
      </trkpt>
      <trkpt lat="63.63944" lon="19.93088">
        <ele>40.641257</ele>
        <time>2020-10-01T10:26:39.277Z</time>
      </trkpt>
      <trkpt lat="63.63946" lon="19.93067">
        <ele>40.297048</ele>
        <time>2020-10-01T10:26:40.278Z</time>
      </trkpt>
      <trkpt lat="63.63948" lon="19.93029">
        <ele>39.655349</ele>
        <time>2020-10-01T10:26:42.274Z</time>
      </trkpt>
      <trkpt lat="63.6395" lon="19.92993">
        <ele>39.055261</ele>
        <time>2020-10-01T10:26:44.291Z</time>
      </trkpt>
      <trkpt lat="63.63951" lon="19.9296">
        <ele>38.487926</ele>
        <time>2020-10-01T10:26:46.289Z</time>
      </trkpt>
      <trkpt lat="63.63952" lon="19.92927">
        <ele>37.941255</ele>
        <time>2020-10-01T10:26:48.260Z</time>
      </trkpt>
      <trkpt lat="63.63954" lon="19.92895">
        <ele>37.529008</ele>
        <time>2020-10-01T10:26:50.265Z</time>
      </trkpt>
      <trkpt lat="63.63955" lon="19.92866">
        <ele>37.221241</ele>
        <time>2020-10-01T10:26:52.281Z</time>
      </trkpt>
      <trkpt lat="63.63956" lon="19.92835">
        <ele>36.901184</ele>
        <time>2020-10-01T10:26:54.294Z</time>
      </trkpt>
      <trkpt lat="63.63958" lon="19.92805">
        <ele>36.589392</ele>
        <time>2020-10-01T10:26:56.268Z</time>
      </trkpt>
      <trkpt lat="63.63958" lon="19.9278">
        <ele>36.321007</ele>
        <time>2020-10-01T10:26:58.287Z</time>
      </trkpt>
      <trkpt lat="63.63959" lon="19.92753">
        <ele>36.048375</ele>
        <time>2020-10-01T10:27:00.263Z</time>
      </trkpt>
      <trkpt lat="63.63958" lon="19.92725">
        <ele>35.748635</ele>
        <time>2020-10-01T10:27:02.267Z</time>
      </trkpt>
      <trkpt lat="63.63955" lon="19.92697">
        <ele>35.457863</ele>
        <time>2020-10-01T10:27:04.300Z</time>
      </trkpt>
      <trkpt lat="63.63952" lon="19.92672">
        <ele>35.187033</ele>
        <time>2020-10-01T10:27:06.272Z</time>
      </trkpt>
      <trkpt lat="63.63949" lon="19.92649">
        <ele>34.933164</ele>
        <time>2020-10-01T10:27:08.321Z</time>
      </trkpt>
      <trkpt lat="63.63945" lon="19.92625">
        <ele>34.665824</ele>
        <time>2020-10-01T10:27:10.272Z</time>
      </trkpt>
      <trkpt lat="63.63941" lon="19.92602">
        <ele>34.405005</ele>
        <time>2020-10-01T10:27:12.288Z</time>
      </trkpt>
      <trkpt lat="63.63937" lon="19.92579">
        <ele>34.155387</ele>
        <time>2020-10-01T10:27:14.257Z</time>
      </trkpt>
      <trkpt lat="63.63934" lon="19.92556">
        <ele>33.901851</ele>
        <time>2020-10-01T10:27:16.327Z</time>
      </trkpt>
      <trkpt lat="63.6393" lon="19.92531">
        <ele>33.629705</ele>
        <time>2020-10-01T10:27:18.277Z</time>
      </trkpt>
      <trkpt lat="63.63929" lon="19.92503">
        <ele>33.630858</ele>
        <time>2020-10-01T10:27:20.280Z</time>
      </trkpt>
      <trkpt lat="63.63929" lon="19.92477">
        <ele>33.821762</ele>
        <time>2020-10-01T10:27:22.258Z</time>
      </trkpt>
      <trkpt lat="63.6393" lon="19.92453">
        <ele>33.999083</ele>
        <time>2020-10-01T10:27:24.276Z</time>
      </trkpt>
      <trkpt lat="63.63931" lon="19.92432">
        <ele>34.153394</ele>
        <time>2020-10-01T10:27:26.267Z</time>
      </trkpt>
      <trkpt lat="63.63928" lon="19.92406">
        <ele>34.356748</ele>
        <time>2020-10-01T10:27:29.294Z</time>
      </trkpt>
      <trkpt lat="63.6392" lon="19.92391">
        <ele>34.524571</ele>
        <time>2020-10-01T10:27:31.267Z</time>
      </trkpt>
      <trkpt lat="63.63911" lon="19.9238">
        <ele>34.697216</ele>
        <time>2020-10-01T10:27:33.283Z</time>
      </trkpt>
      <trkpt lat="63.63901" lon="19.9237">
        <ele>34.86673</ele>
        <time>2020-10-01T10:27:35.279Z</time>
      </trkpt>
      <trkpt lat="63.63892" lon="19.92359">
        <ele>35.041173</ele>
        <time>2020-10-01T10:27:37.277Z</time>
      </trkpt>
      <trkpt lat="63.63883" lon="19.92348">
        <ele>35.207751</ele>
        <time>2020-10-01T10:27:39.295Z</time>
      </trkpt>
      <trkpt lat="63.63874" lon="19.92337">
        <ele>35.383173</ele>
        <time>2020-10-01T10:27:41.277Z</time>
      </trkpt>
      <trkpt lat="63.63864" lon="19.92324">
        <ele>35.563038</ele>
        <time>2020-10-01T10:27:43.283Z</time>
      </trkpt>
      <trkpt lat="63.63856" lon="19.92309">
        <ele>35.741705</ele>
        <time>2020-10-01T10:27:45.287Z</time>
      </trkpt>
      <trkpt lat="63.63847" lon="19.92294">
        <ele>35.921693</ele>
        <time>2020-10-01T10:27:47.285Z</time>
      </trkpt>
      <trkpt lat="63.63838" lon="19.92278">
        <ele>36.109789</ele>
        <time>2020-10-01T10:27:49.280Z</time>
      </trkpt>
      <trkpt lat="63.63829" lon="19.92261">
        <ele>36.298036</ele>
        <time>2020-10-01T10:27:51.278Z</time>
      </trkpt>
      <trkpt lat="63.63821" lon="19.92244">
        <ele>36.472351</ele>
        <time>2020-10-01T10:27:53.276Z</time>
      </trkpt>
      <trkpt lat="63.63812" lon="19.92228">
        <ele>36.442403</ele>
        <time>2020-10-01T10:27:55.301Z</time>
      </trkpt>
      <trkpt lat="63.63804" lon="19.92212">
        <ele>36.413569</ele>
        <time>2020-10-01T10:27:57.297Z</time>
      </trkpt>
      <trkpt lat="63.63795" lon="19.92197">
        <ele>36.385575</ele>
        <time>2020-10-01T10:27:59.278Z</time>
      </trkpt>
      <trkpt lat="63.63787" lon="19.92181">
        <ele>36.357312</ele>
        <time>2020-10-01T10:28:01.289Z</time>
      </trkpt>
      <trkpt lat="63.63779" lon="19.92165">
        <ele>36.329186</ele>
        <time>2020-10-01T10:28:03.282Z</time>
      </trkpt>
      <trkpt lat="63.63769" lon="19.92151">
        <ele>36.299957</ele>
        <time>2020-10-01T10:28:05.303Z</time>
      </trkpt>
      <trkpt lat="63.6376" lon="19.92136">
        <ele>36.270863</ele>
        <time>2020-10-01T10:28:07.321Z</time>
      </trkpt>
      <trkpt lat="63.63751" lon="19.92122">
        <ele>36.240931</ele>
        <time>2020-10-01T10:28:09.269Z</time>
      </trkpt>
      <trkpt lat="63.6374" lon="19.92109">
        <ele>36.210306</ele>
        <time>2020-10-01T10:28:11.306Z</time>
      </trkpt>
      <trkpt lat="63.6373" lon="19.92098">
        <ele>36.179838</ele>
        <time>2020-10-01T10:28:13.288Z</time>
      </trkpt>
      <trkpt lat="63.63719" lon="19.92087">
        <ele>36.149789</ele>
        <time>2020-10-01T10:28:15.267Z</time>
      </trkpt>
      <trkpt lat="63.63709" lon="19.92076">
        <ele>36.120604</ele>
        <time>2020-10-01T10:28:17.279Z</time>
      </trkpt>
      <trkpt lat="63.63698" lon="19.92067">
        <ele>36.090444</ele>
        <time>2020-10-01T10:28:19.289Z</time>
      </trkpt>
      <trkpt lat="63.63687" lon="19.92059">
        <ele>36.06076</ele>
        <time>2020-10-01T10:28:21.272Z</time>
      </trkpt>
      <trkpt lat="63.63677" lon="19.92051">
        <ele>36.031612</ele>
        <time>2020-10-01T10:28:23.278Z</time>
      </trkpt>
      <trkpt lat="63.63666" lon="19.92046">
        <ele>35.981285</ele>
        <time>2020-10-01T10:28:25.284Z</time>
      </trkpt>
      <trkpt lat="63.63655" lon="19.92041">
        <ele>35.814009</ele>
        <time>2020-10-01T10:28:27.307Z</time>
      </trkpt>
      <trkpt lat="63.63644" lon="19.92036">
        <ele>35.646169</ele>
        <time>2020-10-01T10:28:29.274Z</time>
      </trkpt>
      <trkpt lat="63.63633" lon="19.92033">
        <ele>35.478369</ele>
        <time>2020-10-01T10:28:31.286Z</time>
      </trkpt>
      <trkpt lat="63.63622" lon="19.92033">
        <ele>35.314518</ele>
        <time>2020-10-01T10:28:33.279Z</time>
      </trkpt>
      <trkpt lat="63.63611" lon="19.92033">
        <ele>35.143081</ele>
        <time>2020-10-01T10:28:35.295Z</time>
      </trkpt>
      <trkpt lat="63.63599" lon="19.92034">
        <ele>34.96994</ele>
        <time>2020-10-01T10:28:37.277Z</time>
      </trkpt>
      <trkpt lat="63.63588" lon="19.92037">
        <ele>34.794453</ele>
        <time>2020-10-01T10:28:39.293Z</time>
      </trkpt>
      <trkpt lat="63.63577" lon="19.92041">
        <ele>34.621215</ele>
        <time>2020-10-01T10:28:41.288Z</time>
      </trkpt>
      <trkpt lat="63.63566" lon="19.92046">
        <ele>34.452038</ele>
        <time>2020-10-01T10:28:43.320Z</time>
      </trkpt>
      <trkpt lat="63.63555" lon="19.92051">
        <ele>34.28553</ele>
        <time>2020-10-01T10:28:45.280Z</time>
      </trkpt>
      <trkpt lat="63.63545" lon="19.92057">
        <ele>34.121668</ele>
        <time>2020-10-01T10:28:47.288Z</time>
      </trkpt>
      <trkpt lat="63.63534" lon="19.92063">
        <ele>33.963023</ele>
        <time>2020-10-01T10:28:49.305Z</time>
      </trkpt>
      <trkpt lat="63.63525" lon="19.9207">
        <ele>33.807446</ele>
        <time>2020-10-01T10:28:51.263Z</time>
      </trkpt>
      <trkpt lat="63.63515" lon="19.92077">
        <ele>33.649817</ele>
        <time>2020-10-01T10:28:53.285Z</time>
      </trkpt>
      <trkpt lat="63.63505" lon="19.92084">
        <ele>33.491338</ele>
        <time>2020-10-01T10:28:55.286Z</time>
      </trkpt>
      <trkpt lat="63.63494" lon="19.92091">
        <ele>33.322846</ele>
        <time>2020-10-01T10:28:57.287Z</time>
      </trkpt>
      <trkpt lat="63.63483" lon="19.92098">
        <ele>33.260815</ele>
        <time>2020-10-01T10:28:59.301Z</time>
      </trkpt>
      <trkpt lat="63.63472" lon="19.92106">
        <ele>33.237546</ele>
        <time>2020-10-01T10:29:01.271Z</time>
      </trkpt>
      <trkpt lat="63.63461" lon="19.92113">
        <ele>33.214407</ele>
        <time>2020-10-01T10:29:03.311Z</time>
      </trkpt>
      <trkpt lat="63.63449" lon="19.92121">
        <ele>33.191084</ele>
        <time>2020-10-01T10:29:05.286Z</time>
      </trkpt>
      <trkpt lat="63.63439" lon="19.92128">
        <ele>33.168853</ele>
        <time>2020-10-01T10:29:07.306Z</time>
      </trkpt>
      <trkpt lat="63.63428" lon="19.92135">
        <ele>33.147097</ele>
        <time>2020-10-01T10:29:09.282Z</time>
      </trkpt>
      <trkpt lat="63.63417" lon="19.92141">
        <ele>33.12515</ele>
        <time>2020-10-01T10:29:11.280Z</time>
      </trkpt>
      <trkpt lat="63.63406" lon="19.92148">
        <ele>33.10263</ele>
        <time>2020-10-01T10:29:13.293Z</time>
      </trkpt>
      <trkpt lat="63.63395" lon="19.92156">
        <ele>33.079374</ele>
        <time>2020-10-01T10:29:15.261Z</time>
      </trkpt>
      <trkpt lat="63.63384" lon="19.92164">
        <ele>33.056078</ele>
        <time>2020-10-01T10:29:17.302Z</time>
      </trkpt>
      <trkpt lat="63.63373" lon="19.9217">
        <ele>33.033129</ele>
        <time>2020-10-01T10:29:19.279Z</time>
      </trkpt>
      <trkpt lat="63.63362" lon="19.92176">
        <ele>33.010523</ele>
        <time>2020-10-01T10:29:21.275Z</time>
      </trkpt>
      <trkpt lat="63.63351" lon="19.92181">
        <ele>32.990117</ele>
        <time>2020-10-01T10:29:23.259Z</time>
      </trkpt>
      <trkpt lat="63.63341" lon="19.92187">
        <ele>32.969048</ele>
        <time>2020-10-01T10:29:25.277Z</time>
      </trkpt>
      <trkpt lat="63.63331" lon="19.92193">
        <ele>32.948651</ele>
        <time>2020-10-01T10:29:27.277Z</time>
      </trkpt>
      <trkpt lat="63.63322" lon="19.922">
        <ele>32.928963</ele>
        <time>2020-10-01T10:29:29.293Z</time>
      </trkpt>
      <trkpt lat="63.63311" lon="19.92207">
        <ele>33.144695</ele>
        <time>2020-10-01T10:29:31.267Z</time>
      </trkpt>
      <trkpt lat="63.63301" lon="19.92214">
        <ele>33.474089</ele>
        <time>2020-10-01T10:29:33.300Z</time>
      </trkpt>
      <trkpt lat="63.63291" lon="19.92223">
        <ele>33.799486</ele>
        <time>2020-10-01T10:29:35.277Z</time>
      </trkpt>
      <trkpt lat="63.63283" lon="19.92231">
        <ele>34.098189</ele>
        <time>2020-10-01T10:29:37.293Z</time>
      </trkpt>
      <trkpt lat="63.63274" lon="19.92237">
        <ele>34.387302</ele>
        <time>2020-10-01T10:29:39.260Z</time>
      </trkpt>
      <trkpt lat="63.63265" lon="19.92243">
        <ele>34.671603</ele>
        <time>2020-10-01T10:29:41.283Z</time>
      </trkpt>
      <trkpt lat="63.63253" lon="19.92249">
        <ele>35.06479</ele>
        <time>2020-10-01T10:29:44.293Z</time>
      </trkpt>
      <trkpt lat="63.63241" lon="19.92256">
        <ele>35.45118</ele>
        <time>2020-10-01T10:29:47.285Z</time>
      </trkpt>
      <trkpt lat="63.63229" lon="19.92263">
        <ele>35.838996</ele>
        <time>2020-10-01T10:29:50.302Z</time>
      </trkpt>
      <trkpt lat="63.63215" lon="19.9227">
        <ele>36.259584</ele>
        <time>2020-10-01T10:29:53.293Z</time>
      </trkpt>
      <trkpt lat="63.63203" lon="19.92277">
        <ele>36.675568</ele>
        <time>2020-10-01T10:29:56.294Z</time>
      </trkpt>
      <trkpt lat="63.63194" lon="19.92283">
        <ele>36.968936</ele>
        <time>2020-10-01T10:29:58.279Z</time>
      </trkpt>
      <trkpt lat="63.63184" lon="19.92291">
        <ele>37.279328</ele>
        <time>2020-10-01T10:30:00.261Z</time>
      </trkpt>
      <trkpt lat="63.63175" lon="19.92297">
        <ele>37.583268</ele>
        <time>2020-10-01T10:30:02.283Z</time>
      </trkpt>
      <trkpt lat="63.63166" lon="19.92303">
        <ele>37.86869</ele>
        <time>2020-10-01T10:30:04.294Z</time>
      </trkpt>
      <trkpt lat="63.63156" lon="19.92309">
        <ele>38.184534</ele>
        <time>2020-10-01T10:30:06.297Z</time>
      </trkpt>
      <trkpt lat="63.63146" lon="19.92314">
        <ele>38.517212</ele>
        <time>2020-10-01T10:30:08.283Z</time>
      </trkpt>
      <trkpt lat="63.63135" lon="19.92319">
        <ele>38.551897</ele>
        <time>2020-10-01T10:30:10.323Z</time>
      </trkpt>
      <trkpt lat="63.63124" lon="19.92323">
        <ele>38.577686</ele>
        <time>2020-10-01T10:30:12.325Z</time>
      </trkpt>
      <trkpt lat="63.63113" lon="19.92326">
        <ele>38.602813</ele>
        <time>2020-10-01T10:30:14.282Z</time>
      </trkpt>
      <trkpt lat="63.63101" lon="19.92328">
        <ele>38.628966</ele>
        <time>2020-10-01T10:30:16.304Z</time>
      </trkpt>
      <trkpt lat="63.63091" lon="19.92328">
        <ele>38.653264</ele>
        <time>2020-10-01T10:30:18.264Z</time>
      </trkpt>
      <trkpt lat="63.6308" lon="19.92329">
        <ele>38.677101</ele>
        <time>2020-10-01T10:30:20.264Z</time>
      </trkpt>
      <trkpt lat="63.6307" lon="19.92327">
        <ele>38.700976</ele>
        <time>2020-10-01T10:30:22.274Z</time>
      </trkpt>
      <trkpt lat="63.63059" lon="19.92326">
        <ele>38.725557</ele>
        <time>2020-10-01T10:30:24.269Z</time>
      </trkpt>
      <trkpt lat="63.63047" lon="19.92323">
        <ele>38.751998</ele>
        <time>2020-10-01T10:30:26.302Z</time>
      </trkpt>
      <trkpt lat="63.63037" lon="19.92319">
        <ele>38.776154</ele>
        <time>2020-10-01T10:30:28.310Z</time>
      </trkpt>
      <trkpt lat="63.63027" lon="19.92314">
        <ele>38.799384</ele>
        <time>2020-10-01T10:30:30.283Z</time>
      </trkpt>
      <trkpt lat="63.63016" lon="19.92309">
        <ele>38.82483</ele>
        <time>2020-10-01T10:30:32.285Z</time>
      </trkpt>
      <trkpt lat="63.63005" lon="19.92301">
        <ele>38.849927</ele>
        <time>2020-10-01T10:30:34.276Z</time>
      </trkpt>
      <trkpt lat="63.62995" lon="19.92294">
        <ele>38.874131</ele>
        <time>2020-10-01T10:30:36.277Z</time>
      </trkpt>
      <trkpt lat="63.62985" lon="19.92286">
        <ele>38.898648</ele>
        <time>2020-10-01T10:30:38.292Z</time>
      </trkpt>
      <trkpt lat="63.62975" lon="19.92277">
        <ele>38.922462</ele>
        <time>2020-10-01T10:30:40.289Z</time>
      </trkpt>
      <trkpt lat="63.62965" lon="19.92269">
        <ele>38.834523</ele>
        <time>2020-10-01T10:30:42.270Z</time>
      </trkpt>
      <trkpt lat="63.62955" lon="19.92263">
        <ele>38.595065</ele>
        <time>2020-10-01T10:30:44.295Z</time>
      </trkpt>
      <trkpt lat="63.62946" lon="19.92256">
        <ele>38.358283</ele>
        <time>2020-10-01T10:30:46.271Z</time>
      </trkpt>
      <trkpt lat="63.62936" lon="19.92247">
        <ele>38.11208</ele>
        <time>2020-10-01T10:30:48.289Z</time>
      </trkpt>
      <trkpt lat="63.62926" lon="19.92237">
        <ele>37.855123</ele>
        <time>2020-10-01T10:30:50.283Z</time>
      </trkpt>
      <trkpt lat="63.62915" lon="19.92228">
        <ele>37.598558</ele>
        <time>2020-10-01T10:30:52.284Z</time>
      </trkpt>
      <trkpt lat="63.62905" lon="19.9222">
        <ele>37.354843</ele>
        <time>2020-10-01T10:30:54.302Z</time>
      </trkpt>
      <trkpt lat="63.62895" lon="19.92213">
        <ele>37.108645</ele>
        <time>2020-10-01T10:30:56.283Z</time>
      </trkpt>
      <trkpt lat="63.62885" lon="19.92206">
        <ele>36.863716</ele>
        <time>2020-10-01T10:30:58.265Z</time>
      </trkpt>
      <trkpt lat="63.62875" lon="19.92197">
        <ele>36.617944</ele>
        <time>2020-10-01T10:31:00.273Z</time>
      </trkpt>
      <trkpt lat="63.62865" lon="19.92189">
        <ele>36.366052</ele>
        <time>2020-10-01T10:31:02.278Z</time>
      </trkpt>
      <trkpt lat="63.62855" lon="19.9218">
        <ele>36.119563</ele>
        <time>2020-10-01T10:31:04.296Z</time>
      </trkpt>
      <trkpt lat="63.62845" lon="19.92172">
        <ele>35.877383</ele>
        <time>2020-10-01T10:31:06.326Z</time>
      </trkpt>
      <trkpt lat="63.62835" lon="19.92162">
        <ele>35.634262</ele>
        <time>2020-10-01T10:31:08.296Z</time>
      </trkpt>
      <trkpt lat="63.62825" lon="19.92153">
        <ele>35.386494</ele>
        <time>2020-10-01T10:31:10.267Z</time>
      </trkpt>
      <trkpt lat="63.62815" lon="19.92144">
        <ele>35.133861</ele>
        <time>2020-10-01T10:31:12.267Z</time>
      </trkpt>
      <trkpt lat="63.62805" lon="19.92135">
        <ele>34.877657</ele>
        <time>2020-10-01T10:31:14.283Z</time>
      </trkpt>
      <trkpt lat="63.62795" lon="19.92126">
        <ele>34.678682</ele>
        <time>2020-10-01T10:31:16.282Z</time>
      </trkpt>
      <trkpt lat="63.62784" lon="19.92117">
        <ele>34.509468</ele>
        <time>2020-10-01T10:31:18.301Z</time>
      </trkpt>
      <trkpt lat="63.62775" lon="19.92109">
        <ele>34.346581</ele>
        <time>2020-10-01T10:31:20.278Z</time>
      </trkpt>
      <trkpt lat="63.62765" lon="19.921">
        <ele>34.179571</ele>
        <time>2020-10-01T10:31:22.326Z</time>
      </trkpt>
      <trkpt lat="63.62754" lon="19.92091">
        <ele>34.005234</ele>
        <time>2020-10-01T10:31:24.298Z</time>
      </trkpt>
      <trkpt lat="63.62744" lon="19.92082">
        <ele>33.824317</ele>
        <time>2020-10-01T10:31:26.268Z</time>
      </trkpt>
      <trkpt lat="63.62733" lon="19.92072">
        <ele>33.654341</ele>
        <time>2020-10-01T10:31:28.272Z</time>
      </trkpt>
      <trkpt lat="63.62724" lon="19.92063">
        <ele>33.495901</ele>
        <time>2020-10-01T10:31:30.264Z</time>
      </trkpt>
      <trkpt lat="63.62715" lon="19.92054">
        <ele>33.342593</ele>
        <time>2020-10-01T10:31:32.273Z</time>
      </trkpt>
      <trkpt lat="63.62705" lon="19.92045">
        <ele>33.177483</ele>
        <time>2020-10-01T10:31:34.298Z</time>
      </trkpt>
      <trkpt lat="63.62696" lon="19.92035">
        <ele>33.012499</ele>
        <time>2020-10-01T10:31:36.277Z</time>
      </trkpt>
      <trkpt lat="63.62687" lon="19.92024">
        <ele>32.848997</ele>
        <time>2020-10-01T10:31:38.279Z</time>
      </trkpt>
      <trkpt lat="63.62677" lon="19.92012">
        <ele>32.683864</ele>
        <time>2020-10-01T10:31:40.308Z</time>
      </trkpt>
      <trkpt lat="63.62669" lon="19.92">
        <ele>32.526535</ele>
        <time>2020-10-01T10:31:42.316Z</time>
      </trkpt>
      <trkpt lat="63.62661" lon="19.91987">
        <ele>32.368437</ele>
        <time>2020-10-01T10:31:44.310Z</time>
      </trkpt>
      <trkpt lat="63.62652" lon="19.91973">
        <ele>32.207217</ele>
        <time>2020-10-01T10:31:46.295Z</time>
      </trkpt>
      <trkpt lat="63.62644" lon="19.91961">
        <ele>32.056344</ele>
        <time>2020-10-01T10:31:48.305Z</time>
      </trkpt>
      <trkpt lat="63.62637" lon="19.91946">
        <ele>32.026291</ele>
        <time>2020-10-01T10:31:50.279Z</time>
      </trkpt>
      <trkpt lat="63.62629" lon="19.91931">
        <ele>32.132992</ele>
        <time>2020-10-01T10:31:52.322Z</time>
      </trkpt>
      <trkpt lat="63.62621" lon="19.91915">
        <ele>32.23691</ele>
        <time>2020-10-01T10:31:54.278Z</time>
      </trkpt>
      <trkpt lat="63.62614" lon="19.91899">
        <ele>32.342354</ele>
        <time>2020-10-01T10:31:56.279Z</time>
      </trkpt>
      <trkpt lat="63.62607" lon="19.91883">
        <ele>32.439433</ele>
        <time>2020-10-01T10:31:58.300Z</time>
      </trkpt>
      <trkpt lat="63.62601" lon="19.91867">
        <ele>32.535509</ele>
        <time>2020-10-01T10:32:00.289Z</time>
      </trkpt>
      <trkpt lat="63.62595" lon="19.91851">
        <ele>32.625785</ele>
        <time>2020-10-01T10:32:02.305Z</time>
      </trkpt>
      <trkpt lat="63.62589" lon="19.91834">
        <ele>32.720935</ele>
        <time>2020-10-01T10:32:04.303Z</time>
      </trkpt>
      <trkpt lat="63.62584" lon="19.91819">
        <ele>32.811369</ele>
        <time>2020-10-01T10:32:06.263Z</time>
      </trkpt>
      <trkpt lat="63.62576" lon="19.91796">
        <ele>32.938463</ele>
        <time>2020-10-01T10:32:09.285Z</time>
      </trkpt>
      <trkpt lat="63.62568" lon="19.91773">
        <ele>33.06805</ele>
        <time>2020-10-01T10:32:12.285Z</time>
      </trkpt>
      <trkpt lat="63.62561" lon="19.9175">
        <ele>33.192828</ele>
        <time>2020-10-01T10:32:15.267Z</time>
      </trkpt>
      <trkpt lat="63.62555" lon="19.91726">
        <ele>33.317489</ele>
        <time>2020-10-01T10:32:18.288Z</time>
      </trkpt>
      <trkpt lat="63.62551" lon="19.91708">
        <ele>33.407904</ele>
        <time>2020-10-01T10:32:20.276Z</time>
      </trkpt>
      <trkpt lat="63.62544" lon="19.91683">
        <ele>33.538192</ele>
        <time>2020-10-01T10:32:23.308Z</time>
      </trkpt>
      <trkpt lat="63.6254" lon="19.91664">
        <ele>33.634202</ele>
        <time>2020-10-01T10:32:25.267Z</time>
      </trkpt>
      <trkpt lat="63.62535" lon="19.91644">
        <ele>33.732332</ele>
        <time>2020-10-01T10:32:27.264Z</time>
      </trkpt>
      <trkpt lat="63.6253" lon="19.91626">
        <ele>33.7639</ele>
        <time>2020-10-01T10:32:29.294Z</time>
      </trkpt>
      <trkpt lat="63.62525" lon="19.91607">
        <ele>33.716903</ele>
        <time>2020-10-01T10:32:31.289Z</time>
      </trkpt>
      <trkpt lat="63.6252" lon="19.9159">
        <ele>33.671846</ele>
        <time>2020-10-01T10:32:33.336Z</time>
      </trkpt>
      <trkpt lat="63.62516" lon="19.91572">
        <ele>33.626671</ele>
        <time>2020-10-01T10:32:35.280Z</time>
      </trkpt>
      <trkpt lat="63.62511" lon="19.91554">
        <ele>33.579486</ele>
        <time>2020-10-01T10:32:37.274Z</time>
      </trkpt>
      <trkpt lat="63.62505" lon="19.91534">
        <ele>33.527769</ele>
        <time>2020-10-01T10:32:39.281Z</time>
      </trkpt>
      <trkpt lat="63.625" lon="19.91512">
        <ele>33.473224</ele>
        <time>2020-10-01T10:32:41.284Z</time>
      </trkpt>
      <trkpt lat="63.62494" lon="19.91491">
        <ele>33.418047</ele>
        <time>2020-10-01T10:32:43.277Z</time>
      </trkpt>
      <trkpt lat="63.62488" lon="19.91469">
        <ele>33.362566</ele>
        <time>2020-10-01T10:32:45.298Z</time>
      </trkpt>
      <trkpt lat="63.62482" lon="19.91448">
        <ele>33.307128</ele>
        <time>2020-10-01T10:32:47.285Z</time>
      </trkpt>
      <trkpt lat="63.62476" lon="19.91427">
        <ele>33.252338</ele>
        <time>2020-10-01T10:32:49.305Z</time>
      </trkpt>
      <trkpt lat="63.6247" lon="19.91407">
        <ele>33.199646</ele>
        <time>2020-10-01T10:32:51.285Z</time>
      </trkpt>
      <trkpt lat="63.62464" lon="19.91388">
        <ele>33.148235</ele>
        <time>2020-10-01T10:32:53.281Z</time>
      </trkpt>
      <trkpt lat="63.62458" lon="19.91368">
        <ele>33.096003</ele>
        <time>2020-10-01T10:32:55.265Z</time>
      </trkpt>
      <trkpt lat="63.62452" lon="19.91347">
        <ele>33.042122</ele>
        <time>2020-10-01T10:32:57.281Z</time>
      </trkpt>
      <trkpt lat="63.62447" lon="19.91327">
        <ele>32.989586</ele>
        <time>2020-10-01T10:32:59.310Z</time>
      </trkpt>
      <trkpt lat="63.62441" lon="19.91307">
        <ele>32.938164</ele>
        <time>2020-10-01T10:33:01.274Z</time>
      </trkpt>
      <trkpt lat="63.62436" lon="19.91287">
        <ele>32.860952</ele>
        <time>2020-10-01T10:33:03.279Z</time>
      </trkpt>
      <trkpt lat="63.62431" lon="19.91268">
        <ele>32.675956</ele>
        <time>2020-10-01T10:33:05.272Z</time>
      </trkpt>
      <trkpt lat="63.62424" lon="19.91243">
        <ele>32.417926</ele>
        <time>2020-10-01T10:33:08.270Z</time>
      </trkpt>
      <trkpt lat="63.62419" lon="19.91225">
        <ele>32.237334</ele>
        <time>2020-10-01T10:33:10.283Z</time>
      </trkpt>
      <trkpt lat="63.62414" lon="19.91207">
        <ele>32.063626</ele>
        <time>2020-10-01T10:33:12.285Z</time>
      </trkpt>
      <trkpt lat="63.62409" lon="19.91189">
        <ele>31.880865</ele>
        <time>2020-10-01T10:33:14.263Z</time>
      </trkpt>
      <trkpt lat="63.62404" lon="19.9117">
        <ele>31.68837</ele>
        <time>2020-10-01T10:33:16.294Z</time>
      </trkpt>
      <trkpt lat="63.62399" lon="19.9115">
        <ele>31.495363</ele>
        <time>2020-10-01T10:33:18.282Z</time>
      </trkpt>
      <trkpt lat="63.62394" lon="19.91131">
        <ele>31.302618</ele>
        <time>2020-10-01T10:33:20.320Z</time>
      </trkpt>
      <trkpt lat="63.62389" lon="19.91112">
        <ele>31.116462</ele>
        <time>2020-10-01T10:33:22.309Z</time>
      </trkpt>
      <trkpt lat="63.62384" lon="19.91093">
        <ele>30.93104</ele>
        <time>2020-10-01T10:33:24.269Z</time>
      </trkpt>
      <trkpt lat="63.6238" lon="19.91074">
        <ele>30.746371</ele>
        <time>2020-10-01T10:33:26.330Z</time>
      </trkpt>
      <trkpt lat="63.62375" lon="19.91054">
        <ele>30.559884</ele>
        <time>2020-10-01T10:33:28.298Z</time>
      </trkpt>
      <trkpt lat="63.6237" lon="19.91036">
        <ele>30.373485</ele>
        <time>2020-10-01T10:33:30.297Z</time>
      </trkpt>
      <trkpt lat="63.62365" lon="19.91016">
        <ele>30.183643</ele>
        <time>2020-10-01T10:33:32.281Z</time>
      </trkpt>
      <trkpt lat="63.6236" lon="19.90998">
        <ele>30.008678</ele>
        <time>2020-10-01T10:33:34.276Z</time>
      </trkpt>
      <trkpt lat="63.62353" lon="19.90972">
        <ele>29.748594</ele>
        <time>2020-10-01T10:33:37.281Z</time>
      </trkpt>
      <trkpt lat="63.62349" lon="19.90955">
        <ele>29.573634</ele>
        <time>2020-10-01T10:33:39.274Z</time>
      </trkpt>
      <trkpt lat="63.62344" lon="19.90937">
        <ele>29.426979</ele>
        <time>2020-10-01T10:33:41.321Z</time>
      </trkpt>
      <trkpt lat="63.62338" lon="19.90919">
        <ele>29.338742</ele>
        <time>2020-10-01T10:33:43.296Z</time>
      </trkpt>
      <trkpt lat="63.62333" lon="19.909">
        <ele>29.247786</ele>
        <time>2020-10-01T10:33:45.281Z</time>
      </trkpt>
      <trkpt lat="63.62329" lon="19.90878">
        <ele>29.152912</ele>
        <time>2020-10-01T10:33:47.304Z</time>
      </trkpt>
      <trkpt lat="63.62327" lon="19.90853">
        <ele>29.051732</ele>
        <time>2020-10-01T10:33:49.342Z</time>
      </trkpt>
      <trkpt lat="63.62323" lon="19.9083">
        <ele>28.949341</ele>
        <time>2020-10-01T10:33:51.280Z</time>
      </trkpt>
      <trkpt lat="63.62315" lon="19.90813">
        <ele>28.847432</ele>
        <time>2020-10-01T10:33:53.273Z</time>
      </trkpt>
      <trkpt lat="63.62307" lon="19.90795">
        <ele>28.747969</ele>
        <time>2020-10-01T10:33:55.317Z</time>
      </trkpt>
      <trkpt lat="63.62302" lon="19.90776">
        <ele>28.656891</ele>
        <time>2020-10-01T10:33:57.272Z</time>
      </trkpt>
      <trkpt lat="63.62297" lon="19.90755">
        <ele>28.562274</ele>
        <time>2020-10-01T10:33:59.284Z</time>
      </trkpt>
      <trkpt lat="63.62294" lon="19.90734">
        <ele>28.46989</ele>
        <time>2020-10-01T10:34:01.315Z</time>
      </trkpt>
      <trkpt lat="63.62292" lon="19.90713">
        <ele>28.384948</ele>
        <time>2020-10-01T10:34:03.288Z</time>
      </trkpt>
      <trkpt lat="63.62291" lon="19.90691">
        <ele>28.298453</ele>
        <time>2020-10-01T10:34:05.294Z</time>
      </trkpt>
      <trkpt lat="63.62291" lon="19.9067">
        <ele>28.214276</ele>
        <time>2020-10-01T10:34:07.292Z</time>
      </trkpt>
      <trkpt lat="63.6229" lon="19.9065">
        <ele>28.130091</ele>
        <time>2020-10-01T10:34:09.280Z</time>
      </trkpt>
      <trkpt lat="63.62289" lon="19.90628">
        <ele>28.04455</ele>
        <time>2020-10-01T10:34:11.270Z</time>
      </trkpt>
      <trkpt lat="63.62289" lon="19.90607">
        <ele>27.957592</ele>
        <time>2020-10-01T10:34:13.282Z</time>
      </trkpt>
      <trkpt lat="63.62289" lon="19.90585">
        <ele>27.867819</ele>
        <time>2020-10-01T10:34:15.278Z</time>
      </trkpt>
      <trkpt lat="63.62289" lon="19.90563">
        <ele>27.834174</ele>
        <time>2020-10-01T10:34:17.299Z</time>
      </trkpt>
      <trkpt lat="63.62288" lon="19.90542">
        <ele>27.852422</ele>
        <time>2020-10-01T10:34:19.280Z</time>
      </trkpt>
      <trkpt lat="63.62288" lon="19.90519">
        <ele>27.871965</ele>
        <time>2020-10-01T10:34:21.306Z</time>
      </trkpt>
      <trkpt lat="63.62287" lon="19.90496">
        <ele>27.891985</ele>
        <time>2020-10-01T10:34:23.315Z</time>
      </trkpt>
      <trkpt lat="63.62286" lon="19.90473">
        <ele>27.911781</ele>
        <time>2020-10-01T10:34:25.285Z</time>
      </trkpt>
      <trkpt lat="63.62285" lon="19.90451">
        <ele>27.931254</ele>
        <time>2020-10-01T10:34:27.277Z</time>
      </trkpt>
      <trkpt lat="63.62284" lon="19.90429">
        <ele>27.950484</ele>
        <time>2020-10-01T10:34:29.271Z</time>
      </trkpt>
      <trkpt lat="63.62283" lon="19.90408">
        <ele>27.968766</ele>
        <time>2020-10-01T10:34:31.281Z</time>
      </trkpt>
      <trkpt lat="63.62283" lon="19.90386">
        <ele>27.987964</ele>
        <time>2020-10-01T10:34:33.282Z</time>
      </trkpt>
      <trkpt lat="63.62282" lon="19.90363">
        <ele>28.007354</ele>
        <time>2020-10-01T10:34:35.271Z</time>
      </trkpt>
      <trkpt lat="63.62282" lon="19.90341">
        <ele>28.026426</ele>
        <time>2020-10-01T10:34:37.279Z</time>
      </trkpt>
      <trkpt lat="63.62281" lon="19.90321">
        <ele>28.043902</ele>
        <time>2020-10-01T10:34:39.271Z</time>
      </trkpt>
      <trkpt lat="63.62279" lon="19.90292">
        <ele>28.068829</ele>
        <time>2020-10-01T10:34:42.283Z</time>
      </trkpt>
      <trkpt lat="63.62278" lon="19.90265">
        <ele>28.092224</ele>
        <time>2020-10-01T10:34:45.271Z</time>
      </trkpt>
      <trkpt lat="63.62278" lon="19.9024">
        <ele>28.11402</ele>
        <time>2020-10-01T10:34:48.292Z</time>
      </trkpt>
      <trkpt lat="63.62278" lon="19.90211">
        <ele>28.139176</ele>
        <time>2020-10-01T10:34:51.298Z</time>
      </trkpt>
      <trkpt lat="63.62278" lon="19.90189">
        <ele>28.158534</ele>
        <time>2020-10-01T10:34:53.284Z</time>
      </trkpt>
      <trkpt lat="63.62278" lon="19.90167">
        <ele>28.152505</ele>
        <time>2020-10-01T10:34:55.300Z</time>
      </trkpt>
      <trkpt lat="63.62277" lon="19.90146">
        <ele>28.015921</ele>
        <time>2020-10-01T10:34:57.279Z</time>
      </trkpt>
      <trkpt lat="63.62275" lon="19.90124">
        <ele>27.868223</ele>
        <time>2020-10-01T10:34:59.290Z</time>
      </trkpt>
      <trkpt lat="63.62275" lon="19.90102">
        <ele>27.726001</ele>
        <time>2020-10-01T10:35:01.291Z</time>
      </trkpt>
      <trkpt lat="63.62274" lon="19.9008">
        <ele>27.583224</ele>
        <time>2020-10-01T10:35:03.284Z</time>
      </trkpt>
      <trkpt lat="63.62274" lon="19.90058">
        <ele>27.439219</ele>
        <time>2020-10-01T10:35:05.335Z</time>
      </trkpt>
      <trkpt lat="63.62274" lon="19.90035">
        <ele>27.282263</ele>
        <time>2020-10-01T10:35:07.305Z</time>
      </trkpt>
      <trkpt lat="63.62273" lon="19.9001">
        <ele>27.118686</ele>
        <time>2020-10-01T10:35:09.280Z</time>
      </trkpt>
      <trkpt lat="63.62272" lon="19.89984">
        <ele>26.947429</ele>
        <time>2020-10-01T10:35:11.272Z</time>
      </trkpt>
      <trkpt lat="63.62272" lon="19.89958">
        <ele>26.775803</ele>
        <time>2020-10-01T10:35:13.264Z</time>
      </trkpt>
      <trkpt lat="63.62271" lon="19.89932">
        <ele>26.608474</ele>
        <time>2020-10-01T10:35:15.284Z</time>
      </trkpt>
      <trkpt lat="63.6227" lon="19.89908">
        <ele>26.448652</ele>
        <time>2020-10-01T10:35:17.285Z</time>
      </trkpt>
      <trkpt lat="63.6227" lon="19.89885">
        <ele>26.296776</ele>
        <time>2020-10-01T10:35:19.285Z</time>
      </trkpt>
      <trkpt lat="63.62269" lon="19.89863">
        <ele>26.156776</ele>
        <time>2020-10-01T10:35:21.281Z</time>
      </trkpt>
      <trkpt lat="63.62269" lon="19.89841">
        <ele>26.007699</ele>
        <time>2020-10-01T10:35:23.286Z</time>
      </trkpt>
      <trkpt lat="63.62268" lon="19.89811">
        <ele>25.813189</ele>
        <time>2020-10-01T10:35:26.267Z</time>
      </trkpt>
      <trkpt lat="63.62267" lon="19.89791">
        <ele>25.679356</ele>
        <time>2020-10-01T10:35:28.308Z</time>
      </trkpt>
      <trkpt lat="63.62265" lon="19.8977">
        <ele>25.537734</ele>
        <time>2020-10-01T10:35:30.274Z</time>
      </trkpt>
      <trkpt lat="63.62263" lon="19.89748">
        <ele>25.817168</ele>
        <time>2020-10-01T10:35:32.277Z</time>
      </trkpt>
      <trkpt lat="63.62262" lon="19.89726">
        <ele>26.172504</ele>
        <time>2020-10-01T10:35:34.272Z</time>
      </trkpt>
      <trkpt lat="63.62258" lon="19.89705">
        <ele>26.533375</ele>
        <time>2020-10-01T10:35:36.334Z</time>
      </trkpt>
      <trkpt lat="63.62253" lon="19.89686">
        <ele>26.871261</ele>
        <time>2020-10-01T10:35:38.305Z</time>
      </trkpt>
      <trkpt lat="63.62248" lon="19.8967">
        <ele>27.197461</ele>
        <time>2020-10-01T10:35:40.269Z</time>
      </trkpt>
      <trkpt lat="63.62241" lon="19.89655">
        <ele>27.519872</ele>
        <time>2020-10-01T10:35:42.285Z</time>
      </trkpt>
      <trkpt lat="63.62235" lon="19.8964">
        <ele>27.845061</ele>
        <time>2020-10-01T10:35:44.269Z</time>
      </trkpt>
      <trkpt lat="63.62227" lon="19.89618">
        <ele>28.306124</ele>
        <time>2020-10-01T10:35:47.289Z</time>
      </trkpt>
      <trkpt lat="63.6222" lon="19.89603">
        <ele>28.629797</ele>
        <time>2020-10-01T10:35:49.300Z</time>
      </trkpt>
      <trkpt lat="63.62212" lon="19.89581">
        <ele>29.100487</ele>
        <time>2020-10-01T10:35:52.288Z</time>
      </trkpt>
      <trkpt lat="63.62206" lon="19.89564">
        <ele>29.441907</ele>
        <time>2020-10-01T10:35:54.280Z</time>
      </trkpt>
      <trkpt lat="63.62199" lon="19.89548">
        <ele>29.785651</ele>
        <time>2020-10-01T10:35:56.284Z</time>
      </trkpt>
      <trkpt lat="63.62192" lon="19.89531">
        <ele>30.154258</ele>
        <time>2020-10-01T10:35:58.291Z</time>
      </trkpt>
      <trkpt lat="63.62186" lon="19.89512">
        <ele>30.527973</ele>
        <time>2020-10-01T10:36:00.296Z</time>
      </trkpt>
      <trkpt lat="63.62179" lon="19.89495">
        <ele>30.882477</ele>
        <time>2020-10-01T10:36:02.278Z</time>
      </trkpt>
      <trkpt lat="63.62173" lon="19.89478">
        <ele>31.238088</ele>
        <time>2020-10-01T10:36:04.289Z</time>
      </trkpt>
      <trkpt lat="63.62167" lon="19.89462">
        <ele>31.579511</ele>
        <time>2020-10-01T10:36:06.303Z</time>
      </trkpt>
      <trkpt lat="63.62161" lon="19.89445">
        <ele>31.911861</ele>
        <time>2020-10-01T10:36:08.286Z</time>
      </trkpt>
      <trkpt lat="63.62155" lon="19.8943">
        <ele>32.119892</ele>
        <time>2020-10-01T10:36:10.297Z</time>
      </trkpt>
      <trkpt lat="63.62148" lon="19.89415">
        <ele>32.329712</ele>
        <time>2020-10-01T10:36:12.286Z</time>
      </trkpt>
      <trkpt lat="63.62141" lon="19.894">
        <ele>32.538839</ele>
        <time>2020-10-01T10:36:14.318Z</time>
      </trkpt>
      <trkpt lat="63.62134" lon="19.89384">
        <ele>32.756111</ele>
        <time>2020-10-01T10:36:16.303Z</time>
      </trkpt>
      <trkpt lat="63.62128" lon="19.89369">
        <ele>32.965087</ele>
        <time>2020-10-01T10:36:18.287Z</time>
      </trkpt>
      <trkpt lat="63.62122" lon="19.89354">
        <ele>33.165943</ele>
        <time>2020-10-01T10:36:20.323Z</time>
      </trkpt>
      <trkpt lat="63.62115" lon="19.89339">
        <ele>33.38235</ele>
        <time>2020-10-01T10:36:22.287Z</time>
      </trkpt>
      <trkpt lat="63.62108" lon="19.89323">
        <ele>33.597212</ele>
        <time>2020-10-01T10:36:24.280Z</time>
      </trkpt>
      <trkpt lat="63.62101" lon="19.89307">
        <ele>33.809132</ele>
        <time>2020-10-01T10:36:26.297Z</time>
      </trkpt>
      <trkpt lat="63.62095" lon="19.89291">
        <ele>34.020361</ele>
        <time>2020-10-01T10:36:28.280Z</time>
      </trkpt>
      <trkpt lat="63.62089" lon="19.89274">
        <ele>34.235797</ele>
        <time>2020-10-01T10:36:30.310Z</time>
      </trkpt>
      <trkpt lat="63.62082" lon="19.89258">
        <ele>34.450545</ele>
        <time>2020-10-01T10:36:32.266Z</time>
      </trkpt>
      <trkpt lat="63.62076" lon="19.89241">
        <ele>34.668114</ele>
        <time>2020-10-01T10:36:34.272Z</time>
      </trkpt>
      <trkpt lat="63.62069" lon="19.89225">
        <ele>34.884237</ele>
        <time>2020-10-01T10:36:36.272Z</time>
      </trkpt>
      <trkpt lat="63.62063" lon="19.89208">
        <ele>35.093086</ele>
        <time>2020-10-01T10:36:38.308Z</time>
      </trkpt>
      <trkpt lat="63.62057" lon="19.89193">
        <ele>35.304823</ele>
        <time>2020-10-01T10:36:40.273Z</time>
      </trkpt>
      <trkpt lat="63.6205" lon="19.89176">
        <ele>35.528986</ele>
        <time>2020-10-01T10:36:42.288Z</time>
      </trkpt>
      <trkpt lat="63.62043" lon="19.8916">
        <ele>35.744007</ele>
        <time>2020-10-01T10:36:44.268Z</time>
      </trkpt>
      <trkpt lat="63.62036" lon="19.89144">
        <ele>35.941165</ele>
        <time>2020-10-01T10:36:46.286Z</time>
      </trkpt>
      <trkpt lat="63.62029" lon="19.89128">
        <ele>36.086383</ele>
        <time>2020-10-01T10:36:48.279Z</time>
      </trkpt>
      <trkpt lat="63.62023" lon="19.89112">
        <ele>36.231127</ele>
        <time>2020-10-01T10:36:50.293Z</time>
      </trkpt>
      <trkpt lat="63.62016" lon="19.89096">
        <ele>36.373253</ele>
        <time>2020-10-01T10:36:52.277Z</time>
      </trkpt>
      <trkpt lat="63.62007" lon="19.89075">
        <ele>36.570241</ele>
        <time>2020-10-01T10:36:55.296Z</time>
      </trkpt>
      <trkpt lat="63.62001" lon="19.8906">
        <ele>36.707056</ele>
        <time>2020-10-01T10:36:57.271Z</time>
      </trkpt>
      <trkpt lat="63.61994" lon="19.89045">
        <ele>36.846422</ele>
        <time>2020-10-01T10:36:59.271Z</time>
      </trkpt>
      <trkpt lat="63.61987" lon="19.89031">
        <ele>36.982086</ele>
        <time>2020-10-01T10:37:01.278Z</time>
      </trkpt>
      <trkpt lat="63.6198" lon="19.89016">
        <ele>37.12344</ele>
        <time>2020-10-01T10:37:03.319Z</time>
      </trkpt>
      <trkpt lat="63.61973" lon="19.89002">
        <ele>37.265248</ele>
        <time>2020-10-01T10:37:05.275Z</time>
      </trkpt>
      <trkpt lat="63.61966" lon="19.88988">
        <ele>37.407324</ele>
        <time>2020-10-01T10:37:07.285Z</time>
      </trkpt>
      <trkpt lat="63.61959" lon="19.88975">
        <ele>37.544724</ele>
        <time>2020-10-01T10:37:09.288Z</time>
      </trkpt>
      <trkpt lat="63.61949" lon="19.88956">
        <ele>37.732079</ele>
        <time>2020-10-01T10:37:12.321Z</time>
      </trkpt>
      <trkpt lat="63.61942" lon="19.88942">
        <ele>37.875195</ele>
        <time>2020-10-01T10:37:15.287Z</time>
      </trkpt>
      <trkpt lat="63.61935" lon="19.88925">
        <ele>38.033939</ele>
        <time>2020-10-01T10:37:19.282Z</time>
      </trkpt>
      <trkpt lat="63.61926" lon="19.88908">
        <ele>38.198952</ele>
        <time>2020-10-01T10:37:23.265Z</time>
      </trkpt>
      <trkpt lat="63.61917" lon="19.88891">
        <ele>38.373109</ele>
        <time>2020-10-01T10:37:27.283Z</time>
      </trkpt>
      <trkpt lat="63.61909" lon="19.88875">
        <ele>38.536348</ele>
        <time>2020-10-01T10:37:31.286Z</time>
      </trkpt>
      <trkpt lat="63.619" lon="19.8886">
        <ele>38.50427</ele>
        <time>2020-10-01T10:37:35.273Z</time>
      </trkpt>
      <trkpt lat="63.61893" lon="19.88847">
        <ele>38.431211</ele>
        <time>2020-10-01T10:37:38.330Z</time>
      </trkpt>
      <trkpt lat="63.61885" lon="19.88832">
        <ele>38.348682</ele>
        <time>2020-10-01T10:37:42.323Z</time>
      </trkpt>
      <trkpt lat="63.61877" lon="19.88816">
        <ele>38.262199</ele>
        <time>2020-10-01T10:37:46.285Z</time>
      </trkpt>
      <trkpt lat="63.61869" lon="19.88802">
        <ele>38.182711</ele>
        <time>2020-10-01T10:37:49.296Z</time>
      </trkpt>
      <trkpt lat="63.6186" lon="19.88789">
        <ele>38.097984</ele>
        <time>2020-10-01T10:37:52.287Z</time>
      </trkpt>
      <trkpt lat="63.61852" lon="19.88775">
        <ele>38.016807</ele>
        <time>2020-10-01T10:37:55.297Z</time>
      </trkpt>
      <trkpt lat="63.61844" lon="19.88762">
        <ele>37.933904</ele>
        <time>2020-10-01T10:37:58.301Z</time>
      </trkpt>
      <trkpt lat="63.61835" lon="19.88749">
        <ele>37.848306</ele>
        <time>2020-10-01T10:38:01.281Z</time>
      </trkpt>
      <trkpt lat="63.61826" lon="19.88736">
        <ele>37.762982</ele>
        <time>2020-10-01T10:38:04.292Z</time>
      </trkpt>
      <trkpt lat="63.61817" lon="19.88722">
        <ele>37.676191</ele>
        <time>2020-10-01T10:38:07.281Z</time>
      </trkpt>
      <trkpt lat="63.61808" lon="19.88709">
        <ele>37.591186</ele>
        <time>2020-10-01T10:38:10.269Z</time>
      </trkpt>
      <trkpt lat="63.61799" lon="19.88693">
        <ele>37.502095</ele>
        <time>2020-10-01T10:38:13.266Z</time>
      </trkpt>
      <trkpt lat="63.6179" lon="19.88679">
        <ele>37.410058</ele>
        <time>2020-10-01T10:38:16.319Z</time>
      </trkpt>
      <trkpt lat="63.6178" lon="19.88664">
        <ele>37.315106</ele>
        <time>2020-10-01T10:38:19.299Z</time>
      </trkpt>
      <trkpt lat="63.6177" lon="19.88647">
        <ele>37.217045</ele>
        <time>2020-10-01T10:38:22.284Z</time>
      </trkpt>
      <trkpt lat="63.61761" lon="19.88633">
        <ele>37.103446</ele>
        <time>2020-10-01T10:38:25.285Z</time>
      </trkpt>
      <trkpt lat="63.61751" lon="19.88618">
        <ele>36.760234</ele>
        <time>2020-10-01T10:38:28.312Z</time>
      </trkpt>
      <trkpt lat="63.61742" lon="19.88602">
        <ele>36.405181</ele>
        <time>2020-10-01T10:38:31.300Z</time>
      </trkpt>
      <trkpt lat="63.61732" lon="19.88585">
        <ele>36.037371</ele>
        <time>2020-10-01T10:38:34.270Z</time>
      </trkpt>
      <trkpt lat="63.61722" lon="19.88567">
        <ele>35.666419</ele>
        <time>2020-10-01T10:38:37.282Z</time>
      </trkpt>
      <trkpt lat="63.61712" lon="19.88551">
        <ele>35.305014</ele>
        <time>2020-10-01T10:38:40.276Z</time>
      </trkpt>
      <trkpt lat="63.61703" lon="19.88534">
        <ele>34.952878</ele>
        <time>2020-10-01T10:38:43.286Z</time>
      </trkpt>
      <trkpt lat="63.61694" lon="19.88519">
        <ele>34.629443</ele>
        <time>2020-10-01T10:38:46.309Z</time>
      </trkpt>
      <trkpt lat="63.61686" lon="19.88506">
        <ele>34.329784</ele>
        <time>2020-10-01T10:38:49.317Z</time>
      </trkpt>
      <trkpt lat="63.61679" lon="19.88493">
        <ele>34.055428</ele>
        <time>2020-10-01T10:38:52.282Z</time>
      </trkpt>
      <trkpt lat="63.61672" lon="19.88481">
        <ele>33.788149</ele>
        <time>2020-10-01T10:38:55.261Z</time>
      </trkpt>
      <trkpt lat="63.61663" lon="19.88465">
        <ele>33.46665</ele>
        <time>2020-10-01T10:38:59.268Z</time>
      </trkpt>
      <trkpt lat="63.61655" lon="19.88451">
        <ele>33.163278</ele>
        <time>2020-10-01T10:39:03.284Z</time>
      </trkpt>
      <trkpt lat="63.61648" lon="19.88435">
        <ele>32.865681</ele>
        <time>2020-10-01T10:39:07.280Z</time>
      </trkpt>
      <trkpt lat="63.6164" lon="19.88418">
        <ele>32.539053</ele>
        <time>2020-10-01T10:39:11.298Z</time>
      </trkpt>
      <trkpt lat="63.61632" lon="19.88402">
        <ele>32.221961</ele>
        <time>2020-10-01T10:39:15.295Z</time>
      </trkpt>
      <trkpt lat="63.61624" lon="19.88383">
        <ele>31.868814</ele>
        <time>2020-10-01T10:39:19.283Z</time>
      </trkpt>
      <trkpt lat="63.61617" lon="19.88368">
        <ele>31.715961</ele>
        <time>2020-10-01T10:39:22.308Z</time>
      </trkpt>
      <trkpt lat="63.6161" lon="19.88352">
        <ele>31.597437</ele>
        <time>2020-10-01T10:39:25.298Z</time>
      </trkpt>
      <trkpt lat="63.61603" lon="19.88337">
        <ele>31.48334</ele>
        <time>2020-10-01T10:39:28.295Z</time>
      </trkpt>
      <trkpt lat="63.61596" lon="19.8832">
        <ele>31.366819</ele>
        <time>2020-10-01T10:39:31.300Z</time>
      </trkpt>
      <trkpt lat="63.61589" lon="19.88302">
        <ele>31.242916</ele>
        <time>2020-10-01T10:39:34.295Z</time>
      </trkpt>
      <trkpt lat="63.61581" lon="19.88284">
        <ele>31.108382</ele>
        <time>2020-10-01T10:39:37.290Z</time>
      </trkpt>
      <trkpt lat="63.61573" lon="19.88265">
        <ele>30.967946</ele>
        <time>2020-10-01T10:39:40.281Z</time>
      </trkpt>
      <trkpt lat="63.61566" lon="19.88251">
        <ele>30.861384</ele>
        <time>2020-10-01T10:39:42.291Z</time>
      </trkpt>
      <trkpt lat="63.61559" lon="19.88236">
        <ele>30.739472</ele>
        <time>2020-10-01T10:39:44.281Z</time>
      </trkpt>
      <trkpt lat="63.61551" lon="19.88218">
        <ele>30.614792</ele>
        <time>2020-10-01T10:39:46.302Z</time>
      </trkpt>
      <trkpt lat="63.61544" lon="19.882">
        <ele>30.483821</ele>
        <time>2020-10-01T10:39:48.295Z</time>
      </trkpt>
      <trkpt lat="63.61535" lon="19.88179">
        <ele>30.333273</ele>
        <time>2020-10-01T10:39:50.285Z</time>
      </trkpt>
      <trkpt lat="63.61526" lon="19.88157">
        <ele>30.175757</ele>
        <time>2020-10-01T10:39:52.313Z</time>
      </trkpt>
      <trkpt lat="63.61516" lon="19.88132">
        <ele>30.001442</ele>
        <time>2020-10-01T10:39:54.266Z</time>
      </trkpt>
      <trkpt lat="63.61506" lon="19.88108">
        <ele>29.830174</ele>
        <time>2020-10-01T10:39:56.284Z</time>
      </trkpt>
      <trkpt lat="63.61495" lon="19.88083">
        <ele>29.623509</ele>
        <time>2020-10-01T10:39:58.273Z</time>
      </trkpt>
      <trkpt lat="63.61485" lon="19.88059">
        <ele>29.307227</ele>
        <time>2020-10-01T10:40:00.312Z</time>
      </trkpt>
      <trkpt lat="63.61475" lon="19.88037">
        <ele>29.004817</ele>
        <time>2020-10-01T10:40:02.269Z</time>
      </trkpt>
      <trkpt lat="63.61465" lon="19.88015">
        <ele>28.727613</ele>
        <time>2020-10-01T10:40:04.272Z</time>
      </trkpt>
      <trkpt lat="63.61457" lon="19.87996">
        <ele>28.471266</ele>
        <time>2020-10-01T10:40:06.269Z</time>
      </trkpt>
      <trkpt lat="63.61449" lon="19.87978">
        <ele>28.240435</ele>
        <time>2020-10-01T10:40:08.273Z</time>
      </trkpt>
      <trkpt lat="63.61443" lon="19.87961">
        <ele>28.026463</ele>
        <time>2020-10-01T10:40:10.310Z</time>
      </trkpt>
      <trkpt lat="63.61436" lon="19.87945">
        <ele>27.823663</ele>
        <time>2020-10-01T10:40:12.281Z</time>
      </trkpt>
      <trkpt lat="63.6143" lon="19.87929">
        <ele>27.619436</ele>
        <time>2020-10-01T10:40:14.284Z</time>
      </trkpt>
      <trkpt lat="63.61423" lon="19.87912">
        <ele>27.413159</ele>
        <time>2020-10-01T10:40:16.289Z</time>
      </trkpt>
      <trkpt lat="63.61416" lon="19.87896">
        <ele>27.208851</ele>
        <time>2020-10-01T10:40:18.280Z</time>
      </trkpt>
      <trkpt lat="63.6141" lon="19.87881">
        <ele>27.012182</ele>
        <time>2020-10-01T10:40:20.272Z</time>
      </trkpt>
      <trkpt lat="63.61403" lon="19.87866">
        <ele>26.81041</ele>
        <time>2020-10-01T10:40:22.301Z</time>
      </trkpt>
      <trkpt lat="63.61397" lon="19.87851">
        <ele>26.614521</ele>
        <time>2020-10-01T10:40:24.309Z</time>
      </trkpt>
      <trkpt lat="63.6139" lon="19.87836">
        <ele>26.420996</ele>
        <time>2020-10-01T10:40:26.286Z</time>
      </trkpt>
      <trkpt lat="63.61384" lon="19.87822">
        <ele>26.228768</ele>
        <time>2020-10-01T10:40:28.285Z</time>
      </trkpt>
      <trkpt lat="63.61377" lon="19.87808">
        <ele>26.038056</ele>
        <time>2020-10-01T10:40:30.284Z</time>
      </trkpt>
      <trkpt lat="63.61368" lon="19.87789">
        <ele>26.440248</ele>
        <time>2020-10-01T10:40:33.282Z</time>
      </trkpt>
      <trkpt lat="63.6136" lon="19.87771">
        <ele>27.528544</ele>
        <time>2020-10-01T10:40:36.270Z</time>
      </trkpt>
      <trkpt lat="63.61351" lon="19.87753">
        <ele>28.615718</ele>
        <time>2020-10-01T10:40:39.357Z</time>
      </trkpt>
      <trkpt lat="63.61344" lon="19.87736">
        <ele>29.672088</ele>
        <time>2020-10-01T10:40:42.277Z</time>
      </trkpt>
      <trkpt lat="63.61335" lon="19.8772">
        <ele>30.690244</ele>
        <time>2020-10-01T10:40:45.285Z</time>
      </trkpt>
      <trkpt lat="63.61327" lon="19.87706">
        <ele>31.684</ele>
        <time>2020-10-01T10:40:48.311Z</time>
      </trkpt>
      <trkpt lat="63.61319" lon="19.87691">
        <ele>32.631519</ele>
        <time>2020-10-01T10:40:51.280Z</time>
      </trkpt>
      <trkpt lat="63.61312" lon="19.87676">
        <ele>33.601267</ele>
        <time>2020-10-01T10:40:54.281Z</time>
      </trkpt>
      <trkpt lat="63.61302" lon="19.87661">
        <ele>34.674785</ele>
        <time>2020-10-01T10:40:57.278Z</time>
      </trkpt>
      <trkpt lat="63.61293" lon="19.87648">
        <ele>35.742407</ele>
        <time>2020-10-01T10:41:00.316Z</time>
      </trkpt>
      <trkpt lat="63.61286" lon="19.87635">
        <ele>36.598424</ele>
        <time>2020-10-01T10:41:03.289Z</time>
      </trkpt>
      <trkpt lat="63.61277" lon="19.8762">
        <ele>37.650856</ele>
        <time>2020-10-01T10:41:07.282Z</time>
      </trkpt>
      <trkpt lat="63.61269" lon="19.87607">
        <ele>38.60163</ele>
        <time>2020-10-01T10:41:11.268Z</time>
      </trkpt>
      <trkpt lat="63.6126" lon="19.87594">
        <ele>39.643059</ele>
        <time>2020-10-01T10:41:15.284Z</time>
      </trkpt>
      <trkpt lat="63.61251" lon="19.87581">
        <ele>40.618426</ele>
        <time>2020-10-01T10:41:19.261Z</time>
      </trkpt>
      <trkpt lat="63.61244" lon="19.87568">
        <ele>41.481717</ele>
        <time>2020-10-01T10:41:23.305Z</time>
      </trkpt>
      <trkpt lat="63.61237" lon="19.87553">
        <ele>42.367125</ele>
        <time>2020-10-01T10:41:27.285Z</time>
      </trkpt>
      <trkpt lat="63.6122" lon="19.8755">
        <ele>42.650223</ele>
        <time>2020-10-01T11:07:35.062Z</time>
      </trkpt>
      <trkpt lat="63.61211" lon="19.87533">
        <ele>42.327562</ele>
        <time>2020-10-01T11:07:39.059Z</time>
      </trkpt>
      <trkpt lat="63.61204" lon="19.87519">
        <ele>42.063047</ele>
        <time>2020-10-01T11:07:42.088Z</time>
      </trkpt>
      <trkpt lat="63.61195" lon="19.87504">
        <ele>41.766262</ele>
        <time>2020-10-01T11:07:45.069Z</time>
      </trkpt>
      <trkpt lat="63.61187" lon="19.8749">
        <ele>41.472394</ele>
        <time>2020-10-01T11:07:48.051Z</time>
      </trkpt>
      <trkpt lat="63.61177" lon="19.87474">
        <ele>41.147842</ele>
        <time>2020-10-01T11:07:51.070Z</time>
      </trkpt>
      <trkpt lat="63.61167" lon="19.87455">
        <ele>40.784433</ele>
        <time>2020-10-01T11:07:54.055Z</time>
      </trkpt>
      <trkpt lat="63.6116" lon="19.87442">
        <ele>40.530411</ele>
        <time>2020-10-01T11:07:56.049Z</time>
      </trkpt>
      <trkpt lat="63.61153" lon="19.87429">
        <ele>40.282385</ele>
        <time>2020-10-01T11:07:58.055Z</time>
      </trkpt>
      <trkpt lat="63.61143" lon="19.8741">
        <ele>39.925386</ele>
        <time>2020-10-01T11:08:01.065Z</time>
      </trkpt>
      <trkpt lat="63.61134" lon="19.87389">
        <ele>39.568507</ele>
        <time>2020-10-01T11:08:04.096Z</time>
      </trkpt>
      <trkpt lat="63.61124" lon="19.87369">
        <ele>39.217243</ele>
        <time>2020-10-01T11:08:07.049Z</time>
      </trkpt>
      <trkpt lat="63.61118" lon="19.87354">
        <ele>38.96933</ele>
        <time>2020-10-01T11:08:09.052Z</time>
      </trkpt>
      <trkpt lat="63.61112" lon="19.87339">
        <ele>38.712535</ele>
        <time>2020-10-01T11:08:11.049Z</time>
      </trkpt>
      <trkpt lat="63.61105" lon="19.87323">
        <ele>38.455674</ele>
        <time>2020-10-01T11:08:13.064Z</time>
      </trkpt>
      <trkpt lat="63.61098" lon="19.87306">
        <ele>38.161913</ele>
        <time>2020-10-01T11:08:15.088Z</time>
      </trkpt>
      <trkpt lat="63.61089" lon="19.87288">
        <ele>37.82825</ele>
        <time>2020-10-01T11:08:17.052Z</time>
      </trkpt>
      <trkpt lat="63.6108" lon="19.87268">
        <ele>37.46509</ele>
        <time>2020-10-01T11:08:19.080Z</time>
      </trkpt>
      <trkpt lat="63.61071" lon="19.87246">
        <ele>37.078053</ele>
        <time>2020-10-01T11:08:21.066Z</time>
      </trkpt>
      <trkpt lat="63.61061" lon="19.87221">
        <ele>36.647111</ele>
        <time>2020-10-01T11:08:23.048Z</time>
      </trkpt>
      <trkpt lat="63.6105" lon="19.87195">
        <ele>36.194868</ele>
        <time>2020-10-01T11:08:25.062Z</time>
      </trkpt>
      <trkpt lat="63.6104" lon="19.87171">
        <ele>35.770609</ele>
        <time>2020-10-01T11:08:27.048Z</time>
      </trkpt>
      <trkpt lat="63.6103" lon="19.87147">
        <ele>35.340215</ele>
        <time>2020-10-01T11:08:29.066Z</time>
      </trkpt>
      <trkpt lat="63.61021" lon="19.87126">
        <ele>34.955617</ele>
        <time>2020-10-01T11:08:31.068Z</time>
      </trkpt>
      <trkpt lat="63.61011" lon="19.87105">
        <ele>34.581773</ele>
        <time>2020-10-01T11:08:33.065Z</time>
      </trkpt>
      <trkpt lat="63.61002" lon="19.87086">
        <ele>34.224538</ele>
        <time>2020-10-01T11:08:35.078Z</time>
      </trkpt>
      <trkpt lat="63.60994" lon="19.87066">
        <ele>33.870731</ele>
        <time>2020-10-01T11:08:37.078Z</time>
      </trkpt>
      <trkpt lat="63.60985" lon="19.87047">
        <ele>33.525708</ele>
        <time>2020-10-01T11:08:39.077Z</time>
      </trkpt>
      <trkpt lat="63.60977" lon="19.87029">
        <ele>33.192749</ele>
        <time>2020-10-01T11:08:41.060Z</time>
      </trkpt>
      <trkpt lat="63.60969" lon="19.87011">
        <ele>32.858864</ele>
        <time>2020-10-01T11:08:43.058Z</time>
      </trkpt>
      <trkpt lat="63.60961" lon="19.86993">
        <ele>32.997451</ele>
        <time>2020-10-01T11:08:45.044Z</time>
      </trkpt>
      <trkpt lat="63.60954" lon="19.86978">
        <ele>33.152602</ele>
        <time>2020-10-01T11:08:47.039Z</time>
      </trkpt>
      <trkpt lat="63.60947" lon="19.86964">
        <ele>33.296505</ele>
        <time>2020-10-01T11:08:49.050Z</time>
      </trkpt>
      <trkpt lat="63.60938" lon="19.86943">
        <ele>33.49196</ele>
        <time>2020-10-01T11:08:52.063Z</time>
      </trkpt>
      <trkpt lat="63.6093" lon="19.86925">
        <ele>33.673157</ele>
        <time>2020-10-01T11:08:55.062Z</time>
      </trkpt>
      <trkpt lat="63.60923" lon="19.86908">
        <ele>33.836234</ele>
        <time>2020-10-01T11:08:58.061Z</time>
      </trkpt>
      <trkpt lat="63.60916" lon="19.8689">
        <ele>33.996207</ele>
        <time>2020-10-01T11:09:01.058Z</time>
      </trkpt>
      <trkpt lat="63.60909" lon="19.86873">
        <ele>34.158377</ele>
        <time>2020-10-01T11:09:04.066Z</time>
      </trkpt>
      <trkpt lat="63.60902" lon="19.86857">
        <ele>34.317839</ele>
        <time>2020-10-01T11:09:07.058Z</time>
      </trkpt>
      <trkpt lat="63.60895" lon="19.86839">
        <ele>34.484552</ele>
        <time>2020-10-01T11:09:10.077Z</time>
      </trkpt>
      <trkpt lat="63.60888" lon="19.86821">
        <ele>34.65075</ele>
        <time>2020-10-01T11:09:13.057Z</time>
      </trkpt>
      <trkpt lat="63.6088" lon="19.86802">
        <ele>34.827377</ele>
        <time>2020-10-01T11:09:16.041Z</time>
      </trkpt>
      <trkpt lat="63.60871" lon="19.86781">
        <ele>35.033682</ele>
        <time>2020-10-01T11:09:19.085Z</time>
      </trkpt>
      <trkpt lat="63.60865" lon="19.86764">
        <ele>35.183292</ele>
        <time>2020-10-01T11:09:21.056Z</time>
      </trkpt>
      <trkpt lat="63.60858" lon="19.86746">
        <ele>35.349488</ele>
        <time>2020-10-01T11:09:23.052Z</time>
      </trkpt>
      <trkpt lat="63.60851" lon="19.86729">
        <ele>35.513672</ele>
        <time>2020-10-01T11:09:25.055Z</time>
      </trkpt>
      <trkpt lat="63.60843" lon="19.8671">
        <ele>35.515547</ele>
        <time>2020-10-01T11:09:27.076Z</time>
      </trkpt>
      <trkpt lat="63.60835" lon="19.86689">
        <ele>34.952602</ele>
        <time>2020-10-01T11:09:29.059Z</time>
      </trkpt>
      <trkpt lat="63.60826" lon="19.86667">
        <ele>34.350555</ele>
        <time>2020-10-01T11:09:31.062Z</time>
      </trkpt>
      <trkpt lat="63.60816" lon="19.86646">
        <ele>33.758282</ele>
        <time>2020-10-01T11:09:33.041Z</time>
      </trkpt>
      <trkpt lat="63.60807" lon="19.86627">
        <ele>33.204477</ele>
        <time>2020-10-01T11:09:35.062Z</time>
      </trkpt>
      <trkpt lat="63.60799" lon="19.86608">
        <ele>32.676098</ele>
        <time>2020-10-01T11:09:37.099Z</time>
      </trkpt>
      <trkpt lat="63.60791" lon="19.86592">
        <ele>32.204123</ele>
        <time>2020-10-01T11:09:39.054Z</time>
      </trkpt>
      <trkpt lat="63.60784" lon="19.86577">
        <ele>31.773701</ele>
        <time>2020-10-01T11:09:41.077Z</time>
      </trkpt>
      <trkpt lat="63.60776" lon="19.86557">
        <ele>31.210016</ele>
        <time>2020-10-01T11:09:44.065Z</time>
      </trkpt>
      <trkpt lat="63.60767" lon="19.86539">
        <ele>30.695046</ele>
        <time>2020-10-01T11:09:47.043Z</time>
      </trkpt>
      <trkpt lat="63.60759" lon="19.86521">
        <ele>30.182215</ele>
        <time>2020-10-01T11:09:50.055Z</time>
      </trkpt>
      <trkpt lat="63.60751" lon="19.86502">
        <ele>29.64922</ele>
        <time>2020-10-01T11:09:53.048Z</time>
      </trkpt>
      <trkpt lat="63.60742" lon="19.86482">
        <ele>29.102105</ele>
        <time>2020-10-01T11:09:56.051Z</time>
      </trkpt>
      <trkpt lat="63.60733" lon="19.86463">
        <ele>28.519998</ele>
        <time>2020-10-01T11:09:59.055Z</time>
      </trkpt>
      <trkpt lat="63.60726" lon="19.86447">
        <ele>28.086291</ele>
        <time>2020-10-01T11:10:01.053Z</time>
      </trkpt>
      <trkpt lat="63.60719" lon="19.86431">
        <ele>27.639444</ele>
        <time>2020-10-01T11:10:03.071Z</time>
      </trkpt>
      <trkpt lat="63.60712" lon="19.86413">
        <ele>27.555774</ele>
        <time>2020-10-01T11:10:05.079Z</time>
      </trkpt>
      <trkpt lat="63.60704" lon="19.86394">
        <ele>27.546092</ele>
        <time>2020-10-01T11:10:07.062Z</time>
      </trkpt>
      <trkpt lat="63.60696" lon="19.86375">
        <ele>27.536385</ele>
        <time>2020-10-01T11:10:09.064Z</time>
      </trkpt>
      <trkpt lat="63.60688" lon="19.86355">
        <ele>27.526481</ele>
        <time>2020-10-01T11:10:11.060Z</time>
      </trkpt>
      <trkpt lat="63.60679" lon="19.86335">
        <ele>27.516412</ele>
        <time>2020-10-01T11:10:13.067Z</time>
      </trkpt>
      <trkpt lat="63.60671" lon="19.86315">
        <ele>27.506289</ele>
        <time>2020-10-01T11:10:15.040Z</time>
      </trkpt>
      <trkpt lat="63.60662" lon="19.86295">
        <ele>27.495856</ele>
        <time>2020-10-01T11:10:17.040Z</time>
      </trkpt>
      <trkpt lat="63.60653" lon="19.86275">
        <ele>27.485164</ele>
        <time>2020-10-01T11:10:19.098Z</time>
      </trkpt>
      <trkpt lat="63.60645" lon="19.86254">
        <ele>27.474708</ele>
        <time>2020-10-01T11:10:21.080Z</time>
      </trkpt>
      <trkpt lat="63.60636" lon="19.86235">
        <ele>27.464777</ele>
        <time>2020-10-01T11:10:23.087Z</time>
      </trkpt>
      <trkpt lat="63.60628" lon="19.86216">
        <ele>27.455175</ele>
        <time>2020-10-01T11:10:25.048Z</time>
      </trkpt>
      <trkpt lat="63.60621" lon="19.86196">
        <ele>27.445358</ele>
        <time>2020-10-01T11:10:27.042Z</time>
      </trkpt>
      <trkpt lat="63.60613" lon="19.86176">
        <ele>27.435347</ele>
        <time>2020-10-01T11:10:29.068Z</time>
      </trkpt>
      <trkpt lat="63.60604" lon="19.86157">
        <ele>27.425603</ele>
        <time>2020-10-01T11:10:31.101Z</time>
      </trkpt>
      <trkpt lat="63.60597" lon="19.86139">
        <ele>27.416381</ele>
        <time>2020-10-01T11:10:33.055Z</time>
      </trkpt>
      <trkpt lat="63.60589" lon="19.86121">
        <ele>27.496801</ele>
        <time>2020-10-01T11:10:35.059Z</time>
      </trkpt>
      <trkpt lat="63.60581" lon="19.86103">
        <ele>27.604263</ele>
        <time>2020-10-01T11:10:37.061Z</time>
      </trkpt>
      <trkpt lat="63.60574" lon="19.86087">
        <ele>27.705533</ele>
        <time>2020-10-01T11:10:39.052Z</time>
      </trkpt>
      <trkpt lat="63.60567" lon="19.86071">
        <ele>27.807688</ele>
        <time>2020-10-01T11:10:41.042Z</time>
      </trkpt>
      <trkpt lat="63.6056" lon="19.86055">
        <ele>27.905287</ele>
        <time>2020-10-01T11:10:43.070Z</time>
      </trkpt>
      <trkpt lat="63.60554" lon="19.8604">
        <ele>27.995483</ele>
        <time>2020-10-01T11:10:45.050Z</time>
      </trkpt>
      <trkpt lat="63.60547" lon="19.86025">
        <ele>28.087634</ele>
        <time>2020-10-01T11:10:47.049Z</time>
      </trkpt>
      <trkpt lat="63.60541" lon="19.8601">
        <ele>28.177536</ele>
        <time>2020-10-01T11:10:49.056Z</time>
      </trkpt>
      <trkpt lat="63.60534" lon="19.85995">
        <ele>28.273577</ele>
        <time>2020-10-01T11:10:51.070Z</time>
      </trkpt>
      <trkpt lat="63.60527" lon="19.8598">
        <ele>28.372378</ele>
        <time>2020-10-01T11:10:53.062Z</time>
      </trkpt>
      <trkpt lat="63.6052" lon="19.85963">
        <ele>28.475919</ele>
        <time>2020-10-01T11:10:55.057Z</time>
      </trkpt>
      <trkpt lat="63.60512" lon="19.85946">
        <ele>28.581737</ele>
        <time>2020-10-01T11:10:57.044Z</time>
      </trkpt>
      <trkpt lat="63.60504" lon="19.85929">
        <ele>28.693536</ele>
        <time>2020-10-01T11:10:59.046Z</time>
      </trkpt>
      <trkpt lat="63.60496" lon="19.85909">
        <ele>28.811881</ele>
        <time>2020-10-01T11:11:01.070Z</time>
      </trkpt>
      <trkpt lat="63.60488" lon="19.85889">
        <ele>28.928181</ele>
        <time>2020-10-01T11:11:03.067Z</time>
      </trkpt>
      <trkpt lat="63.6048" lon="19.85869">
        <ele>29.05215</ele>
        <time>2020-10-01T11:11:05.098Z</time>
      </trkpt>
      <trkpt lat="63.6047" lon="19.85848">
        <ele>29.183276</ele>
        <time>2020-10-01T11:11:07.075Z</time>
      </trkpt>
      <trkpt lat="63.6046" lon="19.85827">
        <ele>29.084346</ele>
        <time>2020-10-01T11:11:09.053Z</time>
      </trkpt>
      <trkpt lat="63.60449" lon="19.85807">
        <ele>28.942269</ele>
        <time>2020-10-01T11:11:11.069Z</time>
      </trkpt>
      <trkpt lat="63.60438" lon="19.85785">
        <ele>28.791552</ele>
        <time>2020-10-01T11:11:13.048Z</time>
      </trkpt>
      <trkpt lat="63.60425" lon="19.85764">
        <ele>28.635862</ele>
        <time>2020-10-01T11:11:15.103Z</time>
      </trkpt>
      <trkpt lat="63.60413" lon="19.85745">
        <ele>28.483135</ele>
        <time>2020-10-01T11:11:17.051Z</time>
      </trkpt>
      <trkpt lat="63.604" lon="19.85728">
        <ele>28.334466</ele>
        <time>2020-10-01T11:11:19.051Z</time>
      </trkpt>
      <trkpt lat="63.60387" lon="19.85712">
        <ele>28.192417</ele>
        <time>2020-10-01T11:11:21.059Z</time>
      </trkpt>
      <trkpt lat="63.60376" lon="19.857">
        <ele>28.06214</ele>
        <time>2020-10-01T11:11:23.097Z</time>
      </trkpt>
      <trkpt lat="63.60364" lon="19.85688">
        <ele>27.937576</ele>
        <time>2020-10-01T11:11:25.060Z</time>
      </trkpt>
      <trkpt lat="63.60353" lon="19.85678">
        <ele>27.817748</ele>
        <time>2020-10-01T11:11:27.060Z</time>
      </trkpt>
      <trkpt lat="63.60342" lon="19.85669">
        <ele>27.702376</ele>
        <time>2020-10-01T11:11:29.078Z</time>
      </trkpt>
      <trkpt lat="63.60331" lon="19.85662">
        <ele>27.587536</ele>
        <time>2020-10-01T11:11:31.095Z</time>
      </trkpt>
      <trkpt lat="63.6032" lon="19.85655">
        <ele>27.473188</ele>
        <time>2020-10-01T11:11:33.045Z</time>
      </trkpt>
      <trkpt lat="63.6031" lon="19.85649">
        <ele>27.389736</ele>
        <time>2020-10-01T11:11:35.064Z</time>
      </trkpt>
      <trkpt lat="63.60299" lon="19.85644">
        <ele>27.356613</ele>
        <time>2020-10-01T11:11:37.050Z</time>
      </trkpt>
      <trkpt lat="63.60289" lon="19.85641">
        <ele>27.323972</ele>
        <time>2020-10-01T11:11:39.048Z</time>
      </trkpt>
      <trkpt lat="63.60279" lon="19.85637">
        <ele>27.291661</ele>
        <time>2020-10-01T11:11:41.043Z</time>
      </trkpt>
      <trkpt lat="63.60269" lon="19.85634">
        <ele>27.259805</ele>
        <time>2020-10-01T11:11:43.056Z</time>
      </trkpt>
      <trkpt lat="63.60259" lon="19.8563">
        <ele>27.228134</ele>
        <time>2020-10-01T11:11:45.080Z</time>
      </trkpt>
      <trkpt lat="63.60248" lon="19.85626">
        <ele>27.195272</ele>
        <time>2020-10-01T11:11:47.064Z</time>
      </trkpt>
      <trkpt lat="63.60238" lon="19.85623">
        <ele>27.161539</ele>
        <time>2020-10-01T11:11:49.060Z</time>
      </trkpt>
      <trkpt lat="63.60227" lon="19.8562">
        <ele>27.126943</ele>
        <time>2020-10-01T11:11:51.060Z</time>
      </trkpt>
      <trkpt lat="63.60216" lon="19.85618">
        <ele>27.0939</ele>
        <time>2020-10-01T11:11:53.043Z</time>
      </trkpt>
      <trkpt lat="63.60206" lon="19.85614">
        <ele>27.061058</ele>
        <time>2020-10-01T11:11:55.048Z</time>
      </trkpt>
      <trkpt lat="63.60195" lon="19.85611">
        <ele>27.027226</ele>
        <time>2020-10-01T11:11:57.051Z</time>
      </trkpt>
      <trkpt lat="63.60184" lon="19.85608">
        <ele>26.992364</ele>
        <time>2020-10-01T11:11:59.051Z</time>
      </trkpt>
      <trkpt lat="63.60173" lon="19.85605">
        <ele>26.957665</ele>
        <time>2020-10-01T11:12:01.052Z</time>
      </trkpt>
      <trkpt lat="63.60162" lon="19.856">
        <ele>26.922594</ele>
        <time>2020-10-01T11:12:03.062Z</time>
      </trkpt>
      <trkpt lat="63.60151" lon="19.85594">
        <ele>26.886769</ele>
        <time>2020-10-01T11:12:05.084Z</time>
      </trkpt>
      <trkpt lat="63.6014" lon="19.85587">
        <ele>26.851081</ele>
        <time>2020-10-01T11:12:07.064Z</time>
      </trkpt>
      <trkpt lat="63.60129" lon="19.85579">
        <ele>26.771945</ele>
        <time>2020-10-01T11:12:09.068Z</time>
      </trkpt>
      <trkpt lat="63.60119" lon="19.85569">
        <ele>26.676325</ele>
        <time>2020-10-01T11:12:11.070Z</time>
      </trkpt>
      <trkpt lat="63.60108" lon="19.85559">
        <ele>26.577107</ele>
        <time>2020-10-01T11:12:13.081Z</time>
      </trkpt>
      <trkpt lat="63.60098" lon="19.85547">
        <ele>26.479476</ele>
        <time>2020-10-01T11:12:15.042Z</time>
      </trkpt>
      <trkpt lat="63.60088" lon="19.85535">
        <ele>26.381896</ele>
        <time>2020-10-01T11:12:17.063Z</time>
      </trkpt>
      <trkpt lat="63.60078" lon="19.85523">
        <ele>26.283318</ele>
        <time>2020-10-01T11:12:19.059Z</time>
      </trkpt>
      <trkpt lat="63.60068" lon="19.85511">
        <ele>26.18213</ele>
        <time>2020-10-01T11:12:21.041Z</time>
      </trkpt>
      <trkpt lat="63.60058" lon="19.85498">
        <ele>26.083416</ele>
        <time>2020-10-01T11:12:23.109Z</time>
      </trkpt>
      <trkpt lat="63.60048" lon="19.85485">
        <ele>25.98451</ele>
        <time>2020-10-01T11:12:25.056Z</time>
      </trkpt>
      <trkpt lat="63.60039" lon="19.85473">
        <ele>25.887682</ele>
        <time>2020-10-01T11:12:27.044Z</time>
      </trkpt>
      <trkpt lat="63.6003" lon="19.85461">
        <ele>25.798199</ele>
        <time>2020-10-01T11:12:29.075Z</time>
      </trkpt>
      <trkpt lat="63.60021" lon="19.85449">
        <ele>25.709461</ele>
        <time>2020-10-01T11:12:31.044Z</time>
      </trkpt>
      <trkpt lat="63.60012" lon="19.85438">
        <ele>25.624685</ele>
        <time>2020-10-01T11:12:33.052Z</time>
      </trkpt>
      <trkpt lat="63.60005" lon="19.85426">
        <ele>25.544115</ele>
        <time>2020-10-01T11:12:35.052Z</time>
      </trkpt>
      <trkpt lat="63.59996" lon="19.85415">
        <ele>25.460211</ele>
        <time>2020-10-01T11:12:37.046Z</time>
      </trkpt>
      <trkpt lat="63.59988" lon="19.85401">
        <ele>25.37173</ele>
        <time>2020-10-01T11:12:39.039Z</time>
      </trkpt>
      <trkpt lat="63.5998" lon="19.85389">
        <ele>25.285538</ele>
        <time>2020-10-01T11:12:41.093Z</time>
      </trkpt>
      <trkpt lat="63.59971" lon="19.85376">
        <ele>25.284664</ele>
        <time>2020-10-01T11:12:43.055Z</time>
      </trkpt>
      <trkpt lat="63.59963" lon="19.85363">
        <ele>25.287808</ele>
        <time>2020-10-01T11:12:45.062Z</time>
      </trkpt>
      <trkpt lat="63.59954" lon="19.85349">
        <ele>25.291206</ele>
        <time>2020-10-01T11:12:47.076Z</time>
      </trkpt>
      <trkpt lat="63.59945" lon="19.85334">
        <ele>25.294668</ele>
        <time>2020-10-01T11:12:49.076Z</time>
      </trkpt>
      <trkpt lat="63.59936" lon="19.85319">
        <ele>25.29814</ele>
        <time>2020-10-01T11:12:51.061Z</time>
      </trkpt>
      <trkpt lat="63.59927" lon="19.85304">
        <ele>25.301644</ele>
        <time>2020-10-01T11:12:53.061Z</time>
      </trkpt>
      <trkpt lat="63.59918" lon="19.85289">
        <ele>25.305098</ele>
        <time>2020-10-01T11:12:55.053Z</time>
      </trkpt>
      <trkpt lat="63.59909" lon="19.85274">
        <ele>25.308544</ele>
        <time>2020-10-01T11:12:57.067Z</time>
      </trkpt>
      <trkpt lat="63.599" lon="19.85258">
        <ele>25.312049</ele>
        <time>2020-10-01T11:12:59.078Z</time>
      </trkpt>
      <trkpt lat="63.59891" lon="19.85243">
        <ele>25.315561</ele>
        <time>2020-10-01T11:13:01.070Z</time>
      </trkpt>
      <trkpt lat="63.59882" lon="19.85227">
        <ele>25.319076</ele>
        <time>2020-10-01T11:13:03.057Z</time>
      </trkpt>
      <trkpt lat="63.59873" lon="19.85211">
        <ele>25.322461</ele>
        <time>2020-10-01T11:13:05.082Z</time>
      </trkpt>
      <trkpt lat="63.59865" lon="19.85195">
        <ele>25.325927</ele>
        <time>2020-10-01T11:13:07.065Z</time>
      </trkpt>
      <trkpt lat="63.59856" lon="19.85179">
        <ele>25.329362</ele>
        <time>2020-10-01T11:13:09.084Z</time>
      </trkpt>
      <trkpt lat="63.59848" lon="19.85163">
        <ele>25.33276</ele>
        <time>2020-10-01T11:13:11.052Z</time>
      </trkpt>
      <trkpt lat="63.59839" lon="19.85148">
        <ele>25.336198</ele>
        <time>2020-10-01T11:13:13.044Z</time>
      </trkpt>
      <trkpt lat="63.5983" lon="19.85133">
        <ele>25.208753</ele>
        <time>2020-10-01T11:13:15.046Z</time>
      </trkpt>
      <trkpt lat="63.59821" lon="19.85118">
        <ele>25.037907</ele>
        <time>2020-10-01T11:13:17.073Z</time>
      </trkpt>
      <trkpt lat="63.59812" lon="19.85104">
        <ele>24.868279</ele>
        <time>2020-10-01T11:13:19.044Z</time>
      </trkpt>
      <trkpt lat="63.59803" lon="19.85089">
        <ele>24.697837</ele>
        <time>2020-10-01T11:13:21.068Z</time>
      </trkpt>
      <trkpt lat="63.59794" lon="19.85074">
        <ele>24.530277</ele>
        <time>2020-10-01T11:13:23.049Z</time>
      </trkpt>
      <trkpt lat="63.59786" lon="19.8506">
        <ele>24.368053</ele>
        <time>2020-10-01T11:13:25.067Z</time>
      </trkpt>
      <trkpt lat="63.59777" lon="19.85045">
        <ele>24.205415</ele>
        <time>2020-10-01T11:13:27.055Z</time>
      </trkpt>
      <trkpt lat="63.59769" lon="19.8503">
        <ele>24.035355</ele>
        <time>2020-10-01T11:13:29.061Z</time>
      </trkpt>
      <trkpt lat="63.5976" lon="19.85015">
        <ele>23.865294</ele>
        <time>2020-10-01T11:13:31.050Z</time>
      </trkpt>
      <trkpt lat="63.59752" lon="19.85">
        <ele>23.700184</ele>
        <time>2020-10-01T11:13:33.055Z</time>
      </trkpt>
      <trkpt lat="63.59743" lon="19.84985">
        <ele>23.532202</ele>
        <time>2020-10-01T11:13:35.093Z</time>
      </trkpt>
      <trkpt lat="63.59734" lon="19.84971">
        <ele>23.365866</ele>
        <time>2020-10-01T11:13:37.056Z</time>
      </trkpt>
      <trkpt lat="63.59726" lon="19.84956">
        <ele>23.198219</ele>
        <time>2020-10-01T11:13:39.079Z</time>
      </trkpt>
      <trkpt lat="63.59717" lon="19.84941">
        <ele>23.035114</ele>
        <time>2020-10-01T11:13:41.079Z</time>
      </trkpt>
      <trkpt lat="63.59709" lon="19.84927">
        <ele>22.875334</ele>
        <time>2020-10-01T11:13:43.047Z</time>
      </trkpt>
      <trkpt lat="63.59701" lon="19.84913">
        <ele>22.72009</ele>
        <time>2020-10-01T11:13:45.064Z</time>
      </trkpt>
      <trkpt lat="63.59693" lon="19.84899">
        <ele>22.569397</ele>
        <time>2020-10-01T11:13:47.086Z</time>
      </trkpt>
      <trkpt lat="63.59685" lon="19.84886">
        <ele>22.698157</ele>
        <time>2020-10-01T11:13:49.046Z</time>
      </trkpt>
      <trkpt lat="63.59676" lon="19.84872">
        <ele>22.82659</ele>
        <time>2020-10-01T11:13:51.048Z</time>
      </trkpt>
      <trkpt lat="63.59668" lon="19.84859">
        <ele>22.956513</ele>
        <time>2020-10-01T11:13:53.061Z</time>
      </trkpt>
      <trkpt lat="63.59659" lon="19.84847">
        <ele>23.086561</ele>
        <time>2020-10-01T11:13:55.058Z</time>
      </trkpt>
      <trkpt lat="63.5965" lon="19.84835">
        <ele>23.215308</ele>
        <time>2020-10-01T11:13:57.060Z</time>
      </trkpt>
      <trkpt lat="63.59641" lon="19.84824">
        <ele>23.342106</ele>
        <time>2020-10-01T11:13:59.054Z</time>
      </trkpt>
      <trkpt lat="63.59633" lon="19.84814">
        <ele>23.459904</ele>
        <time>2020-10-01T11:14:01.048Z</time>
      </trkpt>
      <trkpt lat="63.59625" lon="19.84805">
        <ele>23.574252</ele>
        <time>2020-10-01T11:14:03.056Z</time>
      </trkpt>
      <trkpt lat="63.59616" lon="19.84798">
        <ele>23.68894</ele>
        <time>2020-10-01T11:14:05.050Z</time>
      </trkpt>
      <trkpt lat="63.59608" lon="19.8479">
        <ele>23.805</ele>
        <time>2020-10-01T11:14:07.067Z</time>
      </trkpt>
      <trkpt lat="63.59595" lon="19.8478">
        <ele>23.974083</ele>
        <time>2020-10-01T11:14:10.046Z</time>
      </trkpt>
      <trkpt lat="63.59586" lon="19.84773">
        <ele>24.095856</ele>
        <time>2020-10-01T11:14:12.049Z</time>
      </trkpt>
      <trkpt lat="63.59576" lon="19.84766">
        <ele>24.220184</ele>
        <time>2020-10-01T11:14:14.071Z</time>
      </trkpt>
      <trkpt lat="63.59567" lon="19.84759">
        <ele>24.342504</ele>
        <time>2020-10-01T11:14:16.036Z</time>
      </trkpt>
      <trkpt lat="63.59558" lon="19.84751">
        <ele>24.464458</ele>
        <time>2020-10-01T11:14:18.085Z</time>
      </trkpt>
      <trkpt lat="63.59549" lon="19.84744">
        <ele>24.585596</ele>
        <time>2020-10-01T11:14:20.070Z</time>
      </trkpt>
      <trkpt lat="63.5954" lon="19.84737">
        <ele>24.705554</ele>
        <time>2020-10-01T11:14:22.046Z</time>
      </trkpt>
      <trkpt lat="63.59531" lon="19.8473">
        <ele>24.824055</ele>
        <time>2020-10-01T11:14:24.059Z</time>
      </trkpt>
      <trkpt lat="63.59522" lon="19.84723">
        <ele>24.94991</ele>
        <time>2020-10-01T11:14:26.059Z</time>
      </trkpt>
      <trkpt lat="63.59513" lon="19.84717">
        <ele>25.074555</ele>
        <time>2020-10-01T11:14:28.063Z</time>
      </trkpt>
      <trkpt lat="63.59501" lon="19.84707">
        <ele>25.251178</ele>
        <time>2020-10-01T11:14:31.070Z</time>
      </trkpt>
      <trkpt lat="63.59489" lon="19.84698">
        <ele>25.423836</ele>
        <time>2020-10-01T11:14:34.028Z</time>
      </trkpt>
      <trkpt lat="63.59478" lon="19.84689">
        <ele>25.58318</ele>
        <time>2020-10-01T11:14:37.072Z</time>
      </trkpt>
      <trkpt lat="63.59467" lon="19.8468">
        <ele>25.743999</ele>
        <time>2020-10-01T11:14:40.107Z</time>
      </trkpt>
      <trkpt lat="63.59455" lon="19.84671">
        <ele>25.907972</ele>
        <time>2020-10-01T11:14:43.049Z</time>
      </trkpt>
      <trkpt lat="63.59444" lon="19.84662">
        <ele>26.070164</ele>
        <time>2020-10-01T11:14:46.107Z</time>
      </trkpt>
      <trkpt lat="63.59432" lon="19.84654">
        <ele>26.234553</ele>
        <time>2020-10-01T11:14:49.058Z</time>
      </trkpt>
      <trkpt lat="63.5942" lon="19.84645">
        <ele>26.406853</ele>
        <time>2020-10-01T11:14:52.105Z</time>
      </trkpt>
      <trkpt lat="63.59408" lon="19.84635">
        <ele>26.583074</ele>
        <time>2020-10-01T11:14:55.064Z</time>
      </trkpt>
      <trkpt lat="63.59395" lon="19.84625">
        <ele>26.763717</ele>
        <time>2020-10-01T11:14:58.062Z</time>
      </trkpt>
      <trkpt lat="63.59383" lon="19.84615">
        <ele>26.941014</ele>
        <time>2020-10-01T11:15:01.082Z</time>
      </trkpt>
      <trkpt lat="63.59371" lon="19.84606">
        <ele>27.115564</ele>
        <time>2020-10-01T11:15:04.048Z</time>
      </trkpt>
      <trkpt lat="63.59358" lon="19.84596">
        <ele>27.276379</ele>
        <time>2020-10-01T11:15:07.050Z</time>
      </trkpt>
      <trkpt lat="63.59349" lon="19.8459">
        <ele>27.344132</ele>
        <time>2020-10-01T11:15:09.067Z</time>
      </trkpt>
      <trkpt lat="63.59341" lon="19.84583">
        <ele>27.413861</ele>
        <time>2020-10-01T11:15:11.049Z</time>
      </trkpt>
      <trkpt lat="63.59331" lon="19.84577">
        <ele>27.48694</ele>
        <time>2020-10-01T11:15:13.065Z</time>
      </trkpt>
      <trkpt lat="63.59322" lon="19.84571">
        <ele>27.557319</ele>
        <time>2020-10-01T11:15:15.066Z</time>
      </trkpt>
      <trkpt lat="63.59314" lon="19.84565">
        <ele>27.625892</ele>
        <time>2020-10-01T11:15:17.060Z</time>
      </trkpt>
      <trkpt lat="63.59301" lon="19.84556">
        <ele>27.723398</ele>
        <time>2020-10-01T11:15:20.081Z</time>
      </trkpt>
      <trkpt lat="63.59289" lon="19.84547">
        <ele>27.819159</ele>
        <time>2020-10-01T11:15:23.061Z</time>
      </trkpt>
      <trkpt lat="63.59277" lon="19.84538">
        <ele>27.913483</ele>
        <time>2020-10-01T11:15:26.087Z</time>
      </trkpt>
      <trkpt lat="63.59266" lon="19.8453">
        <ele>28.007604</ele>
        <time>2020-10-01T11:15:29.066Z</time>
      </trkpt>
      <trkpt lat="63.59254" lon="19.84521">
        <ele>28.102135</ele>
        <time>2020-10-01T11:15:32.067Z</time>
      </trkpt>
      <trkpt lat="63.59242" lon="19.84513">
        <ele>28.192663</ele>
        <time>2020-10-01T11:15:35.070Z</time>
      </trkpt>
      <trkpt lat="63.59232" lon="19.84504">
        <ele>28.278639</ele>
        <time>2020-10-01T11:15:38.052Z</time>
      </trkpt>
      <trkpt lat="63.59221" lon="19.84495">
        <ele>28.362967</ele>
        <time>2020-10-01T11:15:41.044Z</time>
      </trkpt>
      <trkpt lat="63.59211" lon="19.84486">
        <ele>28.44355</ele>
        <time>2020-10-01T11:15:44.059Z</time>
      </trkpt>
      <trkpt lat="63.59201" lon="19.84477">
        <ele>28.529172</ele>
        <time>2020-10-01T11:15:47.067Z</time>
      </trkpt>
      <trkpt lat="63.59189" lon="19.84467">
        <ele>28.649964</ele>
        <time>2020-10-01T11:15:50.072Z</time>
      </trkpt>
      <trkpt lat="63.59178" lon="19.84458">
        <ele>29.003488</ele>
        <time>2020-10-01T11:15:53.065Z</time>
      </trkpt>
      <trkpt lat="63.59168" lon="19.84448">
        <ele>29.340977</ele>
        <time>2020-10-01T11:15:56.061Z</time>
      </trkpt>
      <trkpt lat="63.59157" lon="19.84439">
        <ele>29.687597</ele>
        <time>2020-10-01T11:15:59.067Z</time>
      </trkpt>
      <trkpt lat="63.59147" lon="19.84432">
        <ele>30.00752</ele>
        <time>2020-10-01T11:16:02.081Z</time>
      </trkpt>
      <trkpt lat="63.59136" lon="19.84425">
        <ele>30.346488</ele>
        <time>2020-10-01T11:16:05.061Z</time>
      </trkpt>
      <trkpt lat="63.59125" lon="19.84416">
        <ele>30.692948</ele>
        <time>2020-10-01T11:16:08.078Z</time>
      </trkpt>
      <trkpt lat="63.59113" lon="19.84406">
        <ele>31.073879</ele>
        <time>2020-10-01T11:16:11.062Z</time>
      </trkpt>
      <trkpt lat="63.59101" lon="19.84398">
        <ele>31.456164</ele>
        <time>2020-10-01T11:16:14.082Z</time>
      </trkpt>
      <trkpt lat="63.59089" lon="19.84389">
        <ele>31.833602</ele>
        <time>2020-10-01T11:16:17.059Z</time>
      </trkpt>
      <trkpt lat="63.59076" lon="19.84379">
        <ele>32.222081</ele>
        <time>2020-10-01T11:16:20.096Z</time>
      </trkpt>
      <trkpt lat="63.59064" lon="19.8437">
        <ele>32.621015</ele>
        <time>2020-10-01T11:16:23.058Z</time>
      </trkpt>
      <trkpt lat="63.59055" lon="19.84363">
        <ele>32.895402</ele>
        <time>2020-10-01T11:16:25.081Z</time>
      </trkpt>
      <trkpt lat="63.59046" lon="19.84356">
        <ele>33.182371</ele>
        <time>2020-10-01T11:16:27.051Z</time>
      </trkpt>
      <trkpt lat="63.59037" lon="19.84349">
        <ele>33.464587</ele>
        <time>2020-10-01T11:16:29.043Z</time>
      </trkpt>
      <trkpt lat="63.59028" lon="19.84342">
        <ele>33.746357</ele>
        <time>2020-10-01T11:16:31.050Z</time>
      </trkpt>
      <trkpt lat="63.59019" lon="19.84335">
        <ele>33.991039</ele>
        <time>2020-10-01T11:16:33.090Z</time>
      </trkpt>
      <trkpt lat="63.5901" lon="19.8433">
        <ele>34.079898</ele>
        <time>2020-10-01T11:16:35.060Z</time>
      </trkpt>
      <trkpt lat="63.59001" lon="19.84322">
        <ele>34.174287</ele>
        <time>2020-10-01T11:16:37.065Z</time>
      </trkpt>
      <trkpt lat="63.58991" lon="19.84315">
        <ele>34.26999</ele>
        <time>2020-10-01T11:16:39.099Z</time>
      </trkpt>
      <trkpt lat="63.58983" lon="19.84308">
        <ele>34.35817</ele>
        <time>2020-10-01T11:16:41.058Z</time>
      </trkpt>
      <trkpt lat="63.58974" lon="19.84302">
        <ele>34.443248</ele>
        <time>2020-10-01T11:16:43.059Z</time>
      </trkpt>
      <trkpt lat="63.58965" lon="19.84295">
        <ele>34.531564</ele>
        <time>2020-10-01T11:16:45.063Z</time>
      </trkpt>
      <trkpt lat="63.58957" lon="19.84288">
        <ele>34.619265</ele>
        <time>2020-10-01T11:16:47.081Z</time>
      </trkpt>
      <trkpt lat="63.58948" lon="19.84281">
        <ele>34.70786</ele>
        <time>2020-10-01T11:16:49.062Z</time>
      </trkpt>
      <trkpt lat="63.58935" lon="19.84271">
        <ele>34.835436</ele>
        <time>2020-10-01T11:16:52.064Z</time>
      </trkpt>
      <trkpt lat="63.58926" lon="19.84264">
        <ele>34.921548</ele>
        <time>2020-10-01T11:16:54.068Z</time>
      </trkpt>
      <trkpt lat="63.58914" lon="19.84256">
        <ele>35.048668</ele>
        <time>2020-10-01T11:16:57.042Z</time>
      </trkpt>
      <trkpt lat="63.58901" lon="19.84247">
        <ele>35.175307</ele>
        <time>2020-10-01T11:17:00.088Z</time>
      </trkpt>
      <trkpt lat="63.58892" lon="19.8424">
        <ele>35.262727</ele>
        <time>2020-10-01T11:17:02.051Z</time>
      </trkpt>
      <trkpt lat="63.58883" lon="19.84233">
        <ele>35.352358</ele>
        <time>2020-10-01T11:17:04.079Z</time>
      </trkpt>
      <trkpt lat="63.58875" lon="19.84227">
        <ele>35.438979</ele>
        <time>2020-10-01T11:17:06.041Z</time>
      </trkpt>
      <trkpt lat="63.58866" lon="19.84221">
        <ele>35.525991</ele>
        <time>2020-10-01T11:17:08.068Z</time>
      </trkpt>
      <trkpt lat="63.58857" lon="19.84215">
        <ele>35.612117</ele>
        <time>2020-10-01T11:17:10.048Z</time>
      </trkpt>
      <trkpt lat="63.58848" lon="19.84209">
        <ele>35.713302</ele>
        <time>2020-10-01T11:17:12.061Z</time>
      </trkpt>
      <trkpt lat="63.58838" lon="19.84203">
        <ele>35.848676</ele>
        <time>2020-10-01T11:17:14.050Z</time>
      </trkpt>
      <trkpt lat="63.58829" lon="19.84198">
        <ele>35.98158</ele>
        <time>2020-10-01T11:17:16.062Z</time>
      </trkpt>
      <trkpt lat="63.5882" lon="19.84192">
        <ele>36.105792</ele>
        <time>2020-10-01T11:17:18.067Z</time>
      </trkpt>
      <trkpt lat="63.58807" lon="19.84184">
        <ele>36.285882</ele>
        <time>2020-10-01T11:17:21.081Z</time>
      </trkpt>
      <trkpt lat="63.58796" lon="19.84175">
        <ele>36.455576</ele>
        <time>2020-10-01T11:17:24.063Z</time>
      </trkpt>
      <trkpt lat="63.58784" lon="19.84167">
        <ele>36.615087</ele>
        <time>2020-10-01T11:17:27.046Z</time>
      </trkpt>
      <trkpt lat="63.58772" lon="19.8416">
        <ele>36.784613</ele>
        <time>2020-10-01T11:17:30.072Z</time>
      </trkpt>
      <trkpt lat="63.5876" lon="19.84154">
        <ele>36.953873</ele>
        <time>2020-10-01T11:17:33.077Z</time>
      </trkpt>
      <trkpt lat="63.58748" lon="19.84147">
        <ele>37.122789</ele>
        <time>2020-10-01T11:17:36.065Z</time>
      </trkpt>
      <trkpt lat="63.58736" lon="19.8414">
        <ele>37.29148</ele>
        <time>2020-10-01T11:17:39.060Z</time>
      </trkpt>
      <trkpt lat="63.58726" lon="19.84134">
        <ele>37.440532</ele>
        <time>2020-10-01T11:17:42.056Z</time>
      </trkpt>
      <trkpt lat="63.58715" lon="19.84126">
        <ele>37.597429</ele>
        <time>2020-10-01T11:17:45.048Z</time>
      </trkpt>
      <trkpt lat="63.58703" lon="19.84118">
        <ele>37.763225</ele>
        <time>2020-10-01T11:17:48.039Z</time>
      </trkpt>
      <trkpt lat="63.58691" lon="19.84111">
        <ele>37.933069</ele>
        <time>2020-10-01T11:17:51.050Z</time>
      </trkpt>
      <trkpt lat="63.58679" lon="19.84105">
        <ele>38.108867</ele>
        <time>2020-10-01T11:17:54.055Z</time>
      </trkpt>
      <trkpt lat="63.58666" lon="19.84099">
        <ele>37.828875</ele>
        <time>2020-10-01T11:17:57.052Z</time>
      </trkpt>
      <trkpt lat="63.58653" lon="19.84093">
        <ele>37.450323</ele>
        <time>2020-10-01T11:18:00.050Z</time>
      </trkpt>
      <trkpt lat="63.58643" lon="19.84089">
        <ele>37.185096</ele>
        <time>2020-10-01T11:18:02.074Z</time>
      </trkpt>
      <trkpt lat="63.58634" lon="19.84086">
        <ele>36.90579</ele>
        <time>2020-10-01T11:18:04.044Z</time>
      </trkpt>
      <trkpt lat="63.58623" lon="19.84081">
        <ele>36.616882</ele>
        <time>2020-10-01T11:18:06.048Z</time>
      </trkpt>
      <trkpt lat="63.58614" lon="19.84077">
        <ele>36.333957</ele>
        <time>2020-10-01T11:18:08.065Z</time>
      </trkpt>
      <trkpt lat="63.58603" lon="19.84073">
        <ele>36.031633</ele>
        <time>2020-10-01T11:18:10.081Z</time>
      </trkpt>
      <trkpt lat="63.58592" lon="19.84069">
        <ele>35.725446</ele>
        <time>2020-10-01T11:18:12.067Z</time>
      </trkpt>
      <trkpt lat="63.58583" lon="19.84065">
        <ele>35.448279</ele>
        <time>2020-10-01T11:18:14.043Z</time>
      </trkpt>
      <trkpt lat="63.58572" lon="19.84061">
        <ele>35.158905</ele>
        <time>2020-10-01T11:18:16.053Z</time>
      </trkpt>
      <trkpt lat="63.58562" lon="19.84055">
        <ele>34.866599</ele>
        <time>2020-10-01T11:18:18.046Z</time>
      </trkpt>
      <trkpt lat="63.58552" lon="19.84049">
        <ele>34.568731</ele>
        <time>2020-10-01T11:18:20.040Z</time>
      </trkpt>
      <trkpt lat="63.58542" lon="19.84042">
        <ele>34.276818</ele>
        <time>2020-10-01T11:18:22.039Z</time>
      </trkpt>
      <trkpt lat="63.58532" lon="19.84033">
        <ele>33.978285</ele>
        <time>2020-10-01T11:18:24.065Z</time>
      </trkpt>
      <trkpt lat="63.58522" lon="19.84025">
        <ele>33.674939</ele>
        <time>2020-10-01T11:18:26.054Z</time>
      </trkpt>
      <trkpt lat="63.58513" lon="19.84014">
        <ele>33.372655</ele>
        <time>2020-10-01T11:18:28.094Z</time>
      </trkpt>
      <trkpt lat="63.58503" lon="19.84004">
        <ele>33.078951</ele>
        <time>2020-10-01T11:18:30.064Z</time>
      </trkpt>
      <trkpt lat="63.58494" lon="19.83992">
        <ele>33.116736</ele>
        <time>2020-10-01T11:18:32.082Z</time>
      </trkpt>
      <trkpt lat="63.58486" lon="19.83981">
        <ele>33.152418</ele>
        <time>2020-10-01T11:18:34.043Z</time>
      </trkpt>
      <trkpt lat="63.58474" lon="19.83965">
        <ele>33.201146</ele>
        <time>2020-10-01T11:18:37.057Z</time>
      </trkpt>
      <trkpt lat="63.58463" lon="19.83949">
        <ele>33.249452</ele>
        <time>2020-10-01T11:18:40.055Z</time>
      </trkpt>
      <trkpt lat="63.58452" lon="19.83934">
        <ele>33.296</ele>
        <time>2020-10-01T11:18:43.051Z</time>
      </trkpt>
      <trkpt lat="63.58441" lon="19.83921">
        <ele>33.341207</ele>
        <time>2020-10-01T11:18:46.064Z</time>
      </trkpt>
      <trkpt lat="63.58429" lon="19.83906">
        <ele>33.390667</ele>
        <time>2020-10-01T11:18:49.072Z</time>
      </trkpt>
      <trkpt lat="63.58421" lon="19.83895">
        <ele>33.424694</ele>
        <time>2020-10-01T11:18:51.052Z</time>
      </trkpt>
      <trkpt lat="63.58412" lon="19.83883">
        <ele>33.460831</ele>
        <time>2020-10-01T11:18:53.136Z</time>
      </trkpt>
      <trkpt lat="63.58404" lon="19.83871">
        <ele>33.496854</ele>
        <time>2020-10-01T11:18:55.041Z</time>
      </trkpt>
      <trkpt lat="63.58395" lon="19.83859">
        <ele>33.534446</ele>
        <time>2020-10-01T11:18:57.044Z</time>
      </trkpt>
      <trkpt lat="63.58386" lon="19.83845">
        <ele>33.573998</ele>
        <time>2020-10-01T11:18:59.076Z</time>
      </trkpt>
      <trkpt lat="63.58377" lon="19.83831">
        <ele>33.614852</ele>
        <time>2020-10-01T11:19:01.059Z</time>
      </trkpt>
      <trkpt lat="63.58367" lon="19.83816">
        <ele>33.65765</ele>
        <time>2020-10-01T11:19:03.060Z</time>
      </trkpt>
      <trkpt lat="63.58357" lon="19.83801">
        <ele>33.701467</ele>
        <time>2020-10-01T11:19:05.067Z</time>
      </trkpt>
      <trkpt lat="63.58346" lon="19.83787">
        <ele>33.664427</ele>
        <time>2020-10-01T11:19:07.048Z</time>
      </trkpt>
      <trkpt lat="63.58335" lon="19.83772">
        <ele>33.485089</ele>
        <time>2020-10-01T11:19:09.073Z</time>
      </trkpt>
      <trkpt lat="63.58323" lon="19.83756">
        <ele>33.298336</ele>
        <time>2020-10-01T11:19:11.051Z</time>
      </trkpt>
      <trkpt lat="63.58312" lon="19.83741">
        <ele>33.115467</ele>
        <time>2020-10-01T11:19:13.065Z</time>
      </trkpt>
      <trkpt lat="63.58301" lon="19.83724">
        <ele>32.932437</ele>
        <time>2020-10-01T11:19:15.070Z</time>
      </trkpt>
      <trkpt lat="63.5829" lon="19.83708">
        <ele>32.751667</ele>
        <time>2020-10-01T11:19:17.063Z</time>
      </trkpt>
      <trkpt lat="63.58279" lon="19.83694">
        <ele>32.57865</ele>
        <time>2020-10-01T11:19:19.091Z</time>
      </trkpt>
      <trkpt lat="63.58269" lon="19.8368">
        <ele>32.408743</ele>
        <time>2020-10-01T11:19:21.051Z</time>
      </trkpt>
      <trkpt lat="63.58258" lon="19.83665">
        <ele>32.235935</ele>
        <time>2020-10-01T11:19:23.038Z</time>
      </trkpt>
      <trkpt lat="63.58247" lon="19.8365">
        <ele>32.060645</ele>
        <time>2020-10-01T11:19:25.050Z</time>
      </trkpt>
      <trkpt lat="63.58236" lon="19.83634">
        <ele>31.879694</ele>
        <time>2020-10-01T11:19:27.090Z</time>
      </trkpt>
      <trkpt lat="63.58225" lon="19.8362">
        <ele>31.697134</ele>
        <time>2020-10-01T11:19:29.084Z</time>
      </trkpt>
      <trkpt lat="63.58213" lon="19.83606">
        <ele>31.515143</ele>
        <time>2020-10-01T11:19:31.071Z</time>
      </trkpt>
      <trkpt lat="63.58202" lon="19.83591">
        <ele>31.337065</ele>
        <time>2020-10-01T11:19:33.066Z</time>
      </trkpt>
      <trkpt lat="63.58191" lon="19.83576">
        <ele>31.187924</ele>
        <time>2020-10-01T11:19:35.048Z</time>
      </trkpt>
      <trkpt lat="63.58179" lon="19.83563">
        <ele>31.072392</ele>
        <time>2020-10-01T11:19:37.079Z</time>
      </trkpt>
      <trkpt lat="63.58168" lon="19.83549">
        <ele>30.957647</ele>
        <time>2020-10-01T11:19:39.054Z</time>
      </trkpt>
      <trkpt lat="63.58156" lon="19.83536">
        <ele>30.840602</ele>
        <time>2020-10-01T11:19:41.078Z</time>
      </trkpt>
      <trkpt lat="63.58144" lon="19.83523">
        <ele>30.726017</ele>
        <time>2020-10-01T11:19:43.075Z</time>
      </trkpt>
      <trkpt lat="63.58133" lon="19.83512">
        <ele>30.613869</ele>
        <time>2020-10-01T11:19:45.104Z</time>
      </trkpt>
      <trkpt lat="63.58121" lon="19.835">
        <ele>30.503988</ele>
        <time>2020-10-01T11:19:47.080Z</time>
      </trkpt>
      <trkpt lat="63.58111" lon="19.83488">
        <ele>30.397614</ele>
        <time>2020-10-01T11:19:49.076Z</time>
      </trkpt>
      <trkpt lat="63.581" lon="19.83476">
        <ele>30.291942</ele>
        <time>2020-10-01T11:19:51.072Z</time>
      </trkpt>
      <trkpt lat="63.58089" lon="19.83465">
        <ele>30.187049</ele>
        <time>2020-10-01T11:19:53.061Z</time>
      </trkpt>
      <trkpt lat="63.58079" lon="19.83454">
        <ele>30.085731</ele>
        <time>2020-10-01T11:19:55.050Z</time>
      </trkpt>
      <trkpt lat="63.58069" lon="19.83443">
        <ele>29.984822</ele>
        <time>2020-10-01T11:19:57.065Z</time>
      </trkpt>
      <trkpt lat="63.58059" lon="19.83431">
        <ele>29.885741</ele>
        <time>2020-10-01T11:19:59.080Z</time>
      </trkpt>
      <trkpt lat="63.5805" lon="19.8342">
        <ele>29.793646</ele>
        <time>2020-10-01T11:20:01.061Z</time>
      </trkpt>
      <trkpt lat="63.58041" lon="19.83408">
        <ele>29.704239</ele>
        <time>2020-10-01T11:20:03.064Z</time>
      </trkpt>
      <trkpt lat="63.58033" lon="19.83397">
        <ele>29.672045</ele>
        <time>2020-10-01T11:20:05.063Z</time>
      </trkpt>
      <trkpt lat="63.58024" lon="19.83388">
        <ele>29.729262</ele>
        <time>2020-10-01T11:20:07.080Z</time>
      </trkpt>
      <trkpt lat="63.58016" lon="19.83379">
        <ele>29.784645</ele>
        <time>2020-10-01T11:20:09.072Z</time>
      </trkpt>
      <trkpt lat="63.58008" lon="19.8337">
        <ele>29.842399</ele>
        <time>2020-10-01T11:20:11.085Z</time>
      </trkpt>
      <trkpt lat="63.57999" lon="19.8336">
        <ele>29.903068</ele>
        <time>2020-10-01T11:20:13.068Z</time>
      </trkpt>
      <trkpt lat="63.5799" lon="19.8335">
        <ele>29.965394</ele>
        <time>2020-10-01T11:20:15.048Z</time>
      </trkpt>
      <trkpt lat="63.57981" lon="19.8334">
        <ele>30.028647</ele>
        <time>2020-10-01T11:20:17.089Z</time>
      </trkpt>
      <trkpt lat="63.57972" lon="19.83329">
        <ele>30.089571</ele>
        <time>2020-10-01T11:20:19.090Z</time>
      </trkpt>
      <trkpt lat="63.5796" lon="19.83315">
        <ele>30.175245</ele>
        <time>2020-10-01T11:20:22.047Z</time>
      </trkpt>
      <trkpt lat="63.57951" lon="19.83305">
        <ele>30.236148</ele>
        <time>2020-10-01T11:20:24.051Z</time>
      </trkpt>
      <trkpt lat="63.57942" lon="19.83294">
        <ele>30.29978</ele>
        <time>2020-10-01T11:20:26.058Z</time>
      </trkpt>
      <trkpt lat="63.57933" lon="19.83283">
        <ele>30.365189</ele>
        <time>2020-10-01T11:20:28.050Z</time>
      </trkpt>
      <trkpt lat="63.57923" lon="19.83272">
        <ele>30.432936</ele>
        <time>2020-10-01T11:20:30.069Z</time>
      </trkpt>
      <trkpt lat="63.57913" lon="19.83261">
        <ele>30.501557</ele>
        <time>2020-10-01T11:20:32.077Z</time>
      </trkpt>
      <trkpt lat="63.57903" lon="19.8325">
        <ele>30.571459</ele>
        <time>2020-10-01T11:20:34.088Z</time>
      </trkpt>
      <trkpt lat="63.57892" lon="19.83238">
        <ele>30.648815</ele>
        <time>2020-10-01T11:20:36.060Z</time>
      </trkpt>
      <trkpt lat="63.5788" lon="19.83226">
        <ele>30.728497</ele>
        <time>2020-10-01T11:20:38.072Z</time>
      </trkpt>
      <trkpt lat="63.57869" lon="19.83214">
        <ele>30.569066</ele>
        <time>2020-10-01T11:20:40.072Z</time>
      </trkpt>
      <trkpt lat="63.57857" lon="19.83203">
        <ele>30.174995</ele>
        <time>2020-10-01T11:20:42.064Z</time>
      </trkpt>
      <trkpt lat="63.57845" lon="19.8319">
        <ele>29.765578</ele>
        <time>2020-10-01T11:20:44.047Z</time>
      </trkpt>
      <trkpt lat="63.57833" lon="19.83177">
        <ele>29.368138</ele>
        <time>2020-10-01T11:20:46.061Z</time>
      </trkpt>
      <trkpt lat="63.57822" lon="19.83163">
        <ele>28.998355</ele>
        <time>2020-10-01T11:20:48.059Z</time>
      </trkpt>
      <trkpt lat="63.57811" lon="19.83152">
        <ele>28.627018</ele>
        <time>2020-10-01T11:20:50.069Z</time>
      </trkpt>
      <trkpt lat="63.57801" lon="19.8314">
        <ele>28.284297</ele>
        <time>2020-10-01T11:20:52.051Z</time>
      </trkpt>
      <trkpt lat="63.57791" lon="19.83128">
        <ele>27.935351</ele>
        <time>2020-10-01T11:20:54.104Z</time>
      </trkpt>
      <trkpt lat="63.57781" lon="19.83116">
        <ele>27.580381</ele>
        <time>2020-10-01T11:20:56.048Z</time>
      </trkpt>
      <trkpt lat="63.5777" lon="19.83105">
        <ele>27.239853</ele>
        <time>2020-10-01T11:20:58.064Z</time>
      </trkpt>
      <trkpt lat="63.5776" lon="19.83095">
        <ele>26.890661</ele>
        <time>2020-10-01T11:21:00.063Z</time>
      </trkpt>
      <trkpt lat="63.57749" lon="19.83083">
        <ele>26.538633</ele>
        <time>2020-10-01T11:21:02.071Z</time>
      </trkpt>
      <trkpt lat="63.57739" lon="19.83073">
        <ele>26.199386</ele>
        <time>2020-10-01T11:21:04.060Z</time>
      </trkpt>
      <trkpt lat="63.5773" lon="19.83063">
        <ele>25.883899</ele>
        <time>2020-10-01T11:21:06.052Z</time>
      </trkpt>
      <trkpt lat="63.5772" lon="19.83054">
        <ele>25.571641</ele>
        <time>2020-10-01T11:21:08.061Z</time>
      </trkpt>
      <trkpt lat="63.57711" lon="19.83045">
        <ele>25.422014</ele>
        <time>2020-10-01T11:21:10.067Z</time>
      </trkpt>
      <trkpt lat="63.57701" lon="19.83037">
        <ele>25.980214</ele>
        <time>2020-10-01T11:21:12.091Z</time>
      </trkpt>
      <trkpt lat="63.57692" lon="19.83029">
        <ele>26.529004</ele>
        <time>2020-10-01T11:21:14.085Z</time>
      </trkpt>
      <trkpt lat="63.57683" lon="19.83021">
        <ele>27.065764</ele>
        <time>2020-10-01T11:21:16.048Z</time>
      </trkpt>
      <trkpt lat="63.57674" lon="19.83013">
        <ele>27.601037</ele>
        <time>2020-10-01T11:21:18.043Z</time>
      </trkpt>
      <trkpt lat="63.57665" lon="19.83007">
        <ele>28.110228</ele>
        <time>2020-10-01T11:21:20.063Z</time>
      </trkpt>
      <trkpt lat="63.57652" lon="19.83002">
        <ele>28.814227</ele>
        <time>2020-10-01T11:21:23.072Z</time>
      </trkpt>
      <trkpt lat="63.57639" lon="19.82996">
        <ele>29.54347</ele>
        <time>2020-10-01T11:21:26.076Z</time>
      </trkpt>
      <trkpt lat="63.57626" lon="19.82995">
        <ele>30.271091</ele>
        <time>2020-10-01T11:21:29.053Z</time>
      </trkpt>
      <trkpt lat="63.57614" lon="19.82994">
        <ele>30.964433</ele>
        <time>2020-10-01T11:21:32.067Z</time>
      </trkpt>
      <trkpt lat="63.57601" lon="19.82996">
        <ele>31.675735</ele>
        <time>2020-10-01T11:21:35.100Z</time>
      </trkpt>
      <trkpt lat="63.5759" lon="19.82997">
        <ele>32.281151</ele>
        <time>2020-10-01T11:21:38.048Z</time>
      </trkpt>
      <trkpt lat="63.5758" lon="19.82997">
        <ele>32.809382</ele>
        <time>2020-10-01T11:21:41.058Z</time>
      </trkpt>
      <trkpt lat="63.57571" lon="19.82996">
        <ele>33.315871</ele>
        <time>2020-10-01T11:21:44.043Z</time>
      </trkpt>
      <trkpt lat="63.57562" lon="19.82996">
        <ele>33.827718</ele>
        <time>2020-10-01T11:21:47.072Z</time>
      </trkpt>
      <trkpt lat="63.57552" lon="19.82998">
        <ele>34.337317</ele>
        <time>2020-10-01T11:21:50.057Z</time>
      </trkpt>
      <trkpt lat="63.57543" lon="19.83">
        <ele>34.834692</ele>
        <time>2020-10-01T11:21:53.086Z</time>
      </trkpt>
      <trkpt lat="63.57534" lon="19.83002">
        <ele>35.261997</ele>
        <time>2020-10-01T11:21:56.048Z</time>
      </trkpt>
      <trkpt lat="63.57525" lon="19.83002">
        <ele>35.45758</ele>
        <time>2020-10-01T11:21:59.092Z</time>
      </trkpt>
      <trkpt lat="63.57514" lon="19.83002">
        <ele>35.686468</ele>
        <time>2020-10-01T11:22:02.083Z</time>
      </trkpt>
      <trkpt lat="63.57503" lon="19.83002">
        <ele>35.91118</ele>
        <time>2020-10-01T11:22:05.106Z</time>
      </trkpt>
      <trkpt lat="63.57492" lon="19.83003">
        <ele>36.135937</ele>
        <time>2020-10-01T11:22:08.048Z</time>
      </trkpt>
      <trkpt lat="63.57481" lon="19.83002">
        <ele>36.377321</ele>
        <time>2020-10-01T11:22:11.059Z</time>
      </trkpt>
      <trkpt lat="63.57469" lon="19.82998">
        <ele>36.612858</ele>
        <time>2020-10-01T11:22:14.062Z</time>
      </trkpt>
      <trkpt lat="63.57459" lon="19.82994">
        <ele>36.830665</ele>
        <time>2020-10-01T11:22:17.045Z</time>
      </trkpt>
      <trkpt lat="63.57449" lon="19.82989">
        <ele>37.044021</ele>
        <time>2020-10-01T11:22:20.061Z</time>
      </trkpt>
      <trkpt lat="63.57439" lon="19.82982">
        <ele>37.265055</ele>
        <time>2020-10-01T11:22:23.055Z</time>
      </trkpt>
      <trkpt lat="63.57428" lon="19.82974">
        <ele>37.502789</ele>
        <time>2020-10-01T11:22:26.051Z</time>
      </trkpt>
      <trkpt lat="63.57417" lon="19.82967">
        <ele>37.739679</ele>
        <time>2020-10-01T11:22:29.071Z</time>
      </trkpt>
      <trkpt lat="63.57407" lon="19.82963">
        <ele>37.962809</ele>
        <time>2020-10-01T11:22:32.067Z</time>
      </trkpt>
      <trkpt lat="63.57396" lon="19.82959">
        <ele>38.178085</ele>
        <time>2020-10-01T11:22:35.067Z</time>
      </trkpt>
      <trkpt lat="63.57385" lon="19.82954">
        <ele>38.412932</ele>
        <time>2020-10-01T11:22:38.083Z</time>
      </trkpt>
      <trkpt lat="63.57374" lon="19.82947">
        <ele>38.660831</ele>
        <time>2020-10-01T11:22:41.062Z</time>
      </trkpt>
      <trkpt lat="63.57362" lon="19.8294">
        <ele>38.923998</ele>
        <time>2020-10-01T11:22:44.050Z</time>
      </trkpt>
      <trkpt lat="63.5735" lon="19.82933">
        <ele>39.281604</ele>
        <time>2020-10-01T11:22:47.068Z</time>
      </trkpt>
      <trkpt lat="63.57338" lon="19.82926">
        <ele>39.639007</ele>
        <time>2020-10-01T11:22:50.049Z</time>
      </trkpt>
      <trkpt lat="63.57327" lon="19.82919">
        <ele>39.982619</ele>
        <time>2020-10-01T11:22:53.052Z</time>
      </trkpt>
      <trkpt lat="63.57316" lon="19.82912">
        <ele>40.324849</ele>
        <time>2020-10-01T11:22:56.058Z</time>
      </trkpt>
      <trkpt lat="63.57305" lon="19.82905">
        <ele>40.660545</ele>
        <time>2020-10-01T11:22:59.048Z</time>
      </trkpt>
      <trkpt lat="63.57295" lon="19.82898">
        <ele>40.98515</ele>
        <time>2020-10-01T11:23:02.075Z</time>
      </trkpt>
      <trkpt lat="63.57284" lon="19.82891">
        <ele>41.32479</ele>
        <time>2020-10-01T11:23:05.079Z</time>
      </trkpt>
      <trkpt lat="63.57274" lon="19.82885">
        <ele>41.644933</ele>
        <time>2020-10-01T11:23:08.055Z</time>
      </trkpt>
      <trkpt lat="63.57264" lon="19.82879">
        <ele>41.944779</ele>
        <time>2020-10-01T11:23:11.106Z</time>
      </trkpt>
      <trkpt lat="63.57255" lon="19.82871">
        <ele>42.253975</ele>
        <time>2020-10-01T11:23:14.072Z</time>
      </trkpt>
      <trkpt lat="63.57246" lon="19.82863">
        <ele>42.54082</ele>
        <time>2020-10-01T11:23:17.068Z</time>
      </trkpt>
      <trkpt lat="63.57237" lon="19.82855">
        <ele>42.825636</ele>
        <time>2020-10-01T11:23:20.054Z</time>
      </trkpt>
      <trkpt lat="63.57228" lon="19.82843">
        <ele>43.149464</ele>
        <time>2020-10-01T11:23:24.065Z</time>
      </trkpt>
      <trkpt lat="63.57217" lon="19.8283">
        <ele>43.501943</ele>
        <time>2020-10-01T11:23:28.063Z</time>
      </trkpt>
      <trkpt lat="63.57209" lon="19.82815">
        <ele>43.833121</ele>
        <time>2020-10-01T11:23:32.051Z</time>
      </trkpt>
      <trkpt lat="63.57199" lon="19.82802">
        <ele>44.161199</ele>
        <time>2020-10-01T11:23:36.076Z</time>
      </trkpt>
      <trkpt lat="63.57191" lon="19.82789">
        <ele>44.402493</ele>
        <time>2020-10-01T11:23:40.055Z</time>
      </trkpt>
      <trkpt lat="63.57181" lon="19.82775">
        <ele>44.518214</ele>
        <time>2020-10-01T11:23:44.049Z</time>
      </trkpt>
      <trkpt lat="63.57172" lon="19.82763">
        <ele>44.634855</ele>
        <time>2020-10-01T11:23:48.081Z</time>
      </trkpt>
      <trkpt lat="63.57162" lon="19.82751">
        <ele>44.751727</ele>
        <time>2020-10-01T11:23:52.062Z</time>
      </trkpt>
      <trkpt lat="63.57153" lon="19.82741">
        <ele>44.854314</ele>
        <time>2020-10-01T11:23:55.087Z</time>
      </trkpt>
      <trkpt lat="63.57143" lon="19.82729">
        <ele>44.972327</ele>
        <time>2020-10-01T11:23:59.063Z</time>
      </trkpt>
      <trkpt lat="63.57135" lon="19.82719">
        <ele>45.068009</ele>
        <time>2020-10-01T11:24:02.068Z</time>
      </trkpt>
      <trkpt lat="63.57126" lon="19.82707">
        <ele>45.177707</ele>
        <time>2020-10-01T11:24:05.048Z</time>
      </trkpt>
      <trkpt lat="63.57115" lon="19.8269">
        <ele>45.317431</ele>
        <time>2020-10-01T11:24:08.099Z</time>
      </trkpt>
      <trkpt lat="63.57107" lon="19.82678">
        <ele>45.417886</ele>
        <time>2020-10-01T11:24:10.067Z</time>
      </trkpt>
      <trkpt lat="63.57098" lon="19.82665">
        <ele>45.529345</ele>
        <time>2020-10-01T11:24:12.069Z</time>
      </trkpt>
      <trkpt lat="63.57088" lon="19.8265">
        <ele>45.660275</ele>
        <time>2020-10-01T11:24:14.085Z</time>
      </trkpt>
      <trkpt lat="63.57076" lon="19.82634">
        <ele>45.798892</ele>
        <time>2020-10-01T11:24:16.070Z</time>
      </trkpt>
      <trkpt lat="63.57065" lon="19.82619">
        <ele>45.935242</ele>
        <time>2020-10-01T11:24:18.083Z</time>
      </trkpt>
      <trkpt lat="63.57055" lon="19.82603">
        <ele>46.06568</ele>
        <time>2020-10-01T11:24:20.078Z</time>
      </trkpt>
      <trkpt lat="63.57043" lon="19.82586">
        <ele>46.209557</ele>
        <time>2020-10-01T11:24:22.060Z</time>
      </trkpt>
      <trkpt lat="63.57031" lon="19.82568">
        <ele>45.74326</ele>
        <time>2020-10-01T11:24:24.055Z</time>
      </trkpt>
      <trkpt lat="63.57017" lon="19.82549">
        <ele>45.067096</ele>
        <time>2020-10-01T11:24:26.084Z</time>
      </trkpt>
      <trkpt lat="63.57004" lon="19.8253">
        <ele>44.381713</ele>
        <time>2020-10-01T11:24:28.071Z</time>
      </trkpt>
      <trkpt lat="63.56989" lon="19.8251">
        <ele>43.651421</ele>
        <time>2020-10-01T11:24:30.049Z</time>
      </trkpt>
      <trkpt lat="63.56975" lon="19.82491">
        <ele>42.958797</ele>
        <time>2020-10-01T11:24:32.050Z</time>
      </trkpt>
      <trkpt lat="63.56962" lon="19.82474">
        <ele>42.328434</ele>
        <time>2020-10-01T11:24:34.055Z</time>
      </trkpt>
      <trkpt lat="63.56951" lon="19.82457">
        <ele>41.739698</ele>
        <time>2020-10-01T11:24:36.061Z</time>
      </trkpt>
      <trkpt lat="63.5694" lon="19.82442">
        <ele>41.217919</ele>
        <time>2020-10-01T11:24:38.067Z</time>
      </trkpt>
      <trkpt lat="63.56931" lon="19.82428">
        <ele>40.735995</ele>
        <time>2020-10-01T11:24:40.058Z</time>
      </trkpt>
      <trkpt lat="63.56922" lon="19.82415">
        <ele>40.280606</ele>
        <time>2020-10-01T11:24:42.087Z</time>
      </trkpt>
      <trkpt lat="63.56914" lon="19.82404">
        <ele>39.893732</ele>
        <time>2020-10-01T11:24:44.061Z</time>
      </trkpt>
      <trkpt lat="63.56903" lon="19.82389">
        <ele>39.348386</ele>
        <time>2020-10-01T11:24:47.064Z</time>
      </trkpt>
      <trkpt lat="63.56894" lon="19.82375">
        <ele>38.869577</ele>
        <time>2020-10-01T11:24:50.038Z</time>
      </trkpt>
      <trkpt lat="63.56886" lon="19.8236">
        <ele>38.485406</ele>
        <time>2020-10-01T11:24:53.073Z</time>
      </trkpt>
      <trkpt lat="63.56879" lon="19.82346">
        <ele>38.219578</ele>
        <time>2020-10-01T11:24:56.059Z</time>
      </trkpt>
      <trkpt lat="63.56873" lon="19.82331">
        <ele>37.962866</ele>
        <time>2020-10-01T11:24:59.060Z</time>
      </trkpt>
      <trkpt lat="63.56865" lon="19.82312">
        <ele>37.639297</ele>
        <time>2020-10-01T11:25:03.069Z</time>
      </trkpt>
      <trkpt lat="63.56858" lon="19.82295">
        <ele>37.360376</ele>
        <time>2020-10-01T11:25:06.065Z</time>
      </trkpt>
      <trkpt lat="63.56852" lon="19.82278">
        <ele>37.078571</ele>
        <time>2020-10-01T11:25:09.049Z</time>
      </trkpt>
      <trkpt lat="63.56845" lon="19.82261">
        <ele>36.794995</ele>
        <time>2020-10-01T11:25:12.056Z</time>
      </trkpt>
      <trkpt lat="63.56839" lon="19.82243">
        <ele>36.519043</ele>
        <time>2020-10-01T11:25:15.089Z</time>
      </trkpt>
      <trkpt lat="63.56833" lon="19.82225">
        <ele>36.239996</ele>
        <time>2020-10-01T11:25:18.065Z</time>
      </trkpt>
      <trkpt lat="63.56826" lon="19.82204">
        <ele>35.921335</ele>
        <time>2020-10-01T11:25:21.069Z</time>
      </trkpt>
      <trkpt lat="63.56818" lon="19.82183">
        <ele>35.570602</ele>
        <time>2020-10-01T11:25:24.050Z</time>
      </trkpt>
      <trkpt lat="63.56813" lon="19.82165">
        <ele>35.300878</ele>
        <time>2020-10-01T11:25:26.060Z</time>
      </trkpt>
      <trkpt lat="63.56807" lon="19.82145">
        <ele>35.004788</ele>
        <time>2020-10-01T11:25:28.052Z</time>
      </trkpt>
      <trkpt lat="63.56801" lon="19.82123">
        <ele>34.678555</ele>
        <time>2020-10-01T11:25:30.068Z</time>
      </trkpt>
      <trkpt lat="63.56795" lon="19.82095">
        <ele>34.295088</ele>
        <time>2020-10-01T11:25:32.081Z</time>
      </trkpt>
      <trkpt lat="63.56788" lon="19.82066">
        <ele>33.883096</ele>
        <time>2020-10-01T11:25:34.059Z</time>
      </trkpt>
      <trkpt lat="63.5678" lon="19.82036">
        <ele>33.603383</ele>
        <time>2020-10-01T11:25:36.101Z</time>
      </trkpt>
      <trkpt lat="63.56773" lon="19.82008">
        <ele>33.746539</ele>
        <time>2020-10-01T11:25:38.063Z</time>
      </trkpt>
      <trkpt lat="63.56766" lon="19.81981">
        <ele>33.889696</ele>
        <time>2020-10-01T11:25:40.049Z</time>
      </trkpt>
      <trkpt lat="63.56759" lon="19.81954">
        <ele>34.025988</ele>
        <time>2020-10-01T11:25:42.088Z</time>
      </trkpt>
      <trkpt lat="63.56753" lon="19.8193">
        <ele>34.147979</ele>
        <time>2020-10-01T11:25:44.054Z</time>
      </trkpt>
      <trkpt lat="63.56748" lon="19.81909">
        <ele>34.257373</ele>
        <time>2020-10-01T11:25:46.054Z</time>
      </trkpt>
      <trkpt lat="63.56743" lon="19.81889">
        <ele>34.353692</ele>
        <time>2020-10-01T11:25:48.088Z</time>
      </trkpt>
      <trkpt lat="63.56738" lon="19.81872">
        <ele>34.443965</ele>
        <time>2020-10-01T11:25:50.057Z</time>
      </trkpt>
      <trkpt lat="63.56732" lon="19.81847">
        <ele>34.57206</ele>
        <time>2020-10-01T11:25:53.056Z</time>
      </trkpt>
      <trkpt lat="63.56726" lon="19.81825">
        <ele>34.687774</ele>
        <time>2020-10-01T11:25:56.063Z</time>
      </trkpt>
      <trkpt lat="63.5672" lon="19.81805">
        <ele>34.793824</ele>
        <time>2020-10-01T11:25:59.108Z</time>
      </trkpt>
      <trkpt lat="63.56715" lon="19.81784">
        <ele>34.897824</ele>
        <time>2020-10-01T11:26:02.072Z</time>
      </trkpt>
      <trkpt lat="63.56711" lon="19.81763">
        <ele>35.001963</ele>
        <time>2020-10-01T11:26:05.064Z</time>
      </trkpt>
      <trkpt lat="63.56706" lon="19.81742">
        <ele>35.103281</ele>
        <time>2020-10-01T11:26:08.063Z</time>
      </trkpt>
      <trkpt lat="63.56702" lon="19.81723">
        <ele>35.196905</ele>
        <time>2020-10-01T11:26:11.063Z</time>
      </trkpt>
      <trkpt lat="63.56697" lon="19.81699">
        <ele>35.313233</ele>
        <time>2020-10-01T11:26:15.091Z</time>
      </trkpt>
      <trkpt lat="63.56692" lon="19.81676">
        <ele>35.728999</ele>
        <time>2020-10-01T11:26:19.062Z</time>
      </trkpt>
      <trkpt lat="63.56686" lon="19.81654">
        <ele>36.318104</ele>
        <time>2020-10-01T11:26:23.067Z</time>
      </trkpt>
      <trkpt lat="63.56681" lon="19.8163">
        <ele>36.913515</ele>
        <time>2020-10-01T11:26:27.044Z</time>
      </trkpt>
      <trkpt lat="63.56677" lon="19.81607">
        <ele>37.495964</ele>
        <time>2020-10-01T11:26:31.074Z</time>
      </trkpt>
      <trkpt lat="63.56672" lon="19.81586">
        <ele>38.02179</ele>
        <time>2020-10-01T11:26:35.080Z</time>
      </trkpt>
      <trkpt lat="63.56668" lon="19.81563">
        <ele>38.589174</ele>
        <time>2020-10-01T11:26:40.068Z</time>
      </trkpt>
      <trkpt lat="63.56665" lon="19.81544">
        <ele>39.067357</ele>
        <time>2020-10-01T11:26:44.058Z</time>
      </trkpt>
      <trkpt lat="63.5666" lon="19.81521">
        <ele>39.65385</ele>
        <time>2020-10-01T11:26:48.052Z</time>
      </trkpt>
      <trkpt lat="63.56656" lon="19.81499">
        <ele>40.175683</ele>
        <time>2020-10-01T11:26:51.083Z</time>
      </trkpt>
      <trkpt lat="63.56653" lon="19.81478">
        <ele>40.69233</ele>
        <time>2020-10-01T11:26:54.089Z</time>
      </trkpt>
      <trkpt lat="63.56651" lon="19.81457">
        <ele>41.180485</ele>
        <time>2020-10-01T11:26:57.066Z</time>
      </trkpt>
      <trkpt lat="63.56649" lon="19.81436">
        <ele>41.666551</ele>
        <time>2020-10-01T11:27:00.046Z</time>
      </trkpt>
      <trkpt lat="63.56647" lon="19.81416">
        <ele>42.137972</ele>
        <time>2020-10-01T11:27:03.086Z</time>
      </trkpt>
      <trkpt lat="63.56644" lon="19.81395">
        <ele>42.622908</ele>
        <time>2020-10-01T11:27:06.055Z</time>
      </trkpt>
      <trkpt lat="63.56643" lon="19.81371">
        <ele>43.183137</ele>
        <time>2020-10-01T11:27:09.062Z</time>
      </trkpt>
      <trkpt lat="63.5664" lon="19.81344">
        <ele>43.816288</ele>
        <time>2020-10-01T11:27:12.082Z</time>
      </trkpt>
      <trkpt lat="63.56638" lon="19.81318">
        <ele>44.425506</ele>
        <time>2020-10-01T11:27:15.055Z</time>
      </trkpt>
      <trkpt lat="63.56636" lon="19.81292">
        <ele>44.328677</ele>
        <time>2020-10-01T11:27:18.067Z</time>
      </trkpt>
      <trkpt lat="63.56635" lon="19.81272">
        <ele>44.047921</ele>
        <time>2020-10-01T11:27:22.063Z</time>
      </trkpt>
      <trkpt lat="63.56635" lon="19.81249">
        <ele>43.740687</ele>
        <time>2020-10-01T11:27:26.046Z</time>
      </trkpt>
      <trkpt lat="63.56634" lon="19.81226">
        <ele>43.423675</ele>
        <time>2020-10-01T11:27:29.070Z</time>
      </trkpt>
      <trkpt lat="63.56634" lon="19.81199">
        <ele>43.067462</ele>
        <time>2020-10-01T11:27:32.063Z</time>
      </trkpt>
      <trkpt lat="63.56634" lon="19.8117">
        <ele>42.673683</ele>
        <time>2020-10-01T11:27:35.057Z</time>
      </trkpt>
      <trkpt lat="63.56635" lon="19.81149">
        <ele>42.39117</ele>
        <time>2020-10-01T11:27:37.055Z</time>
      </trkpt>
      <trkpt lat="63.56635" lon="19.81127">
        <ele>42.086566</ele>
        <time>2020-10-01T11:27:39.058Z</time>
      </trkpt>
      <trkpt lat="63.56635" lon="19.81104">
        <ele>41.771214</ele>
        <time>2020-10-01T11:27:41.088Z</time>
      </trkpt>
      <trkpt lat="63.56635" lon="19.81079">
        <ele>41.440532</ele>
        <time>2020-10-01T11:27:43.077Z</time>
      </trkpt>
      <trkpt lat="63.56635" lon="19.81055">
        <ele>41.110297</ele>
        <time>2020-10-01T11:27:45.069Z</time>
      </trkpt>
      <trkpt lat="63.56635" lon="19.8103">
        <ele>40.774362</ele>
        <time>2020-10-01T11:27:47.061Z</time>
      </trkpt>
      <trkpt lat="63.56635" lon="19.81005">
        <ele>40.433141</ele>
        <time>2020-10-01T11:27:49.071Z</time>
      </trkpt>
      <trkpt lat="63.56635" lon="19.8098">
        <ele>40.101484</ele>
        <time>2020-10-01T11:27:51.060Z</time>
      </trkpt>
      <trkpt lat="63.56636" lon="19.80954">
        <ele>39.750797</ele>
        <time>2020-10-01T11:27:53.058Z</time>
      </trkpt>
      <trkpt lat="63.56636" lon="19.80929">
        <ele>39.403727</ele>
        <time>2020-10-01T11:27:55.084Z</time>
      </trkpt>
      <trkpt lat="63.56637" lon="19.80904">
        <ele>39.117902</ele>
        <time>2020-10-01T11:27:57.081Z</time>
      </trkpt>
      <trkpt lat="63.56637" lon="19.80879">
        <ele>39.129841</ele>
        <time>2020-10-01T11:27:59.081Z</time>
      </trkpt>
      <trkpt lat="63.56637" lon="19.80856">
        <ele>39.141388</ele>
        <time>2020-10-01T11:28:01.075Z</time>
      </trkpt>
      <trkpt lat="63.56638" lon="19.80834">
        <ele>39.152099</ele>
        <time>2020-10-01T11:28:03.060Z</time>
      </trkpt>
      <trkpt lat="63.56638" lon="19.80811">
        <ele>39.163344</ele>
        <time>2020-10-01T11:28:05.084Z</time>
      </trkpt>
      <trkpt lat="63.56638" lon="19.80788">
        <ele>39.174639</ele>
        <time>2020-10-01T11:28:07.071Z</time>
      </trkpt>
      <trkpt lat="63.56638" lon="19.80763">
        <ele>39.186529</ele>
        <time>2020-10-01T11:28:09.049Z</time>
      </trkpt>
      <trkpt lat="63.56638" lon="19.80739">
        <ele>39.198374</ele>
        <time>2020-10-01T11:28:11.092Z</time>
      </trkpt>
      <trkpt lat="63.56639" lon="19.80716">
        <ele>39.209835</ele>
        <time>2020-10-01T11:28:13.055Z</time>
      </trkpt>
      <trkpt lat="63.5664" lon="19.80694">
        <ele>39.220514</ele>
        <time>2020-10-01T11:28:15.059Z</time>
      </trkpt>
      <trkpt lat="63.5664" lon="19.80665">
        <ele>39.234841</ele>
        <time>2020-10-01T11:28:18.073Z</time>
      </trkpt>
      <trkpt lat="63.5664" lon="19.80638">
        <ele>39.247821</ele>
        <time>2020-10-01T11:28:21.081Z</time>
      </trkpt>
      <trkpt lat="63.56641" lon="19.80612">
        <ele>39.260595</ele>
        <time>2020-10-01T11:28:24.067Z</time>
      </trkpt>
      <trkpt lat="63.56641" lon="19.80588">
        <ele>39.27255</ele>
        <time>2020-10-01T11:28:27.072Z</time>
      </trkpt>
      <trkpt lat="63.56642" lon="19.80565">
        <ele>39.283896</ele>
        <time>2020-10-01T11:28:30.064Z</time>
      </trkpt>
      <trkpt lat="63.56641" lon="19.80542">
        <ele>39.294755</ele>
        <time>2020-10-01T11:28:33.066Z</time>
      </trkpt>
      <trkpt lat="63.56641" lon="19.80521">
        <ele>39.305026</ele>
        <time>2020-10-01T11:28:36.065Z</time>
      </trkpt>
      <trkpt lat="63.56641" lon="19.80501">
        <ele>39.350005</ele>
        <time>2020-10-01T11:28:39.066Z</time>
      </trkpt>
      <trkpt lat="63.56641" lon="19.80479">
        <ele>39.604124</ele>
        <time>2020-10-01T11:28:42.079Z</time>
      </trkpt>
      <trkpt lat="63.56641" lon="19.80457">
        <ele>39.861466</ele>
        <time>2020-10-01T11:28:45.071Z</time>
      </trkpt>
      <trkpt lat="63.56641" lon="19.80435">
        <ele>40.119977</ele>
        <time>2020-10-01T11:28:48.069Z</time>
      </trkpt>
      <trkpt lat="63.56642" lon="19.80412">
        <ele>40.383584</ele>
        <time>2020-10-01T11:28:51.068Z</time>
      </trkpt>
      <trkpt lat="63.56643" lon="19.8039">
        <ele>40.645803</ele>
        <time>2020-10-01T11:28:54.067Z</time>
      </trkpt>
      <trkpt lat="63.56643" lon="19.80368">
        <ele>40.907782</ele>
        <time>2020-10-01T11:28:57.102Z</time>
      </trkpt>
      <trkpt lat="63.56644" lon="19.80346">
        <ele>41.160446</ele>
        <time>2020-10-01T11:29:00.058Z</time>
      </trkpt>
      <trkpt lat="63.56644" lon="19.80324">
        <ele>41.423699</ele>
        <time>2020-10-01T11:29:03.066Z</time>
      </trkpt>
      <trkpt lat="63.56644" lon="19.80301">
        <ele>41.689226</ele>
        <time>2020-10-01T11:29:06.064Z</time>
      </trkpt>
      <trkpt lat="63.56644" lon="19.80279">
        <ele>41.943222</ele>
        <time>2020-10-01T11:29:09.092Z</time>
      </trkpt>
      <trkpt lat="63.56644" lon="19.80257">
        <ele>42.204071</ele>
        <time>2020-10-01T11:29:12.063Z</time>
      </trkpt>
      <trkpt lat="63.56644" lon="19.80234">
        <ele>42.475406</ele>
        <time>2020-10-01T11:29:15.070Z</time>
      </trkpt>
      <trkpt lat="63.56645" lon="19.80211">
        <ele>42.739183</ele>
        <time>2020-10-01T11:29:18.081Z</time>
      </trkpt>
      <trkpt lat="63.56645" lon="19.80187">
        <ele>43.017719</ele>
        <time>2020-10-01T11:29:21.059Z</time>
      </trkpt>
      <trkpt lat="63.56646" lon="19.80161">
        <ele>43.321798</ele>
        <time>2020-10-01T11:29:24.051Z</time>
      </trkpt>
      <trkpt lat="63.56646" lon="19.80133">
        <ele>43.652763</ele>
        <time>2020-10-01T11:29:27.070Z</time>
      </trkpt>
      <trkpt lat="63.56645" lon="19.80103">
        <ele>44.004239</ele>
        <time>2020-10-01T11:29:30.070Z</time>
      </trkpt>
      <trkpt lat="63.56644" lon="19.80082">
        <ele>44.001783</ele>
        <time>2020-10-01T11:29:32.082Z</time>
      </trkpt>
      <trkpt lat="63.56642" lon="19.80057">
        <ele>43.952267</ele>
        <time>2020-10-01T11:29:34.060Z</time>
      </trkpt>
      <trkpt lat="63.56638" lon="19.8003">
        <ele>43.895809</ele>
        <time>2020-10-01T11:29:36.066Z</time>
      </trkpt>
      <trkpt lat="63.56633" lon="19.8">
        <ele>43.833369</ele>
        <time>2020-10-01T11:29:38.046Z</time>
      </trkpt>
      <trkpt lat="63.56628" lon="19.79968">
        <ele>43.763541</ele>
        <time>2020-10-01T11:29:40.049Z</time>
      </trkpt>
      <trkpt lat="63.56621" lon="19.79935">
        <ele>43.690671</ele>
        <time>2020-10-01T11:29:42.063Z</time>
      </trkpt>
      <trkpt lat="63.56614" lon="19.799">
        <ele>43.615258</ele>
        <time>2020-10-01T11:29:44.060Z</time>
      </trkpt>
      <trkpt lat="63.56608" lon="19.79863">
        <ele>43.537579</ele>
        <time>2020-10-01T11:29:46.066Z</time>
      </trkpt>
      <trkpt lat="63.56602" lon="19.79829">
        <ele>43.464499</ele>
        <time>2020-10-01T11:29:48.099Z</time>
      </trkpt>
      <trkpt lat="63.56595" lon="19.79796">
        <ele>43.392897</ele>
        <time>2020-10-01T11:29:50.064Z</time>
      </trkpt>
      <trkpt lat="63.56589" lon="19.79764">
        <ele>43.32327</ele>
        <time>2020-10-01T11:29:52.095Z</time>
      </trkpt>
      <trkpt lat="63.56585" lon="19.79732">
        <ele>43.256331</ele>
        <time>2020-10-01T11:29:54.057Z</time>
      </trkpt>
      <trkpt lat="63.56582" lon="19.797">
        <ele>42.969583</ele>
        <time>2020-10-01T11:29:56.087Z</time>
      </trkpt>
      <trkpt lat="63.56581" lon="19.79668">
        <ele>42.577573</ele>
        <time>2020-10-01T11:29:58.062Z</time>
      </trkpt>
      <trkpt lat="63.56581" lon="19.79636">
        <ele>42.184495</ele>
        <time>2020-10-01T11:30:00.079Z</time>
      </trkpt>
      <trkpt lat="63.5658" lon="19.79606">
        <ele>41.823875</ele>
        <time>2020-10-01T11:30:02.060Z</time>
      </trkpt>
      <trkpt lat="63.56579" lon="19.79579">
        <ele>41.49143</ele>
        <time>2020-10-01T11:30:04.059Z</time>
      </trkpt>
      <trkpt lat="63.56578" lon="19.79551">
        <ele>41.145872</ele>
        <time>2020-10-01T11:30:06.070Z</time>
      </trkpt>
      <trkpt lat="63.56579" lon="19.79523">
        <ele>40.80647</ele>
        <time>2020-10-01T11:30:08.078Z</time>
      </trkpt>
      <trkpt lat="63.56579" lon="19.79496">
        <ele>40.472496</ele>
        <time>2020-10-01T11:30:10.075Z</time>
      </trkpt>
      <trkpt lat="63.5658" lon="19.79469">
        <ele>40.142982</ele>
        <time>2020-10-01T11:30:12.070Z</time>
      </trkpt>
      <trkpt lat="63.56581" lon="19.79444">
        <ele>39.837202</ele>
        <time>2020-10-01T11:30:14.071Z</time>
      </trkpt>
      <trkpt lat="63.56582" lon="19.79421">
        <ele>39.553786</ele>
        <time>2020-10-01T11:30:16.110Z</time>
      </trkpt>
      <trkpt lat="63.56582" lon="19.794">
        <ele>39.300965</ele>
        <time>2020-10-01T11:30:18.052Z</time>
      </trkpt>
      <trkpt lat="63.56581" lon="19.79374">
        <ele>38.981936</ele>
        <time>2020-10-01T11:30:21.050Z</time>
      </trkpt>
      <trkpt lat="63.56581" lon="19.79353">
        <ele>38.721405</ele>
        <time>2020-10-01T11:30:24.087Z</time>
      </trkpt>
      <trkpt lat="63.5658" lon="19.79327">
        <ele>38.405021</ele>
        <time>2020-10-01T11:30:28.062Z</time>
      </trkpt>
      <trkpt lat="63.56579" lon="19.79306">
        <ele>38.562393</ele>
        <time>2020-10-01T11:30:31.053Z</time>
      </trkpt>
      <trkpt lat="63.56578" lon="19.79285">
        <ele>38.988402</ele>
        <time>2020-10-01T11:30:34.060Z</time>
      </trkpt>
      <trkpt lat="63.56576" lon="19.79264">
        <ele>39.418069</ele>
        <time>2020-10-01T11:30:37.048Z</time>
      </trkpt>
      <trkpt lat="63.56575" lon="19.79241">
        <ele>39.886366</ele>
        <time>2020-10-01T11:30:40.100Z</time>
      </trkpt>
      <trkpt lat="63.56572" lon="19.79217">
        <ele>40.375697</ele>
        <time>2020-10-01T11:30:43.051Z</time>
      </trkpt>
      <trkpt lat="63.56569" lon="19.79192">
        <ele>40.908895</ele>
        <time>2020-10-01T11:30:46.057Z</time>
      </trkpt>
      <trkpt lat="63.56566" lon="19.79167">
        <ele>41.422663</ele>
        <time>2020-10-01T11:30:49.061Z</time>
      </trkpt>
      <trkpt lat="63.56562" lon="19.79144">
        <ele>41.907235</ele>
        <time>2020-10-01T11:30:52.076Z</time>
      </trkpt>
      <trkpt lat="63.56559" lon="19.79123">
        <ele>42.361153</ele>
        <time>2020-10-01T11:30:55.059Z</time>
      </trkpt>
      <trkpt lat="63.56554" lon="19.79099">
        <ele>42.88645</ele>
        <time>2020-10-01T11:30:59.070Z</time>
      </trkpt>
      <trkpt lat="63.5655" lon="19.7908">
        <ele>43.341221</ele>
        <time>2020-10-01T11:31:03.052Z</time>
      </trkpt>
      <trkpt lat="63.56545" lon="19.79056">
        <ele>43.861199</ele>
        <time>2020-10-01T11:31:07.073Z</time>
      </trkpt>
      <trkpt lat="63.56542" lon="19.79033">
        <ele>44.34768</ele>
        <time>2020-10-01T11:31:11.058Z</time>
      </trkpt>
      <trkpt lat="63.56537" lon="19.79015">
        <ele>44.758834</ele>
        <time>2020-10-01T11:31:15.065Z</time>
      </trkpt>
      <trkpt lat="63.56532" lon="19.78995">
        <ele>45.219766</ele>
        <time>2020-10-01T11:31:19.063Z</time>
      </trkpt>
      <trkpt lat="63.56528" lon="19.78974">
        <ele>45.693679</ele>
        <time>2020-10-01T11:31:22.100Z</time>
      </trkpt>
      <trkpt lat="63.56523" lon="19.78948">
        <ele>46.26331</ele>
        <time>2020-10-01T11:31:25.087Z</time>
      </trkpt>
      <trkpt lat="63.5652" lon="19.78929">
        <ele>46.333777</ele>
        <time>2020-10-01T11:31:27.062Z</time>
      </trkpt>
      <trkpt lat="63.56516" lon="19.78908">
        <ele>46.105095</ele>
        <time>2020-10-01T11:31:29.078Z</time>
      </trkpt>
      <trkpt lat="63.56513" lon="19.78886">
        <ele>45.857852</ele>
        <time>2020-10-01T11:31:31.060Z</time>
      </trkpt>
      <trkpt lat="63.5651" lon="19.78863">
        <ele>45.594287</ele>
        <time>2020-10-01T11:31:33.091Z</time>
      </trkpt>
      <trkpt lat="63.56507" lon="19.78838">
        <ele>45.326392</ele>
        <time>2020-10-01T11:31:35.061Z</time>
      </trkpt>
      <trkpt lat="63.56505" lon="19.78811">
        <ele>45.035227</ele>
        <time>2020-10-01T11:31:37.058Z</time>
      </trkpt>
      <trkpt lat="63.56503" lon="19.78784">
        <ele>44.740638</ele>
        <time>2020-10-01T11:31:39.064Z</time>
      </trkpt>
      <trkpt lat="63.565" lon="19.78757">
        <ele>44.445866</ele>
        <time>2020-10-01T11:31:41.083Z</time>
      </trkpt>
      <trkpt lat="63.56497" lon="19.7873">
        <ele>44.152476</ele>
        <time>2020-10-01T11:31:43.060Z</time>
      </trkpt>
      <trkpt lat="63.56494" lon="19.78701">
        <ele>43.8375</ele>
        <time>2020-10-01T11:31:45.081Z</time>
      </trkpt>
      <trkpt lat="63.56491" lon="19.78673">
        <ele>43.534334</ele>
        <time>2020-10-01T11:31:47.072Z</time>
      </trkpt>
      <trkpt lat="63.56489" lon="19.78646">
        <ele>43.246184</ele>
        <time>2020-10-01T11:31:49.060Z</time>
      </trkpt>
      <trkpt lat="63.56487" lon="19.7862">
        <ele>42.959518</ele>
        <time>2020-10-01T11:31:51.080Z</time>
      </trkpt>
      <trkpt lat="63.56484" lon="19.78593">
        <ele>42.677607</ele>
        <time>2020-10-01T11:31:53.075Z</time>
      </trkpt>
      <trkpt lat="63.56482" lon="19.78567">
        <ele>42.39425</ele>
        <time>2020-10-01T11:31:55.086Z</time>
      </trkpt>
      <trkpt lat="63.5648" lon="19.78541">
        <ele>42.086847</ele>
        <time>2020-10-01T11:31:57.085Z</time>
      </trkpt>
      <trkpt lat="63.56478" lon="19.78515">
        <ele>41.677249</ele>
        <time>2020-10-01T11:31:59.062Z</time>
      </trkpt>
      <trkpt lat="63.56476" lon="19.78489">
        <ele>41.272226</ele>
        <time>2020-10-01T11:32:01.055Z</time>
      </trkpt>
      <trkpt lat="63.56474" lon="19.78463">
        <ele>40.859807</ele>
        <time>2020-10-01T11:32:03.102Z</time>
      </trkpt>
      <trkpt lat="63.56472" lon="19.78435">
        <ele>40.418704</ele>
        <time>2020-10-01T11:32:05.058Z</time>
      </trkpt>
      <trkpt lat="63.56469" lon="19.78407">
        <ele>39.977357</ele>
        <time>2020-10-01T11:32:07.063Z</time>
      </trkpt>
      <trkpt lat="63.56467" lon="19.7838">
        <ele>39.549443</ele>
        <time>2020-10-01T11:32:09.084Z</time>
      </trkpt>
      <trkpt lat="63.56465" lon="19.78352">
        <ele>39.10987</ele>
        <time>2020-10-01T11:32:11.052Z</time>
      </trkpt>
      <trkpt lat="63.56463" lon="19.78323">
        <ele>38.660105</ele>
        <time>2020-10-01T11:32:13.113Z</time>
      </trkpt>
      <trkpt lat="63.56461" lon="19.78295">
        <ele>38.218959</ele>
        <time>2020-10-01T11:32:15.046Z</time>
      </trkpt>
      <trkpt lat="63.56458" lon="19.78267">
        <ele>37.765005</ele>
        <time>2020-10-01T11:32:17.069Z</time>
      </trkpt>
      <trkpt lat="63.56455" lon="19.78238">
        <ele>37.311823</ele>
        <time>2020-10-01T11:32:19.053Z</time>
      </trkpt>
      <trkpt lat="63.56452" lon="19.78209">
        <ele>36.851097</ele>
        <time>2020-10-01T11:32:21.055Z</time>
      </trkpt>
      <trkpt lat="63.5645" lon="19.7818">
        <ele>36.394151</ele>
        <time>2020-10-01T11:32:23.083Z</time>
      </trkpt>
      <trkpt lat="63.56447" lon="19.78152">
        <ele>35.94911</ele>
        <time>2020-10-01T11:32:25.062Z</time>
      </trkpt>
      <trkpt lat="63.56445" lon="19.78125">
        <ele>35.82914</ele>
        <time>2020-10-01T11:32:27.063Z</time>
      </trkpt>
      <trkpt lat="63.56443" lon="19.78099">
        <ele>35.74617</ele>
        <time>2020-10-01T11:32:29.089Z</time>
      </trkpt>
      <trkpt lat="63.5644" lon="19.78073">
        <ele>35.662717</ele>
        <time>2020-10-01T11:32:31.048Z</time>
      </trkpt>
      <trkpt lat="63.56439" lon="19.78047">
        <ele>35.579056</ele>
        <time>2020-10-01T11:32:33.051Z</time>
      </trkpt>
      <trkpt lat="63.56437" lon="19.78022">
        <ele>35.498105</ele>
        <time>2020-10-01T11:32:35.048Z</time>
      </trkpt>
      <trkpt lat="63.56435" lon="19.77996">
        <ele>35.413795</ele>
        <time>2020-10-01T11:32:37.076Z</time>
      </trkpt>
      <trkpt lat="63.56433" lon="19.7797">
        <ele>35.32972</ele>
        <time>2020-10-01T11:32:39.045Z</time>
      </trkpt>
      <trkpt lat="63.56431" lon="19.77945">
        <ele>35.250899</ele>
        <time>2020-10-01T11:32:41.059Z</time>
      </trkpt>
      <trkpt lat="63.56429" lon="19.77923">
        <ele>35.177062</ele>
        <time>2020-10-01T11:32:43.091Z</time>
      </trkpt>
      <trkpt lat="63.56426" lon="19.779">
        <ele>35.102754</ele>
        <time>2020-10-01T11:32:45.051Z</time>
      </trkpt>
      <trkpt lat="63.56424" lon="19.77878">
        <ele>35.030913</ele>
        <time>2020-10-01T11:32:47.063Z</time>
      </trkpt>
      <trkpt lat="63.56422" lon="19.77856">
        <ele>34.962089</ele>
        <time>2020-10-01T11:32:49.062Z</time>
      </trkpt>
      <trkpt lat="63.5642" lon="19.77835">
        <ele>34.892519</ele>
        <time>2020-10-01T11:32:51.059Z</time>
      </trkpt>
      <trkpt lat="63.56419" lon="19.77815">
        <ele>34.827758</ele>
        <time>2020-10-01T11:32:53.074Z</time>
      </trkpt>
      <trkpt lat="63.56417" lon="19.77795">
        <ele>34.763621</ele>
        <time>2020-10-01T11:32:55.055Z</time>
      </trkpt>
      <trkpt lat="63.56415" lon="19.77767">
        <ele>34.675244</ele>
        <time>2020-10-01T11:32:58.084Z</time>
      </trkpt>
      <trkpt lat="63.56413" lon="19.77747">
        <ele>34.66662</ele>
        <time>2020-10-01T11:33:01.087Z</time>
      </trkpt>
      <trkpt lat="63.5641" lon="19.77721">
        <ele>34.826165</ele>
        <time>2020-10-01T11:33:05.043Z</time>
      </trkpt>
      <trkpt lat="63.56408" lon="19.77701">
        <ele>34.95056</ele>
        <time>2020-10-01T11:33:08.055Z</time>
      </trkpt>
      <trkpt lat="63.56407" lon="19.7768">
        <ele>35.079239</ele>
        <time>2020-10-01T11:33:11.063Z</time>
      </trkpt>
      <trkpt lat="63.56405" lon="19.77658">
        <ele>35.211492</ele>
        <time>2020-10-01T11:33:14.064Z</time>
      </trkpt>
      <trkpt lat="63.56404" lon="19.77635">
        <ele>35.351117</ele>
        <time>2020-10-01T11:33:17.051Z</time>
      </trkpt>
      <trkpt lat="63.56402" lon="19.77611">
        <ele>35.49859</ele>
        <time>2020-10-01T11:33:20.077Z</time>
      </trkpt>
      <trkpt lat="63.564" lon="19.77587">
        <ele>35.648556</ele>
        <time>2020-10-01T11:33:23.063Z</time>
      </trkpt>
      <trkpt lat="63.56398" lon="19.77561">
        <ele>35.804495</ele>
        <time>2020-10-01T11:33:26.063Z</time>
      </trkpt>
      <trkpt lat="63.56396" lon="19.77533">
        <ele>35.976463</ele>
        <time>2020-10-01T11:33:29.099Z</time>
      </trkpt>
      <trkpt lat="63.56394" lon="19.77513">
        <ele>36.104692</ele>
        <time>2020-10-01T11:33:31.043Z</time>
      </trkpt>
      <trkpt lat="63.56392" lon="19.7749">
        <ele>36.245143</ele>
        <time>2020-10-01T11:33:33.064Z</time>
      </trkpt>
      <trkpt lat="63.5639" lon="19.77466">
        <ele>36.393804</ele>
        <time>2020-10-01T11:33:35.066Z</time>
      </trkpt>
      <trkpt lat="63.56388" lon="19.77439">
        <ele>36.559186</ele>
        <time>2020-10-01T11:33:37.091Z</time>
      </trkpt>
      <trkpt lat="63.56385" lon="19.7741">
        <ele>36.735463</ele>
        <time>2020-10-01T11:33:39.047Z</time>
      </trkpt>
      <trkpt lat="63.56381" lon="19.77379">
        <ele>36.930326</ele>
        <time>2020-10-01T11:33:41.044Z</time>
      </trkpt>
      <trkpt lat="63.56378" lon="19.77345">
        <ele>36.981767</ele>
        <time>2020-10-01T11:33:43.067Z</time>
      </trkpt>
      <trkpt lat="63.56375" lon="19.7731">
        <ele>36.721592</ele>
        <time>2020-10-01T11:33:45.050Z</time>
      </trkpt>
      <trkpt lat="63.56372" lon="19.77276">
        <ele>36.467163</ele>
        <time>2020-10-01T11:33:47.050Z</time>
      </trkpt>
      <trkpt lat="63.56369" lon="19.77239">
        <ele>36.194332</ele>
        <time>2020-10-01T11:33:49.084Z</time>
      </trkpt>
      <trkpt lat="63.56367" lon="19.77208">
        <ele>35.959235</ele>
        <time>2020-10-01T11:33:51.087Z</time>
      </trkpt>
      <trkpt lat="63.56365" lon="19.77179">
        <ele>35.745857</ele>
        <time>2020-10-01T11:33:53.061Z</time>
      </trkpt>
      <trkpt lat="63.56363" lon="19.77151">
        <ele>35.541341</ele>
        <time>2020-10-01T11:33:55.051Z</time>
      </trkpt>
      <trkpt lat="63.56361" lon="19.77124">
        <ele>35.342157</ele>
        <time>2020-10-01T11:33:57.118Z</time>
      </trkpt>
      <trkpt lat="63.56359" lon="19.77097">
        <ele>35.141085</ele>
        <time>2020-10-01T11:33:59.067Z</time>
      </trkpt>
      <trkpt lat="63.56357" lon="19.77071">
        <ele>34.943167</ele>
        <time>2020-10-01T11:34:01.079Z</time>
      </trkpt>
      <trkpt lat="63.56355" lon="19.77044">
        <ele>34.747148</ele>
        <time>2020-10-01T11:34:03.067Z</time>
      </trkpt>
      <trkpt lat="63.56353" lon="19.77018">
        <ele>34.552843</ele>
        <time>2020-10-01T11:34:05.062Z</time>
      </trkpt>
      <trkpt lat="63.56351" lon="19.76992">
        <ele>34.357982</ele>
        <time>2020-10-01T11:34:07.080Z</time>
      </trkpt>
      <trkpt lat="63.56349" lon="19.76966">
        <ele>34.167919</ele>
        <time>2020-10-01T11:34:09.056Z</time>
      </trkpt>
      <trkpt lat="63.56346" lon="19.76943">
        <ele>34.244866</ele>
        <time>2020-10-01T11:34:11.061Z</time>
      </trkpt>
      <trkpt lat="63.56344" lon="19.76913">
        <ele>34.499408</ele>
        <time>2020-10-01T11:34:14.084Z</time>
      </trkpt>
      <trkpt lat="63.56341" lon="19.76887">
        <ele>34.723415</ele>
        <time>2020-10-01T11:34:17.082Z</time>
      </trkpt>
      <trkpt lat="63.56338" lon="19.76865">
        <ele>34.91562</ele>
        <time>2020-10-01T11:34:20.054Z</time>
      </trkpt>
      <trkpt lat="63.56336" lon="19.76842">
        <ele>35.119374</ele>
        <time>2020-10-01T11:34:23.067Z</time>
      </trkpt>
      <trkpt lat="63.56334" lon="19.76816">
        <ele>35.339564</ele>
        <time>2020-10-01T11:34:26.044Z</time>
      </trkpt>
      <trkpt lat="63.56332" lon="19.76788">
        <ele>35.574527</ele>
        <time>2020-10-01T11:34:29.079Z</time>
      </trkpt>
      <trkpt lat="63.5633" lon="19.7676">
        <ele>35.808664</ele>
        <time>2020-10-01T11:34:32.054Z</time>
      </trkpt>
      <trkpt lat="63.56328" lon="19.76731">
        <ele>36.054715</ele>
        <time>2020-10-01T11:34:35.053Z</time>
      </trkpt>
      <trkpt lat="63.56327" lon="19.76711">
        <ele>36.226371</ele>
        <time>2020-10-01T11:34:37.050Z</time>
      </trkpt>
      <trkpt lat="63.56326" lon="19.7669">
        <ele>36.399871</ele>
        <time>2020-10-01T11:34:39.051Z</time>
      </trkpt>
      <trkpt lat="63.56325" lon="19.76668">
        <ele>36.584158</ele>
        <time>2020-10-01T11:34:41.055Z</time>
      </trkpt>
      <trkpt lat="63.56323" lon="19.76646">
        <ele>36.773348</ele>
        <time>2020-10-01T11:34:43.072Z</time>
      </trkpt>
      <trkpt lat="63.56322" lon="19.76624">
        <ele>36.956482</ele>
        <time>2020-10-01T11:34:45.064Z</time>
      </trkpt>
      <trkpt lat="63.56321" lon="19.76603">
        <ele>37.132105</ele>
        <time>2020-10-01T11:34:47.059Z</time>
      </trkpt>
      <trkpt lat="63.5632" lon="19.76575">
        <ele>37.367567</ele>
        <time>2020-10-01T11:34:50.102Z</time>
      </trkpt>
      <trkpt lat="63.56319" lon="19.7655">
        <ele>37.553528</ele>
        <time>2020-10-01T11:34:53.061Z</time>
      </trkpt>
      <trkpt lat="63.56319" lon="19.76528">
        <ele>37.690013</ele>
        <time>2020-10-01T11:34:56.109Z</time>
      </trkpt>
      <trkpt lat="63.56318" lon="19.76501">
        <ele>37.84991</ele>
        <time>2020-10-01T11:35:00.047Z</time>
      </trkpt>
      <trkpt lat="63.56317" lon="19.76478">
        <ele>37.986816</ele>
        <time>2020-10-01T11:35:03.062Z</time>
      </trkpt>
      <trkpt lat="63.56316" lon="19.76453">
        <ele>38.13982</ele>
        <time>2020-10-01T11:35:07.081Z</time>
      </trkpt>
      <trkpt lat="63.56316" lon="19.76426">
        <ele>38.29977</ele>
        <time>2020-10-01T11:35:11.075Z</time>
      </trkpt>
      <trkpt lat="63.56316" lon="19.76405">
        <ele>38.425543</ele>
        <time>2020-10-01T11:35:14.095Z</time>
      </trkpt>
      <trkpt lat="63.56315" lon="19.76384">
        <ele>38.552983</ele>
        <time>2020-10-01T11:35:17.048Z</time>
      </trkpt>
      <trkpt lat="63.56313" lon="19.76364">
        <ele>38.678866</ele>
        <time>2020-10-01T11:35:20.103Z</time>
      </trkpt>
      <trkpt lat="63.56312" lon="19.76344">
        <ele>38.800387</ele>
        <time>2020-10-01T11:35:23.075Z</time>
      </trkpt>
      <trkpt lat="63.56311" lon="19.76319">
        <ele>38.9513</ele>
        <time>2020-10-01T11:35:27.062Z</time>
      </trkpt>
      <trkpt lat="63.5631" lon="19.76294">
        <ele>39.101002</ele>
        <time>2020-10-01T11:35:31.057Z</time>
      </trkpt>
      <trkpt lat="63.56309" lon="19.76274">
        <ele>39.222459</ele>
        <time>2020-10-01T11:35:34.060Z</time>
      </trkpt>
      <trkpt lat="63.56308" lon="19.76254">
        <ele>39.345254</ele>
        <time>2020-10-01T11:35:37.068Z</time>
      </trkpt>
      <trkpt lat="63.56307" lon="19.76233">
        <ele>39.471375</ele>
        <time>2020-10-01T11:35:40.046Z</time>
      </trkpt>
      <trkpt lat="63.56307" lon="19.76211">
        <ele>39.600646</ele>
        <time>2020-10-01T11:35:43.056Z</time>
      </trkpt>
      <trkpt lat="63.56306" lon="19.7619">
        <ele>39.727571</ele>
        <time>2020-10-01T11:35:46.103Z</time>
      </trkpt>
      <trkpt lat="63.56306" lon="19.76169">
        <ele>39.854089</ele>
        <time>2020-10-01T11:35:49.060Z</time>
      </trkpt>
      <trkpt lat="63.56305" lon="19.76147">
        <ele>39.888373</ele>
        <time>2020-10-01T11:35:52.055Z</time>
      </trkpt>
      <trkpt lat="63.56305" lon="19.76123">
        <ele>39.822461</ele>
        <time>2020-10-01T11:35:55.072Z</time>
      </trkpt>
      <trkpt lat="63.56305" lon="19.76098">
        <ele>39.752798</ele>
        <time>2020-10-01T11:35:58.085Z</time>
      </trkpt>
      <trkpt lat="63.56305" lon="19.76068">
        <ele>39.67102</ele>
        <time>2020-10-01T11:36:01.102Z</time>
      </trkpt>
      <trkpt lat="63.56305" lon="19.76046">
        <ele>39.609055</ele>
        <time>2020-10-01T11:36:03.060Z</time>
      </trkpt>
      <trkpt lat="63.56305" lon="19.76021">
        <ele>39.54155</ele>
        <time>2020-10-01T11:36:05.071Z</time>
      </trkpt>
      <trkpt lat="63.56305" lon="19.75996">
        <ele>39.471334</ele>
        <time>2020-10-01T11:36:07.051Z</time>
      </trkpt>
      <trkpt lat="63.56306" lon="19.7597">
        <ele>39.401096</ele>
        <time>2020-10-01T11:36:09.058Z</time>
      </trkpt>
      <trkpt lat="63.56306" lon="19.75944">
        <ele>39.329164</ele>
        <time>2020-10-01T11:36:11.083Z</time>
      </trkpt>
      <trkpt lat="63.56306" lon="19.75919">
        <ele>39.258651</ele>
        <time>2020-10-01T11:36:13.072Z</time>
      </trkpt>
      <trkpt lat="63.56307" lon="19.75893">
        <ele>39.189164</ele>
        <time>2020-10-01T11:36:15.047Z</time>
      </trkpt>
      <trkpt lat="63.56308" lon="19.75869">
        <ele>39.122734</ele>
        <time>2020-10-01T11:36:17.049Z</time>
      </trkpt>
      <trkpt lat="63.56308" lon="19.75845">
        <ele>39.054653</ele>
        <time>2020-10-01T11:36:19.100Z</time>
      </trkpt>
      <trkpt lat="63.56309" lon="19.7582">
        <ele>38.985681</ele>
        <time>2020-10-01T11:36:21.067Z</time>
      </trkpt>
      <trkpt lat="63.56309" lon="19.75796">
        <ele>38.919768</ele>
        <time>2020-10-01T11:36:23.062Z</time>
      </trkpt>
      <trkpt lat="63.5631" lon="19.75773">
        <ele>38.858063</ele>
        <time>2020-10-01T11:36:25.088Z</time>
      </trkpt>
      <trkpt lat="63.5631" lon="19.75753">
        <ele>38.826098</ele>
        <time>2020-10-01T11:36:27.067Z</time>
      </trkpt>
      <trkpt lat="63.5631" lon="19.75723">
        <ele>39.116547</ele>
        <time>2020-10-01T11:36:30.068Z</time>
      </trkpt>
      <trkpt lat="63.5631" lon="19.75694">
        <ele>39.397286</ele>
        <time>2020-10-01T11:36:33.066Z</time>
      </trkpt>
      <trkpt lat="63.56309" lon="19.75666">
        <ele>39.678368</ele>
        <time>2020-10-01T11:36:36.061Z</time>
      </trkpt>
      <trkpt lat="63.56309" lon="19.75637">
        <ele>39.959107</ele>
        <time>2020-10-01T11:36:39.064Z</time>
      </trkpt>
      <trkpt lat="63.56307" lon="19.7561">
        <ele>40.221593</ele>
        <time>2020-10-01T11:36:42.050Z</time>
      </trkpt>
      <trkpt lat="63.56305" lon="19.75585">
        <ele>40.467941</ele>
        <time>2020-10-01T11:36:45.056Z</time>
      </trkpt>
      <trkpt lat="63.56304" lon="19.75563">
        <ele>40.691079</ele>
        <time>2020-10-01T11:36:48.102Z</time>
      </trkpt>
      <trkpt lat="63.56302" lon="19.75542">
        <ele>40.901597</ele>
        <time>2020-10-01T11:36:51.070Z</time>
      </trkpt>
      <trkpt lat="63.563" lon="19.75521">
        <ele>41.107326</ele>
        <time>2020-10-01T11:36:54.099Z</time>
      </trkpt>
      <trkpt lat="63.56298" lon="19.75499">
        <ele>41.330691</ele>
        <time>2020-10-01T11:36:57.049Z</time>
      </trkpt>
      <trkpt lat="63.56295" lon="19.75476">
        <ele>41.563169</ele>
        <time>2020-10-01T11:37:00.082Z</time>
      </trkpt>
      <trkpt lat="63.56293" lon="19.75454">
        <ele>41.781984</ele>
        <time>2020-10-01T11:37:03.102Z</time>
      </trkpt>
      <trkpt lat="63.56289" lon="19.75432">
        <ele>42.017463</ele>
        <time>2020-10-01T11:37:06.053Z</time>
      </trkpt>
      <trkpt lat="63.56285" lon="19.75409">
        <ele>42.26051</ele>
        <time>2020-10-01T11:37:09.061Z</time>
      </trkpt>
      <trkpt lat="63.5628" lon="19.75385">
        <ele>42.50887</ele>
        <time>2020-10-01T11:37:12.101Z</time>
      </trkpt>
      <trkpt lat="63.56275" lon="19.75363">
        <ele>42.755612</ele>
        <time>2020-10-01T11:37:15.057Z</time>
      </trkpt>
      <trkpt lat="63.56269" lon="19.75342">
        <ele>42.91913</ele>
        <time>2020-10-01T11:37:18.065Z</time>
      </trkpt>
      <trkpt lat="63.56263" lon="19.75322">
        <ele>43.082005</ele>
        <time>2020-10-01T11:37:21.053Z</time>
      </trkpt>
      <trkpt lat="63.56257" lon="19.75302">
        <ele>43.249972</ele>
        <time>2020-10-01T11:37:24.056Z</time>
      </trkpt>
      <trkpt lat="63.5625" lon="19.75281">
        <ele>43.422043</ele>
        <time>2020-10-01T11:37:27.055Z</time>
      </trkpt>
      <trkpt lat="63.56243" lon="19.75259">
        <ele>43.599391</ele>
        <time>2020-10-01T11:37:30.105Z</time>
      </trkpt>
      <trkpt lat="63.56236" lon="19.75238">
        <ele>43.781221</ele>
        <time>2020-10-01T11:37:33.089Z</time>
      </trkpt>
      <trkpt lat="63.56228" lon="19.75217">
        <ele>43.961779</ele>
        <time>2020-10-01T11:37:36.061Z</time>
      </trkpt>
      <trkpt lat="63.5622" lon="19.75198">
        <ele>44.134802</ele>
        <time>2020-10-01T11:37:39.083Z</time>
      </trkpt>
      <trkpt lat="63.56213" lon="19.75181">
        <ele>44.293331</ele>
        <time>2020-10-01T11:37:42.079Z</time>
      </trkpt>
      <trkpt lat="63.56207" lon="19.75165">
        <ele>44.430963</ele>
        <time>2020-10-01T11:37:45.061Z</time>
      </trkpt>
      <trkpt lat="63.56202" lon="19.75147">
        <ele>44.578657</ele>
        <time>2020-10-01T11:37:49.072Z</time>
      </trkpt>
      <trkpt lat="63.56195" lon="19.75126">
        <ele>44.751562</ele>
        <time>2020-10-01T11:37:54.062Z</time>
      </trkpt>
      <trkpt lat="63.5619" lon="19.75108">
        <ele>44.896618</ele>
        <time>2020-10-01T11:37:58.066Z</time>
      </trkpt>
      <trkpt lat="63.56185" lon="19.75091">
        <ele>45.031657</ele>
        <time>2020-10-01T11:38:02.054Z</time>
      </trkpt>
      <trkpt lat="63.56179" lon="19.75071">
        <ele>45.19066</ele>
        <time>2020-10-01T11:38:07.075Z</time>
      </trkpt>
      <trkpt lat="63.56175" lon="19.75052">
        <ele>45.326508</ele>
        <time>2020-10-01T11:38:11.096Z</time>
      </trkpt>
      <trkpt lat="63.56171" lon="19.75034">
        <ele>45.449372</ele>
        <time>2020-10-01T11:38:15.085Z</time>
      </trkpt>
      <trkpt lat="63.56166" lon="19.75011">
        <ele>45.110806</ele>
        <time>2020-10-01T11:38:19.061Z</time>
      </trkpt>
      <trkpt lat="63.56161" lon="19.7499">
        <ele>44.80024</ele>
        <time>2020-10-01T11:38:22.081Z</time>
      </trkpt>
      <trkpt lat="63.56156" lon="19.74965">
        <ele>44.444795</ele>
        <time>2020-10-01T11:38:25.044Z</time>
      </trkpt>
      <trkpt lat="63.56152" lon="19.74945">
        <ele>44.153229</ele>
        <time>2020-10-01T11:38:27.088Z</time>
      </trkpt>
      <trkpt lat="63.56149" lon="19.74921">
        <ele>43.824944</ele>
        <time>2020-10-01T11:38:29.052Z</time>
      </trkpt>
      <trkpt lat="63.56146" lon="19.74892">
        <ele>43.431727</ele>
        <time>2020-10-01T11:38:31.097Z</time>
      </trkpt>
      <trkpt lat="63.56142" lon="19.74861">
        <ele>43.013955</ele>
        <time>2020-10-01T11:38:33.058Z</time>
      </trkpt>
      <trkpt lat="63.56139" lon="19.74829">
        <ele>42.578865</ele>
        <time>2020-10-01T11:38:35.059Z</time>
      </trkpt>
      <trkpt lat="63.56136" lon="19.74795">
        <ele>42.121766</ele>
        <time>2020-10-01T11:38:37.099Z</time>
      </trkpt>
      <trkpt lat="63.56133" lon="19.7476">
        <ele>41.64934</ele>
        <time>2020-10-01T11:38:39.061Z</time>
      </trkpt>
      <trkpt lat="63.56129" lon="19.74723">
        <ele>41.145946</ele>
        <time>2020-10-01T11:38:41.070Z</time>
      </trkpt>
      <trkpt lat="63.56126" lon="19.74684">
        <ele>40.628436</ele>
        <time>2020-10-01T11:38:43.070Z</time>
      </trkpt>
      <trkpt lat="63.56122" lon="19.74646">
        <ele>40.124183</ele>
        <time>2020-10-01T11:38:45.097Z</time>
      </trkpt>
      <trkpt lat="63.56119" lon="19.74608">
        <ele>39.944064</ele>
        <time>2020-10-01T11:38:47.063Z</time>
      </trkpt>
      <trkpt lat="63.56116" lon="19.74575">
        <ele>39.783388</ele>
        <time>2020-10-01T11:38:49.046Z</time>
      </trkpt>
      <trkpt lat="63.56114" lon="19.74545">
        <ele>39.638637</ele>
        <time>2020-10-01T11:38:51.068Z</time>
      </trkpt>
      <trkpt lat="63.56113" lon="19.74519">
        <ele>39.515137</ele>
        <time>2020-10-01T11:38:53.064Z</time>
      </trkpt>
      <trkpt lat="63.56112" lon="19.74496">
        <ele>39.402258</ele>
        <time>2020-10-01T11:38:55.050Z</time>
      </trkpt>
      <trkpt lat="63.56112" lon="19.74474">
        <ele>39.297431</ele>
        <time>2020-10-01T11:38:57.084Z</time>
      </trkpt>
      <trkpt lat="63.56111" lon="19.74452">
        <ele>39.192424</ele>
        <time>2020-10-01T11:38:59.062Z</time>
      </trkpt>
      <trkpt lat="63.56111" lon="19.7443">
        <ele>39.089107</ele>
        <time>2020-10-01T11:39:01.087Z</time>
      </trkpt>
      <trkpt lat="63.56111" lon="19.74408">
        <ele>38.985298</ele>
        <time>2020-10-01T11:39:03.068Z</time>
      </trkpt>
      <trkpt lat="63.56111" lon="19.74386">
        <ele>38.878156</ele>
        <time>2020-10-01T11:39:05.081Z</time>
      </trkpt>
      <trkpt lat="63.56111" lon="19.74363">
        <ele>38.769524</ele>
        <time>2020-10-01T11:39:07.063Z</time>
      </trkpt>
      <trkpt lat="63.56111" lon="19.7434">
        <ele>38.661446</ele>
        <time>2020-10-01T11:39:09.069Z</time>
      </trkpt>
      <trkpt lat="63.56111" lon="19.74317">
        <ele>38.551386</ele>
        <time>2020-10-01T11:39:11.064Z</time>
      </trkpt>
      <trkpt lat="63.5611" lon="19.74293">
        <ele>38.437355</ele>
        <time>2020-10-01T11:39:13.075Z</time>
      </trkpt>
      <trkpt lat="63.5611" lon="19.74268">
        <ele>38.319241</ele>
        <time>2020-10-01T11:39:15.100Z</time>
      </trkpt>
      <trkpt lat="63.5611" lon="19.74241">
        <ele>38.141406</ele>
        <time>2020-10-01T11:39:17.061Z</time>
      </trkpt>
      <trkpt lat="63.5611" lon="19.74211">
        <ele>37.707307</ele>
        <time>2020-10-01T11:39:19.045Z</time>
      </trkpt>
      <trkpt lat="63.56109" lon="19.7418">
        <ele>37.252775</ele>
        <time>2020-10-01T11:39:21.090Z</time>
      </trkpt>
      <trkpt lat="63.56108" lon="19.74146">
        <ele>36.748245</ele>
        <time>2020-10-01T11:39:23.046Z</time>
      </trkpt>
      <trkpt lat="63.56105" lon="19.74111">
        <ele>36.227099</ele>
        <time>2020-10-01T11:39:25.083Z</time>
      </trkpt>
      <trkpt lat="63.56103" lon="19.74073">
        <ele>35.675154</ele>
        <time>2020-10-01T11:39:27.106Z</time>
      </trkpt>
      <trkpt lat="63.561" lon="19.74035">
        <ele>35.111672</ele>
        <time>2020-10-01T11:39:29.080Z</time>
      </trkpt>
      <trkpt lat="63.56098" lon="19.74015">
        <ele>34.816317</ele>
        <time>2020-10-01T11:39:30.061Z</time>
      </trkpt>
      <trkpt lat="63.56097" lon="19.73995">
        <ele>34.518927</ele>
        <time>2020-10-01T11:39:31.085Z</time>
      </trkpt>
      <trkpt lat="63.56095" lon="19.73975">
        <ele>34.221537</ele>
        <time>2020-10-01T11:39:32.059Z</time>
      </trkpt>
      <trkpt lat="63.56093" lon="19.73955">
        <ele>33.921418</ele>
        <time>2020-10-01T11:39:33.062Z</time>
      </trkpt>
      <trkpt lat="63.56091" lon="19.73935">
        <ele>33.624826</ele>
        <time>2020-10-01T11:39:34.072Z</time>
      </trkpt>
      <trkpt lat="63.5609" lon="19.73915">
        <ele>33.330036</ele>
        <time>2020-10-01T11:39:35.055Z</time>
      </trkpt>
      <trkpt lat="63.56087" lon="19.73877">
        <ele>32.756564</ele>
        <time>2020-10-01T11:39:37.103Z</time>
      </trkpt>
      <trkpt lat="63.56084" lon="19.73841">
        <ele>32.29283</ele>
        <time>2020-10-01T11:39:39.078Z</time>
      </trkpt>
      <trkpt lat="63.56081" lon="19.73808">
        <ele>32.192131</ele>
        <time>2020-10-01T11:39:41.065Z</time>
      </trkpt>
      <trkpt lat="63.56078" lon="19.73776">
        <ele>32.096534</ele>
        <time>2020-10-01T11:39:43.079Z</time>
      </trkpt>
      <trkpt lat="63.56075" lon="19.73747">
        <ele>32.006783</ele>
        <time>2020-10-01T11:39:45.053Z</time>
      </trkpt>
      <trkpt lat="63.56073" lon="19.73719">
        <ele>31.923431</ele>
        <time>2020-10-01T11:39:47.057Z</time>
      </trkpt>
      <trkpt lat="63.56071" lon="19.73694">
        <ele>31.847487</ele>
        <time>2020-10-01T11:39:49.057Z</time>
      </trkpt>
      <trkpt lat="63.56069" lon="19.7367">
        <ele>31.774075</ele>
        <time>2020-10-01T11:39:51.085Z</time>
      </trkpt>
      <trkpt lat="63.56068" lon="19.73646">
        <ele>31.70135</ele>
        <time>2020-10-01T11:39:53.055Z</time>
      </trkpt>
      <trkpt lat="63.56066" lon="19.73621">
        <ele>31.627077</ele>
        <time>2020-10-01T11:39:55.074Z</time>
      </trkpt>
      <trkpt lat="63.56066" lon="19.73593">
        <ele>31.545026</ele>
        <time>2020-10-01T11:39:57.080Z</time>
      </trkpt>
      <trkpt lat="63.56065" lon="19.73567">
        <ele>31.464756</ele>
        <time>2020-10-01T11:39:59.068Z</time>
      </trkpt>
      <trkpt lat="63.56064" lon="19.73537">
        <ele>31.377776</ele>
        <time>2020-10-01T11:40:01.051Z</time>
      </trkpt>
      <trkpt lat="63.56063" lon="19.73509">
        <ele>31.29164</ele>
        <time>2020-10-01T11:40:03.062Z</time>
      </trkpt>
      <trkpt lat="63.56063" lon="19.7348">
        <ele>31.20581</ele>
        <time>2020-10-01T11:40:05.061Z</time>
      </trkpt>
      <trkpt lat="63.56064" lon="19.73452">
        <ele>31.122026</ele>
        <time>2020-10-01T11:40:07.108Z</time>
      </trkpt>
      <trkpt lat="63.56064" lon="19.73424">
        <ele>31.384173</ele>
        <time>2020-10-01T11:40:09.088Z</time>
      </trkpt>
      <trkpt lat="63.56065" lon="19.73397">
        <ele>31.722538</ele>
        <time>2020-10-01T11:40:11.059Z</time>
      </trkpt>
      <trkpt lat="63.56065" lon="19.73371">
        <ele>32.042925</ele>
        <time>2020-10-01T11:40:13.072Z</time>
      </trkpt>
      <trkpt lat="63.56066" lon="19.73346">
        <ele>32.348635</ele>
        <time>2020-10-01T11:40:15.059Z</time>
      </trkpt>
      <trkpt lat="63.56067" lon="19.73319">
        <ele>32.678387</ele>
        <time>2020-10-01T11:40:17.048Z</time>
      </trkpt>
      <trkpt lat="63.56069" lon="19.73294">
        <ele>32.98956</ele>
        <time>2020-10-01T11:40:19.078Z</time>
      </trkpt>
      <trkpt lat="63.5607" lon="19.7327">
        <ele>33.283236</ele>
        <time>2020-10-01T11:40:21.060Z</time>
      </trkpt>
      <trkpt lat="63.56071" lon="19.73248">
        <ele>33.557863</ele>
        <time>2020-10-01T11:40:23.066Z</time>
      </trkpt>
      <trkpt lat="63.56072" lon="19.73224">
        <ele>33.845525</ele>
        <time>2020-10-01T11:40:25.056Z</time>
      </trkpt>
      <trkpt lat="63.56074" lon="19.73199">
        <ele>34.153934</ele>
        <time>2020-10-01T11:40:27.085Z</time>
      </trkpt>
      <trkpt lat="63.56075" lon="19.73175">
        <ele>34.453826</ele>
        <time>2020-10-01T11:40:29.061Z</time>
      </trkpt>
      <trkpt lat="63.56077" lon="19.73152">
        <ele>34.74434</ele>
        <time>2020-10-01T11:40:31.137Z</time>
      </trkpt>
      <trkpt lat="63.56078" lon="19.7313">
        <ele>35.019144</ele>
        <time>2020-10-01T11:40:33.057Z</time>
      </trkpt>
      <trkpt lat="63.56079" lon="19.73108">
        <ele>35.281307</ele>
        <time>2020-10-01T11:40:35.060Z</time>
      </trkpt>
      <trkpt lat="63.5608" lon="19.73085">
        <ele>35.563839</ele>
        <time>2020-10-01T11:40:37.092Z</time>
      </trkpt>
      <trkpt lat="63.56081" lon="19.73062">
        <ele>35.849984</ele>
        <time>2020-10-01T11:40:39.089Z</time>
      </trkpt>
      <trkpt lat="63.56082" lon="19.73038">
        <ele>36.14913</ele>
        <time>2020-10-01T11:40:41.058Z</time>
      </trkpt>
      <trkpt lat="63.56084" lon="19.73015">
        <ele>36.446139</ele>
        <time>2020-10-01T11:40:43.080Z</time>
      </trkpt>
      <trkpt lat="63.56086" lon="19.7299">
        <ele>36.75923</ele>
        <time>2020-10-01T11:40:45.046Z</time>
      </trkpt>
      <trkpt lat="63.56088" lon="19.72965">
        <ele>37.07817</ele>
        <time>2020-10-01T11:40:47.068Z</time>
      </trkpt>
      <trkpt lat="63.56089" lon="19.7294">
        <ele>37.394639</ele>
        <time>2020-10-01T11:40:49.080Z</time>
      </trkpt>
      <trkpt lat="63.56091" lon="19.72915">
        <ele>37.710644</ele>
        <time>2020-10-01T11:40:51.060Z</time>
      </trkpt>
      <trkpt lat="63.56092" lon="19.7289">
        <ele>38.023142</ele>
        <time>2020-10-01T11:40:53.079Z</time>
      </trkpt>
      <trkpt lat="63.56094" lon="19.72865">
        <ele>38.340775</ele>
        <time>2020-10-01T11:40:55.057Z</time>
      </trkpt>
      <trkpt lat="63.56095" lon="19.72841">
        <ele>38.639273</ele>
        <time>2020-10-01T11:40:57.073Z</time>
      </trkpt>
      <trkpt lat="63.56096" lon="19.72817">
        <ele>38.939512</ele>
        <time>2020-10-01T11:40:59.055Z</time>
      </trkpt>
      <trkpt lat="63.56097" lon="19.72794">
        <ele>39.238009</ele>
        <time>2020-10-01T11:41:01.046Z</time>
      </trkpt>
      <trkpt lat="63.56098" lon="19.72769">
        <ele>39.545229</ele>
        <time>2020-10-01T11:41:03.062Z</time>
      </trkpt>
      <trkpt lat="63.56099" lon="19.72746">
        <ele>39.842481</ele>
        <time>2020-10-01T11:41:05.069Z</time>
      </trkpt>
      <trkpt lat="63.56101" lon="19.72721">
        <ele>40.159722</ele>
        <time>2020-10-01T11:41:07.063Z</time>
      </trkpt>
      <trkpt lat="63.56102" lon="19.72696">
        <ele>40.468804</ele>
        <time>2020-10-01T11:41:09.064Z</time>
      </trkpt>
      <trkpt lat="63.56103" lon="19.72673">
        <ele>40.760138</ele>
        <time>2020-10-01T11:41:11.101Z</time>
      </trkpt>
      <trkpt lat="63.56104" lon="19.72651">
        <ele>41.039034</ele>
        <time>2020-10-01T11:41:13.051Z</time>
      </trkpt>
      <trkpt lat="63.56106" lon="19.72629">
        <ele>40.932098</ele>
        <time>2020-10-01T11:41:15.104Z</time>
      </trkpt>
      <trkpt lat="63.56107" lon="19.72607">
        <ele>40.672834</ele>
        <time>2020-10-01T11:41:17.050Z</time>
      </trkpt>
      <trkpt lat="63.56109" lon="19.72585">
        <ele>40.419443</ele>
        <time>2020-10-01T11:41:19.071Z</time>
      </trkpt>
      <trkpt lat="63.56112" lon="19.72564">
        <ele>40.164328</ele>
        <time>2020-10-01T11:41:21.075Z</time>
      </trkpt>
      <trkpt lat="63.56114" lon="19.72541">
        <ele>39.895127</ele>
        <time>2020-10-01T11:41:23.062Z</time>
      </trkpt>
      <trkpt lat="63.56116" lon="19.72517">
        <ele>39.609627</ele>
        <time>2020-10-01T11:41:25.107Z</time>
      </trkpt>
      <trkpt lat="63.56118" lon="19.72493">
        <ele>39.330979</ele>
        <time>2020-10-01T11:41:27.051Z</time>
      </trkpt>
      <trkpt lat="63.56119" lon="19.7247">
        <ele>39.064154</ele>
        <time>2020-10-01T11:41:29.062Z</time>
      </trkpt>
      <trkpt lat="63.56121" lon="19.72447">
        <ele>38.796944</ele>
        <time>2020-10-01T11:41:31.056Z</time>
      </trkpt>
      <trkpt lat="63.56122" lon="19.72425">
        <ele>38.539573</ele>
        <time>2020-10-01T11:41:33.064Z</time>
      </trkpt>
      <trkpt lat="63.56123" lon="19.72403">
        <ele>38.280729</ele>
        <time>2020-10-01T11:41:35.058Z</time>
      </trkpt>
      <trkpt lat="63.56124" lon="19.72381">
        <ele>38.022678</ele>
        <time>2020-10-01T11:41:37.102Z</time>
      </trkpt>
      <trkpt lat="63.56126" lon="19.72359">
        <ele>37.76416</ele>
        <time>2020-10-01T11:41:39.056Z</time>
      </trkpt>
      <trkpt lat="63.56127" lon="19.72336">
        <ele>37.504494</ele>
        <time>2020-10-01T11:41:41.071Z</time>
      </trkpt>
      <trkpt lat="63.56128" lon="19.72314">
        <ele>37.242212</ele>
        <time>2020-10-01T11:41:43.080Z</time>
      </trkpt>
      <trkpt lat="63.5613" lon="19.72291">
        <ele>36.97471</ele>
        <time>2020-10-01T11:41:45.050Z</time>
      </trkpt>
      <trkpt lat="63.56132" lon="19.72267">
        <ele>36.693032</ele>
        <time>2020-10-01T11:41:47.065Z</time>
      </trkpt>
      <trkpt lat="63.56133" lon="19.72243">
        <ele>36.4381</ele>
        <time>2020-10-01T11:41:49.057Z</time>
      </trkpt>
      <trkpt lat="63.56134" lon="19.7222">
        <ele>36.348568</ele>
        <time>2020-10-01T11:41:51.058Z</time>
      </trkpt>
      <trkpt lat="63.56135" lon="19.72198">
        <ele>36.260355</ele>
        <time>2020-10-01T11:41:53.068Z</time>
      </trkpt>
      <trkpt lat="63.56136" lon="19.72175">
        <ele>36.171678</ele>
        <time>2020-10-01T11:41:55.046Z</time>
      </trkpt>
      <trkpt lat="63.56137" lon="19.72151">
        <ele>36.080997</ele>
        <time>2020-10-01T11:41:57.078Z</time>
      </trkpt>
      <trkpt lat="63.56138" lon="19.72128">
        <ele>35.99022</ele>
        <time>2020-10-01T11:41:59.103Z</time>
      </trkpt>
      <trkpt lat="63.56139" lon="19.72104">
        <ele>35.898005</ele>
        <time>2020-10-01T11:42:01.059Z</time>
      </trkpt>
      <trkpt lat="63.5614" lon="19.7208">
        <ele>35.806906</ele>
        <time>2020-10-01T11:42:03.050Z</time>
      </trkpt>
      <trkpt lat="63.56141" lon="19.72058">
        <ele>35.720229</ele>
        <time>2020-10-01T11:42:05.088Z</time>
      </trkpt>
      <trkpt lat="63.56142" lon="19.72036">
        <ele>35.635727</ele>
        <time>2020-10-01T11:42:07.064Z</time>
      </trkpt>
      <trkpt lat="63.56144" lon="19.72014">
        <ele>35.549954</ele>
        <time>2020-10-01T11:42:09.086Z</time>
      </trkpt>
      <trkpt lat="63.56145" lon="19.71992">
        <ele>35.464917</ele>
        <time>2020-10-01T11:42:11.067Z</time>
      </trkpt>
      <trkpt lat="63.56146" lon="19.71972">
        <ele>35.384854</ele>
        <time>2020-10-01T11:42:13.070Z</time>
      </trkpt>
      <trkpt lat="63.56148" lon="19.71951">
        <ele>35.304406</ele>
        <time>2020-10-01T11:42:15.064Z</time>
      </trkpt>
      <trkpt lat="63.56149" lon="19.71929">
        <ele>35.219141</ele>
        <time>2020-10-01T11:42:17.049Z</time>
      </trkpt>
      <trkpt lat="63.5615" lon="19.71907">
        <ele>35.133995</ele>
        <time>2020-10-01T11:42:19.088Z</time>
      </trkpt>
      <trkpt lat="63.56152" lon="19.71887">
        <ele>35.05279</ele>
        <time>2020-10-01T11:42:21.082Z</time>
      </trkpt>
      <trkpt lat="63.56153" lon="19.71865">
        <ele>34.96867</ele>
        <time>2020-10-01T11:42:23.058Z</time>
      </trkpt>
      <trkpt lat="63.56155" lon="19.71845">
        <ele>34.899922</ele>
        <time>2020-10-01T11:42:25.063Z</time>
      </trkpt>
      <trkpt lat="63.56156" lon="19.71823">
        <ele>35.203466</ele>
        <time>2020-10-01T11:42:27.077Z</time>
      </trkpt>
      <trkpt lat="63.56158" lon="19.71801">
        <ele>35.503792</ele>
        <time>2020-10-01T11:42:29.064Z</time>
      </trkpt>
      <trkpt lat="63.56159" lon="19.7178">
        <ele>35.795463</ele>
        <time>2020-10-01T11:42:31.060Z</time>
      </trkpt>
      <trkpt lat="63.56161" lon="19.71758">
        <ele>36.102608</ele>
        <time>2020-10-01T11:42:33.096Z</time>
      </trkpt>
      <trkpt lat="63.56162" lon="19.71737">
        <ele>36.399738</ele>
        <time>2020-10-01T11:42:35.053Z</time>
      </trkpt>
      <trkpt lat="63.56163" lon="19.71715">
        <ele>36.707371</ele>
        <time>2020-10-01T11:42:37.087Z</time>
      </trkpt>
      <trkpt lat="63.56164" lon="19.71694">
        <ele>37.00401</ele>
        <time>2020-10-01T11:42:39.048Z</time>
      </trkpt>
      <trkpt lat="63.56165" lon="19.71673">
        <ele>37.286221</ele>
        <time>2020-10-01T11:42:41.095Z</time>
      </trkpt>
      <trkpt lat="63.56166" lon="19.71652">
        <ele>37.57608</ele>
        <time>2020-10-01T11:42:43.058Z</time>
      </trkpt>
      <trkpt lat="63.56168" lon="19.71632">
        <ele>37.863205</ele>
        <time>2020-10-01T11:42:45.078Z</time>
      </trkpt>
      <trkpt lat="63.56169" lon="19.71611">
        <ele>38.15624</ele>
        <time>2020-10-01T11:42:47.064Z</time>
      </trkpt>
      <trkpt lat="63.5617" lon="19.71589">
        <ele>38.454735</ele>
        <time>2020-10-01T11:42:49.060Z</time>
      </trkpt>
      <trkpt lat="63.56172" lon="19.71569">
        <ele>38.736856</ele>
        <time>2020-10-01T11:42:51.052Z</time>
      </trkpt>
      <trkpt lat="63.56174" lon="19.71549">
        <ele>39.017089</ele>
        <time>2020-10-01T11:42:53.072Z</time>
      </trkpt>
      <trkpt lat="63.56176" lon="19.71529">
        <ele>39.299321</ele>
        <time>2020-10-01T11:42:55.061Z</time>
      </trkpt>
      <trkpt lat="63.56177" lon="19.71509">
        <ele>39.592518</ele>
        <time>2020-10-01T11:42:57.075Z</time>
      </trkpt>
      <trkpt lat="63.56179" lon="19.71487">
        <ele>39.887436</ele>
        <time>2020-10-01T11:42:59.104Z</time>
      </trkpt>
      <trkpt lat="63.56179" lon="19.71466">
        <ele>40.177388</ele>
        <time>2020-10-01T11:43:01.056Z</time>
      </trkpt>
      <trkpt lat="63.56179" lon="19.71445">
        <ele>40.465961</ele>
        <time>2020-10-01T11:43:03.078Z</time>
      </trkpt>
      <trkpt lat="63.5618" lon="19.71424">
        <ele>40.349767</ele>
        <time>2020-10-01T11:43:05.094Z</time>
      </trkpt>
      <trkpt lat="63.56181" lon="19.71402">
        <ele>40.226938</ele>
        <time>2020-10-01T11:43:07.109Z</time>
      </trkpt>
      <trkpt lat="63.56183" lon="19.71381">
        <ele>40.109145</ele>
        <time>2020-10-01T11:43:09.048Z</time>
      </trkpt>
      <trkpt lat="63.56185" lon="19.71352">
        <ele>39.950149</ele>
        <time>2020-10-01T11:43:12.095Z</time>
      </trkpt>
      <trkpt lat="63.56187" lon="19.71322">
        <ele>39.784327</ele>
        <time>2020-10-01T11:43:15.085Z</time>
      </trkpt>
      <trkpt lat="63.56188" lon="19.71301">
        <ele>39.665836</ele>
        <time>2020-10-01T11:43:17.083Z</time>
      </trkpt>
      <trkpt lat="63.5619" lon="19.71279">
        <ele>39.543608</ele>
        <time>2020-10-01T11:43:19.076Z</time>
      </trkpt>
      <trkpt lat="63.56191" lon="19.71257">
        <ele>39.422463</ele>
        <time>2020-10-01T11:43:21.097Z</time>
      </trkpt>
      <trkpt lat="63.56192" lon="19.71236">
        <ele>39.304369</ele>
        <time>2020-10-01T11:43:23.086Z</time>
      </trkpt>
      <trkpt lat="63.56193" lon="19.71215">
        <ele>39.191523</ele>
        <time>2020-10-01T11:43:25.069Z</time>
      </trkpt>
      <trkpt lat="63.56195" lon="19.71185">
        <ele>39.024863</ele>
        <time>2020-10-01T11:43:28.058Z</time>
      </trkpt>
      <trkpt lat="63.56197" lon="19.71164">
        <ele>38.907457</ele>
        <time>2020-10-01T11:43:30.086Z</time>
      </trkpt>
      <trkpt lat="63.56198" lon="19.71143">
        <ele>38.791284</ele>
        <time>2020-10-01T11:43:32.056Z</time>
      </trkpt>
      <trkpt lat="63.562" lon="19.71122">
        <ele>38.673355</ele>
        <time>2020-10-01T11:43:34.057Z</time>
      </trkpt>
      <trkpt lat="63.56203" lon="19.711">
        <ele>38.547814</ele>
        <time>2020-10-01T11:43:36.063Z</time>
      </trkpt>
      <trkpt lat="63.56205" lon="19.71079">
        <ele>38.428565</ele>
        <time>2020-10-01T11:43:38.078Z</time>
      </trkpt>
      <trkpt lat="63.56208" lon="19.71057">
        <ele>38.307576</ele>
        <time>2020-10-01T11:43:40.082Z</time>
      </trkpt>
      <trkpt lat="63.56211" lon="19.71036">
        <ele>38.157467</ele>
        <time>2020-10-01T11:43:42.049Z</time>
      </trkpt>
      <trkpt lat="63.56214" lon="19.71014">
        <ele>37.992006</ele>
        <time>2020-10-01T11:43:44.058Z</time>
      </trkpt>
      <trkpt lat="63.56217" lon="19.70995">
        <ele>37.83522</ele>
        <time>2020-10-01T11:43:46.061Z</time>
      </trkpt>
      <trkpt lat="63.56221" lon="19.70967">
        <ele>37.614506</ele>
        <time>2020-10-01T11:43:49.060Z</time>
      </trkpt>
      <trkpt lat="63.56224" lon="19.70948">
        <ele>37.463914</ele>
        <time>2020-10-01T11:43:51.053Z</time>
      </trkpt>
      <trkpt lat="63.56228" lon="19.70928">
        <ele>37.303387</ele>
        <time>2020-10-01T11:43:53.100Z</time>
      </trkpt>
      <trkpt lat="63.56231" lon="19.70907">
        <ele>37.141816</ele>
        <time>2020-10-01T11:43:55.058Z</time>
      </trkpt>
      <trkpt lat="63.56234" lon="19.70887">
        <ele>36.980796</ele>
        <time>2020-10-01T11:43:57.072Z</time>
      </trkpt>
      <trkpt lat="63.56237" lon="19.70867">
        <ele>36.820875</ele>
        <time>2020-10-01T11:43:59.067Z</time>
      </trkpt>
      <trkpt lat="63.56241" lon="19.70846">
        <ele>36.655929</ele>
        <time>2020-10-01T11:44:01.069Z</time>
      </trkpt>
      <trkpt lat="63.56244" lon="19.70826">
        <ele>36.494733</ele>
        <time>2020-10-01T11:44:03.086Z</time>
      </trkpt>
      <trkpt lat="63.56247" lon="19.70805">
        <ele>36.328515</ele>
        <time>2020-10-01T11:44:05.083Z</time>
      </trkpt>
      <trkpt lat="63.5625" lon="19.70784">
        <ele>36.165678</ele>
        <time>2020-10-01T11:44:07.053Z</time>
      </trkpt>
      <trkpt lat="63.56254" lon="19.70765">
        <ele>36.01479</ele>
        <time>2020-10-01T11:44:09.063Z</time>
      </trkpt>
      <trkpt lat="63.56259" lon="19.70738">
        <ele>35.79082</ele>
        <time>2020-10-01T11:44:12.100Z</time>
      </trkpt>
      <trkpt lat="63.56263" lon="19.70709">
        <ele>35.563202</ele>
        <time>2020-10-01T11:44:15.099Z</time>
      </trkpt>
      <trkpt lat="63.56266" lon="19.70686">
        <ele>35.389184</ele>
        <time>2020-10-01T11:44:17.063Z</time>
      </trkpt>
      <trkpt lat="63.56269" lon="19.70664">
        <ele>35.269546</ele>
        <time>2020-10-01T11:44:19.052Z</time>
      </trkpt>
      <trkpt lat="63.56273" lon="19.70643">
        <ele>35.536467</ele>
        <time>2020-10-01T11:44:21.110Z</time>
      </trkpt>
      <trkpt lat="63.56276" lon="19.70624">
        <ele>35.778679</ele>
        <time>2020-10-01T11:44:23.064Z</time>
      </trkpt>
      <trkpt lat="63.5628" lon="19.70596">
        <ele>36.128793</ele>
        <time>2020-10-01T11:44:26.067Z</time>
      </trkpt>
      <trkpt lat="63.56284" lon="19.70576">
        <ele>36.373819</ele>
        <time>2020-10-01T11:44:28.067Z</time>
      </trkpt>
      <trkpt lat="63.56287" lon="19.70558">
        <ele>36.614376</ele>
        <time>2020-10-01T11:44:30.073Z</time>
      </trkpt>
      <trkpt lat="63.56291" lon="19.70538">
        <ele>36.861354</ele>
        <time>2020-10-01T11:44:32.062Z</time>
      </trkpt>
      <trkpt lat="63.56294" lon="19.70519">
        <ele>37.108012</ele>
        <time>2020-10-01T11:44:34.079Z</time>
      </trkpt>
      <trkpt lat="63.56297" lon="19.70499">
        <ele>37.356488</ele>
        <time>2020-10-01T11:44:36.061Z</time>
      </trkpt>
      <trkpt lat="63.56301" lon="19.70479">
        <ele>37.606068</ele>
        <time>2020-10-01T11:44:38.078Z</time>
      </trkpt>
      <trkpt lat="63.56305" lon="19.70451">
        <ele>37.960609</ele>
        <time>2020-10-01T11:44:41.057Z</time>
      </trkpt>
      <trkpt lat="63.56309" lon="19.70432">
        <ele>38.204536</ele>
        <time>2020-10-01T11:44:43.058Z</time>
      </trkpt>
      <trkpt lat="63.56312" lon="19.70413">
        <ele>38.447494</ele>
        <time>2020-10-01T11:44:45.061Z</time>
      </trkpt>
      <trkpt lat="63.56316" lon="19.70393">
        <ele>38.695607</ele>
        <time>2020-10-01T11:44:47.052Z</time>
      </trkpt>
      <trkpt lat="63.56319" lon="19.70375">
        <ele>38.93503</ele>
        <time>2020-10-01T11:44:49.126Z</time>
      </trkpt>
      <trkpt lat="63.56322" lon="19.70355">
        <ele>39.185028</ele>
        <time>2020-10-01T11:44:51.060Z</time>
      </trkpt>
      <trkpt lat="63.56325" lon="19.70335">
        <ele>39.432797</ele>
        <time>2020-10-01T11:44:53.045Z</time>
      </trkpt>
      <trkpt lat="63.56328" lon="19.70315">
        <ele>39.673545</ele>
        <time>2020-10-01T11:44:55.073Z</time>
      </trkpt>
      <trkpt lat="63.5633" lon="19.70296">
        <ele>39.916249</ele>
        <time>2020-10-01T11:44:57.053Z</time>
      </trkpt>
      <trkpt lat="63.56333" lon="19.70275">
        <ele>39.932195</ele>
        <time>2020-10-01T11:44:59.072Z</time>
      </trkpt>
      <trkpt lat="63.56335" lon="19.70252">
        <ele>39.813985</ele>
        <time>2020-10-01T11:45:01.076Z</time>
      </trkpt>
      <trkpt lat="63.56335" lon="19.7023">
        <ele>39.696571</ele>
        <time>2020-10-01T11:45:03.062Z</time>
      </trkpt>
      <trkpt lat="63.56334" lon="19.70207">
        <ele>39.57569</ele>
        <time>2020-10-01T11:45:05.061Z</time>
      </trkpt>
      <trkpt lat="63.56333" lon="19.70183">
        <ele>39.451816</ele>
        <time>2020-10-01T11:45:07.055Z</time>
      </trkpt>
      <trkpt lat="63.56333" lon="19.70157">
        <ele>39.320083</ele>
        <time>2020-10-01T11:45:09.064Z</time>
      </trkpt>
      <trkpt lat="63.56333" lon="19.70131">
        <ele>39.181535</ele>
        <time>2020-10-01T11:45:11.109Z</time>
      </trkpt>
      <trkpt lat="63.56332" lon="19.70105">
        <ele>39.045771</ele>
        <time>2020-10-01T11:45:13.081Z</time>
      </trkpt>
      <trkpt lat="63.56331" lon="19.7008">
        <ele>38.919313</ele>
        <time>2020-10-01T11:45:15.060Z</time>
      </trkpt>
      <trkpt lat="63.5633" lon="19.70056">
        <ele>38.791821</ele>
        <time>2020-10-01T11:45:17.061Z</time>
      </trkpt>
      <trkpt lat="63.56329" lon="19.70029">
        <ele>38.650968</ele>
        <time>2020-10-01T11:45:19.099Z</time>
      </trkpt>
      <trkpt lat="63.56328" lon="19.70002">
        <ele>38.510126</ele>
        <time>2020-10-01T11:45:21.067Z</time>
      </trkpt>
      <trkpt lat="63.56327" lon="19.69975">
        <ele>38.371729</ele>
        <time>2020-10-01T11:45:23.100Z</time>
      </trkpt>
      <trkpt lat="63.56326" lon="19.69949">
        <ele>38.233071</ele>
        <time>2020-10-01T11:45:25.046Z</time>
      </trkpt>
      <trkpt lat="63.56324" lon="19.69923">
        <ele>38.097977</ele>
        <time>2020-10-01T11:45:27.099Z</time>
      </trkpt>
      <trkpt lat="63.56321" lon="19.69898">
        <ele>37.962694</ele>
        <time>2020-10-01T11:45:29.070Z</time>
      </trkpt>
      <trkpt lat="63.56316" lon="19.69872">
        <ele>37.768303</ele>
        <time>2020-10-01T11:45:31.051Z</time>
      </trkpt>
      <trkpt lat="63.56309" lon="19.69848">
        <ele>37.538916</ele>
        <time>2020-10-01T11:45:33.092Z</time>
      </trkpt>
      <trkpt lat="63.56301" lon="19.69825">
        <ele>37.304622</ele>
        <time>2020-10-01T11:45:35.046Z</time>
      </trkpt>
      <trkpt lat="63.56288" lon="19.69807">
        <ele>37.033863</ele>
        <time>2020-10-01T11:45:37.084Z</time>
      </trkpt>
      <trkpt lat="63.56273" lon="19.69797">
        <ele>36.753882</ele>
        <time>2020-10-01T11:45:39.061Z</time>
      </trkpt>
      <trkpt lat="63.5626" lon="19.6979">
        <ele>36.516495</ele>
        <time>2020-10-01T11:45:41.106Z</time>
      </trkpt>
      <trkpt lat="63.56248" lon="19.69785">
        <ele>36.300899</ele>
        <time>2020-10-01T11:45:43.058Z</time>
      </trkpt>
      <trkpt lat="63.56238" lon="19.69781">
        <ele>36.103962</ele>
        <time>2020-10-01T11:45:45.076Z</time>
      </trkpt>
      <trkpt lat="63.56228" lon="19.69774">
        <ele>35.919695</ele>
        <time>2020-10-01T11:45:47.063Z</time>
      </trkpt>
      <trkpt lat="63.56219" lon="19.69768">
        <ele>35.74988</ele>
        <time>2020-10-01T11:45:49.085Z</time>
      </trkpt>
      <trkpt lat="63.56209" lon="19.69764">
        <ele>35.577726</ele>
        <time>2020-10-01T11:45:51.066Z</time>
      </trkpt>
      <trkpt lat="63.56199" lon="19.69759">
        <ele>35.399644</ele>
        <time>2020-10-01T11:45:53.058Z</time>
      </trkpt>
      <trkpt lat="63.5619" lon="19.69754">
        <ele>35.218343</ele>
        <time>2020-10-01T11:45:55.097Z</time>
      </trkpt>
      <trkpt lat="63.56181" lon="19.69745">
        <ele>35.042354</ele>
        <time>2020-10-01T11:45:57.062Z</time>
      </trkpt>
      <trkpt lat="63.56173" lon="19.69732">
        <ele>34.868211</ele>
        <time>2020-10-01T11:45:59.085Z</time>
      </trkpt>
      <trkpt lat="63.56168" lon="19.69716">
        <ele>34.707091</ele>
        <time>2020-10-01T11:46:01.081Z</time>
      </trkpt>
      <trkpt lat="63.56163" lon="19.69697">
        <ele>34.574263</ele>
        <time>2020-10-01T11:46:03.087Z</time>
      </trkpt>
      <trkpt lat="63.56159" lon="19.69676">
        <ele>34.441962</ele>
        <time>2020-10-01T11:46:05.082Z</time>
      </trkpt>
      <trkpt lat="63.56156" lon="19.69654">
        <ele>34.309414</ele>
        <time>2020-10-01T11:46:07.049Z</time>
      </trkpt>
      <trkpt lat="63.56154" lon="19.69632">
        <ele>34.175473</ele>
        <time>2020-10-01T11:46:09.069Z</time>
      </trkpt>
      <trkpt lat="63.56153" lon="19.6961">
        <ele>34.044199</ele>
        <time>2020-10-01T11:46:11.076Z</time>
      </trkpt>
      <trkpt lat="63.56153" lon="19.69588">
        <ele>33.916867</ele>
        <time>2020-10-01T11:46:13.075Z</time>
      </trkpt>
      <trkpt lat="63.56152" lon="19.69566">
        <ele>33.790122</ele>
        <time>2020-10-01T11:46:15.083Z</time>
      </trkpt>
      <trkpt lat="63.56152" lon="19.69544">
        <ele>33.662306</ele>
        <time>2020-10-01T11:46:17.064Z</time>
      </trkpt>
      <trkpt lat="63.56152" lon="19.69522">
        <ele>33.530387</ele>
        <time>2020-10-01T11:46:19.061Z</time>
      </trkpt>
      <trkpt lat="63.56152" lon="19.69498">
        <ele>33.392</ele>
        <time>2020-10-01T11:46:21.060Z</time>
      </trkpt>
      <trkpt lat="63.56152" lon="19.69476">
        <ele>33.258811</ele>
        <time>2020-10-01T11:46:23.058Z</time>
      </trkpt>
      <trkpt lat="63.56154" lon="19.69454">
        <ele>33.13296</ele>
        <time>2020-10-01T11:46:25.078Z</time>
      </trkpt>
      <trkpt lat="63.56155" lon="19.69433">
        <ele>33.008223</ele>
        <time>2020-10-01T11:46:27.107Z</time>
      </trkpt>
      <trkpt lat="63.56156" lon="19.69413">
        <ele>32.886734</ele>
        <time>2020-10-01T11:46:29.120Z</time>
      </trkpt>
      <trkpt lat="63.56156" lon="19.69392">
        <ele>32.76561</ele>
        <time>2020-10-01T11:46:31.086Z</time>
      </trkpt>
      <trkpt lat="63.56157" lon="19.69363">
        <ele>32.596634</ele>
        <time>2020-10-01T11:46:34.054Z</time>
      </trkpt>
      <trkpt lat="63.56158" lon="19.69337">
        <ele>32.441582</ele>
        <time>2020-10-01T11:46:37.082Z</time>
      </trkpt>
      <trkpt lat="63.56158" lon="19.69311">
        <ele>32.421734</ele>
        <time>2020-10-01T11:46:40.088Z</time>
      </trkpt>
      <trkpt lat="63.56159" lon="19.69286">
        <ele>32.980556</ele>
        <time>2020-10-01T11:46:43.070Z</time>
      </trkpt>
      <trkpt lat="63.56159" lon="19.69263">
        <ele>33.51637</ele>
        <time>2020-10-01T11:46:46.092Z</time>
      </trkpt>
      <trkpt lat="63.56159" lon="19.6924">
        <ele>34.034689</ele>
        <time>2020-10-01T11:46:49.057Z</time>
      </trkpt>
      <trkpt lat="63.5616" lon="19.69214">
        <ele>34.640484</ele>
        <time>2020-10-01T11:46:53.085Z</time>
      </trkpt>
      <trkpt lat="63.56161" lon="19.69189">
        <ele>35.215693</ele>
        <time>2020-10-01T11:46:57.051Z</time>
      </trkpt>
      <trkpt lat="63.56162" lon="19.69167">
        <ele>35.721974</ele>
        <time>2020-10-01T11:47:01.067Z</time>
      </trkpt>
      <trkpt lat="63.56162" lon="19.69147">
        <ele>36.18811</ele>
        <time>2020-10-01T11:47:05.065Z</time>
      </trkpt>
      <trkpt lat="63.56164" lon="19.69126">
        <ele>36.673041</ele>
        <time>2020-10-01T11:47:09.096Z</time>
      </trkpt>
      <trkpt lat="63.56166" lon="19.69103">
        <ele>37.216289</ele>
        <time>2020-10-01T11:47:13.075Z</time>
      </trkpt>
      <trkpt lat="63.56168" lon="19.6908">
        <ele>37.738114</ele>
        <time>2020-10-01T11:47:17.103Z</time>
      </trkpt>
      <trkpt lat="63.56172" lon="19.6906">
        <ele>38.234351</ele>
        <time>2020-10-01T11:47:21.077Z</time>
      </trkpt>
      <trkpt lat="63.56175" lon="19.69039">
        <ele>38.733361</ele>
        <time>2020-10-01T11:47:25.066Z</time>
      </trkpt>
      <trkpt lat="63.56178" lon="19.69016">
        <ele>39.284243</ele>
        <time>2020-10-01T11:47:29.101Z</time>
      </trkpt>
      <trkpt lat="63.56181" lon="19.68994">
        <ele>39.825564</ele>
        <time>2020-10-01T11:47:33.109Z</time>
      </trkpt>
      <trkpt lat="63.56184" lon="19.68974">
        <ele>40.314259</ele>
        <time>2020-10-01T11:47:37.058Z</time>
      </trkpt>
      <trkpt lat="63.56187" lon="19.68953">
        <ele>40.816869</ele>
        <time>2020-10-01T11:47:41.078Z</time>
      </trkpt>
      <trkpt lat="63.5619" lon="19.6893">
        <ele>41.357617</ele>
        <time>2020-10-01T11:47:45.130Z</time>
      </trkpt>
      <trkpt lat="63.56194" lon="19.68905">
        <ele>41.773768</ele>
        <time>2020-10-01T11:47:49.064Z</time>
      </trkpt>
      <trkpt lat="63.56197" lon="19.68886">
        <ele>42.029191</ele>
        <time>2020-10-01T11:47:52.104Z</time>
      </trkpt>
      <trkpt lat="63.562" lon="19.68866">
        <ele>42.286027</ele>
        <time>2020-10-01T11:47:55.052Z</time>
      </trkpt>
      <trkpt lat="63.56202" lon="19.68846">
        <ele>42.535703</ele>
        <time>2020-10-01T11:47:58.070Z</time>
      </trkpt>
      <trkpt lat="63.56203" lon="19.68821">
        <ele>42.836723</ele>
        <time>2020-10-01T11:48:02.068Z</time>
      </trkpt>
      <trkpt lat="63.56206" lon="19.68795">
        <ele>43.166664</ele>
        <time>2020-10-01T11:48:06.062Z</time>
      </trkpt>
      <trkpt lat="63.5621" lon="19.6877">
        <ele>43.485864</ele>
        <time>2020-10-01T11:48:09.060Z</time>
      </trkpt>
      <trkpt lat="63.56214" lon="19.68745">
        <ele>43.809693</ele>
        <time>2020-10-01T11:48:12.099Z</time>
      </trkpt>
      <trkpt lat="63.56217" lon="19.6872">
        <ele>44.13523</ele>
        <time>2020-10-01T11:48:15.075Z</time>
      </trkpt>
      <trkpt lat="63.56221" lon="19.68695">
        <ele>44.458445</ele>
        <time>2020-10-01T11:48:18.087Z</time>
      </trkpt>
      <trkpt lat="63.56227" lon="19.68669">
        <ele>44.808221</ele>
        <time>2020-10-01T11:48:21.069Z</time>
      </trkpt>
      <trkpt lat="63.56233" lon="19.68644">
        <ele>45.160798</ele>
        <time>2020-10-01T11:48:24.065Z</time>
      </trkpt>
      <trkpt lat="63.56238" lon="19.68618">
        <ele>45.500298</ele>
        <time>2020-10-01T11:48:27.071Z</time>
      </trkpt>
      <trkpt lat="63.56243" lon="19.68593">
        <ele>45.8435</ele>
        <time>2020-10-01T11:48:30.060Z</time>
      </trkpt>
      <trkpt lat="63.56248" lon="19.68572">
        <ele>46.142187</ele>
        <time>2020-10-01T11:48:33.082Z</time>
      </trkpt>
      <trkpt lat="63.56254" lon="19.68551">
        <ele>46.442206</ele>
        <time>2020-10-01T11:48:36.070Z</time>
      </trkpt>
      <trkpt lat="63.56261" lon="19.68529">
        <ele>46.308931</ele>
        <time>2020-10-01T11:48:39.096Z</time>
      </trkpt>
      <trkpt lat="63.56269" lon="19.68507">
        <ele>46.062733</ele>
        <time>2020-10-01T11:48:42.056Z</time>
      </trkpt>
      <trkpt lat="63.56277" lon="19.68485">
        <ele>45.803725</ele>
        <time>2020-10-01T11:48:45.084Z</time>
      </trkpt>
      <trkpt lat="63.56285" lon="19.68463">
        <ele>45.554896</ele>
        <time>2020-10-01T11:48:48.062Z</time>
      </trkpt>
      <trkpt lat="63.56293" lon="19.68439">
        <ele>45.281152</ele>
        <time>2020-10-01T11:48:51.062Z</time>
      </trkpt>
      <trkpt lat="63.56299" lon="19.68422">
        <ele>45.096447</ele>
        <time>2020-10-01T11:48:53.077Z</time>
      </trkpt>
      <trkpt lat="63.56304" lon="19.68406">
        <ele>44.915298</ele>
        <time>2020-10-01T11:48:55.060Z</time>
      </trkpt>
      <trkpt lat="63.56312" lon="19.68382">
        <ele>44.647005</ele>
        <time>2020-10-01T11:48:58.068Z</time>
      </trkpt>
      <trkpt lat="63.56318" lon="19.68365">
        <ele>44.460396</ele>
        <time>2020-10-01T11:49:00.059Z</time>
      </trkpt>
      <trkpt lat="63.56324" lon="19.6835">
        <ele>44.275782</ele>
        <time>2020-10-01T11:49:02.053Z</time>
      </trkpt>
      <trkpt lat="63.5633" lon="19.68333">
        <ele>44.090246</ele>
        <time>2020-10-01T11:49:04.068Z</time>
      </trkpt>
      <trkpt lat="63.56337" lon="19.6831">
        <ele>43.836992</ele>
        <time>2020-10-01T11:49:07.089Z</time>
      </trkpt>
      <trkpt lat="63.56346" lon="19.68289">
        <ele>43.58459</ele>
        <time>2020-10-01T11:49:10.078Z</time>
      </trkpt>
      <trkpt lat="63.56354" lon="19.68266">
        <ele>43.320172</ele>
        <time>2020-10-01T11:49:13.076Z</time>
      </trkpt>
      <trkpt lat="63.5636" lon="19.68249">
        <ele>43.127812</ele>
        <time>2020-10-01T11:49:15.064Z</time>
      </trkpt>
      <trkpt lat="63.56366" lon="19.68231">
        <ele>42.93183</ele>
        <time>2020-10-01T11:49:17.068Z</time>
      </trkpt>
      <trkpt lat="63.56371" lon="19.68214">
        <ele>43.0469</ele>
        <time>2020-10-01T11:49:19.071Z</time>
      </trkpt>
      <trkpt lat="63.5638" lon="19.68191">
        <ele>43.264783</ele>
        <time>2020-10-01T11:49:22.069Z</time>
      </trkpt>
      <trkpt lat="63.56387" lon="19.6817">
        <ele>43.459076</ele>
        <time>2020-10-01T11:49:25.064Z</time>
      </trkpt>
      <trkpt lat="63.56394" lon="19.6815">
        <ele>43.656135</ele>
        <time>2020-10-01T11:49:28.068Z</time>
      </trkpt>
      <trkpt lat="63.56401" lon="19.6813">
        <ele>43.836592</ele>
        <time>2020-10-01T11:49:31.079Z</time>
      </trkpt>
      <trkpt lat="63.56408" lon="19.68109">
        <ele>44.03434</ele>
        <time>2020-10-01T11:49:34.067Z</time>
      </trkpt>
      <trkpt lat="63.56415" lon="19.68089">
        <ele>44.227134</ele>
        <time>2020-10-01T11:49:37.078Z</time>
      </trkpt>
      <trkpt lat="63.56422" lon="19.68068">
        <ele>44.419235</ele>
        <time>2020-10-01T11:49:40.084Z</time>
      </trkpt>
      <trkpt lat="63.56428" lon="19.6805">
        <ele>44.587637</ele>
        <time>2020-10-01T11:49:43.071Z</time>
      </trkpt>
      <trkpt lat="63.56434" lon="19.68032">
        <ele>44.751311</ele>
        <time>2020-10-01T11:49:46.050Z</time>
      </trkpt>
      <trkpt lat="63.5644" lon="19.68015">
        <ele>44.908271</ele>
        <time>2020-10-01T11:49:49.071Z</time>
      </trkpt>
      <trkpt lat="63.56445" lon="19.67997">
        <ele>45.069759</ele>
        <time>2020-10-01T11:49:52.083Z</time>
      </trkpt>
      <trkpt lat="63.56452" lon="19.67979">
        <ele>45.23838</ele>
        <time>2020-10-01T11:49:55.059Z</time>
      </trkpt>
      <trkpt lat="63.56457" lon="19.67961">
        <ele>45.400183</ele>
        <time>2020-10-01T11:49:58.060Z</time>
      </trkpt>
      <trkpt lat="63.56464" lon="19.6794">
        <ele>45.596904</ele>
        <time>2020-10-01T11:50:02.072Z</time>
      </trkpt>
      <trkpt lat="63.56471" lon="19.67923">
        <ele>45.766195</ele>
        <time>2020-10-01T11:50:05.067Z</time>
      </trkpt>
      <trkpt lat="63.56478" lon="19.67903">
        <ele>45.937166</ele>
        <time>2020-10-01T11:50:08.066Z</time>
      </trkpt>
      <trkpt lat="63.56485" lon="19.67881">
        <ele>46.094852</ele>
        <time>2020-10-01T11:50:11.056Z</time>
      </trkpt>
      <trkpt lat="63.56492" lon="19.6786">
        <ele>46.241292</ele>
        <time>2020-10-01T11:50:14.066Z</time>
      </trkpt>
      <trkpt lat="63.56499" lon="19.67838">
        <ele>46.394878</ele>
        <time>2020-10-01T11:50:17.065Z</time>
      </trkpt>
      <trkpt lat="63.56505" lon="19.67817">
        <ele>46.536295</ele>
        <time>2020-10-01T11:50:20.095Z</time>
      </trkpt>
      <trkpt lat="63.56511" lon="19.67798">
        <ele>46.672742</ele>
        <time>2020-10-01T11:50:23.062Z</time>
      </trkpt>
      <trkpt lat="63.56517" lon="19.67779">
        <ele>46.801756</ele>
        <time>2020-10-01T11:50:26.061Z</time>
      </trkpt>
      <trkpt lat="63.56524" lon="19.67762">
        <ele>46.933677</ele>
        <time>2020-10-01T11:50:29.076Z</time>
      </trkpt>
      <trkpt lat="63.56531" lon="19.67741">
        <ele>47.081321</ele>
        <time>2020-10-01T11:50:32.064Z</time>
      </trkpt>
      <trkpt lat="63.56538" lon="19.6772">
        <ele>47.235136</ele>
        <time>2020-10-01T11:50:35.051Z</time>
      </trkpt>
      <trkpt lat="63.56545" lon="19.67697">
        <ele>47.390311</ele>
        <time>2020-10-01T11:50:38.101Z</time>
      </trkpt>
      <trkpt lat="63.56552" lon="19.67675">
        <ele>47.545485</ele>
        <time>2020-10-01T11:50:41.058Z</time>
      </trkpt>
      <trkpt lat="63.56559" lon="19.67653">
        <ele>47.702886</ele>
        <time>2020-10-01T11:50:44.072Z</time>
      </trkpt>
      <trkpt lat="63.56566" lon="19.67632">
        <ele>47.848835</ele>
        <time>2020-10-01T11:50:47.083Z</time>
      </trkpt>
      <trkpt lat="63.56573" lon="19.67616">
        <ele>47.977342</ele>
        <time>2020-10-01T11:50:50.056Z</time>
      </trkpt>
      <trkpt lat="63.56579" lon="19.67598">
        <ele>48.102395</ele>
        <time>2020-10-01T11:50:53.093Z</time>
      </trkpt>
      <trkpt lat="63.56585" lon="19.67581">
        <ele>48.217095</ele>
        <time>2020-10-01T11:50:56.061Z</time>
      </trkpt>
      <trkpt lat="63.56592" lon="19.67562">
        <ele>48.30378</ele>
        <time>2020-10-01T11:50:59.059Z</time>
      </trkpt>
      <trkpt lat="63.56599" lon="19.67543">
        <ele>48.39024</ele>
        <time>2020-10-01T11:51:02.058Z</time>
      </trkpt>
      <trkpt lat="63.56605" lon="19.67522">
        <ele>48.479375</ele>
        <time>2020-10-01T11:51:05.113Z</time>
      </trkpt>
      <trkpt lat="63.56612" lon="19.675">
        <ele>48.578336</ele>
        <time>2020-10-01T11:51:08.081Z</time>
      </trkpt>
      <trkpt lat="63.56619" lon="19.67478">
        <ele>48.673724</ele>
        <time>2020-10-01T11:51:11.093Z</time>
      </trkpt>
      <trkpt lat="63.56626" lon="19.67458">
        <ele>48.767065</ele>
        <time>2020-10-01T11:51:14.079Z</time>
      </trkpt>
      <trkpt lat="63.56634" lon="19.67435">
        <ele>48.869116</ele>
        <time>2020-10-01T11:51:17.109Z</time>
      </trkpt>
      <trkpt lat="63.56642" lon="19.67414">
        <ele>48.967923</ele>
        <time>2020-10-01T11:51:20.083Z</time>
      </trkpt>
      <trkpt lat="63.56649" lon="19.67393">
        <ele>49.063269</ele>
        <time>2020-10-01T11:51:23.089Z</time>
      </trkpt>
      <trkpt lat="63.56655" lon="19.67377">
        <ele>49.135707</ele>
        <time>2020-10-01T11:51:25.078Z</time>
      </trkpt>
      <trkpt lat="63.56661" lon="19.67361">
        <ele>49.211887</ele>
        <time>2020-10-01T11:51:27.071Z</time>
      </trkpt>
      <trkpt lat="63.56667" lon="19.67343">
        <ele>49.294666</ele>
        <time>2020-10-01T11:51:29.056Z</time>
      </trkpt>
      <trkpt lat="63.56673" lon="19.67324">
        <ele>49.376286</ele>
        <time>2020-10-01T11:51:31.098Z</time>
      </trkpt>
      <trkpt lat="63.56679" lon="19.67307">
        <ele>49.451391</ele>
        <time>2020-10-01T11:51:33.048Z</time>
      </trkpt>
      <trkpt lat="63.56684" lon="19.67291">
        <ele>49.527188</ele>
        <time>2020-10-01T11:51:35.099Z</time>
      </trkpt>
      <trkpt lat="63.5669" lon="19.67272">
        <ele>49.608289</ele>
        <time>2020-10-01T11:51:37.061Z</time>
      </trkpt>
      <trkpt lat="63.56697" lon="19.67252">
        <ele>49.290129</ele>
        <time>2020-10-01T11:51:39.108Z</time>
      </trkpt>
      <trkpt lat="63.56704" lon="19.67231">
        <ele>48.742279</ele>
        <time>2020-10-01T11:51:41.091Z</time>
      </trkpt>
      <trkpt lat="63.56712" lon="19.67211">
        <ele>48.203034</ele>
        <time>2020-10-01T11:51:43.070Z</time>
      </trkpt>
      <trkpt lat="63.56718" lon="19.67191">
        <ele>47.681531</ele>
        <time>2020-10-01T11:51:45.056Z</time>
      </trkpt>
      <trkpt lat="63.56725" lon="19.67173">
        <ele>47.19546</ele>
        <time>2020-10-01T11:51:47.114Z</time>
      </trkpt>
      <trkpt lat="63.56731" lon="19.67155">
        <ele>46.712325</ele>
        <time>2020-10-01T11:51:49.060Z</time>
      </trkpt>
      <trkpt lat="63.56737" lon="19.67137">
        <ele>46.243214</ele>
        <time>2020-10-01T11:51:51.092Z</time>
      </trkpt>
      <trkpt lat="63.56743" lon="19.67118">
        <ele>45.76311</ele>
        <time>2020-10-01T11:51:53.061Z</time>
      </trkpt>
      <trkpt lat="63.56749" lon="19.67101">
        <ele>45.304731</ele>
        <time>2020-10-01T11:51:55.071Z</time>
      </trkpt>
      <trkpt lat="63.56755" lon="19.67083">
        <ele>44.849156</ele>
        <time>2020-10-01T11:51:57.099Z</time>
      </trkpt>
      <trkpt lat="63.56761" lon="19.67066">
        <ele>44.402652</ele>
        <time>2020-10-01T11:51:59.076Z</time>
      </trkpt>
      <trkpt lat="63.56766" lon="19.67049">
        <ele>43.963981</ele>
        <time>2020-10-01T11:52:01.037Z</time>
      </trkpt>
      <trkpt lat="63.56772" lon="19.67031">
        <ele>43.489483</ele>
        <time>2020-10-01T11:52:03.074Z</time>
      </trkpt>
      <trkpt lat="63.56779" lon="19.67012">
        <ele>42.977932</ele>
        <time>2020-10-01T11:52:05.107Z</time>
      </trkpt>
      <trkpt lat="63.56785" lon="19.66994">
        <ele>42.498421</ele>
        <time>2020-10-01T11:52:07.068Z</time>
      </trkpt>
      <trkpt lat="63.56791" lon="19.66976">
        <ele>42.037367</ele>
        <time>2020-10-01T11:52:09.053Z</time>
      </trkpt>
      <trkpt lat="63.56797" lon="19.66959">
        <ele>41.589191</ele>
        <time>2020-10-01T11:52:11.079Z</time>
      </trkpt>
      <trkpt lat="63.56802" lon="19.66942">
        <ele>41.215779</ele>
        <time>2020-10-01T11:52:13.067Z</time>
      </trkpt>
      <trkpt lat="63.56807" lon="19.66925">
        <ele>41.475838</ele>
        <time>2020-10-01T11:52:15.091Z</time>
      </trkpt>
      <trkpt lat="63.56815" lon="19.66902">
        <ele>41.829732</ele>
        <time>2020-10-01T11:52:18.075Z</time>
      </trkpt>
      <trkpt lat="63.56823" lon="19.66881">
        <ele>42.183295</ele>
        <time>2020-10-01T11:52:21.077Z</time>
      </trkpt>
      <trkpt lat="63.56831" lon="19.66859">
        <ele>42.536981</ele>
        <time>2020-10-01T11:52:24.108Z</time>
      </trkpt>
      <trkpt lat="63.56839" lon="19.66839">
        <ele>42.887695</ele>
        <time>2020-10-01T11:52:27.057Z</time>
      </trkpt>
      <trkpt lat="63.56849" lon="19.66822">
        <ele>43.224093</ele>
        <time>2020-10-01T11:52:30.079Z</time>
      </trkpt>
      <trkpt lat="63.56858" lon="19.66805">
        <ele>43.561278</ele>
        <time>2020-10-01T11:52:33.069Z</time>
      </trkpt>
      <trkpt lat="63.56868" lon="19.66789">
        <ele>43.913449</ele>
        <time>2020-10-01T11:52:36.086Z</time>
      </trkpt>
      <trkpt lat="63.56878" lon="19.66776">
        <ele>44.226697</ele>
        <time>2020-10-01T11:52:39.074Z</time>
      </trkpt>
      <trkpt lat="63.56887" lon="19.66766">
        <ele>44.502564</ele>
        <time>2020-10-01T11:52:42.061Z</time>
      </trkpt>
      <trkpt lat="63.56895" lon="19.66757">
        <ele>44.76525</ele>
        <time>2020-10-01T11:52:46.068Z</time>
      </trkpt>
      <trkpt lat="63.56904" lon="19.66747">
        <ele>45.037011</ele>
        <time>2020-10-01T11:52:50.062Z</time>
      </trkpt>
      <trkpt lat="63.56915" lon="19.66738">
        <ele>45.368886</ele>
        <time>2020-10-01T11:52:54.065Z</time>
      </trkpt>
      <trkpt lat="63.56923" lon="19.66731">
        <ele>45.621</ele>
        <time>2020-10-01T11:52:57.084Z</time>
      </trkpt>
      <trkpt lat="63.56934" lon="19.66723">
        <ele>45.940175</ele>
        <time>2020-10-01T11:53:01.064Z</time>
      </trkpt>
      <trkpt lat="63.56945" lon="19.66711">
        <ele>46.25685</ele>
        <time>2020-10-01T11:53:05.078Z</time>
      </trkpt>
      <trkpt lat="63.56955" lon="19.66701">
        <ele>46.298541</ele>
        <time>2020-10-01T11:53:09.092Z</time>
      </trkpt>
      <trkpt lat="63.56964" lon="19.66693">
        <ele>46.330789</ele>
        <time>2020-10-01T11:53:12.082Z</time>
      </trkpt>
      <trkpt lat="63.56973" lon="19.66686">
        <ele>46.367352</ele>
        <time>2020-10-01T11:53:15.102Z</time>
      </trkpt>
      <trkpt lat="63.56984" lon="19.66679">
        <ele>46.405996</ele>
        <time>2020-10-01T11:53:18.067Z</time>
      </trkpt>
      <trkpt lat="63.56994" lon="19.66671">
        <ele>46.446015</ele>
        <time>2020-10-01T11:53:21.080Z</time>
      </trkpt>
      <trkpt lat="63.57005" lon="19.66664">
        <ele>46.486378</ele>
        <time>2020-10-01T11:53:24.066Z</time>
      </trkpt>
      <trkpt lat="63.57016" lon="19.66658">
        <ele>46.527404</ele>
        <time>2020-10-01T11:53:27.070Z</time>
      </trkpt>
      <trkpt lat="63.57027" lon="19.66653">
        <ele>46.56587</ele>
        <time>2020-10-01T11:53:30.087Z</time>
      </trkpt>
      <trkpt lat="63.57036" lon="19.66647">
        <ele>46.600144</ele>
        <time>2020-10-01T11:53:33.097Z</time>
      </trkpt>
      <trkpt lat="63.57046" lon="19.6664">
        <ele>46.637468</ele>
        <time>2020-10-01T11:53:36.084Z</time>
      </trkpt>
      <trkpt lat="63.57057" lon="19.66634">
        <ele>46.677656</ele>
        <time>2020-10-01T11:53:39.071Z</time>
      </trkpt>
      <trkpt lat="63.57068" lon="19.66626">
        <ele>46.719575</ele>
        <time>2020-10-01T11:53:42.062Z</time>
      </trkpt>
      <trkpt lat="63.57078" lon="19.66619">
        <ele>46.758173</ele>
        <time>2020-10-01T11:53:45.075Z</time>
      </trkpt>
      <trkpt lat="63.57088" lon="19.66613">
        <ele>46.793484</ele>
        <time>2020-10-01T11:53:48.098Z</time>
      </trkpt>
      <trkpt lat="63.57097" lon="19.66607">
        <ele>46.828535</ele>
        <time>2020-10-01T11:53:51.059Z</time>
      </trkpt>
      <trkpt lat="63.57107" lon="19.666">
        <ele>46.86601</ele>
        <time>2020-10-01T11:53:54.110Z</time>
      </trkpt>
      <trkpt lat="63.57119" lon="19.66593">
        <ele>46.91251</ele>
        <time>2020-10-01T11:53:58.064Z</time>
      </trkpt>
      <trkpt lat="63.57128" lon="19.66587">
        <ele>46.956017</ele>
        <time>2020-10-01T11:54:01.069Z</time>
      </trkpt>
      <trkpt lat="63.57138" lon="19.66578">
        <ele>47.006088</ele>
        <time>2020-10-01T11:54:04.086Z</time>
      </trkpt>
      <trkpt lat="63.57149" lon="19.66569">
        <ele>47.057847</ele>
        <time>2020-10-01T11:54:07.081Z</time>
      </trkpt>
      <trkpt lat="63.5716" lon="19.66562">
        <ele>47.10968</ele>
        <time>2020-10-01T11:54:10.066Z</time>
      </trkpt>
      <trkpt lat="63.57171" lon="19.66554">
        <ele>47.16027</ele>
        <time>2020-10-01T11:54:13.056Z</time>
      </trkpt>
      <trkpt lat="63.57182" lon="19.66549">
        <ele>47.21134</ele>
        <time>2020-10-01T11:54:16.054Z</time>
      </trkpt>
      <trkpt lat="63.57194" lon="19.66543">
        <ele>47.26824</ele>
        <time>2020-10-01T11:54:19.065Z</time>
      </trkpt>
      <trkpt lat="63.57207" lon="19.66535">
        <ele>47.327107</ele>
        <time>2020-10-01T11:54:22.068Z</time>
      </trkpt>
      <trkpt lat="63.57219" lon="19.66527">
        <ele>47.384342</ele>
        <time>2020-10-01T11:54:25.082Z</time>
      </trkpt>
      <trkpt lat="63.5723" lon="19.66519">
        <ele>47.43991</ele>
        <time>2020-10-01T11:54:28.068Z</time>
      </trkpt>
      <trkpt lat="63.57242" lon="19.6651">
        <ele>47.493757</ele>
        <time>2020-10-01T11:54:31.060Z</time>
      </trkpt>
      <trkpt lat="63.57253" lon="19.66503">
        <ele>47.545479</ele>
        <time>2020-10-01T11:54:34.064Z</time>
      </trkpt>
      <trkpt lat="63.57264" lon="19.66498">
        <ele>47.599556</ele>
        <time>2020-10-01T11:54:37.072Z</time>
      </trkpt>
      <trkpt lat="63.57275" lon="19.6649">
        <ele>47.648236</ele>
        <time>2020-10-01T11:54:40.069Z</time>
      </trkpt>
      <trkpt lat="63.57286" lon="19.66482">
        <ele>47.703939</ele>
        <time>2020-10-01T11:54:43.080Z</time>
      </trkpt>
      <trkpt lat="63.57297" lon="19.66475">
        <ele>47.745656</ele>
        <time>2020-10-01T11:54:46.066Z</time>
      </trkpt>
      <trkpt lat="63.57308" lon="19.66466">
        <ele>47.78971</ele>
        <time>2020-10-01T11:54:49.059Z</time>
      </trkpt>
      <trkpt lat="63.5732" lon="19.66457">
        <ele>47.837534</ele>
        <time>2020-10-01T11:54:52.069Z</time>
      </trkpt>
      <trkpt lat="63.57332" lon="19.66449">
        <ele>47.883131</ele>
        <time>2020-10-01T11:54:55.077Z</time>
      </trkpt>
      <trkpt lat="63.57343" lon="19.66443">
        <ele>47.928066</ele>
        <time>2020-10-01T11:54:58.055Z</time>
      </trkpt>
      <trkpt lat="63.57354" lon="19.66436">
        <ele>47.970243</ele>
        <time>2020-10-01T11:55:01.060Z</time>
      </trkpt>
      <trkpt lat="63.57365" lon="19.66431">
        <ele>48.009677</ele>
        <time>2020-10-01T11:55:04.062Z</time>
      </trkpt>
      <trkpt lat="63.57376" lon="19.66423">
        <ele>48.055712</ele>
        <time>2020-10-01T11:55:07.069Z</time>
      </trkpt>
      <trkpt lat="63.57388" lon="19.66417">
        <ele>48.098924</ele>
        <time>2020-10-01T11:55:10.069Z</time>
      </trkpt>
      <trkpt lat="63.57398" lon="19.66408">
        <ele>48.141427</ele>
        <time>2020-10-01T11:55:13.080Z</time>
      </trkpt>
      <trkpt lat="63.5741" lon="19.66401">
        <ele>48.186027</ele>
        <time>2020-10-01T11:55:16.051Z</time>
      </trkpt>
      <trkpt lat="63.57421" lon="19.66394">
        <ele>48.230223</ele>
        <time>2020-10-01T11:55:19.070Z</time>
      </trkpt>
      <trkpt lat="63.57433" lon="19.66386">
        <ele>48.274395</ele>
        <time>2020-10-01T11:55:22.056Z</time>
      </trkpt>
      <trkpt lat="63.57445" lon="19.66378">
        <ele>48.321424</ele>
        <time>2020-10-01T11:55:25.066Z</time>
      </trkpt>
      <trkpt lat="63.57457" lon="19.66371">
        <ele>48.367908</ele>
        <time>2020-10-01T11:55:28.075Z</time>
      </trkpt>
      <trkpt lat="63.57469" lon="19.66362">
        <ele>48.32164</ele>
        <time>2020-10-01T11:55:31.063Z</time>
      </trkpt>
      <trkpt lat="63.57478" lon="19.66357">
        <ele>48.254932</ele>
        <time>2020-10-01T11:55:33.063Z</time>
      </trkpt>
      <trkpt lat="63.57487" lon="19.66351">
        <ele>48.188474</ele>
        <time>2020-10-01T11:55:35.077Z</time>
      </trkpt>
      <trkpt lat="63.57496" lon="19.66344">
        <ele>48.119984</ele>
        <time>2020-10-01T11:55:37.064Z</time>
      </trkpt>
      <trkpt lat="63.57505" lon="19.66339">
        <ele>48.05352</ele>
        <time>2020-10-01T11:55:39.088Z</time>
      </trkpt>
      <trkpt lat="63.57514" lon="19.66333">
        <ele>47.985004</ele>
        <time>2020-10-01T11:55:41.084Z</time>
      </trkpt>
      <trkpt lat="63.57524" lon="19.66326">
        <ele>47.912609</ele>
        <time>2020-10-01T11:55:43.080Z</time>
      </trkpt>
      <trkpt lat="63.57533" lon="19.6632">
        <ele>47.844093</ele>
        <time>2020-10-01T11:55:45.135Z</time>
      </trkpt>
      <trkpt lat="63.57546" lon="19.66312">
        <ele>47.751463</ele>
        <time>2020-10-01T11:55:48.087Z</time>
      </trkpt>
      <trkpt lat="63.57558" lon="19.66303">
        <ele>47.662933</ele>
        <time>2020-10-01T11:55:51.059Z</time>
      </trkpt>
      <trkpt lat="63.57569" lon="19.66295">
        <ele>47.57518</ele>
        <time>2020-10-01T11:55:54.079Z</time>
      </trkpt>
      <trkpt lat="63.57581" lon="19.66286">
        <ele>47.482936</ele>
        <time>2020-10-01T11:55:57.064Z</time>
      </trkpt>
      <trkpt lat="63.57593" lon="19.66278">
        <ele>47.395142</ele>
        <time>2020-10-01T11:56:00.056Z</time>
      </trkpt>
      <trkpt lat="63.57603" lon="19.66274">
        <ele>47.320916</ele>
        <time>2020-10-01T11:56:03.102Z</time>
      </trkpt>
      <trkpt lat="63.57613" lon="19.66267">
        <ele>47.250667</ele>
        <time>2020-10-01T11:56:06.065Z</time>
      </trkpt>
      <trkpt lat="63.57625" lon="19.6626">
        <ele>47.158656</ele>
        <time>2020-10-01T11:56:09.089Z</time>
      </trkpt>
      <trkpt lat="63.57638" lon="19.66254">
        <ele>47.154055</ele>
        <time>2020-10-01T11:56:12.080Z</time>
      </trkpt>
      <trkpt lat="63.57649" lon="19.66249">
        <ele>47.317376</ele>
        <time>2020-10-01T11:56:15.070Z</time>
      </trkpt>
      <trkpt lat="63.57661" lon="19.6624">
        <ele>47.48694</ele>
        <time>2020-10-01T11:56:18.067Z</time>
      </trkpt>
      <trkpt lat="63.57673" lon="19.66227">
        <ele>47.674494</ele>
        <time>2020-10-01T11:56:21.089Z</time>
      </trkpt>
      <trkpt lat="63.5768" lon="19.66211">
        <ele>47.814716</ele>
        <time>2020-10-01T11:56:23.064Z</time>
      </trkpt>
      <trkpt lat="63.57685" lon="19.66191">
        <ele>47.952696</ele>
        <time>2020-10-01T11:56:25.062Z</time>
      </trkpt>
      <trkpt lat="63.57686" lon="19.6617">
        <ele>48.085002</ele>
        <time>2020-10-01T11:56:27.057Z</time>
      </trkpt>
      <trkpt lat="63.57685" lon="19.66148">
        <ele>48.219122</ele>
        <time>2020-10-01T11:56:29.066Z</time>
      </trkpt>
      <trkpt lat="63.57682" lon="19.66126">
        <ele>48.359825</ele>
        <time>2020-10-01T11:56:31.052Z</time>
      </trkpt>
      <trkpt lat="63.57681" lon="19.66106">
        <ele>48.489695</ele>
        <time>2020-10-01T11:56:33.080Z</time>
      </trkpt>
      <trkpt lat="63.5768" lon="19.66085">
        <ele>48.61549</ele>
        <time>2020-10-01T11:56:35.070Z</time>
      </trkpt>
      <trkpt lat="63.57676" lon="19.66056">
        <ele>48.801978</ele>
        <time>2020-10-01T11:56:38.087Z</time>
      </trkpt>
      <trkpt lat="63.57674" lon="19.66036">
        <ele>48.931215</ele>
        <time>2020-10-01T11:56:40.058Z</time>
      </trkpt>
      <trkpt lat="63.57672" lon="19.66015">
        <ele>49.062452</ele>
        <time>2020-10-01T11:56:42.070Z</time>
      </trkpt>
      <trkpt lat="63.5767" lon="19.65994">
        <ele>49.195861</ele>
        <time>2020-10-01T11:56:44.061Z</time>
      </trkpt>
      <trkpt lat="63.57668" lon="19.65973">
        <ele>49.3278</ele>
        <time>2020-10-01T11:56:46.063Z</time>
      </trkpt>
      <trkpt lat="63.57667" lon="19.65952">
        <ele>49.456002</ele>
        <time>2020-10-01T11:56:48.075Z</time>
      </trkpt>
      <trkpt lat="63.57665" lon="19.65923">
        <ele>49.688922</ele>
        <time>2020-10-01T11:56:51.104Z</time>
      </trkpt>
      <trkpt lat="63.57665" lon="19.65896">
        <ele>50.076364</ele>
        <time>2020-10-01T11:56:54.083Z</time>
      </trkpt>
      <trkpt lat="63.57663" lon="19.65869">
        <ele>50.45705</ele>
        <time>2020-10-01T11:56:57.061Z</time>
      </trkpt>
      <trkpt lat="63.57662" lon="19.65848">
        <ele>50.740442</ele>
        <time>2020-10-01T11:56:59.096Z</time>
      </trkpt>
      <trkpt lat="63.5766" lon="19.65828">
        <ele>51.028614</ele>
        <time>2020-10-01T11:57:01.060Z</time>
      </trkpt>
      <trkpt lat="63.57658" lon="19.65807">
        <ele>51.327072</ele>
        <time>2020-10-01T11:57:03.082Z</time>
      </trkpt>
      <trkpt lat="63.57655" lon="19.65787">
        <ele>51.613382</ele>
        <time>2020-10-01T11:57:05.074Z</time>
      </trkpt>
      <trkpt lat="63.57653" lon="19.65767">
        <ele>51.908037</ele>
        <time>2020-10-01T11:57:07.059Z</time>
      </trkpt>
      <trkpt lat="63.57651" lon="19.65746">
        <ele>52.203047</ele>
        <time>2020-10-01T11:57:09.072Z</time>
      </trkpt>
      <trkpt lat="63.57649" lon="19.65726">
        <ele>52.497373</ele>
        <time>2020-10-01T11:57:11.068Z</time>
      </trkpt>
      <trkpt lat="63.57647" lon="19.65705">
        <ele>52.785618</ele>
        <time>2020-10-01T11:57:13.086Z</time>
      </trkpt>
      <trkpt lat="63.57645" lon="19.65685">
        <ele>53.073791</ele>
        <time>2020-10-01T11:57:15.079Z</time>
      </trkpt>
      <trkpt lat="63.57644" lon="19.65665">
        <ele>53.362148</ele>
        <time>2020-10-01T11:57:17.052Z</time>
      </trkpt>
      <trkpt lat="63.57641" lon="19.65635">
        <ele>53.781702</ele>
        <time>2020-10-01T11:57:20.098Z</time>
      </trkpt>
      <trkpt lat="63.57638" lon="19.65605">
        <ele>54.203218</ele>
        <time>2020-10-01T11:57:23.058Z</time>
      </trkpt>
      <trkpt lat="63.57636" lon="19.65577">
        <ele>54.611697</ele>
        <time>2020-10-01T11:57:26.085Z</time>
      </trkpt>
      <trkpt lat="63.57633" lon="19.6555">
        <ele>54.995049</ele>
        <time>2020-10-01T11:57:29.080Z</time>
      </trkpt>
      <trkpt lat="63.5763" lon="19.65524">
        <ele>55.15979</ele>
        <time>2020-10-01T11:57:32.080Z</time>
      </trkpt>
      <trkpt lat="63.57627" lon="19.65497">
        <ele>54.976875</ele>
        <time>2020-10-01T11:57:35.087Z</time>
      </trkpt>
      <trkpt lat="63.57625" lon="19.65477">
        <ele>54.846872</ele>
        <time>2020-10-01T11:57:37.062Z</time>
      </trkpt>
      <trkpt lat="63.57623" lon="19.65457">
        <ele>54.713491</ele>
        <time>2020-10-01T11:57:39.065Z</time>
      </trkpt>
      <trkpt lat="63.5762" lon="19.65429">
        <ele>54.529321</ele>
        <time>2020-10-01T11:57:42.095Z</time>
      </trkpt>
      <trkpt lat="63.57618" lon="19.65403">
        <ele>54.358347</ele>
        <time>2020-10-01T11:57:45.061Z</time>
      </trkpt>
      <trkpt lat="63.57616" lon="19.65379">
        <ele>54.200478</ele>
        <time>2020-10-01T11:57:48.099Z</time>
      </trkpt>
      <trkpt lat="63.57615" lon="19.65354">
        <ele>54.037802</ele>
        <time>2020-10-01T11:57:51.078Z</time>
      </trkpt>
      <trkpt lat="63.57616" lon="19.6533">
        <ele>53.878775</ele>
        <time>2020-10-01T11:57:54.068Z</time>
      </trkpt>
      <trkpt lat="63.57617" lon="19.65305">
        <ele>53.72002</ele>
        <time>2020-10-01T11:57:57.063Z</time>
      </trkpt>
      <trkpt lat="63.57618" lon="19.65281">
        <ele>53.561328</ele>
        <time>2020-10-01T11:58:00.090Z</time>
      </trkpt>
      <trkpt lat="63.57619" lon="19.65257">
        <ele>53.404017</ele>
        <time>2020-10-01T11:58:03.087Z</time>
      </trkpt>
      <trkpt lat="63.5762" lon="19.65233">
        <ele>53.251115</ele>
        <time>2020-10-01T11:58:06.075Z</time>
      </trkpt>
      <trkpt lat="63.57621" lon="19.65211">
        <ele>53.106463</ele>
        <time>2020-10-01T11:58:09.073Z</time>
      </trkpt>
      <trkpt lat="63.57623" lon="19.6519">
        <ele>52.970975</ele>
        <time>2020-10-01T11:58:12.064Z</time>
      </trkpt>
      <trkpt lat="63.57624" lon="19.65168">
        <ele>52.828045</ele>
        <time>2020-10-01T11:58:15.096Z</time>
      </trkpt>
      <trkpt lat="63.57626" lon="19.65146">
        <ele>52.683158</ele>
        <time>2020-10-01T11:58:18.086Z</time>
      </trkpt>
      <trkpt lat="63.57627" lon="19.65123">
        <ele>52.639854</ele>
        <time>2020-10-01T11:58:21.074Z</time>
      </trkpt>
      <trkpt lat="63.57629" lon="19.65101">
        <ele>52.689092</ele>
        <time>2020-10-01T11:58:24.076Z</time>
      </trkpt>
      <trkpt lat="63.5763" lon="19.6508">
        <ele>52.737155</ele>
        <time>2020-10-01T11:58:27.080Z</time>
      </trkpt>
      <trkpt lat="63.57632" lon="19.65058">
        <ele>52.785875</ele>
        <time>2020-10-01T11:58:30.101Z</time>
      </trkpt>
      <trkpt lat="63.57634" lon="19.65035">
        <ele>52.836808</ele>
        <time>2020-10-01T11:58:33.094Z</time>
      </trkpt>
      <trkpt lat="63.57635" lon="19.65012">
        <ele>52.887779</ele>
        <time>2020-10-01T11:58:36.057Z</time>
      </trkpt>
      <trkpt lat="63.57637" lon="19.6499">
        <ele>52.937439</ele>
        <time>2020-10-01T11:58:39.071Z</time>
      </trkpt>
      <trkpt lat="63.57638" lon="19.64968">
        <ele>52.985657</ele>
        <time>2020-10-01T11:58:42.069Z</time>
      </trkpt>
      <trkpt lat="63.57639" lon="19.64946">
        <ele>53.034474</ele>
        <time>2020-10-01T11:58:45.071Z</time>
      </trkpt>
      <trkpt lat="63.5764" lon="19.64924">
        <ele>53.084246</ele>
        <time>2020-10-01T11:58:48.086Z</time>
      </trkpt>
      <trkpt lat="63.57641" lon="19.64901">
        <ele>53.134719</ele>
        <time>2020-10-01T11:58:51.064Z</time>
      </trkpt>
      <trkpt lat="63.57641" lon="19.64879">
        <ele>53.183574</ele>
        <time>2020-10-01T11:58:54.068Z</time>
      </trkpt>
      <trkpt lat="63.57642" lon="19.64858">
        <ele>53.229096</ele>
        <time>2020-10-01T11:58:57.079Z</time>
      </trkpt>
      <trkpt lat="63.57643" lon="19.64832">
        <ele>53.286533</ele>
        <time>2020-10-01T11:59:01.061Z</time>
      </trkpt>
      <trkpt lat="63.57643" lon="19.64811">
        <ele>53.33285</ele>
        <time>2020-10-01T11:59:04.083Z</time>
      </trkpt>
      <trkpt lat="63.57644" lon="19.64789">
        <ele>53.381566</ele>
        <time>2020-10-01T11:59:07.064Z</time>
      </trkpt>
      <trkpt lat="63.57644" lon="19.64769">
        <ele>53.426993</ele>
        <time>2020-10-01T11:59:10.080Z</time>
      </trkpt>
      <trkpt lat="63.57645" lon="19.64748">
        <ele>53.474057</ele>
        <time>2020-10-01T11:59:13.058Z</time>
      </trkpt>
      <trkpt lat="63.57645" lon="19.64726">
        <ele>53.64002</ele>
        <time>2020-10-01T11:59:16.051Z</time>
      </trkpt>
      <trkpt lat="63.57645" lon="19.64704">
        <ele>53.993327</ele>
        <time>2020-10-01T11:59:19.147Z</time>
      </trkpt>
      <trkpt lat="63.57645" lon="19.64678">
        <ele>54.42047</ele>
        <time>2020-10-01T11:59:23.069Z</time>
      </trkpt>
      <trkpt lat="63.57645" lon="19.64658">
        <ele>54.752516</ele>
        <time>2020-10-01T11:59:26.076Z</time>
      </trkpt>
      <trkpt lat="63.57644" lon="19.64637">
        <ele>55.088538</ele>
        <time>2020-10-01T11:59:29.077Z</time>
      </trkpt>
      <trkpt lat="63.57645" lon="19.64615">
        <ele>55.455813</ele>
        <time>2020-10-01T11:59:32.060Z</time>
      </trkpt>
      <trkpt lat="63.57645" lon="19.64593">
        <ele>55.81431</ele>
        <time>2020-10-01T11:59:35.051Z</time>
      </trkpt>
      <trkpt lat="63.57646" lon="19.64571">
        <ele>56.168076</ele>
        <time>2020-10-01T11:59:38.070Z</time>
      </trkpt>
      <trkpt lat="63.57646" lon="19.64551">
        <ele>56.500426</ele>
        <time>2020-10-01T11:59:41.069Z</time>
      </trkpt>
      <trkpt lat="63.57646" lon="19.6453">
        <ele>56.848747</ele>
        <time>2020-10-01T11:59:44.083Z</time>
      </trkpt>
      <trkpt lat="63.57647" lon="19.64508">
        <ele>57.208877</ele>
        <time>2020-10-01T11:59:47.082Z</time>
      </trkpt>
      <trkpt lat="63.57647" lon="19.64486">
        <ele>57.563877</ele>
        <time>2020-10-01T11:59:50.067Z</time>
      </trkpt>
      <trkpt lat="63.57647" lon="19.64459">
        <ele>58.007366</ele>
        <time>2020-10-01T11:59:54.079Z</time>
      </trkpt>
      <trkpt lat="63.57648" lon="19.64437">
        <ele>58.366484</ele>
        <time>2020-10-01T11:59:57.082Z</time>
      </trkpt>
      <trkpt lat="63.57648" lon="19.64415">
        <ele>58.718309</ele>
        <time>2020-10-01T12:00:00.072Z</time>
      </trkpt>
      <trkpt lat="63.57649" lon="19.64395">
        <ele>59.050416</ele>
        <time>2020-10-01T12:00:03.079Z</time>
      </trkpt>
      <trkpt lat="63.57649" lon="19.64373">
        <ele>59.410265</ele>
        <time>2020-10-01T12:00:06.071Z</time>
      </trkpt>
      <trkpt lat="63.5765" lon="19.64353">
        <ele>59.743589</ele>
        <time>2020-10-01T12:00:09.065Z</time>
      </trkpt>
      <trkpt lat="63.5765" lon="19.64331">
        <ele>60.093606</ele>
        <time>2020-10-01T12:00:12.061Z</time>
      </trkpt>
      <trkpt lat="63.5765" lon="19.6431">
        <ele>60.516595</ele>
        <time>2020-10-01T12:00:15.098Z</time>
      </trkpt>
      <trkpt lat="63.57649" lon="19.64289">
        <ele>60.936628</ele>
        <time>2020-10-01T12:00:18.079Z</time>
      </trkpt>
      <trkpt lat="63.57649" lon="19.64264">
        <ele>61.452266</ele>
        <time>2020-10-01T12:00:22.070Z</time>
      </trkpt>
      <trkpt lat="63.57648" lon="19.64239">
        <ele>61.940599</ele>
        <time>2020-10-01T12:00:26.090Z</time>
      </trkpt>
      <trkpt lat="63.57648" lon="19.64215">
        <ele>62.439223</ele>
        <time>2020-10-01T12:00:30.050Z</time>
      </trkpt>
      <trkpt lat="63.57648" lon="19.64189">
        <ele>62.951665</ele>
        <time>2020-10-01T12:00:34.062Z</time>
      </trkpt>
      <trkpt lat="63.57648" lon="19.64165">
        <ele>63.440103</ele>
        <time>2020-10-01T12:00:38.102Z</time>
      </trkpt>
      <trkpt lat="63.57647" lon="19.6414">
        <ele>63.940919</ele>
        <time>2020-10-01T12:00:42.052Z</time>
      </trkpt>
      <trkpt lat="63.57647" lon="19.6412">
        <ele>64.348824</ele>
        <time>2020-10-01T12:00:45.079Z</time>
      </trkpt>
      <trkpt lat="63.57647" lon="19.64093">
        <ele>64.875251</ele>
        <time>2020-10-01T12:00:49.084Z</time>
      </trkpt>
      <trkpt lat="63.57648" lon="19.64068">
        <ele>65.385783</ele>
        <time>2020-10-01T12:00:53.084Z</time>
      </trkpt>
      <trkpt lat="63.57648" lon="19.64042">
        <ele>65.900234</ele>
        <time>2020-10-01T12:00:57.099Z</time>
      </trkpt>
      <trkpt lat="63.57648" lon="19.64018">
        <ele>66.384655</ele>
        <time>2020-10-01T12:01:01.096Z</time>
      </trkpt>
      <trkpt lat="63.57647" lon="19.63995">
        <ele>66.853879</ele>
        <time>2020-10-01T12:01:05.072Z</time>
      </trkpt>
      <trkpt lat="63.57647" lon="19.6397">
        <ele>67.358285</ele>
        <time>2020-10-01T12:01:09.104Z</time>
      </trkpt>
      <trkpt lat="63.57647" lon="19.6395">
        <ele>67.764257</ele>
        <time>2020-10-01T12:01:12.058Z</time>
      </trkpt>
      <trkpt lat="63.57647" lon="19.63925">
        <ele>68.257594</ele>
        <time>2020-10-01T12:01:16.072Z</time>
      </trkpt>
      <trkpt lat="63.57648" lon="19.63902">
        <ele>68.582235</ele>
        <time>2020-10-01T12:01:20.078Z</time>
      </trkpt>
      <trkpt lat="63.57649" lon="19.63875">
        <ele>68.951951</ele>
        <time>2020-10-01T12:01:24.079Z</time>
      </trkpt>
      <trkpt lat="63.57648" lon="19.63851">
        <ele>69.297624</ele>
        <time>2020-10-01T12:01:28.085Z</time>
      </trkpt>
      <trkpt lat="63.57647" lon="19.63827">
        <ele>69.635608</ele>
        <time>2020-10-01T12:01:32.059Z</time>
      </trkpt>
      <trkpt lat="63.57646" lon="19.63802">
        <ele>69.989082</ele>
        <time>2020-10-01T12:01:36.122Z</time>
      </trkpt>
      <trkpt lat="63.57645" lon="19.63781">
        <ele>70.279751</ele>
        <time>2020-10-01T12:01:39.060Z</time>
      </trkpt>
      <trkpt lat="63.57644" lon="19.63757">
        <ele>70.629028</ele>
        <time>2020-10-01T12:01:43.054Z</time>
      </trkpt>
      <trkpt lat="63.57643" lon="19.63732">
        <ele>70.969098</ele>
        <time>2020-10-01T12:01:47.059Z</time>
      </trkpt>
      <trkpt lat="63.57643" lon="19.63709">
        <ele>71.305119</ele>
        <time>2020-10-01T12:01:51.076Z</time>
      </trkpt>
      <trkpt lat="63.57642" lon="19.63685">
        <ele>71.643793</ele>
        <time>2020-10-01T12:01:55.096Z</time>
      </trkpt>
      <trkpt lat="63.57642" lon="19.63662">
        <ele>71.955817</ele>
        <time>2020-10-01T12:01:59.065Z</time>
      </trkpt>
      <trkpt lat="63.57642" lon="19.6364">
        <ele>72.271795</ele>
        <time>2020-10-01T12:02:03.066Z</time>
      </trkpt>
      <trkpt lat="63.57641" lon="19.63617">
        <ele>72.589202</ele>
        <time>2020-10-01T12:02:07.084Z</time>
      </trkpt>
      <trkpt lat="63.57639" lon="19.63594">
        <ele>72.925084</ele>
        <time>2020-10-01T12:02:11.079Z</time>
      </trkpt>
      <trkpt lat="63.57639" lon="19.6357">
        <ele>73.25954</ele>
        <time>2020-10-01T12:02:15.088Z</time>
      </trkpt>
      <trkpt lat="63.57639" lon="19.63546">
        <ele>73.590833</ele>
        <time>2020-10-01T12:02:19.071Z</time>
      </trkpt>
      <trkpt lat="63.57638" lon="19.63525">
        <ele>73.89288</ele>
        <time>2020-10-01T12:02:23.082Z</time>
      </trkpt>
      <trkpt lat="63.57636" lon="19.635">
        <ele>74.14178</ele>
        <time>2020-10-01T12:02:28.092Z</time>
      </trkpt>
      <trkpt lat="63.57633" lon="19.63479">
        <ele>74.35044</ele>
        <time>2020-10-01T12:02:32.059Z</time>
      </trkpt>
      <trkpt lat="63.57631" lon="19.63456">
        <ele>74.583935</ele>
        <time>2020-10-01T12:02:37.105Z</time>
      </trkpt>
      <trkpt lat="63.57628" lon="19.63433">
        <ele>74.812804</ele>
        <time>2020-10-01T12:02:42.061Z</time>
      </trkpt>
      <trkpt lat="63.57627" lon="19.6341">
        <ele>75.036715</ele>
        <time>2020-10-01T12:02:47.067Z</time>
      </trkpt>
      <trkpt lat="63.57624" lon="19.6339">
        <ele>75.237333</ele>
        <time>2020-10-01T12:02:51.106Z</time>
      </trkpt>
      <trkpt lat="63.57619" lon="19.6337">
        <ele>75.455321</ele>
        <time>2020-10-01T12:02:56.074Z</time>
      </trkpt>
      <trkpt lat="63.57616" lon="19.63348">
        <ele>75.68358</ele>
        <time>2020-10-01T12:03:01.059Z</time>
      </trkpt>
      <trkpt lat="63.57613" lon="19.63324">
        <ele>75.917851</ele>
        <time>2020-10-01T12:03:06.056Z</time>
      </trkpt>
      <trkpt lat="63.5761" lon="19.63304">
        <ele>76.123746</ele>
        <time>2020-10-01T12:03:10.089Z</time>
      </trkpt>
      <trkpt lat="63.57608" lon="19.63283">
        <ele>76.326712</ele>
        <time>2020-10-01T12:03:14.072Z</time>
      </trkpt>
      <trkpt lat="63.57606" lon="19.63262">
        <ele>76.533745</ele>
        <time>2020-10-01T12:03:18.110Z</time>
      </trkpt>
      <trkpt lat="63.57605" lon="19.63239">
        <ele>76.760504</ele>
        <time>2020-10-01T12:03:22.062Z</time>
      </trkpt>
      <trkpt lat="63.57603" lon="19.63216">
        <ele>76.982165</ele>
        <time>2020-10-01T12:03:26.109Z</time>
      </trkpt>
      <trkpt lat="63.57601" lon="19.63194">
        <ele>77.204834</ele>
        <time>2020-10-01T12:03:30.070Z</time>
      </trkpt>
      <trkpt lat="63.57598" lon="19.63171">
        <ele>77.428979</ele>
        <time>2020-10-01T12:03:34.062Z</time>
      </trkpt>
      <trkpt lat="63.57594" lon="19.63152">
        <ele>77.629888</ele>
        <time>2020-10-01T12:03:38.122Z</time>
      </trkpt>
      <trkpt lat="63.57591" lon="19.63132">
        <ele>77.863786</ele>
        <time>2020-10-01T12:03:42.080Z</time>
      </trkpt>
      <trkpt lat="63.57587" lon="19.63113">
        <ele>78.295799</ele>
        <time>2020-10-01T12:03:46.061Z</time>
      </trkpt>
      <trkpt lat="63.57584" lon="19.63093">
        <ele>78.710246</ele>
        <time>2020-10-01T12:03:50.062Z</time>
      </trkpt>
      <trkpt lat="63.5758" lon="19.6307">
        <ele>79.215759</ele>
        <time>2020-10-01T12:03:55.051Z</time>
      </trkpt>
      <trkpt lat="63.57577" lon="19.63046">
        <ele>79.723598</ele>
        <time>2020-10-01T12:04:00.067Z</time>
      </trkpt>
      <trkpt lat="63.57575" lon="19.63026">
        <ele>80.145189</ele>
        <time>2020-10-01T12:04:04.081Z</time>
      </trkpt>
      <trkpt lat="63.57571" lon="19.63007">
        <ele>80.557468</ele>
        <time>2020-10-01T12:04:08.058Z</time>
      </trkpt>
      <trkpt lat="63.57568" lon="19.62986">
        <ele>81.010867</ele>
        <time>2020-10-01T12:04:12.076Z</time>
      </trkpt>
      <trkpt lat="63.57566" lon="19.62965">
        <ele>81.445693</ele>
        <time>2020-10-01T12:04:16.085Z</time>
      </trkpt>
      <trkpt lat="63.57564" lon="19.62946">
        <ele>81.853626</ele>
        <time>2020-10-01T12:04:20.061Z</time>
      </trkpt>
      <trkpt lat="63.57561" lon="19.62922">
        <ele>82.361469</ele>
        <time>2020-10-01T12:04:25.051Z</time>
      </trkpt>
      <trkpt lat="63.57558" lon="19.62902">
        <ele>82.772575</ele>
        <time>2020-10-01T12:04:29.064Z</time>
      </trkpt>
      <trkpt lat="63.57555" lon="19.62878">
        <ele>83.274581</ele>
        <time>2020-10-01T12:04:34.079Z</time>
      </trkpt>
      <trkpt lat="63.57552" lon="19.62856">
        <ele>83.762128</ele>
        <time>2020-10-01T12:04:39.080Z</time>
      </trkpt>
      <trkpt lat="63.57548" lon="19.62833">
        <ele>84.263275</ele>
        <time>2020-10-01T12:04:44.058Z</time>
      </trkpt>
      <trkpt lat="63.57544" lon="19.6281">
        <ele>84.742789</ele>
        <time>2020-10-01T12:04:49.048Z</time>
      </trkpt>
      <trkpt lat="63.57542" lon="19.6279">
        <ele>85.174716</ele>
        <time>2020-10-01T12:04:53.094Z</time>
      </trkpt>
      <trkpt lat="63.5754" lon="19.6277">
        <ele>85.585825</ele>
        <time>2020-10-01T12:04:57.078Z</time>
      </trkpt>
      <trkpt lat="63.57538" lon="19.6275">
        <ele>85.994011</ele>
        <time>2020-10-01T12:05:01.067Z</time>
      </trkpt>
      <trkpt lat="63.57537" lon="19.62727">
        <ele>86.142815</ele>
        <time>2020-10-01T12:05:06.078Z</time>
      </trkpt>
      <trkpt lat="63.57535" lon="19.62703">
        <ele>86.287414</ele>
        <time>2020-10-01T12:05:11.082Z</time>
      </trkpt>
      <trkpt lat="63.57533" lon="19.62683">
        <ele>86.406545</ele>
        <time>2020-10-01T12:05:15.064Z</time>
      </trkpt>
      <trkpt lat="63.5753" lon="19.62662">
        <ele>86.53404</ele>
        <time>2020-10-01T12:05:19.084Z</time>
      </trkpt>
      <trkpt lat="63.57526" lon="19.62642">
        <ele>86.664707</ele>
        <time>2020-10-01T12:05:23.069Z</time>
      </trkpt>
      <trkpt lat="63.57519" lon="19.62622">
        <ele>86.808222</ele>
        <time>2020-10-01T12:05:27.102Z</time>
      </trkpt>
      <trkpt lat="63.57511" lon="19.62603">
        <ele>86.96044</ele>
        <time>2020-10-01T12:05:31.046Z</time>
      </trkpt>
      <trkpt lat="63.57504" lon="19.62585">
        <ele>87.099677</ele>
        <time>2020-10-01T12:05:35.052Z</time>
      </trkpt>
      <trkpt lat="63.57497" lon="19.62569">
        <ele>87.233174</ele>
        <time>2020-10-01T12:05:39.071Z</time>
      </trkpt>
      <trkpt lat="63.57491" lon="19.62552">
        <ele>87.359237</ele>
        <time>2020-10-01T12:05:43.089Z</time>
      </trkpt>
      <trkpt lat="63.57484" lon="19.62536">
        <ele>87.487873</ele>
        <time>2020-10-01T12:05:47.070Z</time>
      </trkpt>
      <trkpt lat="63.57478" lon="19.62519">
        <ele>87.61523</ele>
        <time>2020-10-01T12:05:51.068Z</time>
      </trkpt>
      <trkpt lat="63.57471" lon="19.62503">
        <ele>87.745621</ele>
        <time>2020-10-01T12:05:55.099Z</time>
      </trkpt>
      <trkpt lat="63.57465" lon="19.62486">
        <ele>87.875607</ele>
        <time>2020-10-01T12:05:59.079Z</time>
      </trkpt>
      <trkpt lat="63.57458" lon="19.62469">
        <ele>88.002501</ele>
        <time>2020-10-01T12:06:03.067Z</time>
      </trkpt>
      <trkpt lat="63.57453" lon="19.62453">
        <ele>88.120985</ele>
        <time>2020-10-01T12:06:07.080Z</time>
      </trkpt>
      <trkpt lat="63.57446" lon="19.62433">
        <ele>88.266804</ele>
        <time>2020-10-01T12:06:12.080Z</time>
      </trkpt>
      <trkpt lat="63.57441" lon="19.62416">
        <ele>88.423155</ele>
        <time>2020-10-01T12:06:16.057Z</time>
      </trkpt>
      <trkpt lat="63.57435" lon="19.62399">
        <ele>88.689256</ele>
        <time>2020-10-01T12:06:20.062Z</time>
      </trkpt>
      <trkpt lat="63.5743" lon="19.62381">
        <ele>88.966394</ele>
        <time>2020-10-01T12:06:24.082Z</time>
      </trkpt>
      <trkpt lat="63.57426" lon="19.62362">
        <ele>89.232323</ele>
        <time>2020-10-01T12:06:28.063Z</time>
      </trkpt>
      <trkpt lat="63.57421" lon="19.62341">
        <ele>89.545955</ele>
        <time>2020-10-01T12:06:33.065Z</time>
      </trkpt>
      <trkpt lat="63.57415" lon="19.6232">
        <ele>89.855203</ele>
        <time>2020-10-01T12:06:38.084Z</time>
      </trkpt>
      <trkpt lat="63.57411" lon="19.62299">
        <ele>90.162222</ele>
        <time>2020-10-01T12:06:43.088Z</time>
      </trkpt>
      <trkpt lat="63.57408" lon="19.62278">
        <ele>90.439032</ele>
        <time>2020-10-01T12:06:47.090Z</time>
      </trkpt>
      <trkpt lat="63.57403" lon="19.62258">
        <ele>90.740857</ele>
        <time>2020-10-01T12:06:51.078Z</time>
      </trkpt>
      <trkpt lat="63.57398" lon="19.62237">
        <ele>91.034891</ele>
        <time>2020-10-01T12:06:55.081Z</time>
      </trkpt>
      <trkpt lat="63.57395" lon="19.62217">
        <ele>91.313714</ele>
        <time>2020-10-01T12:06:59.080Z</time>
      </trkpt>
      <trkpt lat="63.57391" lon="19.62197">
        <ele>91.596031</ele>
        <time>2020-10-01T12:07:03.085Z</time>
      </trkpt>
      <trkpt lat="63.57387" lon="19.62175">
        <ele>91.892952</ele>
        <time>2020-10-01T12:07:07.062Z</time>
      </trkpt>
      <trkpt lat="63.57383" lon="19.62154">
        <ele>92.201211</ele>
        <time>2020-10-01T12:07:11.083Z</time>
      </trkpt>
      <trkpt lat="63.57379" lon="19.62132">
        <ele>92.504693</ele>
        <time>2020-10-01T12:07:15.102Z</time>
      </trkpt>
      <trkpt lat="63.57374" lon="19.62108">
        <ele>92.835482</ele>
        <time>2020-10-01T12:07:19.066Z</time>
      </trkpt>
      <trkpt lat="63.57371" lon="19.62088">
        <ele>93.107489</ele>
        <time>2020-10-01T12:07:22.065Z</time>
      </trkpt>
      <trkpt lat="63.57368" lon="19.62067">
        <ele>93.388468</ele>
        <time>2020-10-01T12:07:25.059Z</time>
      </trkpt>
      <trkpt lat="63.57366" lon="19.62044">
        <ele>93.3148</ele>
        <time>2020-10-01T12:07:28.072Z</time>
      </trkpt>
      <trkpt lat="63.57364" lon="19.62018">
        <ele>92.624455</ele>
        <time>2020-10-01T12:07:31.059Z</time>
      </trkpt>
      <trkpt lat="63.57361" lon="19.61999">
        <ele>92.091018</ele>
        <time>2020-10-01T12:07:33.081Z</time>
      </trkpt>
      <trkpt lat="63.5736" lon="19.61977">
        <ele>91.518423</ele>
        <time>2020-10-01T12:07:35.075Z</time>
      </trkpt>
      <trkpt lat="63.57358" lon="19.61955">
        <ele>90.907574</ele>
        <time>2020-10-01T12:07:37.063Z</time>
      </trkpt>
      <trkpt lat="63.57358" lon="19.6193">
        <ele>90.246999</ele>
        <time>2020-10-01T12:07:39.079Z</time>
      </trkpt>
      <trkpt lat="63.57357" lon="19.61903">
        <ele>89.535118</ele>
        <time>2020-10-01T12:07:41.097Z</time>
      </trkpt>
      <trkpt lat="63.57358" lon="19.61871">
        <ele>88.695296</ele>
        <time>2020-10-01T12:07:43.136Z</time>
      </trkpt>
      <trkpt lat="63.57361" lon="19.61838">
        <ele>87.81998</ele>
        <time>2020-10-01T12:07:45.068Z</time>
      </trkpt>
      <trkpt lat="63.57365" lon="19.61809">
        <ele>86.978922</ele>
        <time>2020-10-01T12:07:47.099Z</time>
      </trkpt>
      <trkpt lat="63.57371" lon="19.61781">
        <ele>86.161394</ele>
        <time>2020-10-01T12:07:49.071Z</time>
      </trkpt>
      <trkpt lat="63.57379" lon="19.61753">
        <ele>85.302609</ele>
        <time>2020-10-01T12:07:51.082Z</time>
      </trkpt>
      <trkpt lat="63.57388" lon="19.61724">
        <ele>84.35624</ele>
        <time>2020-10-01T12:07:53.099Z</time>
      </trkpt>
      <trkpt lat="63.57398" lon="19.61695">
        <ele>83.390649</ele>
        <time>2020-10-01T12:07:55.108Z</time>
      </trkpt>
      <trkpt lat="63.57408" lon="19.61665">
        <ele>82.387251</ele>
        <time>2020-10-01T12:07:57.070Z</time>
      </trkpt>
      <trkpt lat="63.57419" lon="19.61635">
        <ele>81.348041</ele>
        <time>2020-10-01T12:07:59.099Z</time>
      </trkpt>
      <trkpt lat="63.57428" lon="19.61604">
        <ele>80.34635</ele>
        <time>2020-10-01T12:08:01.059Z</time>
      </trkpt>
      <trkpt lat="63.57436" lon="19.61575">
        <ele>79.427745</ele>
        <time>2020-10-01T12:08:03.075Z</time>
      </trkpt>
      <trkpt lat="63.57443" lon="19.61546">
        <ele>78.528668</ele>
        <time>2020-10-01T12:08:05.113Z</time>
      </trkpt>
      <trkpt lat="63.57449" lon="19.61513">
        <ele>77.586089</ele>
        <time>2020-10-01T12:08:07.077Z</time>
      </trkpt>
      <trkpt lat="63.57454" lon="19.61479">
        <ele>76.596524</ele>
        <time>2020-10-01T12:08:09.077Z</time>
      </trkpt>
      <trkpt lat="63.57458" lon="19.61442">
        <ele>75.578486</ele>
        <time>2020-10-01T12:08:11.070Z</time>
      </trkpt>
      <trkpt lat="63.57461" lon="19.61403">
        <ele>74.506556</ele>
        <time>2020-10-01T12:08:13.089Z</time>
      </trkpt>
      <trkpt lat="63.57463" lon="19.61383">
        <ele>73.960757</ele>
        <time>2020-10-01T12:08:14.083Z</time>
      </trkpt>
      <trkpt lat="63.57465" lon="19.61363">
        <ele>73.416499</ele>
        <time>2020-10-01T12:08:15.056Z</time>
      </trkpt>
      <trkpt lat="63.57468" lon="19.61325">
        <ele>72.349176</ele>
        <time>2020-10-01T12:08:17.049Z</time>
      </trkpt>
      <trkpt lat="63.57472" lon="19.61288">
        <ele>71.933385</ele>
        <time>2020-10-01T12:08:19.068Z</time>
      </trkpt>
      <trkpt lat="63.57475" lon="19.61254">
        <ele>71.876542</ele>
        <time>2020-10-01T12:08:21.075Z</time>
      </trkpt>
      <trkpt lat="63.57479" lon="19.61222">
        <ele>71.82249</ele>
        <time>2020-10-01T12:08:23.083Z</time>
      </trkpt>
      <trkpt lat="63.57481" lon="19.61195">
        <ele>71.77829</ele>
        <time>2020-10-01T12:08:25.071Z</time>
      </trkpt>
      <trkpt lat="63.57482" lon="19.61173">
        <ele>71.743177</ele>
        <time>2020-10-01T12:08:27.059Z</time>
      </trkpt>
      <trkpt lat="63.57483" lon="19.61153">
        <ele>71.710744</ele>
        <time>2020-10-01T12:08:29.083Z</time>
      </trkpt>
      <trkpt lat="63.57486" lon="19.61125">
        <ele>71.664545</ele>
        <time>2020-10-01T12:08:32.081Z</time>
      </trkpt>
      <trkpt lat="63.5749" lon="19.61098">
        <ele>71.618662</ele>
        <time>2020-10-01T12:08:35.086Z</time>
      </trkpt>
      <trkpt lat="63.57493" lon="19.61071">
        <ele>71.573088</ele>
        <time>2020-10-01T12:08:38.069Z</time>
      </trkpt>
      <trkpt lat="63.57496" lon="19.61043">
        <ele>71.527368</ele>
        <time>2020-10-01T12:08:41.063Z</time>
      </trkpt>
      <trkpt lat="63.57498" lon="19.61015">
        <ele>71.481678</ele>
        <time>2020-10-01T12:08:44.084Z</time>
      </trkpt>
      <trkpt lat="63.575" lon="19.60989">
        <ele>71.437375</ele>
        <time>2020-10-01T12:08:47.100Z</time>
      </trkpt>
      <trkpt lat="63.57502" lon="19.6096">
        <ele>71.390822</ele>
        <time>2020-10-01T12:08:50.059Z</time>
      </trkpt>
      <trkpt lat="63.57504" lon="19.60933">
        <ele>71.346138</ele>
        <time>2020-10-01T12:08:53.060Z</time>
      </trkpt>
      <trkpt lat="63.57507" lon="19.60907">
        <ele>71.427876</ele>
        <time>2020-10-01T12:08:56.078Z</time>
      </trkpt>
      <trkpt lat="63.57509" lon="19.60884">
        <ele>71.733788</ele>
        <time>2020-10-01T12:08:59.096Z</time>
      </trkpt>
      <trkpt lat="63.57512" lon="19.6086">
        <ele>72.045297</ele>
        <time>2020-10-01T12:09:02.069Z</time>
      </trkpt>
      <trkpt lat="63.57514" lon="19.60835">
        <ele>72.358188</ele>
        <time>2020-10-01T12:09:05.074Z</time>
      </trkpt>
      <trkpt lat="63.57516" lon="19.6081">
        <ele>72.678337</ele>
        <time>2020-10-01T12:09:08.092Z</time>
      </trkpt>
      <trkpt lat="63.57519" lon="19.60786">
        <ele>72.993478</ele>
        <time>2020-10-01T12:09:11.067Z</time>
      </trkpt>
      <trkpt lat="63.57521" lon="19.6076">
        <ele>73.334512</ele>
        <time>2020-10-01T12:09:14.079Z</time>
      </trkpt>
      <trkpt lat="63.57524" lon="19.60732">
        <ele>73.684398</ele>
        <time>2020-10-01T12:09:17.095Z</time>
      </trkpt>
      <trkpt lat="63.57526" lon="19.60704">
        <ele>74.043735</ele>
        <time>2020-10-01T12:09:20.108Z</time>
      </trkpt>
      <trkpt lat="63.57528" lon="19.6068">
        <ele>74.358388</ele>
        <time>2020-10-01T12:09:23.066Z</time>
      </trkpt>
      <trkpt lat="63.5753" lon="19.60657">
        <ele>74.651404</ele>
        <time>2020-10-01T12:09:26.076Z</time>
      </trkpt>
      <trkpt lat="63.57533" lon="19.60634">
        <ele>74.959766</ele>
        <time>2020-10-01T12:09:29.089Z</time>
      </trkpt>
      <trkpt lat="63.57537" lon="19.6061">
        <ele>75.281556</ele>
        <time>2020-10-01T12:09:32.073Z</time>
      </trkpt>
      <trkpt lat="63.5754" lon="19.60586">
        <ele>75.596892</ele>
        <time>2020-10-01T12:09:35.075Z</time>
      </trkpt>
      <trkpt lat="63.57543" lon="19.60564">
        <ele>75.884309</ele>
        <time>2020-10-01T12:09:38.087Z</time>
      </trkpt>
      <trkpt lat="63.57547" lon="19.60541">
        <ele>76.196075</ele>
        <time>2020-10-01T12:09:41.073Z</time>
      </trkpt>
      <trkpt lat="63.57552" lon="19.60516">
        <ele>76.492587</ele>
        <time>2020-10-01T12:09:44.095Z</time>
      </trkpt>
      <trkpt lat="63.57556" lon="19.60492">
        <ele>76.699493</ele>
        <time>2020-10-01T12:09:47.084Z</time>
      </trkpt>
      <trkpt lat="63.5756" lon="19.6047">
        <ele>76.896364</ele>
        <time>2020-10-01T12:09:50.064Z</time>
      </trkpt>
      <trkpt lat="63.57563" lon="19.60445">
        <ele>77.107106</ele>
        <time>2020-10-01T12:09:53.097Z</time>
      </trkpt>
      <trkpt lat="63.57568" lon="19.60424">
        <ele>77.299559</ele>
        <time>2020-10-01T12:09:56.099Z</time>
      </trkpt>
      <trkpt lat="63.57572" lon="19.60401">
        <ele>77.497734</ele>
        <time>2020-10-01T12:09:59.068Z</time>
      </trkpt>
      <trkpt lat="63.57576" lon="19.6038">
        <ele>77.682626</ele>
        <time>2020-10-01T12:10:02.062Z</time>
      </trkpt>
      <trkpt lat="63.5758" lon="19.60358">
        <ele>77.874715</ele>
        <time>2020-10-01T12:10:05.075Z</time>
      </trkpt>
      <trkpt lat="63.57584" lon="19.60337">
        <ele>78.055716</ele>
        <time>2020-10-01T12:10:08.100Z</time>
      </trkpt>
      <trkpt lat="63.57589" lon="19.60316">
        <ele>78.251159</ele>
        <time>2020-10-01T12:10:11.078Z</time>
      </trkpt>
      <trkpt lat="63.57593" lon="19.60295">
        <ele>78.438806</ele>
        <time>2020-10-01T12:10:14.064Z</time>
      </trkpt>
      <trkpt lat="63.57598" lon="19.60269">
        <ele>78.659569</ele>
        <time>2020-10-01T12:10:18.066Z</time>
      </trkpt>
      <trkpt lat="63.57601" lon="19.60249">
        <ele>78.83269</ele>
        <time>2020-10-01T12:10:21.071Z</time>
      </trkpt>
      <trkpt lat="63.57605" lon="19.60224">
        <ele>79.050139</ele>
        <time>2020-10-01T12:10:25.065Z</time>
      </trkpt>
      <trkpt lat="63.57608" lon="19.60203">
        <ele>79.226176</ele>
        <time>2020-10-01T12:10:28.075Z</time>
      </trkpt>
      <trkpt lat="63.57612" lon="19.60179">
        <ele>79.438102</ele>
        <time>2020-10-01T12:10:32.063Z</time>
      </trkpt>
      <trkpt lat="63.57615" lon="19.60159">
        <ele>79.601883</ele>
        <time>2020-10-01T12:10:35.085Z</time>
      </trkpt>
      <trkpt lat="63.5762" lon="19.60136">
        <ele>79.659559</ele>
        <time>2020-10-01T12:10:39.082Z</time>
      </trkpt>
      <trkpt lat="63.57625" lon="19.60113">
        <ele>79.621108</ele>
        <time>2020-10-01T12:10:43.062Z</time>
      </trkpt>
      <trkpt lat="63.57629" lon="19.60093">
        <ele>79.587829</ele>
        <time>2020-10-01T12:10:46.068Z</time>
      </trkpt>
      <trkpt lat="63.57633" lon="19.6007">
        <ele>79.549442</ele>
        <time>2020-10-01T12:10:50.069Z</time>
      </trkpt>
      <trkpt lat="63.57638" lon="19.60046">
        <ele>79.511055</ele>
        <time>2020-10-01T12:10:54.071Z</time>
      </trkpt>
      <trkpt lat="63.57642" lon="19.60028">
        <ele>79.478952</ele>
        <time>2020-10-01T12:10:57.062Z</time>
      </trkpt>
      <trkpt lat="63.57647" lon="19.6001">
        <ele>79.44721</ele>
        <time>2020-10-01T12:11:00.095Z</time>
      </trkpt>
      <trkpt lat="63.57652" lon="19.5999">
        <ele>79.412672</ele>
        <time>2020-10-01T12:11:03.086Z</time>
      </trkpt>
      <trkpt lat="63.57659" lon="19.5997">
        <ele>79.375442</ele>
        <time>2020-10-01T12:11:06.068Z</time>
      </trkpt>
      <trkpt lat="63.57663" lon="19.59946">
        <ele>79.336608</ele>
        <time>2020-10-01T12:11:09.065Z</time>
      </trkpt>
      <trkpt lat="63.57666" lon="19.59924">
        <ele>79.300586</ele>
        <time>2020-10-01T12:11:12.088Z</time>
      </trkpt>
      <trkpt lat="63.5767" lon="19.59903">
        <ele>79.266785</ele>
        <time>2020-10-01T12:11:15.064Z</time>
      </trkpt>
      <trkpt lat="63.57674" lon="19.59884">
        <ele>79.236265</ele>
        <time>2020-10-01T12:11:18.062Z</time>
      </trkpt>
      <trkpt lat="63.57678" lon="19.5986">
        <ele>79.196445</ele>
        <time>2020-10-01T12:11:22.058Z</time>
      </trkpt>
      <trkpt lat="63.57682" lon="19.59836">
        <ele>79.157507</ele>
        <time>2020-10-01T12:11:26.077Z</time>
      </trkpt>
      <trkpt lat="63.57686" lon="19.59813">
        <ele>79.120231</ele>
        <time>2020-10-01T12:11:30.081Z</time>
      </trkpt>
      <trkpt lat="63.57691" lon="19.59792">
        <ele>79.084663</ele>
        <time>2020-10-01T12:11:34.065Z</time>
      </trkpt>
      <trkpt lat="63.57696" lon="19.59769">
        <ele>79.359221</ele>
        <time>2020-10-01T12:11:38.071Z</time>
      </trkpt>
      <trkpt lat="63.577" lon="19.59745">
        <ele>79.766952</ele>
        <time>2020-10-01T12:11:42.092Z</time>
      </trkpt>
      <trkpt lat="63.57704" lon="19.59722">
        <ele>80.161884</ele>
        <time>2020-10-01T12:11:46.089Z</time>
      </trkpt>
      <trkpt lat="63.57707" lon="19.59701">
        <ele>80.495927</ele>
        <time>2020-10-01T12:11:49.076Z</time>
      </trkpt>
      <trkpt lat="63.57711" lon="19.5968">
        <ele>80.861388</ele>
        <time>2020-10-01T12:11:52.061Z</time>
      </trkpt>
      <trkpt lat="63.57715" lon="19.59659">
        <ele>81.225436</ele>
        <time>2020-10-01T12:11:55.083Z</time>
      </trkpt>
      <trkpt lat="63.57719" lon="19.59637">
        <ele>81.604138</ele>
        <time>2020-10-01T12:11:58.122Z</time>
      </trkpt>
      <trkpt lat="63.57723" lon="19.59617">
        <ele>81.944936</ele>
        <time>2020-10-01T12:12:01.068Z</time>
      </trkpt>
      <trkpt lat="63.57727" lon="19.59596">
        <ele>82.323453</ele>
        <time>2020-10-01T12:12:05.059Z</time>
      </trkpt>
      <trkpt lat="63.57731" lon="19.59572">
        <ele>82.736938</ele>
        <time>2020-10-01T12:12:09.071Z</time>
      </trkpt>
      <trkpt lat="63.57735" lon="19.59553">
        <ele>83.064692</ele>
        <time>2020-10-01T12:12:12.066Z</time>
      </trkpt>
      <trkpt lat="63.57739" lon="19.59531">
        <ele>83.447596</ele>
        <time>2020-10-01T12:12:16.062Z</time>
      </trkpt>
      <trkpt lat="63.57742" lon="19.59508">
        <ele>83.814347</ele>
        <time>2020-10-01T12:12:20.068Z</time>
      </trkpt>
      <trkpt lat="63.57745" lon="19.59484">
        <ele>84.22136</ele>
        <time>2020-10-01T12:12:24.071Z</time>
      </trkpt>
      <trkpt lat="63.57748" lon="19.59461">
        <ele>84.59325</ele>
        <time>2020-10-01T12:12:28.090Z</time>
      </trkpt>
      <trkpt lat="63.5775" lon="19.59437">
        <ele>84.984646</ele>
        <time>2020-10-01T12:12:32.071Z</time>
      </trkpt>
      <trkpt lat="63.57753" lon="19.59415">
        <ele>85.352432</ele>
        <time>2020-10-01T12:12:35.081Z</time>
      </trkpt>
      <trkpt lat="63.57754" lon="19.59391">
        <ele>85.618706</ele>
        <time>2020-10-01T12:12:38.059Z</time>
      </trkpt>
      <trkpt lat="63.57754" lon="19.59367">
        <ele>85.829001</ele>
        <time>2020-10-01T12:12:41.078Z</time>
      </trkpt>
      <trkpt lat="63.57753" lon="19.59344">
        <ele>86.032741</ele>
        <time>2020-10-01T12:12:44.080Z</time>
      </trkpt>
      <trkpt lat="63.57752" lon="19.59319">
        <ele>86.244339</ele>
        <time>2020-10-01T12:12:47.069Z</time>
      </trkpt>
      <trkpt lat="63.57751" lon="19.59294">
        <ele>86.462426</ele>
        <time>2020-10-01T12:12:50.080Z</time>
      </trkpt>
      <trkpt lat="63.5775" lon="19.59267">
        <ele>86.696742</ele>
        <time>2020-10-01T12:12:53.073Z</time>
      </trkpt>
      <trkpt lat="63.5775" lon="19.59239">
        <ele>86.938474</ele>
        <time>2020-10-01T12:12:56.068Z</time>
      </trkpt>
      <trkpt lat="63.57748" lon="19.5921">
        <ele>87.194835</ele>
        <time>2020-10-01T12:12:59.068Z</time>
      </trkpt>
      <trkpt lat="63.57748" lon="19.59188">
        <ele>87.378467</ele>
        <time>2020-10-01T12:13:01.059Z</time>
      </trkpt>
      <trkpt lat="63.57748" lon="19.59166">
        <ele>87.569882</ele>
        <time>2020-10-01T12:13:03.087Z</time>
      </trkpt>
      <trkpt lat="63.57747" lon="19.59143">
        <ele>87.770893</ele>
        <time>2020-10-01T12:13:05.062Z</time>
      </trkpt>
      <trkpt lat="63.57746" lon="19.59118">
        <ele>87.987759</ele>
        <time>2020-10-01T12:13:07.125Z</time>
      </trkpt>
      <trkpt lat="63.57744" lon="19.59092">
        <ele>88.215043</ele>
        <time>2020-10-01T12:13:09.064Z</time>
      </trkpt>
      <trkpt lat="63.57744" lon="19.59062">
        <ele>88.480209</ele>
        <time>2020-10-01T12:13:11.060Z</time>
      </trkpt>
      <trkpt lat="63.57742" lon="19.5903">
        <ele>88.752087</ele>
        <time>2020-10-01T12:13:13.086Z</time>
      </trkpt>
      <trkpt lat="63.57742" lon="19.59001">
        <ele>88.89238</ele>
        <time>2020-10-01T12:13:15.102Z</time>
      </trkpt>
      <trkpt lat="63.57742" lon="19.58971">
        <ele>87.709243</ele>
        <time>2020-10-01T12:13:17.062Z</time>
      </trkpt>
      <trkpt lat="63.57741" lon="19.58938">
        <ele>86.360738</ele>
        <time>2020-10-01T12:13:19.100Z</time>
      </trkpt>
      <trkpt lat="63.57739" lon="19.58899">
        <ele>84.786145</ele>
        <time>2020-10-01T12:13:21.070Z</time>
      </trkpt>
      <trkpt lat="63.57738" lon="19.58859">
        <ele>83.20303</ele>
        <time>2020-10-01T12:13:23.112Z</time>
      </trkpt>
      <trkpt lat="63.57737" lon="19.58822">
        <ele>81.694658</ele>
        <time>2020-10-01T12:13:25.084Z</time>
      </trkpt>
      <trkpt lat="63.57735" lon="19.58785">
        <ele>80.222265</ele>
        <time>2020-10-01T12:13:27.069Z</time>
      </trkpt>
      <trkpt lat="63.57734" lon="19.58749">
        <ele>78.768316</ele>
        <time>2020-10-01T12:13:29.062Z</time>
      </trkpt>
      <trkpt lat="63.57733" lon="19.58715">
        <ele>77.392578</ele>
        <time>2020-10-01T12:13:31.063Z</time>
      </trkpt>
      <trkpt lat="63.57732" lon="19.58682">
        <ele>76.050363</ele>
        <time>2020-10-01T12:13:33.070Z</time>
      </trkpt>
      <trkpt lat="63.5773" lon="19.58649">
        <ele>74.730677</ele>
        <time>2020-10-01T12:13:35.090Z</time>
      </trkpt>
      <trkpt lat="63.57728" lon="19.58618">
        <ele>73.494034</ele>
        <time>2020-10-01T12:13:37.066Z</time>
      </trkpt>
      <trkpt lat="63.57727" lon="19.5859">
        <ele>72.626555</ele>
        <time>2020-10-01T12:13:39.108Z</time>
      </trkpt>
      <trkpt lat="63.57726" lon="19.58563">
        <ele>72.262575</ele>
        <time>2020-10-01T12:13:41.103Z</time>
      </trkpt>
      <trkpt lat="63.57724" lon="19.58538">
        <ele>71.911243</ele>
        <time>2020-10-01T12:13:43.071Z</time>
      </trkpt>
      <trkpt lat="63.57723" lon="19.58515">
        <ele>71.595753</ele>
        <time>2020-10-01T12:13:45.100Z</time>
      </trkpt>
      <trkpt lat="63.57721" lon="19.58494">
        <ele>71.298307</ele>
        <time>2020-10-01T12:13:47.065Z</time>
      </trkpt>
      <trkpt lat="63.5772" lon="19.58471">
        <ele>70.988953</ele>
        <time>2020-10-01T12:13:49.057Z</time>
      </trkpt>
      <trkpt lat="63.5772" lon="19.58448">
        <ele>70.668383</ele>
        <time>2020-10-01T12:13:51.076Z</time>
      </trkpt>
      <trkpt lat="63.57719" lon="19.58423">
        <ele>70.328427</ele>
        <time>2020-10-01T12:13:53.087Z</time>
      </trkpt>
      <trkpt lat="63.57718" lon="19.58398">
        <ele>69.977459</ele>
        <time>2020-10-01T12:13:55.083Z</time>
      </trkpt>
      <trkpt lat="63.57716" lon="19.58372">
        <ele>69.610833</ele>
        <time>2020-10-01T12:13:57.107Z</time>
      </trkpt>
      <trkpt lat="63.57716" lon="19.58342">
        <ele>69.207208</ele>
        <time>2020-10-01T12:13:59.069Z</time>
      </trkpt>
      <trkpt lat="63.57716" lon="19.58314">
        <ele>68.815973</ele>
        <time>2020-10-01T12:14:01.081Z</time>
      </trkpt>
      <trkpt lat="63.57716" lon="19.58285">
        <ele>68.423365</ele>
        <time>2020-10-01T12:14:03.097Z</time>
      </trkpt>
      <trkpt lat="63.57716" lon="19.58257">
        <ele>68.04175</ele>
        <time>2020-10-01T12:14:05.062Z</time>
      </trkpt>
      <trkpt lat="63.57716" lon="19.5823">
        <ele>67.666987</ele>
        <time>2020-10-01T12:14:07.090Z</time>
      </trkpt>
      <trkpt lat="63.57715" lon="19.58204">
        <ele>67.306688</ele>
        <time>2020-10-01T12:14:09.065Z</time>
      </trkpt>
      <trkpt lat="63.57715" lon="19.58177">
        <ele>67.314007</ele>
        <time>2020-10-01T12:14:11.081Z</time>
      </trkpt>
      <trkpt lat="63.57714" lon="19.58153">
        <ele>67.416627</ele>
        <time>2020-10-01T12:14:13.062Z</time>
      </trkpt>
      <trkpt lat="63.57714" lon="19.58128">
        <ele>67.518889</ele>
        <time>2020-10-01T12:14:15.061Z</time>
      </trkpt>
      <trkpt lat="63.57713" lon="19.58104">
        <ele>67.617384</ele>
        <time>2020-10-01T12:14:17.061Z</time>
      </trkpt>
      <trkpt lat="63.57712" lon="19.5808">
        <ele>67.717804</ele>
        <time>2020-10-01T12:14:19.056Z</time>
      </trkpt>
      <trkpt lat="63.57711" lon="19.58055">
        <ele>67.820541</ele>
        <time>2020-10-01T12:14:21.072Z</time>
      </trkpt>
      <trkpt lat="63.57711" lon="19.5803">
        <ele>67.924287</ele>
        <time>2020-10-01T12:14:23.097Z</time>
      </trkpt>
      <trkpt lat="63.57711" lon="19.58006">
        <ele>68.024707</ele>
        <time>2020-10-01T12:14:25.064Z</time>
      </trkpt>
      <trkpt lat="63.5771" lon="19.57983">
        <ele>68.120929</ele>
        <time>2020-10-01T12:14:27.100Z</time>
      </trkpt>
      <trkpt lat="63.57709" lon="19.5796">
        <ele>68.216097</ele>
        <time>2020-10-01T12:14:29.082Z</time>
      </trkpt>
      <trkpt lat="63.57708" lon="19.57937">
        <ele>68.31026</ele>
        <time>2020-10-01T12:14:31.056Z</time>
      </trkpt>
      <trkpt lat="63.57707" lon="19.57913">
        <ele>68.409993</ele>
        <time>2020-10-01T12:14:33.093Z</time>
      </trkpt>
      <trkpt lat="63.57706" lon="19.57889">
        <ele>68.507626</ele>
        <time>2020-10-01T12:14:35.063Z</time>
      </trkpt>
      <trkpt lat="63.57705" lon="19.57865">
        <ele>68.610246</ele>
        <time>2020-10-01T12:14:37.082Z</time>
      </trkpt>
      <trkpt lat="63.57705" lon="19.57841">
        <ele>68.708188</ele>
        <time>2020-10-01T12:14:39.062Z</time>
      </trkpt>
      <trkpt lat="63.57705" lon="19.57818">
        <ele>68.803333</ele>
        <time>2020-10-01T12:14:41.092Z</time>
      </trkpt>
      <trkpt lat="63.57704" lon="19.57795">
        <ele>68.900977</ele>
        <time>2020-10-01T12:14:43.060Z</time>
      </trkpt>
      <trkpt lat="63.57703" lon="19.57771">
        <ele>69.092641</ele>
        <time>2020-10-01T12:14:45.084Z</time>
      </trkpt>
      <trkpt lat="63.57702" lon="19.57747">
        <ele>69.288106</ele>
        <time>2020-10-01T12:14:47.075Z</time>
      </trkpt>
      <trkpt lat="63.57701" lon="19.57723">
        <ele>69.483408</ele>
        <time>2020-10-01T12:14:49.071Z</time>
      </trkpt>
      <trkpt lat="63.577" lon="19.577">
        <ele>69.67482</ele>
        <time>2020-10-01T12:14:51.073Z</time>
      </trkpt>
      <trkpt lat="63.57699" lon="19.57676">
        <ele>69.867876</ele>
        <time>2020-10-01T12:14:53.070Z</time>
      </trkpt>
      <trkpt lat="63.57698" lon="19.57653">
        <ele>70.060744</ele>
        <time>2020-10-01T12:14:55.067Z</time>
      </trkpt>
      <trkpt lat="63.57697" lon="19.57629">
        <ele>70.255089</ele>
        <time>2020-10-01T12:14:57.093Z</time>
      </trkpt>
      <trkpt lat="63.57697" lon="19.57606">
        <ele>70.444315</ele>
        <time>2020-10-01T12:14:59.125Z</time>
      </trkpt>
      <trkpt lat="63.57696" lon="19.57582">
        <ele>70.64167</ele>
        <time>2020-10-01T12:15:01.084Z</time>
      </trkpt>
      <trkpt lat="63.57695" lon="19.57557">
        <ele>70.841573</ele>
        <time>2020-10-01T12:15:03.079Z</time>
      </trkpt>
      <trkpt lat="63.57695" lon="19.57533">
        <ele>71.035106</ele>
        <time>2020-10-01T12:15:05.105Z</time>
      </trkpt>
      <trkpt lat="63.57694" lon="19.5751">
        <ele>71.221651</ele>
        <time>2020-10-01T12:15:07.089Z</time>
      </trkpt>
      <trkpt lat="63.57695" lon="19.57488">
        <ele>71.403377</ele>
        <time>2020-10-01T12:15:09.068Z</time>
      </trkpt>
      <trkpt lat="63.57695" lon="19.57466">
        <ele>71.584225</ele>
        <time>2020-10-01T12:15:11.093Z</time>
      </trkpt>
      <trkpt lat="63.57695" lon="19.57444">
        <ele>71.759299</ele>
        <time>2020-10-01T12:15:13.096Z</time>
      </trkpt>
      <trkpt lat="63.57695" lon="19.57422">
        <ele>71.940887</ele>
        <time>2020-10-01T12:15:15.089Z</time>
      </trkpt>
      <trkpt lat="63.57695" lon="19.574">
        <ele>72.11759</ele>
        <time>2020-10-01T12:15:17.065Z</time>
      </trkpt>
      <trkpt lat="63.57696" lon="19.57371">
        <ele>72.31979</ele>
        <time>2020-10-01T12:15:20.063Z</time>
      </trkpt>
      <trkpt lat="63.57698" lon="19.57343">
        <ele>72.495528</ele>
        <time>2020-10-01T12:15:23.074Z</time>
      </trkpt>
      <trkpt lat="63.577" lon="19.57316">
        <ele>72.673583</ele>
        <time>2020-10-01T12:15:26.063Z</time>
      </trkpt>
      <trkpt lat="63.57702" lon="19.57287">
        <ele>72.858781</ele>
        <time>2020-10-01T12:15:29.071Z</time>
      </trkpt>
      <trkpt lat="63.57705" lon="19.57257">
        <ele>73.048545</ele>
        <time>2020-10-01T12:15:32.118Z</time>
      </trkpt>
      <trkpt lat="63.57707" lon="19.57237">
        <ele>73.177179</ele>
        <time>2020-10-01T12:15:34.074Z</time>
      </trkpt>
      <trkpt lat="63.57709" lon="19.57216">
        <ele>73.314283</ele>
        <time>2020-10-01T12:15:36.071Z</time>
      </trkpt>
      <trkpt lat="63.5771" lon="19.57194">
        <ele>73.453248</ele>
        <time>2020-10-01T12:15:38.103Z</time>
      </trkpt>
      <trkpt lat="63.57712" lon="19.57173">
        <ele>73.589882</ele>
        <time>2020-10-01T12:15:40.076Z</time>
      </trkpt>
      <trkpt lat="63.57714" lon="19.57152">
        <ele>73.721791</ele>
        <time>2020-10-01T12:15:42.062Z</time>
      </trkpt>
      <trkpt lat="63.57715" lon="19.57131">
        <ele>73.855794</ele>
        <time>2020-10-01T12:15:44.064Z</time>
      </trkpt>
      <trkpt lat="63.57717" lon="19.5711">
        <ele>73.990577</ele>
        <time>2020-10-01T12:15:46.075Z</time>
      </trkpt>
      <trkpt lat="63.57718" lon="19.57087">
        <ele>74.135575</ele>
        <time>2020-10-01T12:15:48.065Z</time>
      </trkpt>
      <trkpt lat="63.57718" lon="19.57063">
        <ele>74.284805</ele>
        <time>2020-10-01T12:15:50.078Z</time>
      </trkpt>
      <trkpt lat="63.57719" lon="19.57042">
        <ele>74.420296</ele>
        <time>2020-10-01T12:15:52.091Z</time>
      </trkpt>
      <trkpt lat="63.5772" lon="19.5702">
        <ele>74.556621</ele>
        <time>2020-10-01T12:15:54.117Z</time>
      </trkpt>
      <trkpt lat="63.5772" lon="19.56999">
        <ele>74.691964</ele>
        <time>2020-10-01T12:15:56.075Z</time>
      </trkpt>
      <trkpt lat="63.5772" lon="19.56977">
        <ele>74.86682</ele>
        <time>2020-10-01T12:15:58.067Z</time>
      </trkpt>
      <trkpt lat="63.5772" lon="19.56956">
        <ele>75.060106</ele>
        <time>2020-10-01T12:16:00.089Z</time>
      </trkpt>
      <trkpt lat="63.57719" lon="19.56934">
        <ele>75.262615</ele>
        <time>2020-10-01T12:16:02.078Z</time>
      </trkpt>
      <trkpt lat="63.5772" lon="19.56911">
        <ele>75.473282</ele>
        <time>2020-10-01T12:16:04.081Z</time>
      </trkpt>
      <trkpt lat="63.57721" lon="19.56889">
        <ele>75.675347</ele>
        <time>2020-10-01T12:16:06.098Z</time>
      </trkpt>
      <trkpt lat="63.57722" lon="19.56868">
        <ele>75.863021</ele>
        <time>2020-10-01T12:16:08.085Z</time>
      </trkpt>
      <trkpt lat="63.57725" lon="19.5684">
        <ele>76.131516</ele>
        <time>2020-10-01T12:16:11.087Z</time>
      </trkpt>
      <trkpt lat="63.5773" lon="19.56815">
        <ele>76.377401</ele>
        <time>2020-10-01T12:16:14.078Z</time>
      </trkpt>
      <trkpt lat="63.57736" lon="19.56796">
        <ele>76.581245</ele>
        <time>2020-10-01T12:16:17.056Z</time>
      </trkpt>
      <trkpt lat="63.57743" lon="19.56777">
        <ele>76.810168</ele>
        <time>2020-10-01T12:16:21.067Z</time>
      </trkpt>
      <trkpt lat="63.5775" lon="19.56761">
        <ele>77.021076</ele>
        <time>2020-10-01T12:16:25.068Z</time>
      </trkpt>
      <trkpt lat="63.57759" lon="19.56746">
        <ele>77.249479</ele>
        <time>2020-10-01T12:16:30.136Z</time>
      </trkpt>
      <trkpt lat="63.57767" lon="19.56733">
        <ele>77.452623</ele>
        <time>2020-10-01T12:16:34.080Z</time>
      </trkpt>
      <trkpt lat="63.57776" lon="19.56718">
        <ele>77.682111</ele>
        <time>2020-10-01T12:16:38.066Z</time>
      </trkpt>
      <trkpt lat="63.57784" lon="19.56705">
        <ele>77.87332</ele>
        <time>2020-10-01T12:16:41.090Z</time>
      </trkpt>
      <trkpt lat="63.57791" lon="19.5669">
        <ele>78.069075</ele>
        <time>2020-10-01T12:16:44.081Z</time>
      </trkpt>
      <trkpt lat="63.57796" lon="19.56674">
        <ele>78.257414</ele>
        <time>2020-10-01T12:16:47.074Z</time>
      </trkpt>
      <trkpt lat="63.57802" lon="19.56655">
        <ele>78.340893</ele>
        <time>2020-10-01T12:16:50.102Z</time>
      </trkpt>
      <trkpt lat="63.57808" lon="19.56635">
        <ele>78.096075</ele>
        <time>2020-10-01T12:16:53.106Z</time>
      </trkpt>
      <trkpt lat="63.57814" lon="19.56616">
        <ele>77.846483</ele>
        <time>2020-10-01T12:16:56.105Z</time>
      </trkpt>
      <trkpt lat="63.5782" lon="19.56597">
        <ele>77.599163</ele>
        <time>2020-10-01T12:16:59.092Z</time>
      </trkpt>
      <trkpt lat="63.57827" lon="19.56581">
        <ele>77.372206</ele>
        <time>2020-10-01T12:17:02.061Z</time>
      </trkpt>
      <trkpt lat="63.57834" lon="19.56565">
        <ele>77.127627</ele>
        <time>2020-10-01T12:17:05.082Z</time>
      </trkpt>
      <trkpt lat="63.57843" lon="19.56552">
        <ele>76.889119</ele>
        <time>2020-10-01T12:17:08.111Z</time>
      </trkpt>
      <trkpt lat="63.57853" lon="19.56543">
        <ele>76.630272</ele>
        <time>2020-10-01T12:17:11.101Z</time>
      </trkpt>
      <trkpt lat="63.57862" lon="19.56536">
        <ele>76.396719</ele>
        <time>2020-10-01T12:17:14.064Z</time>
      </trkpt>
      <trkpt lat="63.57873" lon="19.56528">
        <ele>76.146209</ele>
        <time>2020-10-01T12:17:17.074Z</time>
      </trkpt>
      <trkpt lat="63.57882" lon="19.5652">
        <ele>75.903115</ele>
        <time>2020-10-01T12:17:20.079Z</time>
      </trkpt>
      <trkpt lat="63.57893" lon="19.56511">
        <ele>75.626319</ele>
        <time>2020-10-01T12:17:23.088Z</time>
      </trkpt>
      <trkpt lat="63.57902" lon="19.56504">
        <ele>75.415808</ele>
        <time>2020-10-01T12:17:25.077Z</time>
      </trkpt>
      <trkpt lat="63.5791" lon="19.56497">
        <ele>75.205201</ele>
        <time>2020-10-01T12:17:27.070Z</time>
      </trkpt>
      <trkpt lat="63.57922" lon="19.56488">
        <ele>74.916658</ele>
        <time>2020-10-01T12:17:30.052Z</time>
      </trkpt>
      <trkpt lat="63.57933" lon="19.56477">
        <ele>74.632522</ele>
        <time>2020-10-01T12:17:33.055Z</time>
      </trkpt>
      <trkpt lat="63.57944" lon="19.56462">
        <ele>74.32219</ele>
        <time>2020-10-01T12:17:36.065Z</time>
      </trkpt>
      <trkpt lat="63.57952" lon="19.56449">
        <ele>73.996947</ele>
        <time>2020-10-01T12:17:38.119Z</time>
      </trkpt>
      <trkpt lat="63.5796" lon="19.56436">
        <ele>73.567176</ele>
        <time>2020-10-01T12:17:40.126Z</time>
      </trkpt>
      <trkpt lat="63.57966" lon="19.56419">
        <ele>73.117998</ele>
        <time>2020-10-01T12:17:42.070Z</time>
      </trkpt>
      <trkpt lat="63.57973" lon="19.56397">
        <ele>72.562543</ele>
        <time>2020-10-01T12:17:44.056Z</time>
      </trkpt>
      <trkpt lat="63.57981" lon="19.56373">
        <ele>71.943723</ele>
        <time>2020-10-01T12:17:46.060Z</time>
      </trkpt>
      <trkpt lat="63.57989" lon="19.56347">
        <ele>71.299459</ele>
        <time>2020-10-01T12:17:48.061Z</time>
      </trkpt>
      <trkpt lat="63.57997" lon="19.5632">
        <ele>70.626917</ele>
        <time>2020-10-01T12:17:50.073Z</time>
      </trkpt>
      <trkpt lat="63.58006" lon="19.56295">
        <ele>69.986229</ele>
        <time>2020-10-01T12:17:52.106Z</time>
      </trkpt>
      <trkpt lat="63.58014" lon="19.56271">
        <ele>69.363258</ele>
        <time>2020-10-01T12:17:54.087Z</time>
      </trkpt>
      <trkpt lat="63.58023" lon="19.56251">
        <ele>68.796775</ele>
        <time>2020-10-01T12:17:56.078Z</time>
      </trkpt>
      <trkpt lat="63.58031" lon="19.56232">
        <ele>68.247996</ele>
        <time>2020-10-01T12:17:58.065Z</time>
      </trkpt>
      <trkpt lat="63.5804" lon="19.56213">
        <ele>67.692721</ele>
        <time>2020-10-01T12:18:00.077Z</time>
      </trkpt>
      <trkpt lat="63.58048" lon="19.56195">
        <ele>67.160164</ele>
        <time>2020-10-01T12:18:02.068Z</time>
      </trkpt>
      <trkpt lat="63.58056" lon="19.5618">
        <ele>66.703871</ele>
        <time>2020-10-01T12:18:04.087Z</time>
      </trkpt>
      <trkpt lat="63.58062" lon="19.56166">
        <ele>66.274201</ele>
        <time>2020-10-01T12:18:06.072Z</time>
      </trkpt>
      <trkpt lat="63.58069" lon="19.56152">
        <ele>65.96295</ele>
        <time>2020-10-01T12:18:08.088Z</time>
      </trkpt>
      <trkpt lat="63.58078" lon="19.56132">
        <ele>66.2154</ele>
        <time>2020-10-01T12:18:11.096Z</time>
      </trkpt>
      <trkpt lat="63.58087" lon="19.56112">
        <ele>66.456594</ele>
        <time>2020-10-01T12:18:14.081Z</time>
      </trkpt>
      <trkpt lat="63.58095" lon="19.5609">
        <ele>66.711903</ele>
        <time>2020-10-01T12:18:17.061Z</time>
      </trkpt>
      <trkpt lat="63.58103" lon="19.56066">
        <ele>66.978592</ele>
        <time>2020-10-01T12:18:20.074Z</time>
      </trkpt>
      <trkpt lat="63.58108" lon="19.56049">
        <ele>67.165344</ele>
        <time>2020-10-01T12:18:22.062Z</time>
      </trkpt>
      <trkpt lat="63.58113" lon="19.56031">
        <ele>67.352487</ele>
        <time>2020-10-01T12:18:24.098Z</time>
      </trkpt>
      <trkpt lat="63.58117" lon="19.56011">
        <ele>67.551402</ele>
        <time>2020-10-01T12:18:26.091Z</time>
      </trkpt>
      <trkpt lat="63.58122" lon="19.5599">
        <ele>67.77334</ele>
        <time>2020-10-01T12:18:28.069Z</time>
      </trkpt>
      <trkpt lat="63.58127" lon="19.55967">
        <ele>67.993215</ele>
        <time>2020-10-01T12:18:30.055Z</time>
      </trkpt>
      <trkpt lat="63.58132" lon="19.55945">
        <ele>68.208053</ele>
        <time>2020-10-01T12:18:32.100Z</time>
      </trkpt>
      <trkpt lat="63.58135" lon="19.55925">
        <ele>68.407501</ele>
        <time>2020-10-01T12:18:34.081Z</time>
      </trkpt>
      <trkpt lat="63.58139" lon="19.55904">
        <ele>68.602146</ele>
        <time>2020-10-01T12:18:36.092Z</time>
      </trkpt>
      <trkpt lat="63.58143" lon="19.55885">
        <ele>68.790842</ele>
        <time>2020-10-01T12:18:38.069Z</time>
      </trkpt>
      <trkpt lat="63.58147" lon="19.55867">
        <ele>68.971144</ele>
        <time>2020-10-01T12:18:40.066Z</time>
      </trkpt>
      <trkpt lat="63.58152" lon="19.5585">
        <ele>69.155433</ele>
        <time>2020-10-01T12:18:42.078Z</time>
      </trkpt>
      <trkpt lat="63.58158" lon="19.55823">
        <ele>69.423443</ele>
        <time>2020-10-01T12:18:45.070Z</time>
      </trkpt>
      <trkpt lat="63.58164" lon="19.55799">
        <ele>69.479689</ele>
        <time>2020-10-01T12:18:48.071Z</time>
      </trkpt>
      <trkpt lat="63.58172" lon="19.55774">
        <ele>69.36147</ele>
        <time>2020-10-01T12:18:51.108Z</time>
      </trkpt>
      <trkpt lat="63.58179" lon="19.55751">
        <ele>69.242966</ele>
        <time>2020-10-01T12:18:54.084Z</time>
      </trkpt>
      <trkpt lat="63.58187" lon="19.55726">
        <ele>69.123394</ele>
        <time>2020-10-01T12:18:57.091Z</time>
      </trkpt>
      <trkpt lat="63.58192" lon="19.55709">
        <ele>69.038609</ele>
        <time>2020-10-01T12:18:59.075Z</time>
      </trkpt>
      <trkpt lat="63.582" lon="19.55685">
        <ele>68.916851</ele>
        <time>2020-10-01T12:19:02.066Z</time>
      </trkpt>
      <trkpt lat="63.58205" lon="19.55666">
        <ele>68.828098</ele>
        <time>2020-10-01T12:19:04.063Z</time>
      </trkpt>
      <trkpt lat="63.58211" lon="19.55648">
        <ele>68.738166</ele>
        <time>2020-10-01T12:19:06.069Z</time>
      </trkpt>
      <trkpt lat="63.58216" lon="19.55629">
        <ele>68.647018</ele>
        <time>2020-10-01T12:19:08.065Z</time>
      </trkpt>
      <trkpt lat="63.58221" lon="19.5561">
        <ele>68.557037</ele>
        <time>2020-10-01T12:19:10.073Z</time>
      </trkpt>
      <trkpt lat="63.58226" lon="19.55591">
        <ele>68.466712</ele>
        <time>2020-10-01T12:19:12.083Z</time>
      </trkpt>
      <trkpt lat="63.58232" lon="19.55572">
        <ele>68.376934</ele>
        <time>2020-10-01T12:19:14.088Z</time>
      </trkpt>
      <trkpt lat="63.58237" lon="19.55553">
        <ele>68.28566</ele>
        <time>2020-10-01T12:19:16.132Z</time>
      </trkpt>
      <trkpt lat="63.58242" lon="19.55536">
        <ele>68.198596</ele>
        <time>2020-10-01T12:19:18.064Z</time>
      </trkpt>
      <trkpt lat="63.58247" lon="19.55517">
        <ele>68.112805</ele>
        <time>2020-10-01T12:19:20.067Z</time>
      </trkpt>
      <trkpt lat="63.58252" lon="19.55499">
        <ele>68.028578</ele>
        <time>2020-10-01T12:19:22.062Z</time>
      </trkpt>
      <trkpt lat="63.58257" lon="19.55472">
        <ele>67.906117</ele>
        <time>2020-10-01T12:19:25.094Z</time>
      </trkpt>
      <trkpt lat="63.58261" lon="19.55452">
        <ele>67.814652</ele>
        <time>2020-10-01T12:19:27.079Z</time>
      </trkpt>
      <trkpt lat="63.58264" lon="19.55431">
        <ele>67.722291</ele>
        <time>2020-10-01T12:19:29.077Z</time>
      </trkpt>
      <trkpt lat="63.58266" lon="19.55411">
        <ele>67.63295</ele>
        <time>2020-10-01T12:19:31.118Z</time>
      </trkpt>
      <trkpt lat="63.5827" lon="19.55384">
        <ele>67.51171</ele>
        <time>2020-10-01T12:19:34.061Z</time>
      </trkpt>
      <trkpt lat="63.58275" lon="19.55358">
        <ele>67.390731</ele>
        <time>2020-10-01T12:19:37.058Z</time>
      </trkpt>
      <trkpt lat="63.58279" lon="19.55331">
        <ele>67.267818</ele>
        <time>2020-10-01T12:19:40.072Z</time>
      </trkpt>
      <trkpt lat="63.58283" lon="19.55302">
        <ele>67.141731</ele>
        <time>2020-10-01T12:19:43.084Z</time>
      </trkpt>
      <trkpt lat="63.58286" lon="19.55274">
        <ele>67.014003</ele>
        <time>2020-10-01T12:19:46.073Z</time>
      </trkpt>
      <trkpt lat="63.58289" lon="19.55253">
        <ele>66.922564</ele>
        <time>2020-10-01T12:19:48.085Z</time>
      </trkpt>
      <trkpt lat="63.58292" lon="19.55233">
        <ele>66.833347</ele>
        <time>2020-10-01T12:19:50.063Z</time>
      </trkpt>
      <trkpt lat="63.58294" lon="19.55213">
        <ele>66.745351</ele>
        <time>2020-10-01T12:19:52.079Z</time>
      </trkpt>
      <trkpt lat="63.58298" lon="19.55194">
        <ele>66.658845</ele>
        <time>2020-10-01T12:19:54.072Z</time>
      </trkpt>
      <trkpt lat="63.58301" lon="19.55175">
        <ele>66.572003</ele>
        <time>2020-10-01T12:19:56.095Z</time>
      </trkpt>
      <trkpt lat="63.58305" lon="19.55147">
        <ele>66.441839</ele>
        <time>2020-10-01T12:19:59.088Z</time>
      </trkpt>
      <trkpt lat="63.58308" lon="19.55127">
        <ele>66.355064</ele>
        <time>2020-10-01T12:20:01.085Z</time>
      </trkpt>
      <trkpt lat="63.58312" lon="19.55099">
        <ele>66.226505</ele>
        <time>2020-10-01T12:20:04.088Z</time>
      </trkpt>
      <trkpt lat="63.58316" lon="19.5507">
        <ele>66.392214</ele>
        <time>2020-10-01T12:20:07.063Z</time>
      </trkpt>
      <trkpt lat="63.58319" lon="19.55043">
        <ele>66.742533</ele>
        <time>2020-10-01T12:20:10.105Z</time>
      </trkpt>
      <trkpt lat="63.58323" lon="19.55014">
        <ele>67.098646</ele>
        <time>2020-10-01T12:20:13.063Z</time>
      </trkpt>
      <trkpt lat="63.58327" lon="19.54985">
        <ele>67.470549</ele>
        <time>2020-10-01T12:20:16.086Z</time>
      </trkpt>
      <trkpt lat="63.58329" lon="19.54963">
        <ele>67.741488</ele>
        <time>2020-10-01T12:20:18.070Z</time>
      </trkpt>
      <trkpt lat="63.5833" lon="19.54941">
        <ele>68.006064</ele>
        <time>2020-10-01T12:20:20.096Z</time>
      </trkpt>
      <trkpt lat="63.58331" lon="19.54919">
        <ele>68.265041</ele>
        <time>2020-10-01T12:20:22.089Z</time>
      </trkpt>
      <trkpt lat="63.58331" lon="19.54899">
        <ele>68.509979</ele>
        <time>2020-10-01T12:20:24.081Z</time>
      </trkpt>
      <trkpt lat="63.58331" lon="19.54878">
        <ele>68.758414</ele>
        <time>2020-10-01T12:20:26.068Z</time>
      </trkpt>
      <trkpt lat="63.5833" lon="19.54857">
        <ele>69.016189</ele>
        <time>2020-10-01T12:20:28.079Z</time>
      </trkpt>
      <trkpt lat="63.58329" lon="19.54836">
        <ele>69.277171</ele>
        <time>2020-10-01T12:20:30.071Z</time>
      </trkpt>
      <trkpt lat="63.58328" lon="19.54814">
        <ele>69.541748</ele>
        <time>2020-10-01T12:20:32.084Z</time>
      </trkpt>
      <trkpt lat="63.58327" lon="19.54791">
        <ele>69.820144</ele>
        <time>2020-10-01T12:20:34.057Z</time>
      </trkpt>
      <trkpt lat="63.58325" lon="19.54767">
        <ele>70.108456</ele>
        <time>2020-10-01T12:20:36.069Z</time>
      </trkpt>
      <trkpt lat="63.58323" lon="19.54744">
        <ele>70.388701</ele>
        <time>2020-10-01T12:20:38.064Z</time>
      </trkpt>
      <trkpt lat="63.58321" lon="19.54721">
        <ele>70.685408</ele>
        <time>2020-10-01T12:20:40.062Z</time>
      </trkpt>
      <trkpt lat="63.58318" lon="19.54696">
        <ele>70.988808</ele>
        <time>2020-10-01T12:20:42.081Z</time>
      </trkpt>
      <trkpt lat="63.58315" lon="19.54672">
        <ele>71.116386</ele>
        <time>2020-10-01T12:20:44.064Z</time>
      </trkpt>
      <trkpt lat="63.58312" lon="19.54648">
        <ele>71.195283</ele>
        <time>2020-10-01T12:20:46.071Z</time>
      </trkpt>
      <trkpt lat="63.58309" lon="19.54625">
        <ele>71.273251</ele>
        <time>2020-10-01T12:20:48.064Z</time>
      </trkpt>
      <trkpt lat="63.58306" lon="19.54602">
        <ele>71.346894</ele>
        <time>2020-10-01T12:20:50.080Z</time>
      </trkpt>
      <trkpt lat="63.58304" lon="19.54581">
        <ele>71.418223</ele>
        <time>2020-10-01T12:20:52.068Z</time>
      </trkpt>
      <trkpt lat="63.58302" lon="19.54559">
        <ele>71.489416</ele>
        <time>2020-10-01T12:20:54.097Z</time>
      </trkpt>
      <trkpt lat="63.58301" lon="19.54538">
        <ele>71.558454</ele>
        <time>2020-10-01T12:20:56.066Z</time>
      </trkpt>
      <trkpt lat="63.58299" lon="19.54516">
        <ele>71.62839</ele>
        <time>2020-10-01T12:20:58.055Z</time>
      </trkpt>
      <trkpt lat="63.58297" lon="19.54495">
        <ele>71.69869</ele>
        <time>2020-10-01T12:21:00.076Z</time>
      </trkpt>
      <trkpt lat="63.58296" lon="19.54472">
        <ele>71.771615</ele>
        <time>2020-10-01T12:21:02.065Z</time>
      </trkpt>
      <trkpt lat="63.58296" lon="19.54451">
        <ele>71.839802</ele>
        <time>2020-10-01T12:21:04.065Z</time>
      </trkpt>
      <trkpt lat="63.58295" lon="19.54429">
        <ele>71.909267</ele>
        <time>2020-10-01T12:21:06.077Z</time>
      </trkpt>
      <trkpt lat="63.58294" lon="19.54408">
        <ele>71.979185</ele>
        <time>2020-10-01T12:21:08.069Z</time>
      </trkpt>
      <trkpt lat="63.58292" lon="19.54385">
        <ele>72.051582</ele>
        <time>2020-10-01T12:21:10.090Z</time>
      </trkpt>
      <trkpt lat="63.58291" lon="19.54363">
        <ele>72.124179</ele>
        <time>2020-10-01T12:21:12.099Z</time>
      </trkpt>
      <trkpt lat="63.5829" lon="19.54341">
        <ele>72.195306</ele>
        <time>2020-10-01T12:21:14.062Z</time>
      </trkpt>
      <trkpt lat="63.58288" lon="19.54319">
        <ele>72.266319</ele>
        <time>2020-10-01T12:21:16.070Z</time>
      </trkpt>
      <trkpt lat="63.58286" lon="19.54298">
        <ele>72.335926</ele>
        <time>2020-10-01T12:21:18.081Z</time>
      </trkpt>
      <trkpt lat="63.58283" lon="19.54277">
        <ele>72.348364</ele>
        <time>2020-10-01T12:21:20.069Z</time>
      </trkpt>
      <trkpt lat="63.5828" lon="19.54256">
        <ele>72.348842</ele>
        <time>2020-10-01T12:21:22.076Z</time>
      </trkpt>
      <trkpt lat="63.58276" lon="19.54236">
        <ele>72.3493</ele>
        <time>2020-10-01T12:21:24.086Z</time>
      </trkpt>
      <trkpt lat="63.58272" lon="19.54217">
        <ele>72.349765</ele>
        <time>2020-10-01T12:21:26.074Z</time>
      </trkpt>
      <trkpt lat="63.58267" lon="19.54198">
        <ele>72.35024</ele>
        <time>2020-10-01T12:21:28.080Z</time>
      </trkpt>
      <trkpt lat="63.58261" lon="19.54178">
        <ele>72.350742</ele>
        <time>2020-10-01T12:21:30.064Z</time>
      </trkpt>
      <trkpt lat="63.58254" lon="19.54163">
        <ele>72.351238</ele>
        <time>2020-10-01T12:21:32.093Z</time>
      </trkpt>
      <trkpt lat="63.58246" lon="19.5415">
        <ele>72.351693</ele>
        <time>2020-10-01T12:21:34.056Z</time>
      </trkpt>
      <trkpt lat="63.58237" lon="19.5414">
        <ele>72.352184</ele>
        <time>2020-10-01T12:21:36.068Z</time>
      </trkpt>
      <trkpt lat="63.58228" lon="19.54132">
        <ele>72.352637</ele>
        <time>2020-10-01T12:21:38.073Z</time>
      </trkpt>
      <trkpt lat="63.58217" lon="19.54124">
        <ele>72.353223</ele>
        <time>2020-10-01T12:21:41.082Z</time>
      </trkpt>
      <trkpt lat="63.58208" lon="19.54119">
        <ele>72.353657</ele>
        <time>2020-10-01T12:21:43.060Z</time>
      </trkpt>
      <trkpt lat="63.58199" lon="19.54113">
        <ele>72.354139</ele>
        <time>2020-10-01T12:21:45.060Z</time>
      </trkpt>
      <trkpt lat="63.58189" lon="19.54103">
        <ele>72.354663</ele>
        <time>2020-10-01T12:21:47.066Z</time>
      </trkpt>
      <trkpt lat="63.58179" lon="19.54092">
        <ele>72.355191</ele>
        <time>2020-10-01T12:21:49.122Z</time>
      </trkpt>
      <trkpt lat="63.58168" lon="19.54077">
        <ele>72.355787</ele>
        <time>2020-10-01T12:21:51.101Z</time>
      </trkpt>
      <trkpt lat="63.58158" lon="19.54062">
        <ele>72.356365</ele>
        <time>2020-10-01T12:21:53.082Z</time>
      </trkpt>
      <trkpt lat="63.58149" lon="19.54046">
        <ele>72.280758</ele>
        <time>2020-10-01T12:21:55.095Z</time>
      </trkpt>
      <trkpt lat="63.5814" lon="19.54032">
        <ele>72.130989</ele>
        <time>2020-10-01T12:21:57.076Z</time>
      </trkpt>
      <trkpt lat="63.58132" lon="19.5402">
        <ele>71.996659</ele>
        <time>2020-10-01T12:21:59.062Z</time>
      </trkpt>
      <trkpt lat="63.58124" lon="19.54007">
        <ele>71.860425</ele>
        <time>2020-10-01T12:22:01.067Z</time>
      </trkpt>
      <trkpt lat="63.58117" lon="19.53995">
        <ele>71.734557</ele>
        <time>2020-10-01T12:22:03.078Z</time>
      </trkpt>
      <trkpt lat="63.58107" lon="19.53977">
        <ele>71.57109</ele>
        <time>2020-10-01T12:22:06.072Z</time>
      </trkpt>
      <trkpt lat="63.58098" lon="19.53961">
        <ele>71.409188</ele>
        <time>2020-10-01T12:22:09.058Z</time>
      </trkpt>
      <trkpt lat="63.5809" lon="19.53942">
        <ele>71.245345</ele>
        <time>2020-10-01T12:22:12.062Z</time>
      </trkpt>
      <trkpt lat="63.58079" lon="19.53921">
        <ele>71.054802</ele>
        <time>2020-10-01T12:22:15.072Z</time>
      </trkpt>
      <trkpt lat="63.58072" lon="19.53902">
        <ele>70.899806</ele>
        <time>2020-10-01T12:22:17.075Z</time>
      </trkpt>
      <trkpt lat="63.58064" lon="19.53884">
        <ele>70.750578</ele>
        <time>2020-10-01T12:22:19.100Z</time>
      </trkpt>
      <trkpt lat="63.58057" lon="19.5387">
        <ele>70.61266</ele>
        <time>2020-10-01T12:22:21.068Z</time>
      </trkpt>
      <trkpt lat="63.58049" lon="19.53855">
        <ele>70.469771</ele>
        <time>2020-10-01T12:22:23.070Z</time>
      </trkpt>
      <trkpt lat="63.58042" lon="19.5384">
        <ele>70.336543</ele>
        <time>2020-10-01T12:22:25.074Z</time>
      </trkpt>
      <trkpt lat="63.58034" lon="19.53826">
        <ele>70.198563</ele>
        <time>2020-10-01T12:22:27.098Z</time>
      </trkpt>
      <trkpt lat="63.58025" lon="19.53812">
        <ele>70.054342</ele>
        <time>2020-10-01T12:22:29.078Z</time>
      </trkpt>
      <trkpt lat="63.58017" lon="19.538">
        <ele>69.916347</ele>
        <time>2020-10-01T12:22:31.084Z</time>
      </trkpt>
      <trkpt lat="63.58009" lon="19.53787">
        <ele>69.763153</ele>
        <time>2020-10-01T12:22:33.117Z</time>
      </trkpt>
      <trkpt lat="63.58001" lon="19.53774">
        <ele>69.609176</ele>
        <time>2020-10-01T12:22:35.084Z</time>
      </trkpt>
      <trkpt lat="63.57994" lon="19.53762">
        <ele>69.460348</ele>
        <time>2020-10-01T12:22:37.087Z</time>
      </trkpt>
      <trkpt lat="63.57986" lon="19.53748">
        <ele>69.304407</ele>
        <time>2020-10-01T12:22:39.074Z</time>
      </trkpt>
      <trkpt lat="63.57979" lon="19.53729">
        <ele>69.130206</ele>
        <time>2020-10-01T12:22:41.092Z</time>
      </trkpt>
      <trkpt lat="63.57973" lon="19.53709">
        <ele>68.954491</ele>
        <time>2020-10-01T12:22:43.076Z</time>
      </trkpt>
      <trkpt lat="63.57969" lon="19.5369">
        <ele>68.796667</ele>
        <time>2020-10-01T12:22:45.058Z</time>
      </trkpt>
      <trkpt lat="63.57964" lon="19.53671">
        <ele>68.644481</ele>
        <time>2020-10-01T12:22:47.082Z</time>
      </trkpt>
      <trkpt lat="63.5796" lon="19.53642">
        <ele>68.432349</ele>
        <time>2020-10-01T12:22:50.091Z</time>
      </trkpt>
      <trkpt lat="63.57958" lon="19.53614">
        <ele>68.224417</ele>
        <time>2020-10-01T12:22:53.087Z</time>
      </trkpt>
      <trkpt lat="63.57957" lon="19.53586">
        <ele>68.026827</ele>
        <time>2020-10-01T12:22:56.066Z</time>
      </trkpt>
      <trkpt lat="63.57957" lon="19.53557">
        <ele>67.816425</ele>
        <time>2020-10-01T12:22:59.103Z</time>
      </trkpt>
      <trkpt lat="63.57957" lon="19.53528">
        <ele>67.606963</ele>
        <time>2020-10-01T12:23:02.080Z</time>
      </trkpt>
      <trkpt lat="63.57956" lon="19.53501">
        <ele>67.410892</ele>
        <time>2020-10-01T12:23:05.060Z</time>
      </trkpt>
      <trkpt lat="63.57955" lon="19.53473">
        <ele>67.215237</ele>
        <time>2020-10-01T12:23:08.071Z</time>
      </trkpt>
      <trkpt lat="63.57954" lon="19.53448">
        <ele>67.035317</ele>
        <time>2020-10-01T12:23:11.057Z</time>
      </trkpt>
      <trkpt lat="63.57955" lon="19.53424">
        <ele>66.895856</ele>
        <time>2020-10-01T12:23:14.068Z</time>
      </trkpt>
      <trkpt lat="63.57955" lon="19.534">
        <ele>66.77117</ele>
        <time>2020-10-01T12:23:17.078Z</time>
      </trkpt>
      <trkpt lat="63.57956" lon="19.53378">
        <ele>66.653054</ele>
        <time>2020-10-01T12:23:20.067Z</time>
      </trkpt>
      <trkpt lat="63.57957" lon="19.53355">
        <ele>66.531321</ele>
        <time>2020-10-01T12:23:23.064Z</time>
      </trkpt>
      <trkpt lat="63.57957" lon="19.53331">
        <ele>66.40712</ele>
        <time>2020-10-01T12:23:26.079Z</time>
      </trkpt>
      <trkpt lat="63.57957" lon="19.53307">
        <ele>66.282484</ele>
        <time>2020-10-01T12:23:29.062Z</time>
      </trkpt>
      <trkpt lat="63.57958" lon="19.53278">
        <ele>66.131027</ele>
        <time>2020-10-01T12:23:32.076Z</time>
      </trkpt>
      <trkpt lat="63.57959" lon="19.53258">
        <ele>66.022509</ele>
        <time>2020-10-01T12:23:34.065Z</time>
      </trkpt>
      <trkpt lat="63.57962" lon="19.53238">
        <ele>65.913744</ele>
        <time>2020-10-01T12:23:36.090Z</time>
      </trkpt>
      <trkpt lat="63.5797" lon="19.53218">
        <ele>65.773608</ele>
        <time>2020-10-01T12:23:39.087Z</time>
      </trkpt>
      <trkpt lat="63.57973" lon="19.53198">
        <ele>65.665559</ele>
        <time>2020-10-01T12:23:42.067Z</time>
      </trkpt>
      <trkpt lat="63.57966" lon="19.53176">
        <ele>65.527034</ele>
        <time>2020-10-01T12:23:45.122Z</time>
      </trkpt>
      <trkpt lat="63.5796" lon="19.5316">
        <ele>65.411845</ele>
        <time>2020-10-01T12:23:47.066Z</time>
      </trkpt>
      <trkpt lat="63.57953" lon="19.53145">
        <ele>65.294711</ele>
        <time>2020-10-01T12:23:49.066Z</time>
      </trkpt>
      <trkpt lat="63.57946" lon="19.53128">
        <ele>65.174982</ele>
        <time>2020-10-01T12:23:51.108Z</time>
      </trkpt>
      <trkpt lat="63.57938" lon="19.53109">
        <ele>65.045876</ele>
        <time>2020-10-01T12:23:53.056Z</time>
      </trkpt>
      <trkpt lat="63.57931" lon="19.5309">
        <ele>64.913249</ele>
        <time>2020-10-01T12:23:55.072Z</time>
      </trkpt>
      <trkpt lat="63.57923" lon="19.53071">
        <ele>64.505719</ele>
        <time>2020-10-01T12:23:57.060Z</time>
      </trkpt>
      <trkpt lat="63.57914" lon="19.53052">
        <ele>63.991185</ele>
        <time>2020-10-01T12:23:59.080Z</time>
      </trkpt>
      <trkpt lat="63.57905" lon="19.53033">
        <ele>63.459543</ele>
        <time>2020-10-01T12:24:01.064Z</time>
      </trkpt>
      <trkpt lat="63.57896" lon="19.53013">
        <ele>62.924321</ele>
        <time>2020-10-01T12:24:03.051Z</time>
      </trkpt>
      <trkpt lat="63.57887" lon="19.52992">
        <ele>62.367638</ele>
        <time>2020-10-01T12:24:05.084Z</time>
      </trkpt>
      <trkpt lat="63.57877" lon="19.52972">
        <ele>61.802576</ele>
        <time>2020-10-01T12:24:07.104Z</time>
      </trkpt>
      <trkpt lat="63.57867" lon="19.52951">
        <ele>61.227065</ele>
        <time>2020-10-01T12:24:09.051Z</time>
      </trkpt>
      <trkpt lat="63.57857" lon="19.52929">
        <ele>60.637881</ele>
        <time>2020-10-01T12:24:11.090Z</time>
      </trkpt>
      <trkpt lat="63.57847" lon="19.52906">
        <ele>60.027873</ele>
        <time>2020-10-01T12:24:13.104Z</time>
      </trkpt>
      <trkpt lat="63.57837" lon="19.52882">
        <ele>59.391236</ele>
        <time>2020-10-01T12:24:15.100Z</time>
      </trkpt>
      <trkpt lat="63.57827" lon="19.52857">
        <ele>58.746159</ele>
        <time>2020-10-01T12:24:17.075Z</time>
      </trkpt>
      <trkpt lat="63.57815" lon="19.52832">
        <ele>58.057896</ele>
        <time>2020-10-01T12:24:19.065Z</time>
      </trkpt>
      <trkpt lat="63.57803" lon="19.52806">
        <ele>57.352058</ele>
        <time>2020-10-01T12:24:21.059Z</time>
      </trkpt>
      <trkpt lat="63.57792" lon="19.52781">
        <ele>57.082846</ele>
        <time>2020-10-01T12:24:23.067Z</time>
      </trkpt>
      <trkpt lat="63.57781" lon="19.52759">
        <ele>56.938042</ele>
        <time>2020-10-01T12:24:25.049Z</time>
      </trkpt>
      <trkpt lat="63.5777" lon="19.5274">
        <ele>56.811338</ele>
        <time>2020-10-01T12:24:27.060Z</time>
      </trkpt>
      <trkpt lat="63.57761" lon="19.52727">
        <ele>56.700379</ele>
        <time>2020-10-01T12:24:29.088Z</time>
      </trkpt>
      <trkpt lat="63.57751" lon="19.52714">
        <ele>56.589076</ele>
        <time>2020-10-01T12:24:31.061Z</time>
      </trkpt>
      <trkpt lat="63.57742" lon="19.527">
        <ele>56.481043</ele>
        <time>2020-10-01T12:24:33.049Z</time>
      </trkpt>
      <trkpt lat="63.57732" lon="19.52686">
        <ele>56.371287</ele>
        <time>2020-10-01T12:24:35.063Z</time>
      </trkpt>
      <trkpt lat="63.57723" lon="19.52672">
        <ele>56.264304</ele>
        <time>2020-10-01T12:24:37.062Z</time>
      </trkpt>
      <trkpt lat="63.57715" lon="19.5266">
        <ele>56.168707</ele>
        <time>2020-10-01T12:24:39.062Z</time>
      </trkpt>
      <trkpt lat="63.57706" lon="19.52649">
        <ele>56.069933</ele>
        <time>2020-10-01T12:24:41.074Z</time>
      </trkpt>
      <trkpt lat="63.57697" lon="19.52639">
        <ele>55.966077</ele>
        <time>2020-10-01T12:24:43.065Z</time>
      </trkpt>
      <trkpt lat="63.57687" lon="19.52629">
        <ele>55.860444</ele>
        <time>2020-10-01T12:24:45.084Z</time>
      </trkpt>
      <trkpt lat="63.57676" lon="19.52621">
        <ele>55.7524</ele>
        <time>2020-10-01T12:24:47.074Z</time>
      </trkpt>
      <trkpt lat="63.57666" lon="19.52615">
        <ele>55.648709</ele>
        <time>2020-10-01T12:24:49.072Z</time>
      </trkpt>
      <trkpt lat="63.57656" lon="19.52611">
        <ele>55.547494</ele>
        <time>2020-10-01T12:24:51.066Z</time>
      </trkpt>
      <trkpt lat="63.57645" lon="19.52609">
        <ele>55.455265</ele>
        <time>2020-10-01T12:24:53.071Z</time>
      </trkpt>
      <trkpt lat="63.57635" lon="19.52606">
        <ele>55.496549</ele>
        <time>2020-10-01T12:24:55.104Z</time>
      </trkpt>
      <trkpt lat="63.57624" lon="19.52606">
        <ele>55.537976</ele>
        <time>2020-10-01T12:24:57.063Z</time>
      </trkpt>
      <trkpt lat="63.57613" lon="19.52608">
        <ele>55.580364</ele>
        <time>2020-10-01T12:24:59.052Z</time>
      </trkpt>
      <trkpt lat="63.57601" lon="19.5261">
        <ele>55.626566</ele>
        <time>2020-10-01T12:25:01.081Z</time>
      </trkpt>
      <trkpt lat="63.57588" lon="19.52612">
        <ele>55.675813</ele>
        <time>2020-10-01T12:25:03.066Z</time>
      </trkpt>
      <trkpt lat="63.57575" lon="19.52612">
        <ele>55.729253</ele>
        <time>2020-10-01T12:25:05.074Z</time>
      </trkpt>
      <trkpt lat="63.5756" lon="19.52612">
        <ele>55.786554</ele>
        <time>2020-10-01T12:25:07.059Z</time>
      </trkpt>
      <trkpt lat="63.57546" lon="19.52612">
        <ele>55.84192</ele>
        <time>2020-10-01T12:25:09.067Z</time>
      </trkpt>
      <trkpt lat="63.57531" lon="19.52613">
        <ele>55.89655</ele>
        <time>2020-10-01T12:25:11.096Z</time>
      </trkpt>
      <trkpt lat="63.57519" lon="19.52615">
        <ele>55.945006</ele>
        <time>2020-10-01T12:25:13.068Z</time>
      </trkpt>
      <trkpt lat="63.57507" lon="19.52613">
        <ele>55.990766</ele>
        <time>2020-10-01T12:25:15.077Z</time>
      </trkpt>
      <trkpt lat="63.57496" lon="19.52609">
        <ele>56.0347</ele>
        <time>2020-10-01T12:25:17.138Z</time>
      </trkpt>
      <trkpt lat="63.57486" lon="19.52603">
        <ele>56.073893</ele>
        <time>2020-10-01T12:25:19.074Z</time>
      </trkpt>
      <trkpt lat="63.57477" lon="19.52596">
        <ele>56.112234</ele>
        <time>2020-10-01T12:25:21.081Z</time>
      </trkpt>
      <trkpt lat="63.57467" lon="19.52587">
        <ele>56.10641</ele>
        <time>2020-10-01T12:25:23.086Z</time>
      </trkpt>
      <trkpt lat="63.57456" lon="19.52575">
        <ele>55.744785</ele>
        <time>2020-10-01T12:25:25.068Z</time>
      </trkpt>
      <trkpt lat="63.57445" lon="19.52563">
        <ele>55.379248</ele>
        <time>2020-10-01T12:25:27.099Z</time>
      </trkpt>
      <trkpt lat="63.57433" lon="19.52551">
        <ele>54.998408</ele>
        <time>2020-10-01T12:25:29.084Z</time>
      </trkpt>
      <trkpt lat="63.57421" lon="19.52538">
        <ele>54.608591</ele>
        <time>2020-10-01T12:25:31.069Z</time>
      </trkpt>
      <trkpt lat="63.5741" lon="19.52527">
        <ele>54.241011</ele>
        <time>2020-10-01T12:25:33.089Z</time>
      </trkpt>
      <trkpt lat="63.57399" lon="19.52516">
        <ele>53.875564</ele>
        <time>2020-10-01T12:25:35.088Z</time>
      </trkpt>
      <trkpt lat="63.57387" lon="19.52506">
        <ele>53.498004</ele>
        <time>2020-10-01T12:25:37.057Z</time>
      </trkpt>
      <trkpt lat="63.57374" lon="19.52498">
        <ele>53.115883</ele>
        <time>2020-10-01T12:25:39.067Z</time>
      </trkpt>
      <trkpt lat="63.57361" lon="19.5249">
        <ele>52.715191</ele>
        <time>2020-10-01T12:25:41.064Z</time>
      </trkpt>
      <trkpt lat="63.57348" lon="19.52484">
        <ele>52.314737</ele>
        <time>2020-10-01T12:25:43.107Z</time>
      </trkpt>
      <trkpt lat="63.57334" lon="19.52478">
        <ele>51.9061</ele>
        <time>2020-10-01T12:25:45.091Z</time>
      </trkpt>
      <trkpt lat="63.57321" lon="19.52472">
        <ele>51.4972</ele>
        <time>2020-10-01T12:25:47.104Z</time>
      </trkpt>
      <trkpt lat="63.57308" lon="19.52467">
        <ele>51.100389</ele>
        <time>2020-10-01T12:25:49.090Z</time>
      </trkpt>
      <trkpt lat="63.57294" lon="19.52462">
        <ele>50.671986</ele>
        <time>2020-10-01T12:25:51.061Z</time>
      </trkpt>
      <trkpt lat="63.57281" lon="19.52458">
        <ele>50.203196</ele>
        <time>2020-10-01T12:25:53.065Z</time>
      </trkpt>
      <trkpt lat="63.57268" lon="19.52453">
        <ele>49.750855</ele>
        <time>2020-10-01T12:25:55.077Z</time>
      </trkpt>
      <trkpt lat="63.57255" lon="19.52447">
        <ele>49.303403</ele>
        <time>2020-10-01T12:25:57.080Z</time>
      </trkpt>
      <trkpt lat="63.57243" lon="19.52443">
        <ele>48.85182</ele>
        <time>2020-10-01T12:25:59.057Z</time>
      </trkpt>
      <trkpt lat="63.5723" lon="19.52438">
        <ele>48.404394</ele>
        <time>2020-10-01T12:26:01.122Z</time>
      </trkpt>
      <trkpt lat="63.57217" lon="19.52434">
        <ele>47.948874</ele>
        <time>2020-10-01T12:26:03.077Z</time>
      </trkpt>
      <trkpt lat="63.57204" lon="19.5243">
        <ele>47.49948</ele>
        <time>2020-10-01T12:26:05.057Z</time>
      </trkpt>
      <trkpt lat="63.57193" lon="19.52426">
        <ele>47.093595</ele>
        <time>2020-10-01T12:26:07.075Z</time>
      </trkpt>
      <trkpt lat="63.57181" lon="19.52422">
        <ele>46.667968</ele>
        <time>2020-10-01T12:26:09.088Z</time>
      </trkpt>
      <trkpt lat="63.57168" lon="19.52419">
        <ele>46.219945</ele>
        <time>2020-10-01T12:26:11.085Z</time>
      </trkpt>
      <trkpt lat="63.57154" lon="19.52415">
        <ele>45.721761</ele>
        <time>2020-10-01T12:26:13.079Z</time>
      </trkpt>
      <trkpt lat="63.57139" lon="19.5241">
        <ele>45.20604</ele>
        <time>2020-10-01T12:26:15.098Z</time>
      </trkpt>
      <trkpt lat="63.57124" lon="19.52403">
        <ele>44.684111</ele>
        <time>2020-10-01T12:26:17.075Z</time>
      </trkpt>
      <trkpt lat="63.5711" lon="19.52397">
        <ele>44.326952</ele>
        <time>2020-10-01T12:26:19.077Z</time>
      </trkpt>
      <trkpt lat="63.57095" lon="19.52388">
        <ele>44.029118</ele>
        <time>2020-10-01T12:26:21.068Z</time>
      </trkpt>
      <trkpt lat="63.57081" lon="19.52374">
        <ele>43.730943</ele>
        <time>2020-10-01T12:26:23.080Z</time>
      </trkpt>
      <trkpt lat="63.57069" lon="19.52357">
        <ele>43.441528</ele>
        <time>2020-10-01T12:26:25.116Z</time>
      </trkpt>
      <trkpt lat="63.57058" lon="19.52338">
        <ele>43.165908</ele>
        <time>2020-10-01T12:26:27.082Z</time>
      </trkpt>
      <trkpt lat="63.57048" lon="19.52316">
        <ele>42.889522</ele>
        <time>2020-10-01T12:26:29.085Z</time>
      </trkpt>
      <trkpt lat="63.57041" lon="19.52292">
        <ele>42.626836</ele>
        <time>2020-10-01T12:26:31.083Z</time>
      </trkpt>
      <trkpt lat="63.57035" lon="19.52267">
        <ele>42.376703</ele>
        <time>2020-10-01T12:26:33.065Z</time>
      </trkpt>
      <trkpt lat="63.5703" lon="19.52242">
        <ele>42.142148</ele>
        <time>2020-10-01T12:26:35.071Z</time>
      </trkpt>
      <trkpt lat="63.57027" lon="19.52217">
        <ele>41.914119</ele>
        <time>2020-10-01T12:26:37.070Z</time>
      </trkpt>
      <trkpt lat="63.57025" lon="19.52193">
        <ele>41.696153</ele>
        <time>2020-10-01T12:26:39.079Z</time>
      </trkpt>
      <trkpt lat="63.57023" lon="19.5217">
        <ele>41.487335</ele>
        <time>2020-10-01T12:26:41.079Z</time>
      </trkpt>
      <trkpt lat="63.57021" lon="19.52145">
        <ele>41.264887</ele>
        <time>2020-10-01T12:26:43.111Z</time>
      </trkpt>
      <trkpt lat="63.57018" lon="19.5212">
        <ele>41.032924</ele>
        <time>2020-10-01T12:26:45.093Z</time>
      </trkpt>
      <trkpt lat="63.57015" lon="19.52094">
        <ele>40.707398</ele>
        <time>2020-10-01T12:26:47.080Z</time>
      </trkpt>
      <trkpt lat="63.57013" lon="19.52071">
        <ele>40.380579</ele>
        <time>2020-10-01T12:26:49.078Z</time>
      </trkpt>
      <trkpt lat="63.57011" lon="19.52049">
        <ele>40.077128</ele>
        <time>2020-10-01T12:26:51.068Z</time>
      </trkpt>
      <trkpt lat="63.57008" lon="19.52027">
        <ele>39.781462</ele>
        <time>2020-10-01T12:26:53.087Z</time>
      </trkpt>
      <trkpt lat="63.57006" lon="19.52006">
        <ele>39.48232</ele>
        <time>2020-10-01T12:26:55.080Z</time>
      </trkpt>
      <trkpt lat="63.57005" lon="19.51985">
        <ele>39.191936</ele>
        <time>2020-10-01T12:26:57.071Z</time>
      </trkpt>
      <trkpt lat="63.57003" lon="19.51963">
        <ele>38.887817</ele>
        <time>2020-10-01T12:26:59.063Z</time>
      </trkpt>
      <trkpt lat="63.57" lon="19.5194">
        <ele>38.577102</ele>
        <time>2020-10-01T12:27:01.107Z</time>
      </trkpt>
      <trkpt lat="63.56998" lon="19.51917">
        <ele>38.252982</ele>
        <time>2020-10-01T12:27:03.091Z</time>
      </trkpt>
      <trkpt lat="63.56994" lon="19.51892">
        <ele>37.903908</ele>
        <time>2020-10-01T12:27:05.081Z</time>
      </trkpt>
      <trkpt lat="63.56992" lon="19.51863">
        <ele>37.507615</ele>
        <time>2020-10-01T12:27:07.074Z</time>
      </trkpt>
      <trkpt lat="63.5699" lon="19.51833">
        <ele>37.08774</ele>
        <time>2020-10-01T12:27:09.086Z</time>
      </trkpt>
      <trkpt lat="63.56988" lon="19.51802">
        <ele>36.672379</ele>
        <time>2020-10-01T12:27:11.066Z</time>
      </trkpt>
      <trkpt lat="63.56986" lon="19.51772">
        <ele>36.257731</ele>
        <time>2020-10-01T12:27:13.064Z</time>
      </trkpt>
      <trkpt lat="63.56983" lon="19.51742">
        <ele>35.84807</ele>
        <time>2020-10-01T12:27:15.101Z</time>
      </trkpt>
      <trkpt lat="63.5698" lon="19.51713">
        <ele>35.468139</ele>
        <time>2020-10-01T12:27:17.088Z</time>
      </trkpt>
      <trkpt lat="63.56977" lon="19.51684">
        <ele>35.237752</ele>
        <time>2020-10-01T12:27:19.103Z</time>
      </trkpt>
      <trkpt lat="63.56974" lon="19.51655">
        <ele>35.010725</ele>
        <time>2020-10-01T12:27:21.079Z</time>
      </trkpt>
      <trkpt lat="63.56971" lon="19.51628">
        <ele>34.791208</ele>
        <time>2020-10-01T12:27:23.111Z</time>
      </trkpt>
      <trkpt lat="63.56968" lon="19.51601">
        <ele>34.574689</ele>
        <time>2020-10-01T12:27:25.075Z</time>
      </trkpt>
      <trkpt lat="63.56965" lon="19.51574">
        <ele>34.367165</ele>
        <time>2020-10-01T12:27:27.080Z</time>
      </trkpt>
      <trkpt lat="63.56963" lon="19.51548">
        <ele>34.161926</ele>
        <time>2020-10-01T12:27:29.069Z</time>
      </trkpt>
      <trkpt lat="63.56961" lon="19.51522">
        <ele>33.959074</ele>
        <time>2020-10-01T12:27:31.083Z</time>
      </trkpt>
      <trkpt lat="63.56959" lon="19.51497">
        <ele>33.762634</ele>
        <time>2020-10-01T12:27:33.086Z</time>
      </trkpt>
      <trkpt lat="63.56957" lon="19.51473">
        <ele>33.570648</ele>
        <time>2020-10-01T12:27:35.071Z</time>
      </trkpt>
      <trkpt lat="63.56954" lon="19.51448">
        <ele>33.366985</ele>
        <time>2020-10-01T12:27:37.068Z</time>
      </trkpt>
      <trkpt lat="63.56952" lon="19.51421">
        <ele>33.159147</ele>
        <time>2020-10-01T12:27:39.068Z</time>
      </trkpt>
      <trkpt lat="63.56949" lon="19.51395">
        <ele>32.953673</ele>
        <time>2020-10-01T12:27:41.080Z</time>
      </trkpt>
      <trkpt lat="63.56947" lon="19.51369">
        <ele>32.750259</ele>
        <time>2020-10-01T12:27:43.083Z</time>
      </trkpt>
      <trkpt lat="63.56945" lon="19.51343">
        <ele>32.543942</ele>
        <time>2020-10-01T12:27:45.141Z</time>
      </trkpt>
      <trkpt lat="63.56943" lon="19.51317">
        <ele>32.359401</ele>
        <time>2020-10-01T12:27:47.080Z</time>
      </trkpt>
      <trkpt lat="63.56941" lon="19.5129">
        <ele>32.244271</ele>
        <time>2020-10-01T12:27:49.095Z</time>
      </trkpt>
      <trkpt lat="63.56938" lon="19.51264">
        <ele>32.131678</ele>
        <time>2020-10-01T12:27:51.108Z</time>
      </trkpt>
      <trkpt lat="63.56936" lon="19.51238">
        <ele>32.020459</ele>
        <time>2020-10-01T12:27:53.088Z</time>
      </trkpt>
      <trkpt lat="63.56934" lon="19.51214">
        <ele>31.914455</ele>
        <time>2020-10-01T12:27:55.104Z</time>
      </trkpt>
      <trkpt lat="63.56932" lon="19.51189">
        <ele>31.807433</ele>
        <time>2020-10-01T12:27:57.077Z</time>
      </trkpt>
      <trkpt lat="63.56929" lon="19.51164">
        <ele>31.698359</ele>
        <time>2020-10-01T12:27:59.096Z</time>
      </trkpt>
      <trkpt lat="63.56926" lon="19.51138">
        <ele>31.587212</ele>
        <time>2020-10-01T12:28:01.063Z</time>
      </trkpt>
      <trkpt lat="63.56924" lon="19.51112">
        <ele>31.475243</ele>
        <time>2020-10-01T12:28:03.116Z</time>
      </trkpt>
      <trkpt lat="63.56921" lon="19.51087">
        <ele>31.36316</ele>
        <time>2020-10-01T12:28:05.068Z</time>
      </trkpt>
      <trkpt lat="63.56918" lon="19.51061">
        <ele>31.253052</ele>
        <time>2020-10-01T12:28:07.068Z</time>
      </trkpt>
      <trkpt lat="63.56915" lon="19.51035">
        <ele>31.139023</ele>
        <time>2020-10-01T12:28:09.110Z</time>
      </trkpt>
      <trkpt lat="63.56913" lon="19.51009">
        <ele>31.02869</ele>
        <time>2020-10-01T12:28:11.118Z</time>
      </trkpt>
      <trkpt lat="63.56911" lon="19.50984">
        <ele>30.919547</ele>
        <time>2020-10-01T12:28:13.075Z</time>
      </trkpt>
      <trkpt lat="63.56909" lon="19.50959">
        <ele>30.813956</ele>
        <time>2020-10-01T12:28:15.094Z</time>
      </trkpt>
      <trkpt lat="63.56907" lon="19.50935">
        <ele>30.709193</ele>
        <time>2020-10-01T12:28:17.069Z</time>
      </trkpt>
      <trkpt lat="63.56904" lon="19.5091">
        <ele>30.936528</ele>
        <time>2020-10-01T12:28:19.076Z</time>
      </trkpt>
      <trkpt lat="63.56902" lon="19.50885">
        <ele>31.304595</ele>
        <time>2020-10-01T12:28:21.086Z</time>
      </trkpt>
      <trkpt lat="63.56899" lon="19.50861">
        <ele>31.669939</ele>
        <time>2020-10-01T12:28:23.100Z</time>
      </trkpt>
      <trkpt lat="63.56897" lon="19.50836">
        <ele>32.036204</ele>
        <time>2020-10-01T12:28:25.059Z</time>
      </trkpt>
      <trkpt lat="63.56895" lon="19.5081">
        <ele>32.409211</ele>
        <time>2020-10-01T12:28:27.072Z</time>
      </trkpt>
      <trkpt lat="63.56892" lon="19.50786">
        <ele>32.776162</ele>
        <time>2020-10-01T12:28:29.065Z</time>
      </trkpt>
      <trkpt lat="63.5689" lon="19.50759">
        <ele>33.169123</ele>
        <time>2020-10-01T12:28:31.071Z</time>
      </trkpt>
      <trkpt lat="63.56888" lon="19.50735">
        <ele>33.525281</ele>
        <time>2020-10-01T12:28:33.065Z</time>
      </trkpt>
      <trkpt lat="63.56886" lon="19.50712">
        <ele>33.858342</ele>
        <time>2020-10-01T12:28:35.083Z</time>
      </trkpt>
      <trkpt lat="63.56884" lon="19.50688">
        <ele>34.213978</ele>
        <time>2020-10-01T12:28:37.066Z</time>
      </trkpt>
      <trkpt lat="63.56882" lon="19.50661">
        <ele>34.594821</ele>
        <time>2020-10-01T12:28:39.073Z</time>
      </trkpt>
      <trkpt lat="63.56881" lon="19.50635">
        <ele>34.983217</ele>
        <time>2020-10-01T12:28:41.113Z</time>
      </trkpt>
      <trkpt lat="63.5688" lon="19.50609">
        <ele>35.351431</ele>
        <time>2020-10-01T12:28:43.068Z</time>
      </trkpt>
      <trkpt lat="63.56881" lon="19.50586">
        <ele>35.687531</ele>
        <time>2020-10-01T12:28:45.069Z</time>
      </trkpt>
      <trkpt lat="63.56884" lon="19.50564">
        <ele>36.010565</ele>
        <time>2020-10-01T12:28:47.068Z</time>
      </trkpt>
      <trkpt lat="63.56887" lon="19.50536">
        <ele>36.430204</ele>
        <time>2020-10-01T12:28:50.067Z</time>
      </trkpt>
      <trkpt lat="63.56892" lon="19.50509">
        <ele>37.027068</ele>
        <time>2020-10-01T12:28:53.064Z</time>
      </trkpt>
      <trkpt lat="63.56897" lon="19.50483">
        <ele>37.657987</ele>
        <time>2020-10-01T12:28:56.103Z</time>
      </trkpt>
      <trkpt lat="63.56903" lon="19.5046">
        <ele>38.230453</ele>
        <time>2020-10-01T12:28:59.113Z</time>
      </trkpt>
      <trkpt lat="63.56905" lon="19.50437">
        <ele>38.738872</ele>
        <time>2020-10-01T12:29:02.083Z</time>
      </trkpt>
      <trkpt lat="63.56905" lon="19.50413">
        <ele>39.265222</ele>
        <time>2020-10-01T12:29:05.080Z</time>
      </trkpt>
      <trkpt lat="63.569" lon="19.5039">
        <ele>39.824375</ele>
        <time>2020-10-01T12:29:08.077Z</time>
      </trkpt>
      <trkpt lat="63.56892" lon="19.5037">
        <ele>40.408297</ele>
        <time>2020-10-01T12:29:11.064Z</time>
      </trkpt>
      <trkpt lat="63.56884" lon="19.5036">
        <ele>40.852069</ele>
        <time>2020-10-01T12:29:13.078Z</time>
      </trkpt>
      <trkpt lat="63.56872" lon="19.50347">
        <ele>41.508503</ele>
        <time>2020-10-01T12:29:16.086Z</time>
      </trkpt>
      <trkpt lat="63.56861" lon="19.50334">
        <ele>42.125951</ele>
        <time>2020-10-01T12:29:19.092Z</time>
      </trkpt>
      <trkpt lat="63.5685" lon="19.50323">
        <ele>42.705973</ele>
        <time>2020-10-01T12:29:22.084Z</time>
      </trkpt>
      <trkpt lat="63.56839" lon="19.50313">
        <ele>43.314722</ele>
        <time>2020-10-01T12:29:25.061Z</time>
      </trkpt>
      <trkpt lat="63.56827" lon="19.50303">
        <ele>43.91811</ele>
        <time>2020-10-01T12:29:28.082Z</time>
      </trkpt>
      <trkpt lat="63.56817" lon="19.50292">
        <ele>44.465301</ele>
        <time>2020-10-01T12:29:31.099Z</time>
      </trkpt>
      <trkpt lat="63.56805" lon="19.50279">
        <ele>45.105642</ele>
        <time>2020-10-01T12:29:34.119Z</time>
      </trkpt>
      <trkpt lat="63.56793" lon="19.50266">
        <ele>45.264937</ele>
        <time>2020-10-01T12:29:37.063Z</time>
      </trkpt>
      <trkpt lat="63.56785" lon="19.50256">
        <ele>45.193826</ele>
        <time>2020-10-01T12:29:39.097Z</time>
      </trkpt>
      <trkpt lat="63.56775" lon="19.50247">
        <ele>45.116642</ele>
        <time>2020-10-01T12:29:41.091Z</time>
      </trkpt>
      <trkpt lat="63.56765" lon="19.50237">
        <ele>45.036849</ele>
        <time>2020-10-01T12:29:43.072Z</time>
      </trkpt>
      <trkpt lat="63.56754" lon="19.50226">
        <ele>44.95495</ele>
        <time>2020-10-01T12:29:45.089Z</time>
      </trkpt>
      <trkpt lat="63.56745" lon="19.5021">
        <ele>44.873133</ele>
        <time>2020-10-01T12:29:47.064Z</time>
      </trkpt>
      <trkpt lat="63.5674" lon="19.50187">
        <ele>44.790098</ele>
        <time>2020-10-01T12:29:49.068Z</time>
      </trkpt>
      <trkpt lat="63.56738" lon="19.50164">
        <ele>44.713615</ele>
        <time>2020-10-01T12:29:51.085Z</time>
      </trkpt>
      <trkpt lat="63.56738" lon="19.50143">
        <ele>44.646481</ele>
        <time>2020-10-01T12:29:53.068Z</time>
      </trkpt>
      <trkpt lat="63.56737" lon="19.50122">
        <ele>44.580488</ele>
        <time>2020-10-01T12:29:55.088Z</time>
      </trkpt>
      <trkpt lat="63.56736" lon="19.50095">
        <ele>44.492391</ele>
        <time>2020-10-01T12:29:58.115Z</time>
      </trkpt>
      <trkpt lat="63.56735" lon="19.50072">
        <ele>44.418684</ele>
        <time>2020-10-01T12:30:01.127Z</time>
      </trkpt>
      <trkpt lat="63.56733" lon="19.50048">
        <ele>44.342575</ele>
        <time>2020-10-01T12:30:04.091Z</time>
      </trkpt>
      <trkpt lat="63.56734" lon="19.50022">
        <ele>44.256659</ele>
        <time>2020-10-01T12:30:07.076Z</time>
      </trkpt>
      <trkpt lat="63.56735" lon="19.49997">
        <ele>44.176481</ele>
        <time>2020-10-01T12:30:10.115Z</time>
      </trkpt>
      <trkpt lat="63.56736" lon="19.49971">
        <ele>44.093116</ele>
        <time>2020-10-01T12:30:13.065Z</time>
      </trkpt>
      <trkpt lat="63.56736" lon="19.49949">
        <ele>43.940457</ele>
        <time>2020-10-01T12:30:15.062Z</time>
      </trkpt>
      <trkpt lat="63.56735" lon="19.49924">
        <ele>43.358846</ele>
        <time>2020-10-01T12:30:17.103Z</time>
      </trkpt>
      <trkpt lat="63.56735" lon="19.49902">
        <ele>42.827834</ele>
        <time>2020-10-01T12:30:19.058Z</time>
      </trkpt>
      <trkpt lat="63.56735" lon="19.4988">
        <ele>42.29674</ele>
        <time>2020-10-01T12:30:21.067Z</time>
      </trkpt>
      <trkpt lat="63.56735" lon="19.49853">
        <ele>41.660492</ele>
        <time>2020-10-01T12:30:24.082Z</time>
      </trkpt>
      <trkpt lat="63.56735" lon="19.49831">
        <ele>41.124724</ele>
        <time>2020-10-01T12:30:28.080Z</time>
      </trkpt>
      <trkpt lat="63.56735" lon="19.498">
        <ele>40.385474</ele>
        <time>2020-10-01T12:30:31.101Z</time>
      </trkpt>
      <trkpt lat="63.56735" lon="19.49776">
        <ele>39.80177</ele>
        <time>2020-10-01T12:30:33.066Z</time>
      </trkpt>
      <trkpt lat="63.56734" lon="19.49749">
        <ele>39.166822</ele>
        <time>2020-10-01T12:30:35.087Z</time>
      </trkpt>
      <trkpt lat="63.56732" lon="19.49723">
        <ele>38.515315</ele>
        <time>2020-10-01T12:30:37.074Z</time>
      </trkpt>
      <trkpt lat="63.56729" lon="19.49696">
        <ele>37.853017</ele>
        <time>2020-10-01T12:30:39.068Z</time>
      </trkpt>
      <trkpt lat="63.56725" lon="19.49668">
        <ele>37.16215</ele>
        <time>2020-10-01T12:30:41.110Z</time>
      </trkpt>
      <trkpt lat="63.5672" lon="19.49642">
        <ele>36.500592</ele>
        <time>2020-10-01T12:30:43.081Z</time>
      </trkpt>
      <trkpt lat="63.56717" lon="19.49617">
        <ele>35.855479</ele>
        <time>2020-10-01T12:30:45.114Z</time>
      </trkpt>
      <trkpt lat="63.56713" lon="19.49592">
        <ele>35.240649</ele>
        <time>2020-10-01T12:30:47.084Z</time>
      </trkpt>
      <trkpt lat="63.56709" lon="19.49571">
        <ele>34.696552</ele>
        <time>2020-10-01T12:30:49.079Z</time>
      </trkpt>
      <trkpt lat="63.56703" lon="19.49547">
        <ele>34.235375</ele>
        <time>2020-10-01T12:30:52.077Z</time>
      </trkpt>
      <trkpt lat="63.56698" lon="19.49527">
        <ele>34.003248</ele>
        <time>2020-10-01T12:30:57.077Z</time>
      </trkpt>
      <trkpt lat="63.56685" lon="19.49476">
        <ele>33.444116</ele>
        <time>2020-10-01T12:36:36.110Z</time>
      </trkpt>
      <trkpt lat="63.56699" lon="19.49563">
        <ele>32.544856</ele>
        <time>2020-10-01T12:43:35.071Z</time>
      </trkpt>
      <trkpt lat="63.56672" lon="19.49547">
        <ele>31.918188</ele>
        <time>2020-10-01T12:44:19.072Z</time>
      </trkpt>
      <trkpt lat="63.56681" lon="19.49547">
        <ele>31.715106</ele>
        <time>2020-10-01T12:52:44.070Z</time>
      </trkpt>
      <trkpt lat="63.56688" lon="19.49531">
        <ele>31.495121</ele>
        <time>2020-10-01T12:59:14.047Z</time>
      </trkpt>
      <trkpt lat="63.56695" lon="19.49544">
        <ele>31.28342</ele>
        <time>2020-10-01T13:01:20.083Z</time>
      </trkpt>
      <trkpt lat="63.56698" lon="19.49566">
        <ele>31.062293</ele>
        <time>2020-10-01T13:01:24.095Z</time>
      </trkpt>
      <trkpt lat="63.56705" lon="19.49584">
        <ele>30.827405</ele>
        <time>2020-10-01T13:01:27.067Z</time>
      </trkpt>
      <trkpt lat="63.56715" lon="19.49588">
        <ele>30.618118</ele>
        <time>2020-10-01T13:01:29.067Z</time>
      </trkpt>
      <trkpt lat="63.56725" lon="19.49584">
        <ele>30.489678</ele>
        <time>2020-10-01T13:01:31.086Z</time>
      </trkpt>
      <trkpt lat="63.56734" lon="19.49576">
        <ele>30.652076</ele>
        <time>2020-10-01T13:01:33.089Z</time>
      </trkpt>
      <trkpt lat="63.56745" lon="19.49566">
        <ele>30.863192</ele>
        <time>2020-10-01T13:01:36.078Z</time>
      </trkpt>
      <trkpt lat="63.56754" lon="19.49555">
        <ele>31.051694</ele>
        <time>2020-10-01T13:01:39.106Z</time>
      </trkpt>
      <trkpt lat="63.56763" lon="19.49545">
        <ele>31.231951</ele>
        <time>2020-10-01T13:01:42.130Z</time>
      </trkpt>
      <trkpt lat="63.56773" lon="19.49534">
        <ele>31.413606</ele>
        <time>2020-10-01T13:01:45.096Z</time>
      </trkpt>
      <trkpt lat="63.56782" lon="19.49522">
        <ele>31.601273</ele>
        <time>2020-10-01T13:01:48.088Z</time>
      </trkpt>
      <trkpt lat="63.56791" lon="19.49508">
        <ele>31.804913</ele>
        <time>2020-10-01T13:01:51.123Z</time>
      </trkpt>
      <trkpt lat="63.56801" lon="19.49492">
        <ele>32.016347</ele>
        <time>2020-10-01T13:01:54.089Z</time>
      </trkpt>
      <trkpt lat="63.56811" lon="19.49476">
        <ele>32.228213</ele>
        <time>2020-10-01T13:01:57.109Z</time>
      </trkpt>
      <trkpt lat="63.5682" lon="19.49455">
        <ele>32.453277</ele>
        <time>2020-10-01T13:02:00.084Z</time>
      </trkpt>
      <trkpt lat="63.56829" lon="19.49435">
        <ele>32.67883</ele>
        <time>2020-10-01T13:02:03.088Z</time>
      </trkpt>
      <trkpt lat="63.56838" lon="19.49415">
        <ele>32.907818</ele>
        <time>2020-10-01T13:02:06.106Z</time>
      </trkpt>
      <trkpt lat="63.56844" lon="19.494">
        <ele>33.066425</ele>
        <time>2020-10-01T13:02:08.110Z</time>
      </trkpt>
      <trkpt lat="63.56851" lon="19.49385">
        <ele>33.228595</ele>
        <time>2020-10-01T13:02:10.071Z</time>
      </trkpt>
      <trkpt lat="63.5686" lon="19.49365">
        <ele>33.452547</ele>
        <time>2020-10-01T13:02:13.103Z</time>
      </trkpt>
      <trkpt lat="63.56869" lon="19.49344">
        <ele>33.647875</ele>
        <time>2020-10-01T13:02:16.128Z</time>
      </trkpt>
      <trkpt lat="63.56878" lon="19.49323">
        <ele>33.769157</ele>
        <time>2020-10-01T13:02:19.091Z</time>
      </trkpt>
      <trkpt lat="63.56885" lon="19.49307">
        <ele>33.854171</ele>
        <time>2020-10-01T13:02:21.066Z</time>
      </trkpt>
      <trkpt lat="63.56891" lon="19.49292">
        <ele>33.937682</ele>
        <time>2020-10-01T13:02:23.084Z</time>
      </trkpt>
      <trkpt lat="63.56897" lon="19.49277">
        <ele>34.01971</ele>
        <time>2020-10-01T13:02:25.076Z</time>
      </trkpt>
      <trkpt lat="63.56906" lon="19.49255">
        <ele>34.139591</ele>
        <time>2020-10-01T13:02:28.091Z</time>
      </trkpt>
      <trkpt lat="63.56915" lon="19.49236">
        <ele>34.251424</ele>
        <time>2020-10-01T13:02:31.114Z</time>
      </trkpt>
      <trkpt lat="63.56924" lon="19.49219">
        <ele>34.361299</ele>
        <time>2020-10-01T13:02:34.078Z</time>
      </trkpt>
      <trkpt lat="63.56931" lon="19.49205">
        <ele>34.446573</ele>
        <time>2020-10-01T13:02:36.158Z</time>
      </trkpt>
      <trkpt lat="63.56941" lon="19.49187">
        <ele>34.564014</ele>
        <time>2020-10-01T13:02:39.082Z</time>
      </trkpt>
      <trkpt lat="63.56951" lon="19.49167">
        <ele>34.684223</ele>
        <time>2020-10-01T13:02:42.091Z</time>
      </trkpt>
      <trkpt lat="63.56958" lon="19.49153">
        <ele>34.768288</ele>
        <time>2020-10-01T13:02:44.083Z</time>
      </trkpt>
      <trkpt lat="63.56967" lon="19.49132">
        <ele>34.889207</ele>
        <time>2020-10-01T13:02:47.073Z</time>
      </trkpt>
      <trkpt lat="63.56976" lon="19.4911">
        <ele>35.008712</ele>
        <time>2020-10-01T13:02:50.088Z</time>
      </trkpt>
      <trkpt lat="63.56982" lon="19.49084">
        <ele>35.129616</ele>
        <time>2020-10-01T13:02:53.103Z</time>
      </trkpt>
      <trkpt lat="63.56987" lon="19.49066">
        <ele>35.21218</ele>
        <time>2020-10-01T13:02:55.104Z</time>
      </trkpt>
      <trkpt lat="63.56992" lon="19.49049">
        <ele>35.16031</ele>
        <time>2020-10-01T13:02:57.134Z</time>
      </trkpt>
      <trkpt lat="63.56998" lon="19.49022">
        <ele>34.939876</ele>
        <time>2020-10-01T13:03:00.109Z</time>
      </trkpt>
      <trkpt lat="63.57002" lon="19.49003">
        <ele>34.785832</ele>
        <time>2020-10-01T13:03:02.077Z</time>
      </trkpt>
      <trkpt lat="63.57006" lon="19.48985">
        <ele>34.634646</ele>
        <time>2020-10-01T13:03:04.075Z</time>
      </trkpt>
      <trkpt lat="63.57012" lon="19.48969">
        <ele>34.479182</ele>
        <time>2020-10-01T13:03:06.087Z</time>
      </trkpt>
      <trkpt lat="63.57019" lon="19.48954">
        <ele>34.328683</ele>
        <time>2020-10-01T13:03:08.078Z</time>
      </trkpt>
      <trkpt lat="63.57025" lon="19.48939">
        <ele>34.178185</ele>
        <time>2020-10-01T13:03:10.068Z</time>
      </trkpt>
      <trkpt lat="63.57034" lon="19.48918">
        <ele>33.969092</ele>
        <time>2020-10-01T13:03:13.106Z</time>
      </trkpt>
      <trkpt lat="63.57042" lon="19.48899">
        <ele>33.768169</ele>
        <time>2020-10-01T13:03:16.106Z</time>
      </trkpt>
      <trkpt lat="63.57051" lon="19.4888">
        <ele>33.570378</ele>
        <time>2020-10-01T13:03:19.087Z</time>
      </trkpt>
      <trkpt lat="63.57057" lon="19.48864">
        <ele>33.420964</ele>
        <time>2020-10-01T13:03:21.090Z</time>
      </trkpt>
      <trkpt lat="63.57063" lon="19.48848">
        <ele>33.268355</ele>
        <time>2020-10-01T13:03:23.103Z</time>
      </trkpt>
      <trkpt lat="63.57069" lon="19.48832">
        <ele>33.109585</ele>
        <time>2020-10-01T13:03:25.068Z</time>
      </trkpt>
      <trkpt lat="63.57075" lon="19.48814">
        <ele>32.944904</ele>
        <time>2020-10-01T13:03:27.112Z</time>
      </trkpt>
      <trkpt lat="63.57081" lon="19.48794">
        <ele>32.773452</ele>
        <time>2020-10-01T13:03:29.086Z</time>
      </trkpt>
      <trkpt lat="63.57086" lon="19.48774">
        <ele>32.607383</ele>
        <time>2020-10-01T13:03:31.071Z</time>
      </trkpt>
      <trkpt lat="63.5709" lon="19.48755">
        <ele>32.44848</ele>
        <time>2020-10-01T13:03:33.096Z</time>
      </trkpt>
      <trkpt lat="63.57094" lon="19.48737">
        <ele>32.298235</ele>
        <time>2020-10-01T13:03:35.112Z</time>
      </trkpt>
      <trkpt lat="63.57101" lon="19.48711">
        <ele>32.204761</ele>
        <time>2020-10-01T13:03:38.073Z</time>
      </trkpt>
      <trkpt lat="63.57107" lon="19.48685">
        <ele>32.11738</ele>
        <time>2020-10-01T13:03:41.099Z</time>
      </trkpt>
      <trkpt lat="63.57113" lon="19.48659">
        <ele>32.029141</ele>
        <time>2020-10-01T13:03:44.088Z</time>
      </trkpt>
      <trkpt lat="63.5712" lon="19.48632">
        <ele>31.941162</ele>
        <time>2020-10-01T13:03:47.093Z</time>
      </trkpt>
      <trkpt lat="63.57124" lon="19.48615">
        <ele>31.881782</ele>
        <time>2020-10-01T13:03:49.099Z</time>
      </trkpt>
      <trkpt lat="63.5713" lon="19.48588">
        <ele>31.79411</ele>
        <time>2020-10-01T13:03:52.116Z</time>
      </trkpt>
      <trkpt lat="63.57134" lon="19.4857">
        <ele>31.734209</ele>
        <time>2020-10-01T13:03:54.115Z</time>
      </trkpt>
      <trkpt lat="63.5714" lon="19.48543">
        <ele>31.644702</ele>
        <time>2020-10-01T13:03:57.090Z</time>
      </trkpt>
      <trkpt lat="63.57145" lon="19.48524">
        <ele>31.582358</ele>
        <time>2020-10-01T13:03:59.071Z</time>
      </trkpt>
      <trkpt lat="63.57149" lon="19.48506">
        <ele>31.520479</ele>
        <time>2020-10-01T13:04:01.077Z</time>
      </trkpt>
      <trkpt lat="63.57153" lon="19.48487">
        <ele>31.459006</ele>
        <time>2020-10-01T13:04:03.107Z</time>
      </trkpt>
      <trkpt lat="63.57158" lon="19.48469">
        <ele>31.397533</ele>
        <time>2020-10-01T13:04:05.119Z</time>
      </trkpt>
      <trkpt lat="63.57162" lon="19.4845">
        <ele>31.336586</ele>
        <time>2020-10-01T13:04:07.075Z</time>
      </trkpt>
      <trkpt lat="63.57166" lon="19.48432">
        <ele>31.274448</ele>
        <time>2020-10-01T13:04:09.102Z</time>
      </trkpt>
      <trkpt lat="63.57171" lon="19.48413">
        <ele>31.2107</ele>
        <time>2020-10-01T13:04:11.105Z</time>
      </trkpt>
      <trkpt lat="63.57175" lon="19.48394">
        <ele>31.147469</ele>
        <time>2020-10-01T13:04:13.075Z</time>
      </trkpt>
      <trkpt lat="63.5718" lon="19.48376">
        <ele>31.099577</ele>
        <time>2020-10-01T13:04:15.087Z</time>
      </trkpt>
      <trkpt lat="63.57185" lon="19.48357">
        <ele>31.114701</ele>
        <time>2020-10-01T13:04:17.112Z</time>
      </trkpt>
      <trkpt lat="63.57189" lon="19.48339">
        <ele>31.129437</ele>
        <time>2020-10-01T13:04:19.088Z</time>
      </trkpt>
      <trkpt lat="63.57194" lon="19.4832">
        <ele>31.144747</ele>
        <time>2020-10-01T13:04:21.072Z</time>
      </trkpt>
      <trkpt lat="63.57198" lon="19.48301">
        <ele>31.160017</ele>
        <time>2020-10-01T13:04:23.094Z</time>
      </trkpt>
      <trkpt lat="63.57202" lon="19.48282">
        <ele>31.17504</ele>
        <time>2020-10-01T13:04:25.089Z</time>
      </trkpt>
      <trkpt lat="63.57207" lon="19.48263">
        <ele>31.190275</ele>
        <time>2020-10-01T13:04:27.103Z</time>
      </trkpt>
      <trkpt lat="63.57212" lon="19.48245">
        <ele>31.20556</ele>
        <time>2020-10-01T13:04:29.078Z</time>
      </trkpt>
      <trkpt lat="63.57216" lon="19.48226">
        <ele>31.220973</ele>
        <time>2020-10-01T13:04:31.100Z</time>
      </trkpt>
      <trkpt lat="63.57221" lon="19.48206">
        <ele>31.236377</ele>
        <time>2020-10-01T13:04:33.106Z</time>
      </trkpt>
      <trkpt lat="63.57225" lon="19.48188">
        <ele>31.251299</ele>
        <time>2020-10-01T13:04:35.109Z</time>
      </trkpt>
      <trkpt lat="63.57231" lon="19.48161">
        <ele>31.272684</ele>
        <time>2020-10-01T13:04:38.085Z</time>
      </trkpt>
      <trkpt lat="63.57235" lon="19.48142">
        <ele>31.287366</ele>
        <time>2020-10-01T13:04:40.084Z</time>
      </trkpt>
      <trkpt lat="63.57239" lon="19.48124">
        <ele>31.301912</ele>
        <time>2020-10-01T13:04:42.127Z</time>
      </trkpt>
      <trkpt lat="63.57242" lon="19.48105">
        <ele>31.316256</ele>
        <time>2020-10-01T13:04:44.098Z</time>
      </trkpt>
      <trkpt lat="63.57246" lon="19.48087">
        <ele>31.330805</ele>
        <time>2020-10-01T13:04:46.083Z</time>
      </trkpt>
      <trkpt lat="63.57251" lon="19.48069">
        <ele>31.345558</ele>
        <time>2020-10-01T13:04:48.108Z</time>
      </trkpt>
      <trkpt lat="63.57255" lon="19.48051">
        <ele>31.360248</ele>
        <time>2020-10-01T13:04:50.086Z</time>
      </trkpt>
      <trkpt lat="63.5726" lon="19.48033">
        <ele>31.375223</ele>
        <time>2020-10-01T13:04:52.090Z</time>
      </trkpt>
      <trkpt lat="63.57265" lon="19.48015">
        <ele>31.363714</ele>
        <time>2020-10-01T13:04:54.118Z</time>
      </trkpt>
      <trkpt lat="63.57271" lon="19.47988">
        <ele>31.295104</ele>
        <time>2020-10-01T13:04:57.075Z</time>
      </trkpt>
      <trkpt lat="63.57276" lon="19.47961">
        <ele>31.227363</ele>
        <time>2020-10-01T13:05:00.111Z</time>
      </trkpt>
      <trkpt lat="63.57281" lon="19.47932">
        <ele>31.158713</ele>
        <time>2020-10-01T13:05:03.075Z</time>
      </trkpt>
      <trkpt lat="63.57284" lon="19.47903">
        <ele>31.089769</ele>
        <time>2020-10-01T13:05:06.074Z</time>
      </trkpt>
      <trkpt lat="63.57288" lon="19.47874">
        <ele>31.020659</ele>
        <time>2020-10-01T13:05:09.092Z</time>
      </trkpt>
      <trkpt lat="63.5729" lon="19.47854">
        <ele>30.972016</ele>
        <time>2020-10-01T13:05:11.091Z</time>
      </trkpt>
      <trkpt lat="63.57293" lon="19.47834">
        <ele>30.924625</ele>
        <time>2020-10-01T13:05:13.093Z</time>
      </trkpt>
      <trkpt lat="63.57296" lon="19.47813">
        <ele>30.875771</ele>
        <time>2020-10-01T13:05:15.094Z</time>
      </trkpt>
      <trkpt lat="63.57298" lon="19.47793">
        <ele>30.8283</ele>
        <time>2020-10-01T13:05:17.098Z</time>
      </trkpt>
      <trkpt lat="63.573" lon="19.47773">
        <ele>30.781572</ele>
        <time>2020-10-01T13:05:19.124Z</time>
      </trkpt>
      <trkpt lat="63.57301" lon="19.47752">
        <ele>30.733801</ele>
        <time>2020-10-01T13:05:21.125Z</time>
      </trkpt>
      <trkpt lat="63.57302" lon="19.47731">
        <ele>30.685349</ele>
        <time>2020-10-01T13:05:23.298Z</time>
      </trkpt>
      <trkpt lat="63.57303" lon="19.4771">
        <ele>30.636443</ele>
        <time>2020-10-01T13:05:25.072Z</time>
      </trkpt>
      <trkpt lat="63.57304" lon="19.47689">
        <ele>30.588445</ele>
        <time>2020-10-01T13:05:27.074Z</time>
      </trkpt>
      <trkpt lat="63.57305" lon="19.47668">
        <ele>30.540283</ele>
        <time>2020-10-01T13:05:29.083Z</time>
      </trkpt>
      <trkpt lat="63.57308" lon="19.47646">
        <ele>30.487565</ele>
        <time>2020-10-01T13:05:31.072Z</time>
      </trkpt>
      <trkpt lat="63.57311" lon="19.47624">
        <ele>30.50011</ele>
        <time>2020-10-01T13:05:33.091Z</time>
      </trkpt>
      <trkpt lat="63.57313" lon="19.47603">
        <ele>30.585124</ele>
        <time>2020-10-01T13:05:35.085Z</time>
      </trkpt>
      <trkpt lat="63.57316" lon="19.47583">
        <ele>30.668876</ele>
        <time>2020-10-01T13:05:37.077Z</time>
      </trkpt>
      <trkpt lat="63.57319" lon="19.47563">
        <ele>30.749518</ele>
        <time>2020-10-01T13:05:39.077Z</time>
      </trkpt>
      <trkpt lat="63.57321" lon="19.47544">
        <ele>30.828889</ele>
        <time>2020-10-01T13:05:41.095Z</time>
      </trkpt>
      <trkpt lat="63.57325" lon="19.47515">
        <ele>30.944796</ele>
        <time>2020-10-01T13:05:44.108Z</time>
      </trkpt>
      <trkpt lat="63.57326" lon="19.47495">
        <ele>31.025271</ele>
        <time>2020-10-01T13:05:46.074Z</time>
      </trkpt>
      <trkpt lat="63.57328" lon="19.47466">
        <ele>31.139715</ele>
        <time>2020-10-01T13:05:49.128Z</time>
      </trkpt>
      <trkpt lat="63.5733" lon="19.47437">
        <ele>31.253955</ele>
        <time>2020-10-01T13:05:52.075Z</time>
      </trkpt>
      <trkpt lat="63.57333" lon="19.4741">
        <ele>31.362941</ele>
        <time>2020-10-01T13:05:55.071Z</time>
      </trkpt>
      <trkpt lat="63.57336" lon="19.47381">
        <ele>31.48034</ele>
        <time>2020-10-01T13:05:58.112Z</time>
      </trkpt>
      <trkpt lat="63.57339" lon="19.47352">
        <ele>31.597672</ele>
        <time>2020-10-01T13:06:01.094Z</time>
      </trkpt>
      <trkpt lat="63.57341" lon="19.47323">
        <ele>31.711302</ele>
        <time>2020-10-01T13:06:04.077Z</time>
      </trkpt>
      <trkpt lat="63.57345" lon="19.47295">
        <ele>31.823954</ele>
        <time>2020-10-01T13:06:07.065Z</time>
      </trkpt>
      <trkpt lat="63.57347" lon="19.47271">
        <ele>31.922805</ele>
        <time>2020-10-01T13:06:10.087Z</time>
      </trkpt>
      <trkpt lat="63.5735" lon="19.47244">
        <ele>32.033248</ele>
        <time>2020-10-01T13:06:13.096Z</time>
      </trkpt>
      <trkpt lat="63.57352" lon="19.47223">
        <ele>32.052212</ele>
        <time>2020-10-01T13:06:15.069Z</time>
      </trkpt>
      <trkpt lat="63.57355" lon="19.47202">
        <ele>32.064036</ele>
        <time>2020-10-01T13:06:17.086Z</time>
      </trkpt>
      <trkpt lat="63.57357" lon="19.4718">
        <ele>32.075862</ele>
        <time>2020-10-01T13:06:19.075Z</time>
      </trkpt>
      <trkpt lat="63.57359" lon="19.47158">
        <ele>32.087535</ele>
        <time>2020-10-01T13:06:21.074Z</time>
      </trkpt>
      <trkpt lat="63.57361" lon="19.47138">
        <ele>32.098689</ele>
        <time>2020-10-01T13:06:23.085Z</time>
      </trkpt>
      <trkpt lat="63.57363" lon="19.47117">
        <ele>32.109467</ele>
        <time>2020-10-01T13:06:25.082Z</time>
      </trkpt>
      <trkpt lat="63.57365" lon="19.47088">
        <ele>32.12534</ele>
        <time>2020-10-01T13:06:28.071Z</time>
      </trkpt>
      <trkpt lat="63.57367" lon="19.47068">
        <ele>32.136097</ele>
        <time>2020-10-01T13:06:30.075Z</time>
      </trkpt>
      <trkpt lat="63.57368" lon="19.47048">
        <ele>32.146844</ele>
        <time>2020-10-01T13:06:32.079Z</time>
      </trkpt>
      <trkpt lat="63.5737" lon="19.47028">
        <ele>32.157638</ele>
        <time>2020-10-01T13:06:34.115Z</time>
      </trkpt>
      <trkpt lat="63.57372" lon="19.47007">
        <ele>32.16887</ele>
        <time>2020-10-01T13:06:36.071Z</time>
      </trkpt>
      <trkpt lat="63.57374" lon="19.46987">
        <ele>32.179699</ele>
        <time>2020-10-01T13:06:38.080Z</time>
      </trkpt>
      <trkpt lat="63.57376" lon="19.46966">
        <ele>32.190987</ele>
        <time>2020-10-01T13:06:40.089Z</time>
      </trkpt>
      <trkpt lat="63.57378" lon="19.46945">
        <ele>32.202271</ele>
        <time>2020-10-01T13:06:42.068Z</time>
      </trkpt>
      <trkpt lat="63.5738" lon="19.46924">
        <ele>32.213403</ele>
        <time>2020-10-01T13:06:44.110Z</time>
      </trkpt>
      <trkpt lat="63.57382" lon="19.46904">
        <ele>32.224095</ele>
        <time>2020-10-01T13:06:46.080Z</time>
      </trkpt>
      <trkpt lat="63.57384" lon="19.46885">
        <ele>32.234736</ele>
        <time>2020-10-01T13:06:48.120Z</time>
      </trkpt>
      <trkpt lat="63.57386" lon="19.46865">
        <ele>32.245712</ele>
        <time>2020-10-01T13:06:50.098Z</time>
      </trkpt>
      <trkpt lat="63.57388" lon="19.46845">
        <ele>32.24826</ele>
        <time>2020-10-01T13:06:52.068Z</time>
      </trkpt>
      <trkpt lat="63.57391" lon="19.46818">
        <ele>32.080531</ele>
        <time>2020-10-01T13:06:55.108Z</time>
      </trkpt>
      <trkpt lat="63.57394" lon="19.46792">
        <ele>31.921624</ele>
        <time>2020-10-01T13:06:58.076Z</time>
      </trkpt>
      <trkpt lat="63.57396" lon="19.46764">
        <ele>31.747343</ele>
        <time>2020-10-01T13:07:01.070Z</time>
      </trkpt>
      <trkpt lat="63.57399" lon="19.46736">
        <ele>31.574899</ele>
        <time>2020-10-01T13:07:04.119Z</time>
      </trkpt>
      <trkpt lat="63.57402" lon="19.46707">
        <ele>31.396574</ele>
        <time>2020-10-01T13:07:07.082Z</time>
      </trkpt>
      <trkpt lat="63.57403" lon="19.46687">
        <ele>31.274146</ele>
        <time>2020-10-01T13:07:09.089Z</time>
      </trkpt>
      <trkpt lat="63.57406" lon="19.46658">
        <ele>31.095126</ele>
        <time>2020-10-01T13:07:12.093Z</time>
      </trkpt>
      <trkpt lat="63.57408" lon="19.4663">
        <ele>30.924894</ele>
        <time>2020-10-01T13:07:15.084Z</time>
      </trkpt>
      <trkpt lat="63.5741" lon="19.46603">
        <ele>30.757508</ele>
        <time>2020-10-01T13:07:18.070Z</time>
      </trkpt>
      <trkpt lat="63.57412" lon="19.46575">
        <ele>30.590527</ele>
        <time>2020-10-01T13:07:21.090Z</time>
      </trkpt>
      <trkpt lat="63.57414" lon="19.46547">
        <ele>30.416621</ele>
        <time>2020-10-01T13:07:24.092Z</time>
      </trkpt>
      <trkpt lat="63.57417" lon="19.4652">
        <ele>30.24911</ele>
        <time>2020-10-01T13:07:27.083Z</time>
      </trkpt>
      <trkpt lat="63.57419" lon="19.46493">
        <ele>30.082255</ele>
        <time>2020-10-01T13:07:30.118Z</time>
      </trkpt>
      <trkpt lat="63.57421" lon="19.46465">
        <ele>29.910243</ele>
        <time>2020-10-01T13:07:33.096Z</time>
      </trkpt>
      <trkpt lat="63.57424" lon="19.46437">
        <ele>29.980094</ele>
        <time>2020-10-01T13:07:36.087Z</time>
      </trkpt>
      <trkpt lat="63.57427" lon="19.4641">
        <ele>30.313427</ele>
        <time>2020-10-01T13:07:39.080Z</time>
      </trkpt>
      <trkpt lat="63.57429" lon="19.46384">
        <ele>30.634372</ele>
        <time>2020-10-01T13:07:42.076Z</time>
      </trkpt>
      <trkpt lat="63.57432" lon="19.4636">
        <ele>30.930322</ele>
        <time>2020-10-01T13:07:45.096Z</time>
      </trkpt>
      <trkpt lat="63.57435" lon="19.46337">
        <ele>31.216002</ele>
        <time>2020-10-01T13:07:48.106Z</time>
      </trkpt>
      <trkpt lat="63.57437" lon="19.46315">
        <ele>31.502365</ele>
        <time>2020-10-01T13:07:51.105Z</time>
      </trkpt>
      <trkpt lat="63.5744" lon="19.46291">
        <ele>31.796762</ele>
        <time>2020-10-01T13:07:54.087Z</time>
      </trkpt>
      <trkpt lat="63.57442" lon="19.46265">
        <ele>32.11299</ele>
        <time>2020-10-01T13:07:57.072Z</time>
      </trkpt>
      <trkpt lat="63.57445" lon="19.46239">
        <ele>32.440515</ele>
        <time>2020-10-01T13:08:00.096Z</time>
      </trkpt>
      <trkpt lat="63.57448" lon="19.46213">
        <ele>32.767355</ele>
        <time>2020-10-01T13:08:03.083Z</time>
      </trkpt>
      <trkpt lat="63.57451" lon="19.46189">
        <ele>33.068922</ele>
        <time>2020-10-01T13:08:06.074Z</time>
      </trkpt>
      <trkpt lat="63.57456" lon="19.46167">
        <ele>33.368603</ele>
        <time>2020-10-01T13:08:09.100Z</time>
      </trkpt>
      <trkpt lat="63.57461" lon="19.46145">
        <ele>33.66382</ele>
        <time>2020-10-01T13:08:12.072Z</time>
      </trkpt>
      <trkpt lat="63.57466" lon="19.46125">
        <ele>33.941727</ele>
        <time>2020-10-01T13:08:15.081Z</time>
      </trkpt>
      <trkpt lat="63.57472" lon="19.46104">
        <ele>34.243569</ele>
        <time>2020-10-01T13:08:19.073Z</time>
      </trkpt>
      <trkpt lat="63.57478" lon="19.46086">
        <ele>34.511497</ele>
        <time>2020-10-01T13:08:22.125Z</time>
      </trkpt>
      <trkpt lat="63.57485" lon="19.46065">
        <ele>34.704597</ele>
        <time>2020-10-01T13:08:25.079Z</time>
      </trkpt>
      <trkpt lat="63.57492" lon="19.46048">
        <ele>34.704597</ele>
        <time>2020-10-01T13:08:28.071Z</time>
      </trkpt>
      <trkpt lat="63.57499" lon="19.46032">
        <ele>34.704597</ele>
        <time>2020-10-01T13:08:31.078Z</time>
      </trkpt>
      <trkpt lat="63.57506" lon="19.46015">
        <ele>34.704597</ele>
        <time>2020-10-01T13:08:34.072Z</time>
      </trkpt>
      <trkpt lat="63.57514" lon="19.45999">
        <ele>34.704597</ele>
        <time>2020-10-01T13:08:37.072Z</time>
      </trkpt>
      <trkpt lat="63.57521" lon="19.45986">
        <ele>34.704597</ele>
        <time>2020-10-01T13:08:40.099Z</time>
      </trkpt>
      <trkpt lat="63.57532" lon="19.45973">
        <ele>34.704597</ele>
        <time>2020-10-01T13:08:44.108Z</time>
      </trkpt>
      <trkpt lat="63.57542" lon="19.45961">
        <ele>34.704597</ele>
        <time>2020-10-01T13:08:48.083Z</time>
      </trkpt>
      <trkpt lat="63.57551" lon="19.45949">
        <ele>34.704597</ele>
        <time>2020-10-01T13:08:52.081Z</time>
      </trkpt>
      <trkpt lat="63.57559" lon="19.45936">
        <ele>34.704597</ele>
        <time>2020-10-01T13:08:56.083Z</time>
      </trkpt>
      <trkpt lat="63.57558" lon="19.45915">
        <ele>34.704597</ele>
        <time>2020-10-01T13:09:00.116Z</time>
      </trkpt>
      <trkpt lat="63.57552" lon="19.45894">
        <ele>34.704597</ele>
        <time>2020-10-01T13:09:04.108Z</time>
      </trkpt>
      <trkpt lat="63.57546" lon="19.45853">
        <ele>34.704597</ele>
        <time>2020-10-01T13:10:06.118Z</time>
      </trkpt>
      <trkpt lat="63.57554" lon="19.45835">
        <ele>34.704597</ele>
        <time>2020-10-01T13:10:10.091Z</time>
      </trkpt>
      <trkpt lat="63.57564" lon="19.45825">
        <ele>34.704597</ele>
        <time>2020-10-01T13:10:14.084Z</time>
      </trkpt>
      <trkpt lat="63.57572" lon="19.45814">
        <ele>34.704597</ele>
        <time>2020-10-01T13:10:18.072Z</time>
      </trkpt>
      <trkpt lat="63.57579" lon="19.45798">
        <ele>34.704597</ele>
        <time>2020-10-01T13:10:23.091Z</time>
      </trkpt>
      <trkpt lat="63.57578" lon="19.45778">
        <ele>34.704597</ele>
        <time>2020-10-01T13:10:30.112Z</time>
      </trkpt>
      <trkpt lat="63.57578" lon="19.45778">
        <ele>34.704597</ele>
        <time>2020-10-01T13:11:08.717Z</time>
      </trkpt>
    </trkseg>
  </trk>
</gpx>